<?xml version="1.0" encoding="UTF-8" standalone="no" ?>
<gpx xmlns="http://www.topografix.com/GPX/1/1" xmlns:xsi="http://www.w3.org/2001/XMLSchema-instance" xsi:schemaLocation="http://www.topografix.com/GPX/1/1 http://www.topografix.com/GPX/1/1/gpx.xsd" version="1.1" creator="VisuGPX - https://www.visugpx.com">
  <metadata>
    <name>VTT Sud Bourgogne</name>
    <desc><![CDATA[Cluny - Tournus : circuits VTT XC]]></desc>
  </metadata>
  <trk>
    <name><![CDATA[1_la saone rive gauche - Vert]]></name>
    <extensions>
      <line xmlns="http://www.topografix.com/GPX/gpx_style/0/2">
        <color>11ff00</color>
        <width>4</width>
      </line>
    </extensions>
    <trkseg>
      <trkpt lat="46.55826" lon="4.93171">
        <ele>192</ele>
        <time>2020-09-22T10:18:42Z</time>
      </trkpt>
      <trkpt lat="46.55827" lon="4.93166">
        <ele>192</ele>
        <time>2020-09-22T10:18:43Z</time>
      </trkpt>
      <trkpt lat="46.55828" lon="4.93162">
        <ele>192</ele>
        <time>2020-09-22T10:18:44Z</time>
      </trkpt>
      <trkpt lat="46.55829" lon="4.93159">
        <ele>192</ele>
        <time>2020-09-22T10:18:44Z</time>
      </trkpt>
      <trkpt lat="46.55832" lon="4.93157">
        <ele>192</ele>
        <time>2020-09-22T10:18:45Z</time>
      </trkpt>
      <trkpt lat="46.55833" lon="4.93156">
        <ele>192</ele>
        <time>2020-09-22T10:18:45Z</time>
      </trkpt>
      <trkpt lat="46.55838" lon="4.93156">
        <ele>192</ele>
        <time>2020-09-22T10:18:46Z</time>
      </trkpt>
      <trkpt lat="46.55858" lon="4.93166">
        <ele>193</ele>
        <time>2020-09-22T10:18:51Z</time>
      </trkpt>
      <trkpt lat="46.55866" lon="4.93168">
        <ele>193</ele>
        <time>2020-09-22T10:18:53Z</time>
      </trkpt>
      <trkpt lat="46.55869" lon="4.93167">
        <ele>193</ele>
        <time>2020-09-22T10:18:54Z</time>
      </trkpt>
      <trkpt lat="46.55882" lon="4.93165">
        <ele>193</ele>
        <time>2020-09-22T10:18:57Z</time>
      </trkpt>
      <trkpt lat="46.55906" lon="4.93156">
        <ele>194</ele>
        <time>2020-09-22T10:19:03Z</time>
      </trkpt>
      <trkpt lat="46.55924" lon="4.93146">
        <ele>193</ele>
        <time>2020-09-22T10:19:07Z</time>
      </trkpt>
      <trkpt lat="46.55935" lon="4.93138">
        <ele>192</ele>
        <time>2020-09-22T10:19:10Z</time>
      </trkpt>
      <trkpt lat="46.55946" lon="4.93128">
        <ele>191</ele>
        <time>2020-09-22T10:19:13Z</time>
      </trkpt>
      <trkpt lat="46.55957" lon="4.93113">
        <ele>190</ele>
        <time>2020-09-22T10:19:17Z</time>
      </trkpt>
      <trkpt lat="46.5598" lon="4.9308">
        <ele>187</ele>
        <time>2020-09-22T10:19:24Z</time>
      </trkpt>
      <trkpt lat="46.55988" lon="4.93072">
        <ele>186</ele>
        <time>2020-09-22T10:19:26Z</time>
      </trkpt>
      <trkpt lat="46.55999" lon="4.93065">
        <ele>184</ele>
        <time>2020-09-22T10:19:29Z</time>
      </trkpt>
      <trkpt lat="46.56011" lon="4.9306">
        <ele>183</ele>
        <time>2020-09-22T10:19:32Z</time>
      </trkpt>
      <trkpt lat="46.56019" lon="4.93053">
        <ele>182</ele>
        <time>2020-09-22T10:19:34Z</time>
      </trkpt>
      <trkpt lat="46.56023" lon="4.93048">
        <ele>182</ele>
        <time>2020-09-22T10:19:36Z</time>
      </trkpt>
      <trkpt lat="46.56024" lon="4.93041">
        <ele>182</ele>
        <time>2020-09-22T10:19:37Z</time>
      </trkpt>
      <trkpt lat="46.56024" lon="4.93031">
        <ele>181</ele>
        <time>2020-09-22T10:19:38Z</time>
      </trkpt>
      <trkpt lat="46.56021" lon="4.93012">
        <ele>180</ele>
        <time>2020-09-22T10:19:41Z</time>
      </trkpt>
      <trkpt lat="46.5602" lon="4.93">
        <ele>180</ele>
        <time>2020-09-22T10:19:43Z</time>
      </trkpt>
      <trkpt lat="46.5602" lon="4.92991">
        <ele>179</ele>
        <time>2020-09-22T10:19:45Z</time>
      </trkpt>
      <trkpt lat="46.56022" lon="4.92982">
        <ele>179</ele>
        <time>2020-09-22T10:19:46Z</time>
      </trkpt>
      <trkpt lat="46.56025" lon="4.92972">
        <ele>179</ele>
        <time>2020-09-22T10:19:48Z</time>
      </trkpt>
      <trkpt lat="46.56037" lon="4.92947">
        <ele>177</ele>
        <time>2020-09-22T10:19:53Z</time>
      </trkpt>
      <trkpt lat="46.5605" lon="4.92925">
        <ele>176</ele>
        <time>2020-09-22T10:19:58Z</time>
      </trkpt>
      <trkpt lat="46.56058" lon="4.92906">
        <ele>175</ele>
        <time>2020-09-22T10:20:01Z</time>
      </trkpt>
      <trkpt lat="46.56047" lon="4.92894">
        <ele>176</ele>
        <time>2020-09-22T10:20:04Z</time>
      </trkpt>
      <trkpt lat="46.56039" lon="4.9288">
        <ele>176</ele>
        <time>2020-09-22T10:20:07Z</time>
      </trkpt>
      <trkpt lat="46.56042" lon="4.92879">
        <ele>176</ele>
        <time>2020-09-22T10:20:08Z</time>
      </trkpt>
      <trkpt lat="46.56048" lon="4.92873">
        <ele>175</ele>
        <time>2020-09-22T10:20:10Z</time>
      </trkpt>
      <trkpt lat="46.56054" lon="4.92866">
        <ele>175</ele>
        <time>2020-09-22T10:20:12Z</time>
      </trkpt>
      <trkpt lat="46.56061" lon="4.92849">
        <ele>174</ele>
        <time>2020-09-22T10:20:15Z</time>
      </trkpt>
      <trkpt lat="46.56082" lon="4.92775">
        <ele>173</ele>
        <time>2020-09-22T10:20:28Z</time>
      </trkpt>
      <trkpt lat="46.56088" lon="4.92753">
        <ele>173</ele>
        <time>2020-09-22T10:20:31Z</time>
      </trkpt>
      <trkpt lat="46.56096" lon="4.92755">
        <ele>172</ele>
        <time>2020-09-22T10:20:33Z</time>
      </trkpt>
      <trkpt lat="46.56104" lon="4.92754">
        <ele>172</ele>
        <time>2020-09-22T10:20:35Z</time>
      </trkpt>
      <trkpt lat="46.56115" lon="4.92748">
        <ele>171</ele>
        <time>2020-09-22T10:20:38Z</time>
      </trkpt>
      <trkpt lat="46.56125" lon="4.9274">
        <ele>171</ele>
        <time>2020-09-22T10:20:41Z</time>
      </trkpt>
      <trkpt lat="46.56141" lon="4.92722">
        <ele>170</ele>
        <time>2020-09-22T10:20:45Z</time>
      </trkpt>
      <trkpt lat="46.56158" lon="4.92697">
        <ele>170</ele>
        <time>2020-09-22T10:20:51Z</time>
      </trkpt>
      <trkpt lat="46.56182" lon="4.92656">
        <ele>170</ele>
        <time>2020-09-22T10:21:00Z</time>
      </trkpt>
      <trkpt lat="46.56213" lon="4.92609">
        <ele>171</ele>
        <time>2020-09-22T10:21:10Z</time>
      </trkpt>
      <trkpt lat="46.56228" lon="4.92581">
        <ele>172</ele>
        <time>2020-09-22T10:21:16Z</time>
      </trkpt>
      <trkpt lat="46.56245" lon="4.92549">
        <ele>172</ele>
        <time>2020-09-22T10:21:22Z</time>
      </trkpt>
      <trkpt lat="46.5627" lon="4.92507">
        <ele>171</ele>
        <time>2020-09-22T10:21:31Z</time>
      </trkpt>
      <trkpt lat="46.563" lon="4.92451">
        <ele>170</ele>
        <time>2020-09-22T10:21:43Z</time>
      </trkpt>
      <trkpt lat="46.56323" lon="4.92412">
        <ele>170</ele>
        <time>2020-09-22T10:21:51Z</time>
      </trkpt>
      <trkpt lat="46.56344" lon="4.92377">
        <ele>171</ele>
        <time>2020-09-22T10:21:58Z</time>
      </trkpt>
      <trkpt lat="46.56353" lon="4.92365">
        <ele>171</ele>
        <time>2020-09-22T10:22:01Z</time>
      </trkpt>
      <trkpt lat="46.56357" lon="4.92361">
        <ele>171</ele>
        <time>2020-09-22T10:22:02Z</time>
      </trkpt>
      <trkpt lat="46.56361" lon="4.92358">
        <ele>171</ele>
        <time>2020-09-22T10:22:03Z</time>
      </trkpt>
      <trkpt lat="46.56369" lon="4.92356">
        <ele>171</ele>
        <time>2020-09-22T10:22:05Z</time>
      </trkpt>
      <trkpt lat="46.5638" lon="4.92354">
        <ele>171</ele>
        <time>2020-09-22T10:22:08Z</time>
      </trkpt>
      <trkpt lat="46.56397" lon="4.92353">
        <ele>172</ele>
        <time>2020-09-22T10:22:12Z</time>
      </trkpt>
      <trkpt lat="46.56415" lon="4.92349">
        <ele>172</ele>
        <time>2020-09-22T10:22:16Z</time>
      </trkpt>
      <trkpt lat="46.56479" lon="4.92329">
        <ele>172</ele>
        <time>2020-09-22T10:22:31Z</time>
      </trkpt>
      <trkpt lat="46.56535" lon="4.92307">
        <ele>172</ele>
        <time>2020-09-22T10:22:45Z</time>
      </trkpt>
      <trkpt lat="46.56541" lon="4.92308">
        <ele>172</ele>
        <time>2020-09-22T10:22:46Z</time>
      </trkpt>
      <trkpt lat="46.56655" lon="4.92274">
        <ele>172</ele>
        <time>2020-09-22T10:23:13Z</time>
      </trkpt>
      <trkpt lat="46.56965" lon="4.92171">
        <ele>170</ele>
        <time>2020-09-22T10:24:28Z</time>
      </trkpt>
      <trkpt lat="46.57056" lon="4.9214">
        <ele>170</ele>
        <time>2020-09-22T10:24:50Z</time>
      </trkpt>
      <trkpt lat="46.57093" lon="4.9213">
        <ele>170</ele>
        <time>2020-09-22T10:24:58Z</time>
      </trkpt>
      <trkpt lat="46.57128" lon="4.92125">
        <ele>171</ele>
        <time>2020-09-22T10:25:07Z</time>
      </trkpt>
      <trkpt lat="46.57196" lon="4.92116">
        <ele>172</ele>
        <time>2020-09-22T10:25:22Z</time>
      </trkpt>
      <trkpt lat="46.57264" lon="4.92109">
        <ele>172</ele>
        <time>2020-09-22T10:25:38Z</time>
      </trkpt>
      <trkpt lat="46.57289" lon="4.92109">
        <ele>171</ele>
        <time>2020-09-22T10:25:44Z</time>
      </trkpt>
      <trkpt lat="46.5738" lon="4.92135">
        <ele>170</ele>
        <time>2020-09-22T10:26:06Z</time>
      </trkpt>
      <trkpt lat="46.57412" lon="4.92144">
        <ele>170</ele>
        <time>2020-09-22T10:26:13Z</time>
      </trkpt>
      <trkpt lat="46.5747" lon="4.92159">
        <ele>172</ele>
        <time>2020-09-22T10:26:27Z</time>
      </trkpt>
      <trkpt lat="46.57528" lon="4.92175">
        <ele>174</ele>
        <time>2020-09-22T10:26:41Z</time>
      </trkpt>
      <trkpt lat="46.57576" lon="4.92186">
        <ele>174</ele>
        <time>2020-09-22T10:26:52Z</time>
      </trkpt>
      <trkpt lat="46.5764" lon="4.92199">
        <ele>174</ele>
        <time>2020-09-22T10:27:07Z</time>
      </trkpt>
      <trkpt lat="46.57653" lon="4.922">
        <ele>174</ele>
        <time>2020-09-22T10:27:11Z</time>
      </trkpt>
      <trkpt lat="46.5767" lon="4.922">
        <ele>175</ele>
        <time>2020-09-22T10:27:14Z</time>
      </trkpt>
      <trkpt lat="46.57686" lon="4.92197">
        <ele>175</ele>
        <time>2020-09-22T10:27:18Z</time>
      </trkpt>
      <trkpt lat="46.57731" lon="4.92194">
        <ele>174</ele>
        <time>2020-09-22T10:27:29Z</time>
      </trkpt>
      <trkpt lat="46.57746" lon="4.92191">
        <ele>174</ele>
        <time>2020-09-22T10:27:32Z</time>
      </trkpt>
      <trkpt lat="46.57675" lon="4.92147">
        <ele>174</ele>
        <time>2020-09-22T10:27:50Z</time>
      </trkpt>
      <trkpt lat="46.57647" lon="4.92131">
        <ele>174</ele>
        <time>2020-09-22T10:27:57Z</time>
      </trkpt>
      <trkpt lat="46.57605" lon="4.92102">
        <ele>173</ele>
        <time>2020-09-22T10:28:08Z</time>
      </trkpt>
      <trkpt lat="46.57585" lon="4.92081">
        <ele>172</ele>
        <time>2020-09-22T10:28:14Z</time>
      </trkpt>
      <trkpt lat="46.57564" lon="4.92052">
        <ele>172</ele>
        <time>2020-09-22T10:28:21Z</time>
      </trkpt>
      <trkpt lat="46.5755" lon="4.92031">
        <ele>172</ele>
        <time>2020-09-22T10:28:25Z</time>
      </trkpt>
      <trkpt lat="46.57511" lon="4.91953">
        <ele>171</ele>
        <time>2020-09-22T10:28:41Z</time>
      </trkpt>
      <trkpt lat="46.57494" lon="4.91922">
        <ele>171</ele>
        <time>2020-09-22T10:28:47Z</time>
      </trkpt>
      <trkpt lat="46.57447" lon="4.91849">
        <ele>171</ele>
        <time>2020-09-22T10:29:03Z</time>
      </trkpt>
      <trkpt lat="46.57424" lon="4.91817">
        <ele>170</ele>
        <time>2020-09-22T10:29:11Z</time>
      </trkpt>
      <trkpt lat="46.5741" lon="4.91798">
        <ele>171</ele>
        <time>2020-09-22T10:29:15Z</time>
      </trkpt>
      <trkpt lat="46.574" lon="4.91788">
        <ele>171</ele>
        <time>2020-09-22T10:29:18Z</time>
      </trkpt>
      <trkpt lat="46.57392" lon="4.91779">
        <ele>171</ele>
        <time>2020-09-22T10:29:20Z</time>
      </trkpt>
      <trkpt lat="46.57383" lon="4.91773">
        <ele>171</ele>
        <time>2020-09-22T10:29:23Z</time>
      </trkpt>
      <trkpt lat="46.57365" lon="4.91761">
        <ele>172</ele>
        <time>2020-09-22T10:29:27Z</time>
      </trkpt>
      <trkpt lat="46.5734" lon="4.91751">
        <ele>172</ele>
        <time>2020-09-22T10:29:33Z</time>
      </trkpt>
      <trkpt lat="46.57319" lon="4.91743">
        <ele>172</ele>
        <time>2020-09-22T10:29:38Z</time>
      </trkpt>
      <trkpt lat="46.57325" lon="4.91722">
        <ele>172</ele>
        <time>2020-09-22T10:29:42Z</time>
      </trkpt>
      <trkpt lat="46.57327" lon="4.91712">
        <ele>172</ele>
        <time>2020-09-22T10:29:44Z</time>
      </trkpt>
      <trkpt lat="46.57329" lon="4.91692">
        <ele>172</ele>
        <time>2020-09-22T10:29:47Z</time>
      </trkpt>
      <trkpt lat="46.57331" lon="4.9166">
        <ele>172</ele>
        <time>2020-09-22T10:29:52Z</time>
      </trkpt>
      <trkpt lat="46.57336" lon="4.9163">
        <ele>172</ele>
        <time>2020-09-22T10:29:57Z</time>
      </trkpt>
      <trkpt lat="46.57337" lon="4.91622">
        <ele>171</ele>
        <time>2020-09-22T10:29:58Z</time>
      </trkpt>
      <trkpt lat="46.57337" lon="4.91612">
        <ele>171</ele>
        <time>2020-09-22T10:30:00Z</time>
      </trkpt>
      <trkpt lat="46.57336" lon="4.91604">
        <ele>171</ele>
        <time>2020-09-22T10:30:01Z</time>
      </trkpt>
      <trkpt lat="46.57331" lon="4.916">
        <ele>171</ele>
        <time>2020-09-22T10:30:03Z</time>
      </trkpt>
      <trkpt lat="46.57324" lon="4.91592">
        <ele>171</ele>
        <time>2020-09-22T10:30:05Z</time>
      </trkpt>
      <trkpt lat="46.57319" lon="4.91589">
        <ele>171</ele>
        <time>2020-09-22T10:30:06Z</time>
      </trkpt>
      <trkpt lat="46.57313" lon="4.91585">
        <ele>171</ele>
        <time>2020-09-22T10:30:08Z</time>
      </trkpt>
      <trkpt lat="46.57298" lon="4.91589">
        <ele>171</ele>
        <time>2020-09-22T10:30:11Z</time>
      </trkpt>
      <trkpt lat="46.57271" lon="4.9159">
        <ele>171</ele>
        <time>2020-09-22T10:30:17Z</time>
      </trkpt>
      <trkpt lat="46.57265" lon="4.9159">
        <ele>171</ele>
        <time>2020-09-22T10:30:19Z</time>
      </trkpt>
      <trkpt lat="46.57253" lon="4.91585">
        <ele>171</ele>
        <time>2020-09-22T10:30:22Z</time>
      </trkpt>
      <trkpt lat="46.57229" lon="4.91572">
        <ele>171</ele>
        <time>2020-09-22T10:30:28Z</time>
      </trkpt>
      <trkpt lat="46.57199" lon="4.91559">
        <ele>171</ele>
        <time>2020-09-22T10:30:35Z</time>
      </trkpt>
      <trkpt lat="46.57181" lon="4.91551">
        <ele>171</ele>
        <time>2020-09-22T10:30:39Z</time>
      </trkpt>
      <trkpt lat="46.57001" lon="4.91461">
        <ele>171</ele>
        <time>2020-09-22T10:31:24Z</time>
      </trkpt>
      <trkpt lat="46.56953" lon="4.91439">
        <ele>171</ele>
        <time>2020-09-22T10:31:36Z</time>
      </trkpt>
      <trkpt lat="46.56896" lon="4.91415">
        <ele>171</ele>
        <time>2020-09-22T10:31:50Z</time>
      </trkpt>
      <trkpt lat="46.56845" lon="4.91392">
        <ele>171</ele>
        <time>2020-09-22T10:32:02Z</time>
      </trkpt>
      <trkpt lat="46.56799" lon="4.91374">
        <ele>172</ele>
        <time>2020-09-22T10:32:13Z</time>
      </trkpt>
      <trkpt lat="46.56763" lon="4.91359">
        <ele>172</ele>
        <time>2020-09-22T10:32:22Z</time>
      </trkpt>
      <trkpt lat="46.56719" lon="4.91342">
        <ele>174</ele>
        <time>2020-09-22T10:32:33Z</time>
      </trkpt>
      <trkpt lat="46.56693" lon="4.91336">
        <ele>174</ele>
        <time>2020-09-22T10:32:39Z</time>
      </trkpt>
      <trkpt lat="46.56668" lon="4.91332">
        <ele>175</ele>
        <time>2020-09-22T10:32:45Z</time>
      </trkpt>
      <trkpt lat="46.56654" lon="4.91332">
        <ele>174</ele>
        <time>2020-09-22T10:32:48Z</time>
      </trkpt>
      <trkpt lat="46.56639" lon="4.91335">
        <ele>174</ele>
        <time>2020-09-22T10:32:51Z</time>
      </trkpt>
      <trkpt lat="46.56633" lon="4.91338">
        <ele>173</ele>
        <time>2020-09-22T10:32:53Z</time>
      </trkpt>
      <trkpt lat="46.56624" lon="4.91349">
        <ele>173</ele>
        <time>2020-09-22T10:32:56Z</time>
      </trkpt>
      <trkpt lat="46.56615" lon="4.91354">
        <ele>173</ele>
        <time>2020-09-22T10:32:58Z</time>
      </trkpt>
      <trkpt lat="46.56586" lon="4.91366">
        <ele>172</ele>
        <time>2020-09-22T10:33:05Z</time>
      </trkpt>
      <trkpt lat="46.56538" lon="4.91381">
        <ele>172</ele>
        <time>2020-09-22T10:33:16Z</time>
      </trkpt>
      <trkpt lat="46.56503" lon="4.91395">
        <ele>173</ele>
        <time>2020-09-22T10:33:25Z</time>
      </trkpt>
      <trkpt lat="46.56489" lon="4.91405">
        <ele>173</ele>
        <time>2020-09-22T10:33:28Z</time>
      </trkpt>
      <trkpt lat="46.56477" lon="4.91416">
        <ele>173</ele>
        <time>2020-09-22T10:33:32Z</time>
      </trkpt>
      <trkpt lat="46.56472" lon="4.91427">
        <ele>173</ele>
        <time>2020-09-22T10:33:34Z</time>
      </trkpt>
      <trkpt lat="46.5647" lon="4.91435">
        <ele>173</ele>
        <time>2020-09-22T10:33:35Z</time>
      </trkpt>
      <trkpt lat="46.56469" lon="4.91454">
        <ele>174</ele>
        <time>2020-09-22T10:33:38Z</time>
      </trkpt>
      <trkpt lat="46.56466" lon="4.9146">
        <ele>174</ele>
        <time>2020-09-22T10:33:39Z</time>
      </trkpt>
      <trkpt lat="46.56461" lon="4.91464">
        <ele>174</ele>
        <time>2020-09-22T10:33:41Z</time>
      </trkpt>
      <trkpt lat="46.56462" lon="4.91457">
        <ele>174</ele>
        <time>2020-09-22T10:33:42Z</time>
      </trkpt>
      <trkpt lat="46.56464" lon="4.91435">
        <ele>173</ele>
        <time>2020-09-22T10:33:46Z</time>
      </trkpt>
      <trkpt lat="46.56464" lon="4.91429">
        <ele>173</ele>
        <time>2020-09-22T10:33:46Z</time>
      </trkpt>
      <trkpt lat="46.5644" lon="4.91448">
        <ele>173</ele>
        <time>2020-09-22T10:33:53Z</time>
      </trkpt>
      <trkpt lat="46.56409" lon="4.91473">
        <ele>173</ele>
        <time>2020-09-22T10:34:01Z</time>
      </trkpt>
      <trkpt lat="46.56382" lon="4.91496">
        <ele>174</ele>
        <time>2020-09-22T10:34:08Z</time>
      </trkpt>
      <trkpt lat="46.56355" lon="4.9152">
        <ele>174</ele>
        <time>2020-09-22T10:34:16Z</time>
      </trkpt>
      <trkpt lat="46.56327" lon="4.91547">
        <ele>174</ele>
        <time>2020-09-22T10:34:24Z</time>
      </trkpt>
      <trkpt lat="46.56302" lon="4.91575">
        <ele>174</ele>
        <time>2020-09-22T10:34:31Z</time>
      </trkpt>
      <trkpt lat="46.56285" lon="4.91596">
        <ele>174</ele>
        <time>2020-09-22T10:34:36Z</time>
      </trkpt>
      <trkpt lat="46.5627" lon="4.91612">
        <ele>174</ele>
        <time>2020-09-22T10:34:41Z</time>
      </trkpt>
      <trkpt lat="46.56254" lon="4.91626">
        <ele>174</ele>
        <time>2020-09-22T10:34:45Z</time>
      </trkpt>
      <trkpt lat="46.5622" lon="4.91651">
        <ele>174</ele>
        <time>2020-09-22T10:34:54Z</time>
      </trkpt>
      <trkpt lat="46.56188" lon="4.91678">
        <ele>174</ele>
        <time>2020-09-22T10:35:03Z</time>
      </trkpt>
      <trkpt lat="46.56151" lon="4.91707">
        <ele>173</ele>
        <time>2020-09-22T10:35:12Z</time>
      </trkpt>
      <trkpt lat="46.56071" lon="4.91758">
        <ele>173</ele>
        <time>2020-09-22T10:35:33Z</time>
      </trkpt>
      <trkpt lat="46.56055" lon="4.91771">
        <ele>172</ele>
        <time>2020-09-22T10:35:37Z</time>
      </trkpt>
      <trkpt lat="46.56035" lon="4.91789">
        <ele>172</ele>
        <time>2020-09-22T10:35:43Z</time>
      </trkpt>
      <trkpt lat="46.56014" lon="4.91813">
        <ele>172</ele>
        <time>2020-09-22T10:35:49Z</time>
      </trkpt>
      <trkpt lat="46.55998" lon="4.9183">
        <ele>172</ele>
        <time>2020-09-22T10:35:53Z</time>
      </trkpt>
      <trkpt lat="46.55971" lon="4.91848">
        <ele>171</ele>
        <time>2020-09-22T10:36:00Z</time>
      </trkpt>
      <trkpt lat="46.55923" lon="4.91884">
        <ele>170</ele>
        <time>2020-09-22T10:36:13Z</time>
      </trkpt>
      <trkpt lat="46.55826" lon="4.91953">
        <ele>169</ele>
        <time>2020-09-22T10:36:38Z</time>
      </trkpt>
      <trkpt lat="46.55794" lon="4.91977">
        <ele>170</ele>
        <time>2020-09-22T10:36:47Z</time>
      </trkpt>
      <trkpt lat="46.55769" lon="4.91993">
        <ele>170</ele>
        <time>2020-09-22T10:36:53Z</time>
      </trkpt>
      <trkpt lat="46.55755" lon="4.92">
        <ele>170</ele>
        <time>2020-09-22T10:36:56Z</time>
      </trkpt>
      <trkpt lat="46.55741" lon="4.92005">
        <ele>170</ele>
        <time>2020-09-22T10:37:00Z</time>
      </trkpt>
      <trkpt lat="46.55725" lon="4.92016">
        <ele>170</ele>
        <time>2020-09-22T10:37:04Z</time>
      </trkpt>
      <trkpt lat="46.557" lon="4.92035">
        <ele>171</ele>
        <time>2020-09-22T10:37:10Z</time>
      </trkpt>
      <trkpt lat="46.55687" lon="4.92045">
        <ele>171</ele>
        <time>2020-09-22T10:37:14Z</time>
      </trkpt>
      <trkpt lat="46.55679" lon="4.92049">
        <ele>171</ele>
        <time>2020-09-22T10:37:16Z</time>
      </trkpt>
      <trkpt lat="46.5567" lon="4.9205">
        <ele>171</ele>
        <time>2020-09-22T10:37:18Z</time>
      </trkpt>
      <trkpt lat="46.55661" lon="4.92047">
        <ele>171</ele>
        <time>2020-09-22T10:37:20Z</time>
      </trkpt>
      <trkpt lat="46.55655" lon="4.92046">
        <ele>171</ele>
        <time>2020-09-22T10:37:22Z</time>
      </trkpt>
      <trkpt lat="46.55646" lon="4.92051">
        <ele>171</ele>
        <time>2020-09-22T10:37:24Z</time>
      </trkpt>
      <trkpt lat="46.55645" lon="4.92049">
        <ele>171</ele>
        <time>2020-09-22T10:37:24Z</time>
      </trkpt>
      <trkpt lat="46.55646" lon="4.92051">
        <ele>171</ele>
        <time>2020-09-22T10:37:25Z</time>
      </trkpt>
      <trkpt lat="46.55639" lon="4.92054">
        <ele>171</ele>
        <time>2020-09-22T10:37:26Z</time>
      </trkpt>
      <trkpt lat="46.55613" lon="4.92069">
        <ele>171</ele>
        <time>2020-09-22T10:37:33Z</time>
      </trkpt>
      <trkpt lat="46.55597" lon="4.92077">
        <ele>171</ele>
        <time>2020-09-22T10:37:37Z</time>
      </trkpt>
      <trkpt lat="46.55585" lon="4.92082">
        <ele>171</ele>
        <time>2020-09-22T10:37:40Z</time>
      </trkpt>
      <trkpt lat="46.55574" lon="4.92084">
        <ele>171</ele>
        <time>2020-09-22T10:37:42Z</time>
      </trkpt>
      <trkpt lat="46.55552" lon="4.92086">
        <ele>171</ele>
        <time>2020-09-22T10:37:47Z</time>
      </trkpt>
      <trkpt lat="46.55528" lon="4.9209">
        <ele>171</ele>
        <time>2020-09-22T10:37:53Z</time>
      </trkpt>
      <trkpt lat="46.55479" lon="4.92101">
        <ele>171</ele>
        <time>2020-09-22T10:38:05Z</time>
      </trkpt>
      <trkpt lat="46.55435" lon="4.92114">
        <ele>171</ele>
        <time>2020-09-22T10:38:15Z</time>
      </trkpt>
      <trkpt lat="46.55409" lon="4.92123">
        <ele>171</ele>
        <time>2020-09-22T10:38:21Z</time>
      </trkpt>
      <trkpt lat="46.55398" lon="4.92129">
        <ele>172</ele>
        <time>2020-09-22T10:38:24Z</time>
      </trkpt>
      <trkpt lat="46.55365" lon="4.92146">
        <ele>173</ele>
        <time>2020-09-22T10:38:32Z</time>
      </trkpt>
      <trkpt lat="46.55326" lon="4.92167">
        <ele>174</ele>
        <time>2020-09-22T10:38:42Z</time>
      </trkpt>
      <trkpt lat="46.55277" lon="4.92192">
        <ele>172</ele>
        <time>2020-09-22T10:38:54Z</time>
      </trkpt>
      <trkpt lat="46.55225" lon="4.92224">
        <ele>172</ele>
        <time>2020-09-22T10:39:07Z</time>
      </trkpt>
      <trkpt lat="46.55195" lon="4.92241">
        <ele>173</ele>
        <time>2020-09-22T10:39:15Z</time>
      </trkpt>
      <trkpt lat="46.55189" lon="4.92247">
        <ele>174</ele>
        <time>2020-09-22T10:39:17Z</time>
      </trkpt>
      <trkpt lat="46.55187" lon="4.92251">
        <ele>174</ele>
        <time>2020-09-22T10:39:17Z</time>
      </trkpt>
      <trkpt lat="46.55181" lon="4.92265">
        <ele>174</ele>
        <time>2020-09-22T10:39:20Z</time>
      </trkpt>
      <trkpt lat="46.55174" lon="4.92302">
        <ele>174</ele>
        <time>2020-09-22T10:39:26Z</time>
      </trkpt>
      <trkpt lat="46.55172" lon="4.92314">
        <ele>174</ele>
        <time>2020-09-22T10:39:28Z</time>
      </trkpt>
      <trkpt lat="46.5517" lon="4.92333">
        <ele>174</ele>
        <time>2020-09-22T10:39:31Z</time>
      </trkpt>
      <trkpt lat="46.55168" lon="4.92346">
        <ele>174</ele>
        <time>2020-09-22T10:39:33Z</time>
      </trkpt>
      <trkpt lat="46.55169" lon="4.92355">
        <ele>173</ele>
        <time>2020-09-22T10:39:35Z</time>
      </trkpt>
      <trkpt lat="46.55173" lon="4.92372">
        <ele>173</ele>
        <time>2020-09-22T10:39:38Z</time>
      </trkpt>
      <trkpt lat="46.55177" lon="4.92387">
        <ele>173</ele>
        <time>2020-09-22T10:39:40Z</time>
      </trkpt>
      <trkpt lat="46.55179" lon="4.92402">
        <ele>172</ele>
        <time>2020-09-22T10:39:43Z</time>
      </trkpt>
      <trkpt lat="46.55179" lon="4.92413">
        <ele>172</ele>
        <time>2020-09-22T10:39:45Z</time>
      </trkpt>
      <trkpt lat="46.55173" lon="4.92421">
        <ele>172</ele>
        <time>2020-09-22T10:39:46Z</time>
      </trkpt>
      <trkpt lat="46.55161" lon="4.92428">
        <ele>172</ele>
        <time>2020-09-22T10:39:49Z</time>
      </trkpt>
      <trkpt lat="46.55128" lon="4.92441">
        <ele>173</ele>
        <time>2020-09-22T10:39:57Z</time>
      </trkpt>
      <trkpt lat="46.55045" lon="4.92495">
        <ele>173</ele>
        <time>2020-09-22T10:40:19Z</time>
      </trkpt>
      <trkpt lat="46.55032" lon="4.92507">
        <ele>173</ele>
        <time>2020-09-22T10:40:22Z</time>
      </trkpt>
      <trkpt lat="46.55024" lon="4.92523">
        <ele>173</ele>
        <time>2020-09-22T10:40:25Z</time>
      </trkpt>
      <trkpt lat="46.55019" lon="4.92532">
        <ele>172</ele>
        <time>2020-09-22T10:40:27Z</time>
      </trkpt>
      <trkpt lat="46.55015" lon="4.92545">
        <ele>172</ele>
        <time>2020-09-22T10:40:30Z</time>
      </trkpt>
      <trkpt lat="46.5501" lon="4.92558">
        <ele>172</ele>
        <time>2020-09-22T10:40:32Z</time>
      </trkpt>
      <trkpt lat="46.55001" lon="4.92574">
        <ele>171</ele>
        <time>2020-09-22T10:40:35Z</time>
      </trkpt>
      <trkpt lat="46.54935" lon="4.9267">
        <ele>171</ele>
        <time>2020-09-22T10:40:57Z</time>
      </trkpt>
      <trkpt lat="46.54894" lon="4.9273">
        <ele>172</ele>
        <time>2020-09-22T10:41:11Z</time>
      </trkpt>
      <trkpt lat="46.54866" lon="4.92769">
        <ele>172</ele>
        <time>2020-09-22T10:41:20Z</time>
      </trkpt>
      <trkpt lat="46.54757" lon="4.92891">
        <ele>171</ele>
        <time>2020-09-22T10:41:52Z</time>
      </trkpt>
      <trkpt lat="46.54722" lon="4.92932">
        <ele>171</ele>
        <time>2020-09-22T10:42:02Z</time>
      </trkpt>
      <trkpt lat="46.54702" lon="4.9296">
        <ele>171</ele>
        <time>2020-09-22T10:42:09Z</time>
      </trkpt>
      <trkpt lat="46.54698" lon="4.92966">
        <ele>171</ele>
        <time>2020-09-22T10:42:10Z</time>
      </trkpt>
      <trkpt lat="46.54694" lon="4.92977">
        <ele>171</ele>
        <time>2020-09-22T10:42:12Z</time>
      </trkpt>
      <trkpt lat="46.54688" lon="4.92976">
        <ele>171</ele>
        <time>2020-09-22T10:42:14Z</time>
      </trkpt>
      <trkpt lat="46.5468" lon="4.92977">
        <ele>171</ele>
        <time>2020-09-22T10:42:15Z</time>
      </trkpt>
      <trkpt lat="46.54665" lon="4.92983">
        <ele>171</ele>
        <time>2020-09-22T10:42:19Z</time>
      </trkpt>
      <trkpt lat="46.54643" lon="4.92996">
        <ele>171</ele>
        <time>2020-09-22T10:42:25Z</time>
      </trkpt>
      <trkpt lat="46.5459" lon="4.93025">
        <ele>170</ele>
        <time>2020-09-22T10:42:38Z</time>
      </trkpt>
      <trkpt lat="46.54529" lon="4.93058">
        <ele>175</ele>
        <time>2020-09-22T10:42:53Z</time>
      </trkpt>
      <trkpt lat="46.54465" lon="4.93092">
        <ele>171</ele>
        <time>2020-09-22T10:43:09Z</time>
      </trkpt>
      <trkpt lat="46.54387" lon="4.93136">
        <ele>163</ele>
        <time>2020-09-22T10:43:29Z</time>
      </trkpt>
      <trkpt lat="46.54317" lon="4.93174">
        <ele>169</ele>
        <time>2020-09-22T10:43:46Z</time>
      </trkpt>
      <trkpt lat="46.54242" lon="4.93213">
        <ele>170</ele>
        <time>2020-09-22T10:44:05Z</time>
      </trkpt>
      <trkpt lat="46.54181" lon="4.93246">
        <ele>169</ele>
        <time>2020-09-22T10:44:20Z</time>
      </trkpt>
      <trkpt lat="46.54099" lon="4.93292">
        <ele>169</ele>
        <time>2020-09-22T10:44:40Z</time>
      </trkpt>
      <trkpt lat="46.54011" lon="4.93338">
        <ele>166</ele>
        <time>2020-09-22T10:45:02Z</time>
      </trkpt>
      <trkpt lat="46.53995" lon="4.9335">
        <ele>165</ele>
        <time>2020-09-22T10:45:06Z</time>
      </trkpt>
      <trkpt lat="46.54029" lon="4.93457">
        <ele>164</ele>
        <time>2020-09-22T10:45:25Z</time>
      </trkpt>
      <trkpt lat="46.54052" lon="4.93542">
        <ele>168</ele>
        <time>2020-09-22T10:45:40Z</time>
      </trkpt>
      <trkpt lat="46.54071" lon="4.93608">
        <ele>172</ele>
        <time>2020-09-22T10:45:51Z</time>
      </trkpt>
      <trkpt lat="46.54081" lon="4.9364">
        <ele>173</ele>
        <time>2020-09-22T10:45:57Z</time>
      </trkpt>
      <trkpt lat="46.54094" lon="4.93675">
        <ele>172</ele>
        <time>2020-09-22T10:46:03Z</time>
      </trkpt>
      <trkpt lat="46.54118" lon="4.93733">
        <ele>172</ele>
        <time>2020-09-22T10:46:14Z</time>
      </trkpt>
      <trkpt lat="46.54127" lon="4.93758">
        <ele>173</ele>
        <time>2020-09-22T10:46:19Z</time>
      </trkpt>
      <trkpt lat="46.54129" lon="4.93769">
        <ele>173</ele>
        <time>2020-09-22T10:46:21Z</time>
      </trkpt>
      <trkpt lat="46.5413" lon="4.93782">
        <ele>173</ele>
        <time>2020-09-22T10:46:23Z</time>
      </trkpt>
      <trkpt lat="46.5413" lon="4.9379">
        <ele>173</ele>
        <time>2020-09-22T10:46:24Z</time>
      </trkpt>
      <trkpt lat="46.54127" lon="4.93802">
        <ele>173</ele>
        <time>2020-09-22T10:46:26Z</time>
      </trkpt>
      <trkpt lat="46.54124" lon="4.93811">
        <ele>174</ele>
        <time>2020-09-22T10:46:28Z</time>
      </trkpt>
      <trkpt lat="46.54121" lon="4.93816">
        <ele>174</ele>
        <time>2020-09-22T10:46:29Z</time>
      </trkpt>
      <trkpt lat="46.54122" lon="4.93943">
        <ele>179</ele>
        <time>2020-09-22T10:46:49Z</time>
      </trkpt>
      <trkpt lat="46.54129" lon="4.93953">
        <ele>179</ele>
        <time>2020-09-22T10:46:51Z</time>
      </trkpt>
      <trkpt lat="46.54135" lon="4.93958">
        <ele>179</ele>
        <time>2020-09-22T10:46:53Z</time>
      </trkpt>
      <trkpt lat="46.54163" lon="4.93981">
        <ele>180</ele>
        <time>2020-09-22T10:47:01Z</time>
      </trkpt>
      <trkpt lat="46.54185" lon="4.93995">
        <ele>181</ele>
        <time>2020-09-22T10:47:06Z</time>
      </trkpt>
      <trkpt lat="46.54199" lon="4.94">
        <ele>181</ele>
        <time>2020-09-22T10:47:10Z</time>
      </trkpt>
      <trkpt lat="46.54209" lon="4.94">
        <ele>182</ele>
        <time>2020-09-22T10:47:12Z</time>
      </trkpt>
      <trkpt lat="46.54213" lon="4.93998">
        <ele>182</ele>
        <time>2020-09-22T10:47:13Z</time>
      </trkpt>
      <trkpt lat="46.5423" lon="4.93994">
        <ele>182</ele>
        <time>2020-09-22T10:47:17Z</time>
      </trkpt>
      <trkpt lat="46.54245" lon="4.93993">
        <ele>182</ele>
        <time>2020-09-22T10:47:20Z</time>
      </trkpt>
      <trkpt lat="46.54265" lon="4.93992">
        <ele>182</ele>
        <time>2020-09-22T10:47:25Z</time>
      </trkpt>
      <trkpt lat="46.54273" lon="4.93992">
        <ele>182</ele>
        <time>2020-09-22T10:47:27Z</time>
      </trkpt>
      <trkpt lat="46.54281" lon="4.93994">
        <ele>183</ele>
        <time>2020-09-22T10:47:29Z</time>
      </trkpt>
      <trkpt lat="46.54295" lon="4.94004">
        <ele>183</ele>
        <time>2020-09-22T10:47:33Z</time>
      </trkpt>
      <trkpt lat="46.543" lon="4.94011">
        <ele>183</ele>
        <time>2020-09-22T10:47:34Z</time>
      </trkpt>
      <trkpt lat="46.54302" lon="4.94017">
        <ele>183</ele>
        <time>2020-09-22T10:47:35Z</time>
      </trkpt>
      <trkpt lat="46.54307" lon="4.94026">
        <ele>184</ele>
        <time>2020-09-22T10:47:37Z</time>
      </trkpt>
      <trkpt lat="46.54318" lon="4.94042">
        <ele>184</ele>
        <time>2020-09-22T10:47:41Z</time>
      </trkpt>
      <trkpt lat="46.54325" lon="4.94055">
        <ele>184</ele>
        <time>2020-09-22T10:47:43Z</time>
      </trkpt>
      <trkpt lat="46.54345" lon="4.94055">
        <ele>185</ele>
        <time>2020-09-22T10:47:48Z</time>
      </trkpt>
      <trkpt lat="46.54377" lon="4.94053">
        <ele>186</ele>
        <time>2020-09-22T10:47:56Z</time>
      </trkpt>
      <trkpt lat="46.54411" lon="4.94049">
        <ele>186</ele>
        <time>2020-09-22T10:48:03Z</time>
      </trkpt>
      <trkpt lat="46.5445" lon="4.94043">
        <ele>188</ele>
        <time>2020-09-22T10:48:13Z</time>
      </trkpt>
      <trkpt lat="46.54459" lon="4.94041">
        <ele>188</ele>
        <time>2020-09-22T10:48:15Z</time>
      </trkpt>
      <trkpt lat="46.54475" lon="4.9404">
        <ele>189</ele>
        <time>2020-09-22T10:48:19Z</time>
      </trkpt>
      <trkpt lat="46.5448" lon="4.9404">
        <ele>189</ele>
        <time>2020-09-22T10:48:20Z</time>
      </trkpt>
      <trkpt lat="46.54508" lon="4.9404">
        <ele>190</ele>
        <time>2020-09-22T10:48:26Z</time>
      </trkpt>
      <trkpt lat="46.54531" lon="4.94038">
        <ele>191</ele>
        <time>2020-09-22T10:48:32Z</time>
      </trkpt>
      <trkpt lat="46.54568" lon="4.94033">
        <ele>193</ele>
        <time>2020-09-22T10:48:40Z</time>
      </trkpt>
      <trkpt lat="46.54598" lon="4.94029">
        <ele>195</ele>
        <time>2020-09-22T10:48:47Z</time>
      </trkpt>
      <trkpt lat="46.54624" lon="4.94022">
        <ele>197</ele>
        <time>2020-09-22T10:48:53Z</time>
      </trkpt>
      <trkpt lat="46.54637" lon="4.94017">
        <ele>198</ele>
        <time>2020-09-22T10:48:57Z</time>
      </trkpt>
      <trkpt lat="46.5466" lon="4.9401">
        <ele>199</ele>
        <time>2020-09-22T10:49:02Z</time>
      </trkpt>
      <trkpt lat="46.54691" lon="4.94003">
        <ele>201</ele>
        <time>2020-09-22T10:49:09Z</time>
      </trkpt>
      <trkpt lat="46.54721" lon="4.93996">
        <ele>202</ele>
        <time>2020-09-22T10:49:17Z</time>
      </trkpt>
      <trkpt lat="46.54737" lon="4.9399">
        <ele>202</ele>
        <time>2020-09-22T10:49:20Z</time>
      </trkpt>
      <trkpt lat="46.54753" lon="4.93983">
        <ele>202</ele>
        <time>2020-09-22T10:49:24Z</time>
      </trkpt>
      <trkpt lat="46.54777" lon="4.93973">
        <ele>202</ele>
        <time>2020-09-22T10:49:30Z</time>
      </trkpt>
      <trkpt lat="46.54824" lon="4.93957">
        <ele>202</ele>
        <time>2020-09-22T10:49:41Z</time>
      </trkpt>
      <trkpt lat="46.54845" lon="4.93954">
        <ele>203</ele>
        <time>2020-09-22T10:49:46Z</time>
      </trkpt>
      <trkpt lat="46.54839" lon="4.93906">
        <ele>202</ele>
        <time>2020-09-22T10:49:54Z</time>
      </trkpt>
      <trkpt lat="46.54838" lon="4.93883">
        <ele>202</ele>
        <time>2020-09-22T10:49:58Z</time>
      </trkpt>
      <trkpt lat="46.54846" lon="4.93866">
        <ele>202</ele>
        <time>2020-09-22T10:50:01Z</time>
      </trkpt>
      <trkpt lat="46.54866" lon="4.93846">
        <ele>203</ele>
        <time>2020-09-22T10:50:07Z</time>
      </trkpt>
      <trkpt lat="46.54889" lon="4.93836">
        <ele>203</ele>
        <time>2020-09-22T10:50:12Z</time>
      </trkpt>
      <trkpt lat="46.54913" lon="4.93825">
        <ele>204</ele>
        <time>2020-09-22T10:50:18Z</time>
      </trkpt>
      <trkpt lat="46.54929" lon="4.93827">
        <ele>204</ele>
        <time>2020-09-22T10:50:22Z</time>
      </trkpt>
      <trkpt lat="46.54952" lon="4.93844">
        <ele>204</ele>
        <time>2020-09-22T10:50:28Z</time>
      </trkpt>
      <trkpt lat="46.54977" lon="4.93852">
        <ele>203</ele>
        <time>2020-09-22T10:50:34Z</time>
      </trkpt>
      <trkpt lat="46.55005" lon="4.93866">
        <ele>203</ele>
        <time>2020-09-22T10:50:41Z</time>
      </trkpt>
      <trkpt lat="46.5503" lon="4.93874">
        <ele>204</ele>
        <time>2020-09-22T10:50:47Z</time>
      </trkpt>
      <trkpt lat="46.55043" lon="4.93884">
        <ele>204</ele>
        <time>2020-09-22T10:50:50Z</time>
      </trkpt>
      <trkpt lat="46.55067" lon="4.939">
        <ele>205</ele>
        <time>2020-09-22T10:50:57Z</time>
      </trkpt>
      <trkpt lat="46.55073" lon="4.93888">
        <ele>205</ele>
        <time>2020-09-22T10:50:59Z</time>
      </trkpt>
      <trkpt lat="46.55086" lon="4.93856">
        <ele>204</ele>
        <time>2020-09-22T10:51:05Z</time>
      </trkpt>
      <trkpt lat="46.55102" lon="4.93813">
        <ele>204</ele>
        <time>2020-09-22T10:51:13Z</time>
      </trkpt>
      <trkpt lat="46.55107" lon="4.93792">
        <ele>204</ele>
        <time>2020-09-22T10:51:16Z</time>
      </trkpt>
      <trkpt lat="46.5511" lon="4.93771">
        <ele>204</ele>
        <time>2020-09-22T10:51:20Z</time>
      </trkpt>
      <trkpt lat="46.55115" lon="4.93733">
        <ele>204</ele>
        <time>2020-09-22T10:51:26Z</time>
      </trkpt>
      <trkpt lat="46.5512" lon="4.93581">
        <ele>204</ele>
        <time>2020-09-22T10:51:50Z</time>
      </trkpt>
      <trkpt lat="46.55121" lon="4.93551">
        <ele>204</ele>
        <time>2020-09-22T10:51:55Z</time>
      </trkpt>
      <trkpt lat="46.5511" lon="4.93344">
        <ele>194</ele>
        <time>2020-09-22T10:52:29Z</time>
      </trkpt>
      <trkpt lat="46.55109" lon="4.93293">
        <ele>190</ele>
        <time>2020-09-22T10:52:37Z</time>
      </trkpt>
      <trkpt lat="46.55106" lon="4.93248">
        <ele>186</ele>
        <time>2020-09-22T10:52:44Z</time>
      </trkpt>
      <trkpt lat="46.55103" lon="4.93224">
        <ele>184</ele>
        <time>2020-09-22T10:52:48Z</time>
      </trkpt>
      <trkpt lat="46.55101" lon="4.93205">
        <ele>183</ele>
        <time>2020-09-22T10:52:51Z</time>
      </trkpt>
      <trkpt lat="46.55109" lon="4.93202">
        <ele>182</ele>
        <time>2020-09-22T10:52:53Z</time>
      </trkpt>
      <trkpt lat="46.55138" lon="4.93193">
        <ele>181</ele>
        <time>2020-09-22T10:53:00Z</time>
      </trkpt>
      <trkpt lat="46.55181" lon="4.93181">
        <ele>179</ele>
        <time>2020-09-22T10:53:10Z</time>
      </trkpt>
      <trkpt lat="46.55221" lon="4.93169">
        <ele>179</ele>
        <time>2020-09-22T10:53:20Z</time>
      </trkpt>
      <trkpt lat="46.55271" lon="4.93157">
        <ele>180</ele>
        <time>2020-09-22T10:53:32Z</time>
      </trkpt>
      <trkpt lat="46.55299" lon="4.9315">
        <ele>181</ele>
        <time>2020-09-22T10:53:38Z</time>
      </trkpt>
      <trkpt lat="46.55331" lon="4.93141">
        <ele>182</ele>
        <time>2020-09-22T10:53:46Z</time>
      </trkpt>
      <trkpt lat="46.55349" lon="4.93135">
        <ele>182</ele>
        <time>2020-09-22T10:53:50Z</time>
      </trkpt>
      <trkpt lat="46.55354" lon="4.93134">
        <ele>183</ele>
        <time>2020-09-22T10:53:51Z</time>
      </trkpt>
      <trkpt lat="46.55366" lon="4.93128">
        <ele>183</ele>
        <time>2020-09-22T10:53:54Z</time>
      </trkpt>
      <trkpt lat="46.55378" lon="4.93121">
        <ele>183</ele>
        <time>2020-09-22T10:53:57Z</time>
      </trkpt>
      <trkpt lat="46.55387" lon="4.93112">
        <ele>183</ele>
        <time>2020-09-22T10:54:00Z</time>
      </trkpt>
      <trkpt lat="46.55395" lon="4.9311">
        <ele>183</ele>
        <time>2020-09-22T10:54:02Z</time>
      </trkpt>
      <trkpt lat="46.55409" lon="4.93102">
        <ele>183</ele>
        <time>2020-09-22T10:54:05Z</time>
      </trkpt>
      <trkpt lat="46.55429" lon="4.93087">
        <ele>183</ele>
        <time>2020-09-22T10:54:10Z</time>
      </trkpt>
      <trkpt lat="46.55454" lon="4.93066">
        <ele>184</ele>
        <time>2020-09-22T10:54:17Z</time>
      </trkpt>
      <trkpt lat="46.55476" lon="4.9305">
        <ele>184</ele>
        <time>2020-09-22T10:54:23Z</time>
      </trkpt>
      <trkpt lat="46.55509" lon="4.93031">
        <ele>185</ele>
        <time>2020-09-22T10:54:31Z</time>
      </trkpt>
      <trkpt lat="46.55521" lon="4.93024">
        <ele>185</ele>
        <time>2020-09-22T10:54:34Z</time>
      </trkpt>
      <trkpt lat="46.55543" lon="4.93013">
        <ele>185</ele>
        <time>2020-09-22T10:54:40Z</time>
      </trkpt>
      <trkpt lat="46.55565" lon="4.93003">
        <ele>186</ele>
        <time>2020-09-22T10:54:45Z</time>
      </trkpt>
      <trkpt lat="46.55576" lon="4.93">
        <ele>186</ele>
        <time>2020-09-22T10:54:48Z</time>
      </trkpt>
      <trkpt lat="46.55579" lon="4.93">
        <ele>186</ele>
        <time>2020-09-22T10:54:48Z</time>
      </trkpt>
      <trkpt lat="46.55604" lon="4.92997">
        <ele>186</ele>
        <time>2020-09-22T10:54:54Z</time>
      </trkpt>
      <trkpt lat="46.55614" lon="4.92996">
        <ele>187</ele>
        <time>2020-09-22T10:54:57Z</time>
      </trkpt>
      <trkpt lat="46.55632" lon="4.92996">
        <ele>187</ele>
        <time>2020-09-22T10:55:01Z</time>
      </trkpt>
      <trkpt lat="46.55642" lon="4.92997">
        <ele>187</ele>
        <time>2020-09-22T10:55:03Z</time>
      </trkpt>
      <trkpt lat="46.55668" lon="4.93002">
        <ele>187</ele>
        <time>2020-09-22T10:55:09Z</time>
      </trkpt>
      <trkpt lat="46.55682" lon="4.93006">
        <ele>187</ele>
        <time>2020-09-22T10:55:13Z</time>
      </trkpt>
      <trkpt lat="46.55697" lon="4.93031">
        <ele>188</ele>
        <time>2020-09-22T10:55:18Z</time>
      </trkpt>
      <trkpt lat="46.5573" lon="4.93068">
        <ele>189</ele>
        <time>2020-09-22T10:55:28Z</time>
      </trkpt>
      <trkpt lat="46.55769" lon="4.93111">
        <ele>190</ele>
        <time>2020-09-22T10:55:39Z</time>
      </trkpt>
      <trkpt lat="46.55803" lon="4.93145">
        <ele>192</ele>
        <time>2020-09-22T10:55:49Z</time>
      </trkpt>
      <trkpt lat="46.55826" lon="4.93171">
        <ele>192</ele>
        <time>2020-09-22T10:55:55Z</time>
      </trkpt>
    </trkseg>
  </trk>
  <trk>
    <name><![CDATA[2_ la colline du cra - Vert]]></name>
    <extensions>
      <line xmlns="http://www.topografix.com/GPX/gpx_style/0/2">
        <color>00FF00</color>
        <width>4</width>
      </line>
    </extensions>
    <trkseg>
      <trkpt lat="46.53318" lon="4.87724">
        <ele>307</ele>
        <time>2020-09-22T10:17:41Z</time>
      </trkpt>
      <trkpt lat="46.533" lon="4.87726">
        <ele>306</ele>
        <time>2020-09-22T10:17:45Z</time>
      </trkpt>
      <trkpt lat="46.53289" lon="4.87725">
        <ele>306</ele>
        <time>2020-09-22T10:17:48Z</time>
      </trkpt>
      <trkpt lat="46.53283" lon="4.87718">
        <ele>306</ele>
        <time>2020-09-22T10:17:50Z</time>
      </trkpt>
      <trkpt lat="46.53272" lon="4.87711">
        <ele>306</ele>
        <time>2020-09-22T10:17:52Z</time>
      </trkpt>
      <trkpt lat="46.53275" lon="4.87703">
        <ele>306</ele>
        <time>2020-09-22T10:17:54Z</time>
      </trkpt>
      <trkpt lat="46.53276" lon="4.87556">
        <ele>299</ele>
        <time>2020-09-22T10:18:17Z</time>
      </trkpt>
      <trkpt lat="46.53277" lon="4.87502">
        <ele>294</ele>
        <time>2020-09-22T10:18:26Z</time>
      </trkpt>
      <trkpt lat="46.53281" lon="4.87473">
        <ele>292</ele>
        <time>2020-09-22T10:18:31Z</time>
      </trkpt>
      <trkpt lat="46.53281" lon="4.8746">
        <ele>291</ele>
        <time>2020-09-22T10:18:33Z</time>
      </trkpt>
      <trkpt lat="46.5329" lon="4.8746">
        <ele>291</ele>
        <time>2020-09-22T10:18:35Z</time>
      </trkpt>
      <trkpt lat="46.53318" lon="4.87457">
        <ele>292</ele>
        <time>2020-09-22T10:18:42Z</time>
      </trkpt>
      <trkpt lat="46.53343" lon="4.87449">
        <ele>293</ele>
        <time>2020-09-22T10:18:48Z</time>
      </trkpt>
      <trkpt lat="46.53374" lon="4.87442">
        <ele>294</ele>
        <time>2020-09-22T10:18:55Z</time>
      </trkpt>
      <trkpt lat="46.53427" lon="4.87431">
        <ele>296</ele>
        <time>2020-09-22T10:19:07Z</time>
      </trkpt>
      <trkpt lat="46.53493" lon="4.87421">
        <ele>298</ele>
        <time>2020-09-22T10:19:23Z</time>
      </trkpt>
      <trkpt lat="46.53506" lon="4.87418">
        <ele>299</ele>
        <time>2020-09-22T10:19:26Z</time>
      </trkpt>
      <trkpt lat="46.53528" lon="4.87405">
        <ele>299</ele>
        <time>2020-09-22T10:19:32Z</time>
      </trkpt>
      <trkpt lat="46.53572" lon="4.87389">
        <ele>300</ele>
        <time>2020-09-22T10:19:42Z</time>
      </trkpt>
      <trkpt lat="46.53594" lon="4.87382">
        <ele>300</ele>
        <time>2020-09-22T10:19:47Z</time>
      </trkpt>
      <trkpt lat="46.53615" lon="4.8738">
        <ele>301</ele>
        <time>2020-09-22T10:19:52Z</time>
      </trkpt>
      <trkpt lat="46.53634" lon="4.87378">
        <ele>301</ele>
        <time>2020-09-22T10:19:57Z</time>
      </trkpt>
      <trkpt lat="46.53653" lon="4.87378">
        <ele>302</ele>
        <time>2020-09-22T10:20:01Z</time>
      </trkpt>
      <trkpt lat="46.53687" lon="4.87373">
        <ele>303</ele>
        <time>2020-09-22T10:20:09Z</time>
      </trkpt>
      <trkpt lat="46.53734" lon="4.87363">
        <ele>305</ele>
        <time>2020-09-22T10:20:20Z</time>
      </trkpt>
      <trkpt lat="46.53775" lon="4.87354">
        <ele>306</ele>
        <time>2020-09-22T10:20:30Z</time>
      </trkpt>
      <trkpt lat="46.538" lon="4.87351">
        <ele>308</ele>
        <time>2020-09-22T10:20:36Z</time>
      </trkpt>
      <trkpt lat="46.53815" lon="4.87353">
        <ele>310</ele>
        <time>2020-09-22T10:20:39Z</time>
      </trkpt>
      <trkpt lat="46.53855" lon="4.87364">
        <ele>313</ele>
        <time>2020-09-22T10:20:49Z</time>
      </trkpt>
      <trkpt lat="46.5387" lon="4.87366">
        <ele>314</ele>
        <time>2020-09-22T10:20:52Z</time>
      </trkpt>
      <trkpt lat="46.53882" lon="4.87364">
        <ele>314</ele>
        <time>2020-09-22T10:20:55Z</time>
      </trkpt>
      <trkpt lat="46.5391" lon="4.87349">
        <ele>313</ele>
        <time>2020-09-22T10:21:02Z</time>
      </trkpt>
      <trkpt lat="46.53927" lon="4.87346">
        <ele>313</ele>
        <time>2020-09-22T10:21:06Z</time>
      </trkpt>
      <trkpt lat="46.53953" lon="4.87348">
        <ele>314</ele>
        <time>2020-09-22T10:21:12Z</time>
      </trkpt>
      <trkpt lat="46.53981" lon="4.87352">
        <ele>315</ele>
        <time>2020-09-22T10:21:19Z</time>
      </trkpt>
      <trkpt lat="46.54008" lon="4.87355">
        <ele>315</ele>
        <time>2020-09-22T10:21:25Z</time>
      </trkpt>
      <trkpt lat="46.54042" lon="4.87364">
        <ele>315</ele>
        <time>2020-09-22T10:21:33Z</time>
      </trkpt>
      <trkpt lat="46.54069" lon="4.87368">
        <ele>315</ele>
        <time>2020-09-22T10:21:40Z</time>
      </trkpt>
      <trkpt lat="46.54099" lon="4.87379">
        <ele>315</ele>
        <time>2020-09-22T10:21:47Z</time>
      </trkpt>
      <trkpt lat="46.54144" lon="4.87404">
        <ele>315</ele>
        <time>2020-09-22T10:21:58Z</time>
      </trkpt>
      <trkpt lat="46.54149" lon="4.87403">
        <ele>315</ele>
        <time>2020-09-22T10:21:59Z</time>
      </trkpt>
      <trkpt lat="46.54152" lon="4.87399">
        <ele>314</ele>
        <time>2020-09-22T10:22:00Z</time>
      </trkpt>
      <trkpt lat="46.54159" lon="4.87365">
        <ele>312</ele>
        <time>2020-09-22T10:22:06Z</time>
      </trkpt>
      <trkpt lat="46.54168" lon="4.87343">
        <ele>310</ele>
        <time>2020-09-22T10:22:10Z</time>
      </trkpt>
      <trkpt lat="46.54177" lon="4.87323">
        <ele>309</ele>
        <time>2020-09-22T10:22:14Z</time>
      </trkpt>
      <trkpt lat="46.54189" lon="4.87278">
        <ele>309</ele>
        <time>2020-09-22T10:22:22Z</time>
      </trkpt>
      <trkpt lat="46.54194" lon="4.87254">
        <ele>309</ele>
        <time>2020-09-22T10:22:26Z</time>
      </trkpt>
      <trkpt lat="46.542" lon="4.87255">
        <ele>309</ele>
        <time>2020-09-22T10:22:27Z</time>
      </trkpt>
      <trkpt lat="46.54235" lon="4.8727">
        <ele>311</ele>
        <time>2020-09-22T10:22:36Z</time>
      </trkpt>
      <trkpt lat="46.54253" lon="4.87274">
        <ele>311</ele>
        <time>2020-09-22T10:22:40Z</time>
      </trkpt>
      <trkpt lat="46.54294" lon="4.8727">
        <ele>313</ele>
        <time>2020-09-22T10:22:49Z</time>
      </trkpt>
      <trkpt lat="46.54309" lon="4.8727">
        <ele>314</ele>
        <time>2020-09-22T10:22:53Z</time>
      </trkpt>
      <trkpt lat="46.54317" lon="4.87291">
        <ele>312</ele>
        <time>2020-09-22T10:22:57Z</time>
      </trkpt>
      <trkpt lat="46.5432" lon="4.87308">
        <ele>311</ele>
        <time>2020-09-22T10:23:00Z</time>
      </trkpt>
      <trkpt lat="46.54319" lon="4.87325">
        <ele>309</ele>
        <time>2020-09-22T10:23:02Z</time>
      </trkpt>
      <trkpt lat="46.54316" lon="4.87337">
        <ele>308</ele>
        <time>2020-09-22T10:23:04Z</time>
      </trkpt>
      <trkpt lat="46.54311" lon="4.87352">
        <ele>307</ele>
        <time>2020-09-22T10:23:07Z</time>
      </trkpt>
      <trkpt lat="46.54299" lon="4.87383">
        <ele>306</ele>
        <time>2020-09-22T10:23:13Z</time>
      </trkpt>
      <trkpt lat="46.54294" lon="4.87408">
        <ele>305</ele>
        <time>2020-09-22T10:23:17Z</time>
      </trkpt>
      <trkpt lat="46.54292" lon="4.87425">
        <ele>305</ele>
        <time>2020-09-22T10:23:20Z</time>
      </trkpt>
      <trkpt lat="46.54292" lon="4.87441">
        <ele>305</ele>
        <time>2020-09-22T10:23:22Z</time>
      </trkpt>
      <trkpt lat="46.54295" lon="4.87452">
        <ele>306</ele>
        <time>2020-09-22T10:23:24Z</time>
      </trkpt>
      <trkpt lat="46.5432" lon="4.87516">
        <ele>305</ele>
        <time>2020-09-22T10:23:36Z</time>
      </trkpt>
      <trkpt lat="46.54331" lon="4.87539">
        <ele>306</ele>
        <time>2020-09-22T10:23:40Z</time>
      </trkpt>
      <trkpt lat="46.54337" lon="4.87559">
        <ele>306</ele>
        <time>2020-09-22T10:23:44Z</time>
      </trkpt>
      <trkpt lat="46.54347" lon="4.8758">
        <ele>307</ele>
        <time>2020-09-22T10:23:48Z</time>
      </trkpt>
      <trkpt lat="46.54366" lon="4.87613">
        <ele>306</ele>
        <time>2020-09-22T10:23:55Z</time>
      </trkpt>
      <trkpt lat="46.54391" lon="4.87648">
        <ele>305</ele>
        <time>2020-09-22T10:24:03Z</time>
      </trkpt>
      <trkpt lat="46.5441" lon="4.87674">
        <ele>305</ele>
        <time>2020-09-22T10:24:09Z</time>
      </trkpt>
      <trkpt lat="46.54438" lon="4.87706">
        <ele>306</ele>
        <time>2020-09-22T10:24:18Z</time>
      </trkpt>
      <trkpt lat="46.54477" lon="4.87744">
        <ele>308</ele>
        <time>2020-09-22T10:24:28Z</time>
      </trkpt>
      <trkpt lat="46.54518" lon="4.87779">
        <ele>308</ele>
        <time>2020-09-22T10:24:40Z</time>
      </trkpt>
      <trkpt lat="46.54551" lon="4.87807">
        <ele>309</ele>
        <time>2020-09-22T10:24:48Z</time>
      </trkpt>
      <trkpt lat="46.54598" lon="4.87846">
        <ele>310</ele>
        <time>2020-09-22T10:25:01Z</time>
      </trkpt>
      <trkpt lat="46.54631" lon="4.87876">
        <ele>312</ele>
        <time>2020-09-22T10:25:10Z</time>
      </trkpt>
      <trkpt lat="46.54648" lon="4.87895">
        <ele>314</ele>
        <time>2020-09-22T10:25:15Z</time>
      </trkpt>
      <trkpt lat="46.54669" lon="4.87912">
        <ele>314</ele>
        <time>2020-09-22T10:25:21Z</time>
      </trkpt>
      <trkpt lat="46.54692" lon="4.87927">
        <ele>314</ele>
        <time>2020-09-22T10:25:27Z</time>
      </trkpt>
      <trkpt lat="46.54718" lon="4.87942">
        <ele>314</ele>
        <time>2020-09-22T10:25:33Z</time>
      </trkpt>
      <trkpt lat="46.54728" lon="4.87948">
        <ele>314</ele>
        <time>2020-09-22T10:25:36Z</time>
      </trkpt>
      <trkpt lat="46.54751" lon="4.87958">
        <ele>314</ele>
        <time>2020-09-22T10:25:41Z</time>
      </trkpt>
      <trkpt lat="46.54782" lon="4.87971">
        <ele>313</ele>
        <time>2020-09-22T10:25:49Z</time>
      </trkpt>
      <trkpt lat="46.54795" lon="4.87977">
        <ele>313</ele>
        <time>2020-09-22T10:25:52Z</time>
      </trkpt>
      <trkpt lat="46.54788" lon="4.87983">
        <ele>315</ele>
        <time>2020-09-22T10:25:54Z</time>
      </trkpt>
      <trkpt lat="46.5478" lon="4.87985">
        <ele>316</ele>
        <time>2020-09-22T10:25:56Z</time>
      </trkpt>
      <trkpt lat="46.54768" lon="4.87991">
        <ele>317</ele>
        <time>2020-09-22T10:25:59Z</time>
      </trkpt>
      <trkpt lat="46.54752" lon="4.87999">
        <ele>320</ele>
        <time>2020-09-22T10:26:03Z</time>
      </trkpt>
      <trkpt lat="46.54745" lon="4.88">
        <ele>320</ele>
        <time>2020-09-22T10:26:04Z</time>
      </trkpt>
      <trkpt lat="46.54731" lon="4.88001">
        <ele>321</ele>
        <time>2020-09-22T10:26:08Z</time>
      </trkpt>
      <trkpt lat="46.54715" lon="4.87993">
        <ele>321</ele>
        <time>2020-09-22T10:26:12Z</time>
      </trkpt>
      <trkpt lat="46.54693" lon="4.87986">
        <ele>322</ele>
        <time>2020-09-22T10:26:17Z</time>
      </trkpt>
      <trkpt lat="46.54668" lon="4.87975">
        <ele>322</ele>
        <time>2020-09-22T10:26:23Z</time>
      </trkpt>
      <trkpt lat="46.54638" lon="4.87958">
        <ele>322</ele>
        <time>2020-09-22T10:26:31Z</time>
      </trkpt>
      <trkpt lat="46.54616" lon="4.87951">
        <ele>323</ele>
        <time>2020-09-22T10:26:36Z</time>
      </trkpt>
      <trkpt lat="46.54597" lon="4.87942">
        <ele>323</ele>
        <time>2020-09-22T10:26:40Z</time>
      </trkpt>
      <trkpt lat="46.54567" lon="4.87929">
        <ele>324</ele>
        <time>2020-09-22T10:26:48Z</time>
      </trkpt>
      <trkpt lat="46.54534" lon="4.87912">
        <ele>325</ele>
        <time>2020-09-22T10:26:56Z</time>
      </trkpt>
      <trkpt lat="46.54518" lon="4.87904">
        <ele>325</ele>
        <time>2020-09-22T10:27:00Z</time>
      </trkpt>
      <trkpt lat="46.54496" lon="4.87897">
        <ele>326</ele>
        <time>2020-09-22T10:27:05Z</time>
      </trkpt>
      <trkpt lat="46.54469" lon="4.87886">
        <ele>326</ele>
        <time>2020-09-22T10:27:12Z</time>
      </trkpt>
      <trkpt lat="46.54441" lon="4.87871">
        <ele>326</ele>
        <time>2020-09-22T10:27:19Z</time>
      </trkpt>
      <trkpt lat="46.54405" lon="4.87843">
        <ele>327</ele>
        <time>2020-09-22T10:27:28Z</time>
      </trkpt>
      <trkpt lat="46.54362" lon="4.87816">
        <ele>328</ele>
        <time>2020-09-22T10:27:39Z</time>
      </trkpt>
      <trkpt lat="46.54339" lon="4.87795">
        <ele>329</ele>
        <time>2020-09-22T10:27:46Z</time>
      </trkpt>
      <trkpt lat="46.54314" lon="4.87779">
        <ele>329</ele>
        <time>2020-09-22T10:27:52Z</time>
      </trkpt>
      <trkpt lat="46.54257" lon="4.87739">
        <ele>332</ele>
        <time>2020-09-22T10:28:07Z</time>
      </trkpt>
      <trkpt lat="46.54239" lon="4.87729">
        <ele>332</ele>
        <time>2020-09-22T10:28:11Z</time>
      </trkpt>
      <trkpt lat="46.54215" lon="4.87711">
        <ele>333</ele>
        <time>2020-09-22T10:28:17Z</time>
      </trkpt>
      <trkpt lat="46.54183" lon="4.87692">
        <ele>335</ele>
        <time>2020-09-22T10:28:26Z</time>
      </trkpt>
      <trkpt lat="46.54152" lon="4.87667">
        <ele>337</ele>
        <time>2020-09-22T10:28:34Z</time>
      </trkpt>
      <trkpt lat="46.54132" lon="4.8765">
        <ele>338</ele>
        <time>2020-09-22T10:28:39Z</time>
      </trkpt>
      <trkpt lat="46.54077" lon="4.87608">
        <ele>339</ele>
        <time>2020-09-22T10:28:54Z</time>
      </trkpt>
      <trkpt lat="46.54054" lon="4.87588">
        <ele>339</ele>
        <time>2020-09-22T10:29:00Z</time>
      </trkpt>
      <trkpt lat="46.54043" lon="4.87582">
        <ele>340</ele>
        <time>2020-09-22T10:29:03Z</time>
      </trkpt>
      <trkpt lat="46.5402" lon="4.87565">
        <ele>340</ele>
        <time>2020-09-22T10:29:09Z</time>
      </trkpt>
      <trkpt lat="46.53991" lon="4.87551">
        <ele>340</ele>
        <time>2020-09-22T10:29:16Z</time>
      </trkpt>
      <trkpt lat="46.53961" lon="4.87542">
        <ele>339</ele>
        <time>2020-09-22T10:29:23Z</time>
      </trkpt>
      <trkpt lat="46.53901" lon="4.87541">
        <ele>338</ele>
        <time>2020-09-22T10:29:37Z</time>
      </trkpt>
      <trkpt lat="46.53891" lon="4.87541">
        <ele>338</ele>
        <time>2020-09-22T10:29:39Z</time>
      </trkpt>
      <trkpt lat="46.53866" lon="4.87538">
        <ele>336</ele>
        <time>2020-09-22T10:29:45Z</time>
      </trkpt>
      <trkpt lat="46.53834" lon="4.87532">
        <ele>335</ele>
        <time>2020-09-22T10:29:53Z</time>
      </trkpt>
      <trkpt lat="46.53817" lon="4.87529">
        <ele>334</ele>
        <time>2020-09-22T10:29:57Z</time>
      </trkpt>
      <trkpt lat="46.53778" lon="4.87528">
        <ele>332</ele>
        <time>2020-09-22T10:30:06Z</time>
      </trkpt>
      <trkpt lat="46.53755" lon="4.87529">
        <ele>332</ele>
        <time>2020-09-22T10:30:11Z</time>
      </trkpt>
      <trkpt lat="46.5373" lon="4.87532">
        <ele>331</ele>
        <time>2020-09-22T10:30:17Z</time>
      </trkpt>
      <trkpt lat="46.53692" lon="4.87535">
        <ele>328</ele>
        <time>2020-09-22T10:30:26Z</time>
      </trkpt>
      <trkpt lat="46.53662" lon="4.87537">
        <ele>327</ele>
        <time>2020-09-22T10:30:33Z</time>
      </trkpt>
      <trkpt lat="46.53626" lon="4.87549">
        <ele>327</ele>
        <time>2020-09-22T10:30:42Z</time>
      </trkpt>
      <trkpt lat="46.53596" lon="4.87556">
        <ele>326</ele>
        <time>2020-09-22T10:30:49Z</time>
      </trkpt>
      <trkpt lat="46.53565" lon="4.87565">
        <ele>326</ele>
        <time>2020-09-22T10:30:56Z</time>
      </trkpt>
      <trkpt lat="46.53552" lon="4.8757">
        <ele>325</ele>
        <time>2020-09-22T10:30:59Z</time>
      </trkpt>
      <trkpt lat="46.53532" lon="4.87572">
        <ele>324</ele>
        <time>2020-09-22T10:31:04Z</time>
      </trkpt>
      <trkpt lat="46.5351" lon="4.87574">
        <ele>322</ele>
        <time>2020-09-22T10:31:09Z</time>
      </trkpt>
      <trkpt lat="46.53468" lon="4.87585">
        <ele>319</ele>
        <time>2020-09-22T10:31:19Z</time>
      </trkpt>
      <trkpt lat="46.53439" lon="4.87596">
        <ele>316</ele>
        <time>2020-09-22T10:31:26Z</time>
      </trkpt>
      <trkpt lat="46.53417" lon="4.8761">
        <ele>315</ele>
        <time>2020-09-22T10:31:32Z</time>
      </trkpt>
      <trkpt lat="46.53392" lon="4.87628">
        <ele>313</ele>
        <time>2020-09-22T10:31:38Z</time>
      </trkpt>
      <trkpt lat="46.53378" lon="4.87642">
        <ele>313</ele>
        <time>2020-09-22T10:31:42Z</time>
      </trkpt>
      <trkpt lat="46.53368" lon="4.87658">
        <ele>313</ele>
        <time>2020-09-22T10:31:46Z</time>
      </trkpt>
      <trkpt lat="46.53351" lon="4.87685">
        <ele>311</ele>
        <time>2020-09-22T10:31:52Z</time>
      </trkpt>
      <trkpt lat="46.53346" lon="4.87696">
        <ele>310</ele>
        <time>2020-09-22T10:31:54Z</time>
      </trkpt>
      <trkpt lat="46.53344" lon="4.87711">
        <ele>309</ele>
        <time>2020-09-22T10:31:56Z</time>
      </trkpt>
      <trkpt lat="46.53336" lon="4.87718">
        <ele>308</ele>
        <time>2020-09-22T10:31:58Z</time>
      </trkpt>
      <trkpt lat="46.53318" lon="4.87724">
        <ele>307</ele>
        <time>2020-09-22T10:32:03Z</time>
      </trkpt>
    </trkseg>
  </trk>
  <trk>
    <name><![CDATA[3_le tour de BRANCION BLEU]]></name>
    <extensions>
      <line xmlns="http://www.topografix.com/GPX/gpx_style/0/2">
        <color>0033ff</color>
        <width>4</width>
      </line>
    </extensions>
    <trkseg>
      <trkpt lat="46.54476" lon="4.79895">
        <ele>357</ele>
        <time>2020-09-22T10:16:55Z</time>
      </trkpt>
      <trkpt lat="46.54502" lon="4.79896">
        <ele>360</ele>
        <time>2020-09-22T10:17:01Z</time>
      </trkpt>
      <trkpt lat="46.54464" lon="4.79938">
        <ele>360</ele>
        <time>2020-09-22T10:17:12Z</time>
      </trkpt>
      <trkpt lat="46.5443" lon="4.7998">
        <ele>362</ele>
        <time>2020-09-22T10:17:23Z</time>
      </trkpt>
      <trkpt lat="46.54488" lon="4.80022">
        <ele>366</ele>
        <time>2020-09-22T10:17:38Z</time>
      </trkpt>
      <trkpt lat="46.54524" lon="4.80042">
        <ele>366</ele>
        <time>2020-09-22T10:17:47Z</time>
      </trkpt>
      <trkpt lat="46.54554" lon="4.80054">
        <ele>364</ele>
        <time>2020-09-22T10:17:54Z</time>
      </trkpt>
      <trkpt lat="46.54589" lon="4.80073">
        <ele>361</ele>
        <time>2020-09-22T10:18:03Z</time>
      </trkpt>
      <trkpt lat="46.54638" lon="4.8011">
        <ele>354</ele>
        <time>2020-09-22T10:18:16Z</time>
      </trkpt>
      <trkpt lat="46.5467" lon="4.80139">
        <ele>350</ele>
        <time>2020-09-22T10:18:24Z</time>
      </trkpt>
      <trkpt lat="46.54685" lon="4.80142">
        <ele>348</ele>
        <time>2020-09-22T10:18:28Z</time>
      </trkpt>
      <trkpt lat="46.54699" lon="4.80129">
        <ele>346</ele>
        <time>2020-09-22T10:18:32Z</time>
      </trkpt>
      <trkpt lat="46.54708" lon="4.80109">
        <ele>344</ele>
        <time>2020-09-22T10:18:36Z</time>
      </trkpt>
      <trkpt lat="46.54713" lon="4.8005">
        <ele>342</ele>
        <time>2020-09-22T10:18:45Z</time>
      </trkpt>
      <trkpt lat="46.54732" lon="4.80024">
        <ele>337</ele>
        <time>2020-09-22T10:18:51Z</time>
      </trkpt>
      <trkpt lat="46.54777" lon="4.79986">
        <ele>331</ele>
        <time>2020-09-22T10:19:04Z</time>
      </trkpt>
      <trkpt lat="46.54841" lon="4.79941">
        <ele>323</ele>
        <time>2020-09-22T10:19:20Z</time>
      </trkpt>
      <trkpt lat="46.54905" lon="4.79851">
        <ele>315</ele>
        <time>2020-09-22T10:19:41Z</time>
      </trkpt>
      <trkpt lat="46.54948" lon="4.79828">
        <ele>307</ele>
        <time>2020-09-22T10:19:52Z</time>
      </trkpt>
      <trkpt lat="46.54965" lon="4.79835">
        <ele>304</ele>
        <time>2020-09-22T10:19:56Z</time>
      </trkpt>
      <trkpt lat="46.54971" lon="4.79834">
        <ele>303</ele>
        <time>2020-09-22T10:19:57Z</time>
      </trkpt>
      <trkpt lat="46.54986" lon="4.79821">
        <ele>300</ele>
        <time>2020-09-22T10:20:01Z</time>
      </trkpt>
      <trkpt lat="46.55019" lon="4.79713">
        <ele>288</ele>
        <time>2020-09-22T10:20:20Z</time>
      </trkpt>
      <trkpt lat="46.55058" lon="4.7961">
        <ele>279</ele>
        <time>2020-09-22T10:20:39Z</time>
      </trkpt>
      <trkpt lat="46.55072" lon="4.79563">
        <ele>274</ele>
        <time>2020-09-22T10:20:47Z</time>
      </trkpt>
      <trkpt lat="46.55088" lon="4.79477">
        <ele>266</ele>
        <time>2020-09-22T10:21:02Z</time>
      </trkpt>
      <trkpt lat="46.55084" lon="4.79395">
        <ele>265</ele>
        <time>2020-09-22T10:21:15Z</time>
      </trkpt>
      <trkpt lat="46.5509" lon="4.79368">
        <ele>265</ele>
        <time>2020-09-22T10:21:19Z</time>
      </trkpt>
      <trkpt lat="46.55103" lon="4.79344">
        <ele>265</ele>
        <time>2020-09-22T10:21:24Z</time>
      </trkpt>
      <trkpt lat="46.55159" lon="4.79281">
        <ele>260</ele>
        <time>2020-09-22T10:21:41Z</time>
      </trkpt>
      <trkpt lat="46.55182" lon="4.79246">
        <ele>258</ele>
        <time>2020-09-22T10:21:49Z</time>
      </trkpt>
      <trkpt lat="46.55191" lon="4.79218">
        <ele>258</ele>
        <time>2020-09-22T10:21:54Z</time>
      </trkpt>
      <trkpt lat="46.55195" lon="4.79154">
        <ele>258</ele>
        <time>2020-09-22T10:22:04Z</time>
      </trkpt>
      <trkpt lat="46.55214" lon="4.7914">
        <ele>256</ele>
        <time>2020-09-22T10:22:09Z</time>
      </trkpt>
      <trkpt lat="46.5525" lon="4.79101">
        <ele>252</ele>
        <time>2020-09-22T10:22:19Z</time>
      </trkpt>
      <trkpt lat="46.55268" lon="4.79093">
        <ele>251</ele>
        <time>2020-09-22T10:22:24Z</time>
      </trkpt>
      <trkpt lat="46.5528" lon="4.79093">
        <ele>250</ele>
        <time>2020-09-22T10:22:27Z</time>
      </trkpt>
      <trkpt lat="46.55361" lon="4.79106">
        <ele>245</ele>
        <time>2020-09-22T10:22:46Z</time>
      </trkpt>
      <trkpt lat="46.55375" lon="4.791">
        <ele>245</ele>
        <time>2020-09-22T10:22:49Z</time>
      </trkpt>
      <trkpt lat="46.55389" lon="4.79083">
        <ele>245</ele>
        <time>2020-09-22T10:22:53Z</time>
      </trkpt>
      <trkpt lat="46.55409" lon="4.79045">
        <ele>246</ele>
        <time>2020-09-22T10:23:01Z</time>
      </trkpt>
      <trkpt lat="46.55421" lon="4.79033">
        <ele>247</ele>
        <time>2020-09-22T10:23:04Z</time>
      </trkpt>
      <trkpt lat="46.55441" lon="4.79022">
        <ele>246</ele>
        <time>2020-09-22T10:23:09Z</time>
      </trkpt>
      <trkpt lat="46.55448" lon="4.7902">
        <ele>246</ele>
        <time>2020-09-22T10:23:11Z</time>
      </trkpt>
      <trkpt lat="46.55456" lon="4.79021">
        <ele>245</ele>
        <time>2020-09-22T10:23:13Z</time>
      </trkpt>
      <trkpt lat="46.55483" lon="4.79039">
        <ele>244</ele>
        <time>2020-09-22T10:23:20Z</time>
      </trkpt>
      <trkpt lat="46.55497" lon="4.79042">
        <ele>243</ele>
        <time>2020-09-22T10:23:23Z</time>
      </trkpt>
      <trkpt lat="46.55518" lon="4.79039">
        <ele>244</ele>
        <time>2020-09-22T10:23:28Z</time>
      </trkpt>
      <trkpt lat="46.55556" lon="4.79012">
        <ele>244</ele>
        <time>2020-09-22T10:23:38Z</time>
      </trkpt>
      <trkpt lat="46.55594" lon="4.78964">
        <ele>241</ele>
        <time>2020-09-22T10:23:50Z</time>
      </trkpt>
      <trkpt lat="46.5563" lon="4.78949">
        <ele>240</ele>
        <time>2020-09-22T10:23:58Z</time>
      </trkpt>
      <trkpt lat="46.55686" lon="4.78942">
        <ele>240</ele>
        <time>2020-09-22T10:24:12Z</time>
      </trkpt>
      <trkpt lat="46.55705" lon="4.78945">
        <ele>239</ele>
        <time>2020-09-22T10:24:16Z</time>
      </trkpt>
      <trkpt lat="46.55745" lon="4.78957">
        <ele>239</ele>
        <time>2020-09-22T10:24:26Z</time>
      </trkpt>
      <trkpt lat="46.558" lon="4.78961">
        <ele>240</ele>
        <time>2020-09-22T10:24:38Z</time>
      </trkpt>
      <trkpt lat="46.55808" lon="4.78958">
        <ele>241</ele>
        <time>2020-09-22T10:24:40Z</time>
      </trkpt>
      <trkpt lat="46.55823" lon="4.78947">
        <ele>241</ele>
        <time>2020-09-22T10:24:44Z</time>
      </trkpt>
      <trkpt lat="46.55819" lon="4.78924">
        <ele>240</ele>
        <time>2020-09-22T10:24:48Z</time>
      </trkpt>
      <trkpt lat="46.55817" lon="4.78817">
        <ele>234</ele>
        <time>2020-09-22T10:25:05Z</time>
      </trkpt>
      <trkpt lat="46.55809" lon="4.78723">
        <ele>230</ele>
        <time>2020-09-22T10:25:20Z</time>
      </trkpt>
      <trkpt lat="46.55783" lon="4.78567">
        <ele>224</ele>
        <time>2020-09-22T10:25:46Z</time>
      </trkpt>
      <trkpt lat="46.55787" lon="4.78526">
        <ele>223</ele>
        <time>2020-09-22T10:25:53Z</time>
      </trkpt>
      <trkpt lat="46.55789" lon="4.78381">
        <ele>220</ele>
        <time>2020-09-22T10:26:16Z</time>
      </trkpt>
      <trkpt lat="46.55793" lon="4.78342">
        <ele>220</ele>
        <time>2020-09-22T10:26:22Z</time>
      </trkpt>
      <trkpt lat="46.55785" lon="4.78165">
        <ele>216</ele>
        <time>2020-09-22T10:26:51Z</time>
      </trkpt>
      <trkpt lat="46.5578" lon="4.78114">
        <ele>215</ele>
        <time>2020-09-22T10:26:59Z</time>
      </trkpt>
      <trkpt lat="46.55782" lon="4.78004">
        <ele>213</ele>
        <time>2020-09-22T10:27:17Z</time>
      </trkpt>
      <trkpt lat="46.55856" lon="4.77574">
        <ele>208</ele>
        <time>2020-09-22T10:28:28Z</time>
      </trkpt>
      <trkpt lat="46.5586" lon="4.7757">
        <ele>208</ele>
        <time>2020-09-22T10:28:29Z</time>
      </trkpt>
      <trkpt lat="46.55937" lon="4.77557">
        <ele>207</ele>
        <time>2020-09-22T10:28:47Z</time>
      </trkpt>
      <trkpt lat="46.55943" lon="4.77512">
        <ele>207</ele>
        <time>2020-09-22T10:28:55Z</time>
      </trkpt>
      <trkpt lat="46.55949" lon="4.77386">
        <ele>206</ele>
        <time>2020-09-22T10:29:15Z</time>
      </trkpt>
      <trkpt lat="46.55944" lon="4.77335">
        <ele>206</ele>
        <time>2020-09-22T10:29:23Z</time>
      </trkpt>
      <trkpt lat="46.55946" lon="4.773">
        <ele>206</ele>
        <time>2020-09-22T10:29:29Z</time>
      </trkpt>
      <trkpt lat="46.55942" lon="4.77196">
        <ele>207</ele>
        <time>2020-09-22T10:29:46Z</time>
      </trkpt>
      <trkpt lat="46.55938" lon="4.77166">
        <ele>208</ele>
        <time>2020-09-22T10:29:51Z</time>
      </trkpt>
      <trkpt lat="46.55926" lon="4.77116">
        <ele>210</ele>
        <time>2020-09-22T10:29:59Z</time>
      </trkpt>
      <trkpt lat="46.55911" lon="4.77082">
        <ele>211</ele>
        <time>2020-09-22T10:30:06Z</time>
      </trkpt>
      <trkpt lat="46.55897" lon="4.77061">
        <ele>211</ele>
        <time>2020-09-22T10:30:10Z</time>
      </trkpt>
      <trkpt lat="46.55883" lon="4.77056">
        <ele>211</ele>
        <time>2020-09-22T10:30:14Z</time>
      </trkpt>
      <trkpt lat="46.55817" lon="4.77061">
        <ele>210</ele>
        <time>2020-09-22T10:30:29Z</time>
      </trkpt>
      <trkpt lat="46.55768" lon="4.77069">
        <ele>210</ele>
        <time>2020-09-22T10:30:41Z</time>
      </trkpt>
      <trkpt lat="46.55683" lon="4.77089">
        <ele>210</ele>
        <time>2020-09-22T10:31:01Z</time>
      </trkpt>
      <trkpt lat="46.55651" lon="4.77091">
        <ele>210</ele>
        <time>2020-09-22T10:31:08Z</time>
      </trkpt>
      <trkpt lat="46.55627" lon="4.77087">
        <ele>211</ele>
        <time>2020-09-22T10:31:14Z</time>
      </trkpt>
      <trkpt lat="46.55506" lon="4.77049">
        <ele>215</ele>
        <time>2020-09-22T10:31:43Z</time>
      </trkpt>
      <trkpt lat="46.55421" lon="4.76998">
        <ele>217</ele>
        <time>2020-09-22T10:32:04Z</time>
      </trkpt>
      <trkpt lat="46.55407" lon="4.77">
        <ele>217</ele>
        <time>2020-09-22T10:32:07Z</time>
      </trkpt>
      <trkpt lat="46.55375" lon="4.77017">
        <ele>215</ele>
        <time>2020-09-22T10:32:15Z</time>
      </trkpt>
      <trkpt lat="46.55324" lon="4.77036">
        <ele>214</ele>
        <time>2020-09-22T10:32:28Z</time>
      </trkpt>
      <trkpt lat="46.55289" lon="4.7704">
        <ele>213</ele>
        <time>2020-09-22T10:32:36Z</time>
      </trkpt>
      <trkpt lat="46.55283" lon="4.77044">
        <ele>213</ele>
        <time>2020-09-22T10:32:37Z</time>
      </trkpt>
      <trkpt lat="46.55281" lon="4.77049">
        <ele>213</ele>
        <time>2020-09-22T10:32:38Z</time>
      </trkpt>
      <trkpt lat="46.55281" lon="4.77082">
        <ele>211</ele>
        <time>2020-09-22T10:32:44Z</time>
      </trkpt>
      <trkpt lat="46.55278" lon="4.77106">
        <ele>211</ele>
        <time>2020-09-22T10:32:48Z</time>
      </trkpt>
      <trkpt lat="46.55139" lon="4.77573">
        <ele>216</ele>
        <time>2020-09-22T10:34:09Z</time>
      </trkpt>
      <trkpt lat="46.55078" lon="4.77766">
        <ele>226</ele>
        <time>2020-09-22T10:34:43Z</time>
      </trkpt>
      <trkpt lat="46.55056" lon="4.77841">
        <ele>229</ele>
        <time>2020-09-22T10:34:56Z</time>
      </trkpt>
      <trkpt lat="46.55033" lon="4.7796">
        <ele>230</ele>
        <time>2020-09-22T10:35:16Z</time>
      </trkpt>
      <trkpt lat="46.55003" lon="4.78042">
        <ele>230</ele>
        <time>2020-09-22T10:35:31Z</time>
      </trkpt>
      <trkpt lat="46.55" lon="4.78086">
        <ele>230</ele>
        <time>2020-09-22T10:35:38Z</time>
      </trkpt>
      <trkpt lat="46.55014" lon="4.78226">
        <ele>231</ele>
        <time>2020-09-22T10:36:01Z</time>
      </trkpt>
      <trkpt lat="46.54993" lon="4.78319">
        <ele>237</ele>
        <time>2020-09-22T10:36:17Z</time>
      </trkpt>
      <trkpt lat="46.54971" lon="4.78396">
        <ele>244</ele>
        <time>2020-09-22T10:36:30Z</time>
      </trkpt>
      <trkpt lat="46.54961" lon="4.78475">
        <ele>251</ele>
        <time>2020-09-22T10:36:43Z</time>
      </trkpt>
      <trkpt lat="46.54944" lon="4.78536">
        <ele>258</ele>
        <time>2020-09-22T10:36:54Z</time>
      </trkpt>
      <trkpt lat="46.54943" lon="4.78556">
        <ele>260</ele>
        <time>2020-09-22T10:36:57Z</time>
      </trkpt>
      <trkpt lat="46.54954" lon="4.78606">
        <ele>265</ele>
        <time>2020-09-22T10:37:05Z</time>
      </trkpt>
      <trkpt lat="46.54959" lon="4.7865">
        <ele>267</ele>
        <time>2020-09-22T10:37:12Z</time>
      </trkpt>
      <trkpt lat="46.54959" lon="4.78665">
        <ele>268</ele>
        <time>2020-09-22T10:37:15Z</time>
      </trkpt>
      <trkpt lat="46.54953" lon="4.78701">
        <ele>270</ele>
        <time>2020-09-22T10:37:21Z</time>
      </trkpt>
      <trkpt lat="46.54954" lon="4.78717">
        <ele>270</ele>
        <time>2020-09-22T10:37:23Z</time>
      </trkpt>
      <trkpt lat="46.54945" lon="4.78718">
        <ele>271</ele>
        <time>2020-09-22T10:37:26Z</time>
      </trkpt>
      <trkpt lat="46.54911" lon="4.78704">
        <ele>274</ele>
        <time>2020-09-22T10:37:34Z</time>
      </trkpt>
      <trkpt lat="46.54892" lon="4.787">
        <ele>276</ele>
        <time>2020-09-22T10:37:38Z</time>
      </trkpt>
      <trkpt lat="46.54878" lon="4.78705">
        <ele>277</ele>
        <time>2020-09-22T10:37:42Z</time>
      </trkpt>
      <trkpt lat="46.54865" lon="4.7872">
        <ele>278</ele>
        <time>2020-09-22T10:37:46Z</time>
      </trkpt>
      <trkpt lat="46.54805" lon="4.7883">
        <ele>282</ele>
        <time>2020-09-22T10:38:08Z</time>
      </trkpt>
      <trkpt lat="46.54787" lon="4.78872">
        <ele>283</ele>
        <time>2020-09-22T10:38:16Z</time>
      </trkpt>
      <trkpt lat="46.5471" lon="4.79016">
        <ele>292</ele>
        <time>2020-09-22T10:38:45Z</time>
      </trkpt>
      <trkpt lat="46.54695" lon="4.79052">
        <ele>295</ele>
        <time>2020-09-22T10:38:52Z</time>
      </trkpt>
      <trkpt lat="46.54675" lon="4.79134">
        <ele>299</ele>
        <time>2020-09-22T10:39:06Z</time>
      </trkpt>
      <trkpt lat="46.54654" lon="4.79236">
        <ele>306</ele>
        <time>2020-09-22T10:39:23Z</time>
      </trkpt>
      <trkpt lat="46.54604" lon="4.79384">
        <ele>321</ele>
        <time>2020-09-22T10:39:50Z</time>
      </trkpt>
      <trkpt lat="46.5458" lon="4.795">
        <ele>324</ele>
        <time>2020-09-22T10:40:09Z</time>
      </trkpt>
      <trkpt lat="46.54567" lon="4.79576">
        <ele>331</ele>
        <time>2020-09-22T10:40:22Z</time>
      </trkpt>
      <trkpt lat="46.54563" lon="4.7964">
        <ele>332</ele>
        <time>2020-09-22T10:40:32Z</time>
      </trkpt>
      <trkpt lat="46.54558" lon="4.79661">
        <ele>333</ele>
        <time>2020-09-22T10:40:36Z</time>
      </trkpt>
      <trkpt lat="46.54547" lon="4.79683">
        <ele>335</ele>
        <time>2020-09-22T10:40:40Z</time>
      </trkpt>
      <trkpt lat="46.54515" lon="4.79727">
        <ele>336</ele>
        <time>2020-09-22T10:40:50Z</time>
      </trkpt>
      <trkpt lat="46.54506" lon="4.79744">
        <ele>335</ele>
        <time>2020-09-22T10:40:54Z</time>
      </trkpt>
      <trkpt lat="46.54502" lon="4.79734">
        <ele>335</ele>
        <time>2020-09-22T10:40:55Z</time>
      </trkpt>
      <trkpt lat="46.54482" lon="4.7971">
        <ele>339</ele>
        <time>2020-09-22T10:41:02Z</time>
      </trkpt>
      <trkpt lat="46.54455" lon="4.79694">
        <ele>346</ele>
        <time>2020-09-22T10:41:08Z</time>
      </trkpt>
      <trkpt lat="46.5445" lon="4.79584">
        <ele>360</ele>
        <time>2020-09-22T10:41:26Z</time>
      </trkpt>
      <trkpt lat="46.54437" lon="4.79541">
        <ele>367</ele>
        <time>2020-09-22T10:41:34Z</time>
      </trkpt>
      <trkpt lat="46.54401" lon="4.79457">
        <ele>384</ele>
        <time>2020-09-22T10:41:50Z</time>
      </trkpt>
      <trkpt lat="46.5436" lon="4.794">
        <ele>395</ele>
        <time>2020-09-22T10:42:03Z</time>
      </trkpt>
      <trkpt lat="46.54345" lon="4.79385">
        <ele>398</ele>
        <time>2020-09-22T10:42:07Z</time>
      </trkpt>
      <trkpt lat="46.54325" lon="4.79373">
        <ele>400</ele>
        <time>2020-09-22T10:42:12Z</time>
      </trkpt>
      <trkpt lat="46.54266" lon="4.79353">
        <ele>405</ele>
        <time>2020-09-22T10:42:26Z</time>
      </trkpt>
      <trkpt lat="46.54171" lon="4.79302">
        <ele>406</ele>
        <time>2020-09-22T10:42:50Z</time>
      </trkpt>
      <trkpt lat="46.54097" lon="4.79278">
        <ele>408</ele>
        <time>2020-09-22T10:43:08Z</time>
      </trkpt>
      <trkpt lat="46.54084" lon="4.79271">
        <ele>408</ele>
        <time>2020-09-22T10:43:11Z</time>
      </trkpt>
      <trkpt lat="46.54052" lon="4.7926">
        <ele>409</ele>
        <time>2020-09-22T10:43:18Z</time>
      </trkpt>
      <trkpt lat="46.54016" lon="4.79257">
        <ele>411</ele>
        <time>2020-09-22T10:43:27Z</time>
      </trkpt>
      <trkpt lat="46.53972" lon="4.79247">
        <ele>410</ele>
        <time>2020-09-22T10:43:37Z</time>
      </trkpt>
      <trkpt lat="46.5394" lon="4.79235">
        <ele>407</ele>
        <time>2020-09-22T10:43:45Z</time>
      </trkpt>
      <trkpt lat="46.53917" lon="4.79231">
        <ele>406</ele>
        <time>2020-09-22T10:43:50Z</time>
      </trkpt>
      <trkpt lat="46.53901" lon="4.79231">
        <ele>406</ele>
        <time>2020-09-22T10:43:54Z</time>
      </trkpt>
      <trkpt lat="46.5389" lon="4.79236">
        <ele>407</ele>
        <time>2020-09-22T10:43:57Z</time>
      </trkpt>
      <trkpt lat="46.53869" lon="4.79251">
        <ele>409</ele>
        <time>2020-09-22T10:44:02Z</time>
      </trkpt>
      <trkpt lat="46.53859" lon="4.79255">
        <ele>409</ele>
        <time>2020-09-22T10:44:05Z</time>
      </trkpt>
      <trkpt lat="46.53828" lon="4.79261">
        <ele>410</ele>
        <time>2020-09-22T10:44:12Z</time>
      </trkpt>
      <trkpt lat="46.53821" lon="4.79265">
        <ele>410</ele>
        <time>2020-09-22T10:44:14Z</time>
      </trkpt>
      <trkpt lat="46.53807" lon="4.79278">
        <ele>410</ele>
        <time>2020-09-22T10:44:18Z</time>
      </trkpt>
      <trkpt lat="46.53792" lon="4.79305">
        <ele>411</ele>
        <time>2020-09-22T10:44:23Z</time>
      </trkpt>
      <trkpt lat="46.53763" lon="4.79316">
        <ele>410</ele>
        <time>2020-09-22T10:44:30Z</time>
      </trkpt>
      <trkpt lat="46.5374" lon="4.79328">
        <ele>409</ele>
        <time>2020-09-22T10:44:36Z</time>
      </trkpt>
      <trkpt lat="46.53708" lon="4.79333">
        <ele>408</ele>
        <time>2020-09-22T10:44:43Z</time>
      </trkpt>
      <trkpt lat="46.53688" lon="4.79332">
        <ele>407</ele>
        <time>2020-09-22T10:44:48Z</time>
      </trkpt>
      <trkpt lat="46.53636" lon="4.79336">
        <ele>404</ele>
        <time>2020-09-22T10:45:00Z</time>
      </trkpt>
      <trkpt lat="46.53626" lon="4.79339">
        <ele>403</ele>
        <time>2020-09-22T10:45:03Z</time>
      </trkpt>
      <trkpt lat="46.53612" lon="4.79351">
        <ele>400</ele>
        <time>2020-09-22T10:45:06Z</time>
      </trkpt>
      <trkpt lat="46.53576" lon="4.79326">
        <ele>403</ele>
        <time>2020-09-22T10:45:16Z</time>
      </trkpt>
      <trkpt lat="46.5352" lon="4.79278">
        <ele>405</ele>
        <time>2020-09-22T10:45:31Z</time>
      </trkpt>
      <trkpt lat="46.53507" lon="4.79264">
        <ele>406</ele>
        <time>2020-09-22T10:45:35Z</time>
      </trkpt>
      <trkpt lat="46.53445" lon="4.79159">
        <ele>409</ele>
        <time>2020-09-22T10:45:57Z</time>
      </trkpt>
      <trkpt lat="46.53423" lon="4.79127">
        <ele>407</ele>
        <time>2020-09-22T10:46:04Z</time>
      </trkpt>
      <trkpt lat="46.53399" lon="4.79114">
        <ele>406</ele>
        <time>2020-09-22T10:46:10Z</time>
      </trkpt>
      <trkpt lat="46.53349" lon="4.79093">
        <ele>405</ele>
        <time>2020-09-22T10:46:22Z</time>
      </trkpt>
      <trkpt lat="46.53335" lon="4.79084">
        <ele>405</ele>
        <time>2020-09-22T10:46:26Z</time>
      </trkpt>
      <trkpt lat="46.53291" lon="4.79133">
        <ele>403</ele>
        <time>2020-09-22T10:46:39Z</time>
      </trkpt>
      <trkpt lat="46.53249" lon="4.79192">
        <ele>395</ele>
        <time>2020-09-22T10:46:53Z</time>
      </trkpt>
      <trkpt lat="46.53225" lon="4.79218">
        <ele>389</ele>
        <time>2020-09-22T10:47:00Z</time>
      </trkpt>
      <trkpt lat="46.53192" lon="4.79241">
        <ele>383</ele>
        <time>2020-09-22T10:47:08Z</time>
      </trkpt>
      <trkpt lat="46.53178" lon="4.79245">
        <ele>381</ele>
        <time>2020-09-22T10:47:11Z</time>
      </trkpt>
      <trkpt lat="46.53149" lon="4.79247">
        <ele>380</ele>
        <time>2020-09-22T10:47:18Z</time>
      </trkpt>
      <trkpt lat="46.53116" lon="4.79261">
        <ele>377</ele>
        <time>2020-09-22T10:47:26Z</time>
      </trkpt>
      <trkpt lat="46.5308" lon="4.7927">
        <ele>376</ele>
        <time>2020-09-22T10:47:35Z</time>
      </trkpt>
      <trkpt lat="46.53073" lon="4.79274">
        <ele>376</ele>
        <time>2020-09-22T10:47:37Z</time>
      </trkpt>
      <trkpt lat="46.53062" lon="4.79288">
        <ele>375</ele>
        <time>2020-09-22T10:47:40Z</time>
      </trkpt>
      <trkpt lat="46.53057" lon="4.79299">
        <ele>373</ele>
        <time>2020-09-22T10:47:42Z</time>
      </trkpt>
      <trkpt lat="46.53053" lon="4.79315">
        <ele>371</ele>
        <time>2020-09-22T10:47:45Z</time>
      </trkpt>
      <trkpt lat="46.53054" lon="4.79333">
        <ele>368</ele>
        <time>2020-09-22T10:47:48Z</time>
      </trkpt>
      <trkpt lat="46.5313" lon="4.79431">
        <ele>349</ele>
        <time>2020-09-22T10:48:11Z</time>
      </trkpt>
      <trkpt lat="46.53166" lon="4.79484">
        <ele>339</ele>
        <time>2020-09-22T10:48:23Z</time>
      </trkpt>
      <trkpt lat="46.53191" lon="4.79515">
        <ele>335</ele>
        <time>2020-09-22T10:48:31Z</time>
      </trkpt>
      <trkpt lat="46.53206" lon="4.79542">
        <ele>332</ele>
        <time>2020-09-22T10:48:37Z</time>
      </trkpt>
      <trkpt lat="46.53212" lon="4.79568">
        <ele>329</ele>
        <time>2020-09-22T10:48:41Z</time>
      </trkpt>
      <trkpt lat="46.53214" lon="4.79603">
        <ele>325</ele>
        <time>2020-09-22T10:48:47Z</time>
      </trkpt>
      <trkpt lat="46.5321" lon="4.7961">
        <ele>325</ele>
        <time>2020-09-22T10:48:48Z</time>
      </trkpt>
      <trkpt lat="46.53205" lon="4.79637">
        <ele>322</ele>
        <time>2020-09-22T10:48:53Z</time>
      </trkpt>
      <trkpt lat="46.53213" lon="4.79729">
        <ele>313</ele>
        <time>2020-09-22T10:49:08Z</time>
      </trkpt>
      <trkpt lat="46.53226" lon="4.79791">
        <ele>308</ele>
        <time>2020-09-22T10:49:18Z</time>
      </trkpt>
      <trkpt lat="46.53226" lon="4.79823">
        <ele>306</ele>
        <time>2020-09-22T10:49:23Z</time>
      </trkpt>
      <trkpt lat="46.53222" lon="4.79864">
        <ele>303</ele>
        <time>2020-09-22T10:49:30Z</time>
      </trkpt>
      <trkpt lat="46.53202" lon="4.79939">
        <ele>298</ele>
        <time>2020-09-22T10:49:43Z</time>
      </trkpt>
      <trkpt lat="46.53196" lon="4.79978">
        <ele>297</ele>
        <time>2020-09-22T10:49:49Z</time>
      </trkpt>
      <trkpt lat="46.53191" lon="4.80056">
        <ele>294</ele>
        <time>2020-09-22T10:50:02Z</time>
      </trkpt>
      <trkpt lat="46.53193" lon="4.80085">
        <ele>294</ele>
        <time>2020-09-22T10:50:06Z</time>
      </trkpt>
      <trkpt lat="46.53201" lon="4.80137">
        <ele>293</ele>
        <time>2020-09-22T10:50:15Z</time>
      </trkpt>
      <trkpt lat="46.53194" lon="4.80177">
        <ele>292</ele>
        <time>2020-09-22T10:50:22Z</time>
      </trkpt>
      <trkpt lat="46.53196" lon="4.80178">
        <ele>292</ele>
        <time>2020-09-22T10:50:22Z</time>
      </trkpt>
      <trkpt lat="46.53246" lon="4.80188">
        <ele>292</ele>
        <time>2020-09-22T10:50:34Z</time>
      </trkpt>
      <trkpt lat="46.53261" lon="4.80189">
        <ele>293</ele>
        <time>2020-09-22T10:50:37Z</time>
      </trkpt>
      <trkpt lat="46.53309" lon="4.80211">
        <ele>296</ele>
        <time>2020-09-22T10:50:49Z</time>
      </trkpt>
      <trkpt lat="46.53326" lon="4.80164">
        <ele>296</ele>
        <time>2020-09-22T10:50:58Z</time>
      </trkpt>
      <trkpt lat="46.53324" lon="4.80128">
        <ele>295</ele>
        <time>2020-09-22T10:51:03Z</time>
      </trkpt>
      <trkpt lat="46.53327" lon="4.80116">
        <ele>295</ele>
        <time>2020-09-22T10:51:05Z</time>
      </trkpt>
      <trkpt lat="46.53345" lon="4.80096">
        <ele>295</ele>
        <time>2020-09-22T10:51:11Z</time>
      </trkpt>
      <trkpt lat="46.53386" lon="4.80065">
        <ele>297</ele>
        <time>2020-09-22T10:51:22Z</time>
      </trkpt>
      <trkpt lat="46.53435" lon="4.80036">
        <ele>301</ele>
        <time>2020-09-22T10:51:34Z</time>
      </trkpt>
      <trkpt lat="46.53449" lon="4.8003">
        <ele>302</ele>
        <time>2020-09-22T10:51:37Z</time>
      </trkpt>
      <trkpt lat="46.53465" lon="4.80026">
        <ele>303</ele>
        <time>2020-09-22T10:51:41Z</time>
      </trkpt>
      <trkpt lat="46.53489" lon="4.80025">
        <ele>304</ele>
        <time>2020-09-22T10:51:47Z</time>
      </trkpt>
      <trkpt lat="46.53551" lon="4.80037">
        <ele>308</ele>
        <time>2020-09-22T10:52:01Z</time>
      </trkpt>
      <trkpt lat="46.53561" lon="4.80036">
        <ele>309</ele>
        <time>2020-09-22T10:52:04Z</time>
      </trkpt>
      <trkpt lat="46.53602" lon="4.80023">
        <ele>312</ele>
        <time>2020-09-22T10:52:13Z</time>
      </trkpt>
      <trkpt lat="46.53619" lon="4.80011">
        <ele>314</ele>
        <time>2020-09-22T10:52:18Z</time>
      </trkpt>
      <trkpt lat="46.53623" lon="4.80005">
        <ele>314</ele>
        <time>2020-09-22T10:52:19Z</time>
      </trkpt>
      <trkpt lat="46.53676" lon="4.80028">
        <ele>318</ele>
        <time>2020-09-22T10:52:32Z</time>
      </trkpt>
      <trkpt lat="46.53823" lon="4.80083">
        <ele>327</ele>
        <time>2020-09-22T10:53:08Z</time>
      </trkpt>
      <trkpt lat="46.53943" lon="4.80131">
        <ele>334</ele>
        <time>2020-09-22T10:53:37Z</time>
      </trkpt>
      <trkpt lat="46.54019" lon="4.80225">
        <ele>339</ele>
        <time>2020-09-22T10:54:00Z</time>
      </trkpt>
      <trkpt lat="46.54032" lon="4.80247">
        <ele>340</ele>
        <time>2020-09-22T10:54:05Z</time>
      </trkpt>
      <trkpt lat="46.5405" lon="4.80237">
        <ele>341</ele>
        <time>2020-09-22T10:54:09Z</time>
      </trkpt>
      <trkpt lat="46.54059" lon="4.80229">
        <ele>343</ele>
        <time>2020-09-22T10:54:12Z</time>
      </trkpt>
      <trkpt lat="46.54065" lon="4.80222">
        <ele>344</ele>
        <time>2020-09-22T10:54:13Z</time>
      </trkpt>
      <trkpt lat="46.5407" lon="4.80209">
        <ele>345</ele>
        <time>2020-09-22T10:54:16Z</time>
      </trkpt>
      <trkpt lat="46.5407" lon="4.80191">
        <ele>346</ele>
        <time>2020-09-22T10:54:19Z</time>
      </trkpt>
      <trkpt lat="46.5406" lon="4.80155">
        <ele>346</ele>
        <time>2020-09-22T10:54:25Z</time>
      </trkpt>
      <trkpt lat="46.54058" lon="4.80081">
        <ele>349</ele>
        <time>2020-09-22T10:54:37Z</time>
      </trkpt>
      <trkpt lat="46.5407" lon="4.80088">
        <ele>350</ele>
        <time>2020-09-22T10:54:40Z</time>
      </trkpt>
      <trkpt lat="46.54085" lon="4.80093">
        <ele>352</ele>
        <time>2020-09-22T10:54:43Z</time>
      </trkpt>
      <trkpt lat="46.54101" lon="4.80091">
        <ele>353</ele>
        <time>2020-09-22T10:54:47Z</time>
      </trkpt>
      <trkpt lat="46.54109" lon="4.80087">
        <ele>353</ele>
        <time>2020-09-22T10:54:49Z</time>
      </trkpt>
      <trkpt lat="46.5414" lon="4.80054">
        <ele>354</ele>
        <time>2020-09-22T10:54:58Z</time>
      </trkpt>
      <trkpt lat="46.54151" lon="4.80075">
        <ele>354</ele>
        <time>2020-09-22T10:55:02Z</time>
      </trkpt>
      <trkpt lat="46.54157" lon="4.80081">
        <ele>355</ele>
        <time>2020-09-22T10:55:04Z</time>
      </trkpt>
      <trkpt lat="46.54178" lon="4.80078">
        <ele>356</ele>
        <time>2020-09-22T10:55:09Z</time>
      </trkpt>
      <trkpt lat="46.54277" lon="4.80045">
        <ele>359</ele>
        <time>2020-09-22T10:55:33Z</time>
      </trkpt>
      <trkpt lat="46.54317" lon="4.80022">
        <ele>359</ele>
        <time>2020-09-22T10:55:43Z</time>
      </trkpt>
      <trkpt lat="46.54338" lon="4.80014">
        <ele>360</ele>
        <time>2020-09-22T10:55:48Z</time>
      </trkpt>
      <trkpt lat="46.5441" lon="4.79995">
        <ele>363</ele>
        <time>2020-09-22T10:56:05Z</time>
      </trkpt>
      <trkpt lat="46.54419" lon="4.7999">
        <ele>363</ele>
        <time>2020-09-22T10:56:07Z</time>
      </trkpt>
      <trkpt lat="46.54436" lon="4.79972">
        <ele>361</ele>
        <time>2020-09-22T10:56:12Z</time>
      </trkpt>
      <trkpt lat="46.54436" lon="4.79957">
        <ele>360</ele>
        <time>2020-09-22T10:56:14Z</time>
      </trkpt>
      <trkpt lat="46.5444" lon="4.79949">
        <ele>359</ele>
        <time>2020-09-22T10:56:16Z</time>
      </trkpt>
      <trkpt lat="46.54465" lon="4.79918">
        <ele>359</ele>
        <time>2020-09-22T10:56:24Z</time>
      </trkpt>
      <trkpt lat="46.54467" lon="4.79911">
        <ele>359</ele>
        <time>2020-09-22T10:56:25Z</time>
      </trkpt>
      <trkpt lat="46.54461" lon="4.79897">
        <ele>356</ele>
        <time>2020-09-22T10:56:28Z</time>
      </trkpt>
      <trkpt lat="46.54476" lon="4.79895">
        <ele>357</ele>
        <time>2020-09-22T10:56:31Z</time>
      </trkpt>
    </trkseg>
  </trk>
  <trk>
    <name><![CDATA[4_Le bois des plottes BLEU]]></name>
    <extensions>
      <line xmlns="http://www.topografix.com/GPX/gpx_style/0/2">
        <color>00FFFF</color>
        <width>4</width>
      </line>
    </extensions>
    <trkseg>
      <trkpt lat="46.50229" lon="4.88576">
        <ele>222</ele>
        <time>2020-09-22T10:16:07Z</time>
      </trkpt>
      <trkpt lat="46.50247" lon="4.88583">
        <ele>222</ele>
        <time>2020-09-22T10:16:11Z</time>
      </trkpt>
      <trkpt lat="46.50274" lon="4.88599">
        <ele>222</ele>
        <time>2020-09-22T10:16:18Z</time>
      </trkpt>
      <trkpt lat="46.50298" lon="4.88623">
        <ele>222</ele>
        <time>2020-09-22T10:16:25Z</time>
      </trkpt>
      <trkpt lat="46.50309" lon="4.88626">
        <ele>223</ele>
        <time>2020-09-22T10:16:28Z</time>
      </trkpt>
      <trkpt lat="46.50325" lon="4.88622">
        <ele>223</ele>
        <time>2020-09-22T10:16:31Z</time>
      </trkpt>
      <trkpt lat="46.50337" lon="4.88611">
        <ele>224</ele>
        <time>2020-09-22T10:16:35Z</time>
      </trkpt>
      <trkpt lat="46.50372" lon="4.88563">
        <ele>226</ele>
        <time>2020-09-22T10:16:46Z</time>
      </trkpt>
      <trkpt lat="46.50401" lon="4.88528">
        <ele>227</ele>
        <time>2020-09-22T10:16:55Z</time>
      </trkpt>
      <trkpt lat="46.5041" lon="4.88531">
        <ele>227</ele>
        <time>2020-09-22T10:16:57Z</time>
      </trkpt>
      <trkpt lat="46.50411" lon="4.88556">
        <ele>227</ele>
        <time>2020-09-22T10:17:01Z</time>
      </trkpt>
      <trkpt lat="46.50427" lon="4.88589">
        <ele>227</ele>
        <time>2020-09-22T10:17:07Z</time>
      </trkpt>
      <trkpt lat="46.50452" lon="4.88615">
        <ele>228</ele>
        <time>2020-09-22T10:17:15Z</time>
      </trkpt>
      <trkpt lat="46.50477" lon="4.88631">
        <ele>229</ele>
        <time>2020-09-22T10:17:21Z</time>
      </trkpt>
      <trkpt lat="46.50508" lon="4.88656">
        <ele>231</ele>
        <time>2020-09-22T10:17:29Z</time>
      </trkpt>
      <trkpt lat="46.50537" lon="4.8869">
        <ele>232</ele>
        <time>2020-09-22T10:17:38Z</time>
      </trkpt>
      <trkpt lat="46.50551" lon="4.88702">
        <ele>233</ele>
        <time>2020-09-22T10:17:42Z</time>
      </trkpt>
      <trkpt lat="46.50609" lon="4.88731">
        <ele>235</ele>
        <time>2020-09-22T10:17:56Z</time>
      </trkpt>
      <trkpt lat="46.50622" lon="4.88741">
        <ele>235</ele>
        <time>2020-09-22T10:17:59Z</time>
      </trkpt>
      <trkpt lat="46.50698" lon="4.88818">
        <ele>239</ele>
        <time>2020-09-22T10:18:21Z</time>
      </trkpt>
      <trkpt lat="46.50714" lon="4.88837">
        <ele>240</ele>
        <time>2020-09-22T10:18:26Z</time>
      </trkpt>
      <trkpt lat="46.50728" lon="4.88825">
        <ele>241</ele>
        <time>2020-09-22T10:18:30Z</time>
      </trkpt>
      <trkpt lat="46.50732" lon="4.88817">
        <ele>242</ele>
        <time>2020-09-22T10:18:31Z</time>
      </trkpt>
      <trkpt lat="46.50752" lon="4.88821">
        <ele>243</ele>
        <time>2020-09-22T10:18:36Z</time>
      </trkpt>
      <trkpt lat="46.50771" lon="4.88831">
        <ele>245</ele>
        <time>2020-09-22T10:18:41Z</time>
      </trkpt>
      <trkpt lat="46.50795" lon="4.88853">
        <ele>247</ele>
        <time>2020-09-22T10:18:47Z</time>
      </trkpt>
      <trkpt lat="46.50874" lon="4.88945">
        <ele>249</ele>
        <time>2020-09-22T10:19:11Z</time>
      </trkpt>
      <trkpt lat="46.50906" lon="4.88989">
        <ele>249</ele>
        <time>2020-09-22T10:19:21Z</time>
      </trkpt>
      <trkpt lat="46.50947" lon="4.89064">
        <ele>250</ele>
        <time>2020-09-22T10:19:37Z</time>
      </trkpt>
      <trkpt lat="46.50963" lon="4.89089">
        <ele>251</ele>
        <time>2020-09-22T10:19:42Z</time>
      </trkpt>
      <trkpt lat="46.51027" lon="4.89169">
        <ele>256</ele>
        <time>2020-09-22T10:20:02Z</time>
      </trkpt>
      <trkpt lat="46.51122" lon="4.8928">
        <ele>259</ele>
        <time>2020-09-22T10:20:30Z</time>
      </trkpt>
      <trkpt lat="46.5118" lon="4.89326">
        <ele>260</ele>
        <time>2020-09-22T10:20:46Z</time>
      </trkpt>
      <trkpt lat="46.51235" lon="4.89363">
        <ele>261</ele>
        <time>2020-09-22T10:21:00Z</time>
      </trkpt>
      <trkpt lat="46.51322" lon="4.894">
        <ele>259</ele>
        <time>2020-09-22T10:21:21Z</time>
      </trkpt>
      <trkpt lat="46.51347" lon="4.89415">
        <ele>258</ele>
        <time>2020-09-22T10:21:27Z</time>
      </trkpt>
      <trkpt lat="46.51363" lon="4.8943">
        <ele>257</ele>
        <time>2020-09-22T10:21:32Z</time>
      </trkpt>
      <trkpt lat="46.51384" lon="4.89464">
        <ele>254</ele>
        <time>2020-09-22T10:21:39Z</time>
      </trkpt>
      <trkpt lat="46.51422" lon="4.895">
        <ele>252</ele>
        <time>2020-09-22T10:21:50Z</time>
      </trkpt>
      <trkpt lat="46.51449" lon="4.89507">
        <ele>253</ele>
        <time>2020-09-22T10:21:56Z</time>
      </trkpt>
      <trkpt lat="46.51506" lon="4.89539">
        <ele>252</ele>
        <time>2020-09-22T10:22:11Z</time>
      </trkpt>
      <trkpt lat="46.51514" lon="4.89541">
        <ele>253</ele>
        <time>2020-09-22T10:22:12Z</time>
      </trkpt>
      <trkpt lat="46.51529" lon="4.89574">
        <ele>252</ele>
        <time>2020-09-22T10:22:19Z</time>
      </trkpt>
      <trkpt lat="46.51542" lon="4.89589">
        <ele>253</ele>
        <time>2020-09-22T10:22:23Z</time>
      </trkpt>
      <trkpt lat="46.51566" lon="4.89658">
        <ele>251</ele>
        <time>2020-09-22T10:22:35Z</time>
      </trkpt>
      <trkpt lat="46.51581" lon="4.89686">
        <ele>250</ele>
        <time>2020-09-22T10:22:41Z</time>
      </trkpt>
      <trkpt lat="46.51611" lon="4.89733">
        <ele>249</ele>
        <time>2020-09-22T10:22:51Z</time>
      </trkpt>
      <trkpt lat="46.517" lon="4.89857">
        <ele>251</ele>
        <time>2020-09-22T10:23:20Z</time>
      </trkpt>
      <trkpt lat="46.51721" lon="4.89894">
        <ele>252</ele>
        <time>2020-09-22T10:23:28Z</time>
      </trkpt>
      <trkpt lat="46.51724" lon="4.899">
        <ele>252</ele>
        <time>2020-09-22T10:23:29Z</time>
      </trkpt>
      <trkpt lat="46.51724" lon="4.89907">
        <ele>252</ele>
        <time>2020-09-22T10:23:30Z</time>
      </trkpt>
      <trkpt lat="46.5174" lon="4.89936">
        <ele>252</ele>
        <time>2020-09-22T10:23:36Z</time>
      </trkpt>
      <trkpt lat="46.51837" lon="4.89996">
        <ele>262</ele>
        <time>2020-09-22T10:24:00Z</time>
      </trkpt>
      <trkpt lat="46.51848" lon="4.90001">
        <ele>263</ele>
        <time>2020-09-22T10:24:03Z</time>
      </trkpt>
      <trkpt lat="46.51868" lon="4.90001">
        <ele>266</ele>
        <time>2020-09-22T10:24:08Z</time>
      </trkpt>
      <trkpt lat="46.51885" lon="4.90005">
        <ele>268</ele>
        <time>2020-09-22T10:24:12Z</time>
      </trkpt>
      <trkpt lat="46.51988" lon="4.90078">
        <ele>274</ele>
        <time>2020-09-22T10:24:39Z</time>
      </trkpt>
      <trkpt lat="46.5208" lon="4.90128">
        <ele>280</ele>
        <time>2020-09-22T10:25:02Z</time>
      </trkpt>
      <trkpt lat="46.52182" lon="4.90208">
        <ele>280</ele>
        <time>2020-09-22T10:25:29Z</time>
      </trkpt>
      <trkpt lat="46.52208" lon="4.90224">
        <ele>281</ele>
        <time>2020-09-22T10:25:35Z</time>
      </trkpt>
      <trkpt lat="46.52317" lon="4.90253">
        <ele>289</ele>
        <time>2020-09-22T10:26:01Z</time>
      </trkpt>
      <trkpt lat="46.52373" lon="4.9029">
        <ele>292</ele>
        <time>2020-09-22T10:26:15Z</time>
      </trkpt>
      <trkpt lat="46.52387" lon="4.90293">
        <ele>294</ele>
        <time>2020-09-22T10:26:19Z</time>
      </trkpt>
      <trkpt lat="46.52455" lon="4.90297">
        <ele>298</ele>
        <time>2020-09-22T10:26:35Z</time>
      </trkpt>
      <trkpt lat="46.52504" lon="4.90353">
        <ele>295</ele>
        <time>2020-09-22T10:26:49Z</time>
      </trkpt>
      <trkpt lat="46.52624" lon="4.90453">
        <ele>289</ele>
        <time>2020-09-22T10:27:22Z</time>
      </trkpt>
      <trkpt lat="46.52679" lon="4.90475">
        <ele>289</ele>
        <time>2020-09-22T10:27:35Z</time>
      </trkpt>
      <trkpt lat="46.52696" lon="4.90495">
        <ele>288</ele>
        <time>2020-09-22T10:27:40Z</time>
      </trkpt>
      <trkpt lat="46.52703" lon="4.90528">
        <ele>286</ele>
        <time>2020-09-22T10:27:46Z</time>
      </trkpt>
      <trkpt lat="46.52702" lon="4.90556">
        <ele>284</ele>
        <time>2020-09-22T10:27:50Z</time>
      </trkpt>
      <trkpt lat="46.52644" lon="4.90651">
        <ele>271</ele>
        <time>2020-09-22T10:28:10Z</time>
      </trkpt>
      <trkpt lat="46.52608" lon="4.90737">
        <ele>256</ele>
        <time>2020-09-22T10:28:27Z</time>
      </trkpt>
      <trkpt lat="46.52608" lon="4.90743">
        <ele>255</ele>
        <time>2020-09-22T10:28:28Z</time>
      </trkpt>
      <trkpt lat="46.52611" lon="4.90751">
        <ele>255</ele>
        <time>2020-09-22T10:28:29Z</time>
      </trkpt>
      <trkpt lat="46.52628" lon="4.9076">
        <ele>256</ele>
        <time>2020-09-22T10:28:33Z</time>
      </trkpt>
      <trkpt lat="46.52641" lon="4.90771">
        <ele>257</ele>
        <time>2020-09-22T10:28:37Z</time>
      </trkpt>
      <trkpt lat="46.52687" lon="4.90823">
        <ele>256</ele>
        <time>2020-09-22T10:28:50Z</time>
      </trkpt>
      <trkpt lat="46.52709" lon="4.90863">
        <ele>254</ele>
        <time>2020-09-22T10:28:59Z</time>
      </trkpt>
      <trkpt lat="46.52703" lon="4.90951">
        <ele>244</ele>
        <time>2020-09-22T10:29:13Z</time>
      </trkpt>
      <trkpt lat="46.52713" lon="4.90998">
        <ele>241</ele>
        <time>2020-09-22T10:29:21Z</time>
      </trkpt>
      <trkpt lat="46.52683" lon="4.91104">
        <ele>237</ele>
        <time>2020-09-22T10:29:39Z</time>
      </trkpt>
      <trkpt lat="46.52775" lon="4.91145">
        <ele>236</ele>
        <time>2020-09-22T10:30:02Z</time>
      </trkpt>
      <trkpt lat="46.52863" lon="4.91173">
        <ele>236</ele>
        <time>2020-09-22T10:30:23Z</time>
      </trkpt>
      <trkpt lat="46.52953" lon="4.91265">
        <ele>236</ele>
        <time>2020-09-22T10:30:48Z</time>
      </trkpt>
      <trkpt lat="46.52986" lon="4.91293">
        <ele>235</ele>
        <time>2020-09-22T10:30:57Z</time>
      </trkpt>
      <trkpt lat="46.53052" lon="4.91335">
        <ele>230</ele>
        <time>2020-09-22T10:31:14Z</time>
      </trkpt>
      <trkpt lat="46.53162" lon="4.91365">
        <ele>225</ele>
        <time>2020-09-22T10:31:40Z</time>
      </trkpt>
      <trkpt lat="46.5321" lon="4.91388">
        <ele>224</ele>
        <time>2020-09-22T10:31:52Z</time>
      </trkpt>
      <trkpt lat="46.53232" lon="4.91413">
        <ele>223</ele>
        <time>2020-09-22T10:31:59Z</time>
      </trkpt>
      <trkpt lat="46.53268" lon="4.91492">
        <ele>222</ele>
        <time>2020-09-22T10:32:14Z</time>
      </trkpt>
      <trkpt lat="46.5329" lon="4.91512">
        <ele>222</ele>
        <time>2020-09-22T10:32:20Z</time>
      </trkpt>
      <trkpt lat="46.5332" lon="4.91533">
        <ele>221</ele>
        <time>2020-09-22T10:32:28Z</time>
      </trkpt>
      <trkpt lat="46.53348" lon="4.91549">
        <ele>221</ele>
        <time>2020-09-22T10:32:35Z</time>
      </trkpt>
      <trkpt lat="46.53358" lon="4.91562">
        <ele>221</ele>
        <time>2020-09-22T10:32:38Z</time>
      </trkpt>
      <trkpt lat="46.5337" lon="4.91591">
        <ele>221</ele>
        <time>2020-09-22T10:32:43Z</time>
      </trkpt>
      <trkpt lat="46.53385" lon="4.91599">
        <ele>221</ele>
        <time>2020-09-22T10:32:47Z</time>
      </trkpt>
      <trkpt lat="46.53415" lon="4.91606">
        <ele>221</ele>
        <time>2020-09-22T10:32:54Z</time>
      </trkpt>
      <trkpt lat="46.53527" lon="4.91606">
        <ele>222</ele>
        <time>2020-09-22T10:33:20Z</time>
      </trkpt>
      <trkpt lat="46.53544" lon="4.91609">
        <ele>222</ele>
        <time>2020-09-22T10:33:24Z</time>
      </trkpt>
      <trkpt lat="46.53608" lon="4.91629">
        <ele>222</ele>
        <time>2020-09-22T10:33:39Z</time>
      </trkpt>
      <trkpt lat="46.53651" lon="4.91637">
        <ele>223</ele>
        <time>2020-09-22T10:33:50Z</time>
      </trkpt>
      <trkpt lat="46.53676" lon="4.91639">
        <ele>223</ele>
        <time>2020-09-22T10:33:55Z</time>
      </trkpt>
      <trkpt lat="46.53759" lon="4.91631">
        <ele>222</ele>
        <time>2020-09-22T10:34:15Z</time>
      </trkpt>
      <trkpt lat="46.53805" lon="4.91641">
        <ele>221</ele>
        <time>2020-09-22T10:34:26Z</time>
      </trkpt>
      <trkpt lat="46.53827" lon="4.91641">
        <ele>221</ele>
        <time>2020-09-22T10:34:31Z</time>
      </trkpt>
      <trkpt lat="46.53859" lon="4.91638">
        <ele>221</ele>
        <time>2020-09-22T10:34:38Z</time>
      </trkpt>
      <trkpt lat="46.53932" lon="4.91626">
        <ele>222</ele>
        <time>2020-09-22T10:34:56Z</time>
      </trkpt>
      <trkpt lat="46.53959" lon="4.91623">
        <ele>222</ele>
        <time>2020-09-22T10:35:02Z</time>
      </trkpt>
      <trkpt lat="46.53972" lon="4.91624">
        <ele>223</ele>
        <time>2020-09-22T10:35:05Z</time>
      </trkpt>
      <trkpt lat="46.54021" lon="4.91636">
        <ele>223</ele>
        <time>2020-09-22T10:35:16Z</time>
      </trkpt>
      <trkpt lat="46.54109" lon="4.91669">
        <ele>224</ele>
        <time>2020-09-22T10:35:38Z</time>
      </trkpt>
      <trkpt lat="46.5417" lon="4.91682">
        <ele>223</ele>
        <time>2020-09-22T10:35:52Z</time>
      </trkpt>
      <trkpt lat="46.54212" lon="4.91674">
        <ele>223</ele>
        <time>2020-09-22T10:36:02Z</time>
      </trkpt>
      <trkpt lat="46.54277" lon="4.91671">
        <ele>223</ele>
        <time>2020-09-22T10:36:17Z</time>
      </trkpt>
      <trkpt lat="46.5431" lon="4.91662">
        <ele>222</ele>
        <time>2020-09-22T10:36:25Z</time>
      </trkpt>
      <trkpt lat="46.54264" lon="4.91591">
        <ele>226</ele>
        <time>2020-09-22T10:36:41Z</time>
      </trkpt>
      <trkpt lat="46.54252" lon="4.91584">
        <ele>226</ele>
        <time>2020-09-22T10:36:44Z</time>
      </trkpt>
      <trkpt lat="46.54228" lon="4.91561">
        <ele>226</ele>
        <time>2020-09-22T10:36:50Z</time>
      </trkpt>
      <trkpt lat="46.54193" lon="4.91514">
        <ele>227</ele>
        <time>2020-09-22T10:37:02Z</time>
      </trkpt>
      <trkpt lat="46.54153" lon="4.91474">
        <ele>229</ele>
        <time>2020-09-22T10:37:13Z</time>
      </trkpt>
      <trkpt lat="46.54113" lon="4.9145">
        <ele>230</ele>
        <time>2020-09-22T10:37:23Z</time>
      </trkpt>
      <trkpt lat="46.54097" lon="4.91446">
        <ele>230</ele>
        <time>2020-09-22T10:37:27Z</time>
      </trkpt>
      <trkpt lat="46.54056" lon="4.91453">
        <ele>230</ele>
        <time>2020-09-22T10:37:36Z</time>
      </trkpt>
      <trkpt lat="46.54051" lon="4.91447">
        <ele>230</ele>
        <time>2020-09-22T10:37:38Z</time>
      </trkpt>
      <trkpt lat="46.54049" lon="4.91395">
        <ele>233</ele>
        <time>2020-09-22T10:37:46Z</time>
      </trkpt>
      <trkpt lat="46.54053" lon="4.91256">
        <ele>249</ele>
        <time>2020-09-22T10:38:09Z</time>
      </trkpt>
      <trkpt lat="46.54041" lon="4.91231">
        <ele>251</ele>
        <time>2020-09-22T10:38:14Z</time>
      </trkpt>
      <trkpt lat="46.53995" lon="4.91181">
        <ele>256</ele>
        <time>2020-09-22T10:38:27Z</time>
      </trkpt>
      <trkpt lat="46.53961" lon="4.91102">
        <ele>259</ele>
        <time>2020-09-22T10:38:42Z</time>
      </trkpt>
      <trkpt lat="46.53941" lon="4.91043">
        <ele>259</ele>
        <time>2020-09-22T10:38:53Z</time>
      </trkpt>
      <trkpt lat="46.53939" lon="4.90997">
        <ele>256</ele>
        <time>2020-09-22T10:39:00Z</time>
      </trkpt>
      <trkpt lat="46.53961" lon="4.90963">
        <ele>253</ele>
        <time>2020-09-22T10:39:07Z</time>
      </trkpt>
      <trkpt lat="46.54034" lon="4.90837">
        <ele>240</ele>
        <time>2020-09-22T10:39:34Z</time>
      </trkpt>
      <trkpt lat="46.54067" lon="4.90786">
        <ele>235</ele>
        <time>2020-09-22T10:39:45Z</time>
      </trkpt>
      <trkpt lat="46.54035" lon="4.90779">
        <ele>237</ele>
        <time>2020-09-22T10:39:53Z</time>
      </trkpt>
      <trkpt lat="46.53955" lon="4.90695">
        <ele>241</ele>
        <time>2020-09-22T10:40:16Z</time>
      </trkpt>
      <trkpt lat="46.53954" lon="4.9069">
        <ele>241</ele>
        <time>2020-09-22T10:40:17Z</time>
      </trkpt>
      <trkpt lat="46.53917" lon="4.90648">
        <ele>247</ele>
        <time>2020-09-22T10:40:28Z</time>
      </trkpt>
      <trkpt lat="46.53885" lon="4.90631">
        <ele>249</ele>
        <time>2020-09-22T10:40:35Z</time>
      </trkpt>
      <trkpt lat="46.53836" lon="4.90593">
        <ele>250</ele>
        <time>2020-09-22T10:40:48Z</time>
      </trkpt>
      <trkpt lat="46.53812" lon="4.9058">
        <ele>251</ele>
        <time>2020-09-22T10:40:54Z</time>
      </trkpt>
      <trkpt lat="46.53808" lon="4.90579">
        <ele>251</ele>
        <time>2020-09-22T10:40:55Z</time>
      </trkpt>
      <trkpt lat="46.53777" lon="4.90595">
        <ele>253</ele>
        <time>2020-09-22T10:41:03Z</time>
      </trkpt>
      <trkpt lat="46.53725" lon="4.90604">
        <ele>257</ele>
        <time>2020-09-22T10:41:15Z</time>
      </trkpt>
      <trkpt lat="46.53664" lon="4.90579">
        <ele>264</ele>
        <time>2020-09-22T10:41:30Z</time>
      </trkpt>
      <trkpt lat="46.53621" lon="4.90554">
        <ele>270</ele>
        <time>2020-09-22T10:41:41Z</time>
      </trkpt>
      <trkpt lat="46.53585" lon="4.90537">
        <ele>274</ele>
        <time>2020-09-22T10:41:50Z</time>
      </trkpt>
      <trkpt lat="46.53557" lon="4.90532">
        <ele>276</ele>
        <time>2020-09-22T10:41:56Z</time>
      </trkpt>
      <trkpt lat="46.53547" lon="4.90527">
        <ele>277</ele>
        <time>2020-09-22T10:41:59Z</time>
      </trkpt>
      <trkpt lat="46.53521" lon="4.90506">
        <ele>278</ele>
        <time>2020-09-22T10:42:06Z</time>
      </trkpt>
      <trkpt lat="46.53304" lon="4.9028">
        <ele>265</ele>
        <time>2020-09-22T10:43:08Z</time>
      </trkpt>
      <trkpt lat="46.53192" lon="4.9017">
        <ele>255</ele>
        <time>2020-09-22T10:43:40Z</time>
      </trkpt>
      <trkpt lat="46.53143" lon="4.90114">
        <ele>257</ele>
        <time>2020-09-22T10:43:54Z</time>
      </trkpt>
      <trkpt lat="46.53065" lon="4.90039">
        <ele>274</ele>
        <time>2020-09-22T10:44:16Z</time>
      </trkpt>
      <trkpt lat="46.53025" lon="4.89994">
        <ele>279</ele>
        <time>2020-09-22T10:44:28Z</time>
      </trkpt>
      <trkpt lat="46.52841" lon="4.89815">
        <ele>294</ele>
        <time>2020-09-22T10:45:20Z</time>
      </trkpt>
      <trkpt lat="46.52774" lon="4.89745">
        <ele>300</ele>
        <time>2020-09-22T10:45:39Z</time>
      </trkpt>
      <trkpt lat="46.52713" lon="4.89668">
        <ele>307</ele>
        <time>2020-09-22T10:45:58Z</time>
      </trkpt>
      <trkpt lat="46.52656" lon="4.89613">
        <ele>311</ele>
        <time>2020-09-22T10:46:14Z</time>
      </trkpt>
      <trkpt lat="46.52531" lon="4.89482">
        <ele>310</ele>
        <time>2020-09-22T10:46:50Z</time>
      </trkpt>
      <trkpt lat="46.52516" lon="4.89505">
        <ele>314</ele>
        <time>2020-09-22T10:46:55Z</time>
      </trkpt>
      <trkpt lat="46.52498" lon="4.89541">
        <ele>317</ele>
        <time>2020-09-22T10:47:02Z</time>
      </trkpt>
      <trkpt lat="46.52474" lon="4.89611">
        <ele>321</ele>
        <time>2020-09-22T10:47:14Z</time>
      </trkpt>
      <trkpt lat="46.52457" lon="4.89701">
        <ele>323</ele>
        <time>2020-09-22T10:47:29Z</time>
      </trkpt>
      <trkpt lat="46.52447" lon="4.89728">
        <ele>324</ele>
        <time>2020-09-22T10:47:34Z</time>
      </trkpt>
      <trkpt lat="46.52441" lon="4.89738">
        <ele>325</ele>
        <time>2020-09-22T10:47:37Z</time>
      </trkpt>
      <trkpt lat="46.52437" lon="4.8974">
        <ele>325</ele>
        <time>2020-09-22T10:47:38Z</time>
      </trkpt>
      <trkpt lat="46.52431" lon="4.89739">
        <ele>325</ele>
        <time>2020-09-22T10:47:39Z</time>
      </trkpt>
      <trkpt lat="46.52408" lon="4.89722">
        <ele>325</ele>
        <time>2020-09-22T10:47:45Z</time>
      </trkpt>
      <trkpt lat="46.52369" lon="4.89687">
        <ele>325</ele>
        <time>2020-09-22T10:47:56Z</time>
      </trkpt>
      <trkpt lat="46.52351" lon="4.89681">
        <ele>326</ele>
        <time>2020-09-22T10:48:00Z</time>
      </trkpt>
      <trkpt lat="46.52254" lon="4.89618">
        <ele>323</ele>
        <time>2020-09-22T10:48:25Z</time>
      </trkpt>
      <trkpt lat="46.52215" lon="4.89597">
        <ele>321</ele>
        <time>2020-09-22T10:48:34Z</time>
      </trkpt>
      <trkpt lat="46.52168" lon="4.89576">
        <ele>318</ele>
        <time>2020-09-22T10:48:46Z</time>
      </trkpt>
      <trkpt lat="46.52099" lon="4.89559">
        <ele>311</ele>
        <time>2020-09-22T10:49:02Z</time>
      </trkpt>
      <trkpt lat="46.5202" lon="4.89524">
        <ele>302</ele>
        <time>2020-09-22T10:49:22Z</time>
      </trkpt>
      <trkpt lat="46.5198" lon="4.8949">
        <ele>297</ele>
        <time>2020-09-22T10:49:32Z</time>
      </trkpt>
      <trkpt lat="46.51964" lon="4.89452">
        <ele>297</ele>
        <time>2020-09-22T10:49:40Z</time>
      </trkpt>
      <trkpt lat="46.51957" lon="4.89444">
        <ele>297</ele>
        <time>2020-09-22T10:49:42Z</time>
      </trkpt>
      <trkpt lat="46.51903" lon="4.8942">
        <ele>294</ele>
        <time>2020-09-22T10:49:55Z</time>
      </trkpt>
      <trkpt lat="46.51862" lon="4.89398">
        <ele>290</ele>
        <time>2020-09-22T10:50:05Z</time>
      </trkpt>
      <trkpt lat="46.51856" lon="4.89394">
        <ele>289</ele>
        <time>2020-09-22T10:50:07Z</time>
      </trkpt>
      <trkpt lat="46.51834" lon="4.89369">
        <ele>289</ele>
        <time>2020-09-22T10:50:13Z</time>
      </trkpt>
      <trkpt lat="46.51815" lon="4.89354">
        <ele>288</ele>
        <time>2020-09-22T10:50:18Z</time>
      </trkpt>
      <trkpt lat="46.51795" lon="4.89343">
        <ele>287</ele>
        <time>2020-09-22T10:50:23Z</time>
      </trkpt>
      <trkpt lat="46.51733" lon="4.89328">
        <ele>283</ele>
        <time>2020-09-22T10:50:38Z</time>
      </trkpt>
      <trkpt lat="46.51753" lon="4.89271">
        <ele>289</ele>
        <time>2020-09-22T10:50:48Z</time>
      </trkpt>
      <trkpt lat="46.51797" lon="4.89181">
        <ele>299</ele>
        <time>2020-09-22T10:51:06Z</time>
      </trkpt>
      <trkpt lat="46.51822" lon="4.89133">
        <ele>305</ele>
        <time>2020-09-22T10:51:16Z</time>
      </trkpt>
      <trkpt lat="46.51836" lon="4.89111">
        <ele>308</ele>
        <time>2020-09-22T10:51:20Z</time>
      </trkpt>
      <trkpt lat="46.5186" lon="4.89037">
        <ele>310</ele>
        <time>2020-09-22T10:51:34Z</time>
      </trkpt>
      <trkpt lat="46.51882" lon="4.88982">
        <ele>311</ele>
        <time>2020-09-22T10:51:44Z</time>
      </trkpt>
      <trkpt lat="46.51883" lon="4.88972">
        <ele>311</ele>
        <time>2020-09-22T10:51:45Z</time>
      </trkpt>
      <trkpt lat="46.51921" lon="4.88831">
        <ele>310</ele>
        <time>2020-09-22T10:52:10Z</time>
      </trkpt>
      <trkpt lat="46.51932" lon="4.88763">
        <ele>304</ele>
        <time>2020-09-22T10:52:21Z</time>
      </trkpt>
      <trkpt lat="46.51932" lon="4.88705">
        <ele>299</ele>
        <time>2020-09-22T10:52:30Z</time>
      </trkpt>
      <trkpt lat="46.51928" lon="4.88671">
        <ele>296</ele>
        <time>2020-09-22T10:52:36Z</time>
      </trkpt>
      <trkpt lat="46.51931" lon="4.88664">
        <ele>295</ele>
        <time>2020-09-22T10:52:37Z</time>
      </trkpt>
      <trkpt lat="46.51943" lon="4.8865">
        <ele>293</ele>
        <time>2020-09-22T10:52:41Z</time>
      </trkpt>
      <trkpt lat="46.51977" lon="4.88611">
        <ele>288</ele>
        <time>2020-09-22T10:52:51Z</time>
      </trkpt>
      <trkpt lat="46.5199" lon="4.88603">
        <ele>286</ele>
        <time>2020-09-22T10:52:54Z</time>
      </trkpt>
      <trkpt lat="46.51999" lon="4.88589">
        <ele>285</ele>
        <time>2020-09-22T10:52:57Z</time>
      </trkpt>
      <trkpt lat="46.52016" lon="4.8857">
        <ele>282</ele>
        <time>2020-09-22T10:53:02Z</time>
      </trkpt>
      <trkpt lat="46.52" lon="4.8855">
        <ele>281</ele>
        <time>2020-09-22T10:53:07Z</time>
      </trkpt>
      <trkpt lat="46.51954" lon="4.8852">
        <ele>280</ele>
        <time>2020-09-22T10:53:19Z</time>
      </trkpt>
      <trkpt lat="46.51912" lon="4.88487">
        <ele>279</ele>
        <time>2020-09-22T10:53:30Z</time>
      </trkpt>
      <trkpt lat="46.51777" lon="4.88415">
        <ele>280</ele>
        <time>2020-09-22T10:54:04Z</time>
      </trkpt>
      <trkpt lat="46.51688" lon="4.88347">
        <ele>287</ele>
        <time>2020-09-22T10:54:27Z</time>
      </trkpt>
      <trkpt lat="46.51669" lon="4.88338">
        <ele>289</ele>
        <time>2020-09-22T10:54:32Z</time>
      </trkpt>
      <trkpt lat="46.51643" lon="4.88331">
        <ele>291</ele>
        <time>2020-09-22T10:54:38Z</time>
      </trkpt>
      <trkpt lat="46.51591" lon="4.88322">
        <ele>295</ele>
        <time>2020-09-22T10:54:50Z</time>
      </trkpt>
      <trkpt lat="46.5154" lon="4.88327">
        <ele>296</ele>
        <time>2020-09-22T10:55:02Z</time>
      </trkpt>
      <trkpt lat="46.51501" lon="4.88337">
        <ele>297</ele>
        <time>2020-09-22T10:55:11Z</time>
      </trkpt>
      <trkpt lat="46.51493" lon="4.88336">
        <ele>297</ele>
        <time>2020-09-22T10:55:13Z</time>
      </trkpt>
      <trkpt lat="46.5147" lon="4.88326">
        <ele>297</ele>
        <time>2020-09-22T10:55:19Z</time>
      </trkpt>
      <trkpt lat="46.51413" lon="4.88309">
        <ele>297</ele>
        <time>2020-09-22T10:55:32Z</time>
      </trkpt>
      <trkpt lat="46.51349" lon="4.883">
        <ele>299</ele>
        <time>2020-09-22T10:55:47Z</time>
      </trkpt>
      <trkpt lat="46.51328" lon="4.88292">
        <ele>299</ele>
        <time>2020-09-22T10:55:53Z</time>
      </trkpt>
      <trkpt lat="46.5132" lon="4.88282">
        <ele>298</ele>
        <time>2020-09-22T10:55:55Z</time>
      </trkpt>
      <trkpt lat="46.51315" lon="4.8827">
        <ele>297</ele>
        <time>2020-09-22T10:55:57Z</time>
      </trkpt>
      <trkpt lat="46.51299" lon="4.88213">
        <ele>295</ele>
        <time>2020-09-22T10:56:07Z</time>
      </trkpt>
      <trkpt lat="46.51265" lon="4.88154">
        <ele>294</ele>
        <time>2020-09-22T10:56:20Z</time>
      </trkpt>
      <trkpt lat="46.51243" lon="4.88126">
        <ele>293</ele>
        <time>2020-09-22T10:56:26Z</time>
      </trkpt>
      <trkpt lat="46.51222" lon="4.88104">
        <ele>292</ele>
        <time>2020-09-22T10:56:32Z</time>
      </trkpt>
      <trkpt lat="46.51208" lon="4.88096">
        <ele>292</ele>
        <time>2020-09-22T10:56:36Z</time>
      </trkpt>
      <trkpt lat="46.51191" lon="4.88094">
        <ele>293</ele>
        <time>2020-09-22T10:56:40Z</time>
      </trkpt>
      <trkpt lat="46.51176" lon="4.88089">
        <ele>294</ele>
        <time>2020-09-22T10:56:43Z</time>
      </trkpt>
      <trkpt lat="46.51187" lon="4.88086">
        <ele>293</ele>
        <time>2020-09-22T10:56:46Z</time>
      </trkpt>
      <trkpt lat="46.51192" lon="4.88081">
        <ele>293</ele>
        <time>2020-09-22T10:56:48Z</time>
      </trkpt>
      <trkpt lat="46.51206" lon="4.88074">
        <ele>292</ele>
        <time>2020-09-22T10:56:51Z</time>
      </trkpt>
      <trkpt lat="46.51242" lon="4.88062">
        <ele>289</ele>
        <time>2020-09-22T10:57:00Z</time>
      </trkpt>
      <trkpt lat="46.51309" lon="4.88034">
        <ele>282</ele>
        <time>2020-09-22T10:57:16Z</time>
      </trkpt>
      <trkpt lat="46.5136" lon="4.88009">
        <ele>278</ele>
        <time>2020-09-22T10:57:28Z</time>
      </trkpt>
      <trkpt lat="46.51441" lon="4.87953">
        <ele>274</ele>
        <time>2020-09-22T10:57:49Z</time>
      </trkpt>
      <trkpt lat="46.5145" lon="4.87945">
        <ele>273</ele>
        <time>2020-09-22T10:57:52Z</time>
      </trkpt>
      <trkpt lat="46.51461" lon="4.87928">
        <ele>272</ele>
        <time>2020-09-22T10:57:56Z</time>
      </trkpt>
      <trkpt lat="46.51475" lon="4.87857">
        <ele>271</ele>
        <time>2020-09-22T10:58:07Z</time>
      </trkpt>
      <trkpt lat="46.51485" lon="4.8782">
        <ele>272</ele>
        <time>2020-09-22T10:58:14Z</time>
      </trkpt>
      <trkpt lat="46.51493" lon="4.878">
        <ele>274</ele>
        <time>2020-09-22T10:58:18Z</time>
      </trkpt>
      <trkpt lat="46.51519" lon="4.87752">
        <ele>276</ele>
        <time>2020-09-22T10:58:27Z</time>
      </trkpt>
      <trkpt lat="46.5154" lon="4.87689">
        <ele>280</ele>
        <time>2020-09-22T10:58:39Z</time>
      </trkpt>
      <trkpt lat="46.51551" lon="4.87632">
        <ele>284</ele>
        <time>2020-09-22T10:58:48Z</time>
      </trkpt>
      <trkpt lat="46.51559" lon="4.87547">
        <ele>289</ele>
        <time>2020-09-22T10:59:02Z</time>
      </trkpt>
      <trkpt lat="46.51567" lon="4.87495">
        <ele>290</ele>
        <time>2020-09-22T10:59:11Z</time>
      </trkpt>
      <trkpt lat="46.5158" lon="4.8746">
        <ele>290</ele>
        <time>2020-09-22T10:59:17Z</time>
      </trkpt>
      <trkpt lat="46.516" lon="4.87423">
        <ele>291</ele>
        <time>2020-09-22T10:59:24Z</time>
      </trkpt>
      <trkpt lat="46.51602" lon="4.87413">
        <ele>292</ele>
        <time>2020-09-22T10:59:26Z</time>
      </trkpt>
      <trkpt lat="46.5159" lon="4.873">
        <ele>292</ele>
        <time>2020-09-22T10:59:45Z</time>
      </trkpt>
      <trkpt lat="46.5159" lon="4.87274">
        <ele>292</ele>
        <time>2020-09-22T10:59:49Z</time>
      </trkpt>
      <trkpt lat="46.51582" lon="4.87285">
        <ele>291</ele>
        <time>2020-09-22T10:59:51Z</time>
      </trkpt>
      <trkpt lat="46.51561" lon="4.87301">
        <ele>292</ele>
        <time>2020-09-22T10:59:57Z</time>
      </trkpt>
      <trkpt lat="46.51547" lon="4.87315">
        <ele>293</ele>
        <time>2020-09-22T11:00:01Z</time>
      </trkpt>
      <trkpt lat="46.51526" lon="4.87416">
        <ele>297</ele>
        <time>2020-09-22T11:00:18Z</time>
      </trkpt>
      <trkpt lat="46.51491" lon="4.87457">
        <ele>300</ele>
        <time>2020-09-22T11:00:28Z</time>
      </trkpt>
      <trkpt lat="46.51409" lon="4.87363">
        <ele>312</ele>
        <time>2020-09-22T11:00:53Z</time>
      </trkpt>
      <trkpt lat="46.51404" lon="4.87341">
        <ele>313</ele>
        <time>2020-09-22T11:00:56Z</time>
      </trkpt>
      <trkpt lat="46.51395" lon="4.87325">
        <ele>313</ele>
        <time>2020-09-22T11:01:00Z</time>
      </trkpt>
      <trkpt lat="46.51387" lon="4.87317">
        <ele>312</ele>
        <time>2020-09-22T11:01:02Z</time>
      </trkpt>
      <trkpt lat="46.51366" lon="4.87305">
        <ele>313</ele>
        <time>2020-09-22T11:01:07Z</time>
      </trkpt>
      <trkpt lat="46.51312" lon="4.87281">
        <ele>314</ele>
        <time>2020-09-22T11:01:20Z</time>
      </trkpt>
      <trkpt lat="46.51288" lon="4.87262">
        <ele>314</ele>
        <time>2020-09-22T11:01:27Z</time>
      </trkpt>
      <trkpt lat="46.51248" lon="4.87252">
        <ele>315</ele>
        <time>2020-09-22T11:01:36Z</time>
      </trkpt>
      <trkpt lat="46.5122" lon="4.87226">
        <ele>311</ele>
        <time>2020-09-22T11:01:44Z</time>
      </trkpt>
      <trkpt lat="46.51171" lon="4.87206">
        <ele>309</ele>
        <time>2020-09-22T11:01:56Z</time>
      </trkpt>
      <trkpt lat="46.51145" lon="4.87199">
        <ele>308</ele>
        <time>2020-09-22T11:02:02Z</time>
      </trkpt>
      <trkpt lat="46.51116" lon="4.87198">
        <ele>308</ele>
        <time>2020-09-22T11:02:09Z</time>
      </trkpt>
      <trkpt lat="46.51095" lon="4.87192">
        <ele>307</ele>
        <time>2020-09-22T11:02:14Z</time>
      </trkpt>
      <trkpt lat="46.51079" lon="4.87192">
        <ele>307</ele>
        <time>2020-09-22T11:02:18Z</time>
      </trkpt>
      <trkpt lat="46.51048" lon="4.87186">
        <ele>305</ele>
        <time>2020-09-22T11:02:25Z</time>
      </trkpt>
      <trkpt lat="46.51001" lon="4.87163">
        <ele>302</ele>
        <time>2020-09-22T11:02:36Z</time>
      </trkpt>
      <trkpt lat="46.50986" lon="4.87154">
        <ele>299</ele>
        <time>2020-09-22T11:02:40Z</time>
      </trkpt>
      <trkpt lat="46.50966" lon="4.87137">
        <ele>296</ele>
        <time>2020-09-22T11:02:46Z</time>
      </trkpt>
      <trkpt lat="46.50944" lon="4.87128">
        <ele>294</ele>
        <time>2020-09-22T11:02:51Z</time>
      </trkpt>
      <trkpt lat="46.50909" lon="4.87119">
        <ele>292</ele>
        <time>2020-09-22T11:02:59Z</time>
      </trkpt>
      <trkpt lat="46.50892" lon="4.87117">
        <ele>291</ele>
        <time>2020-09-22T11:03:03Z</time>
      </trkpt>
      <trkpt lat="46.50859" lon="4.87106">
        <ele>289</ele>
        <time>2020-09-22T11:03:11Z</time>
      </trkpt>
      <trkpt lat="46.50831" lon="4.8712">
        <ele>286</ele>
        <time>2020-09-22T11:03:18Z</time>
      </trkpt>
      <trkpt lat="46.50799" lon="4.87116">
        <ele>283</ele>
        <time>2020-09-22T11:03:26Z</time>
      </trkpt>
      <trkpt lat="46.50765" lon="4.87118">
        <ele>279</ele>
        <time>2020-09-22T11:03:34Z</time>
      </trkpt>
      <trkpt lat="46.50735" lon="4.87114">
        <ele>276</ele>
        <time>2020-09-22T11:03:41Z</time>
      </trkpt>
      <trkpt lat="46.50714" lon="4.87096">
        <ele>272</ele>
        <time>2020-09-22T11:03:46Z</time>
      </trkpt>
      <trkpt lat="46.50709" lon="4.87113">
        <ele>272</ele>
        <time>2020-09-22T11:03:49Z</time>
      </trkpt>
      <trkpt lat="46.50709" lon="4.87133">
        <ele>274</ele>
        <time>2020-09-22T11:03:52Z</time>
      </trkpt>
      <trkpt lat="46.50718" lon="4.87314">
        <ele>269</ele>
        <time>2020-09-22T11:04:22Z</time>
      </trkpt>
      <trkpt lat="46.50725" lon="4.87397">
        <ele>267</ele>
        <time>2020-09-22T11:04:35Z</time>
      </trkpt>
      <trkpt lat="46.50723" lon="4.87414">
        <ele>267</ele>
        <time>2020-09-22T11:04:38Z</time>
      </trkpt>
      <trkpt lat="46.50717" lon="4.87432">
        <ele>267</ele>
        <time>2020-09-22T11:04:41Z</time>
      </trkpt>
      <trkpt lat="46.50698" lon="4.87476">
        <ele>268</ele>
        <time>2020-09-22T11:04:49Z</time>
      </trkpt>
      <trkpt lat="46.50688" lon="4.87531">
        <ele>269</ele>
        <time>2020-09-22T11:04:59Z</time>
      </trkpt>
      <trkpt lat="46.50689" lon="4.87558">
        <ele>271</ele>
        <time>2020-09-22T11:05:03Z</time>
      </trkpt>
      <trkpt lat="46.5068" lon="4.87675">
        <ele>269</ele>
        <time>2020-09-22T11:05:22Z</time>
      </trkpt>
      <trkpt lat="46.50682" lon="4.87829">
        <ele>265</ele>
        <time>2020-09-22T11:05:47Z</time>
      </trkpt>
      <trkpt lat="46.5067" lon="4.87933">
        <ele>261</ele>
        <time>2020-09-22T11:06:04Z</time>
      </trkpt>
      <trkpt lat="46.50652" lon="4.88029">
        <ele>256</ele>
        <time>2020-09-22T11:06:20Z</time>
      </trkpt>
      <trkpt lat="46.50644" lon="4.88044">
        <ele>254</ele>
        <time>2020-09-22T11:06:23Z</time>
      </trkpt>
      <trkpt lat="46.50579" lon="4.88206">
        <ele>245</ele>
        <time>2020-09-22T11:06:53Z</time>
      </trkpt>
      <trkpt lat="46.50532" lon="4.88314">
        <ele>238</ele>
        <time>2020-09-22T11:07:13Z</time>
      </trkpt>
      <trkpt lat="46.50514" lon="4.88351">
        <ele>236</ele>
        <time>2020-09-22T11:07:21Z</time>
      </trkpt>
      <trkpt lat="46.50485" lon="4.88394">
        <ele>233</ele>
        <time>2020-09-22T11:07:30Z</time>
      </trkpt>
      <trkpt lat="46.50467" lon="4.88426">
        <ele>231</ele>
        <time>2020-09-22T11:07:37Z</time>
      </trkpt>
      <trkpt lat="46.50433" lon="4.88493">
        <ele>229</ele>
        <time>2020-09-22T11:07:50Z</time>
      </trkpt>
      <trkpt lat="46.50425" lon="4.88505">
        <ele>228</ele>
        <time>2020-09-22T11:07:53Z</time>
      </trkpt>
      <trkpt lat="46.50413" lon="4.88514">
        <ele>228</ele>
        <time>2020-09-22T11:07:56Z</time>
      </trkpt>
      <trkpt lat="46.5041" lon="4.88531">
        <ele>227</ele>
        <time>2020-09-22T11:07:59Z</time>
      </trkpt>
      <trkpt lat="46.50401" lon="4.88528">
        <ele>227</ele>
        <time>2020-09-22T11:08:01Z</time>
      </trkpt>
      <trkpt lat="46.50372" lon="4.88563">
        <ele>226</ele>
        <time>2020-09-22T11:08:10Z</time>
      </trkpt>
      <trkpt lat="46.50337" lon="4.88611">
        <ele>224</ele>
        <time>2020-09-22T11:08:21Z</time>
      </trkpt>
      <trkpt lat="46.50325" lon="4.88622">
        <ele>223</ele>
        <time>2020-09-22T11:08:24Z</time>
      </trkpt>
      <trkpt lat="46.50309" lon="4.88626">
        <ele>223</ele>
        <time>2020-09-22T11:08:28Z</time>
      </trkpt>
      <trkpt lat="46.50298" lon="4.88623">
        <ele>222</ele>
        <time>2020-09-22T11:08:31Z</time>
      </trkpt>
      <trkpt lat="46.50274" lon="4.88599">
        <ele>222</ele>
        <time>2020-09-22T11:08:38Z</time>
      </trkpt>
      <trkpt lat="46.50247" lon="4.88583">
        <ele>222</ele>
        <time>2020-09-22T11:08:44Z</time>
      </trkpt>
      <trkpt lat="46.50229" lon="4.88576">
        <ele>222</ele>
        <time>2020-09-22T11:08:49Z</time>
      </trkpt>
    </trkseg>
  </trk>
  <trk>
    <name><![CDATA[5 LES_MONTS_DU_TOURNUGEOIS : ROUGE]]></name>
    <extensions>
      <line xmlns="http://www.topografix.com/GPX/gpx_style/0/2">
        <color>ff0000</color>
        <width>4</width>
      </line>
    </extensions>
    <trkseg>
      <trkpt lat="46.57057" lon="4.91205">
        <ele>173</ele>
        <time>2020-09-22T10:14:34Z</time>
      </trkpt>
      <trkpt lat="46.56791" lon="4.91122">
        <ele>173</ele>
        <time>2020-09-22T10:15:38Z</time>
      </trkpt>
      <trkpt lat="46.56698" lon="4.91107">
        <ele>173</ele>
        <time>2020-09-22T10:15:59Z</time>
      </trkpt>
      <trkpt lat="46.56693" lon="4.91104">
        <ele>174</ele>
        <time>2020-09-22T10:16:01Z</time>
      </trkpt>
      <trkpt lat="46.56687" lon="4.91087">
        <ele>175</ele>
        <time>2020-09-22T10:16:04Z</time>
      </trkpt>
      <trkpt lat="46.56655" lon="4.91105">
        <ele>175</ele>
        <time>2020-09-22T10:16:12Z</time>
      </trkpt>
      <trkpt lat="46.56582" lon="4.91123">
        <ele>176</ele>
        <time>2020-09-22T10:16:29Z</time>
      </trkpt>
      <trkpt lat="46.56544" lon="4.91139">
        <ele>177</ele>
        <time>2020-09-22T10:16:38Z</time>
      </trkpt>
      <trkpt lat="46.56469" lon="4.91181">
        <ele>178</ele>
        <time>2020-09-22T10:16:57Z</time>
      </trkpt>
      <trkpt lat="46.5644" lon="4.91191">
        <ele>178</ele>
        <time>2020-09-22T10:17:04Z</time>
      </trkpt>
      <trkpt lat="46.56399" lon="4.91211">
        <ele>178</ele>
        <time>2020-09-22T10:17:14Z</time>
      </trkpt>
      <trkpt lat="46.56332" lon="4.91249">
        <ele>179</ele>
        <time>2020-09-22T10:17:31Z</time>
      </trkpt>
      <trkpt lat="46.56299" lon="4.91273">
        <ele>179</ele>
        <time>2020-09-22T10:17:39Z</time>
      </trkpt>
      <trkpt lat="46.56164" lon="4.91384">
        <ele>178</ele>
        <time>2020-09-22T10:18:16Z</time>
      </trkpt>
      <trkpt lat="46.56017" lon="4.91537">
        <ele>174</ele>
        <time>2020-09-22T10:18:58Z</time>
      </trkpt>
      <trkpt lat="46.55925" lon="4.91602">
        <ele>175</ele>
        <time>2020-09-22T10:19:22Z</time>
      </trkpt>
      <trkpt lat="46.55731" lon="4.91718">
        <ele>171</ele>
        <time>2020-09-22T10:20:11Z</time>
      </trkpt>
      <trkpt lat="46.55673" lon="4.91741">
        <ele>174</ele>
        <time>2020-09-22T10:20:25Z</time>
      </trkpt>
      <trkpt lat="46.5559" lon="4.91761">
        <ele>174</ele>
        <time>2020-09-22T10:20:44Z</time>
      </trkpt>
      <trkpt lat="46.55537" lon="4.91591">
        <ele>175</ele>
        <time>2020-09-22T10:21:14Z</time>
      </trkpt>
      <trkpt lat="46.55523" lon="4.91585">
        <ele>175</ele>
        <time>2020-09-22T10:21:18Z</time>
      </trkpt>
      <trkpt lat="46.55489" lon="4.91587">
        <ele>174</ele>
        <time>2020-09-22T10:21:26Z</time>
      </trkpt>
      <trkpt lat="46.55464" lon="4.91593">
        <ele>174</ele>
        <time>2020-09-22T10:21:32Z</time>
      </trkpt>
      <trkpt lat="46.5543" lon="4.91605">
        <ele>175</ele>
        <time>2020-09-22T10:21:40Z</time>
      </trkpt>
      <trkpt lat="46.55411" lon="4.91613">
        <ele>175</ele>
        <time>2020-09-22T10:21:45Z</time>
      </trkpt>
      <trkpt lat="46.55391" lon="4.91625">
        <ele>176</ele>
        <time>2020-09-22T10:21:50Z</time>
      </trkpt>
      <trkpt lat="46.55384" lon="4.91619">
        <ele>176</ele>
        <time>2020-09-22T10:21:51Z</time>
      </trkpt>
      <trkpt lat="46.55377" lon="4.91619">
        <ele>176</ele>
        <time>2020-09-22T10:21:53Z</time>
      </trkpt>
      <trkpt lat="46.5533" lon="4.91633">
        <ele>177</ele>
        <time>2020-09-22T10:22:04Z</time>
      </trkpt>
      <trkpt lat="46.55318" lon="4.91634">
        <ele>178</ele>
        <time>2020-09-22T10:22:07Z</time>
      </trkpt>
      <trkpt lat="46.55295" lon="4.91629">
        <ele>179</ele>
        <time>2020-09-22T10:22:13Z</time>
      </trkpt>
      <trkpt lat="46.5527" lon="4.91618">
        <ele>181</ele>
        <time>2020-09-22T10:22:19Z</time>
      </trkpt>
      <trkpt lat="46.55244" lon="4.91597">
        <ele>183</ele>
        <time>2020-09-22T10:22:26Z</time>
      </trkpt>
      <trkpt lat="46.55253" lon="4.91574">
        <ele>183</ele>
        <time>2020-09-22T10:22:30Z</time>
      </trkpt>
      <trkpt lat="46.55254" lon="4.91557">
        <ele>182</ele>
        <time>2020-09-22T10:22:33Z</time>
      </trkpt>
      <trkpt lat="46.55252" lon="4.91549">
        <ele>182</ele>
        <time>2020-09-22T10:22:34Z</time>
      </trkpt>
      <trkpt lat="46.55225" lon="4.9152">
        <ele>183</ele>
        <time>2020-09-22T10:22:42Z</time>
      </trkpt>
      <trkpt lat="46.552" lon="4.915">
        <ele>185</ele>
        <time>2020-09-22T10:22:48Z</time>
      </trkpt>
      <trkpt lat="46.55193" lon="4.91484">
        <ele>185</ele>
        <time>2020-09-22T10:22:51Z</time>
      </trkpt>
      <trkpt lat="46.55192" lon="4.91473">
        <ele>185</ele>
        <time>2020-09-22T10:22:53Z</time>
      </trkpt>
      <trkpt lat="46.55196" lon="4.91428">
        <ele>185</ele>
        <time>2020-09-22T10:23:01Z</time>
      </trkpt>
      <trkpt lat="46.55217" lon="4.91334">
        <ele>184</ele>
        <time>2020-09-22T10:23:16Z</time>
      </trkpt>
      <trkpt lat="46.55233" lon="4.91237">
        <ele>188</ele>
        <time>2020-09-22T10:23:32Z</time>
      </trkpt>
      <trkpt lat="46.55232" lon="4.91207">
        <ele>188</ele>
        <time>2020-09-22T10:23:37Z</time>
      </trkpt>
      <trkpt lat="46.55224" lon="4.91185">
        <ele>189</ele>
        <time>2020-09-22T10:23:41Z</time>
      </trkpt>
      <trkpt lat="46.55223" lon="4.91163">
        <ele>190</ele>
        <time>2020-09-22T10:23:45Z</time>
      </trkpt>
      <trkpt lat="46.55234" lon="4.91014">
        <ele>191</ele>
        <time>2020-09-22T10:24:09Z</time>
      </trkpt>
      <trkpt lat="46.55255" lon="4.9093">
        <ele>192</ele>
        <time>2020-09-22T10:24:23Z</time>
      </trkpt>
      <trkpt lat="46.55317" lon="4.90739">
        <ele>188</ele>
        <time>2020-09-22T10:24:57Z</time>
      </trkpt>
      <trkpt lat="46.55425" lon="4.90738">
        <ele>185</ele>
        <time>2020-09-22T10:25:22Z</time>
      </trkpt>
      <trkpt lat="46.55467" lon="4.90734">
        <ele>185</ele>
        <time>2020-09-22T10:25:32Z</time>
      </trkpt>
      <trkpt lat="46.55565" lon="4.90718">
        <ele>189</ele>
        <time>2020-09-22T10:25:55Z</time>
      </trkpt>
      <trkpt lat="46.55554" lon="4.90753">
        <ele>188</ele>
        <time>2020-09-22T10:26:01Z</time>
      </trkpt>
      <trkpt lat="46.55545" lon="4.90768">
        <ele>188</ele>
        <time>2020-09-22T10:26:05Z</time>
      </trkpt>
      <trkpt lat="46.55525" lon="4.90816">
        <ele>188</ele>
        <time>2020-09-22T10:26:14Z</time>
      </trkpt>
      <trkpt lat="46.55492" lon="4.9096">
        <ele>187</ele>
        <time>2020-09-22T10:26:38Z</time>
      </trkpt>
      <trkpt lat="46.55487" lon="4.91006">
        <ele>187</ele>
        <time>2020-09-22T10:26:45Z</time>
      </trkpt>
      <trkpt lat="46.55479" lon="4.91147">
        <ele>186</ele>
        <time>2020-09-22T10:27:08Z</time>
      </trkpt>
      <trkpt lat="46.55482" lon="4.91238">
        <ele>185</ele>
        <time>2020-09-22T10:27:23Z</time>
      </trkpt>
      <trkpt lat="46.55485" lon="4.91244">
        <ele>185</ele>
        <time>2020-09-22T10:27:24Z</time>
      </trkpt>
      <trkpt lat="46.5549" lon="4.91245">
        <ele>186</ele>
        <time>2020-09-22T10:27:25Z</time>
      </trkpt>
      <trkpt lat="46.55635" lon="4.91238">
        <ele>186</ele>
        <time>2020-09-22T10:27:59Z</time>
      </trkpt>
      <trkpt lat="46.5566" lon="4.91234">
        <ele>185</ele>
        <time>2020-09-22T10:28:05Z</time>
      </trkpt>
      <trkpt lat="46.55724" lon="4.91177">
        <ele>185</ele>
        <time>2020-09-22T10:28:22Z</time>
      </trkpt>
      <trkpt lat="46.55749" lon="4.91121">
        <ele>186</ele>
        <time>2020-09-22T10:28:33Z</time>
      </trkpt>
      <trkpt lat="46.5575" lon="4.911">
        <ele>186</ele>
        <time>2020-09-22T10:28:37Z</time>
      </trkpt>
      <trkpt lat="46.55756" lon="4.91082">
        <ele>187</ele>
        <time>2020-09-22T10:28:40Z</time>
      </trkpt>
      <trkpt lat="46.5575" lon="4.91056">
        <ele>188</ele>
        <time>2020-09-22T10:28:44Z</time>
      </trkpt>
      <trkpt lat="46.55742" lon="4.90998">
        <ele>189</ele>
        <time>2020-09-22T10:28:54Z</time>
      </trkpt>
      <trkpt lat="46.55732" lon="4.90977">
        <ele>189</ele>
        <time>2020-09-22T10:28:58Z</time>
      </trkpt>
      <trkpt lat="46.55703" lon="4.90957">
        <ele>189</ele>
        <time>2020-09-22T10:29:05Z</time>
      </trkpt>
      <trkpt lat="46.55698" lon="4.9095">
        <ele>189</ele>
        <time>2020-09-22T10:29:07Z</time>
      </trkpt>
      <trkpt lat="46.55694" lon="4.90938">
        <ele>189</ele>
        <time>2020-09-22T10:29:09Z</time>
      </trkpt>
      <trkpt lat="46.55687" lon="4.90768">
        <ele>192</ele>
        <time>2020-09-22T10:29:36Z</time>
      </trkpt>
      <trkpt lat="46.55689" lon="4.90743">
        <ele>192</ele>
        <time>2020-09-22T10:29:40Z</time>
      </trkpt>
      <trkpt lat="46.55739" lon="4.90743">
        <ele>192</ele>
        <time>2020-09-22T10:29:52Z</time>
      </trkpt>
      <trkpt lat="46.55761" lon="4.9074">
        <ele>192</ele>
        <time>2020-09-22T10:29:57Z</time>
      </trkpt>
      <trkpt lat="46.55796" lon="4.90722">
        <ele>192</ele>
        <time>2020-09-22T10:30:06Z</time>
      </trkpt>
      <trkpt lat="46.55804" lon="4.90715">
        <ele>192</ele>
        <time>2020-09-22T10:30:08Z</time>
      </trkpt>
      <trkpt lat="46.55827" lon="4.90735">
        <ele>192</ele>
        <time>2020-09-22T10:30:14Z</time>
      </trkpt>
      <trkpt lat="46.55927" lon="4.908">
        <ele>191</ele>
        <time>2020-09-22T10:30:40Z</time>
      </trkpt>
      <trkpt lat="46.55974" lon="4.90821">
        <ele>191</ele>
        <time>2020-09-22T10:30:51Z</time>
      </trkpt>
      <trkpt lat="46.55996" lon="4.90834">
        <ele>191</ele>
        <time>2020-09-22T10:30:57Z</time>
      </trkpt>
      <trkpt lat="46.56011" lon="4.9084">
        <ele>191</ele>
        <time>2020-09-22T10:31:01Z</time>
      </trkpt>
      <trkpt lat="46.56023" lon="4.90841">
        <ele>191</ele>
        <time>2020-09-22T10:31:03Z</time>
      </trkpt>
      <trkpt lat="46.56034" lon="4.9071">
        <ele>194</ele>
        <time>2020-09-22T10:31:25Z</time>
      </trkpt>
      <trkpt lat="46.56036" lon="4.90613">
        <ele>196</ele>
        <time>2020-09-22T10:31:40Z</time>
      </trkpt>
      <trkpt lat="46.56034" lon="4.90576">
        <ele>196</ele>
        <time>2020-09-22T10:31:46Z</time>
      </trkpt>
      <trkpt lat="46.56008" lon="4.90378">
        <ele>199</ele>
        <time>2020-09-22T10:32:19Z</time>
      </trkpt>
      <trkpt lat="46.56019" lon="4.901">
        <ele>203</ele>
        <time>2020-09-22T10:33:03Z</time>
      </trkpt>
      <trkpt lat="46.56027" lon="4.89805">
        <ele>207</ele>
        <time>2020-09-22T10:33:51Z</time>
      </trkpt>
      <trkpt lat="46.56028" lon="4.89521">
        <ele>213</ele>
        <time>2020-09-22T10:34:36Z</time>
      </trkpt>
      <trkpt lat="46.56026" lon="4.89496">
        <ele>213</ele>
        <time>2020-09-22T10:34:40Z</time>
      </trkpt>
      <trkpt lat="46.56033" lon="4.89477">
        <ele>213</ele>
        <time>2020-09-22T10:34:44Z</time>
      </trkpt>
      <trkpt lat="46.56062" lon="4.89239">
        <ele>217</ele>
        <time>2020-09-22T10:35:23Z</time>
      </trkpt>
      <trkpt lat="46.56063" lon="4.89209">
        <ele>216</ele>
        <time>2020-09-22T10:35:27Z</time>
      </trkpt>
      <trkpt lat="46.56061" lon="4.89147">
        <ele>215</ele>
        <time>2020-09-22T10:35:37Z</time>
      </trkpt>
      <trkpt lat="46.56057" lon="4.89109">
        <ele>215</ele>
        <time>2020-09-22T10:35:44Z</time>
      </trkpt>
      <trkpt lat="46.56039" lon="4.89">
        <ele>216</ele>
        <time>2020-09-22T10:36:02Z</time>
      </trkpt>
      <trkpt lat="46.5604" lon="4.8893">
        <ele>211</ele>
        <time>2020-09-22T10:36:13Z</time>
      </trkpt>
      <trkpt lat="46.56025" lon="4.88748">
        <ele>209</ele>
        <time>2020-09-22T10:36:42Z</time>
      </trkpt>
      <trkpt lat="46.56026" lon="4.8871">
        <ele>208</ele>
        <time>2020-09-22T10:36:48Z</time>
      </trkpt>
      <trkpt lat="46.56032" lon="4.8866">
        <ele>208</ele>
        <time>2020-09-22T10:36:56Z</time>
      </trkpt>
      <trkpt lat="46.56043" lon="4.8862">
        <ele>208</ele>
        <time>2020-09-22T10:37:03Z</time>
      </trkpt>
      <trkpt lat="46.56036" lon="4.88613">
        <ele>208</ele>
        <time>2020-09-22T10:37:05Z</time>
      </trkpt>
      <trkpt lat="46.56008" lon="4.88601">
        <ele>209</ele>
        <time>2020-09-22T10:37:12Z</time>
      </trkpt>
      <trkpt lat="46.55963" lon="4.88612">
        <ele>212</ele>
        <time>2020-09-22T10:37:23Z</time>
      </trkpt>
      <trkpt lat="46.55918" lon="4.886">
        <ele>217</ele>
        <time>2020-09-22T10:37:34Z</time>
      </trkpt>
      <trkpt lat="46.559" lon="4.88601">
        <ele>220</ele>
        <time>2020-09-22T10:37:38Z</time>
      </trkpt>
      <trkpt lat="46.55861" lon="4.88621">
        <ele>226</ele>
        <time>2020-09-22T10:37:47Z</time>
      </trkpt>
      <trkpt lat="46.55828" lon="4.88633">
        <ele>232</ele>
        <time>2020-09-22T10:37:55Z</time>
      </trkpt>
      <trkpt lat="46.55815" lon="4.88648">
        <ele>235</ele>
        <time>2020-09-22T10:37:59Z</time>
      </trkpt>
      <trkpt lat="46.55807" lon="4.88671">
        <ele>237</ele>
        <time>2020-09-22T10:38:03Z</time>
      </trkpt>
      <trkpt lat="46.55802" lon="4.88679">
        <ele>238</ele>
        <time>2020-09-22T10:38:05Z</time>
      </trkpt>
      <trkpt lat="46.55766" lon="4.88572">
        <ele>246</ele>
        <time>2020-09-22T10:38:24Z</time>
      </trkpt>
      <trkpt lat="46.55726" lon="4.88473">
        <ele>251</ele>
        <time>2020-09-22T10:38:43Z</time>
      </trkpt>
      <trkpt lat="46.5571" lon="4.8844">
        <ele>253</ele>
        <time>2020-09-22T10:38:49Z</time>
      </trkpt>
      <trkpt lat="46.55624" lon="4.88287">
        <ele>257</ele>
        <time>2020-09-22T10:39:21Z</time>
      </trkpt>
      <trkpt lat="46.55571" lon="4.88203">
        <ele>260</ele>
        <time>2020-09-22T10:39:39Z</time>
      </trkpt>
      <trkpt lat="46.55536" lon="4.88157">
        <ele>261</ele>
        <time>2020-09-22T10:39:50Z</time>
      </trkpt>
      <trkpt lat="46.55504" lon="4.8809">
        <ele>259</ele>
        <time>2020-09-22T10:40:03Z</time>
      </trkpt>
      <trkpt lat="46.55495" lon="4.88066">
        <ele>258</ele>
        <time>2020-09-22T10:40:08Z</time>
      </trkpt>
      <trkpt lat="46.55482" lon="4.88041">
        <ele>256</ele>
        <time>2020-09-22T10:40:13Z</time>
      </trkpt>
      <trkpt lat="46.55463" lon="4.88015">
        <ele>254</ele>
        <time>2020-09-22T10:40:19Z</time>
      </trkpt>
      <trkpt lat="46.55451" lon="4.88006">
        <ele>254</ele>
        <time>2020-09-22T10:40:22Z</time>
      </trkpt>
      <trkpt lat="46.554" lon="4.87984">
        <ele>254</ele>
        <time>2020-09-22T10:40:34Z</time>
      </trkpt>
      <trkpt lat="46.55377" lon="4.87964">
        <ele>253</ele>
        <time>2020-09-22T10:40:41Z</time>
      </trkpt>
      <trkpt lat="46.55354" lon="4.87938">
        <ele>253</ele>
        <time>2020-09-22T10:40:47Z</time>
      </trkpt>
      <trkpt lat="46.55346" lon="4.87945">
        <ele>253</ele>
        <time>2020-09-22T10:40:50Z</time>
      </trkpt>
      <trkpt lat="46.55336" lon="4.87949">
        <ele>253</ele>
        <time>2020-09-22T10:40:52Z</time>
      </trkpt>
      <trkpt lat="46.55314" lon="4.87954">
        <ele>254</ele>
        <time>2020-09-22T10:40:57Z</time>
      </trkpt>
      <trkpt lat="46.55293" lon="4.87955">
        <ele>255</ele>
        <time>2020-09-22T10:41:02Z</time>
      </trkpt>
      <trkpt lat="46.55263" lon="4.87948">
        <ele>255</ele>
        <time>2020-09-22T10:41:09Z</time>
      </trkpt>
      <trkpt lat="46.55217" lon="4.87919">
        <ele>257</ele>
        <time>2020-09-22T10:41:21Z</time>
      </trkpt>
      <trkpt lat="46.5521" lon="4.87906">
        <ele>257</ele>
        <time>2020-09-22T10:41:24Z</time>
      </trkpt>
      <trkpt lat="46.55192" lon="4.87895">
        <ele>259</ele>
        <time>2020-09-22T10:41:28Z</time>
      </trkpt>
      <trkpt lat="46.55174" lon="4.87879">
        <ele>260</ele>
        <time>2020-09-22T10:41:33Z</time>
      </trkpt>
      <trkpt lat="46.55114" lon="4.87818">
        <ele>263</ele>
        <time>2020-09-22T10:41:50Z</time>
      </trkpt>
      <trkpt lat="46.54991" lon="4.87706">
        <ele>276</ele>
        <time>2020-09-22T10:42:24Z</time>
      </trkpt>
      <trkpt lat="46.54895" lon="4.87635">
        <ele>283</ele>
        <time>2020-09-22T10:42:49Z</time>
      </trkpt>
      <trkpt lat="46.54924" lon="4.87636">
        <ele>284</ele>
        <time>2020-09-22T10:42:56Z</time>
      </trkpt>
      <trkpt lat="46.54968" lon="4.87631">
        <ele>283</ele>
        <time>2020-09-22T10:43:06Z</time>
      </trkpt>
      <trkpt lat="46.5498" lon="4.87626">
        <ele>283</ele>
        <time>2020-09-22T10:43:09Z</time>
      </trkpt>
      <trkpt lat="46.54985" lon="4.87612">
        <ele>284</ele>
        <time>2020-09-22T10:43:12Z</time>
      </trkpt>
      <trkpt lat="46.54984" lon="4.87597">
        <ele>285</ele>
        <time>2020-09-22T10:43:14Z</time>
      </trkpt>
      <trkpt lat="46.54971" lon="4.87578">
        <ele>288</ele>
        <time>2020-09-22T10:43:19Z</time>
      </trkpt>
      <trkpt lat="46.54954" lon="4.87559">
        <ele>291</ele>
        <time>2020-09-22T10:43:24Z</time>
      </trkpt>
      <trkpt lat="46.54941" lon="4.87526">
        <ele>295</ele>
        <time>2020-09-22T10:43:30Z</time>
      </trkpt>
      <trkpt lat="46.54895" lon="4.87464">
        <ele>305</ele>
        <time>2020-09-22T10:43:44Z</time>
      </trkpt>
      <trkpt lat="46.54867" lon="4.87413">
        <ele>314</ele>
        <time>2020-09-22T10:43:55Z</time>
      </trkpt>
      <trkpt lat="46.5488" lon="4.87391">
        <ele>314</ele>
        <time>2020-09-22T10:43:59Z</time>
      </trkpt>
      <trkpt lat="46.54923" lon="4.87283">
        <ele>313</ele>
        <time>2020-09-22T10:44:19Z</time>
      </trkpt>
      <trkpt lat="46.54932" lon="4.87265">
        <ele>313</ele>
        <time>2020-09-22T10:44:23Z</time>
      </trkpt>
      <trkpt lat="46.54937" lon="4.8726">
        <ele>312</ele>
        <time>2020-09-22T10:44:24Z</time>
      </trkpt>
      <trkpt lat="46.54944" lon="4.87258">
        <ele>312</ele>
        <time>2020-09-22T10:44:26Z</time>
      </trkpt>
      <trkpt lat="46.54963" lon="4.8726">
        <ele>310</ele>
        <time>2020-09-22T10:44:31Z</time>
      </trkpt>
      <trkpt lat="46.54972" lon="4.87267">
        <ele>309</ele>
        <time>2020-09-22T10:44:33Z</time>
      </trkpt>
      <trkpt lat="46.54976" lon="4.87289">
        <ele>308</ele>
        <time>2020-09-22T10:44:37Z</time>
      </trkpt>
      <trkpt lat="46.54984" lon="4.87307">
        <ele>306</ele>
        <time>2020-09-22T10:44:40Z</time>
      </trkpt>
      <trkpt lat="46.54993" lon="4.87311">
        <ele>305</ele>
        <time>2020-09-22T10:44:42Z</time>
      </trkpt>
      <trkpt lat="46.54999" lon="4.87281">
        <ele>305</ele>
        <time>2020-09-22T10:44:47Z</time>
      </trkpt>
      <trkpt lat="46.55022" lon="4.87232">
        <ele>307</ele>
        <time>2020-09-22T10:44:57Z</time>
      </trkpt>
      <trkpt lat="46.55062" lon="4.87157">
        <ele>305</ele>
        <time>2020-09-22T10:45:12Z</time>
      </trkpt>
      <trkpt lat="46.55096" lon="4.87111">
        <ele>304</ele>
        <time>2020-09-22T10:45:23Z</time>
      </trkpt>
      <trkpt lat="46.5515" lon="4.87048">
        <ele>300</ele>
        <time>2020-09-22T10:45:39Z</time>
      </trkpt>
      <trkpt lat="46.55166" lon="4.87019">
        <ele>298</ele>
        <time>2020-09-22T10:45:45Z</time>
      </trkpt>
      <trkpt lat="46.55179" lon="4.86988">
        <ele>298</ele>
        <time>2020-09-22T10:45:51Z</time>
      </trkpt>
      <trkpt lat="46.55185" lon="4.86967">
        <ele>299</ele>
        <time>2020-09-22T10:45:54Z</time>
      </trkpt>
      <trkpt lat="46.55207" lon="4.86848">
        <ele>297</ele>
        <time>2020-09-22T10:46:14Z</time>
      </trkpt>
      <trkpt lat="46.55231" lon="4.86767">
        <ele>289</ele>
        <time>2020-09-22T10:46:28Z</time>
      </trkpt>
      <trkpt lat="46.55234" lon="4.86735">
        <ele>286</ele>
        <time>2020-09-22T10:46:34Z</time>
      </trkpt>
      <trkpt lat="46.55229" lon="4.8667">
        <ele>281</ele>
        <time>2020-09-22T10:46:44Z</time>
      </trkpt>
      <trkpt lat="46.55205" lon="4.8658">
        <ele>275</ele>
        <time>2020-09-22T10:47:00Z</time>
      </trkpt>
      <trkpt lat="46.55163" lon="4.86475">
        <ele>273</ele>
        <time>2020-09-22T10:47:19Z</time>
      </trkpt>
      <trkpt lat="46.5513" lon="4.86409">
        <ele>271</ele>
        <time>2020-09-22T10:47:32Z</time>
      </trkpt>
      <trkpt lat="46.55101" lon="4.86339">
        <ele>268</ele>
        <time>2020-09-22T10:47:45Z</time>
      </trkpt>
      <trkpt lat="46.55076" lon="4.86274">
        <ele>267</ele>
        <time>2020-09-22T10:47:57Z</time>
      </trkpt>
      <trkpt lat="46.55073" lon="4.86257">
        <ele>266</ele>
        <time>2020-09-22T10:48:00Z</time>
      </trkpt>
      <trkpt lat="46.55059" lon="4.86224">
        <ele>264</ele>
        <time>2020-09-22T10:48:06Z</time>
      </trkpt>
      <trkpt lat="46.55036" lon="4.86154">
        <ele>259</ele>
        <time>2020-09-22T10:48:19Z</time>
      </trkpt>
      <trkpt lat="46.55031" lon="4.86094">
        <ele>255</ele>
        <time>2020-09-22T10:48:29Z</time>
      </trkpt>
      <trkpt lat="46.55037" lon="4.85998">
        <ele>252</ele>
        <time>2020-09-22T10:48:44Z</time>
      </trkpt>
      <trkpt lat="46.55033" lon="4.85949">
        <ele>251</ele>
        <time>2020-09-22T10:48:52Z</time>
      </trkpt>
      <trkpt lat="46.55028" lon="4.85918">
        <ele>251</ele>
        <time>2020-09-22T10:48:57Z</time>
      </trkpt>
      <trkpt lat="46.55014" lon="4.85886">
        <ele>251</ele>
        <time>2020-09-22T10:49:03Z</time>
      </trkpt>
      <trkpt lat="46.55001" lon="4.85872">
        <ele>252</ele>
        <time>2020-09-22T10:49:07Z</time>
      </trkpt>
      <trkpt lat="46.54977" lon="4.85851">
        <ele>252</ele>
        <time>2020-09-22T10:49:13Z</time>
      </trkpt>
      <trkpt lat="46.54938" lon="4.85823">
        <ele>252</ele>
        <time>2020-09-22T10:49:24Z</time>
      </trkpt>
      <trkpt lat="46.54905" lon="4.85794">
        <ele>251</ele>
        <time>2020-09-22T10:49:33Z</time>
      </trkpt>
      <trkpt lat="46.54899" lon="4.85787">
        <ele>251</ele>
        <time>2020-09-22T10:49:34Z</time>
      </trkpt>
      <trkpt lat="46.54899" lon="4.85782">
        <ele>251</ele>
        <time>2020-09-22T10:49:35Z</time>
      </trkpt>
      <trkpt lat="46.54974" lon="4.85722">
        <ele>247</ele>
        <time>2020-09-22T10:49:55Z</time>
      </trkpt>
      <trkpt lat="46.5498" lon="4.85718">
        <ele>247</ele>
        <time>2020-09-22T10:49:57Z</time>
      </trkpt>
      <trkpt lat="46.54997" lon="4.85715">
        <ele>247</ele>
        <time>2020-09-22T10:50:01Z</time>
      </trkpt>
      <trkpt lat="46.55018" lon="4.85722">
        <ele>246</ele>
        <time>2020-09-22T10:50:06Z</time>
      </trkpt>
      <trkpt lat="46.55106" lon="4.85773">
        <ele>244</ele>
        <time>2020-09-22T10:50:28Z</time>
      </trkpt>
      <trkpt lat="46.55123" lon="4.85742">
        <ele>242</ele>
        <time>2020-09-22T10:50:34Z</time>
      </trkpt>
      <trkpt lat="46.55174" lon="4.85601">
        <ele>237</ele>
        <time>2020-09-22T10:51:00Z</time>
      </trkpt>
      <trkpt lat="46.55215" lon="4.85479">
        <ele>230</ele>
        <time>2020-09-22T10:51:22Z</time>
      </trkpt>
      <trkpt lat="46.55214" lon="4.85411">
        <ele>229</ele>
        <time>2020-09-22T10:51:33Z</time>
      </trkpt>
      <trkpt lat="46.55221" lon="4.85363">
        <ele>229</ele>
        <time>2020-09-22T10:51:40Z</time>
      </trkpt>
      <trkpt lat="46.55227" lon="4.85343">
        <ele>229</ele>
        <time>2020-09-22T10:51:44Z</time>
      </trkpt>
      <trkpt lat="46.55246" lon="4.85314">
        <ele>231</ele>
        <time>2020-09-22T10:51:50Z</time>
      </trkpt>
      <trkpt lat="46.5523" lon="4.85302">
        <ele>231</ele>
        <time>2020-09-22T10:51:55Z</time>
      </trkpt>
      <trkpt lat="46.55143" lon="4.85277">
        <ele>229</ele>
        <time>2020-09-22T10:52:15Z</time>
      </trkpt>
      <trkpt lat="46.55086" lon="4.85255">
        <ele>229</ele>
        <time>2020-09-22T10:52:29Z</time>
      </trkpt>
      <trkpt lat="46.54996" lon="4.85208">
        <ele>230</ele>
        <time>2020-09-22T10:52:51Z</time>
      </trkpt>
      <trkpt lat="46.54975" lon="4.85201">
        <ele>230</ele>
        <time>2020-09-22T10:52:56Z</time>
      </trkpt>
      <trkpt lat="46.54956" lon="4.85197">
        <ele>231</ele>
        <time>2020-09-22T10:53:01Z</time>
      </trkpt>
      <trkpt lat="46.54927" lon="4.85198">
        <ele>231</ele>
        <time>2020-09-22T10:53:08Z</time>
      </trkpt>
      <trkpt lat="46.54885" lon="4.8521">
        <ele>231</ele>
        <time>2020-09-22T10:53:18Z</time>
      </trkpt>
      <trkpt lat="46.5486" lon="4.8521">
        <ele>232</ele>
        <time>2020-09-22T10:53:24Z</time>
      </trkpt>
      <trkpt lat="46.54844" lon="4.85207">
        <ele>232</ele>
        <time>2020-09-22T10:53:27Z</time>
      </trkpt>
      <trkpt lat="46.54832" lon="4.85202">
        <ele>233</ele>
        <time>2020-09-22T10:53:30Z</time>
      </trkpt>
      <trkpt lat="46.54812" lon="4.85188">
        <ele>232</ele>
        <time>2020-09-22T10:53:35Z</time>
      </trkpt>
      <trkpt lat="46.54819" lon="4.85176">
        <ele>233</ele>
        <time>2020-09-22T10:53:38Z</time>
      </trkpt>
      <trkpt lat="46.54833" lon="4.85163">
        <ele>235</ele>
        <time>2020-09-22T10:53:42Z</time>
      </trkpt>
      <trkpt lat="46.5487" lon="4.85153">
        <ele>236</ele>
        <time>2020-09-22T10:53:51Z</time>
      </trkpt>
      <trkpt lat="46.54897" lon="4.85139">
        <ele>237</ele>
        <time>2020-09-22T10:53:57Z</time>
      </trkpt>
      <trkpt lat="46.54963" lon="4.85073">
        <ele>244</ele>
        <time>2020-09-22T10:54:16Z</time>
      </trkpt>
      <trkpt lat="46.55037" lon="4.85014">
        <ele>249</ele>
        <time>2020-09-22T10:54:36Z</time>
      </trkpt>
      <trkpt lat="46.54965" lon="4.84982">
        <ele>257</ele>
        <time>2020-09-22T10:54:53Z</time>
      </trkpt>
      <trkpt lat="46.54923" lon="4.84949">
        <ele>265</ele>
        <time>2020-09-22T10:55:04Z</time>
      </trkpt>
      <trkpt lat="46.54865" lon="4.8492">
        <ele>271</ele>
        <time>2020-09-22T10:55:19Z</time>
      </trkpt>
      <trkpt lat="46.54812" lon="4.84874">
        <ele>280</ele>
        <time>2020-09-22T10:55:33Z</time>
      </trkpt>
      <trkpt lat="46.54704" lon="4.84761">
        <ele>288</ele>
        <time>2020-09-22T10:56:04Z</time>
      </trkpt>
      <trkpt lat="46.54651" lon="4.84701">
        <ele>288</ele>
        <time>2020-09-22T10:56:20Z</time>
      </trkpt>
      <trkpt lat="46.54588" lon="4.8464">
        <ele>282</ele>
        <time>2020-09-22T10:56:38Z</time>
      </trkpt>
      <trkpt lat="46.54546" lon="4.84613">
        <ele>274</ele>
        <time>2020-09-22T10:56:48Z</time>
      </trkpt>
      <trkpt lat="46.54515" lon="4.84581">
        <ele>269</ele>
        <time>2020-09-22T10:56:57Z</time>
      </trkpt>
      <trkpt lat="46.54487" lon="4.84546">
        <ele>261</ele>
        <time>2020-09-22T10:57:06Z</time>
      </trkpt>
      <trkpt lat="46.54475" lon="4.84536">
        <ele>258</ele>
        <time>2020-09-22T10:57:09Z</time>
      </trkpt>
      <trkpt lat="46.5449" lon="4.84511">
        <ele>260</ele>
        <time>2020-09-22T10:57:14Z</time>
      </trkpt>
      <trkpt lat="46.54506" lon="4.8449">
        <ele>262</ele>
        <time>2020-09-22T10:57:19Z</time>
      </trkpt>
      <trkpt lat="46.54529" lon="4.84445">
        <ele>264</ele>
        <time>2020-09-22T10:57:28Z</time>
      </trkpt>
      <trkpt lat="46.54553" lon="4.84405">
        <ele>267</ele>
        <time>2020-09-22T10:57:37Z</time>
      </trkpt>
      <trkpt lat="46.54555" lon="4.84346">
        <ele>257</ele>
        <time>2020-09-22T10:57:46Z</time>
      </trkpt>
      <trkpt lat="46.54547" lon="4.84314">
        <ele>251</ele>
        <time>2020-09-22T10:57:52Z</time>
      </trkpt>
      <trkpt lat="46.54547" lon="4.84267">
        <ele>248</ele>
        <time>2020-09-22T10:57:59Z</time>
      </trkpt>
      <trkpt lat="46.54535" lon="4.84252">
        <ele>244</ele>
        <time>2020-09-22T10:58:03Z</time>
      </trkpt>
      <trkpt lat="46.5455" lon="4.84187">
        <ele>246</ele>
        <time>2020-09-22T10:58:14Z</time>
      </trkpt>
      <trkpt lat="46.54557" lon="4.84168">
        <ele>247</ele>
        <time>2020-09-22T10:58:18Z</time>
      </trkpt>
      <trkpt lat="46.54566" lon="4.84153">
        <ele>248</ele>
        <time>2020-09-22T10:58:21Z</time>
      </trkpt>
      <trkpt lat="46.5459" lon="4.84135">
        <ele>252</ele>
        <time>2020-09-22T10:58:27Z</time>
      </trkpt>
      <trkpt lat="46.5462" lon="4.84125">
        <ele>254</ele>
        <time>2020-09-22T10:58:34Z</time>
      </trkpt>
      <trkpt lat="46.54657" lon="4.84119">
        <ele>257</ele>
        <time>2020-09-22T10:58:43Z</time>
      </trkpt>
      <trkpt lat="46.54683" lon="4.841">
        <ele>257</ele>
        <time>2020-09-22T10:58:50Z</time>
      </trkpt>
      <trkpt lat="46.54697" lon="4.84085">
        <ele>257</ele>
        <time>2020-09-22T10:58:54Z</time>
      </trkpt>
      <trkpt lat="46.54709" lon="4.84067">
        <ele>258</ele>
        <time>2020-09-22T10:58:58Z</time>
      </trkpt>
      <trkpt lat="46.54715" lon="4.84042">
        <ele>259</ele>
        <time>2020-09-22T10:59:02Z</time>
      </trkpt>
      <trkpt lat="46.54719" lon="4.84034">
        <ele>259</ele>
        <time>2020-09-22T10:59:04Z</time>
      </trkpt>
      <trkpt lat="46.54726" lon="4.84034">
        <ele>259</ele>
        <time>2020-09-22T10:59:05Z</time>
      </trkpt>
      <trkpt lat="46.54751" lon="4.84054">
        <ele>258</ele>
        <time>2020-09-22T10:59:12Z</time>
      </trkpt>
      <trkpt lat="46.54754" lon="4.84054">
        <ele>259</ele>
        <time>2020-09-22T10:59:13Z</time>
      </trkpt>
      <trkpt lat="46.54775" lon="4.84038">
        <ele>262</ele>
        <time>2020-09-22T10:59:18Z</time>
      </trkpt>
      <trkpt lat="46.54794" lon="4.84027">
        <ele>265</ele>
        <time>2020-09-22T10:59:23Z</time>
      </trkpt>
      <trkpt lat="46.54837" lon="4.84007">
        <ele>271</ele>
        <time>2020-09-22T10:59:34Z</time>
      </trkpt>
      <trkpt lat="46.5485" lon="4.83993">
        <ele>273</ele>
        <time>2020-09-22T10:59:37Z</time>
      </trkpt>
      <trkpt lat="46.54871" lon="4.8398">
        <ele>276</ele>
        <time>2020-09-22T10:59:43Z</time>
      </trkpt>
      <trkpt lat="46.54888" lon="4.83961">
        <ele>278</ele>
        <time>2020-09-22T10:59:48Z</time>
      </trkpt>
      <trkpt lat="46.54897" lon="4.83899">
        <ele>281</ele>
        <time>2020-09-22T10:59:58Z</time>
      </trkpt>
      <trkpt lat="46.54898" lon="4.83877">
        <ele>281</ele>
        <time>2020-09-22T11:00:01Z</time>
      </trkpt>
      <trkpt lat="46.54897" lon="4.83857">
        <ele>281</ele>
        <time>2020-09-22T11:00:05Z</time>
      </trkpt>
      <trkpt lat="46.54872" lon="4.83799">
        <ele>280</ele>
        <time>2020-09-22T11:00:16Z</time>
      </trkpt>
      <trkpt lat="46.54848" lon="4.83728">
        <ele>280</ele>
        <time>2020-09-22T11:00:28Z</time>
      </trkpt>
      <trkpt lat="46.54803" lon="4.83711">
        <ele>277</ele>
        <time>2020-09-22T11:00:39Z</time>
      </trkpt>
      <trkpt lat="46.54737" lon="4.83699">
        <ele>273</ele>
        <time>2020-09-22T11:00:55Z</time>
      </trkpt>
      <trkpt lat="46.54728" lon="4.837">
        <ele>274</ele>
        <time>2020-09-22T11:00:57Z</time>
      </trkpt>
      <trkpt lat="46.54706" lon="4.83718">
        <ele>274</ele>
        <time>2020-09-22T11:01:03Z</time>
      </trkpt>
      <trkpt lat="46.54663" lon="4.83767">
        <ele>274</ele>
        <time>2020-09-22T11:01:16Z</time>
      </trkpt>
      <trkpt lat="46.54638" lon="4.8377">
        <ele>274</ele>
        <time>2020-09-22T11:01:21Z</time>
      </trkpt>
      <trkpt lat="46.5463" lon="4.83773">
        <ele>274</ele>
        <time>2020-09-22T11:01:23Z</time>
      </trkpt>
      <trkpt lat="46.54605" lon="4.83794">
        <ele>273</ele>
        <time>2020-09-22T11:01:30Z</time>
      </trkpt>
      <trkpt lat="46.54594" lon="4.83797">
        <ele>273</ele>
        <time>2020-09-22T11:01:33Z</time>
      </trkpt>
      <trkpt lat="46.54584" lon="4.83792">
        <ele>273</ele>
        <time>2020-09-22T11:01:35Z</time>
      </trkpt>
      <trkpt lat="46.54543" lon="4.83738">
        <ele>274</ele>
        <time>2020-09-22T11:01:48Z</time>
      </trkpt>
      <trkpt lat="46.54559" lon="4.8369">
        <ele>278</ele>
        <time>2020-09-22T11:01:57Z</time>
      </trkpt>
      <trkpt lat="46.54552" lon="4.83672">
        <ele>279</ele>
        <time>2020-09-22T11:02:00Z</time>
      </trkpt>
      <trkpt lat="46.54549" lon="4.83648">
        <ele>280</ele>
        <time>2020-09-22T11:02:04Z</time>
      </trkpt>
      <trkpt lat="46.54543" lon="4.83635">
        <ele>280</ele>
        <time>2020-09-22T11:02:06Z</time>
      </trkpt>
      <trkpt lat="46.54532" lon="4.83622">
        <ele>281</ele>
        <time>2020-09-22T11:02:10Z</time>
      </trkpt>
      <trkpt lat="46.54511" lon="4.83605">
        <ele>281</ele>
        <time>2020-09-22T11:02:15Z</time>
      </trkpt>
      <trkpt lat="46.54509" lon="4.83578">
        <ele>282</ele>
        <time>2020-09-22T11:02:20Z</time>
      </trkpt>
      <trkpt lat="46.54514" lon="4.83538">
        <ele>285</ele>
        <time>2020-09-22T11:02:26Z</time>
      </trkpt>
      <trkpt lat="46.5451" lon="4.83508">
        <ele>286</ele>
        <time>2020-09-22T11:02:31Z</time>
      </trkpt>
      <trkpt lat="46.54468" lon="4.83383">
        <ele>294</ele>
        <time>2020-09-22T11:02:53Z</time>
      </trkpt>
      <trkpt lat="46.54458" lon="4.83361">
        <ele>294</ele>
        <time>2020-09-22T11:02:58Z</time>
      </trkpt>
      <trkpt lat="46.54423" lon="4.83307">
        <ele>295</ele>
        <time>2020-09-22T11:03:10Z</time>
      </trkpt>
      <trkpt lat="46.5441" lon="4.83271">
        <ele>296</ele>
        <time>2020-09-22T11:03:16Z</time>
      </trkpt>
      <trkpt lat="46.54411" lon="4.83262">
        <ele>297</ele>
        <time>2020-09-22T11:03:18Z</time>
      </trkpt>
      <trkpt lat="46.54425" lon="4.83225">
        <ele>301</ele>
        <time>2020-09-22T11:03:24Z</time>
      </trkpt>
      <trkpt lat="46.54431" lon="4.83185">
        <ele>304</ele>
        <time>2020-09-22T11:03:31Z</time>
      </trkpt>
      <trkpt lat="46.5443" lon="4.83161">
        <ele>306</ele>
        <time>2020-09-22T11:03:35Z</time>
      </trkpt>
      <trkpt lat="46.5441" lon="4.83086">
        <ele>309</ele>
        <time>2020-09-22T11:03:48Z</time>
      </trkpt>
      <trkpt lat="46.54407" lon="4.83061">
        <ele>312</ele>
        <time>2020-09-22T11:03:52Z</time>
      </trkpt>
      <trkpt lat="46.54409" lon="4.83046">
        <ele>313</ele>
        <time>2020-09-22T11:03:54Z</time>
      </trkpt>
      <trkpt lat="46.54426" lon="4.82997">
        <ele>319</ele>
        <time>2020-09-22T11:04:03Z</time>
      </trkpt>
      <trkpt lat="46.54471" lon="4.82845">
        <ele>335</ele>
        <time>2020-09-22T11:04:30Z</time>
      </trkpt>
      <trkpt lat="46.54477" lon="4.82799">
        <ele>340</ele>
        <time>2020-09-22T11:04:37Z</time>
      </trkpt>
      <trkpt lat="46.54482" lon="4.82779">
        <ele>342</ele>
        <time>2020-09-22T11:04:41Z</time>
      </trkpt>
      <trkpt lat="46.54488" lon="4.82729">
        <ele>345</ele>
        <time>2020-09-22T11:04:49Z</time>
      </trkpt>
      <trkpt lat="46.54488" lon="4.82677">
        <ele>348</ele>
        <time>2020-09-22T11:04:57Z</time>
      </trkpt>
      <trkpt lat="46.54484" lon="4.82602">
        <ele>348</ele>
        <time>2020-09-22T11:05:09Z</time>
      </trkpt>
      <trkpt lat="46.54488" lon="4.82546">
        <ele>344</ele>
        <time>2020-09-22T11:05:18Z</time>
      </trkpt>
      <trkpt lat="46.54491" lon="4.8254">
        <ele>343</ele>
        <time>2020-09-22T11:05:19Z</time>
      </trkpt>
      <trkpt lat="46.54506" lon="4.82534">
        <ele>342</ele>
        <time>2020-09-22T11:05:23Z</time>
      </trkpt>
      <trkpt lat="46.5452" lon="4.82535">
        <ele>340</ele>
        <time>2020-09-22T11:05:26Z</time>
      </trkpt>
      <trkpt lat="46.54569" lon="4.82549">
        <ele>338</ele>
        <time>2020-09-22T11:05:38Z</time>
      </trkpt>
      <trkpt lat="46.54593" lon="4.82553">
        <ele>337</ele>
        <time>2020-09-22T11:05:44Z</time>
      </trkpt>
      <trkpt lat="46.54607" lon="4.82545">
        <ele>334</ele>
        <time>2020-09-22T11:05:47Z</time>
      </trkpt>
      <trkpt lat="46.54614" lon="4.82535">
        <ele>332</ele>
        <time>2020-09-22T11:05:49Z</time>
      </trkpt>
      <trkpt lat="46.54699" lon="4.82264">
        <ele>304</ele>
        <time>2020-09-22T11:06:37Z</time>
      </trkpt>
      <trkpt lat="46.54623" lon="4.82208">
        <ele>309</ele>
        <time>2020-09-22T11:06:57Z</time>
      </trkpt>
      <trkpt lat="46.54603" lon="4.82197">
        <ele>311</ele>
        <time>2020-09-22T11:07:02Z</time>
      </trkpt>
      <trkpt lat="46.54597" lon="4.8219">
        <ele>312</ele>
        <time>2020-09-22T11:07:04Z</time>
      </trkpt>
      <trkpt lat="46.54601" lon="4.82188">
        <ele>311</ele>
        <time>2020-09-22T11:07:05Z</time>
      </trkpt>
      <trkpt lat="46.5468" lon="4.8225">
        <ele>306</ele>
        <time>2020-09-22T11:07:26Z</time>
      </trkpt>
      <trkpt lat="46.54601" lon="4.82188">
        <ele>311</ele>
        <time>2020-09-22T11:07:47Z</time>
      </trkpt>
      <trkpt lat="46.54616" lon="4.82186">
        <ele>310</ele>
        <time>2020-09-22T11:07:50Z</time>
      </trkpt>
      <trkpt lat="46.54626" lon="4.82189">
        <ele>309</ele>
        <time>2020-09-22T11:07:53Z</time>
      </trkpt>
      <trkpt lat="46.54661" lon="4.82207">
        <ele>306</ele>
        <time>2020-09-22T11:08:01Z</time>
      </trkpt>
      <trkpt lat="46.54692" lon="4.82134">
        <ele>301</ele>
        <time>2020-09-22T11:08:15Z</time>
      </trkpt>
      <trkpt lat="46.5471" lon="4.82079">
        <ele>299</ele>
        <time>2020-09-22T11:08:25Z</time>
      </trkpt>
      <trkpt lat="46.54719" lon="4.82061">
        <ele>300</ele>
        <time>2020-09-22T11:08:29Z</time>
      </trkpt>
      <trkpt lat="46.54801" lon="4.82018">
        <ele>296</ele>
        <time>2020-09-22T11:08:49Z</time>
      </trkpt>
      <trkpt lat="46.5483" lon="4.82012">
        <ele>293</ele>
        <time>2020-09-22T11:08:56Z</time>
      </trkpt>
      <trkpt lat="46.5487" lon="4.81997">
        <ele>290</ele>
        <time>2020-09-22T11:09:05Z</time>
      </trkpt>
      <trkpt lat="46.54908" lon="4.81996">
        <ele>285</ele>
        <time>2020-09-22T11:09:14Z</time>
      </trkpt>
      <trkpt lat="46.5493" lon="4.81989">
        <ele>285</ele>
        <time>2020-09-22T11:09:20Z</time>
      </trkpt>
      <trkpt lat="46.55022" lon="4.81971">
        <ele>287</ele>
        <time>2020-09-22T11:09:41Z</time>
      </trkpt>
      <trkpt lat="46.55036" lon="4.81967">
        <ele>288</ele>
        <time>2020-09-22T11:09:45Z</time>
      </trkpt>
      <trkpt lat="46.55038" lon="4.81958">
        <ele>288</ele>
        <time>2020-09-22T11:09:46Z</time>
      </trkpt>
      <trkpt lat="46.55037" lon="4.81954">
        <ele>288</ele>
        <time>2020-09-22T11:09:47Z</time>
      </trkpt>
      <trkpt lat="46.55013" lon="4.8193">
        <ele>290</ele>
        <time>2020-09-22T11:09:54Z</time>
      </trkpt>
      <trkpt lat="46.54999" lon="4.81909">
        <ele>292</ele>
        <time>2020-09-22T11:09:58Z</time>
      </trkpt>
      <trkpt lat="46.54995" lon="4.81898">
        <ele>293</ele>
        <time>2020-09-22T11:10:00Z</time>
      </trkpt>
      <trkpt lat="46.54993" lon="4.81881">
        <ele>294</ele>
        <time>2020-09-22T11:10:03Z</time>
      </trkpt>
      <trkpt lat="46.55001" lon="4.81838">
        <ele>296</ele>
        <time>2020-09-22T11:10:10Z</time>
      </trkpt>
      <trkpt lat="46.55003" lon="4.81806">
        <ele>297</ele>
        <time>2020-09-22T11:10:15Z</time>
      </trkpt>
      <trkpt lat="46.54994" lon="4.8176">
        <ele>299</ele>
        <time>2020-09-22T11:10:23Z</time>
      </trkpt>
      <trkpt lat="46.54975" lon="4.8171">
        <ele>302</ele>
        <time>2020-09-22T11:10:32Z</time>
      </trkpt>
      <trkpt lat="46.54919" lon="4.81616">
        <ele>312</ele>
        <time>2020-09-22T11:10:52Z</time>
      </trkpt>
      <trkpt lat="46.54901" lon="4.81569">
        <ele>315</ele>
        <time>2020-09-22T11:11:01Z</time>
      </trkpt>
      <trkpt lat="46.54895" lon="4.81543">
        <ele>317</ele>
        <time>2020-09-22T11:11:05Z</time>
      </trkpt>
      <trkpt lat="46.54892" lon="4.81525">
        <ele>318</ele>
        <time>2020-09-22T11:11:08Z</time>
      </trkpt>
      <trkpt lat="46.54897" lon="4.81497">
        <ele>319</ele>
        <time>2020-09-22T11:11:13Z</time>
      </trkpt>
      <trkpt lat="46.54925" lon="4.814">
        <ele>325</ele>
        <time>2020-09-22T11:11:30Z</time>
      </trkpt>
      <trkpt lat="46.54924" lon="4.81387">
        <ele>326</ele>
        <time>2020-09-22T11:11:32Z</time>
      </trkpt>
      <trkpt lat="46.54911" lon="4.81374">
        <ele>328</ele>
        <time>2020-09-22T11:11:36Z</time>
      </trkpt>
      <trkpt lat="46.5489" lon="4.8136">
        <ele>330</ele>
        <time>2020-09-22T11:11:41Z</time>
      </trkpt>
      <trkpt lat="46.54878" lon="4.81346">
        <ele>332</ele>
        <time>2020-09-22T11:11:45Z</time>
      </trkpt>
      <trkpt lat="46.54874" lon="4.81336">
        <ele>333</ele>
        <time>2020-09-22T11:11:46Z</time>
      </trkpt>
      <trkpt lat="46.54867" lon="4.8128">
        <ele>338</ele>
        <time>2020-09-22T11:11:56Z</time>
      </trkpt>
      <trkpt lat="46.54862" lon="4.81262">
        <ele>339</ele>
        <time>2020-09-22T11:11:59Z</time>
      </trkpt>
      <trkpt lat="46.54801" lon="4.81118">
        <ele>349</ele>
        <time>2020-09-22T11:12:26Z</time>
      </trkpt>
      <trkpt lat="46.54788" lon="4.8105">
        <ele>353</ele>
        <time>2020-09-22T11:12:37Z</time>
      </trkpt>
      <trkpt lat="46.54768" lon="4.81006">
        <ele>357</ele>
        <time>2020-09-22T11:12:46Z</time>
      </trkpt>
      <trkpt lat="46.54741" lon="4.80968">
        <ele>359</ele>
        <time>2020-09-22T11:12:54Z</time>
      </trkpt>
      <trkpt lat="46.54733" lon="4.80952">
        <ele>359</ele>
        <time>2020-09-22T11:12:58Z</time>
      </trkpt>
      <trkpt lat="46.54708" lon="4.80884">
        <ele>362</ele>
        <time>2020-09-22T11:13:10Z</time>
      </trkpt>
      <trkpt lat="46.54701" lon="4.80871">
        <ele>362</ele>
        <time>2020-09-22T11:13:13Z</time>
      </trkpt>
      <trkpt lat="46.54671" lon="4.80846">
        <ele>363</ele>
        <time>2020-09-22T11:13:21Z</time>
      </trkpt>
      <trkpt lat="46.54645" lon="4.80816">
        <ele>366</ele>
        <time>2020-09-22T11:13:28Z</time>
      </trkpt>
      <trkpt lat="46.54592" lon="4.80741">
        <ele>371</ele>
        <time>2020-09-22T11:13:46Z</time>
      </trkpt>
      <trkpt lat="46.54557" lon="4.80662">
        <ele>378</ele>
        <time>2020-09-22T11:14:01Z</time>
      </trkpt>
      <trkpt lat="46.54511" lon="4.80584">
        <ele>382</ele>
        <time>2020-09-22T11:14:17Z</time>
      </trkpt>
      <trkpt lat="46.54509" lon="4.80553">
        <ele>382</ele>
        <time>2020-09-22T11:14:22Z</time>
      </trkpt>
      <trkpt lat="46.54507" lon="4.80552">
        <ele>382</ele>
        <time>2020-09-22T11:14:23Z</time>
      </trkpt>
      <trkpt lat="46.54472" lon="4.80405">
        <ele>381</ele>
        <time>2020-09-22T11:14:48Z</time>
      </trkpt>
      <trkpt lat="46.54467" lon="4.80325">
        <ele>380</ele>
        <time>2020-09-22T11:15:01Z</time>
      </trkpt>
      <trkpt lat="46.54462" lon="4.80286">
        <ele>380</ele>
        <time>2020-09-22T11:15:07Z</time>
      </trkpt>
      <trkpt lat="46.54374" lon="4.80213">
        <ele>374</ele>
        <time>2020-09-22T11:15:31Z</time>
      </trkpt>
      <trkpt lat="46.54363" lon="4.80207">
        <ele>373</ele>
        <time>2020-09-22T11:15:33Z</time>
      </trkpt>
      <trkpt lat="46.54365" lon="4.8018">
        <ele>373</ele>
        <time>2020-09-22T11:15:38Z</time>
      </trkpt>
      <trkpt lat="46.54373" lon="4.80139">
        <ele>372</ele>
        <time>2020-09-22T11:15:45Z</time>
      </trkpt>
      <trkpt lat="46.54378" lon="4.80072">
        <ele>369</ele>
        <time>2020-09-22T11:15:56Z</time>
      </trkpt>
      <trkpt lat="46.54387" lon="4.80046">
        <ele>367</ele>
        <time>2020-09-22T11:16:00Z</time>
      </trkpt>
      <trkpt lat="46.54425" lon="4.79997">
        <ele>364</ele>
        <time>2020-09-22T11:16:12Z</time>
      </trkpt>
      <trkpt lat="46.54431" lon="4.79987">
        <ele>363</ele>
        <time>2020-09-22T11:16:14Z</time>
      </trkpt>
      <trkpt lat="46.5443" lon="4.7998">
        <ele>362</ele>
        <time>2020-09-22T11:16:15Z</time>
      </trkpt>
      <trkpt lat="46.54491" lon="4.79907">
        <ele>361</ele>
        <time>2020-09-22T11:16:34Z</time>
      </trkpt>
      <trkpt lat="46.54502" lon="4.79896">
        <ele>360</ele>
        <time>2020-09-22T11:16:37Z</time>
      </trkpt>
      <trkpt lat="46.54563" lon="4.79861">
        <ele>360</ele>
        <time>2020-09-22T11:16:52Z</time>
      </trkpt>
      <trkpt lat="46.54621" lon="4.79798">
        <ele>358</ele>
        <time>2020-09-22T11:17:09Z</time>
      </trkpt>
      <trkpt lat="46.54652" lon="4.79754">
        <ele>358</ele>
        <time>2020-09-22T11:17:19Z</time>
      </trkpt>
      <trkpt lat="46.54676" lon="4.7971">
        <ele>359</ele>
        <time>2020-09-22T11:17:28Z</time>
      </trkpt>
      <trkpt lat="46.54668" lon="4.79711">
        <ele>358</ele>
        <time>2020-09-22T11:17:30Z</time>
      </trkpt>
      <trkpt lat="46.54639" lon="4.79747">
        <ele>354</ele>
        <time>2020-09-22T11:17:39Z</time>
      </trkpt>
      <trkpt lat="46.54626" lon="4.79754">
        <ele>352</ele>
        <time>2020-09-22T11:17:42Z</time>
      </trkpt>
      <trkpt lat="46.54572" lon="4.79772">
        <ele>345</ele>
        <time>2020-09-22T11:17:55Z</time>
      </trkpt>
      <trkpt lat="46.54539" lon="4.79774">
        <ele>342</ele>
        <time>2020-09-22T11:18:03Z</time>
      </trkpt>
      <trkpt lat="46.54534" lon="4.79782">
        <ele>344</ele>
        <time>2020-09-22T11:18:05Z</time>
      </trkpt>
      <trkpt lat="46.54501" lon="4.798">
        <ele>344</ele>
        <time>2020-09-22T11:18:13Z</time>
      </trkpt>
      <trkpt lat="46.54482" lon="4.79806">
        <ele>345</ele>
        <time>2020-09-22T11:18:17Z</time>
      </trkpt>
      <trkpt lat="46.54448" lon="4.79809">
        <ele>344</ele>
        <time>2020-09-22T11:18:25Z</time>
      </trkpt>
      <trkpt lat="46.5442" lon="4.7982">
        <ele>343</ele>
        <time>2020-09-22T11:18:32Z</time>
      </trkpt>
      <trkpt lat="46.54398" lon="4.79841">
        <ele>344</ele>
        <time>2020-09-22T11:18:38Z</time>
      </trkpt>
      <trkpt lat="46.54381" lon="4.79879">
        <ele>348</ele>
        <time>2020-09-22T11:18:46Z</time>
      </trkpt>
      <trkpt lat="46.54363" lon="4.79896">
        <ele>349</ele>
        <time>2020-09-22T11:18:51Z</time>
      </trkpt>
      <trkpt lat="46.54292" lon="4.79937">
        <ele>351</ele>
        <time>2020-09-22T11:19:08Z</time>
      </trkpt>
      <trkpt lat="46.54274" lon="4.79945">
        <ele>352</ele>
        <time>2020-09-22T11:19:13Z</time>
      </trkpt>
      <trkpt lat="46.5426" lon="4.79945">
        <ele>352</ele>
        <time>2020-09-22T11:19:16Z</time>
      </trkpt>
      <trkpt lat="46.54246" lon="4.79936">
        <ele>352</ele>
        <time>2020-09-22T11:19:20Z</time>
      </trkpt>
      <trkpt lat="46.54239" lon="4.79942">
        <ele>352</ele>
        <time>2020-09-22T11:19:22Z</time>
      </trkpt>
      <trkpt lat="46.54224" lon="4.79956">
        <ele>353</ele>
        <time>2020-09-22T11:19:26Z</time>
      </trkpt>
      <trkpt lat="46.54138" lon="4.80058">
        <ele>354</ele>
        <time>2020-09-22T11:19:52Z</time>
      </trkpt>
      <trkpt lat="46.54109" lon="4.80087">
        <ele>353</ele>
        <time>2020-09-22T11:20:00Z</time>
      </trkpt>
      <trkpt lat="46.54093" lon="4.80093">
        <ele>352</ele>
        <time>2020-09-22T11:20:04Z</time>
      </trkpt>
      <trkpt lat="46.54085" lon="4.80093">
        <ele>352</ele>
        <time>2020-09-22T11:20:06Z</time>
      </trkpt>
      <trkpt lat="46.5407" lon="4.80088">
        <ele>350</ele>
        <time>2020-09-22T11:20:09Z</time>
      </trkpt>
      <trkpt lat="46.54058" lon="4.80081">
        <ele>349</ele>
        <time>2020-09-22T11:20:12Z</time>
      </trkpt>
      <trkpt lat="46.5406" lon="4.80155">
        <ele>346</ele>
        <time>2020-09-22T11:20:24Z</time>
      </trkpt>
      <trkpt lat="46.5407" lon="4.80191">
        <ele>346</ele>
        <time>2020-09-22T11:20:30Z</time>
      </trkpt>
      <trkpt lat="46.5407" lon="4.80209">
        <ele>345</ele>
        <time>2020-09-22T11:20:33Z</time>
      </trkpt>
      <trkpt lat="46.54065" lon="4.80222">
        <ele>344</ele>
        <time>2020-09-22T11:20:36Z</time>
      </trkpt>
      <trkpt lat="46.54059" lon="4.80229">
        <ele>343</ele>
        <time>2020-09-22T11:20:37Z</time>
      </trkpt>
      <trkpt lat="46.54029" lon="4.80251">
        <ele>340</ele>
        <time>2020-09-22T11:20:45Z</time>
      </trkpt>
      <trkpt lat="46.54024" lon="4.80251">
        <ele>340</ele>
        <time>2020-09-22T11:20:46Z</time>
      </trkpt>
      <trkpt lat="46.5392" lon="4.80208">
        <ele>337</ele>
        <time>2020-09-22T11:21:12Z</time>
      </trkpt>
      <trkpt lat="46.53891" lon="4.80202">
        <ele>337</ele>
        <time>2020-09-22T11:21:19Z</time>
      </trkpt>
      <trkpt lat="46.53866" lon="4.80202">
        <ele>337</ele>
        <time>2020-09-22T11:21:24Z</time>
      </trkpt>
      <trkpt lat="46.53754" lon="4.80237">
        <ele>342</ele>
        <time>2020-09-22T11:21:51Z</time>
      </trkpt>
      <trkpt lat="46.53734" lon="4.80246">
        <ele>342</ele>
        <time>2020-09-22T11:21:56Z</time>
      </trkpt>
      <trkpt lat="46.53671" lon="4.80264">
        <ele>340</ele>
        <time>2020-09-22T11:22:11Z</time>
      </trkpt>
      <trkpt lat="46.53646" lon="4.80283">
        <ele>339</ele>
        <time>2020-09-22T11:22:18Z</time>
      </trkpt>
      <trkpt lat="46.53622" lon="4.80309">
        <ele>339</ele>
        <time>2020-09-22T11:22:25Z</time>
      </trkpt>
      <trkpt lat="46.5359" lon="4.80367">
        <ele>337</ele>
        <time>2020-09-22T11:22:37Z</time>
      </trkpt>
      <trkpt lat="46.53562" lon="4.80406">
        <ele>333</ele>
        <time>2020-09-22T11:22:46Z</time>
      </trkpt>
      <trkpt lat="46.53537" lon="4.80434">
        <ele>328</ele>
        <time>2020-09-22T11:22:53Z</time>
      </trkpt>
      <trkpt lat="46.53516" lon="4.80469">
        <ele>325</ele>
        <time>2020-09-22T11:23:00Z</time>
      </trkpt>
      <trkpt lat="46.53492" lon="4.8053">
        <ele>321</ele>
        <time>2020-09-22T11:23:12Z</time>
      </trkpt>
      <trkpt lat="46.53441" lon="4.80628">
        <ele>313</ele>
        <time>2020-09-22T11:23:31Z</time>
      </trkpt>
      <trkpt lat="46.53501" lon="4.80651">
        <ele>320</ele>
        <time>2020-09-22T11:23:46Z</time>
      </trkpt>
      <trkpt lat="46.53534" lon="4.80689">
        <ele>322</ele>
        <time>2020-09-22T11:23:56Z</time>
      </trkpt>
      <trkpt lat="46.53556" lon="4.80709">
        <ele>324</ele>
        <time>2020-09-22T11:24:02Z</time>
      </trkpt>
      <trkpt lat="46.53568" lon="4.80724">
        <ele>324</ele>
        <time>2020-09-22T11:24:06Z</time>
      </trkpt>
      <trkpt lat="46.53623" lon="4.80826">
        <ele>324</ele>
        <time>2020-09-22T11:24:26Z</time>
      </trkpt>
      <trkpt lat="46.53649" lon="4.8084">
        <ele>327</ele>
        <time>2020-09-22T11:24:33Z</time>
      </trkpt>
      <trkpt lat="46.53766" lon="4.80883">
        <ele>343</ele>
        <time>2020-09-22T11:25:01Z</time>
      </trkpt>
      <trkpt lat="46.53801" lon="4.80888">
        <ele>348</ele>
        <time>2020-09-22T11:25:09Z</time>
      </trkpt>
      <trkpt lat="46.53828" lon="4.80897">
        <ele>352</ele>
        <time>2020-09-22T11:25:16Z</time>
      </trkpt>
      <trkpt lat="46.53864" lon="4.80902">
        <ele>358</ele>
        <time>2020-09-22T11:25:24Z</time>
      </trkpt>
      <trkpt lat="46.53932" lon="4.80902">
        <ele>369</ele>
        <time>2020-09-22T11:25:40Z</time>
      </trkpt>
      <trkpt lat="46.53972" lon="4.80934">
        <ele>371</ele>
        <time>2020-09-22T11:25:51Z</time>
      </trkpt>
      <trkpt lat="46.54004" lon="4.8094">
        <ele>375</ele>
        <time>2020-09-22T11:25:58Z</time>
      </trkpt>
      <trkpt lat="46.54038" lon="4.80935">
        <ele>380</ele>
        <time>2020-09-22T11:26:06Z</time>
      </trkpt>
      <trkpt lat="46.54092" lon="4.80937">
        <ele>386</ele>
        <time>2020-09-22T11:26:19Z</time>
      </trkpt>
      <trkpt lat="46.54202" lon="4.80985">
        <ele>390</ele>
        <time>2020-09-22T11:26:46Z</time>
      </trkpt>
      <trkpt lat="46.54307" lon="4.81013">
        <ele>394</ele>
        <time>2020-09-22T11:27:11Z</time>
      </trkpt>
      <trkpt lat="46.543" lon="4.8106">
        <ele>387</ele>
        <time>2020-09-22T11:27:18Z</time>
      </trkpt>
      <trkpt lat="46.54281" lon="4.8113">
        <ele>373</ele>
        <time>2020-09-22T11:27:30Z</time>
      </trkpt>
      <trkpt lat="46.54272" lon="4.81142">
        <ele>371</ele>
        <time>2020-09-22T11:27:33Z</time>
      </trkpt>
      <trkpt lat="46.54248" lon="4.81231">
        <ele>366</ele>
        <time>2020-09-22T11:27:49Z</time>
      </trkpt>
      <trkpt lat="46.54182" lon="4.81234">
        <ele>366</ele>
        <time>2020-09-22T11:28:04Z</time>
      </trkpt>
      <trkpt lat="46.54034" lon="4.81415">
        <ele>356</ele>
        <time>2020-09-22T11:28:49Z</time>
      </trkpt>
      <trkpt lat="46.54016" lon="4.81445">
        <ele>351</ele>
        <time>2020-09-22T11:28:56Z</time>
      </trkpt>
      <trkpt lat="46.54005" lon="4.81452">
        <ele>349</ele>
        <time>2020-09-22T11:28:58Z</time>
      </trkpt>
      <trkpt lat="46.53987" lon="4.81448">
        <ele>347</ele>
        <time>2020-09-22T11:29:03Z</time>
      </trkpt>
      <trkpt lat="46.53977" lon="4.81441">
        <ele>347</ele>
        <time>2020-09-22T11:29:05Z</time>
      </trkpt>
      <trkpt lat="46.53956" lon="4.81439">
        <ele>344</ele>
        <time>2020-09-22T11:29:10Z</time>
      </trkpt>
      <trkpt lat="46.53929" lon="4.81451">
        <ele>340</ele>
        <time>2020-09-22T11:29:17Z</time>
      </trkpt>
      <trkpt lat="46.53927" lon="4.81455">
        <ele>339</ele>
        <time>2020-09-22T11:29:18Z</time>
      </trkpt>
      <trkpt lat="46.53925" lon="4.8146">
        <ele>338</ele>
        <time>2020-09-22T11:29:18Z</time>
      </trkpt>
      <trkpt lat="46.53933" lon="4.81491">
        <ele>336</ele>
        <time>2020-09-22T11:29:24Z</time>
      </trkpt>
      <trkpt lat="46.53935" lon="4.8153">
        <ele>332</ele>
        <time>2020-09-22T11:29:30Z</time>
      </trkpt>
      <trkpt lat="46.53944" lon="4.81556">
        <ele>329</ele>
        <time>2020-09-22T11:29:35Z</time>
      </trkpt>
      <trkpt lat="46.53973" lon="4.81609">
        <ele>327</ele>
        <time>2020-09-22T11:29:46Z</time>
      </trkpt>
      <trkpt lat="46.53984" lon="4.81647">
        <ele>324</ele>
        <time>2020-09-22T11:29:52Z</time>
      </trkpt>
      <trkpt lat="46.5395" lon="4.81758">
        <ele>312</ele>
        <time>2020-09-22T11:30:12Z</time>
      </trkpt>
      <trkpt lat="46.53942" lon="4.81774">
        <ele>311</ele>
        <time>2020-09-22T11:30:15Z</time>
      </trkpt>
      <trkpt lat="46.53948" lon="4.81851">
        <ele>305</ele>
        <time>2020-09-22T11:30:27Z</time>
      </trkpt>
      <trkpt lat="46.53912" lon="4.81862">
        <ele>300</ele>
        <time>2020-09-22T11:30:36Z</time>
      </trkpt>
      <trkpt lat="46.53849" lon="4.81868">
        <ele>291</ele>
        <time>2020-09-22T11:30:51Z</time>
      </trkpt>
      <trkpt lat="46.53846" lon="4.81871">
        <ele>290</ele>
        <time>2020-09-22T11:30:52Z</time>
      </trkpt>
      <trkpt lat="46.53846" lon="4.81886">
        <ele>288</ele>
        <time>2020-09-22T11:30:54Z</time>
      </trkpt>
      <trkpt lat="46.53889" lon="4.81943">
        <ele>288</ele>
        <time>2020-09-22T11:31:08Z</time>
      </trkpt>
      <trkpt lat="46.53896" lon="4.8197">
        <ele>286</ele>
        <time>2020-09-22T11:31:12Z</time>
      </trkpt>
      <trkpt lat="46.53897" lon="4.81986">
        <ele>285</ele>
        <time>2020-09-22T11:31:15Z</time>
      </trkpt>
      <trkpt lat="46.53894" lon="4.82">
        <ele>284</ele>
        <time>2020-09-22T11:31:17Z</time>
      </trkpt>
      <trkpt lat="46.5389" lon="4.82014">
        <ele>284</ele>
        <time>2020-09-22T11:31:20Z</time>
      </trkpt>
      <trkpt lat="46.53878" lon="4.82034">
        <ele>285</ele>
        <time>2020-09-22T11:31:24Z</time>
      </trkpt>
      <trkpt lat="46.53815" lon="4.82117">
        <ele>287</ele>
        <time>2020-09-22T11:31:44Z</time>
      </trkpt>
      <trkpt lat="46.53785" lon="4.82149">
        <ele>289</ele>
        <time>2020-09-22T11:31:52Z</time>
      </trkpt>
      <trkpt lat="46.53748" lon="4.82148">
        <ele>287</ele>
        <time>2020-09-22T11:32:01Z</time>
      </trkpt>
      <trkpt lat="46.53706" lon="4.82162">
        <ele>283</ele>
        <time>2020-09-22T11:32:11Z</time>
      </trkpt>
      <trkpt lat="46.53646" lon="4.82152">
        <ele>274</ele>
        <time>2020-09-22T11:32:25Z</time>
      </trkpt>
      <trkpt lat="46.53635" lon="4.82151">
        <ele>273</ele>
        <time>2020-09-22T11:32:28Z</time>
      </trkpt>
      <trkpt lat="46.53627" lon="4.82153">
        <ele>272</ele>
        <time>2020-09-22T11:32:30Z</time>
      </trkpt>
      <trkpt lat="46.53591" lon="4.82175">
        <ele>268</ele>
        <time>2020-09-22T11:32:39Z</time>
      </trkpt>
      <trkpt lat="46.53539" lon="4.82189">
        <ele>266</ele>
        <time>2020-09-22T11:32:51Z</time>
      </trkpt>
      <trkpt lat="46.53515" lon="4.82209">
        <ele>265</ele>
        <time>2020-09-22T11:32:58Z</time>
      </trkpt>
      <trkpt lat="46.53451" lon="4.82255">
        <ele>264</ele>
        <time>2020-09-22T11:33:14Z</time>
      </trkpt>
      <trkpt lat="46.53435" lon="4.82265">
        <ele>264</ele>
        <time>2020-09-22T11:33:18Z</time>
      </trkpt>
      <trkpt lat="46.53427" lon="4.82265">
        <ele>264</ele>
        <time>2020-09-22T11:33:20Z</time>
      </trkpt>
      <trkpt lat="46.53412" lon="4.82243">
        <ele>263</ele>
        <time>2020-09-22T11:33:25Z</time>
      </trkpt>
      <trkpt lat="46.53404" lon="4.82236">
        <ele>263</ele>
        <time>2020-09-22T11:33:27Z</time>
      </trkpt>
      <trkpt lat="46.53382" lon="4.82229">
        <ele>261</ele>
        <time>2020-09-22T11:33:33Z</time>
      </trkpt>
      <trkpt lat="46.53323" lon="4.82218">
        <ele>258</ele>
        <time>2020-09-22T11:33:46Z</time>
      </trkpt>
      <trkpt lat="46.53304" lon="4.82212">
        <ele>258</ele>
        <time>2020-09-22T11:33:51Z</time>
      </trkpt>
      <trkpt lat="46.53282" lon="4.82188">
        <ele>258</ele>
        <time>2020-09-22T11:33:57Z</time>
      </trkpt>
      <trkpt lat="46.53273" lon="4.82191">
        <ele>258</ele>
        <time>2020-09-22T11:34:00Z</time>
      </trkpt>
      <trkpt lat="46.53268" lon="4.822">
        <ele>258</ele>
        <time>2020-09-22T11:34:01Z</time>
      </trkpt>
      <trkpt lat="46.53261" lon="4.822">
        <ele>258</ele>
        <time>2020-09-22T11:34:03Z</time>
      </trkpt>
      <trkpt lat="46.53229" lon="4.82219">
        <ele>258</ele>
        <time>2020-09-22T11:34:11Z</time>
      </trkpt>
      <trkpt lat="46.53219" lon="4.82222">
        <ele>258</ele>
        <time>2020-09-22T11:34:14Z</time>
      </trkpt>
      <trkpt lat="46.5321" lon="4.82221">
        <ele>258</ele>
        <time>2020-09-22T11:34:16Z</time>
      </trkpt>
      <trkpt lat="46.53208" lon="4.82211">
        <ele>259</ele>
        <time>2020-09-22T11:34:17Z</time>
      </trkpt>
      <trkpt lat="46.53209" lon="4.82175">
        <ele>261</ele>
        <time>2020-09-22T11:34:23Z</time>
      </trkpt>
      <trkpt lat="46.53164" lon="4.82119">
        <ele>264</ele>
        <time>2020-09-22T11:34:37Z</time>
      </trkpt>
      <trkpt lat="46.53146" lon="4.82103">
        <ele>263</ele>
        <time>2020-09-22T11:34:42Z</time>
      </trkpt>
      <trkpt lat="46.5313" lon="4.82107">
        <ele>263</ele>
        <time>2020-09-22T11:34:46Z</time>
      </trkpt>
      <trkpt lat="46.53123" lon="4.82106">
        <ele>263</ele>
        <time>2020-09-22T11:34:47Z</time>
      </trkpt>
      <trkpt lat="46.53103" lon="4.82095">
        <ele>263</ele>
        <time>2020-09-22T11:34:52Z</time>
      </trkpt>
      <trkpt lat="46.5309" lon="4.82091">
        <ele>263</ele>
        <time>2020-09-22T11:34:55Z</time>
      </trkpt>
      <trkpt lat="46.53084" lon="4.82091">
        <ele>263</ele>
        <time>2020-09-22T11:34:57Z</time>
      </trkpt>
      <trkpt lat="46.53081" lon="4.82094">
        <ele>263</ele>
        <time>2020-09-22T11:34:58Z</time>
      </trkpt>
      <trkpt lat="46.53078" lon="4.82099">
        <ele>263</ele>
        <time>2020-09-22T11:34:59Z</time>
      </trkpt>
      <trkpt lat="46.53077" lon="4.82113">
        <ele>262</ele>
        <time>2020-09-22T11:35:01Z</time>
      </trkpt>
      <trkpt lat="46.5308" lon="4.82128">
        <ele>261</ele>
        <time>2020-09-22T11:35:03Z</time>
      </trkpt>
      <trkpt lat="46.53087" lon="4.82142">
        <ele>260</ele>
        <time>2020-09-22T11:35:06Z</time>
      </trkpt>
      <trkpt lat="46.53082" lon="4.8216">
        <ele>259</ele>
        <time>2020-09-22T11:35:09Z</time>
      </trkpt>
      <trkpt lat="46.53074" lon="4.82173">
        <ele>259</ele>
        <time>2020-09-22T11:35:12Z</time>
      </trkpt>
      <trkpt lat="46.53025" lon="4.82213">
        <ele>268</ele>
        <time>2020-09-22T11:35:25Z</time>
      </trkpt>
      <trkpt lat="46.53018" lon="4.82225">
        <ele>270</ele>
        <time>2020-09-22T11:35:28Z</time>
      </trkpt>
      <trkpt lat="46.5303" lon="4.8223">
        <ele>269</ele>
        <time>2020-09-22T11:35:31Z</time>
      </trkpt>
      <trkpt lat="46.53036" lon="4.82238">
        <ele>268</ele>
        <time>2020-09-22T11:35:33Z</time>
      </trkpt>
      <trkpt lat="46.53055" lon="4.82285">
        <ele>273</ele>
        <time>2020-09-22T11:35:41Z</time>
      </trkpt>
      <trkpt lat="46.53068" lon="4.8231">
        <ele>274</ele>
        <time>2020-09-22T11:35:46Z</time>
      </trkpt>
      <trkpt lat="46.53084" lon="4.82332">
        <ele>274</ele>
        <time>2020-09-22T11:35:52Z</time>
      </trkpt>
      <trkpt lat="46.53194" lon="4.82448">
        <ele>266</ele>
        <time>2020-09-22T11:36:23Z</time>
      </trkpt>
      <trkpt lat="46.53244" lon="4.82538">
        <ele>262</ele>
        <time>2020-09-22T11:36:42Z</time>
      </trkpt>
      <trkpt lat="46.53256" lon="4.82575">
        <ele>262</ele>
        <time>2020-09-22T11:36:48Z</time>
      </trkpt>
      <trkpt lat="46.5326" lon="4.82602">
        <ele>263</ele>
        <time>2020-09-22T11:36:53Z</time>
      </trkpt>
      <trkpt lat="46.5326" lon="4.82615">
        <ele>263</ele>
        <time>2020-09-22T11:36:55Z</time>
      </trkpt>
      <trkpt lat="46.53255" lon="4.8264">
        <ele>264</ele>
        <time>2020-09-22T11:36:59Z</time>
      </trkpt>
      <trkpt lat="46.53246" lon="4.82665">
        <ele>266</ele>
        <time>2020-09-22T11:37:04Z</time>
      </trkpt>
      <trkpt lat="46.53239" lon="4.82697">
        <ele>268</ele>
        <time>2020-09-22T11:37:09Z</time>
      </trkpt>
      <trkpt lat="46.53237" lon="4.82787">
        <ele>267</ele>
        <time>2020-09-22T11:37:24Z</time>
      </trkpt>
      <trkpt lat="46.53241" lon="4.82871">
        <ele>262</ele>
        <time>2020-09-22T11:37:37Z</time>
      </trkpt>
      <trkpt lat="46.53238" lon="4.82895">
        <ele>261</ele>
        <time>2020-09-22T11:37:41Z</time>
      </trkpt>
      <trkpt lat="46.53211" lon="4.82951">
        <ele>261</ele>
        <time>2020-09-22T11:37:52Z</time>
      </trkpt>
      <trkpt lat="46.53197" lon="4.8297">
        <ele>261</ele>
        <time>2020-09-22T11:37:57Z</time>
      </trkpt>
      <trkpt lat="46.53134" lon="4.83082">
        <ele>257</ele>
        <time>2020-09-22T11:38:20Z</time>
      </trkpt>
      <trkpt lat="46.5312" lon="4.83116">
        <ele>259</ele>
        <time>2020-09-22T11:38:26Z</time>
      </trkpt>
      <trkpt lat="46.53118" lon="4.83133">
        <ele>259</ele>
        <time>2020-09-22T11:38:29Z</time>
      </trkpt>
      <trkpt lat="46.53121" lon="4.83164">
        <ele>260</ele>
        <time>2020-09-22T11:38:34Z</time>
      </trkpt>
      <trkpt lat="46.53127" lon="4.83182">
        <ele>262</ele>
        <time>2020-09-22T11:38:37Z</time>
      </trkpt>
      <trkpt lat="46.53187" lon="4.83243">
        <ele>261</ele>
        <time>2020-09-22T11:38:54Z</time>
      </trkpt>
      <trkpt lat="46.53239" lon="4.83315">
        <ele>265</ele>
        <time>2020-09-22T11:39:11Z</time>
      </trkpt>
      <trkpt lat="46.5323" lon="4.83311">
        <ele>265</ele>
        <time>2020-09-22T11:39:13Z</time>
      </trkpt>
      <trkpt lat="46.53213" lon="4.83296">
        <ele>265</ele>
        <time>2020-09-22T11:39:18Z</time>
      </trkpt>
      <trkpt lat="46.53205" lon="4.83292">
        <ele>265</ele>
        <time>2020-09-22T11:39:20Z</time>
      </trkpt>
      <trkpt lat="46.53191" lon="4.83291">
        <ele>267</ele>
        <time>2020-09-22T11:39:23Z</time>
      </trkpt>
      <trkpt lat="46.53172" lon="4.83305">
        <ele>271</ele>
        <time>2020-09-22T11:39:28Z</time>
      </trkpt>
      <trkpt lat="46.53093" lon="4.8332">
        <ele>279</ele>
        <time>2020-09-22T11:39:47Z</time>
      </trkpt>
      <trkpt lat="46.53043" lon="4.8334">
        <ele>284</ele>
        <time>2020-09-22T11:39:59Z</time>
      </trkpt>
      <trkpt lat="46.53026" lon="4.83351">
        <ele>285</ele>
        <time>2020-09-22T11:40:03Z</time>
      </trkpt>
      <trkpt lat="46.52938" lon="4.83421">
        <ele>291</ele>
        <time>2020-09-22T11:40:27Z</time>
      </trkpt>
      <trkpt lat="46.52865" lon="4.83463">
        <ele>290</ele>
        <time>2020-09-22T11:40:45Z</time>
      </trkpt>
      <trkpt lat="46.5283" lon="4.83491">
        <ele>287</ele>
        <time>2020-09-22T11:40:54Z</time>
      </trkpt>
      <trkpt lat="46.52768" lon="4.83508">
        <ele>282</ele>
        <time>2020-09-22T11:41:09Z</time>
      </trkpt>
      <trkpt lat="46.52723" lon="4.83557">
        <ele>278</ele>
        <time>2020-09-22T11:41:22Z</time>
      </trkpt>
      <trkpt lat="46.52707" lon="4.83565">
        <ele>278</ele>
        <time>2020-09-22T11:41:26Z</time>
      </trkpt>
      <trkpt lat="46.52691" lon="4.83568">
        <ele>278</ele>
        <time>2020-09-22T11:41:30Z</time>
      </trkpt>
      <trkpt lat="46.52649" lon="4.83569">
        <ele>279</ele>
        <time>2020-09-22T11:41:40Z</time>
      </trkpt>
      <trkpt lat="46.52591" lon="4.83576">
        <ele>281</ele>
        <time>2020-09-22T11:41:53Z</time>
      </trkpt>
      <trkpt lat="46.52552" lon="4.83601">
        <ele>282</ele>
        <time>2020-09-22T11:42:03Z</time>
      </trkpt>
      <trkpt lat="46.52546" lon="4.83603">
        <ele>282</ele>
        <time>2020-09-22T11:42:05Z</time>
      </trkpt>
      <trkpt lat="46.52524" lon="4.83603">
        <ele>283</ele>
        <time>2020-09-22T11:42:10Z</time>
      </trkpt>
      <trkpt lat="46.52515" lon="4.83606">
        <ele>284</ele>
        <time>2020-09-22T11:42:12Z</time>
      </trkpt>
      <trkpt lat="46.52511" lon="4.8361">
        <ele>284</ele>
        <time>2020-09-22T11:42:13Z</time>
      </trkpt>
      <trkpt lat="46.52475" lon="4.8369">
        <ele>285</ele>
        <time>2020-09-22T11:42:28Z</time>
      </trkpt>
      <trkpt lat="46.52532" lon="4.83716">
        <ele>281</ele>
        <time>2020-09-22T11:42:42Z</time>
      </trkpt>
      <trkpt lat="46.52545" lon="4.83726">
        <ele>279</ele>
        <time>2020-09-22T11:42:46Z</time>
      </trkpt>
      <trkpt lat="46.52552" lon="4.83736">
        <ele>279</ele>
        <time>2020-09-22T11:42:48Z</time>
      </trkpt>
      <trkpt lat="46.52551" lon="4.83759">
        <ele>278</ele>
        <time>2020-09-22T11:42:52Z</time>
      </trkpt>
      <trkpt lat="46.52555" lon="4.8376">
        <ele>277</ele>
        <time>2020-09-22T11:42:53Z</time>
      </trkpt>
      <trkpt lat="46.5259" lon="4.83789">
        <ele>274</ele>
        <time>2020-09-22T11:43:02Z</time>
      </trkpt>
      <trkpt lat="46.52605" lon="4.83783">
        <ele>273</ele>
        <time>2020-09-22T11:43:06Z</time>
      </trkpt>
      <trkpt lat="46.52617" lon="4.83785">
        <ele>272</ele>
        <time>2020-09-22T11:43:09Z</time>
      </trkpt>
      <trkpt lat="46.52706" lon="4.8382">
        <ele>266</ele>
        <time>2020-09-22T11:43:30Z</time>
      </trkpt>
      <trkpt lat="46.52814" lon="4.83847">
        <ele>267</ele>
        <time>2020-09-22T11:43:56Z</time>
      </trkpt>
      <trkpt lat="46.52804" lon="4.83934">
        <ele>264</ele>
        <time>2020-09-22T11:44:10Z</time>
      </trkpt>
      <trkpt lat="46.52798" lon="4.84017">
        <ele>261</ele>
        <time>2020-09-22T11:44:23Z</time>
      </trkpt>
      <trkpt lat="46.52835" lon="4.84024">
        <ele>261</ele>
        <time>2020-09-22T11:44:32Z</time>
      </trkpt>
      <trkpt lat="46.52781" lon="4.84311">
        <ele>275</ele>
        <time>2020-09-22T11:45:20Z</time>
      </trkpt>
      <trkpt lat="46.52742" lon="4.84422">
        <ele>289</ele>
        <time>2020-09-22T11:45:40Z</time>
      </trkpt>
      <trkpt lat="46.52724" lon="4.84483">
        <ele>291</ele>
        <time>2020-09-22T11:45:50Z</time>
      </trkpt>
      <trkpt lat="46.52701" lon="4.84437">
        <ele>290</ele>
        <time>2020-09-22T11:46:00Z</time>
      </trkpt>
      <trkpt lat="46.52694" lon="4.84418">
        <ele>290</ele>
        <time>2020-09-22T11:46:03Z</time>
      </trkpt>
      <trkpt lat="46.52684" lon="4.84426">
        <ele>290</ele>
        <time>2020-09-22T11:46:06Z</time>
      </trkpt>
      <trkpt lat="46.52668" lon="4.84483">
        <ele>290</ele>
        <time>2020-09-22T11:46:16Z</time>
      </trkpt>
      <trkpt lat="46.52643" lon="4.84551">
        <ele>288</ele>
        <time>2020-09-22T11:46:28Z</time>
      </trkpt>
      <trkpt lat="46.52611" lon="4.846">
        <ele>284</ele>
        <time>2020-09-22T11:46:39Z</time>
      </trkpt>
      <trkpt lat="46.52595" lon="4.84615">
        <ele>282</ele>
        <time>2020-09-22T11:46:43Z</time>
      </trkpt>
      <trkpt lat="46.5256" lon="4.84637">
        <ele>280</ele>
        <time>2020-09-22T11:46:52Z</time>
      </trkpt>
      <trkpt lat="46.52514" lon="4.84674">
        <ele>276</ele>
        <time>2020-09-22T11:47:05Z</time>
      </trkpt>
      <trkpt lat="46.52483" lon="4.84701">
        <ele>274</ele>
        <time>2020-09-22T11:47:13Z</time>
      </trkpt>
      <trkpt lat="46.52461" lon="4.84725">
        <ele>272</ele>
        <time>2020-09-22T11:47:19Z</time>
      </trkpt>
      <trkpt lat="46.52428" lon="4.84872">
        <ele>274</ele>
        <time>2020-09-22T11:47:44Z</time>
      </trkpt>
      <trkpt lat="46.52419" lon="4.84934">
        <ele>278</ele>
        <time>2020-09-22T11:47:54Z</time>
      </trkpt>
      <trkpt lat="46.52411" lon="4.84963">
        <ele>280</ele>
        <time>2020-09-22T11:47:59Z</time>
      </trkpt>
      <trkpt lat="46.52405" lon="4.85011">
        <ele>283</ele>
        <time>2020-09-22T11:48:07Z</time>
      </trkpt>
      <trkpt lat="46.52402" lon="4.85141">
        <ele>293</ele>
        <time>2020-09-22T11:48:28Z</time>
      </trkpt>
      <trkpt lat="46.52404" lon="4.85201">
        <ele>296</ele>
        <time>2020-09-22T11:48:38Z</time>
      </trkpt>
      <trkpt lat="46.52402" lon="4.85226">
        <ele>297</ele>
        <time>2020-09-22T11:48:42Z</time>
      </trkpt>
      <trkpt lat="46.52409" lon="4.85335">
        <ele>303</ele>
        <time>2020-09-22T11:48:59Z</time>
      </trkpt>
      <trkpt lat="46.52411" lon="4.85354">
        <ele>304</ele>
        <time>2020-09-22T11:49:03Z</time>
      </trkpt>
      <trkpt lat="46.5242" lon="4.85392">
        <ele>305</ele>
        <time>2020-09-22T11:49:09Z</time>
      </trkpt>
      <trkpt lat="46.52446" lon="4.85466">
        <ele>307</ele>
        <time>2020-09-22T11:49:22Z</time>
      </trkpt>
      <trkpt lat="46.5245" lon="4.8554">
        <ele>306</ele>
        <time>2020-09-22T11:49:34Z</time>
      </trkpt>
      <trkpt lat="46.52449" lon="4.85573">
        <ele>305</ele>
        <time>2020-09-22T11:49:40Z</time>
      </trkpt>
      <trkpt lat="46.52436" lon="4.85676">
        <ele>304</ele>
        <time>2020-09-22T11:49:56Z</time>
      </trkpt>
      <trkpt lat="46.52434" lon="4.85761">
        <ele>301</ele>
        <time>2020-09-22T11:50:10Z</time>
      </trkpt>
      <trkpt lat="46.52444" lon="4.8583">
        <ele>298</ele>
        <time>2020-09-22T11:50:21Z</time>
      </trkpt>
      <trkpt lat="46.52445" lon="4.85886">
        <ele>297</ele>
        <time>2020-09-22T11:50:30Z</time>
      </trkpt>
      <trkpt lat="46.5244" lon="4.85976">
        <ele>298</ele>
        <time>2020-09-22T11:50:45Z</time>
      </trkpt>
      <trkpt lat="46.52441" lon="4.8602">
        <ele>300</ele>
        <time>2020-09-22T11:50:52Z</time>
      </trkpt>
      <trkpt lat="46.52433" lon="4.86082">
        <ele>304</ele>
        <time>2020-09-22T11:51:02Z</time>
      </trkpt>
      <trkpt lat="46.52432" lon="4.86158">
        <ele>309</ele>
        <time>2020-09-22T11:51:14Z</time>
      </trkpt>
      <trkpt lat="46.52434" lon="4.86173">
        <ele>310</ele>
        <time>2020-09-22T11:51:17Z</time>
      </trkpt>
      <trkpt lat="46.52466" lon="4.86274">
        <ele>313</ele>
        <time>2020-09-22T11:51:35Z</time>
      </trkpt>
      <trkpt lat="46.52475" lon="4.86318">
        <ele>313</ele>
        <time>2020-09-22T11:51:42Z</time>
      </trkpt>
      <trkpt lat="46.52476" lon="4.86359">
        <ele>313</ele>
        <time>2020-09-22T11:51:49Z</time>
      </trkpt>
      <trkpt lat="46.52491" lon="4.86571">
        <ele>317</ele>
        <time>2020-09-22T11:52:23Z</time>
      </trkpt>
      <trkpt lat="46.52496" lon="4.86586">
        <ele>317</ele>
        <time>2020-09-22T11:52:26Z</time>
      </trkpt>
      <trkpt lat="46.52529" lon="4.86642">
        <ele>317</ele>
        <time>2020-09-22T11:52:37Z</time>
      </trkpt>
      <trkpt lat="46.52551" lon="4.86669">
        <ele>317</ele>
        <time>2020-09-22T11:52:44Z</time>
      </trkpt>
      <trkpt lat="46.52566" lon="4.86682">
        <ele>316</ele>
        <time>2020-09-22T11:52:48Z</time>
      </trkpt>
      <trkpt lat="46.52591" lon="4.86754">
        <ele>311</ele>
        <time>2020-09-22T11:53:01Z</time>
      </trkpt>
      <trkpt lat="46.52595" lon="4.86778">
        <ele>308</ele>
        <time>2020-09-22T11:53:05Z</time>
      </trkpt>
      <trkpt lat="46.52598" lon="4.86842">
        <ele>300</ele>
        <time>2020-09-22T11:53:15Z</time>
      </trkpt>
      <trkpt lat="46.52609" lon="4.8687">
        <ele>297</ele>
        <time>2020-09-22T11:53:21Z</time>
      </trkpt>
      <trkpt lat="46.52607" lon="4.87012">
        <ele>278</ele>
        <time>2020-09-22T11:53:43Z</time>
      </trkpt>
      <trkpt lat="46.52602" lon="4.87109">
        <ele>265</ele>
        <time>2020-09-22T11:53:59Z</time>
      </trkpt>
      <trkpt lat="46.52604" lon="4.87126">
        <ele>263</ele>
        <time>2020-09-22T11:54:02Z</time>
      </trkpt>
      <trkpt lat="46.52611" lon="4.87138">
        <ele>262</ele>
        <time>2020-09-22T11:54:04Z</time>
      </trkpt>
      <trkpt lat="46.52626" lon="4.8718">
        <ele>258</ele>
        <time>2020-09-22T11:54:12Z</time>
      </trkpt>
      <trkpt lat="46.5262" lon="4.87204">
        <ele>257</ele>
        <time>2020-09-22T11:54:16Z</time>
      </trkpt>
      <trkpt lat="46.52607" lon="4.87222">
        <ele>257</ele>
        <time>2020-09-22T11:54:20Z</time>
      </trkpt>
      <trkpt lat="46.52615" lon="4.87238">
        <ele>256</ele>
        <time>2020-09-22T11:54:23Z</time>
      </trkpt>
      <trkpt lat="46.52602" lon="4.87278">
        <ele>254</ele>
        <time>2020-09-22T11:54:31Z</time>
      </trkpt>
      <trkpt lat="46.5265" lon="4.87344">
        <ele>251</ele>
        <time>2020-09-22T11:54:46Z</time>
      </trkpt>
      <trkpt lat="46.5268" lon="4.8739">
        <ele>250</ele>
        <time>2020-09-22T11:54:56Z</time>
      </trkpt>
      <trkpt lat="46.52696" lon="4.87401">
        <ele>250</ele>
        <time>2020-09-22T11:55:00Z</time>
      </trkpt>
      <trkpt lat="46.52734" lon="4.87421">
        <ele>249</ele>
        <time>2020-09-22T11:55:10Z</time>
      </trkpt>
      <trkpt lat="46.52745" lon="4.87432">
        <ele>249</ele>
        <time>2020-09-22T11:55:13Z</time>
      </trkpt>
      <trkpt lat="46.52763" lon="4.87417">
        <ele>249</ele>
        <time>2020-09-22T11:55:18Z</time>
      </trkpt>
      <trkpt lat="46.52797" lon="4.87432">
        <ele>251</ele>
        <time>2020-09-22T11:55:26Z</time>
      </trkpt>
      <trkpt lat="46.52814" lon="4.87494">
        <ele>252</ele>
        <time>2020-09-22T11:55:37Z</time>
      </trkpt>
      <trkpt lat="46.52836" lon="4.87608">
        <ele>260</ele>
        <time>2020-09-22T11:55:56Z</time>
      </trkpt>
      <trkpt lat="46.52846" lon="4.87629">
        <ele>262</ele>
        <time>2020-09-22T11:56:00Z</time>
      </trkpt>
      <trkpt lat="46.52858" lon="4.87667">
        <ele>266</ele>
        <time>2020-09-22T11:56:07Z</time>
      </trkpt>
      <trkpt lat="46.52864" lon="4.87666">
        <ele>267</ele>
        <time>2020-09-22T11:56:08Z</time>
      </trkpt>
      <trkpt lat="46.52897" lon="4.87636">
        <ele>270</ele>
        <time>2020-09-22T11:56:17Z</time>
      </trkpt>
      <trkpt lat="46.52954" lon="4.87591">
        <ele>273</ele>
        <time>2020-09-22T11:56:32Z</time>
      </trkpt>
      <trkpt lat="46.52979" lon="4.87577">
        <ele>274</ele>
        <time>2020-09-22T11:56:38Z</time>
      </trkpt>
      <trkpt lat="46.53015" lon="4.87566">
        <ele>276</ele>
        <time>2020-09-22T11:56:47Z</time>
      </trkpt>
      <trkpt lat="46.53007" lon="4.87562">
        <ele>275</ele>
        <time>2020-09-22T11:56:49Z</time>
      </trkpt>
      <trkpt lat="46.53031" lon="4.87572">
        <ele>279</ele>
        <time>2020-09-22T11:56:55Z</time>
      </trkpt>
      <trkpt lat="46.5309" lon="4.87583">
        <ele>286</ele>
        <time>2020-09-22T11:57:09Z</time>
      </trkpt>
      <trkpt lat="46.53125" lon="4.87587">
        <ele>291</ele>
        <time>2020-09-22T11:57:17Z</time>
      </trkpt>
      <trkpt lat="46.53174" lon="4.87607">
        <ele>299</ele>
        <time>2020-09-22T11:57:29Z</time>
      </trkpt>
      <trkpt lat="46.53205" lon="4.87627">
        <ele>302</ele>
        <time>2020-09-22T11:57:37Z</time>
      </trkpt>
      <trkpt lat="46.53214" lon="4.87642">
        <ele>304</ele>
        <time>2020-09-22T11:57:40Z</time>
      </trkpt>
      <trkpt lat="46.53235" lon="4.87666">
        <ele>306</ele>
        <time>2020-09-22T11:57:46Z</time>
      </trkpt>
      <trkpt lat="46.53251" lon="4.87691">
        <ele>305</ele>
        <time>2020-09-22T11:57:52Z</time>
      </trkpt>
      <trkpt lat="46.53272" lon="4.87711">
        <ele>306</ele>
        <time>2020-09-22T11:57:58Z</time>
      </trkpt>
      <trkpt lat="46.53275" lon="4.87703">
        <ele>306</ele>
        <time>2020-09-22T11:57:59Z</time>
      </trkpt>
      <trkpt lat="46.53277" lon="4.87502">
        <ele>294</ele>
        <time>2020-09-22T11:58:31Z</time>
      </trkpt>
      <trkpt lat="46.53281" lon="4.8746">
        <ele>291</ele>
        <time>2020-09-22T11:58:38Z</time>
      </trkpt>
      <trkpt lat="46.53318" lon="4.87457">
        <ele>292</ele>
        <time>2020-09-22T11:58:47Z</time>
      </trkpt>
      <trkpt lat="46.53343" lon="4.87449">
        <ele>293</ele>
        <time>2020-09-22T11:58:53Z</time>
      </trkpt>
      <trkpt lat="46.53427" lon="4.87431">
        <ele>296</ele>
        <time>2020-09-22T11:59:13Z</time>
      </trkpt>
      <trkpt lat="46.53506" lon="4.87418">
        <ele>299</ele>
        <time>2020-09-22T11:59:31Z</time>
      </trkpt>
      <trkpt lat="46.53528" lon="4.87405">
        <ele>299</ele>
        <time>2020-09-22T11:59:37Z</time>
      </trkpt>
      <trkpt lat="46.53594" lon="4.87382">
        <ele>300</ele>
        <time>2020-09-22T11:59:53Z</time>
      </trkpt>
      <trkpt lat="46.53653" lon="4.87378">
        <ele>302</ele>
        <time>2020-09-22T12:00:06Z</time>
      </trkpt>
      <trkpt lat="46.53687" lon="4.87373">
        <ele>303</ele>
        <time>2020-09-22T12:00:14Z</time>
      </trkpt>
      <trkpt lat="46.53775" lon="4.87354">
        <ele>306</ele>
        <time>2020-09-22T12:00:35Z</time>
      </trkpt>
      <trkpt lat="46.538" lon="4.87351">
        <ele>308</ele>
        <time>2020-09-22T12:00:41Z</time>
      </trkpt>
      <trkpt lat="46.5387" lon="4.87366">
        <ele>314</ele>
        <time>2020-09-22T12:00:57Z</time>
      </trkpt>
      <trkpt lat="46.53882" lon="4.87364">
        <ele>314</ele>
        <time>2020-09-22T12:01:00Z</time>
      </trkpt>
      <trkpt lat="46.5391" lon="4.87349">
        <ele>313</ele>
        <time>2020-09-22T12:01:07Z</time>
      </trkpt>
      <trkpt lat="46.53927" lon="4.87346">
        <ele>313</ele>
        <time>2020-09-22T12:01:11Z</time>
      </trkpt>
      <trkpt lat="46.54008" lon="4.87355">
        <ele>315</ele>
        <time>2020-09-22T12:01:30Z</time>
      </trkpt>
      <trkpt lat="46.54042" lon="4.87364">
        <ele>315</ele>
        <time>2020-09-22T12:01:38Z</time>
      </trkpt>
      <trkpt lat="46.54069" lon="4.87368">
        <ele>315</ele>
        <time>2020-09-22T12:01:45Z</time>
      </trkpt>
      <trkpt lat="46.54099" lon="4.87379">
        <ele>315</ele>
        <time>2020-09-22T12:01:52Z</time>
      </trkpt>
      <trkpt lat="46.54144" lon="4.87404">
        <ele>315</ele>
        <time>2020-09-22T12:02:03Z</time>
      </trkpt>
      <trkpt lat="46.54149" lon="4.87403">
        <ele>315</ele>
        <time>2020-09-22T12:02:04Z</time>
      </trkpt>
      <trkpt lat="46.54152" lon="4.87399">
        <ele>314</ele>
        <time>2020-09-22T12:02:05Z</time>
      </trkpt>
      <trkpt lat="46.54159" lon="4.87365">
        <ele>312</ele>
        <time>2020-09-22T12:02:11Z</time>
      </trkpt>
      <trkpt lat="46.54177" lon="4.87323">
        <ele>309</ele>
        <time>2020-09-22T12:02:19Z</time>
      </trkpt>
      <trkpt lat="46.54194" lon="4.87254">
        <ele>309</ele>
        <time>2020-09-22T12:02:31Z</time>
      </trkpt>
      <trkpt lat="46.54235" lon="4.8727">
        <ele>311</ele>
        <time>2020-09-22T12:02:41Z</time>
      </trkpt>
      <trkpt lat="46.54253" lon="4.87274">
        <ele>311</ele>
        <time>2020-09-22T12:02:45Z</time>
      </trkpt>
      <trkpt lat="46.54309" lon="4.8727">
        <ele>314</ele>
        <time>2020-09-22T12:02:58Z</time>
      </trkpt>
      <trkpt lat="46.54317" lon="4.87291">
        <ele>312</ele>
        <time>2020-09-22T12:03:02Z</time>
      </trkpt>
      <trkpt lat="46.5432" lon="4.87308">
        <ele>311</ele>
        <time>2020-09-22T12:03:05Z</time>
      </trkpt>
      <trkpt lat="46.54319" lon="4.87325">
        <ele>309</ele>
        <time>2020-09-22T12:03:07Z</time>
      </trkpt>
      <trkpt lat="46.54299" lon="4.87383">
        <ele>306</ele>
        <time>2020-09-22T12:03:18Z</time>
      </trkpt>
      <trkpt lat="46.54294" lon="4.87408">
        <ele>305</ele>
        <time>2020-09-22T12:03:22Z</time>
      </trkpt>
      <trkpt lat="46.54292" lon="4.87441">
        <ele>305</ele>
        <time>2020-09-22T12:03:27Z</time>
      </trkpt>
      <trkpt lat="46.5432" lon="4.87516">
        <ele>305</ele>
        <time>2020-09-22T12:03:41Z</time>
      </trkpt>
      <trkpt lat="46.54331" lon="4.87539">
        <ele>306</ele>
        <time>2020-09-22T12:03:45Z</time>
      </trkpt>
      <trkpt lat="46.54337" lon="4.87559">
        <ele>306</ele>
        <time>2020-09-22T12:03:49Z</time>
      </trkpt>
      <trkpt lat="46.54366" lon="4.87613">
        <ele>306</ele>
        <time>2020-09-22T12:04:00Z</time>
      </trkpt>
      <trkpt lat="46.5441" lon="4.87674">
        <ele>305</ele>
        <time>2020-09-22T12:04:14Z</time>
      </trkpt>
      <trkpt lat="46.54438" lon="4.87706">
        <ele>306</ele>
        <time>2020-09-22T12:04:22Z</time>
      </trkpt>
      <trkpt lat="46.54477" lon="4.87744">
        <ele>308</ele>
        <time>2020-09-22T12:04:33Z</time>
      </trkpt>
      <trkpt lat="46.54598" lon="4.87846">
        <ele>310</ele>
        <time>2020-09-22T12:05:06Z</time>
      </trkpt>
      <trkpt lat="46.54631" lon="4.87876">
        <ele>312</ele>
        <time>2020-09-22T12:05:15Z</time>
      </trkpt>
      <trkpt lat="46.54648" lon="4.87895">
        <ele>314</ele>
        <time>2020-09-22T12:05:20Z</time>
      </trkpt>
      <trkpt lat="46.54669" lon="4.87912">
        <ele>314</ele>
        <time>2020-09-22T12:05:26Z</time>
      </trkpt>
      <trkpt lat="46.54728" lon="4.87948">
        <ele>314</ele>
        <time>2020-09-22T12:05:41Z</time>
      </trkpt>
      <trkpt lat="46.54795" lon="4.87977">
        <ele>313</ele>
        <time>2020-09-22T12:05:57Z</time>
      </trkpt>
      <trkpt lat="46.54788" lon="4.87983">
        <ele>315</ele>
        <time>2020-09-22T12:05:59Z</time>
      </trkpt>
      <trkpt lat="46.54752" lon="4.87999">
        <ele>320</ele>
        <time>2020-09-22T12:06:08Z</time>
      </trkpt>
      <trkpt lat="46.54731" lon="4.88001">
        <ele>321</ele>
        <time>2020-09-22T12:06:13Z</time>
      </trkpt>
      <trkpt lat="46.54668" lon="4.87975">
        <ele>322</ele>
        <time>2020-09-22T12:06:28Z</time>
      </trkpt>
      <trkpt lat="46.54638" lon="4.87958">
        <ele>322</ele>
        <time>2020-09-22T12:06:36Z</time>
      </trkpt>
      <trkpt lat="46.54616" lon="4.87951">
        <ele>323</ele>
        <time>2020-09-22T12:06:41Z</time>
      </trkpt>
      <trkpt lat="46.54567" lon="4.87929">
        <ele>324</ele>
        <time>2020-09-22T12:06:53Z</time>
      </trkpt>
      <trkpt lat="46.54518" lon="4.87904">
        <ele>325</ele>
        <time>2020-09-22T12:07:05Z</time>
      </trkpt>
      <trkpt lat="46.54511" lon="4.87952">
        <ele>328</ele>
        <time>2020-09-22T12:07:13Z</time>
      </trkpt>
      <trkpt lat="46.54516" lon="4.87975">
        <ele>328</ele>
        <time>2020-09-22T12:07:17Z</time>
      </trkpt>
      <trkpt lat="46.54511" lon="4.87983">
        <ele>329</ele>
        <time>2020-09-22T12:07:18Z</time>
      </trkpt>
      <trkpt lat="46.54495" lon="4.88035">
        <ele>325</ele>
        <time>2020-09-22T12:07:28Z</time>
      </trkpt>
      <trkpt lat="46.545" lon="4.8805">
        <ele>324</ele>
        <time>2020-09-22T12:07:30Z</time>
      </trkpt>
      <trkpt lat="46.54513" lon="4.88077">
        <ele>322</ele>
        <time>2020-09-22T12:07:35Z</time>
      </trkpt>
      <trkpt lat="46.54571" lon="4.88115">
        <ele>320</ele>
        <time>2020-09-22T12:07:50Z</time>
      </trkpt>
      <trkpt lat="46.54623" lon="4.88162">
        <ele>316</ele>
        <time>2020-09-22T12:08:05Z</time>
      </trkpt>
      <trkpt lat="46.54617" lon="4.88179">
        <ele>314</ele>
        <time>2020-09-22T12:08:08Z</time>
      </trkpt>
      <trkpt lat="46.54613" lon="4.88222">
        <ele>310</ele>
        <time>2020-09-22T12:08:15Z</time>
      </trkpt>
      <trkpt lat="46.5461" lon="4.88233">
        <ele>309</ele>
        <time>2020-09-22T12:08:17Z</time>
      </trkpt>
      <trkpt lat="46.5459" lon="4.88276">
        <ele>303</ele>
        <time>2020-09-22T12:08:25Z</time>
      </trkpt>
      <trkpt lat="46.54583" lon="4.88308">
        <ele>298</ele>
        <time>2020-09-22T12:08:30Z</time>
      </trkpt>
      <trkpt lat="46.54576" lon="4.88381">
        <ele>291</ele>
        <time>2020-09-22T12:08:42Z</time>
      </trkpt>
      <trkpt lat="46.54562" lon="4.88417">
        <ele>288</ele>
        <time>2020-09-22T12:08:49Z</time>
      </trkpt>
      <trkpt lat="46.54564" lon="4.88457">
        <ele>285</ele>
        <time>2020-09-22T12:08:55Z</time>
      </trkpt>
      <trkpt lat="46.54542" lon="4.88561">
        <ele>274</ele>
        <time>2020-09-22T12:09:13Z</time>
      </trkpt>
      <trkpt lat="46.54537" lon="4.88625">
        <ele>269</ele>
        <time>2020-09-22T12:09:23Z</time>
      </trkpt>
      <trkpt lat="46.5453" lon="4.8865">
        <ele>267</ele>
        <time>2020-09-22T12:09:27Z</time>
      </trkpt>
      <trkpt lat="46.54519" lon="4.88676">
        <ele>264</ele>
        <time>2020-09-22T12:09:32Z</time>
      </trkpt>
      <trkpt lat="46.54516" lon="4.88694">
        <ele>263</ele>
        <time>2020-09-22T12:09:35Z</time>
      </trkpt>
      <trkpt lat="46.54518" lon="4.88755">
        <ele>260</ele>
        <time>2020-09-22T12:09:45Z</time>
      </trkpt>
      <trkpt lat="46.54508" lon="4.88805">
        <ele>256</ele>
        <time>2020-09-22T12:09:53Z</time>
      </trkpt>
      <trkpt lat="46.54506" lon="4.88881">
        <ele>251</ele>
        <time>2020-09-22T12:10:06Z</time>
      </trkpt>
      <trkpt lat="46.54511" lon="4.88898">
        <ele>250</ele>
        <time>2020-09-22T12:10:09Z</time>
      </trkpt>
      <trkpt lat="46.54525" lon="4.88918">
        <ele>248</ele>
        <time>2020-09-22T12:10:13Z</time>
      </trkpt>
      <trkpt lat="46.54553" lon="4.88949">
        <ele>247</ele>
        <time>2020-09-22T12:10:21Z</time>
      </trkpt>
      <trkpt lat="46.54543" lon="4.89033">
        <ele>240</ele>
        <time>2020-09-22T12:10:35Z</time>
      </trkpt>
      <trkpt lat="46.54535" lon="4.89078">
        <ele>236</ele>
        <time>2020-09-22T12:10:43Z</time>
      </trkpt>
      <trkpt lat="46.54551" lon="4.89099">
        <ele>235</ele>
        <time>2020-09-22T12:10:48Z</time>
      </trkpt>
      <trkpt lat="46.54598" lon="4.89127">
        <ele>234</ele>
        <time>2020-09-22T12:10:59Z</time>
      </trkpt>
      <trkpt lat="46.54673" lon="4.89182">
        <ele>230</ele>
        <time>2020-09-22T12:11:19Z</time>
      </trkpt>
      <trkpt lat="46.54693" lon="4.89203">
        <ele>229</ele>
        <time>2020-09-22T12:11:25Z</time>
      </trkpt>
      <trkpt lat="46.54711" lon="4.89231">
        <ele>228</ele>
        <time>2020-09-22T12:11:31Z</time>
      </trkpt>
      <trkpt lat="46.5477" lon="4.89356">
        <ele>222</ele>
        <time>2020-09-22T12:11:55Z</time>
      </trkpt>
      <trkpt lat="46.54797" lon="4.89421">
        <ele>220</ele>
        <time>2020-09-22T12:12:08Z</time>
      </trkpt>
      <trkpt lat="46.54803" lon="4.89442">
        <ele>220</ele>
        <time>2020-09-22T12:12:11Z</time>
      </trkpt>
      <trkpt lat="46.54805" lon="4.89453">
        <ele>220</ele>
        <time>2020-09-22T12:12:13Z</time>
      </trkpt>
      <trkpt lat="46.548" lon="4.89485">
        <ele>219</ele>
        <time>2020-09-22T12:12:18Z</time>
      </trkpt>
      <trkpt lat="46.5479" lon="4.89521">
        <ele>219</ele>
        <time>2020-09-22T12:12:25Z</time>
      </trkpt>
      <trkpt lat="46.54896" lon="4.89594">
        <ele>217</ele>
        <time>2020-09-22T12:12:52Z</time>
      </trkpt>
      <trkpt lat="46.54978" lon="4.89669">
        <ele>216</ele>
        <time>2020-09-22T12:13:15Z</time>
      </trkpt>
      <trkpt lat="46.55042" lon="4.89707">
        <ele>214</ele>
        <time>2020-09-22T12:13:31Z</time>
      </trkpt>
      <trkpt lat="46.55137" lon="4.89769">
        <ele>209</ele>
        <time>2020-09-22T12:13:55Z</time>
      </trkpt>
      <trkpt lat="46.55155" lon="4.89783">
        <ele>208</ele>
        <time>2020-09-22T12:14:00Z</time>
      </trkpt>
      <trkpt lat="46.55262" lon="4.89913">
        <ele>204</ele>
        <time>2020-09-22T12:14:32Z</time>
      </trkpt>
      <trkpt lat="46.55341" lon="4.90049">
        <ele>203</ele>
        <time>2020-09-22T12:15:01Z</time>
      </trkpt>
      <trkpt lat="46.5539" lon="4.90159">
        <ele>200</ele>
        <time>2020-09-22T12:15:22Z</time>
      </trkpt>
      <trkpt lat="46.5539" lon="4.90168">
        <ele>199</ele>
        <time>2020-09-22T12:15:23Z</time>
      </trkpt>
      <trkpt lat="46.55509" lon="4.90232">
        <ele>197</ele>
        <time>2020-09-22T12:15:53Z</time>
      </trkpt>
      <trkpt lat="46.55535" lon="4.90243">
        <ele>196</ele>
        <time>2020-09-22T12:15:59Z</time>
      </trkpt>
      <trkpt lat="46.55574" lon="4.90255">
        <ele>194</ele>
        <time>2020-09-22T12:16:09Z</time>
      </trkpt>
      <trkpt lat="46.55581" lon="4.9027">
        <ele>194</ele>
        <time>2020-09-22T12:16:12Z</time>
      </trkpt>
      <trkpt lat="46.55579" lon="4.90297">
        <ele>193</ele>
        <time>2020-09-22T12:16:16Z</time>
      </trkpt>
      <trkpt lat="46.55575" lon="4.90311">
        <ele>193</ele>
        <time>2020-09-22T12:16:18Z</time>
      </trkpt>
      <trkpt lat="46.55418" lon="4.90528">
        <ele>189</ele>
        <time>2020-09-22T12:17:09Z</time>
      </trkpt>
      <trkpt lat="46.55388" lon="4.90573">
        <ele>190</ele>
        <time>2020-09-22T12:17:19Z</time>
      </trkpt>
      <trkpt lat="46.55368" lon="4.90608">
        <ele>189</ele>
        <time>2020-09-22T12:17:26Z</time>
      </trkpt>
      <trkpt lat="46.55332" lon="4.90693">
        <ele>188</ele>
        <time>2020-09-22T12:17:42Z</time>
      </trkpt>
      <trkpt lat="46.55255" lon="4.9093">
        <ele>192</ele>
        <time>2020-09-22T12:18:24Z</time>
      </trkpt>
      <trkpt lat="46.55241" lon="4.90982">
        <ele>191</ele>
        <time>2020-09-22T12:18:33Z</time>
      </trkpt>
      <trkpt lat="46.55234" lon="4.91014">
        <ele>191</ele>
        <time>2020-09-22T12:18:39Z</time>
      </trkpt>
      <trkpt lat="46.55223" lon="4.91163">
        <ele>190</ele>
        <time>2020-09-22T12:19:03Z</time>
      </trkpt>
      <trkpt lat="46.55224" lon="4.91185">
        <ele>189</ele>
        <time>2020-09-22T12:19:06Z</time>
      </trkpt>
      <trkpt lat="46.55232" lon="4.91207">
        <ele>188</ele>
        <time>2020-09-22T12:19:10Z</time>
      </trkpt>
      <trkpt lat="46.55233" lon="4.91237">
        <ele>188</ele>
        <time>2020-09-22T12:19:15Z</time>
      </trkpt>
      <trkpt lat="46.55217" lon="4.91334">
        <ele>184</ele>
        <time>2020-09-22T12:19:31Z</time>
      </trkpt>
      <trkpt lat="46.55196" lon="4.91428">
        <ele>185</ele>
        <time>2020-09-22T12:19:47Z</time>
      </trkpt>
      <trkpt lat="46.55192" lon="4.91473">
        <ele>185</ele>
        <time>2020-09-22T12:19:54Z</time>
      </trkpt>
      <trkpt lat="46.55195" lon="4.91492">
        <ele>185</ele>
        <time>2020-09-22T12:19:58Z</time>
      </trkpt>
      <trkpt lat="46.552" lon="4.915">
        <ele>185</ele>
        <time>2020-09-22T12:19:59Z</time>
      </trkpt>
      <trkpt lat="46.55225" lon="4.9152">
        <ele>183</ele>
        <time>2020-09-22T12:20:06Z</time>
      </trkpt>
      <trkpt lat="46.55252" lon="4.91549">
        <ele>182</ele>
        <time>2020-09-22T12:20:14Z</time>
      </trkpt>
      <trkpt lat="46.55254" lon="4.91557">
        <ele>182</ele>
        <time>2020-09-22T12:20:15Z</time>
      </trkpt>
      <trkpt lat="46.55253" lon="4.91574">
        <ele>183</ele>
        <time>2020-09-22T12:20:18Z</time>
      </trkpt>
      <trkpt lat="46.55244" lon="4.91597">
        <ele>183</ele>
        <time>2020-09-22T12:20:22Z</time>
      </trkpt>
      <trkpt lat="46.55256" lon="4.91608">
        <ele>182</ele>
        <time>2020-09-22T12:20:26Z</time>
      </trkpt>
      <trkpt lat="46.5527" lon="4.91618">
        <ele>181</ele>
        <time>2020-09-22T12:20:29Z</time>
      </trkpt>
      <trkpt lat="46.55295" lon="4.91629">
        <ele>179</ele>
        <time>2020-09-22T12:20:35Z</time>
      </trkpt>
      <trkpt lat="46.55318" lon="4.91634">
        <ele>178</ele>
        <time>2020-09-22T12:20:41Z</time>
      </trkpt>
      <trkpt lat="46.55355" lon="4.91627">
        <ele>176</ele>
        <time>2020-09-22T12:20:49Z</time>
      </trkpt>
      <trkpt lat="46.55377" lon="4.91619">
        <ele>176</ele>
        <time>2020-09-22T12:20:55Z</time>
      </trkpt>
      <trkpt lat="46.55384" lon="4.91619">
        <ele>176</ele>
        <time>2020-09-22T12:20:56Z</time>
      </trkpt>
      <trkpt lat="46.55391" lon="4.91625">
        <ele>176</ele>
        <time>2020-09-22T12:20:58Z</time>
      </trkpt>
      <trkpt lat="46.55411" lon="4.91613">
        <ele>175</ele>
        <time>2020-09-22T12:21:03Z</time>
      </trkpt>
      <trkpt lat="46.5543" lon="4.91605">
        <ele>175</ele>
        <time>2020-09-22T12:21:08Z</time>
      </trkpt>
      <trkpt lat="46.55464" lon="4.91593">
        <ele>174</ele>
        <time>2020-09-22T12:21:16Z</time>
      </trkpt>
      <trkpt lat="46.55489" lon="4.91587">
        <ele>174</ele>
        <time>2020-09-22T12:21:22Z</time>
      </trkpt>
      <trkpt lat="46.55523" lon="4.91585">
        <ele>175</ele>
        <time>2020-09-22T12:21:30Z</time>
      </trkpt>
      <trkpt lat="46.55537" lon="4.91591">
        <ele>175</ele>
        <time>2020-09-22T12:21:33Z</time>
      </trkpt>
      <trkpt lat="46.5559" lon="4.91761">
        <ele>174</ele>
        <time>2020-09-22T12:22:03Z</time>
      </trkpt>
      <trkpt lat="46.55673" lon="4.91741">
        <ele>174</ele>
        <time>2020-09-22T12:22:23Z</time>
      </trkpt>
      <trkpt lat="46.55731" lon="4.91718">
        <ele>171</ele>
        <time>2020-09-22T12:22:37Z</time>
      </trkpt>
      <trkpt lat="46.55925" lon="4.91602">
        <ele>175</ele>
        <time>2020-09-22T12:23:26Z</time>
      </trkpt>
      <trkpt lat="46.56021" lon="4.91533">
        <ele>174</ele>
        <time>2020-09-22T12:23:51Z</time>
      </trkpt>
      <trkpt lat="46.56023" lon="4.91539">
        <ele>174</ele>
        <time>2020-09-22T12:23:52Z</time>
      </trkpt>
      <trkpt lat="46.56021" lon="4.91533">
        <ele>174</ele>
        <time>2020-09-22T12:23:53Z</time>
      </trkpt>
      <trkpt lat="46.56024" lon="4.91529">
        <ele>174</ele>
        <time>2020-09-22T12:23:54Z</time>
      </trkpt>
      <trkpt lat="46.56164" lon="4.91384">
        <ele>178</ele>
        <time>2020-09-22T12:24:34Z</time>
      </trkpt>
      <trkpt lat="46.56299" lon="4.91273">
        <ele>179</ele>
        <time>2020-09-22T12:25:10Z</time>
      </trkpt>
      <trkpt lat="46.56332" lon="4.91249">
        <ele>179</ele>
        <time>2020-09-22T12:25:19Z</time>
      </trkpt>
      <trkpt lat="46.56389" lon="4.91216">
        <ele>178</ele>
        <time>2020-09-22T12:25:33Z</time>
      </trkpt>
      <trkpt lat="46.5644" lon="4.91191">
        <ele>178</ele>
        <time>2020-09-22T12:25:46Z</time>
      </trkpt>
      <trkpt lat="46.56469" lon="4.91181">
        <ele>178</ele>
        <time>2020-09-22T12:25:53Z</time>
      </trkpt>
      <trkpt lat="46.56544" lon="4.91139">
        <ele>177</ele>
        <time>2020-09-22T12:26:12Z</time>
      </trkpt>
      <trkpt lat="46.56576" lon="4.91125">
        <ele>176</ele>
        <time>2020-09-22T12:26:19Z</time>
      </trkpt>
      <trkpt lat="46.56625" lon="4.91111">
        <ele>176</ele>
        <time>2020-09-22T12:26:31Z</time>
      </trkpt>
      <trkpt lat="46.5664" lon="4.9111">
        <ele>175</ele>
        <time>2020-09-22T12:26:35Z</time>
      </trkpt>
      <trkpt lat="46.56655" lon="4.91105">
        <ele>175</ele>
        <time>2020-09-22T12:26:38Z</time>
      </trkpt>
      <trkpt lat="46.56687" lon="4.91087">
        <ele>175</ele>
        <time>2020-09-22T12:26:46Z</time>
      </trkpt>
      <trkpt lat="46.56693" lon="4.91104">
        <ele>174</ele>
        <time>2020-09-22T12:26:49Z</time>
      </trkpt>
      <trkpt lat="46.56698" lon="4.91107">
        <ele>173</ele>
        <time>2020-09-22T12:26:51Z</time>
      </trkpt>
      <trkpt lat="46.56791" lon="4.91122">
        <ele>173</ele>
        <time>2020-09-22T12:27:12Z</time>
      </trkpt>
      <trkpt lat="46.57057" lon="4.91205">
        <ele>173</ele>
        <time>2020-09-22T12:28:16Z</time>
      </trkpt>
    </trkseg>
  </trk>
  <trk>
    <name><![CDATA[6 DE_BRANCION_A_LA_COTE_VITICOLE Rouge]]></name>
    <extensions>
      <line xmlns="http://www.topografix.com/GPX/gpx_style/0/2">
        <color>FF00FF</color>
        <width>4</width>
      </line>
    </extensions>
    <trkseg>
      <trkpt lat="46.54476" lon="4.79895">
        <ele>357</ele>
        <time>2020-09-22T10:13:33Z</time>
      </trkpt>
      <trkpt lat="46.54502" lon="4.79896">
        <ele>360</ele>
        <time>2020-09-22T10:13:39Z</time>
      </trkpt>
      <trkpt lat="46.54532" lon="4.7988">
        <ele>360</ele>
        <time>2020-09-22T10:13:47Z</time>
      </trkpt>
      <trkpt lat="46.5457" lon="4.79855">
        <ele>360</ele>
        <time>2020-09-22T10:13:56Z</time>
      </trkpt>
      <trkpt lat="46.54621" lon="4.79798">
        <ele>358</ele>
        <time>2020-09-22T10:14:11Z</time>
      </trkpt>
      <trkpt lat="46.54641" lon="4.79771">
        <ele>358</ele>
        <time>2020-09-22T10:14:18Z</time>
      </trkpt>
      <trkpt lat="46.54676" lon="4.7971">
        <ele>359</ele>
        <time>2020-09-22T10:14:30Z</time>
      </trkpt>
      <trkpt lat="46.54668" lon="4.79711">
        <ele>358</ele>
        <time>2020-09-22T10:14:32Z</time>
      </trkpt>
      <trkpt lat="46.54639" lon="4.79747">
        <ele>354</ele>
        <time>2020-09-22T10:14:41Z</time>
      </trkpt>
      <trkpt lat="46.54626" lon="4.79754">
        <ele>352</ele>
        <time>2020-09-22T10:14:44Z</time>
      </trkpt>
      <trkpt lat="46.54572" lon="4.79772">
        <ele>345</ele>
        <time>2020-09-22T10:14:57Z</time>
      </trkpt>
      <trkpt lat="46.54539" lon="4.79774">
        <ele>342</ele>
        <time>2020-09-22T10:15:05Z</time>
      </trkpt>
      <trkpt lat="46.54534" lon="4.79782">
        <ele>344</ele>
        <time>2020-09-22T10:15:07Z</time>
      </trkpt>
      <trkpt lat="46.54501" lon="4.798">
        <ele>344</ele>
        <time>2020-09-22T10:15:15Z</time>
      </trkpt>
      <trkpt lat="46.54482" lon="4.79806">
        <ele>345</ele>
        <time>2020-09-22T10:15:20Z</time>
      </trkpt>
      <trkpt lat="46.54448" lon="4.79809">
        <ele>344</ele>
        <time>2020-09-22T10:15:28Z</time>
      </trkpt>
      <trkpt lat="46.5442" lon="4.7982">
        <ele>343</ele>
        <time>2020-09-22T10:15:34Z</time>
      </trkpt>
      <trkpt lat="46.54398" lon="4.79841">
        <ele>344</ele>
        <time>2020-09-22T10:15:40Z</time>
      </trkpt>
      <trkpt lat="46.54381" lon="4.79879">
        <ele>348</ele>
        <time>2020-09-22T10:15:48Z</time>
      </trkpt>
      <trkpt lat="46.54363" lon="4.79896">
        <ele>349</ele>
        <time>2020-09-22T10:15:53Z</time>
      </trkpt>
      <trkpt lat="46.54292" lon="4.79937">
        <ele>351</ele>
        <time>2020-09-22T10:16:11Z</time>
      </trkpt>
      <trkpt lat="46.54274" lon="4.79945">
        <ele>352</ele>
        <time>2020-09-22T10:16:15Z</time>
      </trkpt>
      <trkpt lat="46.5426" lon="4.79945">
        <ele>352</ele>
        <time>2020-09-22T10:16:18Z</time>
      </trkpt>
      <trkpt lat="46.54246" lon="4.79936">
        <ele>352</ele>
        <time>2020-09-22T10:16:22Z</time>
      </trkpt>
      <trkpt lat="46.54239" lon="4.79942">
        <ele>352</ele>
        <time>2020-09-22T10:16:24Z</time>
      </trkpt>
      <trkpt lat="46.54224" lon="4.79956">
        <ele>353</ele>
        <time>2020-09-22T10:16:28Z</time>
      </trkpt>
      <trkpt lat="46.54138" lon="4.80058">
        <ele>354</ele>
        <time>2020-09-22T10:16:54Z</time>
      </trkpt>
      <trkpt lat="46.54109" lon="4.80087">
        <ele>353</ele>
        <time>2020-09-22T10:17:02Z</time>
      </trkpt>
      <trkpt lat="46.54093" lon="4.80093">
        <ele>352</ele>
        <time>2020-09-22T10:17:06Z</time>
      </trkpt>
      <trkpt lat="46.54085" lon="4.80093">
        <ele>352</ele>
        <time>2020-09-22T10:17:08Z</time>
      </trkpt>
      <trkpt lat="46.5407" lon="4.80088">
        <ele>350</ele>
        <time>2020-09-22T10:17:11Z</time>
      </trkpt>
      <trkpt lat="46.54058" lon="4.80081">
        <ele>349</ele>
        <time>2020-09-22T10:17:14Z</time>
      </trkpt>
      <trkpt lat="46.5406" lon="4.80155">
        <ele>346</ele>
        <time>2020-09-22T10:17:26Z</time>
      </trkpt>
      <trkpt lat="46.5407" lon="4.80191">
        <ele>346</ele>
        <time>2020-09-22T10:17:33Z</time>
      </trkpt>
      <trkpt lat="46.5407" lon="4.80209">
        <ele>345</ele>
        <time>2020-09-22T10:17:35Z</time>
      </trkpt>
      <trkpt lat="46.54065" lon="4.80222">
        <ele>344</ele>
        <time>2020-09-22T10:17:38Z</time>
      </trkpt>
      <trkpt lat="46.54059" lon="4.80229">
        <ele>343</ele>
        <time>2020-09-22T10:17:40Z</time>
      </trkpt>
      <trkpt lat="46.54029" lon="4.80251">
        <ele>340</ele>
        <time>2020-09-22T10:17:47Z</time>
      </trkpt>
      <trkpt lat="46.54024" lon="4.80251">
        <ele>340</ele>
        <time>2020-09-22T10:17:49Z</time>
      </trkpt>
      <trkpt lat="46.5392" lon="4.80208">
        <ele>337</ele>
        <time>2020-09-22T10:18:14Z</time>
      </trkpt>
      <trkpt lat="46.53891" lon="4.80202">
        <ele>337</ele>
        <time>2020-09-22T10:18:21Z</time>
      </trkpt>
      <trkpt lat="46.53866" lon="4.80202">
        <ele>337</ele>
        <time>2020-09-22T10:18:27Z</time>
      </trkpt>
      <trkpt lat="46.53754" lon="4.80237">
        <ele>342</ele>
        <time>2020-09-22T10:18:53Z</time>
      </trkpt>
      <trkpt lat="46.53734" lon="4.80246">
        <ele>342</ele>
        <time>2020-09-22T10:18:58Z</time>
      </trkpt>
      <trkpt lat="46.53671" lon="4.80264">
        <ele>340</ele>
        <time>2020-09-22T10:19:13Z</time>
      </trkpt>
      <trkpt lat="46.53646" lon="4.80283">
        <ele>339</ele>
        <time>2020-09-22T10:19:20Z</time>
      </trkpt>
      <trkpt lat="46.53622" lon="4.80309">
        <ele>339</ele>
        <time>2020-09-22T10:19:27Z</time>
      </trkpt>
      <trkpt lat="46.5359" lon="4.80367">
        <ele>337</ele>
        <time>2020-09-22T10:19:39Z</time>
      </trkpt>
      <trkpt lat="46.53562" lon="4.80406">
        <ele>333</ele>
        <time>2020-09-22T10:19:48Z</time>
      </trkpt>
      <trkpt lat="46.53537" lon="4.80434">
        <ele>328</ele>
        <time>2020-09-22T10:19:55Z</time>
      </trkpt>
      <trkpt lat="46.53516" lon="4.80469">
        <ele>325</ele>
        <time>2020-09-22T10:20:03Z</time>
      </trkpt>
      <trkpt lat="46.53492" lon="4.8053">
        <ele>321</ele>
        <time>2020-09-22T10:20:14Z</time>
      </trkpt>
      <trkpt lat="46.53441" lon="4.80628">
        <ele>313</ele>
        <time>2020-09-22T10:20:34Z</time>
      </trkpt>
      <trkpt lat="46.53501" lon="4.80651">
        <ele>320</ele>
        <time>2020-09-22T10:20:48Z</time>
      </trkpt>
      <trkpt lat="46.53534" lon="4.80689">
        <ele>322</ele>
        <time>2020-09-22T10:20:58Z</time>
      </trkpt>
      <trkpt lat="46.53556" lon="4.80709">
        <ele>324</ele>
        <time>2020-09-22T10:21:04Z</time>
      </trkpt>
      <trkpt lat="46.53568" lon="4.80724">
        <ele>324</ele>
        <time>2020-09-22T10:21:08Z</time>
      </trkpt>
      <trkpt lat="46.53623" lon="4.80826">
        <ele>324</ele>
        <time>2020-09-22T10:21:29Z</time>
      </trkpt>
      <trkpt lat="46.53649" lon="4.8084">
        <ele>327</ele>
        <time>2020-09-22T10:21:35Z</time>
      </trkpt>
      <trkpt lat="46.53766" lon="4.80883">
        <ele>343</ele>
        <time>2020-09-22T10:22:03Z</time>
      </trkpt>
      <trkpt lat="46.53801" lon="4.80888">
        <ele>348</ele>
        <time>2020-09-22T10:22:11Z</time>
      </trkpt>
      <trkpt lat="46.53828" lon="4.80897">
        <ele>352</ele>
        <time>2020-09-22T10:22:18Z</time>
      </trkpt>
      <trkpt lat="46.53864" lon="4.80902">
        <ele>358</ele>
        <time>2020-09-22T10:22:26Z</time>
      </trkpt>
      <trkpt lat="46.5393" lon="4.80903">
        <ele>369</ele>
        <time>2020-09-22T10:22:42Z</time>
      </trkpt>
      <trkpt lat="46.53973" lon="4.80932">
        <ele>372</ele>
        <time>2020-09-22T10:22:53Z</time>
      </trkpt>
      <trkpt lat="46.54007" lon="4.8094">
        <ele>375</ele>
        <time>2020-09-22T10:23:01Z</time>
      </trkpt>
      <trkpt lat="46.54037" lon="4.80934">
        <ele>380</ele>
        <time>2020-09-22T10:23:08Z</time>
      </trkpt>
      <trkpt lat="46.54092" lon="4.80937">
        <ele>386</ele>
        <time>2020-09-22T10:23:21Z</time>
      </trkpt>
      <trkpt lat="46.54211" lon="4.80988">
        <ele>390</ele>
        <time>2020-09-22T10:23:50Z</time>
      </trkpt>
      <trkpt lat="46.54238" lon="4.80997">
        <ele>391</ele>
        <time>2020-09-22T10:23:56Z</time>
      </trkpt>
      <trkpt lat="46.54309" lon="4.81013">
        <ele>394</ele>
        <time>2020-09-22T10:24:13Z</time>
      </trkpt>
      <trkpt lat="46.543" lon="4.8106">
        <ele>387</ele>
        <time>2020-09-22T10:24:21Z</time>
      </trkpt>
      <trkpt lat="46.54281" lon="4.8113">
        <ele>373</ele>
        <time>2020-09-22T10:24:33Z</time>
      </trkpt>
      <trkpt lat="46.54272" lon="4.81142">
        <ele>371</ele>
        <time>2020-09-22T10:24:36Z</time>
      </trkpt>
      <trkpt lat="46.54248" lon="4.81231">
        <ele>366</ele>
        <time>2020-09-22T10:24:51Z</time>
      </trkpt>
      <trkpt lat="46.54182" lon="4.81234">
        <ele>366</ele>
        <time>2020-09-22T10:25:07Z</time>
      </trkpt>
      <trkpt lat="46.54034" lon="4.81415">
        <ele>356</ele>
        <time>2020-09-22T10:25:52Z</time>
      </trkpt>
      <trkpt lat="46.54016" lon="4.81445">
        <ele>351</ele>
        <time>2020-09-22T10:25:58Z</time>
      </trkpt>
      <trkpt lat="46.54005" lon="4.81452">
        <ele>349</ele>
        <time>2020-09-22T10:26:01Z</time>
      </trkpt>
      <trkpt lat="46.53987" lon="4.81448">
        <ele>347</ele>
        <time>2020-09-22T10:26:05Z</time>
      </trkpt>
      <trkpt lat="46.53977" lon="4.81441">
        <ele>347</ele>
        <time>2020-09-22T10:26:08Z</time>
      </trkpt>
      <trkpt lat="46.53956" lon="4.81439">
        <ele>344</ele>
        <time>2020-09-22T10:26:13Z</time>
      </trkpt>
      <trkpt lat="46.53929" lon="4.81451">
        <ele>340</ele>
        <time>2020-09-22T10:26:19Z</time>
      </trkpt>
      <trkpt lat="46.53927" lon="4.81455">
        <ele>339</ele>
        <time>2020-09-22T10:26:20Z</time>
      </trkpt>
      <trkpt lat="46.53925" lon="4.8146">
        <ele>338</ele>
        <time>2020-09-22T10:26:21Z</time>
      </trkpt>
      <trkpt lat="46.53933" lon="4.81491">
        <ele>336</ele>
        <time>2020-09-22T10:26:26Z</time>
      </trkpt>
      <trkpt lat="46.53935" lon="4.8153">
        <ele>332</ele>
        <time>2020-09-22T10:26:33Z</time>
      </trkpt>
      <trkpt lat="46.53944" lon="4.81556">
        <ele>329</ele>
        <time>2020-09-22T10:26:37Z</time>
      </trkpt>
      <trkpt lat="46.53973" lon="4.81609">
        <ele>327</ele>
        <time>2020-09-22T10:26:48Z</time>
      </trkpt>
      <trkpt lat="46.53984" lon="4.81647">
        <ele>324</ele>
        <time>2020-09-22T10:26:55Z</time>
      </trkpt>
      <trkpt lat="46.5395" lon="4.81758">
        <ele>312</ele>
        <time>2020-09-22T10:27:14Z</time>
      </trkpt>
      <trkpt lat="46.53942" lon="4.81774">
        <ele>311</ele>
        <time>2020-09-22T10:27:17Z</time>
      </trkpt>
      <trkpt lat="46.53948" lon="4.81851">
        <ele>305</ele>
        <time>2020-09-22T10:27:30Z</time>
      </trkpt>
      <trkpt lat="46.53912" lon="4.81862">
        <ele>300</ele>
        <time>2020-09-22T10:27:38Z</time>
      </trkpt>
      <trkpt lat="46.53849" lon="4.81868">
        <ele>291</ele>
        <time>2020-09-22T10:27:53Z</time>
      </trkpt>
      <trkpt lat="46.53846" lon="4.81871">
        <ele>290</ele>
        <time>2020-09-22T10:27:54Z</time>
      </trkpt>
      <trkpt lat="46.53846" lon="4.81886">
        <ele>288</ele>
        <time>2020-09-22T10:27:56Z</time>
      </trkpt>
      <trkpt lat="46.53889" lon="4.81943">
        <ele>288</ele>
        <time>2020-09-22T10:28:10Z</time>
      </trkpt>
      <trkpt lat="46.53896" lon="4.8197">
        <ele>286</ele>
        <time>2020-09-22T10:28:15Z</time>
      </trkpt>
      <trkpt lat="46.53897" lon="4.81986">
        <ele>285</ele>
        <time>2020-09-22T10:28:17Z</time>
      </trkpt>
      <trkpt lat="46.53894" lon="4.82">
        <ele>284</ele>
        <time>2020-09-22T10:28:20Z</time>
      </trkpt>
      <trkpt lat="46.5389" lon="4.82014">
        <ele>284</ele>
        <time>2020-09-22T10:28:22Z</time>
      </trkpt>
      <trkpt lat="46.53878" lon="4.82034">
        <ele>285</ele>
        <time>2020-09-22T10:28:26Z</time>
      </trkpt>
      <trkpt lat="46.53815" lon="4.82117">
        <ele>287</ele>
        <time>2020-09-22T10:28:46Z</time>
      </trkpt>
      <trkpt lat="46.53785" lon="4.82149">
        <ele>289</ele>
        <time>2020-09-22T10:28:55Z</time>
      </trkpt>
      <trkpt lat="46.53748" lon="4.82148">
        <ele>287</ele>
        <time>2020-09-22T10:29:04Z</time>
      </trkpt>
      <trkpt lat="46.53706" lon="4.82162">
        <ele>283</ele>
        <time>2020-09-22T10:29:14Z</time>
      </trkpt>
      <trkpt lat="46.53646" lon="4.82152">
        <ele>274</ele>
        <time>2020-09-22T10:29:28Z</time>
      </trkpt>
      <trkpt lat="46.53635" lon="4.82151">
        <ele>273</ele>
        <time>2020-09-22T10:29:30Z</time>
      </trkpt>
      <trkpt lat="46.53627" lon="4.82153">
        <ele>272</ele>
        <time>2020-09-22T10:29:32Z</time>
      </trkpt>
      <trkpt lat="46.53591" lon="4.82175">
        <ele>268</ele>
        <time>2020-09-22T10:29:41Z</time>
      </trkpt>
      <trkpt lat="46.53539" lon="4.82189">
        <ele>266</ele>
        <time>2020-09-22T10:29:54Z</time>
      </trkpt>
      <trkpt lat="46.53515" lon="4.82209">
        <ele>265</ele>
        <time>2020-09-22T10:30:00Z</time>
      </trkpt>
      <trkpt lat="46.53451" lon="4.82255">
        <ele>264</ele>
        <time>2020-09-22T10:30:17Z</time>
      </trkpt>
      <trkpt lat="46.53435" lon="4.82265">
        <ele>264</ele>
        <time>2020-09-22T10:30:21Z</time>
      </trkpt>
      <trkpt lat="46.53427" lon="4.82265">
        <ele>264</ele>
        <time>2020-09-22T10:30:23Z</time>
      </trkpt>
      <trkpt lat="46.53412" lon="4.82243">
        <ele>263</ele>
        <time>2020-09-22T10:30:28Z</time>
      </trkpt>
      <trkpt lat="46.53404" lon="4.82236">
        <ele>263</ele>
        <time>2020-09-22T10:30:30Z</time>
      </trkpt>
      <trkpt lat="46.53382" lon="4.82229">
        <ele>261</ele>
        <time>2020-09-22T10:30:35Z</time>
      </trkpt>
      <trkpt lat="46.53323" lon="4.82218">
        <ele>258</ele>
        <time>2020-09-22T10:30:49Z</time>
      </trkpt>
      <trkpt lat="46.53304" lon="4.82212">
        <ele>258</ele>
        <time>2020-09-22T10:30:54Z</time>
      </trkpt>
      <trkpt lat="46.53282" lon="4.82188">
        <ele>258</ele>
        <time>2020-09-22T10:31:00Z</time>
      </trkpt>
      <trkpt lat="46.53273" lon="4.82191">
        <ele>258</ele>
        <time>2020-09-22T10:31:02Z</time>
      </trkpt>
      <trkpt lat="46.53268" lon="4.822">
        <ele>258</ele>
        <time>2020-09-22T10:31:04Z</time>
      </trkpt>
      <trkpt lat="46.53261" lon="4.822">
        <ele>258</ele>
        <time>2020-09-22T10:31:06Z</time>
      </trkpt>
      <trkpt lat="46.53229" lon="4.82219">
        <ele>258</ele>
        <time>2020-09-22T10:31:14Z</time>
      </trkpt>
      <trkpt lat="46.53219" lon="4.82222">
        <ele>258</ele>
        <time>2020-09-22T10:31:16Z</time>
      </trkpt>
      <trkpt lat="46.5321" lon="4.82221">
        <ele>258</ele>
        <time>2020-09-22T10:31:18Z</time>
      </trkpt>
      <trkpt lat="46.53208" lon="4.82211">
        <ele>259</ele>
        <time>2020-09-22T10:31:20Z</time>
      </trkpt>
      <trkpt lat="46.53209" lon="4.82175">
        <ele>261</ele>
        <time>2020-09-22T10:31:26Z</time>
      </trkpt>
      <trkpt lat="46.53164" lon="4.82119">
        <ele>264</ele>
        <time>2020-09-22T10:31:39Z</time>
      </trkpt>
      <trkpt lat="46.53146" lon="4.82103">
        <ele>263</ele>
        <time>2020-09-22T10:31:44Z</time>
      </trkpt>
      <trkpt lat="46.5313" lon="4.82107">
        <ele>263</ele>
        <time>2020-09-22T10:31:48Z</time>
      </trkpt>
      <trkpt lat="46.53123" lon="4.82106">
        <ele>263</ele>
        <time>2020-09-22T10:31:50Z</time>
      </trkpt>
      <trkpt lat="46.53103" lon="4.82095">
        <ele>263</ele>
        <time>2020-09-22T10:31:55Z</time>
      </trkpt>
      <trkpt lat="46.5309" lon="4.82091">
        <ele>263</ele>
        <time>2020-09-22T10:31:58Z</time>
      </trkpt>
      <trkpt lat="46.53084" lon="4.82091">
        <ele>263</ele>
        <time>2020-09-22T10:31:59Z</time>
      </trkpt>
      <trkpt lat="46.53081" lon="4.82094">
        <ele>263</ele>
        <time>2020-09-22T10:32:00Z</time>
      </trkpt>
      <trkpt lat="46.53078" lon="4.82099">
        <ele>263</ele>
        <time>2020-09-22T10:32:01Z</time>
      </trkpt>
      <trkpt lat="46.53077" lon="4.82113">
        <ele>262</ele>
        <time>2020-09-22T10:32:04Z</time>
      </trkpt>
      <trkpt lat="46.5308" lon="4.82128">
        <ele>261</ele>
        <time>2020-09-22T10:32:06Z</time>
      </trkpt>
      <trkpt lat="46.53087" lon="4.82142">
        <ele>260</ele>
        <time>2020-09-22T10:32:09Z</time>
      </trkpt>
      <trkpt lat="46.53059" lon="4.82187">
        <ele>261</ele>
        <time>2020-09-22T10:32:19Z</time>
      </trkpt>
      <trkpt lat="46.53026" lon="4.82211">
        <ele>267</ele>
        <time>2020-09-22T10:32:27Z</time>
      </trkpt>
      <trkpt lat="46.53018" lon="4.82225">
        <ele>270</ele>
        <time>2020-09-22T10:32:30Z</time>
      </trkpt>
      <trkpt lat="46.5303" lon="4.8223">
        <ele>269</ele>
        <time>2020-09-22T10:32:33Z</time>
      </trkpt>
      <trkpt lat="46.53036" lon="4.82238">
        <ele>268</ele>
        <time>2020-09-22T10:32:35Z</time>
      </trkpt>
      <trkpt lat="46.53055" lon="4.82285">
        <ele>273</ele>
        <time>2020-09-22T10:32:44Z</time>
      </trkpt>
      <trkpt lat="46.53068" lon="4.8231">
        <ele>274</ele>
        <time>2020-09-22T10:32:49Z</time>
      </trkpt>
      <trkpt lat="46.53084" lon="4.82332">
        <ele>274</ele>
        <time>2020-09-22T10:32:54Z</time>
      </trkpt>
      <trkpt lat="46.53194" lon="4.82448">
        <ele>266</ele>
        <time>2020-09-22T10:33:26Z</time>
      </trkpt>
      <trkpt lat="46.53244" lon="4.82538">
        <ele>262</ele>
        <time>2020-09-22T10:33:44Z</time>
      </trkpt>
      <trkpt lat="46.53256" lon="4.82575">
        <ele>262</ele>
        <time>2020-09-22T10:33:51Z</time>
      </trkpt>
      <trkpt lat="46.5326" lon="4.82602">
        <ele>263</ele>
        <time>2020-09-22T10:33:55Z</time>
      </trkpt>
      <trkpt lat="46.5326" lon="4.82615">
        <ele>263</ele>
        <time>2020-09-22T10:33:57Z</time>
      </trkpt>
      <trkpt lat="46.53255" lon="4.8264">
        <ele>264</ele>
        <time>2020-09-22T10:34:01Z</time>
      </trkpt>
      <trkpt lat="46.53246" lon="4.82665">
        <ele>266</ele>
        <time>2020-09-22T10:34:06Z</time>
      </trkpt>
      <trkpt lat="46.53239" lon="4.82697">
        <ele>268</ele>
        <time>2020-09-22T10:34:11Z</time>
      </trkpt>
      <trkpt lat="46.53237" lon="4.82787">
        <ele>267</ele>
        <time>2020-09-22T10:34:26Z</time>
      </trkpt>
      <trkpt lat="46.53241" lon="4.82871">
        <ele>262</ele>
        <time>2020-09-22T10:34:39Z</time>
      </trkpt>
      <trkpt lat="46.53238" lon="4.82895">
        <ele>261</ele>
        <time>2020-09-22T10:34:43Z</time>
      </trkpt>
      <trkpt lat="46.53211" lon="4.82951">
        <ele>261</ele>
        <time>2020-09-22T10:34:54Z</time>
      </trkpt>
      <trkpt lat="46.53197" lon="4.8297">
        <ele>261</ele>
        <time>2020-09-22T10:34:59Z</time>
      </trkpt>
      <trkpt lat="46.53134" lon="4.83082">
        <ele>257</ele>
        <time>2020-09-22T10:35:22Z</time>
      </trkpt>
      <trkpt lat="46.5312" lon="4.83116">
        <ele>259</ele>
        <time>2020-09-22T10:35:28Z</time>
      </trkpt>
      <trkpt lat="46.53118" lon="4.83133">
        <ele>259</ele>
        <time>2020-09-22T10:35:31Z</time>
      </trkpt>
      <trkpt lat="46.53121" lon="4.83164">
        <ele>260</ele>
        <time>2020-09-22T10:35:36Z</time>
      </trkpt>
      <trkpt lat="46.53127" lon="4.83182">
        <ele>262</ele>
        <time>2020-09-22T10:35:39Z</time>
      </trkpt>
      <trkpt lat="46.53187" lon="4.83243">
        <ele>261</ele>
        <time>2020-09-22T10:35:56Z</time>
      </trkpt>
      <trkpt lat="46.53239" lon="4.83315">
        <ele>265</ele>
        <time>2020-09-22T10:36:13Z</time>
      </trkpt>
      <trkpt lat="46.5323" lon="4.83311">
        <ele>265</ele>
        <time>2020-09-22T10:36:15Z</time>
      </trkpt>
      <trkpt lat="46.53213" lon="4.83296">
        <ele>265</ele>
        <time>2020-09-22T10:36:20Z</time>
      </trkpt>
      <trkpt lat="46.53205" lon="4.83292">
        <ele>265</ele>
        <time>2020-09-22T10:36:22Z</time>
      </trkpt>
      <trkpt lat="46.53191" lon="4.83291">
        <ele>267</ele>
        <time>2020-09-22T10:36:25Z</time>
      </trkpt>
      <trkpt lat="46.53172" lon="4.83305">
        <ele>271</ele>
        <time>2020-09-22T10:36:30Z</time>
      </trkpt>
      <trkpt lat="46.53093" lon="4.8332">
        <ele>279</ele>
        <time>2020-09-22T10:36:49Z</time>
      </trkpt>
      <trkpt lat="46.53043" lon="4.8334">
        <ele>284</ele>
        <time>2020-09-22T10:37:01Z</time>
      </trkpt>
      <trkpt lat="46.53026" lon="4.83351">
        <ele>285</ele>
        <time>2020-09-22T10:37:05Z</time>
      </trkpt>
      <trkpt lat="46.52938" lon="4.83421">
        <ele>291</ele>
        <time>2020-09-22T10:37:29Z</time>
      </trkpt>
      <trkpt lat="46.52865" lon="4.83463">
        <ele>290</ele>
        <time>2020-09-22T10:37:47Z</time>
      </trkpt>
      <trkpt lat="46.5283" lon="4.83491">
        <ele>287</ele>
        <time>2020-09-22T10:37:56Z</time>
      </trkpt>
      <trkpt lat="46.52768" lon="4.83508">
        <ele>282</ele>
        <time>2020-09-22T10:38:11Z</time>
      </trkpt>
      <trkpt lat="46.52723" lon="4.83557">
        <ele>278</ele>
        <time>2020-09-22T10:38:24Z</time>
      </trkpt>
      <trkpt lat="46.52707" lon="4.83565">
        <ele>278</ele>
        <time>2020-09-22T10:38:28Z</time>
      </trkpt>
      <trkpt lat="46.52691" lon="4.83568">
        <ele>278</ele>
        <time>2020-09-22T10:38:32Z</time>
      </trkpt>
      <trkpt lat="46.52649" lon="4.83569">
        <ele>279</ele>
        <time>2020-09-22T10:38:42Z</time>
      </trkpt>
      <trkpt lat="46.52591" lon="4.83576">
        <ele>281</ele>
        <time>2020-09-22T10:38:55Z</time>
      </trkpt>
      <trkpt lat="46.52552" lon="4.83601">
        <ele>282</ele>
        <time>2020-09-22T10:39:05Z</time>
      </trkpt>
      <trkpt lat="46.52546" lon="4.83603">
        <ele>282</ele>
        <time>2020-09-22T10:39:07Z</time>
      </trkpt>
      <trkpt lat="46.52524" lon="4.83603">
        <ele>283</ele>
        <time>2020-09-22T10:39:12Z</time>
      </trkpt>
      <trkpt lat="46.52515" lon="4.83606">
        <ele>284</ele>
        <time>2020-09-22T10:39:14Z</time>
      </trkpt>
      <trkpt lat="46.52511" lon="4.8361">
        <ele>284</ele>
        <time>2020-09-22T10:39:15Z</time>
      </trkpt>
      <trkpt lat="46.52475" lon="4.8369">
        <ele>285</ele>
        <time>2020-09-22T10:39:31Z</time>
      </trkpt>
      <trkpt lat="46.52474" lon="4.83695">
        <ele>285</ele>
        <time>2020-09-22T10:39:31Z</time>
      </trkpt>
      <trkpt lat="46.52475" lon="4.8369">
        <ele>285</ele>
        <time>2020-09-22T10:39:32Z</time>
      </trkpt>
      <trkpt lat="46.52532" lon="4.83716">
        <ele>281</ele>
        <time>2020-09-22T10:39:46Z</time>
      </trkpt>
      <trkpt lat="46.52545" lon="4.83726">
        <ele>279</ele>
        <time>2020-09-22T10:39:50Z</time>
      </trkpt>
      <trkpt lat="46.52552" lon="4.83736">
        <ele>279</ele>
        <time>2020-09-22T10:39:52Z</time>
      </trkpt>
      <trkpt lat="46.52551" lon="4.83759">
        <ele>278</ele>
        <time>2020-09-22T10:39:56Z</time>
      </trkpt>
      <trkpt lat="46.52555" lon="4.8376">
        <ele>277</ele>
        <time>2020-09-22T10:39:57Z</time>
      </trkpt>
      <trkpt lat="46.5259" lon="4.83789">
        <ele>274</ele>
        <time>2020-09-22T10:40:06Z</time>
      </trkpt>
      <trkpt lat="46.52605" lon="4.83783">
        <ele>273</ele>
        <time>2020-09-22T10:40:10Z</time>
      </trkpt>
      <trkpt lat="46.52617" lon="4.83785">
        <ele>272</ele>
        <time>2020-09-22T10:40:13Z</time>
      </trkpt>
      <trkpt lat="46.52706" lon="4.8382">
        <ele>266</ele>
        <time>2020-09-22T10:40:34Z</time>
      </trkpt>
      <trkpt lat="46.52814" lon="4.83847">
        <ele>267</ele>
        <time>2020-09-22T10:41:00Z</time>
      </trkpt>
      <trkpt lat="46.52804" lon="4.83934">
        <ele>264</ele>
        <time>2020-09-22T10:41:14Z</time>
      </trkpt>
      <trkpt lat="46.52798" lon="4.84017">
        <ele>261</ele>
        <time>2020-09-22T10:41:27Z</time>
      </trkpt>
      <trkpt lat="46.52835" lon="4.84024">
        <ele>261</ele>
        <time>2020-09-22T10:41:36Z</time>
      </trkpt>
      <trkpt lat="46.52781" lon="4.84311">
        <ele>275</ele>
        <time>2020-09-22T10:42:24Z</time>
      </trkpt>
      <trkpt lat="46.52742" lon="4.84422">
        <ele>289</ele>
        <time>2020-09-22T10:42:44Z</time>
      </trkpt>
      <trkpt lat="46.52724" lon="4.84483">
        <ele>291</ele>
        <time>2020-09-22T10:42:54Z</time>
      </trkpt>
      <trkpt lat="46.52701" lon="4.84437">
        <ele>290</ele>
        <time>2020-09-22T10:43:04Z</time>
      </trkpt>
      <trkpt lat="46.52694" lon="4.84418">
        <ele>290</ele>
        <time>2020-09-22T10:43:07Z</time>
      </trkpt>
      <trkpt lat="46.52684" lon="4.84426">
        <ele>290</ele>
        <time>2020-09-22T10:43:10Z</time>
      </trkpt>
      <trkpt lat="46.52668" lon="4.84483">
        <ele>290</ele>
        <time>2020-09-22T10:43:20Z</time>
      </trkpt>
      <trkpt lat="46.52643" lon="4.84551">
        <ele>288</ele>
        <time>2020-09-22T10:43:32Z</time>
      </trkpt>
      <trkpt lat="46.52611" lon="4.846">
        <ele>284</ele>
        <time>2020-09-22T10:43:43Z</time>
      </trkpt>
      <trkpt lat="46.52595" lon="4.84615">
        <ele>282</ele>
        <time>2020-09-22T10:43:47Z</time>
      </trkpt>
      <trkpt lat="46.5256" lon="4.84637">
        <ele>280</ele>
        <time>2020-09-22T10:43:56Z</time>
      </trkpt>
      <trkpt lat="46.52514" lon="4.84674">
        <ele>276</ele>
        <time>2020-09-22T10:44:08Z</time>
      </trkpt>
      <trkpt lat="46.52483" lon="4.84701">
        <ele>274</ele>
        <time>2020-09-22T10:44:17Z</time>
      </trkpt>
      <trkpt lat="46.52461" lon="4.84725">
        <ele>272</ele>
        <time>2020-09-22T10:44:23Z</time>
      </trkpt>
      <trkpt lat="46.52428" lon="4.84872">
        <ele>274</ele>
        <time>2020-09-22T10:44:48Z</time>
      </trkpt>
      <trkpt lat="46.52419" lon="4.84934">
        <ele>278</ele>
        <time>2020-09-22T10:44:58Z</time>
      </trkpt>
      <trkpt lat="46.52411" lon="4.84963">
        <ele>280</ele>
        <time>2020-09-22T10:45:03Z</time>
      </trkpt>
      <trkpt lat="46.52407" lon="4.84988">
        <ele>281</ele>
        <time>2020-09-22T10:45:07Z</time>
      </trkpt>
      <trkpt lat="46.52402" lon="4.85141">
        <ele>293</ele>
        <time>2020-09-22T10:45:32Z</time>
      </trkpt>
      <trkpt lat="46.52404" lon="4.85201">
        <ele>296</ele>
        <time>2020-09-22T10:45:42Z</time>
      </trkpt>
      <trkpt lat="46.52402" lon="4.85226">
        <ele>297</ele>
        <time>2020-09-22T10:45:46Z</time>
      </trkpt>
      <trkpt lat="46.52409" lon="4.85335">
        <ele>303</ele>
        <time>2020-09-22T10:46:03Z</time>
      </trkpt>
      <trkpt lat="46.52411" lon="4.85354">
        <ele>304</ele>
        <time>2020-09-22T10:46:06Z</time>
      </trkpt>
      <trkpt lat="46.5242" lon="4.85392">
        <ele>305</ele>
        <time>2020-09-22T10:46:13Z</time>
      </trkpt>
      <trkpt lat="46.52446" lon="4.85466">
        <ele>307</ele>
        <time>2020-09-22T10:46:26Z</time>
      </trkpt>
      <trkpt lat="46.5245" lon="4.8554">
        <ele>306</ele>
        <time>2020-09-22T10:46:38Z</time>
      </trkpt>
      <trkpt lat="46.52449" lon="4.85573">
        <ele>305</ele>
        <time>2020-09-22T10:46:44Z</time>
      </trkpt>
      <trkpt lat="46.52436" lon="4.85676">
        <ele>304</ele>
        <time>2020-09-22T10:47:00Z</time>
      </trkpt>
      <trkpt lat="46.52434" lon="4.85745">
        <ele>302</ele>
        <time>2020-09-22T10:47:11Z</time>
      </trkpt>
      <trkpt lat="46.52435" lon="4.85774">
        <ele>301</ele>
        <time>2020-09-22T10:47:16Z</time>
      </trkpt>
      <trkpt lat="46.52444" lon="4.8583">
        <ele>298</ele>
        <time>2020-09-22T10:47:25Z</time>
      </trkpt>
      <trkpt lat="46.52445" lon="4.85886">
        <ele>297</ele>
        <time>2020-09-22T10:47:34Z</time>
      </trkpt>
      <trkpt lat="46.5244" lon="4.85976">
        <ele>298</ele>
        <time>2020-09-22T10:47:49Z</time>
      </trkpt>
      <trkpt lat="46.52441" lon="4.8602">
        <ele>300</ele>
        <time>2020-09-22T10:47:56Z</time>
      </trkpt>
      <trkpt lat="46.52438" lon="4.86053">
        <ele>302</ele>
        <time>2020-09-22T10:48:01Z</time>
      </trkpt>
      <trkpt lat="46.52434" lon="4.86068">
        <ele>303</ele>
        <time>2020-09-22T10:48:04Z</time>
      </trkpt>
      <trkpt lat="46.52432" lon="4.86105">
        <ele>305</ele>
        <time>2020-09-22T10:48:10Z</time>
      </trkpt>
      <trkpt lat="46.52431" lon="4.86142">
        <ele>308</ele>
        <time>2020-09-22T10:48:16Z</time>
      </trkpt>
      <trkpt lat="46.52434" lon="4.86173">
        <ele>310</ele>
        <time>2020-09-22T10:48:21Z</time>
      </trkpt>
      <trkpt lat="46.52466" lon="4.86274">
        <ele>313</ele>
        <time>2020-09-22T10:48:39Z</time>
      </trkpt>
      <trkpt lat="46.52475" lon="4.86318">
        <ele>313</ele>
        <time>2020-09-22T10:48:46Z</time>
      </trkpt>
      <trkpt lat="46.52489" lon="4.86552">
        <ele>317</ele>
        <time>2020-09-22T10:49:24Z</time>
      </trkpt>
      <trkpt lat="46.52493" lon="4.86579">
        <ele>317</ele>
        <time>2020-09-22T10:49:28Z</time>
      </trkpt>
      <trkpt lat="46.52536" lon="4.86652">
        <ele>317</ele>
        <time>2020-09-22T10:49:44Z</time>
      </trkpt>
      <trkpt lat="46.52566" lon="4.86682">
        <ele>316</ele>
        <time>2020-09-22T10:49:52Z</time>
      </trkpt>
      <trkpt lat="46.52591" lon="4.86754">
        <ele>311</ele>
        <time>2020-09-22T10:50:05Z</time>
      </trkpt>
      <trkpt lat="46.52595" lon="4.86778">
        <ele>308</ele>
        <time>2020-09-22T10:50:09Z</time>
      </trkpt>
      <trkpt lat="46.52598" lon="4.86842">
        <ele>300</ele>
        <time>2020-09-22T10:50:19Z</time>
      </trkpt>
      <trkpt lat="46.52609" lon="4.8687">
        <ele>297</ele>
        <time>2020-09-22T10:50:25Z</time>
      </trkpt>
      <trkpt lat="46.52607" lon="4.87012">
        <ele>278</ele>
        <time>2020-09-22T10:50:47Z</time>
      </trkpt>
      <trkpt lat="46.52602" lon="4.87109">
        <ele>265</ele>
        <time>2020-09-22T10:51:03Z</time>
      </trkpt>
      <trkpt lat="46.52604" lon="4.87126">
        <ele>263</ele>
        <time>2020-09-22T10:51:06Z</time>
      </trkpt>
      <trkpt lat="46.52611" lon="4.87138">
        <ele>262</ele>
        <time>2020-09-22T10:51:08Z</time>
      </trkpt>
      <trkpt lat="46.52626" lon="4.87181">
        <ele>258</ele>
        <time>2020-09-22T10:51:16Z</time>
      </trkpt>
      <trkpt lat="46.5262" lon="4.87204">
        <ele>257</ele>
        <time>2020-09-22T10:51:20Z</time>
      </trkpt>
      <trkpt lat="46.52607" lon="4.87222">
        <ele>257</ele>
        <time>2020-09-22T10:51:24Z</time>
      </trkpt>
      <trkpt lat="46.52615" lon="4.87238">
        <ele>256</ele>
        <time>2020-09-22T10:51:27Z</time>
      </trkpt>
      <trkpt lat="46.52602" lon="4.87278">
        <ele>254</ele>
        <time>2020-09-22T10:51:35Z</time>
      </trkpt>
      <trkpt lat="46.5265" lon="4.87344">
        <ele>251</ele>
        <time>2020-09-22T10:51:50Z</time>
      </trkpt>
      <trkpt lat="46.5268" lon="4.8739">
        <ele>250</ele>
        <time>2020-09-22T10:52:00Z</time>
      </trkpt>
      <trkpt lat="46.52696" lon="4.87401">
        <ele>250</ele>
        <time>2020-09-22T10:52:04Z</time>
      </trkpt>
      <trkpt lat="46.52734" lon="4.87421">
        <ele>249</ele>
        <time>2020-09-22T10:52:14Z</time>
      </trkpt>
      <trkpt lat="46.52745" lon="4.87432">
        <ele>249</ele>
        <time>2020-09-22T10:52:17Z</time>
      </trkpt>
      <trkpt lat="46.52741" lon="4.87436">
        <ele>249</ele>
        <time>2020-09-22T10:52:18Z</time>
      </trkpt>
      <trkpt lat="46.52716" lon="4.87524">
        <ele>248</ele>
        <time>2020-09-22T10:52:33Z</time>
      </trkpt>
      <trkpt lat="46.52694" lon="4.87637">
        <ele>249</ele>
        <time>2020-09-22T10:52:52Z</time>
      </trkpt>
      <trkpt lat="46.52666" lon="4.87804">
        <ele>247</ele>
        <time>2020-09-22T10:53:20Z</time>
      </trkpt>
      <trkpt lat="46.52658" lon="4.87829">
        <ele>247</ele>
        <time>2020-09-22T10:53:24Z</time>
      </trkpt>
      <trkpt lat="46.52647" lon="4.87853">
        <ele>247</ele>
        <time>2020-09-22T10:53:29Z</time>
      </trkpt>
      <trkpt lat="46.52587" lon="4.87808">
        <ele>247</ele>
        <time>2020-09-22T10:53:45Z</time>
      </trkpt>
      <trkpt lat="46.52512" lon="4.87778">
        <ele>262</ele>
        <time>2020-09-22T10:54:03Z</time>
      </trkpt>
      <trkpt lat="46.52465" lon="4.87766">
        <ele>273</ele>
        <time>2020-09-22T10:54:14Z</time>
      </trkpt>
      <trkpt lat="46.52455" lon="4.87773">
        <ele>274</ele>
        <time>2020-09-22T10:54:16Z</time>
      </trkpt>
      <trkpt lat="46.52448" lon="4.878">
        <ele>273</ele>
        <time>2020-09-22T10:54:21Z</time>
      </trkpt>
      <trkpt lat="46.5243" lon="4.87944">
        <ele>268</ele>
        <time>2020-09-22T10:54:45Z</time>
      </trkpt>
      <trkpt lat="46.52427" lon="4.87953">
        <ele>268</ele>
        <time>2020-09-22T10:54:46Z</time>
      </trkpt>
      <trkpt lat="46.52415" lon="4.87962">
        <ele>270</ele>
        <time>2020-09-22T10:54:49Z</time>
      </trkpt>
      <trkpt lat="46.52402" lon="4.87898">
        <ele>276</ele>
        <time>2020-09-22T10:55:00Z</time>
      </trkpt>
      <trkpt lat="46.52394" lon="4.8787">
        <ele>278</ele>
        <time>2020-09-22T10:55:05Z</time>
      </trkpt>
      <trkpt lat="46.52387" lon="4.87861">
        <ele>279</ele>
        <time>2020-09-22T10:55:07Z</time>
      </trkpt>
      <trkpt lat="46.52376" lon="4.87854">
        <ele>281</ele>
        <time>2020-09-22T10:55:10Z</time>
      </trkpt>
      <trkpt lat="46.5236" lon="4.87857">
        <ele>282</ele>
        <time>2020-09-22T10:55:14Z</time>
      </trkpt>
      <trkpt lat="46.52303" lon="4.87875">
        <ele>282</ele>
        <time>2020-09-22T10:55:27Z</time>
      </trkpt>
      <trkpt lat="46.52251" lon="4.87882">
        <ele>281</ele>
        <time>2020-09-22T10:55:40Z</time>
      </trkpt>
      <trkpt lat="46.52222" lon="4.87882">
        <ele>279</ele>
        <time>2020-09-22T10:55:46Z</time>
      </trkpt>
      <trkpt lat="46.52199" lon="4.87885">
        <ele>277</ele>
        <time>2020-09-22T10:55:52Z</time>
      </trkpt>
      <trkpt lat="46.52139" lon="4.87905">
        <ele>273</ele>
        <time>2020-09-22T10:56:06Z</time>
      </trkpt>
      <trkpt lat="46.52074" lon="4.87911">
        <ele>272</ele>
        <time>2020-09-22T10:56:21Z</time>
      </trkpt>
      <trkpt lat="46.52034" lon="4.87918">
        <ele>271</ele>
        <time>2020-09-22T10:56:31Z</time>
      </trkpt>
      <trkpt lat="46.51977" lon="4.87932">
        <ele>268</ele>
        <time>2020-09-22T10:56:44Z</time>
      </trkpt>
      <trkpt lat="46.51964" lon="4.87937">
        <ele>267</ele>
        <time>2020-09-22T10:56:47Z</time>
      </trkpt>
      <trkpt lat="46.51828" lon="4.88087">
        <ele>259</ele>
        <time>2020-09-22T10:57:27Z</time>
      </trkpt>
      <trkpt lat="46.5181" lon="4.8811">
        <ele>259</ele>
        <time>2020-09-22T10:57:33Z</time>
      </trkpt>
      <trkpt lat="46.51771" lon="4.88169">
        <ele>263</ele>
        <time>2020-09-22T10:57:46Z</time>
      </trkpt>
      <trkpt lat="46.51713" lon="4.88138">
        <ele>267</ele>
        <time>2020-09-22T10:58:00Z</time>
      </trkpt>
      <trkpt lat="46.51652" lon="4.88096">
        <ele>270</ele>
        <time>2020-09-22T10:58:16Z</time>
      </trkpt>
      <trkpt lat="46.5161" lon="4.88076">
        <ele>272</ele>
        <time>2020-09-22T10:58:26Z</time>
      </trkpt>
      <trkpt lat="46.51584" lon="4.88073">
        <ele>274</ele>
        <time>2020-09-22T10:58:33Z</time>
      </trkpt>
      <trkpt lat="46.5154" lon="4.88072">
        <ele>276</ele>
        <time>2020-09-22T10:58:43Z</time>
      </trkpt>
      <trkpt lat="46.51472" lon="4.88064">
        <ele>278</ele>
        <time>2020-09-22T10:58:59Z</time>
      </trkpt>
      <trkpt lat="46.51477" lon="4.88054">
        <ele>277</ele>
        <time>2020-09-22T10:59:01Z</time>
      </trkpt>
      <trkpt lat="46.51481" lon="4.88013">
        <ele>274</ele>
        <time>2020-09-22T10:59:07Z</time>
      </trkpt>
      <trkpt lat="46.51479" lon="4.88">
        <ele>273</ele>
        <time>2020-09-22T10:59:10Z</time>
      </trkpt>
      <trkpt lat="46.51462" lon="4.87962">
        <ele>273</ele>
        <time>2020-09-22T10:59:17Z</time>
      </trkpt>
      <trkpt lat="46.51459" lon="4.8795">
        <ele>273</ele>
        <time>2020-09-22T10:59:19Z</time>
      </trkpt>
      <trkpt lat="46.51459" lon="4.87934">
        <ele>272</ele>
        <time>2020-09-22T10:59:21Z</time>
      </trkpt>
      <trkpt lat="46.51475" lon="4.87857">
        <ele>271</ele>
        <time>2020-09-22T10:59:34Z</time>
      </trkpt>
      <trkpt lat="46.51485" lon="4.8782">
        <ele>272</ele>
        <time>2020-09-22T10:59:41Z</time>
      </trkpt>
      <trkpt lat="46.51493" lon="4.878">
        <ele>274</ele>
        <time>2020-09-22T10:59:44Z</time>
      </trkpt>
      <trkpt lat="46.51519" lon="4.87752">
        <ele>276</ele>
        <time>2020-09-22T10:59:54Z</time>
      </trkpt>
      <trkpt lat="46.5154" lon="4.87689">
        <ele>280</ele>
        <time>2020-09-22T11:00:06Z</time>
      </trkpt>
      <trkpt lat="46.51551" lon="4.87632">
        <ele>284</ele>
        <time>2020-09-22T11:00:15Z</time>
      </trkpt>
      <trkpt lat="46.51559" lon="4.87547">
        <ele>289</ele>
        <time>2020-09-22T11:00:29Z</time>
      </trkpt>
      <trkpt lat="46.51567" lon="4.87495">
        <ele>290</ele>
        <time>2020-09-22T11:00:37Z</time>
      </trkpt>
      <trkpt lat="46.5158" lon="4.8746">
        <ele>290</ele>
        <time>2020-09-22T11:00:44Z</time>
      </trkpt>
      <trkpt lat="46.516" lon="4.87423">
        <ele>291</ele>
        <time>2020-09-22T11:00:51Z</time>
      </trkpt>
      <trkpt lat="46.51602" lon="4.87413">
        <ele>292</ele>
        <time>2020-09-22T11:00:53Z</time>
      </trkpt>
      <trkpt lat="46.5159" lon="4.873">
        <ele>292</ele>
        <time>2020-09-22T11:01:11Z</time>
      </trkpt>
      <trkpt lat="46.5159" lon="4.87274">
        <ele>292</ele>
        <time>2020-09-22T11:01:16Z</time>
      </trkpt>
      <trkpt lat="46.51582" lon="4.87285">
        <ele>291</ele>
        <time>2020-09-22T11:01:18Z</time>
      </trkpt>
      <trkpt lat="46.51561" lon="4.87301">
        <ele>292</ele>
        <time>2020-09-22T11:01:24Z</time>
      </trkpt>
      <trkpt lat="46.51547" lon="4.87315">
        <ele>293</ele>
        <time>2020-09-22T11:01:28Z</time>
      </trkpt>
      <trkpt lat="46.51526" lon="4.87416">
        <ele>297</ele>
        <time>2020-09-22T11:01:45Z</time>
      </trkpt>
      <trkpt lat="46.51491" lon="4.87457">
        <ele>300</ele>
        <time>2020-09-22T11:01:55Z</time>
      </trkpt>
      <trkpt lat="46.51409" lon="4.87363">
        <ele>312</ele>
        <time>2020-09-22T11:02:20Z</time>
      </trkpt>
      <trkpt lat="46.51404" lon="4.87341">
        <ele>313</ele>
        <time>2020-09-22T11:02:23Z</time>
      </trkpt>
      <trkpt lat="46.51395" lon="4.87325">
        <ele>313</ele>
        <time>2020-09-22T11:02:27Z</time>
      </trkpt>
      <trkpt lat="46.51387" lon="4.87317">
        <ele>312</ele>
        <time>2020-09-22T11:02:29Z</time>
      </trkpt>
      <trkpt lat="46.51366" lon="4.87305">
        <ele>313</ele>
        <time>2020-09-22T11:02:34Z</time>
      </trkpt>
      <trkpt lat="46.51312" lon="4.87281">
        <ele>314</ele>
        <time>2020-09-22T11:02:47Z</time>
      </trkpt>
      <trkpt lat="46.51288" lon="4.87262">
        <ele>314</ele>
        <time>2020-09-22T11:02:54Z</time>
      </trkpt>
      <trkpt lat="46.51248" lon="4.87252">
        <ele>315</ele>
        <time>2020-09-22T11:03:03Z</time>
      </trkpt>
      <trkpt lat="46.5122" lon="4.87226">
        <ele>311</ele>
        <time>2020-09-22T11:03:11Z</time>
      </trkpt>
      <trkpt lat="46.51171" lon="4.87206">
        <ele>309</ele>
        <time>2020-09-22T11:03:23Z</time>
      </trkpt>
      <trkpt lat="46.51145" lon="4.87199">
        <ele>308</ele>
        <time>2020-09-22T11:03:29Z</time>
      </trkpt>
      <trkpt lat="46.51116" lon="4.87198">
        <ele>308</ele>
        <time>2020-09-22T11:03:36Z</time>
      </trkpt>
      <trkpt lat="46.51095" lon="4.87192">
        <ele>307</ele>
        <time>2020-09-22T11:03:41Z</time>
      </trkpt>
      <trkpt lat="46.51079" lon="4.87192">
        <ele>307</ele>
        <time>2020-09-22T11:03:44Z</time>
      </trkpt>
      <trkpt lat="46.51048" lon="4.87186">
        <ele>305</ele>
        <time>2020-09-22T11:03:52Z</time>
      </trkpt>
      <trkpt lat="46.51001" lon="4.87163">
        <ele>302</ele>
        <time>2020-09-22T11:04:03Z</time>
      </trkpt>
      <trkpt lat="46.50986" lon="4.87154">
        <ele>299</ele>
        <time>2020-09-22T11:04:07Z</time>
      </trkpt>
      <trkpt lat="46.50966" lon="4.87137">
        <ele>296</ele>
        <time>2020-09-22T11:04:13Z</time>
      </trkpt>
      <trkpt lat="46.50944" lon="4.87128">
        <ele>294</ele>
        <time>2020-09-22T11:04:18Z</time>
      </trkpt>
      <trkpt lat="46.50909" lon="4.87119">
        <ele>292</ele>
        <time>2020-09-22T11:04:26Z</time>
      </trkpt>
      <trkpt lat="46.50892" lon="4.87117">
        <ele>291</ele>
        <time>2020-09-22T11:04:30Z</time>
      </trkpt>
      <trkpt lat="46.50859" lon="4.87106">
        <ele>289</ele>
        <time>2020-09-22T11:04:38Z</time>
      </trkpt>
      <trkpt lat="46.50831" lon="4.8712">
        <ele>286</ele>
        <time>2020-09-22T11:04:45Z</time>
      </trkpt>
      <trkpt lat="46.50799" lon="4.87116">
        <ele>283</ele>
        <time>2020-09-22T11:04:53Z</time>
      </trkpt>
      <trkpt lat="46.50765" lon="4.87118">
        <ele>279</ele>
        <time>2020-09-22T11:05:00Z</time>
      </trkpt>
      <trkpt lat="46.50735" lon="4.87114">
        <ele>276</ele>
        <time>2020-09-22T11:05:08Z</time>
      </trkpt>
      <trkpt lat="46.50714" lon="4.87096">
        <ele>272</ele>
        <time>2020-09-22T11:05:13Z</time>
      </trkpt>
      <trkpt lat="46.50709" lon="4.87113">
        <ele>272</ele>
        <time>2020-09-22T11:05:16Z</time>
      </trkpt>
      <trkpt lat="46.50709" lon="4.87133">
        <ele>274</ele>
        <time>2020-09-22T11:05:19Z</time>
      </trkpt>
      <trkpt lat="46.50718" lon="4.87314">
        <ele>269</ele>
        <time>2020-09-22T11:05:49Z</time>
      </trkpt>
      <trkpt lat="46.50725" lon="4.87397">
        <ele>267</ele>
        <time>2020-09-22T11:06:02Z</time>
      </trkpt>
      <trkpt lat="46.50723" lon="4.87414">
        <ele>267</ele>
        <time>2020-09-22T11:06:05Z</time>
      </trkpt>
      <trkpt lat="46.50717" lon="4.87432">
        <ele>267</ele>
        <time>2020-09-22T11:06:08Z</time>
      </trkpt>
      <trkpt lat="46.50698" lon="4.87476">
        <ele>268</ele>
        <time>2020-09-22T11:06:16Z</time>
      </trkpt>
      <trkpt lat="46.50688" lon="4.87531">
        <ele>269</ele>
        <time>2020-09-22T11:06:25Z</time>
      </trkpt>
      <trkpt lat="46.50689" lon="4.87558">
        <ele>271</ele>
        <time>2020-09-22T11:06:30Z</time>
      </trkpt>
      <trkpt lat="46.5068" lon="4.87675">
        <ele>269</ele>
        <time>2020-09-22T11:06:49Z</time>
      </trkpt>
      <trkpt lat="46.50682" lon="4.87829">
        <ele>265</ele>
        <time>2020-09-22T11:07:13Z</time>
      </trkpt>
      <trkpt lat="46.50676" lon="4.87889">
        <ele>262</ele>
        <time>2020-09-22T11:07:23Z</time>
      </trkpt>
      <trkpt lat="46.50658" lon="4.88001">
        <ele>257</ele>
        <time>2020-09-22T11:07:42Z</time>
      </trkpt>
      <trkpt lat="46.50652" lon="4.88029">
        <ele>256</ele>
        <time>2020-09-22T11:07:46Z</time>
      </trkpt>
      <trkpt lat="46.50644" lon="4.88044">
        <ele>254</ele>
        <time>2020-09-22T11:07:49Z</time>
      </trkpt>
      <trkpt lat="46.50579" lon="4.88206">
        <ele>245</ele>
        <time>2020-09-22T11:08:20Z</time>
      </trkpt>
      <trkpt lat="46.50532" lon="4.88314">
        <ele>238</ele>
        <time>2020-09-22T11:08:40Z</time>
      </trkpt>
      <trkpt lat="46.50514" lon="4.88351">
        <ele>236</ele>
        <time>2020-09-22T11:08:47Z</time>
      </trkpt>
      <trkpt lat="46.50485" lon="4.88394">
        <ele>233</ele>
        <time>2020-09-22T11:08:57Z</time>
      </trkpt>
      <trkpt lat="46.50467" lon="4.88426">
        <ele>231</ele>
        <time>2020-09-22T11:09:04Z</time>
      </trkpt>
      <trkpt lat="46.50433" lon="4.88493">
        <ele>229</ele>
        <time>2020-09-22T11:09:17Z</time>
      </trkpt>
      <trkpt lat="46.50425" lon="4.88505">
        <ele>228</ele>
        <time>2020-09-22T11:09:20Z</time>
      </trkpt>
      <trkpt lat="46.50413" lon="4.88514">
        <ele>228</ele>
        <time>2020-09-22T11:09:23Z</time>
      </trkpt>
      <trkpt lat="46.5041" lon="4.88531">
        <ele>227</ele>
        <time>2020-09-22T11:09:26Z</time>
      </trkpt>
      <trkpt lat="46.50411" lon="4.88556">
        <ele>227</ele>
        <time>2020-09-22T11:09:30Z</time>
      </trkpt>
      <trkpt lat="46.50427" lon="4.88589">
        <ele>227</ele>
        <time>2020-09-22T11:09:36Z</time>
      </trkpt>
      <trkpt lat="46.50452" lon="4.88615">
        <ele>228</ele>
        <time>2020-09-22T11:09:44Z</time>
      </trkpt>
      <trkpt lat="46.50477" lon="4.88631">
        <ele>229</ele>
        <time>2020-09-22T11:09:50Z</time>
      </trkpt>
      <trkpt lat="46.50508" lon="4.88656">
        <ele>231</ele>
        <time>2020-09-22T11:09:58Z</time>
      </trkpt>
      <trkpt lat="46.50537" lon="4.8869">
        <ele>232</ele>
        <time>2020-09-22T11:10:07Z</time>
      </trkpt>
      <trkpt lat="46.50551" lon="4.88702">
        <ele>233</ele>
        <time>2020-09-22T11:10:11Z</time>
      </trkpt>
      <trkpt lat="46.50609" lon="4.88731">
        <ele>235</ele>
        <time>2020-09-22T11:10:25Z</time>
      </trkpt>
      <trkpt lat="46.50622" lon="4.88741">
        <ele>235</ele>
        <time>2020-09-22T11:10:28Z</time>
      </trkpt>
      <trkpt lat="46.50698" lon="4.88818">
        <ele>239</ele>
        <time>2020-09-22T11:10:50Z</time>
      </trkpt>
      <trkpt lat="46.50714" lon="4.88837">
        <ele>240</ele>
        <time>2020-09-22T11:10:55Z</time>
      </trkpt>
      <trkpt lat="46.50728" lon="4.88825">
        <ele>241</ele>
        <time>2020-09-22T11:10:59Z</time>
      </trkpt>
      <trkpt lat="46.50732" lon="4.88817">
        <ele>242</ele>
        <time>2020-09-22T11:11:00Z</time>
      </trkpt>
      <trkpt lat="46.50752" lon="4.88821">
        <ele>243</ele>
        <time>2020-09-22T11:11:05Z</time>
      </trkpt>
      <trkpt lat="46.50771" lon="4.88831">
        <ele>245</ele>
        <time>2020-09-22T11:11:10Z</time>
      </trkpt>
      <trkpt lat="46.50795" lon="4.88853">
        <ele>247</ele>
        <time>2020-09-22T11:11:16Z</time>
      </trkpt>
      <trkpt lat="46.50874" lon="4.88945">
        <ele>249</ele>
        <time>2020-09-22T11:11:40Z</time>
      </trkpt>
      <trkpt lat="46.50906" lon="4.88989">
        <ele>249</ele>
        <time>2020-09-22T11:11:50Z</time>
      </trkpt>
      <trkpt lat="46.50947" lon="4.89064">
        <ele>250</ele>
        <time>2020-09-22T11:12:06Z</time>
      </trkpt>
      <trkpt lat="46.50988" lon="4.89122">
        <ele>253</ele>
        <time>2020-09-22T11:12:19Z</time>
      </trkpt>
      <trkpt lat="46.51073" lon="4.89221">
        <ele>258</ele>
        <time>2020-09-22T11:12:44Z</time>
      </trkpt>
      <trkpt lat="46.51085" lon="4.89211">
        <ele>260</ele>
        <time>2020-09-22T11:12:48Z</time>
      </trkpt>
      <trkpt lat="46.51073" lon="4.89221">
        <ele>258</ele>
        <time>2020-09-22T11:12:51Z</time>
      </trkpt>
      <trkpt lat="46.51122" lon="4.8928">
        <ele>259</ele>
        <time>2020-09-22T11:13:06Z</time>
      </trkpt>
      <trkpt lat="46.5118" lon="4.89326">
        <ele>260</ele>
        <time>2020-09-22T11:13:21Z</time>
      </trkpt>
      <trkpt lat="46.51235" lon="4.89363">
        <ele>261</ele>
        <time>2020-09-22T11:13:35Z</time>
      </trkpt>
      <trkpt lat="46.51322" lon="4.894">
        <ele>259</ele>
        <time>2020-09-22T11:13:57Z</time>
      </trkpt>
      <trkpt lat="46.51347" lon="4.89415">
        <ele>258</ele>
        <time>2020-09-22T11:14:03Z</time>
      </trkpt>
      <trkpt lat="46.51363" lon="4.8943">
        <ele>257</ele>
        <time>2020-09-22T11:14:07Z</time>
      </trkpt>
      <trkpt lat="46.51384" lon="4.89464">
        <ele>254</ele>
        <time>2020-09-22T11:14:15Z</time>
      </trkpt>
      <trkpt lat="46.51422" lon="4.895">
        <ele>252</ele>
        <time>2020-09-22T11:14:25Z</time>
      </trkpt>
      <trkpt lat="46.51415" lon="4.89507">
        <ele>251</ele>
        <time>2020-09-22T11:14:27Z</time>
      </trkpt>
      <trkpt lat="46.51422" lon="4.895">
        <ele>252</ele>
        <time>2020-09-22T11:14:29Z</time>
      </trkpt>
      <trkpt lat="46.51449" lon="4.89507">
        <ele>253</ele>
        <time>2020-09-22T11:14:36Z</time>
      </trkpt>
      <trkpt lat="46.51506" lon="4.89539">
        <ele>252</ele>
        <time>2020-09-22T11:14:50Z</time>
      </trkpt>
      <trkpt lat="46.51514" lon="4.89541">
        <ele>253</ele>
        <time>2020-09-22T11:14:52Z</time>
      </trkpt>
      <trkpt lat="46.51529" lon="4.89574">
        <ele>252</ele>
        <time>2020-09-22T11:14:58Z</time>
      </trkpt>
      <trkpt lat="46.51542" lon="4.89589">
        <ele>253</ele>
        <time>2020-09-22T11:15:02Z</time>
      </trkpt>
      <trkpt lat="46.51566" lon="4.89658">
        <ele>251</ele>
        <time>2020-09-22T11:15:14Z</time>
      </trkpt>
      <trkpt lat="46.51581" lon="4.89686">
        <ele>250</ele>
        <time>2020-09-22T11:15:20Z</time>
      </trkpt>
      <trkpt lat="46.51611" lon="4.89733">
        <ele>249</ele>
        <time>2020-09-22T11:15:30Z</time>
      </trkpt>
      <trkpt lat="46.517" lon="4.89857">
        <ele>251</ele>
        <time>2020-09-22T11:15:59Z</time>
      </trkpt>
      <trkpt lat="46.51724" lon="4.899">
        <ele>252</ele>
        <time>2020-09-22T11:16:08Z</time>
      </trkpt>
      <trkpt lat="46.51724" lon="4.89909">
        <ele>252</ele>
        <time>2020-09-22T11:16:10Z</time>
      </trkpt>
      <trkpt lat="46.51724" lon="4.89907">
        <ele>252</ele>
        <time>2020-09-22T11:16:10Z</time>
      </trkpt>
      <trkpt lat="46.5174" lon="4.89936">
        <ele>252</ele>
        <time>2020-09-22T11:16:16Z</time>
      </trkpt>
      <trkpt lat="46.51837" lon="4.89996">
        <ele>262</ele>
        <time>2020-09-22T11:16:40Z</time>
      </trkpt>
      <trkpt lat="46.51848" lon="4.90001">
        <ele>263</ele>
        <time>2020-09-22T11:16:43Z</time>
      </trkpt>
      <trkpt lat="46.51868" lon="4.90001">
        <ele>266</ele>
        <time>2020-09-22T11:16:48Z</time>
      </trkpt>
      <trkpt lat="46.51885" lon="4.90005">
        <ele>268</ele>
        <time>2020-09-22T11:16:52Z</time>
      </trkpt>
      <trkpt lat="46.51988" lon="4.90078">
        <ele>274</ele>
        <time>2020-09-22T11:17:19Z</time>
      </trkpt>
      <trkpt lat="46.5208" lon="4.90128">
        <ele>280</ele>
        <time>2020-09-22T11:17:42Z</time>
      </trkpt>
      <trkpt lat="46.52182" lon="4.90208">
        <ele>280</ele>
        <time>2020-09-22T11:18:09Z</time>
      </trkpt>
      <trkpt lat="46.52208" lon="4.90224">
        <ele>281</ele>
        <time>2020-09-22T11:18:15Z</time>
      </trkpt>
      <trkpt lat="46.52317" lon="4.90253">
        <ele>289</ele>
        <time>2020-09-22T11:18:41Z</time>
      </trkpt>
      <trkpt lat="46.52373" lon="4.9029">
        <ele>292</ele>
        <time>2020-09-22T11:18:55Z</time>
      </trkpt>
      <trkpt lat="46.52387" lon="4.90293">
        <ele>294</ele>
        <time>2020-09-22T11:18:59Z</time>
      </trkpt>
      <trkpt lat="46.52455" lon="4.90297">
        <ele>298</ele>
        <time>2020-09-22T11:19:15Z</time>
      </trkpt>
      <trkpt lat="46.52504" lon="4.90353">
        <ele>295</ele>
        <time>2020-09-22T11:19:29Z</time>
      </trkpt>
      <trkpt lat="46.52624" lon="4.90453">
        <ele>289</ele>
        <time>2020-09-22T11:20:02Z</time>
      </trkpt>
      <trkpt lat="46.52679" lon="4.90475">
        <ele>289</ele>
        <time>2020-09-22T11:20:15Z</time>
      </trkpt>
      <trkpt lat="46.52696" lon="4.90495">
        <ele>288</ele>
        <time>2020-09-22T11:20:20Z</time>
      </trkpt>
      <trkpt lat="46.52703" lon="4.90528">
        <ele>286</ele>
        <time>2020-09-22T11:20:26Z</time>
      </trkpt>
      <trkpt lat="46.52702" lon="4.90556">
        <ele>284</ele>
        <time>2020-09-22T11:20:30Z</time>
      </trkpt>
      <trkpt lat="46.52644" lon="4.90651">
        <ele>271</ele>
        <time>2020-09-22T11:20:50Z</time>
      </trkpt>
      <trkpt lat="46.52608" lon="4.90737">
        <ele>256</ele>
        <time>2020-09-22T11:21:07Z</time>
      </trkpt>
      <trkpt lat="46.52608" lon="4.90743">
        <ele>255</ele>
        <time>2020-09-22T11:21:08Z</time>
      </trkpt>
      <trkpt lat="46.52611" lon="4.90751">
        <ele>255</ele>
        <time>2020-09-22T11:21:09Z</time>
      </trkpt>
      <trkpt lat="46.52628" lon="4.9076">
        <ele>256</ele>
        <time>2020-09-22T11:21:13Z</time>
      </trkpt>
      <trkpt lat="46.52641" lon="4.90771">
        <ele>257</ele>
        <time>2020-09-22T11:21:17Z</time>
      </trkpt>
      <trkpt lat="46.52687" lon="4.90823">
        <ele>256</ele>
        <time>2020-09-22T11:21:30Z</time>
      </trkpt>
      <trkpt lat="46.52709" lon="4.90863">
        <ele>254</ele>
        <time>2020-09-22T11:21:39Z</time>
      </trkpt>
      <trkpt lat="46.52703" lon="4.90951">
        <ele>244</ele>
        <time>2020-09-22T11:21:53Z</time>
      </trkpt>
      <trkpt lat="46.52713" lon="4.90998">
        <ele>241</ele>
        <time>2020-09-22T11:22:01Z</time>
      </trkpt>
      <trkpt lat="46.52683" lon="4.91104">
        <ele>237</ele>
        <time>2020-09-22T11:22:19Z</time>
      </trkpt>
      <trkpt lat="46.52775" lon="4.91145">
        <ele>236</ele>
        <time>2020-09-22T11:22:42Z</time>
      </trkpt>
      <trkpt lat="46.52863" lon="4.91173">
        <ele>236</ele>
        <time>2020-09-22T11:23:03Z</time>
      </trkpt>
      <trkpt lat="46.52953" lon="4.91265">
        <ele>236</ele>
        <time>2020-09-22T11:23:28Z</time>
      </trkpt>
      <trkpt lat="46.52986" lon="4.91293">
        <ele>235</ele>
        <time>2020-09-22T11:23:37Z</time>
      </trkpt>
      <trkpt lat="46.53052" lon="4.91335">
        <ele>230</ele>
        <time>2020-09-22T11:23:54Z</time>
      </trkpt>
      <trkpt lat="46.53162" lon="4.91365">
        <ele>225</ele>
        <time>2020-09-22T11:24:20Z</time>
      </trkpt>
      <trkpt lat="46.5321" lon="4.91388">
        <ele>224</ele>
        <time>2020-09-22T11:24:32Z</time>
      </trkpt>
      <trkpt lat="46.53232" lon="4.91413">
        <ele>223</ele>
        <time>2020-09-22T11:24:39Z</time>
      </trkpt>
      <trkpt lat="46.53268" lon="4.91492">
        <ele>222</ele>
        <time>2020-09-22T11:24:54Z</time>
      </trkpt>
      <trkpt lat="46.5329" lon="4.91512">
        <ele>222</ele>
        <time>2020-09-22T11:25:00Z</time>
      </trkpt>
      <trkpt lat="46.5332" lon="4.91533">
        <ele>221</ele>
        <time>2020-09-22T11:25:08Z</time>
      </trkpt>
      <trkpt lat="46.53348" lon="4.91549">
        <ele>221</ele>
        <time>2020-09-22T11:25:15Z</time>
      </trkpt>
      <trkpt lat="46.53358" lon="4.91562">
        <ele>221</ele>
        <time>2020-09-22T11:25:18Z</time>
      </trkpt>
      <trkpt lat="46.5337" lon="4.91591">
        <ele>221</ele>
        <time>2020-09-22T11:25:23Z</time>
      </trkpt>
      <trkpt lat="46.53385" lon="4.91599">
        <ele>221</ele>
        <time>2020-09-22T11:25:27Z</time>
      </trkpt>
      <trkpt lat="46.53415" lon="4.91606">
        <ele>221</ele>
        <time>2020-09-22T11:25:34Z</time>
      </trkpt>
      <trkpt lat="46.53527" lon="4.91606">
        <ele>222</ele>
        <time>2020-09-22T11:26:00Z</time>
      </trkpt>
      <trkpt lat="46.53544" lon="4.91609">
        <ele>222</ele>
        <time>2020-09-22T11:26:04Z</time>
      </trkpt>
      <trkpt lat="46.53608" lon="4.91629">
        <ele>222</ele>
        <time>2020-09-22T11:26:19Z</time>
      </trkpt>
      <trkpt lat="46.53651" lon="4.91637">
        <ele>223</ele>
        <time>2020-09-22T11:26:30Z</time>
      </trkpt>
      <trkpt lat="46.537" lon="4.91638">
        <ele>222</ele>
        <time>2020-09-22T11:26:41Z</time>
      </trkpt>
      <trkpt lat="46.53746" lon="4.91631">
        <ele>222</ele>
        <time>2020-09-22T11:26:52Z</time>
      </trkpt>
      <trkpt lat="46.53759" lon="4.91631">
        <ele>222</ele>
        <time>2020-09-22T11:26:55Z</time>
      </trkpt>
      <trkpt lat="46.53773" lon="4.91635">
        <ele>221</ele>
        <time>2020-09-22T11:26:58Z</time>
      </trkpt>
      <trkpt lat="46.53768" lon="4.91652">
        <ele>221</ele>
        <time>2020-09-22T11:27:01Z</time>
      </trkpt>
      <trkpt lat="46.53773" lon="4.91635">
        <ele>221</ele>
        <time>2020-09-22T11:27:04Z</time>
      </trkpt>
      <trkpt lat="46.53805" lon="4.91641">
        <ele>221</ele>
        <time>2020-09-22T11:27:12Z</time>
      </trkpt>
      <trkpt lat="46.53827" lon="4.91641">
        <ele>221</ele>
        <time>2020-09-22T11:27:17Z</time>
      </trkpt>
      <trkpt lat="46.53859" lon="4.91638">
        <ele>221</ele>
        <time>2020-09-22T11:27:24Z</time>
      </trkpt>
      <trkpt lat="46.53932" lon="4.91626">
        <ele>222</ele>
        <time>2020-09-22T11:27:41Z</time>
      </trkpt>
      <trkpt lat="46.53959" lon="4.91623">
        <ele>222</ele>
        <time>2020-09-22T11:27:48Z</time>
      </trkpt>
      <trkpt lat="46.53972" lon="4.91624">
        <ele>223</ele>
        <time>2020-09-22T11:27:51Z</time>
      </trkpt>
      <trkpt lat="46.54021" lon="4.91636">
        <ele>223</ele>
        <time>2020-09-22T11:28:02Z</time>
      </trkpt>
      <trkpt lat="46.54109" lon="4.91669">
        <ele>224</ele>
        <time>2020-09-22T11:28:24Z</time>
      </trkpt>
      <trkpt lat="46.5417" lon="4.91682">
        <ele>223</ele>
        <time>2020-09-22T11:28:38Z</time>
      </trkpt>
      <trkpt lat="46.54212" lon="4.91674">
        <ele>223</ele>
        <time>2020-09-22T11:28:48Z</time>
      </trkpt>
      <trkpt lat="46.54277" lon="4.91671">
        <ele>223</ele>
        <time>2020-09-22T11:29:03Z</time>
      </trkpt>
      <trkpt lat="46.5431" lon="4.91662">
        <ele>222</ele>
        <time>2020-09-22T11:29:11Z</time>
      </trkpt>
      <trkpt lat="46.54264" lon="4.91591">
        <ele>226</ele>
        <time>2020-09-22T11:29:27Z</time>
      </trkpt>
      <trkpt lat="46.54252" lon="4.91584">
        <ele>226</ele>
        <time>2020-09-22T11:29:30Z</time>
      </trkpt>
      <trkpt lat="46.54228" lon="4.91561">
        <ele>226</ele>
        <time>2020-09-22T11:29:36Z</time>
      </trkpt>
      <trkpt lat="46.54193" lon="4.91514">
        <ele>227</ele>
        <time>2020-09-22T11:29:48Z</time>
      </trkpt>
      <trkpt lat="46.54153" lon="4.91474">
        <ele>229</ele>
        <time>2020-09-22T11:29:59Z</time>
      </trkpt>
      <trkpt lat="46.54113" lon="4.9145">
        <ele>230</ele>
        <time>2020-09-22T11:30:09Z</time>
      </trkpt>
      <trkpt lat="46.54097" lon="4.91446">
        <ele>230</ele>
        <time>2020-09-22T11:30:13Z</time>
      </trkpt>
      <trkpt lat="46.54056" lon="4.91453">
        <ele>230</ele>
        <time>2020-09-22T11:30:22Z</time>
      </trkpt>
      <trkpt lat="46.54051" lon="4.91447">
        <ele>230</ele>
        <time>2020-09-22T11:30:24Z</time>
      </trkpt>
      <trkpt lat="46.54049" lon="4.91395">
        <ele>233</ele>
        <time>2020-09-22T11:30:32Z</time>
      </trkpt>
      <trkpt lat="46.54053" lon="4.91256">
        <ele>249</ele>
        <time>2020-09-22T11:30:55Z</time>
      </trkpt>
      <trkpt lat="46.54041" lon="4.91231">
        <ele>251</ele>
        <time>2020-09-22T11:31:00Z</time>
      </trkpt>
      <trkpt lat="46.53995" lon="4.91181">
        <ele>256</ele>
        <time>2020-09-22T11:31:13Z</time>
      </trkpt>
      <trkpt lat="46.53961" lon="4.91102">
        <ele>259</ele>
        <time>2020-09-22T11:31:28Z</time>
      </trkpt>
      <trkpt lat="46.53941" lon="4.91043">
        <ele>259</ele>
        <time>2020-09-22T11:31:38Z</time>
      </trkpt>
      <trkpt lat="46.53939" lon="4.90997">
        <ele>256</ele>
        <time>2020-09-22T11:31:46Z</time>
      </trkpt>
      <trkpt lat="46.53961" lon="4.90963">
        <ele>253</ele>
        <time>2020-09-22T11:31:53Z</time>
      </trkpt>
      <trkpt lat="46.54034" lon="4.90837">
        <ele>240</ele>
        <time>2020-09-22T11:32:20Z</time>
      </trkpt>
      <trkpt lat="46.54067" lon="4.90786">
        <ele>235</ele>
        <time>2020-09-22T11:32:31Z</time>
      </trkpt>
      <trkpt lat="46.54035" lon="4.90779">
        <ele>237</ele>
        <time>2020-09-22T11:32:39Z</time>
      </trkpt>
      <trkpt lat="46.53955" lon="4.90695">
        <ele>241</ele>
        <time>2020-09-22T11:33:02Z</time>
      </trkpt>
      <trkpt lat="46.53954" lon="4.9069">
        <ele>241</ele>
        <time>2020-09-22T11:33:03Z</time>
      </trkpt>
      <trkpt lat="46.53955" lon="4.90683">
        <ele>240</ele>
        <time>2020-09-22T11:33:04Z</time>
      </trkpt>
      <trkpt lat="46.54046" lon="4.90511">
        <ele>224</ele>
        <time>2020-09-22T11:33:39Z</time>
      </trkpt>
      <trkpt lat="46.54052" lon="4.90496">
        <ele>223</ele>
        <time>2020-09-22T11:33:41Z</time>
      </trkpt>
      <trkpt lat="46.54055" lon="4.90477">
        <ele>221</ele>
        <time>2020-09-22T11:33:44Z</time>
      </trkpt>
      <trkpt lat="46.54048" lon="4.90468">
        <ele>222</ele>
        <time>2020-09-22T11:33:47Z</time>
      </trkpt>
      <trkpt lat="46.54034" lon="4.90441">
        <ele>222</ele>
        <time>2020-09-22T11:33:52Z</time>
      </trkpt>
      <trkpt lat="46.54015" lon="4.90391">
        <ele>223</ele>
        <time>2020-09-22T11:34:01Z</time>
      </trkpt>
      <trkpt lat="46.54008" lon="4.90359">
        <ele>222</ele>
        <time>2020-09-22T11:34:07Z</time>
      </trkpt>
      <trkpt lat="46.53998" lon="4.9028">
        <ele>221</ele>
        <time>2020-09-22T11:34:20Z</time>
      </trkpt>
      <trkpt lat="46.53964" lon="4.90155">
        <ele>220</ele>
        <time>2020-09-22T11:34:41Z</time>
      </trkpt>
      <trkpt lat="46.53954" lon="4.90103">
        <ele>222</ele>
        <time>2020-09-22T11:34:50Z</time>
      </trkpt>
      <trkpt lat="46.53934" lon="4.8995">
        <ele>223</ele>
        <time>2020-09-22T11:35:15Z</time>
      </trkpt>
      <trkpt lat="46.53932" lon="4.89894">
        <ele>221</ele>
        <time>2020-09-22T11:35:24Z</time>
      </trkpt>
      <trkpt lat="46.53926" lon="4.89848">
        <ele>220</ele>
        <time>2020-09-22T11:35:31Z</time>
      </trkpt>
      <trkpt lat="46.53926" lon="4.89784">
        <ele>217</ele>
        <time>2020-09-22T11:35:42Z</time>
      </trkpt>
      <trkpt lat="46.53923" lon="4.89768">
        <ele>216</ele>
        <time>2020-09-22T11:35:44Z</time>
      </trkpt>
      <trkpt lat="46.53909" lon="4.89733">
        <ele>215</ele>
        <time>2020-09-22T11:35:51Z</time>
      </trkpt>
      <trkpt lat="46.53907" lon="4.89714">
        <ele>214</ele>
        <time>2020-09-22T11:35:54Z</time>
      </trkpt>
      <trkpt lat="46.53908" lon="4.89693">
        <ele>214</ele>
        <time>2020-09-22T11:35:57Z</time>
      </trkpt>
      <trkpt lat="46.53913" lon="4.89673">
        <ele>213</ele>
        <time>2020-09-22T11:36:01Z</time>
      </trkpt>
      <trkpt lat="46.53941" lon="4.89614">
        <ele>214</ele>
        <time>2020-09-22T11:36:12Z</time>
      </trkpt>
      <trkpt lat="46.53952" lon="4.89563">
        <ele>214</ele>
        <time>2020-09-22T11:36:21Z</time>
      </trkpt>
      <trkpt lat="46.53951" lon="4.89542">
        <ele>215</ele>
        <time>2020-09-22T11:36:24Z</time>
      </trkpt>
      <trkpt lat="46.53945" lon="4.89526">
        <ele>215</ele>
        <time>2020-09-22T11:36:27Z</time>
      </trkpt>
      <trkpt lat="46.53893" lon="4.89472">
        <ele>218</ele>
        <time>2020-09-22T11:36:42Z</time>
      </trkpt>
      <trkpt lat="46.53878" lon="4.89451">
        <ele>219</ele>
        <time>2020-09-22T11:36:47Z</time>
      </trkpt>
      <trkpt lat="46.53857" lon="4.89406">
        <ele>221</ele>
        <time>2020-09-22T11:36:56Z</time>
      </trkpt>
      <trkpt lat="46.53847" lon="4.89363">
        <ele>222</ele>
        <time>2020-09-22T11:37:03Z</time>
      </trkpt>
      <trkpt lat="46.53843" lon="4.89315">
        <ele>223</ele>
        <time>2020-09-22T11:37:11Z</time>
      </trkpt>
      <trkpt lat="46.53828" lon="4.8922">
        <ele>226</ele>
        <time>2020-09-22T11:37:26Z</time>
      </trkpt>
      <trkpt lat="46.53811" lon="4.89214">
        <ele>226</ele>
        <time>2020-09-22T11:37:30Z</time>
      </trkpt>
      <trkpt lat="46.53812" lon="4.89128">
        <ele>229</ele>
        <time>2020-09-22T11:37:44Z</time>
      </trkpt>
      <trkpt lat="46.53809" lon="4.89006">
        <ele>230</ele>
        <time>2020-09-22T11:38:04Z</time>
      </trkpt>
      <trkpt lat="46.53812" lon="4.88876">
        <ele>238</ele>
        <time>2020-09-22T11:38:25Z</time>
      </trkpt>
      <trkpt lat="46.53802" lon="4.88857">
        <ele>240</ele>
        <time>2020-09-22T11:38:29Z</time>
      </trkpt>
      <trkpt lat="46.53799" lon="4.88839">
        <ele>241</ele>
        <time>2020-09-22T11:38:32Z</time>
      </trkpt>
      <trkpt lat="46.53808" lon="4.88768">
        <ele>246</ele>
        <time>2020-09-22T11:38:43Z</time>
      </trkpt>
      <trkpt lat="46.53807" lon="4.88744">
        <ele>248</ele>
        <time>2020-09-22T11:38:47Z</time>
      </trkpt>
      <trkpt lat="46.53801" lon="4.88717">
        <ele>248</ele>
        <time>2020-09-22T11:38:52Z</time>
      </trkpt>
      <trkpt lat="46.53803" lon="4.88705">
        <ele>249</ele>
        <time>2020-09-22T11:38:54Z</time>
      </trkpt>
      <trkpt lat="46.53817" lon="4.88673">
        <ele>251</ele>
        <time>2020-09-22T11:39:00Z</time>
      </trkpt>
      <trkpt lat="46.53773" lon="4.88565">
        <ele>254</ele>
        <time>2020-09-22T11:39:20Z</time>
      </trkpt>
      <trkpt lat="46.5375" lon="4.88518">
        <ele>254</ele>
        <time>2020-09-22T11:39:29Z</time>
      </trkpt>
      <trkpt lat="46.53696" lon="4.88443">
        <ele>256</ele>
        <time>2020-09-22T11:39:46Z</time>
      </trkpt>
      <trkpt lat="46.53632" lon="4.88388">
        <ele>257</ele>
        <time>2020-09-22T11:40:04Z</time>
      </trkpt>
      <trkpt lat="46.53615" lon="4.88367">
        <ele>258</ele>
        <time>2020-09-22T11:40:09Z</time>
      </trkpt>
      <trkpt lat="46.53602" lon="4.88334">
        <ele>260</ele>
        <time>2020-09-22T11:40:15Z</time>
      </trkpt>
      <trkpt lat="46.53583" lon="4.88265">
        <ele>267</ele>
        <time>2020-09-22T11:40:27Z</time>
      </trkpt>
      <trkpt lat="46.53571" lon="4.88238">
        <ele>270</ele>
        <time>2020-09-22T11:40:32Z</time>
      </trkpt>
      <trkpt lat="46.53555" lon="4.88211">
        <ele>271</ele>
        <time>2020-09-22T11:40:38Z</time>
      </trkpt>
      <trkpt lat="46.53527" lon="4.88174">
        <ele>274</ele>
        <time>2020-09-22T11:40:47Z</time>
      </trkpt>
      <trkpt lat="46.53469" lon="4.88084">
        <ele>280</ele>
        <time>2020-09-22T11:41:07Z</time>
      </trkpt>
      <trkpt lat="46.53456" lon="4.88062">
        <ele>281</ele>
        <time>2020-09-22T11:41:11Z</time>
      </trkpt>
      <trkpt lat="46.5341" lon="4.87969">
        <ele>287</ele>
        <time>2020-09-22T11:41:30Z</time>
      </trkpt>
      <trkpt lat="46.53349" lon="4.87885">
        <ele>292</ele>
        <time>2020-09-22T11:41:49Z</time>
      </trkpt>
      <trkpt lat="46.53284" lon="4.87754">
        <ele>304</ele>
        <time>2020-09-22T11:42:15Z</time>
      </trkpt>
      <trkpt lat="46.53274" lon="4.87726">
        <ele>305</ele>
        <time>2020-09-22T11:42:20Z</time>
      </trkpt>
      <trkpt lat="46.53272" lon="4.87711">
        <ele>306</ele>
        <time>2020-09-22T11:42:23Z</time>
      </trkpt>
      <trkpt lat="46.53275" lon="4.87703">
        <ele>306</ele>
        <time>2020-09-22T11:42:24Z</time>
      </trkpt>
      <trkpt lat="46.53277" lon="4.87502">
        <ele>294</ele>
        <time>2020-09-22T11:42:57Z</time>
      </trkpt>
      <trkpt lat="46.53281" lon="4.8746">
        <ele>291</ele>
        <time>2020-09-22T11:43:03Z</time>
      </trkpt>
      <trkpt lat="46.53318" lon="4.87457">
        <ele>292</ele>
        <time>2020-09-22T11:43:12Z</time>
      </trkpt>
      <trkpt lat="46.53343" lon="4.87449">
        <ele>293</ele>
        <time>2020-09-22T11:43:18Z</time>
      </trkpt>
      <trkpt lat="46.53427" lon="4.87431">
        <ele>296</ele>
        <time>2020-09-22T11:43:38Z</time>
      </trkpt>
      <trkpt lat="46.53506" lon="4.87418">
        <ele>299</ele>
        <time>2020-09-22T11:43:56Z</time>
      </trkpt>
      <trkpt lat="46.53528" lon="4.87405">
        <ele>299</ele>
        <time>2020-09-22T11:44:02Z</time>
      </trkpt>
      <trkpt lat="46.53594" lon="4.87382">
        <ele>300</ele>
        <time>2020-09-22T11:44:18Z</time>
      </trkpt>
      <trkpt lat="46.53653" lon="4.87378">
        <ele>302</ele>
        <time>2020-09-22T11:44:32Z</time>
      </trkpt>
      <trkpt lat="46.53687" lon="4.87373">
        <ele>303</ele>
        <time>2020-09-22T11:44:40Z</time>
      </trkpt>
      <trkpt lat="46.53775" lon="4.87354">
        <ele>306</ele>
        <time>2020-09-22T11:45:00Z</time>
      </trkpt>
      <trkpt lat="46.538" lon="4.87351">
        <ele>308</ele>
        <time>2020-09-22T11:45:06Z</time>
      </trkpt>
      <trkpt lat="46.5387" lon="4.87366">
        <ele>314</ele>
        <time>2020-09-22T11:45:23Z</time>
      </trkpt>
      <trkpt lat="46.53882" lon="4.87364">
        <ele>314</ele>
        <time>2020-09-22T11:45:26Z</time>
      </trkpt>
      <trkpt lat="46.5391" lon="4.87349">
        <ele>313</ele>
        <time>2020-09-22T11:45:33Z</time>
      </trkpt>
      <trkpt lat="46.53927" lon="4.87346">
        <ele>313</ele>
        <time>2020-09-22T11:45:37Z</time>
      </trkpt>
      <trkpt lat="46.54008" lon="4.87355">
        <ele>315</ele>
        <time>2020-09-22T11:45:55Z</time>
      </trkpt>
      <trkpt lat="46.54042" lon="4.87364">
        <ele>315</ele>
        <time>2020-09-22T11:46:04Z</time>
      </trkpt>
      <trkpt lat="46.54069" lon="4.87368">
        <ele>315</ele>
        <time>2020-09-22T11:46:10Z</time>
      </trkpt>
      <trkpt lat="46.54099" lon="4.87379">
        <ele>315</ele>
        <time>2020-09-22T11:46:17Z</time>
      </trkpt>
      <trkpt lat="46.54144" lon="4.87404">
        <ele>315</ele>
        <time>2020-09-22T11:46:28Z</time>
      </trkpt>
      <trkpt lat="46.54149" lon="4.87403">
        <ele>315</ele>
        <time>2020-09-22T11:46:30Z</time>
      </trkpt>
      <trkpt lat="46.54152" lon="4.87399">
        <ele>314</ele>
        <time>2020-09-22T11:46:31Z</time>
      </trkpt>
      <trkpt lat="46.54159" lon="4.87365">
        <ele>312</ele>
        <time>2020-09-22T11:46:36Z</time>
      </trkpt>
      <trkpt lat="46.54177" lon="4.87323">
        <ele>309</ele>
        <time>2020-09-22T11:46:44Z</time>
      </trkpt>
      <trkpt lat="46.54194" lon="4.87254">
        <ele>309</ele>
        <time>2020-09-22T11:46:56Z</time>
      </trkpt>
      <trkpt lat="46.54235" lon="4.8727">
        <ele>311</ele>
        <time>2020-09-22T11:47:06Z</time>
      </trkpt>
      <trkpt lat="46.54253" lon="4.87274">
        <ele>311</ele>
        <time>2020-09-22T11:47:10Z</time>
      </trkpt>
      <trkpt lat="46.54309" lon="4.8727">
        <ele>314</ele>
        <time>2020-09-22T11:47:23Z</time>
      </trkpt>
      <trkpt lat="46.54327" lon="4.87277">
        <ele>314</ele>
        <time>2020-09-22T11:47:28Z</time>
      </trkpt>
      <trkpt lat="46.54355" lon="4.87293">
        <ele>313</ele>
        <time>2020-09-22T11:47:35Z</time>
      </trkpt>
      <trkpt lat="46.54377" lon="4.87298">
        <ele>313</ele>
        <time>2020-09-22T11:47:40Z</time>
      </trkpt>
      <trkpt lat="46.54394" lon="4.87298">
        <ele>313</ele>
        <time>2020-09-22T11:47:44Z</time>
      </trkpt>
      <trkpt lat="46.54433" lon="4.87293">
        <ele>316</ele>
        <time>2020-09-22T11:47:53Z</time>
      </trkpt>
      <trkpt lat="46.54448" lon="4.87294">
        <ele>317</ele>
        <time>2020-09-22T11:47:56Z</time>
      </trkpt>
      <trkpt lat="46.54588" lon="4.87332">
        <ele>321</ele>
        <time>2020-09-22T11:48:30Z</time>
      </trkpt>
      <trkpt lat="46.54688" lon="4.87362">
        <ele>321</ele>
        <time>2020-09-22T11:48:53Z</time>
      </trkpt>
      <trkpt lat="46.54851" lon="4.87415">
        <ele>315</ele>
        <time>2020-09-22T11:49:33Z</time>
      </trkpt>
      <trkpt lat="46.54863" lon="4.87415">
        <ele>314</ele>
        <time>2020-09-22T11:49:35Z</time>
      </trkpt>
      <trkpt lat="46.5487" lon="4.8741">
        <ele>314</ele>
        <time>2020-09-22T11:49:37Z</time>
      </trkpt>
      <trkpt lat="46.54879" lon="4.87393">
        <ele>314</ele>
        <time>2020-09-22T11:49:41Z</time>
      </trkpt>
      <trkpt lat="46.54923" lon="4.87283">
        <ele>313</ele>
        <time>2020-09-22T11:50:01Z</time>
      </trkpt>
      <trkpt lat="46.54932" lon="4.87265">
        <ele>313</ele>
        <time>2020-09-22T11:50:05Z</time>
      </trkpt>
      <trkpt lat="46.54937" lon="4.8726">
        <ele>312</ele>
        <time>2020-09-22T11:50:06Z</time>
      </trkpt>
      <trkpt lat="46.54944" lon="4.87258">
        <ele>312</ele>
        <time>2020-09-22T11:50:08Z</time>
      </trkpt>
      <trkpt lat="46.54963" lon="4.8726">
        <ele>310</ele>
        <time>2020-09-22T11:50:12Z</time>
      </trkpt>
      <trkpt lat="46.54972" lon="4.87267">
        <ele>309</ele>
        <time>2020-09-22T11:50:14Z</time>
      </trkpt>
      <trkpt lat="46.54976" lon="4.87289">
        <ele>308</ele>
        <time>2020-09-22T11:50:18Z</time>
      </trkpt>
      <trkpt lat="46.54984" lon="4.87307">
        <ele>306</ele>
        <time>2020-09-22T11:50:22Z</time>
      </trkpt>
      <trkpt lat="46.54993" lon="4.87311">
        <ele>305</ele>
        <time>2020-09-22T11:50:24Z</time>
      </trkpt>
      <trkpt lat="46.54999" lon="4.87281">
        <ele>305</ele>
        <time>2020-09-22T11:50:29Z</time>
      </trkpt>
      <trkpt lat="46.55022" lon="4.87232">
        <ele>307</ele>
        <time>2020-09-22T11:50:38Z</time>
      </trkpt>
      <trkpt lat="46.55062" lon="4.87157">
        <ele>305</ele>
        <time>2020-09-22T11:50:54Z</time>
      </trkpt>
      <trkpt lat="46.55096" lon="4.87111">
        <ele>304</ele>
        <time>2020-09-22T11:51:04Z</time>
      </trkpt>
      <trkpt lat="46.5515" lon="4.87048">
        <ele>300</ele>
        <time>2020-09-22T11:51:21Z</time>
      </trkpt>
      <trkpt lat="46.55166" lon="4.87019">
        <ele>298</ele>
        <time>2020-09-22T11:51:27Z</time>
      </trkpt>
      <trkpt lat="46.55179" lon="4.86988">
        <ele>298</ele>
        <time>2020-09-22T11:51:32Z</time>
      </trkpt>
      <trkpt lat="46.55185" lon="4.86967">
        <ele>299</ele>
        <time>2020-09-22T11:51:36Z</time>
      </trkpt>
      <trkpt lat="46.55207" lon="4.86848">
        <ele>297</ele>
        <time>2020-09-22T11:51:56Z</time>
      </trkpt>
      <trkpt lat="46.55231" lon="4.86767">
        <ele>289</ele>
        <time>2020-09-22T11:52:10Z</time>
      </trkpt>
      <trkpt lat="46.55234" lon="4.86735">
        <ele>286</ele>
        <time>2020-09-22T11:52:15Z</time>
      </trkpt>
      <trkpt lat="46.55229" lon="4.8667">
        <ele>281</ele>
        <time>2020-09-22T11:52:26Z</time>
      </trkpt>
      <trkpt lat="46.55205" lon="4.8658">
        <ele>275</ele>
        <time>2020-09-22T11:52:41Z</time>
      </trkpt>
      <trkpt lat="46.55163" lon="4.86475">
        <ele>273</ele>
        <time>2020-09-22T11:53:01Z</time>
      </trkpt>
      <trkpt lat="46.5513" lon="4.86409">
        <ele>271</ele>
        <time>2020-09-22T11:53:14Z</time>
      </trkpt>
      <trkpt lat="46.55076" lon="4.86274">
        <ele>267</ele>
        <time>2020-09-22T11:53:39Z</time>
      </trkpt>
      <trkpt lat="46.55073" lon="4.86273">
        <ele>267</ele>
        <time>2020-09-22T11:53:40Z</time>
      </trkpt>
      <trkpt lat="46.55076" lon="4.86274">
        <ele>267</ele>
        <time>2020-09-22T11:53:40Z</time>
      </trkpt>
      <trkpt lat="46.55073" lon="4.86257">
        <ele>266</ele>
        <time>2020-09-22T11:53:43Z</time>
      </trkpt>
      <trkpt lat="46.55059" lon="4.86224">
        <ele>264</ele>
        <time>2020-09-22T11:53:49Z</time>
      </trkpt>
      <trkpt lat="46.55036" lon="4.86154">
        <ele>259</ele>
        <time>2020-09-22T11:54:02Z</time>
      </trkpt>
      <trkpt lat="46.55031" lon="4.86094">
        <ele>255</ele>
        <time>2020-09-22T11:54:12Z</time>
      </trkpt>
      <trkpt lat="46.55037" lon="4.85998">
        <ele>252</ele>
        <time>2020-09-22T11:54:27Z</time>
      </trkpt>
      <trkpt lat="46.55033" lon="4.85949">
        <ele>251</ele>
        <time>2020-09-22T11:54:35Z</time>
      </trkpt>
      <trkpt lat="46.55028" lon="4.85918">
        <ele>251</ele>
        <time>2020-09-22T11:54:40Z</time>
      </trkpt>
      <trkpt lat="46.55014" lon="4.85886">
        <ele>251</ele>
        <time>2020-09-22T11:54:46Z</time>
      </trkpt>
      <trkpt lat="46.55001" lon="4.85872">
        <ele>252</ele>
        <time>2020-09-22T11:54:50Z</time>
      </trkpt>
      <trkpt lat="46.54977" lon="4.85851">
        <ele>252</ele>
        <time>2020-09-22T11:54:56Z</time>
      </trkpt>
      <trkpt lat="46.54938" lon="4.85823">
        <ele>252</ele>
        <time>2020-09-22T11:55:07Z</time>
      </trkpt>
      <trkpt lat="46.54905" lon="4.85794">
        <ele>251</ele>
        <time>2020-09-22T11:55:16Z</time>
      </trkpt>
      <trkpt lat="46.54899" lon="4.85787">
        <ele>251</ele>
        <time>2020-09-22T11:55:17Z</time>
      </trkpt>
      <trkpt lat="46.54899" lon="4.85782">
        <ele>251</ele>
        <time>2020-09-22T11:55:18Z</time>
      </trkpt>
      <trkpt lat="46.54974" lon="4.85722">
        <ele>247</ele>
        <time>2020-09-22T11:55:38Z</time>
      </trkpt>
      <trkpt lat="46.5498" lon="4.85718">
        <ele>247</ele>
        <time>2020-09-22T11:55:40Z</time>
      </trkpt>
      <trkpt lat="46.54997" lon="4.85715">
        <ele>247</ele>
        <time>2020-09-22T11:55:44Z</time>
      </trkpt>
      <trkpt lat="46.55018" lon="4.85722">
        <ele>246</ele>
        <time>2020-09-22T11:55:49Z</time>
      </trkpt>
      <trkpt lat="46.55106" lon="4.85773">
        <ele>244</ele>
        <time>2020-09-22T11:56:11Z</time>
      </trkpt>
      <trkpt lat="46.55123" lon="4.85742">
        <ele>242</ele>
        <time>2020-09-22T11:56:17Z</time>
      </trkpt>
      <trkpt lat="46.55174" lon="4.85601">
        <ele>237</ele>
        <time>2020-09-22T11:56:43Z</time>
      </trkpt>
      <trkpt lat="46.55215" lon="4.85479">
        <ele>230</ele>
        <time>2020-09-22T11:57:05Z</time>
      </trkpt>
      <trkpt lat="46.55214" lon="4.85411">
        <ele>229</ele>
        <time>2020-09-22T11:57:16Z</time>
      </trkpt>
      <trkpt lat="46.55221" lon="4.85363">
        <ele>229</ele>
        <time>2020-09-22T11:57:23Z</time>
      </trkpt>
      <trkpt lat="46.55227" lon="4.85343">
        <ele>229</ele>
        <time>2020-09-22T11:57:27Z</time>
      </trkpt>
      <trkpt lat="46.55246" lon="4.85314">
        <ele>231</ele>
        <time>2020-09-22T11:57:33Z</time>
      </trkpt>
      <trkpt lat="46.5523" lon="4.85302">
        <ele>231</ele>
        <time>2020-09-22T11:57:38Z</time>
      </trkpt>
      <trkpt lat="46.55143" lon="4.85277">
        <ele>229</ele>
        <time>2020-09-22T11:57:58Z</time>
      </trkpt>
      <trkpt lat="46.55086" lon="4.85255">
        <ele>229</ele>
        <time>2020-09-22T11:58:12Z</time>
      </trkpt>
      <trkpt lat="46.54996" lon="4.85208">
        <ele>230</ele>
        <time>2020-09-22T11:58:34Z</time>
      </trkpt>
      <trkpt lat="46.54975" lon="4.85201">
        <ele>230</ele>
        <time>2020-09-22T11:58:39Z</time>
      </trkpt>
      <trkpt lat="46.54956" lon="4.85197">
        <ele>231</ele>
        <time>2020-09-22T11:58:44Z</time>
      </trkpt>
      <trkpt lat="46.54927" lon="4.85198">
        <ele>231</ele>
        <time>2020-09-22T11:58:51Z</time>
      </trkpt>
      <trkpt lat="46.54885" lon="4.8521">
        <ele>231</ele>
        <time>2020-09-22T11:59:01Z</time>
      </trkpt>
      <trkpt lat="46.5486" lon="4.8521">
        <ele>232</ele>
        <time>2020-09-22T11:59:07Z</time>
      </trkpt>
      <trkpt lat="46.54844" lon="4.85207">
        <ele>232</ele>
        <time>2020-09-22T11:59:10Z</time>
      </trkpt>
      <trkpt lat="46.54832" lon="4.85202">
        <ele>233</ele>
        <time>2020-09-22T11:59:13Z</time>
      </trkpt>
      <trkpt lat="46.54812" lon="4.85188">
        <ele>232</ele>
        <time>2020-09-22T11:59:18Z</time>
      </trkpt>
      <trkpt lat="46.54819" lon="4.85176">
        <ele>233</ele>
        <time>2020-09-22T11:59:21Z</time>
      </trkpt>
      <trkpt lat="46.54833" lon="4.85163">
        <ele>235</ele>
        <time>2020-09-22T11:59:25Z</time>
      </trkpt>
      <trkpt lat="46.5487" lon="4.85153">
        <ele>236</ele>
        <time>2020-09-22T11:59:34Z</time>
      </trkpt>
      <trkpt lat="46.54897" lon="4.85139">
        <ele>237</ele>
        <time>2020-09-22T11:59:40Z</time>
      </trkpt>
      <trkpt lat="46.54963" lon="4.85073">
        <ele>244</ele>
        <time>2020-09-22T11:59:59Z</time>
      </trkpt>
      <trkpt lat="46.55037" lon="4.85014">
        <ele>249</ele>
        <time>2020-09-22T12:00:19Z</time>
      </trkpt>
      <trkpt lat="46.54965" lon="4.84982">
        <ele>257</ele>
        <time>2020-09-22T12:00:36Z</time>
      </trkpt>
      <trkpt lat="46.54923" lon="4.84949">
        <ele>265</ele>
        <time>2020-09-22T12:00:47Z</time>
      </trkpt>
      <trkpt lat="46.54865" lon="4.8492">
        <ele>271</ele>
        <time>2020-09-22T12:01:02Z</time>
      </trkpt>
      <trkpt lat="46.54812" lon="4.84874">
        <ele>280</ele>
        <time>2020-09-22T12:01:16Z</time>
      </trkpt>
      <trkpt lat="46.54704" lon="4.84761">
        <ele>288</ele>
        <time>2020-09-22T12:01:47Z</time>
      </trkpt>
      <trkpt lat="46.54651" lon="4.84701">
        <ele>288</ele>
        <time>2020-09-22T12:02:03Z</time>
      </trkpt>
      <trkpt lat="46.54588" lon="4.8464">
        <ele>282</ele>
        <time>2020-09-22T12:02:21Z</time>
      </trkpt>
      <trkpt lat="46.54546" lon="4.84613">
        <ele>274</ele>
        <time>2020-09-22T12:02:31Z</time>
      </trkpt>
      <trkpt lat="46.54515" lon="4.84581">
        <ele>269</ele>
        <time>2020-09-22T12:02:40Z</time>
      </trkpt>
      <trkpt lat="46.54487" lon="4.84546">
        <ele>261</ele>
        <time>2020-09-22T12:02:49Z</time>
      </trkpt>
      <trkpt lat="46.54475" lon="4.84536">
        <ele>258</ele>
        <time>2020-09-22T12:02:52Z</time>
      </trkpt>
      <trkpt lat="46.5449" lon="4.84511">
        <ele>260</ele>
        <time>2020-09-22T12:02:57Z</time>
      </trkpt>
      <trkpt lat="46.54506" lon="4.8449">
        <ele>262</ele>
        <time>2020-09-22T12:03:02Z</time>
      </trkpt>
      <trkpt lat="46.54527" lon="4.84448">
        <ele>264</ele>
        <time>2020-09-22T12:03:11Z</time>
      </trkpt>
      <trkpt lat="46.54553" lon="4.84405">
        <ele>267</ele>
        <time>2020-09-22T12:03:20Z</time>
      </trkpt>
      <trkpt lat="46.54556" lon="4.84347">
        <ele>258</ele>
        <time>2020-09-22T12:03:29Z</time>
      </trkpt>
      <trkpt lat="46.54545" lon="4.84316">
        <ele>251</ele>
        <time>2020-09-22T12:03:35Z</time>
      </trkpt>
      <trkpt lat="46.54548" lon="4.84269">
        <ele>248</ele>
        <time>2020-09-22T12:03:43Z</time>
      </trkpt>
      <trkpt lat="46.54535" lon="4.84252">
        <ele>244</ele>
        <time>2020-09-22T12:03:47Z</time>
      </trkpt>
      <trkpt lat="46.5455" lon="4.84187">
        <ele>246</ele>
        <time>2020-09-22T12:03:58Z</time>
      </trkpt>
      <trkpt lat="46.54557" lon="4.84168">
        <ele>247</ele>
        <time>2020-09-22T12:04:01Z</time>
      </trkpt>
      <trkpt lat="46.54566" lon="4.84153">
        <ele>248</ele>
        <time>2020-09-22T12:04:04Z</time>
      </trkpt>
      <trkpt lat="46.5459" lon="4.84135">
        <ele>252</ele>
        <time>2020-09-22T12:04:11Z</time>
      </trkpt>
      <trkpt lat="46.5462" lon="4.84125">
        <ele>254</ele>
        <time>2020-09-22T12:04:18Z</time>
      </trkpt>
      <trkpt lat="46.54657" lon="4.84119">
        <ele>257</ele>
        <time>2020-09-22T12:04:26Z</time>
      </trkpt>
      <trkpt lat="46.54683" lon="4.841">
        <ele>257</ele>
        <time>2020-09-22T12:04:33Z</time>
      </trkpt>
      <trkpt lat="46.54697" lon="4.84085">
        <ele>257</ele>
        <time>2020-09-22T12:04:37Z</time>
      </trkpt>
      <trkpt lat="46.54709" lon="4.84067">
        <ele>258</ele>
        <time>2020-09-22T12:04:41Z</time>
      </trkpt>
      <trkpt lat="46.54715" lon="4.84042">
        <ele>259</ele>
        <time>2020-09-22T12:04:46Z</time>
      </trkpt>
      <trkpt lat="46.54719" lon="4.84034">
        <ele>259</ele>
        <time>2020-09-22T12:04:47Z</time>
      </trkpt>
      <trkpt lat="46.54726" lon="4.84034">
        <ele>259</ele>
        <time>2020-09-22T12:04:49Z</time>
      </trkpt>
      <trkpt lat="46.54751" lon="4.84054">
        <ele>258</ele>
        <time>2020-09-22T12:04:55Z</time>
      </trkpt>
      <trkpt lat="46.54754" lon="4.84054">
        <ele>259</ele>
        <time>2020-09-22T12:04:56Z</time>
      </trkpt>
      <trkpt lat="46.54775" lon="4.84038">
        <ele>262</ele>
        <time>2020-09-22T12:05:02Z</time>
      </trkpt>
      <trkpt lat="46.54794" lon="4.84027">
        <ele>265</ele>
        <time>2020-09-22T12:05:06Z</time>
      </trkpt>
      <trkpt lat="46.54837" lon="4.84007">
        <ele>271</ele>
        <time>2020-09-22T12:05:17Z</time>
      </trkpt>
      <trkpt lat="46.5485" lon="4.83993">
        <ele>273</ele>
        <time>2020-09-22T12:05:21Z</time>
      </trkpt>
      <trkpt lat="46.54871" lon="4.8398">
        <ele>276</ele>
        <time>2020-09-22T12:05:26Z</time>
      </trkpt>
      <trkpt lat="46.54888" lon="4.83961">
        <ele>278</ele>
        <time>2020-09-22T12:05:31Z</time>
      </trkpt>
      <trkpt lat="46.54897" lon="4.83899">
        <ele>281</ele>
        <time>2020-09-22T12:05:41Z</time>
      </trkpt>
      <trkpt lat="46.54898" lon="4.83877">
        <ele>281</ele>
        <time>2020-09-22T12:05:45Z</time>
      </trkpt>
      <trkpt lat="46.54897" lon="4.83857">
        <ele>281</ele>
        <time>2020-09-22T12:05:48Z</time>
      </trkpt>
      <trkpt lat="46.54872" lon="4.83799">
        <ele>280</ele>
        <time>2020-09-22T12:05:59Z</time>
      </trkpt>
      <trkpt lat="46.54848" lon="4.83728">
        <ele>280</ele>
        <time>2020-09-22T12:06:12Z</time>
      </trkpt>
      <trkpt lat="46.54803" lon="4.83711">
        <ele>277</ele>
        <time>2020-09-22T12:06:23Z</time>
      </trkpt>
      <trkpt lat="46.54737" lon="4.83699">
        <ele>273</ele>
        <time>2020-09-22T12:06:38Z</time>
      </trkpt>
      <trkpt lat="46.54728" lon="4.837">
        <ele>274</ele>
        <time>2020-09-22T12:06:40Z</time>
      </trkpt>
      <trkpt lat="46.54706" lon="4.83718">
        <ele>274</ele>
        <time>2020-09-22T12:06:46Z</time>
      </trkpt>
      <trkpt lat="46.54663" lon="4.83767">
        <ele>274</ele>
        <time>2020-09-22T12:06:59Z</time>
      </trkpt>
      <trkpt lat="46.54638" lon="4.8377">
        <ele>274</ele>
        <time>2020-09-22T12:07:05Z</time>
      </trkpt>
      <trkpt lat="46.5463" lon="4.83773">
        <ele>274</ele>
        <time>2020-09-22T12:07:07Z</time>
      </trkpt>
      <trkpt lat="46.54605" lon="4.83794">
        <ele>273</ele>
        <time>2020-09-22T12:07:13Z</time>
      </trkpt>
      <trkpt lat="46.54594" lon="4.83797">
        <ele>273</ele>
        <time>2020-09-22T12:07:16Z</time>
      </trkpt>
      <trkpt lat="46.54584" lon="4.83792">
        <ele>273</ele>
        <time>2020-09-22T12:07:19Z</time>
      </trkpt>
      <trkpt lat="46.54543" lon="4.83738">
        <ele>274</ele>
        <time>2020-09-22T12:07:31Z</time>
      </trkpt>
      <trkpt lat="46.54559" lon="4.8369">
        <ele>278</ele>
        <time>2020-09-22T12:07:40Z</time>
      </trkpt>
      <trkpt lat="46.54552" lon="4.83672">
        <ele>279</ele>
        <time>2020-09-22T12:07:43Z</time>
      </trkpt>
      <trkpt lat="46.54549" lon="4.83648">
        <ele>280</ele>
        <time>2020-09-22T12:07:47Z</time>
      </trkpt>
      <trkpt lat="46.54543" lon="4.83635">
        <ele>280</ele>
        <time>2020-09-22T12:07:50Z</time>
      </trkpt>
      <trkpt lat="46.54532" lon="4.83622">
        <ele>281</ele>
        <time>2020-09-22T12:07:53Z</time>
      </trkpt>
      <trkpt lat="46.54511" lon="4.83605">
        <ele>281</ele>
        <time>2020-09-22T12:07:59Z</time>
      </trkpt>
      <trkpt lat="46.54502" lon="4.83604">
        <ele>281</ele>
        <time>2020-09-22T12:08:01Z</time>
      </trkpt>
      <trkpt lat="46.54511" lon="4.83605">
        <ele>281</ele>
        <time>2020-09-22T12:08:03Z</time>
      </trkpt>
      <trkpt lat="46.54509" lon="4.83578">
        <ele>282</ele>
        <time>2020-09-22T12:08:07Z</time>
      </trkpt>
      <trkpt lat="46.54514" lon="4.83538">
        <ele>285</ele>
        <time>2020-09-22T12:08:14Z</time>
      </trkpt>
      <trkpt lat="46.5451" lon="4.83508">
        <ele>286</ele>
        <time>2020-09-22T12:08:19Z</time>
      </trkpt>
      <trkpt lat="46.54468" lon="4.83383">
        <ele>294</ele>
        <time>2020-09-22T12:08:41Z</time>
      </trkpt>
      <trkpt lat="46.54458" lon="4.83361">
        <ele>294</ele>
        <time>2020-09-22T12:08:45Z</time>
      </trkpt>
      <trkpt lat="46.54423" lon="4.83307">
        <ele>295</ele>
        <time>2020-09-22T12:08:57Z</time>
      </trkpt>
      <trkpt lat="46.5441" lon="4.83271">
        <ele>296</ele>
        <time>2020-09-22T12:09:04Z</time>
      </trkpt>
      <trkpt lat="46.54411" lon="4.83262">
        <ele>297</ele>
        <time>2020-09-22T12:09:05Z</time>
      </trkpt>
      <trkpt lat="46.54425" lon="4.83225">
        <ele>301</ele>
        <time>2020-09-22T12:09:12Z</time>
      </trkpt>
      <trkpt lat="46.54431" lon="4.83185">
        <ele>304</ele>
        <time>2020-09-22T12:09:19Z</time>
      </trkpt>
      <trkpt lat="46.5443" lon="4.83161">
        <ele>306</ele>
        <time>2020-09-22T12:09:22Z</time>
      </trkpt>
      <trkpt lat="46.5441" lon="4.83086">
        <ele>309</ele>
        <time>2020-09-22T12:09:35Z</time>
      </trkpt>
      <trkpt lat="46.54407" lon="4.83061">
        <ele>312</ele>
        <time>2020-09-22T12:09:39Z</time>
      </trkpt>
      <trkpt lat="46.54409" lon="4.83046">
        <ele>313</ele>
        <time>2020-09-22T12:09:42Z</time>
      </trkpt>
      <trkpt lat="46.54426" lon="4.82997">
        <ele>319</ele>
        <time>2020-09-22T12:09:51Z</time>
      </trkpt>
      <trkpt lat="46.54471" lon="4.82845">
        <ele>335</ele>
        <time>2020-09-22T12:10:17Z</time>
      </trkpt>
      <trkpt lat="46.54477" lon="4.82799">
        <ele>340</ele>
        <time>2020-09-22T12:10:25Z</time>
      </trkpt>
      <trkpt lat="46.54482" lon="4.82779">
        <ele>342</ele>
        <time>2020-09-22T12:10:28Z</time>
      </trkpt>
      <trkpt lat="46.54488" lon="4.82729">
        <ele>345</ele>
        <time>2020-09-22T12:10:36Z</time>
      </trkpt>
      <trkpt lat="46.54488" lon="4.82677">
        <ele>348</ele>
        <time>2020-09-22T12:10:45Z</time>
      </trkpt>
      <trkpt lat="46.54484" lon="4.82602">
        <ele>348</ele>
        <time>2020-09-22T12:10:57Z</time>
      </trkpt>
      <trkpt lat="46.54488" lon="4.82546">
        <ele>344</ele>
        <time>2020-09-22T12:11:06Z</time>
      </trkpt>
      <trkpt lat="46.54491" lon="4.8254">
        <ele>343</ele>
        <time>2020-09-22T12:11:07Z</time>
      </trkpt>
      <trkpt lat="46.54506" lon="4.82534">
        <ele>342</ele>
        <time>2020-09-22T12:11:11Z</time>
      </trkpt>
      <trkpt lat="46.5452" lon="4.82535">
        <ele>340</ele>
        <time>2020-09-22T12:11:14Z</time>
      </trkpt>
      <trkpt lat="46.54569" lon="4.82549">
        <ele>338</ele>
        <time>2020-09-22T12:11:26Z</time>
      </trkpt>
      <trkpt lat="46.54593" lon="4.82553">
        <ele>337</ele>
        <time>2020-09-22T12:11:31Z</time>
      </trkpt>
      <trkpt lat="46.54607" lon="4.82545">
        <ele>334</ele>
        <time>2020-09-22T12:11:35Z</time>
      </trkpt>
      <trkpt lat="46.54614" lon="4.82535">
        <ele>332</ele>
        <time>2020-09-22T12:11:37Z</time>
      </trkpt>
      <trkpt lat="46.54699" lon="4.82264">
        <ele>304</ele>
        <time>2020-09-22T12:12:25Z</time>
      </trkpt>
      <trkpt lat="46.54623" lon="4.82208">
        <ele>309</ele>
        <time>2020-09-22T12:12:45Z</time>
      </trkpt>
      <trkpt lat="46.54603" lon="4.82197">
        <ele>311</ele>
        <time>2020-09-22T12:12:50Z</time>
      </trkpt>
      <trkpt lat="46.54597" lon="4.8219">
        <ele>312</ele>
        <time>2020-09-22T12:12:52Z</time>
      </trkpt>
      <trkpt lat="46.54616" lon="4.82186">
        <ele>310</ele>
        <time>2020-09-22T12:12:56Z</time>
      </trkpt>
      <trkpt lat="46.54626" lon="4.82189">
        <ele>309</ele>
        <time>2020-09-22T12:12:58Z</time>
      </trkpt>
      <trkpt lat="46.54661" lon="4.82207">
        <ele>306</ele>
        <time>2020-09-22T12:13:07Z</time>
      </trkpt>
      <trkpt lat="46.54692" lon="4.82134">
        <ele>301</ele>
        <time>2020-09-22T12:13:21Z</time>
      </trkpt>
      <trkpt lat="46.5471" lon="4.82079">
        <ele>299</ele>
        <time>2020-09-22T12:13:31Z</time>
      </trkpt>
      <trkpt lat="46.54719" lon="4.82061">
        <ele>300</ele>
        <time>2020-09-22T12:13:34Z</time>
      </trkpt>
      <trkpt lat="46.54787" lon="4.82024">
        <ele>297</ele>
        <time>2020-09-22T12:13:51Z</time>
      </trkpt>
      <trkpt lat="46.54815" lon="4.82014">
        <ele>295</ele>
        <time>2020-09-22T12:13:58Z</time>
      </trkpt>
      <trkpt lat="46.5483" lon="4.82012">
        <ele>293</ele>
        <time>2020-09-22T12:14:01Z</time>
      </trkpt>
      <trkpt lat="46.5487" lon="4.81997">
        <ele>290</ele>
        <time>2020-09-22T12:14:11Z</time>
      </trkpt>
      <trkpt lat="46.54908" lon="4.81996">
        <ele>285</ele>
        <time>2020-09-22T12:14:20Z</time>
      </trkpt>
      <trkpt lat="46.5493" lon="4.81989">
        <ele>285</ele>
        <time>2020-09-22T12:14:25Z</time>
      </trkpt>
      <trkpt lat="46.55022" lon="4.81971">
        <ele>287</ele>
        <time>2020-09-22T12:14:47Z</time>
      </trkpt>
      <trkpt lat="46.55036" lon="4.81967">
        <ele>288</ele>
        <time>2020-09-22T12:14:50Z</time>
      </trkpt>
      <trkpt lat="46.55038" lon="4.81958">
        <ele>288</ele>
        <time>2020-09-22T12:14:52Z</time>
      </trkpt>
      <trkpt lat="46.55037" lon="4.81954">
        <ele>288</ele>
        <time>2020-09-22T12:14:52Z</time>
      </trkpt>
      <trkpt lat="46.55013" lon="4.8193">
        <ele>290</ele>
        <time>2020-09-22T12:14:59Z</time>
      </trkpt>
      <trkpt lat="46.54999" lon="4.81909">
        <ele>292</ele>
        <time>2020-09-22T12:15:04Z</time>
      </trkpt>
      <trkpt lat="46.54995" lon="4.81898">
        <ele>293</ele>
        <time>2020-09-22T12:15:06Z</time>
      </trkpt>
      <trkpt lat="46.54993" lon="4.81881">
        <ele>294</ele>
        <time>2020-09-22T12:15:09Z</time>
      </trkpt>
      <trkpt lat="46.55001" lon="4.81838">
        <ele>296</ele>
        <time>2020-09-22T12:15:16Z</time>
      </trkpt>
      <trkpt lat="46.55003" lon="4.81806">
        <ele>297</ele>
        <time>2020-09-22T12:15:21Z</time>
      </trkpt>
      <trkpt lat="46.54994" lon="4.8176">
        <ele>299</ele>
        <time>2020-09-22T12:15:29Z</time>
      </trkpt>
      <trkpt lat="46.54975" lon="4.8171">
        <ele>302</ele>
        <time>2020-09-22T12:15:38Z</time>
      </trkpt>
      <trkpt lat="46.54919" lon="4.81616">
        <ele>312</ele>
        <time>2020-09-22T12:15:58Z</time>
      </trkpt>
      <trkpt lat="46.54901" lon="4.81569">
        <ele>315</ele>
        <time>2020-09-22T12:16:07Z</time>
      </trkpt>
      <trkpt lat="46.54895" lon="4.81543">
        <ele>317</ele>
        <time>2020-09-22T12:16:11Z</time>
      </trkpt>
      <trkpt lat="46.54892" lon="4.81525">
        <ele>318</ele>
        <time>2020-09-22T12:16:14Z</time>
      </trkpt>
      <trkpt lat="46.54897" lon="4.81497">
        <ele>319</ele>
        <time>2020-09-22T12:16:19Z</time>
      </trkpt>
      <trkpt lat="46.54925" lon="4.814">
        <ele>325</ele>
        <time>2020-09-22T12:16:35Z</time>
      </trkpt>
      <trkpt lat="46.54924" lon="4.81387">
        <ele>326</ele>
        <time>2020-09-22T12:16:38Z</time>
      </trkpt>
      <trkpt lat="46.54911" lon="4.81374">
        <ele>328</ele>
        <time>2020-09-22T12:16:41Z</time>
      </trkpt>
      <trkpt lat="46.5489" lon="4.8136">
        <ele>330</ele>
        <time>2020-09-22T12:16:47Z</time>
      </trkpt>
      <trkpt lat="46.54878" lon="4.81346">
        <ele>332</ele>
        <time>2020-09-22T12:16:50Z</time>
      </trkpt>
      <trkpt lat="46.54874" lon="4.81336">
        <ele>333</ele>
        <time>2020-09-22T12:16:52Z</time>
      </trkpt>
      <trkpt lat="46.54867" lon="4.8128">
        <ele>338</ele>
        <time>2020-09-22T12:17:01Z</time>
      </trkpt>
      <trkpt lat="46.54862" lon="4.81262">
        <ele>339</ele>
        <time>2020-09-22T12:17:04Z</time>
      </trkpt>
      <trkpt lat="46.54801" lon="4.81118">
        <ele>349</ele>
        <time>2020-09-22T12:17:32Z</time>
      </trkpt>
      <trkpt lat="46.54788" lon="4.8105">
        <ele>353</ele>
        <time>2020-09-22T12:17:43Z</time>
      </trkpt>
      <trkpt lat="46.54768" lon="4.81006">
        <ele>357</ele>
        <time>2020-09-22T12:17:51Z</time>
      </trkpt>
      <trkpt lat="46.54741" lon="4.80968">
        <ele>359</ele>
        <time>2020-09-22T12:18:00Z</time>
      </trkpt>
      <trkpt lat="46.54733" lon="4.80952">
        <ele>359</ele>
        <time>2020-09-22T12:18:03Z</time>
      </trkpt>
      <trkpt lat="46.54708" lon="4.80884">
        <ele>362</ele>
        <time>2020-09-22T12:18:16Z</time>
      </trkpt>
      <trkpt lat="46.54701" lon="4.80871">
        <ele>362</ele>
        <time>2020-09-22T12:18:18Z</time>
      </trkpt>
      <trkpt lat="46.54671" lon="4.80846">
        <ele>363</ele>
        <time>2020-09-22T12:18:26Z</time>
      </trkpt>
      <trkpt lat="46.54645" lon="4.80816">
        <ele>366</ele>
        <time>2020-09-22T12:18:34Z</time>
      </trkpt>
      <trkpt lat="46.54592" lon="4.80741">
        <ele>371</ele>
        <time>2020-09-22T12:18:51Z</time>
      </trkpt>
      <trkpt lat="46.54557" lon="4.80662">
        <ele>378</ele>
        <time>2020-09-22T12:19:06Z</time>
      </trkpt>
      <trkpt lat="46.54511" lon="4.80584">
        <ele>382</ele>
        <time>2020-09-22T12:19:23Z</time>
      </trkpt>
      <trkpt lat="46.54509" lon="4.80553">
        <ele>382</ele>
        <time>2020-09-22T12:19:28Z</time>
      </trkpt>
      <trkpt lat="46.54507" lon="4.80552">
        <ele>382</ele>
        <time>2020-09-22T12:19:28Z</time>
      </trkpt>
      <trkpt lat="46.54472" lon="4.80405">
        <ele>381</ele>
        <time>2020-09-22T12:19:53Z</time>
      </trkpt>
      <trkpt lat="46.54467" lon="4.80325">
        <ele>380</ele>
        <time>2020-09-22T12:20:06Z</time>
      </trkpt>
      <trkpt lat="46.54462" lon="4.80286">
        <ele>380</ele>
        <time>2020-09-22T12:20:13Z</time>
      </trkpt>
      <trkpt lat="46.54374" lon="4.80213">
        <ele>374</ele>
        <time>2020-09-22T12:20:36Z</time>
      </trkpt>
      <trkpt lat="46.54363" lon="4.80207">
        <ele>373</ele>
        <time>2020-09-22T12:20:39Z</time>
      </trkpt>
      <trkpt lat="46.54365" lon="4.8018">
        <ele>373</ele>
        <time>2020-09-22T12:20:44Z</time>
      </trkpt>
      <trkpt lat="46.54373" lon="4.80139">
        <ele>372</ele>
        <time>2020-09-22T12:20:50Z</time>
      </trkpt>
      <trkpt lat="46.54378" lon="4.80072">
        <ele>369</ele>
        <time>2020-09-22T12:21:01Z</time>
      </trkpt>
      <trkpt lat="46.54381" lon="4.8006">
        <ele>368</ele>
        <time>2020-09-22T12:21:03Z</time>
      </trkpt>
      <trkpt lat="46.54387" lon="4.80046">
        <ele>367</ele>
        <time>2020-09-22T12:21:06Z</time>
      </trkpt>
      <trkpt lat="46.54431" lon="4.79987">
        <ele>363</ele>
        <time>2020-09-22T12:21:20Z</time>
      </trkpt>
      <trkpt lat="46.5443" lon="4.7998">
        <ele>362</ele>
        <time>2020-09-22T12:21:21Z</time>
      </trkpt>
      <trkpt lat="46.54436" lon="4.79957">
        <ele>360</ele>
        <time>2020-09-22T12:21:25Z</time>
      </trkpt>
      <trkpt lat="46.5444" lon="4.79949">
        <ele>359</ele>
        <time>2020-09-22T12:21:27Z</time>
      </trkpt>
      <trkpt lat="46.54465" lon="4.79918">
        <ele>359</ele>
        <time>2020-09-22T12:21:34Z</time>
      </trkpt>
      <trkpt lat="46.54467" lon="4.79911">
        <ele>359</ele>
        <time>2020-09-22T12:21:35Z</time>
      </trkpt>
      <trkpt lat="46.54461" lon="4.79897">
        <ele>356</ele>
        <time>2020-09-22T12:21:38Z</time>
      </trkpt>
      <trkpt lat="46.54476" lon="4.79895">
        <ele>357</ele>
        <time>2020-09-22T12:21:42Z</time>
      </trkpt>
    </trkseg>
  </trk>
  <trk>
    <name><![CDATA[7 LE_GRAND_TOUR_DU_TOURNUGEOIS - Noir]]></name>
    <extensions>
      <line xmlns="http://www.topografix.com/GPX/gpx_style/0/2">
        <color>000024</color>
        <width>4</width>
      </line>
    </extensions>
    <trkseg>
      <trkpt lat="46.57057" lon="4.91205">
        <ele>173</ele>
        <time>2020-09-22T10:12:40Z</time>
      </trkpt>
      <trkpt lat="46.56791" lon="4.91122">
        <ele>173</ele>
        <time>2020-09-22T10:13:44Z</time>
      </trkpt>
      <trkpt lat="46.56698" lon="4.91107">
        <ele>173</ele>
        <time>2020-09-22T10:14:05Z</time>
      </trkpt>
      <trkpt lat="46.56693" lon="4.91104">
        <ele>174</ele>
        <time>2020-09-22T10:14:07Z</time>
      </trkpt>
      <trkpt lat="46.56687" lon="4.91087">
        <ele>175</ele>
        <time>2020-09-22T10:14:10Z</time>
      </trkpt>
      <trkpt lat="46.56655" lon="4.91105">
        <ele>175</ele>
        <time>2020-09-22T10:14:18Z</time>
      </trkpt>
      <trkpt lat="46.56582" lon="4.91123">
        <ele>176</ele>
        <time>2020-09-22T10:14:35Z</time>
      </trkpt>
      <trkpt lat="46.56544" lon="4.91139">
        <ele>177</ele>
        <time>2020-09-22T10:14:44Z</time>
      </trkpt>
      <trkpt lat="46.56469" lon="4.91181">
        <ele>178</ele>
        <time>2020-09-22T10:15:03Z</time>
      </trkpt>
      <trkpt lat="46.5644" lon="4.91191">
        <ele>178</ele>
        <time>2020-09-22T10:15:10Z</time>
      </trkpt>
      <trkpt lat="46.56399" lon="4.91211">
        <ele>178</ele>
        <time>2020-09-22T10:15:20Z</time>
      </trkpt>
      <trkpt lat="46.56332" lon="4.91249">
        <ele>179</ele>
        <time>2020-09-22T10:15:37Z</time>
      </trkpt>
      <trkpt lat="46.56299" lon="4.91273">
        <ele>179</ele>
        <time>2020-09-22T10:15:45Z</time>
      </trkpt>
      <trkpt lat="46.56164" lon="4.91384">
        <ele>178</ele>
        <time>2020-09-22T10:16:22Z</time>
      </trkpt>
      <trkpt lat="46.56017" lon="4.91537">
        <ele>174</ele>
        <time>2020-09-22T10:17:04Z</time>
      </trkpt>
      <trkpt lat="46.55925" lon="4.91602">
        <ele>175</ele>
        <time>2020-09-22T10:17:28Z</time>
      </trkpt>
      <trkpt lat="46.55731" lon="4.91718">
        <ele>171</ele>
        <time>2020-09-22T10:18:17Z</time>
      </trkpt>
      <trkpt lat="46.55673" lon="4.91741">
        <ele>174</ele>
        <time>2020-09-22T10:18:31Z</time>
      </trkpt>
      <trkpt lat="46.5559" lon="4.91761">
        <ele>174</ele>
        <time>2020-09-22T10:18:50Z</time>
      </trkpt>
      <trkpt lat="46.55537" lon="4.91591">
        <ele>175</ele>
        <time>2020-09-22T10:19:20Z</time>
      </trkpt>
      <trkpt lat="46.55523" lon="4.91585">
        <ele>175</ele>
        <time>2020-09-22T10:19:24Z</time>
      </trkpt>
      <trkpt lat="46.55489" lon="4.91587">
        <ele>174</ele>
        <time>2020-09-22T10:19:32Z</time>
      </trkpt>
      <trkpt lat="46.55464" lon="4.91593">
        <ele>174</ele>
        <time>2020-09-22T10:19:38Z</time>
      </trkpt>
      <trkpt lat="46.5543" lon="4.91605">
        <ele>175</ele>
        <time>2020-09-22T10:19:46Z</time>
      </trkpt>
      <trkpt lat="46.55411" lon="4.91613">
        <ele>175</ele>
        <time>2020-09-22T10:19:51Z</time>
      </trkpt>
      <trkpt lat="46.55391" lon="4.91625">
        <ele>176</ele>
        <time>2020-09-22T10:19:56Z</time>
      </trkpt>
      <trkpt lat="46.55384" lon="4.91619">
        <ele>176</ele>
        <time>2020-09-22T10:19:57Z</time>
      </trkpt>
      <trkpt lat="46.55377" lon="4.91619">
        <ele>176</ele>
        <time>2020-09-22T10:19:59Z</time>
      </trkpt>
      <trkpt lat="46.5533" lon="4.91633">
        <ele>177</ele>
        <time>2020-09-22T10:20:10Z</time>
      </trkpt>
      <trkpt lat="46.55318" lon="4.91634">
        <ele>178</ele>
        <time>2020-09-22T10:20:13Z</time>
      </trkpt>
      <trkpt lat="46.55295" lon="4.91629">
        <ele>179</ele>
        <time>2020-09-22T10:20:19Z</time>
      </trkpt>
      <trkpt lat="46.5527" lon="4.91618">
        <ele>181</ele>
        <time>2020-09-22T10:20:25Z</time>
      </trkpt>
      <trkpt lat="46.55244" lon="4.91597">
        <ele>183</ele>
        <time>2020-09-22T10:20:32Z</time>
      </trkpt>
      <trkpt lat="46.55253" lon="4.91574">
        <ele>183</ele>
        <time>2020-09-22T10:20:36Z</time>
      </trkpt>
      <trkpt lat="46.55254" lon="4.91557">
        <ele>182</ele>
        <time>2020-09-22T10:20:39Z</time>
      </trkpt>
      <trkpt lat="46.55252" lon="4.91549">
        <ele>182</ele>
        <time>2020-09-22T10:20:40Z</time>
      </trkpt>
      <trkpt lat="46.55225" lon="4.9152">
        <ele>183</ele>
        <time>2020-09-22T10:20:48Z</time>
      </trkpt>
      <trkpt lat="46.552" lon="4.915">
        <ele>185</ele>
        <time>2020-09-22T10:20:54Z</time>
      </trkpt>
      <trkpt lat="46.55193" lon="4.91484">
        <ele>185</ele>
        <time>2020-09-22T10:20:57Z</time>
      </trkpt>
      <trkpt lat="46.55192" lon="4.91473">
        <ele>185</ele>
        <time>2020-09-22T10:20:59Z</time>
      </trkpt>
      <trkpt lat="46.55196" lon="4.91428">
        <ele>185</ele>
        <time>2020-09-22T10:21:07Z</time>
      </trkpt>
      <trkpt lat="46.55217" lon="4.91334">
        <ele>184</ele>
        <time>2020-09-22T10:21:22Z</time>
      </trkpt>
      <trkpt lat="46.55233" lon="4.91237">
        <ele>188</ele>
        <time>2020-09-22T10:21:38Z</time>
      </trkpt>
      <trkpt lat="46.55232" lon="4.91207">
        <ele>188</ele>
        <time>2020-09-22T10:21:43Z</time>
      </trkpt>
      <trkpt lat="46.55224" lon="4.91185">
        <ele>189</ele>
        <time>2020-09-22T10:21:47Z</time>
      </trkpt>
      <trkpt lat="46.55223" lon="4.91163">
        <ele>190</ele>
        <time>2020-09-22T10:21:51Z</time>
      </trkpt>
      <trkpt lat="46.55234" lon="4.91014">
        <ele>191</ele>
        <time>2020-09-22T10:22:15Z</time>
      </trkpt>
      <trkpt lat="46.55255" lon="4.9093">
        <ele>192</ele>
        <time>2020-09-22T10:22:29Z</time>
      </trkpt>
      <trkpt lat="46.55317" lon="4.90739">
        <ele>188</ele>
        <time>2020-09-22T10:23:03Z</time>
      </trkpt>
      <trkpt lat="46.55425" lon="4.90738">
        <ele>185</ele>
        <time>2020-09-22T10:23:28Z</time>
      </trkpt>
      <trkpt lat="46.55467" lon="4.90734">
        <ele>185</ele>
        <time>2020-09-22T10:23:38Z</time>
      </trkpt>
      <trkpt lat="46.55565" lon="4.90718">
        <ele>189</ele>
        <time>2020-09-22T10:24:01Z</time>
      </trkpt>
      <trkpt lat="46.55554" lon="4.90753">
        <ele>188</ele>
        <time>2020-09-22T10:24:07Z</time>
      </trkpt>
      <trkpt lat="46.55545" lon="4.90768">
        <ele>188</ele>
        <time>2020-09-22T10:24:11Z</time>
      </trkpt>
      <trkpt lat="46.55525" lon="4.90816">
        <ele>188</ele>
        <time>2020-09-22T10:24:20Z</time>
      </trkpt>
      <trkpt lat="46.55492" lon="4.9096">
        <ele>187</ele>
        <time>2020-09-22T10:24:44Z</time>
      </trkpt>
      <trkpt lat="46.55487" lon="4.91006">
        <ele>187</ele>
        <time>2020-09-22T10:24:51Z</time>
      </trkpt>
      <trkpt lat="46.55479" lon="4.91147">
        <ele>186</ele>
        <time>2020-09-22T10:25:14Z</time>
      </trkpt>
      <trkpt lat="46.55482" lon="4.91238">
        <ele>185</ele>
        <time>2020-09-22T10:25:29Z</time>
      </trkpt>
      <trkpt lat="46.55485" lon="4.91244">
        <ele>185</ele>
        <time>2020-09-22T10:25:30Z</time>
      </trkpt>
      <trkpt lat="46.5549" lon="4.91245">
        <ele>186</ele>
        <time>2020-09-22T10:25:31Z</time>
      </trkpt>
      <trkpt lat="46.55635" lon="4.91238">
        <ele>186</ele>
        <time>2020-09-22T10:26:05Z</time>
      </trkpt>
      <trkpt lat="46.5566" lon="4.91234">
        <ele>185</ele>
        <time>2020-09-22T10:26:11Z</time>
      </trkpt>
      <trkpt lat="46.55724" lon="4.91177">
        <ele>185</ele>
        <time>2020-09-22T10:26:28Z</time>
      </trkpt>
      <trkpt lat="46.55749" lon="4.91121">
        <ele>186</ele>
        <time>2020-09-22T10:26:39Z</time>
      </trkpt>
      <trkpt lat="46.5575" lon="4.911">
        <ele>186</ele>
        <time>2020-09-22T10:26:43Z</time>
      </trkpt>
      <trkpt lat="46.55756" lon="4.91082">
        <ele>187</ele>
        <time>2020-09-22T10:26:46Z</time>
      </trkpt>
      <trkpt lat="46.5575" lon="4.91056">
        <ele>188</ele>
        <time>2020-09-22T10:26:50Z</time>
      </trkpt>
      <trkpt lat="46.55742" lon="4.90998">
        <ele>189</ele>
        <time>2020-09-22T10:27:00Z</time>
      </trkpt>
      <trkpt lat="46.55732" lon="4.90977">
        <ele>189</ele>
        <time>2020-09-22T10:27:04Z</time>
      </trkpt>
      <trkpt lat="46.55703" lon="4.90957">
        <ele>189</ele>
        <time>2020-09-22T10:27:11Z</time>
      </trkpt>
      <trkpt lat="46.55698" lon="4.9095">
        <ele>189</ele>
        <time>2020-09-22T10:27:13Z</time>
      </trkpt>
      <trkpt lat="46.55694" lon="4.90938">
        <ele>189</ele>
        <time>2020-09-22T10:27:15Z</time>
      </trkpt>
      <trkpt lat="46.55687" lon="4.90768">
        <ele>192</ele>
        <time>2020-09-22T10:27:42Z</time>
      </trkpt>
      <trkpt lat="46.55689" lon="4.90743">
        <ele>192</ele>
        <time>2020-09-22T10:27:46Z</time>
      </trkpt>
      <trkpt lat="46.55739" lon="4.90743">
        <ele>192</ele>
        <time>2020-09-22T10:27:58Z</time>
      </trkpt>
      <trkpt lat="46.55761" lon="4.9074">
        <ele>192</ele>
        <time>2020-09-22T10:28:03Z</time>
      </trkpt>
      <trkpt lat="46.55796" lon="4.90722">
        <ele>192</ele>
        <time>2020-09-22T10:28:12Z</time>
      </trkpt>
      <trkpt lat="46.55804" lon="4.90715">
        <ele>192</ele>
        <time>2020-09-22T10:28:14Z</time>
      </trkpt>
      <trkpt lat="46.55827" lon="4.90735">
        <ele>192</ele>
        <time>2020-09-22T10:28:20Z</time>
      </trkpt>
      <trkpt lat="46.55927" lon="4.908">
        <ele>191</ele>
        <time>2020-09-22T10:28:46Z</time>
      </trkpt>
      <trkpt lat="46.55974" lon="4.90821">
        <ele>191</ele>
        <time>2020-09-22T10:28:57Z</time>
      </trkpt>
      <trkpt lat="46.55996" lon="4.90834">
        <ele>191</ele>
        <time>2020-09-22T10:29:03Z</time>
      </trkpt>
      <trkpt lat="46.56011" lon="4.9084">
        <ele>191</ele>
        <time>2020-09-22T10:29:07Z</time>
      </trkpt>
      <trkpt lat="46.56023" lon="4.90841">
        <ele>191</ele>
        <time>2020-09-22T10:29:09Z</time>
      </trkpt>
      <trkpt lat="46.56034" lon="4.9071">
        <ele>194</ele>
        <time>2020-09-22T10:29:31Z</time>
      </trkpt>
      <trkpt lat="46.56036" lon="4.90613">
        <ele>196</ele>
        <time>2020-09-22T10:29:46Z</time>
      </trkpt>
      <trkpt lat="46.56034" lon="4.90576">
        <ele>196</ele>
        <time>2020-09-22T10:29:52Z</time>
      </trkpt>
      <trkpt lat="46.56008" lon="4.90378">
        <ele>199</ele>
        <time>2020-09-22T10:30:25Z</time>
      </trkpt>
      <trkpt lat="46.56019" lon="4.901">
        <ele>203</ele>
        <time>2020-09-22T10:31:09Z</time>
      </trkpt>
      <trkpt lat="46.56027" lon="4.89805">
        <ele>207</ele>
        <time>2020-09-22T10:31:57Z</time>
      </trkpt>
      <trkpt lat="46.56028" lon="4.89521">
        <ele>213</ele>
        <time>2020-09-22T10:32:42Z</time>
      </trkpt>
      <trkpt lat="46.56026" lon="4.89496">
        <ele>213</ele>
        <time>2020-09-22T10:32:46Z</time>
      </trkpt>
      <trkpt lat="46.56033" lon="4.89477">
        <ele>213</ele>
        <time>2020-09-22T10:32:50Z</time>
      </trkpt>
      <trkpt lat="46.56062" lon="4.89239">
        <ele>217</ele>
        <time>2020-09-22T10:33:29Z</time>
      </trkpt>
      <trkpt lat="46.56063" lon="4.89209">
        <ele>216</ele>
        <time>2020-09-22T10:33:33Z</time>
      </trkpt>
      <trkpt lat="46.56061" lon="4.89147">
        <ele>215</ele>
        <time>2020-09-22T10:33:43Z</time>
      </trkpt>
      <trkpt lat="46.56057" lon="4.89109">
        <ele>215</ele>
        <time>2020-09-22T10:33:50Z</time>
      </trkpt>
      <trkpt lat="46.56039" lon="4.89">
        <ele>216</ele>
        <time>2020-09-22T10:34:08Z</time>
      </trkpt>
      <trkpt lat="46.5604" lon="4.8893">
        <ele>211</ele>
        <time>2020-09-22T10:34:19Z</time>
      </trkpt>
      <trkpt lat="46.56025" lon="4.88748">
        <ele>209</ele>
        <time>2020-09-22T10:34:48Z</time>
      </trkpt>
      <trkpt lat="46.56026" lon="4.8871">
        <ele>208</ele>
        <time>2020-09-22T10:34:54Z</time>
      </trkpt>
      <trkpt lat="46.56032" lon="4.8866">
        <ele>208</ele>
        <time>2020-09-22T10:35:02Z</time>
      </trkpt>
      <trkpt lat="46.56043" lon="4.8862">
        <ele>208</ele>
        <time>2020-09-22T10:35:09Z</time>
      </trkpt>
      <trkpt lat="46.56036" lon="4.88613">
        <ele>208</ele>
        <time>2020-09-22T10:35:11Z</time>
      </trkpt>
      <trkpt lat="46.56008" lon="4.88601">
        <ele>209</ele>
        <time>2020-09-22T10:35:18Z</time>
      </trkpt>
      <trkpt lat="46.55963" lon="4.88612">
        <ele>212</ele>
        <time>2020-09-22T10:35:29Z</time>
      </trkpt>
      <trkpt lat="46.55918" lon="4.886">
        <ele>217</ele>
        <time>2020-09-22T10:35:40Z</time>
      </trkpt>
      <trkpt lat="46.559" lon="4.88601">
        <ele>220</ele>
        <time>2020-09-22T10:35:44Z</time>
      </trkpt>
      <trkpt lat="46.55861" lon="4.88621">
        <ele>226</ele>
        <time>2020-09-22T10:35:53Z</time>
      </trkpt>
      <trkpt lat="46.55828" lon="4.88633">
        <ele>232</ele>
        <time>2020-09-22T10:36:01Z</time>
      </trkpt>
      <trkpt lat="46.55815" lon="4.88648">
        <ele>235</ele>
        <time>2020-09-22T10:36:05Z</time>
      </trkpt>
      <trkpt lat="46.55807" lon="4.88671">
        <ele>237</ele>
        <time>2020-09-22T10:36:09Z</time>
      </trkpt>
      <trkpt lat="46.55802" lon="4.88679">
        <ele>238</ele>
        <time>2020-09-22T10:36:11Z</time>
      </trkpt>
      <trkpt lat="46.55766" lon="4.88572">
        <ele>246</ele>
        <time>2020-09-22T10:36:30Z</time>
      </trkpt>
      <trkpt lat="46.55726" lon="4.88473">
        <ele>251</ele>
        <time>2020-09-22T10:36:49Z</time>
      </trkpt>
      <trkpt lat="46.5571" lon="4.8844">
        <ele>253</ele>
        <time>2020-09-22T10:36:55Z</time>
      </trkpt>
      <trkpt lat="46.55624" lon="4.88287">
        <ele>257</ele>
        <time>2020-09-22T10:37:27Z</time>
      </trkpt>
      <trkpt lat="46.55571" lon="4.88203">
        <ele>260</ele>
        <time>2020-09-22T10:37:45Z</time>
      </trkpt>
      <trkpt lat="46.55536" lon="4.88157">
        <ele>261</ele>
        <time>2020-09-22T10:37:56Z</time>
      </trkpt>
      <trkpt lat="46.55504" lon="4.8809">
        <ele>259</ele>
        <time>2020-09-22T10:38:09Z</time>
      </trkpt>
      <trkpt lat="46.55495" lon="4.88066">
        <ele>258</ele>
        <time>2020-09-22T10:38:14Z</time>
      </trkpt>
      <trkpt lat="46.55482" lon="4.88041">
        <ele>256</ele>
        <time>2020-09-22T10:38:19Z</time>
      </trkpt>
      <trkpt lat="46.55463" lon="4.88015">
        <ele>254</ele>
        <time>2020-09-22T10:38:25Z</time>
      </trkpt>
      <trkpt lat="46.55451" lon="4.88006">
        <ele>254</ele>
        <time>2020-09-22T10:38:28Z</time>
      </trkpt>
      <trkpt lat="46.554" lon="4.87984">
        <ele>254</ele>
        <time>2020-09-22T10:38:40Z</time>
      </trkpt>
      <trkpt lat="46.55377" lon="4.87964">
        <ele>253</ele>
        <time>2020-09-22T10:38:47Z</time>
      </trkpt>
      <trkpt lat="46.55354" lon="4.87938">
        <ele>253</ele>
        <time>2020-09-22T10:38:53Z</time>
      </trkpt>
      <trkpt lat="46.55346" lon="4.87945">
        <ele>253</ele>
        <time>2020-09-22T10:38:56Z</time>
      </trkpt>
      <trkpt lat="46.55336" lon="4.87949">
        <ele>253</ele>
        <time>2020-09-22T10:38:58Z</time>
      </trkpt>
      <trkpt lat="46.55314" lon="4.87954">
        <ele>254</ele>
        <time>2020-09-22T10:39:03Z</time>
      </trkpt>
      <trkpt lat="46.55293" lon="4.87955">
        <ele>255</ele>
        <time>2020-09-22T10:39:08Z</time>
      </trkpt>
      <trkpt lat="46.55263" lon="4.87948">
        <ele>255</ele>
        <time>2020-09-22T10:39:15Z</time>
      </trkpt>
      <trkpt lat="46.55217" lon="4.87919">
        <ele>257</ele>
        <time>2020-09-22T10:39:27Z</time>
      </trkpt>
      <trkpt lat="46.5521" lon="4.87906">
        <ele>257</ele>
        <time>2020-09-22T10:39:30Z</time>
      </trkpt>
      <trkpt lat="46.55192" lon="4.87895">
        <ele>259</ele>
        <time>2020-09-22T10:39:34Z</time>
      </trkpt>
      <trkpt lat="46.55174" lon="4.87879">
        <ele>260</ele>
        <time>2020-09-22T10:39:39Z</time>
      </trkpt>
      <trkpt lat="46.55114" lon="4.87818">
        <ele>263</ele>
        <time>2020-09-22T10:39:56Z</time>
      </trkpt>
      <trkpt lat="46.54991" lon="4.87706">
        <ele>276</ele>
        <time>2020-09-22T10:40:30Z</time>
      </trkpt>
      <trkpt lat="46.54895" lon="4.87635">
        <ele>283</ele>
        <time>2020-09-22T10:40:55Z</time>
      </trkpt>
      <trkpt lat="46.54924" lon="4.87636">
        <ele>284</ele>
        <time>2020-09-22T10:41:02Z</time>
      </trkpt>
      <trkpt lat="46.54968" lon="4.87631">
        <ele>283</ele>
        <time>2020-09-22T10:41:12Z</time>
      </trkpt>
      <trkpt lat="46.5498" lon="4.87626">
        <ele>283</ele>
        <time>2020-09-22T10:41:15Z</time>
      </trkpt>
      <trkpt lat="46.54985" lon="4.87612">
        <ele>284</ele>
        <time>2020-09-22T10:41:18Z</time>
      </trkpt>
      <trkpt lat="46.54984" lon="4.87597">
        <ele>285</ele>
        <time>2020-09-22T10:41:20Z</time>
      </trkpt>
      <trkpt lat="46.54971" lon="4.87578">
        <ele>288</ele>
        <time>2020-09-22T10:41:25Z</time>
      </trkpt>
      <trkpt lat="46.54954" lon="4.87559">
        <ele>291</ele>
        <time>2020-09-22T10:41:30Z</time>
      </trkpt>
      <trkpt lat="46.54941" lon="4.87526">
        <ele>295</ele>
        <time>2020-09-22T10:41:36Z</time>
      </trkpt>
      <trkpt lat="46.54895" lon="4.87464">
        <ele>305</ele>
        <time>2020-09-22T10:41:50Z</time>
      </trkpt>
      <trkpt lat="46.54867" lon="4.87413">
        <ele>314</ele>
        <time>2020-09-22T10:42:01Z</time>
      </trkpt>
      <trkpt lat="46.5488" lon="4.87391">
        <ele>314</ele>
        <time>2020-09-22T10:42:05Z</time>
      </trkpt>
      <trkpt lat="46.54923" lon="4.87283">
        <ele>313</ele>
        <time>2020-09-22T10:42:25Z</time>
      </trkpt>
      <trkpt lat="46.54932" lon="4.87265">
        <ele>313</ele>
        <time>2020-09-22T10:42:29Z</time>
      </trkpt>
      <trkpt lat="46.54937" lon="4.8726">
        <ele>312</ele>
        <time>2020-09-22T10:42:30Z</time>
      </trkpt>
      <trkpt lat="46.54944" lon="4.87258">
        <ele>312</ele>
        <time>2020-09-22T10:42:32Z</time>
      </trkpt>
      <trkpt lat="46.54963" lon="4.8726">
        <ele>310</ele>
        <time>2020-09-22T10:42:37Z</time>
      </trkpt>
      <trkpt lat="46.54972" lon="4.87267">
        <ele>309</ele>
        <time>2020-09-22T10:42:39Z</time>
      </trkpt>
      <trkpt lat="46.54976" lon="4.87289">
        <ele>308</ele>
        <time>2020-09-22T10:42:43Z</time>
      </trkpt>
      <trkpt lat="46.54984" lon="4.87307">
        <ele>306</ele>
        <time>2020-09-22T10:42:46Z</time>
      </trkpt>
      <trkpt lat="46.54993" lon="4.87311">
        <ele>305</ele>
        <time>2020-09-22T10:42:48Z</time>
      </trkpt>
      <trkpt lat="46.54999" lon="4.87281">
        <ele>305</ele>
        <time>2020-09-22T10:42:53Z</time>
      </trkpt>
      <trkpt lat="46.55022" lon="4.87232">
        <ele>307</ele>
        <time>2020-09-22T10:43:03Z</time>
      </trkpt>
      <trkpt lat="46.55062" lon="4.87157">
        <ele>305</ele>
        <time>2020-09-22T10:43:18Z</time>
      </trkpt>
      <trkpt lat="46.55096" lon="4.87111">
        <ele>304</ele>
        <time>2020-09-22T10:43:29Z</time>
      </trkpt>
      <trkpt lat="46.5515" lon="4.87048">
        <ele>300</ele>
        <time>2020-09-22T10:43:45Z</time>
      </trkpt>
      <trkpt lat="46.55166" lon="4.87019">
        <ele>298</ele>
        <time>2020-09-22T10:43:51Z</time>
      </trkpt>
      <trkpt lat="46.55179" lon="4.86988">
        <ele>298</ele>
        <time>2020-09-22T10:43:57Z</time>
      </trkpt>
      <trkpt lat="46.55185" lon="4.86967">
        <ele>299</ele>
        <time>2020-09-22T10:44:00Z</time>
      </trkpt>
      <trkpt lat="46.55207" lon="4.86848">
        <ele>297</ele>
        <time>2020-09-22T10:44:20Z</time>
      </trkpt>
      <trkpt lat="46.55231" lon="4.86767">
        <ele>289</ele>
        <time>2020-09-22T10:44:34Z</time>
      </trkpt>
      <trkpt lat="46.55234" lon="4.86735">
        <ele>286</ele>
        <time>2020-09-22T10:44:40Z</time>
      </trkpt>
      <trkpt lat="46.55229" lon="4.8667">
        <ele>281</ele>
        <time>2020-09-22T10:44:50Z</time>
      </trkpt>
      <trkpt lat="46.55205" lon="4.8658">
        <ele>275</ele>
        <time>2020-09-22T10:45:06Z</time>
      </trkpt>
      <trkpt lat="46.55163" lon="4.86475">
        <ele>273</ele>
        <time>2020-09-22T10:45:25Z</time>
      </trkpt>
      <trkpt lat="46.5513" lon="4.86409">
        <ele>271</ele>
        <time>2020-09-22T10:45:38Z</time>
      </trkpt>
      <trkpt lat="46.55101" lon="4.86339">
        <ele>268</ele>
        <time>2020-09-22T10:45:51Z</time>
      </trkpt>
      <trkpt lat="46.55076" lon="4.86274">
        <ele>267</ele>
        <time>2020-09-22T10:46:03Z</time>
      </trkpt>
      <trkpt lat="46.55073" lon="4.86257">
        <ele>266</ele>
        <time>2020-09-22T10:46:06Z</time>
      </trkpt>
      <trkpt lat="46.55059" lon="4.86224">
        <ele>264</ele>
        <time>2020-09-22T10:46:12Z</time>
      </trkpt>
      <trkpt lat="46.55036" lon="4.86154">
        <ele>259</ele>
        <time>2020-09-22T10:46:25Z</time>
      </trkpt>
      <trkpt lat="46.55031" lon="4.86094">
        <ele>255</ele>
        <time>2020-09-22T10:46:35Z</time>
      </trkpt>
      <trkpt lat="46.55037" lon="4.85998">
        <ele>252</ele>
        <time>2020-09-22T10:46:50Z</time>
      </trkpt>
      <trkpt lat="46.55033" lon="4.85949">
        <ele>251</ele>
        <time>2020-09-22T10:46:58Z</time>
      </trkpt>
      <trkpt lat="46.55028" lon="4.85918">
        <ele>251</ele>
        <time>2020-09-22T10:47:03Z</time>
      </trkpt>
      <trkpt lat="46.55014" lon="4.85886">
        <ele>251</ele>
        <time>2020-09-22T10:47:09Z</time>
      </trkpt>
      <trkpt lat="46.55001" lon="4.85872">
        <ele>252</ele>
        <time>2020-09-22T10:47:13Z</time>
      </trkpt>
      <trkpt lat="46.54977" lon="4.85851">
        <ele>252</ele>
        <time>2020-09-22T10:47:19Z</time>
      </trkpt>
      <trkpt lat="46.54938" lon="4.85823">
        <ele>252</ele>
        <time>2020-09-22T10:47:30Z</time>
      </trkpt>
      <trkpt lat="46.54905" lon="4.85794">
        <ele>251</ele>
        <time>2020-09-22T10:47:39Z</time>
      </trkpt>
      <trkpt lat="46.54899" lon="4.85787">
        <ele>251</ele>
        <time>2020-09-22T10:47:40Z</time>
      </trkpt>
      <trkpt lat="46.54899" lon="4.85782">
        <ele>251</ele>
        <time>2020-09-22T10:47:41Z</time>
      </trkpt>
      <trkpt lat="46.54974" lon="4.85722">
        <ele>247</ele>
        <time>2020-09-22T10:48:01Z</time>
      </trkpt>
      <trkpt lat="46.5498" lon="4.85718">
        <ele>247</ele>
        <time>2020-09-22T10:48:03Z</time>
      </trkpt>
      <trkpt lat="46.54997" lon="4.85715">
        <ele>247</ele>
        <time>2020-09-22T10:48:07Z</time>
      </trkpt>
      <trkpt lat="46.55018" lon="4.85722">
        <ele>246</ele>
        <time>2020-09-22T10:48:12Z</time>
      </trkpt>
      <trkpt lat="46.55106" lon="4.85773">
        <ele>244</ele>
        <time>2020-09-22T10:48:34Z</time>
      </trkpt>
      <trkpt lat="46.55123" lon="4.85742">
        <ele>242</ele>
        <time>2020-09-22T10:48:40Z</time>
      </trkpt>
      <trkpt lat="46.55174" lon="4.85601">
        <ele>237</ele>
        <time>2020-09-22T10:49:06Z</time>
      </trkpt>
      <trkpt lat="46.55215" lon="4.85479">
        <ele>230</ele>
        <time>2020-09-22T10:49:28Z</time>
      </trkpt>
      <trkpt lat="46.55214" lon="4.85411">
        <ele>229</ele>
        <time>2020-09-22T10:49:39Z</time>
      </trkpt>
      <trkpt lat="46.55221" lon="4.85363">
        <ele>229</ele>
        <time>2020-09-22T10:49:46Z</time>
      </trkpt>
      <trkpt lat="46.55227" lon="4.85343">
        <ele>229</ele>
        <time>2020-09-22T10:49:50Z</time>
      </trkpt>
      <trkpt lat="46.55246" lon="4.85314">
        <ele>231</ele>
        <time>2020-09-22T10:49:56Z</time>
      </trkpt>
      <trkpt lat="46.5523" lon="4.85302">
        <ele>231</ele>
        <time>2020-09-22T10:50:01Z</time>
      </trkpt>
      <trkpt lat="46.55143" lon="4.85277">
        <ele>229</ele>
        <time>2020-09-22T10:50:21Z</time>
      </trkpt>
      <trkpt lat="46.55086" lon="4.85255">
        <ele>229</ele>
        <time>2020-09-22T10:50:35Z</time>
      </trkpt>
      <trkpt lat="46.54996" lon="4.85208">
        <ele>230</ele>
        <time>2020-09-22T10:50:57Z</time>
      </trkpt>
      <trkpt lat="46.54975" lon="4.85201">
        <ele>230</ele>
        <time>2020-09-22T10:51:02Z</time>
      </trkpt>
      <trkpt lat="46.54956" lon="4.85197">
        <ele>231</ele>
        <time>2020-09-22T10:51:07Z</time>
      </trkpt>
      <trkpt lat="46.54927" lon="4.85198">
        <ele>231</ele>
        <time>2020-09-22T10:51:14Z</time>
      </trkpt>
      <trkpt lat="46.54885" lon="4.8521">
        <ele>231</ele>
        <time>2020-09-22T10:51:24Z</time>
      </trkpt>
      <trkpt lat="46.5486" lon="4.8521">
        <ele>232</ele>
        <time>2020-09-22T10:51:30Z</time>
      </trkpt>
      <trkpt lat="46.54844" lon="4.85207">
        <ele>232</ele>
        <time>2020-09-22T10:51:33Z</time>
      </trkpt>
      <trkpt lat="46.54832" lon="4.85202">
        <ele>233</ele>
        <time>2020-09-22T10:51:36Z</time>
      </trkpt>
      <trkpt lat="46.54812" lon="4.85188">
        <ele>232</ele>
        <time>2020-09-22T10:51:41Z</time>
      </trkpt>
      <trkpt lat="46.54819" lon="4.85176">
        <ele>233</ele>
        <time>2020-09-22T10:51:44Z</time>
      </trkpt>
      <trkpt lat="46.54833" lon="4.85163">
        <ele>235</ele>
        <time>2020-09-22T10:51:48Z</time>
      </trkpt>
      <trkpt lat="46.5487" lon="4.85153">
        <ele>236</ele>
        <time>2020-09-22T10:51:57Z</time>
      </trkpt>
      <trkpt lat="46.54897" lon="4.85139">
        <ele>237</ele>
        <time>2020-09-22T10:52:03Z</time>
      </trkpt>
      <trkpt lat="46.54963" lon="4.85073">
        <ele>244</ele>
        <time>2020-09-22T10:52:22Z</time>
      </trkpt>
      <trkpt lat="46.55037" lon="4.85014">
        <ele>249</ele>
        <time>2020-09-22T10:52:42Z</time>
      </trkpt>
      <trkpt lat="46.54965" lon="4.84982">
        <ele>257</ele>
        <time>2020-09-22T10:52:59Z</time>
      </trkpt>
      <trkpt lat="46.54923" lon="4.84949">
        <ele>265</ele>
        <time>2020-09-22T10:53:10Z</time>
      </trkpt>
      <trkpt lat="46.54865" lon="4.8492">
        <ele>271</ele>
        <time>2020-09-22T10:53:25Z</time>
      </trkpt>
      <trkpt lat="46.54812" lon="4.84874">
        <ele>280</ele>
        <time>2020-09-22T10:53:39Z</time>
      </trkpt>
      <trkpt lat="46.54704" lon="4.84761">
        <ele>288</ele>
        <time>2020-09-22T10:54:10Z</time>
      </trkpt>
      <trkpt lat="46.54651" lon="4.84701">
        <ele>288</ele>
        <time>2020-09-22T10:54:26Z</time>
      </trkpt>
      <trkpt lat="46.54588" lon="4.8464">
        <ele>282</ele>
        <time>2020-09-22T10:54:44Z</time>
      </trkpt>
      <trkpt lat="46.54546" lon="4.84613">
        <ele>274</ele>
        <time>2020-09-22T10:54:54Z</time>
      </trkpt>
      <trkpt lat="46.54515" lon="4.84581">
        <ele>269</ele>
        <time>2020-09-22T10:55:03Z</time>
      </trkpt>
      <trkpt lat="46.54487" lon="4.84546">
        <ele>261</ele>
        <time>2020-09-22T10:55:12Z</time>
      </trkpt>
      <trkpt lat="46.54475" lon="4.84536">
        <ele>258</ele>
        <time>2020-09-22T10:55:15Z</time>
      </trkpt>
      <trkpt lat="46.5449" lon="4.84511">
        <ele>260</ele>
        <time>2020-09-22T10:55:20Z</time>
      </trkpt>
      <trkpt lat="46.54506" lon="4.8449">
        <ele>262</ele>
        <time>2020-09-22T10:55:25Z</time>
      </trkpt>
      <trkpt lat="46.54527" lon="4.84448">
        <ele>264</ele>
        <time>2020-09-22T10:55:34Z</time>
      </trkpt>
      <trkpt lat="46.54553" lon="4.84405">
        <ele>267</ele>
        <time>2020-09-22T10:55:43Z</time>
      </trkpt>
      <trkpt lat="46.54555" lon="4.84347">
        <ele>257</ele>
        <time>2020-09-22T10:55:52Z</time>
      </trkpt>
      <trkpt lat="46.54546" lon="4.84318">
        <ele>252</ele>
        <time>2020-09-22T10:55:57Z</time>
      </trkpt>
      <trkpt lat="46.54547" lon="4.84268">
        <ele>248</ele>
        <time>2020-09-22T10:56:05Z</time>
      </trkpt>
      <trkpt lat="46.54535" lon="4.84252">
        <ele>244</ele>
        <time>2020-09-22T10:56:09Z</time>
      </trkpt>
      <trkpt lat="46.5455" lon="4.84187">
        <ele>246</ele>
        <time>2020-09-22T10:56:20Z</time>
      </trkpt>
      <trkpt lat="46.54557" lon="4.84168">
        <ele>247</ele>
        <time>2020-09-22T10:56:24Z</time>
      </trkpt>
      <trkpt lat="46.54566" lon="4.84153">
        <ele>248</ele>
        <time>2020-09-22T10:56:27Z</time>
      </trkpt>
      <trkpt lat="46.5459" lon="4.84135">
        <ele>252</ele>
        <time>2020-09-22T10:56:33Z</time>
      </trkpt>
      <trkpt lat="46.5462" lon="4.84125">
        <ele>254</ele>
        <time>2020-09-22T10:56:40Z</time>
      </trkpt>
      <trkpt lat="46.54657" lon="4.84119">
        <ele>257</ele>
        <time>2020-09-22T10:56:49Z</time>
      </trkpt>
      <trkpt lat="46.54683" lon="4.841">
        <ele>257</ele>
        <time>2020-09-22T10:56:56Z</time>
      </trkpt>
      <trkpt lat="46.54697" lon="4.84085">
        <ele>257</ele>
        <time>2020-09-22T10:57:00Z</time>
      </trkpt>
      <trkpt lat="46.54709" lon="4.84067">
        <ele>258</ele>
        <time>2020-09-22T10:57:04Z</time>
      </trkpt>
      <trkpt lat="46.54715" lon="4.84042">
        <ele>259</ele>
        <time>2020-09-22T10:57:08Z</time>
      </trkpt>
      <trkpt lat="46.54719" lon="4.84034">
        <ele>259</ele>
        <time>2020-09-22T10:57:10Z</time>
      </trkpt>
      <trkpt lat="46.54726" lon="4.84034">
        <ele>259</ele>
        <time>2020-09-22T10:57:11Z</time>
      </trkpt>
      <trkpt lat="46.54751" lon="4.84054">
        <ele>258</ele>
        <time>2020-09-22T10:57:18Z</time>
      </trkpt>
      <trkpt lat="46.54754" lon="4.84054">
        <ele>259</ele>
        <time>2020-09-22T10:57:19Z</time>
      </trkpt>
      <trkpt lat="46.54775" lon="4.84038">
        <ele>262</ele>
        <time>2020-09-22T10:57:24Z</time>
      </trkpt>
      <trkpt lat="46.54794" lon="4.84027">
        <ele>265</ele>
        <time>2020-09-22T10:57:29Z</time>
      </trkpt>
      <trkpt lat="46.54837" lon="4.84007">
        <ele>271</ele>
        <time>2020-09-22T10:57:40Z</time>
      </trkpt>
      <trkpt lat="46.5485" lon="4.83993">
        <ele>273</ele>
        <time>2020-09-22T10:57:43Z</time>
      </trkpt>
      <trkpt lat="46.54871" lon="4.8398">
        <ele>276</ele>
        <time>2020-09-22T10:57:49Z</time>
      </trkpt>
      <trkpt lat="46.54888" lon="4.83961">
        <ele>278</ele>
        <time>2020-09-22T10:57:54Z</time>
      </trkpt>
      <trkpt lat="46.54897" lon="4.83899">
        <ele>281</ele>
        <time>2020-09-22T10:58:04Z</time>
      </trkpt>
      <trkpt lat="46.54898" lon="4.83873">
        <ele>281</ele>
        <time>2020-09-22T10:58:08Z</time>
      </trkpt>
      <trkpt lat="46.54897" lon="4.83857">
        <ele>281</ele>
        <time>2020-09-22T10:58:11Z</time>
      </trkpt>
      <trkpt lat="46.54872" lon="4.83799">
        <ele>280</ele>
        <time>2020-09-22T10:58:22Z</time>
      </trkpt>
      <trkpt lat="46.54848" lon="4.83728">
        <ele>280</ele>
        <time>2020-09-22T10:58:34Z</time>
      </trkpt>
      <trkpt lat="46.54803" lon="4.83711">
        <ele>277</ele>
        <time>2020-09-22T10:58:45Z</time>
      </trkpt>
      <trkpt lat="46.54737" lon="4.83699">
        <ele>273</ele>
        <time>2020-09-22T10:59:01Z</time>
      </trkpt>
      <trkpt lat="46.54728" lon="4.837">
        <ele>274</ele>
        <time>2020-09-22T10:59:03Z</time>
      </trkpt>
      <trkpt lat="46.54706" lon="4.83718">
        <ele>274</ele>
        <time>2020-09-22T10:59:09Z</time>
      </trkpt>
      <trkpt lat="46.54663" lon="4.83767">
        <ele>274</ele>
        <time>2020-09-22T10:59:22Z</time>
      </trkpt>
      <trkpt lat="46.54638" lon="4.8377">
        <ele>274</ele>
        <time>2020-09-22T10:59:27Z</time>
      </trkpt>
      <trkpt lat="46.5463" lon="4.83773">
        <ele>274</ele>
        <time>2020-09-22T10:59:29Z</time>
      </trkpt>
      <trkpt lat="46.54605" lon="4.83794">
        <ele>273</ele>
        <time>2020-09-22T10:59:36Z</time>
      </trkpt>
      <trkpt lat="46.54594" lon="4.83797">
        <ele>273</ele>
        <time>2020-09-22T10:59:39Z</time>
      </trkpt>
      <trkpt lat="46.54584" lon="4.83792">
        <ele>273</ele>
        <time>2020-09-22T10:59:41Z</time>
      </trkpt>
      <trkpt lat="46.54543" lon="4.83738">
        <ele>274</ele>
        <time>2020-09-22T10:59:54Z</time>
      </trkpt>
      <trkpt lat="46.54559" lon="4.8369">
        <ele>278</ele>
        <time>2020-09-22T11:00:03Z</time>
      </trkpt>
      <trkpt lat="46.54552" lon="4.83672">
        <ele>279</ele>
        <time>2020-09-22T11:00:06Z</time>
      </trkpt>
      <trkpt lat="46.54549" lon="4.83648">
        <ele>280</ele>
        <time>2020-09-22T11:00:10Z</time>
      </trkpt>
      <trkpt lat="46.54543" lon="4.83635">
        <ele>280</ele>
        <time>2020-09-22T11:00:12Z</time>
      </trkpt>
      <trkpt lat="46.54532" lon="4.83622">
        <ele>281</ele>
        <time>2020-09-22T11:00:16Z</time>
      </trkpt>
      <trkpt lat="46.54511" lon="4.83605">
        <ele>281</ele>
        <time>2020-09-22T11:00:21Z</time>
      </trkpt>
      <trkpt lat="46.54509" lon="4.83578">
        <ele>282</ele>
        <time>2020-09-22T11:00:26Z</time>
      </trkpt>
      <trkpt lat="46.54514" lon="4.83538">
        <ele>285</ele>
        <time>2020-09-22T11:00:32Z</time>
      </trkpt>
      <trkpt lat="46.5451" lon="4.83508">
        <ele>286</ele>
        <time>2020-09-22T11:00:37Z</time>
      </trkpt>
      <trkpt lat="46.54468" lon="4.83383">
        <ele>294</ele>
        <time>2020-09-22T11:01:00Z</time>
      </trkpt>
      <trkpt lat="46.54458" lon="4.83361">
        <ele>294</ele>
        <time>2020-09-22T11:01:04Z</time>
      </trkpt>
      <trkpt lat="46.54423" lon="4.83307">
        <ele>295</ele>
        <time>2020-09-22T11:01:16Z</time>
      </trkpt>
      <trkpt lat="46.5441" lon="4.83271">
        <ele>296</ele>
        <time>2020-09-22T11:01:22Z</time>
      </trkpt>
      <trkpt lat="46.54411" lon="4.83262">
        <ele>297</ele>
        <time>2020-09-22T11:01:24Z</time>
      </trkpt>
      <trkpt lat="46.54425" lon="4.83225">
        <ele>301</ele>
        <time>2020-09-22T11:01:30Z</time>
      </trkpt>
      <trkpt lat="46.54431" lon="4.83185">
        <ele>304</ele>
        <time>2020-09-22T11:01:37Z</time>
      </trkpt>
      <trkpt lat="46.5443" lon="4.83161">
        <ele>306</ele>
        <time>2020-09-22T11:01:41Z</time>
      </trkpt>
      <trkpt lat="46.54407" lon="4.83071">
        <ele>311</ele>
        <time>2020-09-22T11:01:56Z</time>
      </trkpt>
      <trkpt lat="46.54409" lon="4.83046">
        <ele>313</ele>
        <time>2020-09-22T11:02:00Z</time>
      </trkpt>
      <trkpt lat="46.54426" lon="4.82997">
        <ele>319</ele>
        <time>2020-09-22T11:02:09Z</time>
      </trkpt>
      <trkpt lat="46.54471" lon="4.82845">
        <ele>335</ele>
        <time>2020-09-22T11:02:36Z</time>
      </trkpt>
      <trkpt lat="46.54477" lon="4.82799">
        <ele>340</ele>
        <time>2020-09-22T11:02:43Z</time>
      </trkpt>
      <trkpt lat="46.54482" lon="4.82779">
        <ele>342</ele>
        <time>2020-09-22T11:02:47Z</time>
      </trkpt>
      <trkpt lat="46.54488" lon="4.82729">
        <ele>345</ele>
        <time>2020-09-22T11:02:55Z</time>
      </trkpt>
      <trkpt lat="46.54488" lon="4.82677">
        <ele>348</ele>
        <time>2020-09-22T11:03:03Z</time>
      </trkpt>
      <trkpt lat="46.54484" lon="4.82602">
        <ele>348</ele>
        <time>2020-09-22T11:03:15Z</time>
      </trkpt>
      <trkpt lat="46.54488" lon="4.82546">
        <ele>344</ele>
        <time>2020-09-22T11:03:24Z</time>
      </trkpt>
      <trkpt lat="46.54491" lon="4.8254">
        <ele>343</ele>
        <time>2020-09-22T11:03:26Z</time>
      </trkpt>
      <trkpt lat="46.54506" lon="4.82534">
        <ele>342</ele>
        <time>2020-09-22T11:03:29Z</time>
      </trkpt>
      <trkpt lat="46.5452" lon="4.82535">
        <ele>340</ele>
        <time>2020-09-22T11:03:32Z</time>
      </trkpt>
      <trkpt lat="46.54569" lon="4.82549">
        <ele>338</ele>
        <time>2020-09-22T11:03:44Z</time>
      </trkpt>
      <trkpt lat="46.54593" lon="4.82553">
        <ele>337</ele>
        <time>2020-09-22T11:03:50Z</time>
      </trkpt>
      <trkpt lat="46.54607" lon="4.82545">
        <ele>334</ele>
        <time>2020-09-22T11:03:53Z</time>
      </trkpt>
      <trkpt lat="46.54614" lon="4.82535">
        <ele>332</ele>
        <time>2020-09-22T11:03:56Z</time>
      </trkpt>
      <trkpt lat="46.54664" lon="4.8257">
        <ele>331</ele>
        <time>2020-09-22T11:04:09Z</time>
      </trkpt>
      <trkpt lat="46.54697" lon="4.8259">
        <ele>330</ele>
        <time>2020-09-22T11:04:17Z</time>
      </trkpt>
      <trkpt lat="46.54715" lon="4.82596">
        <ele>328</ele>
        <time>2020-09-22T11:04:21Z</time>
      </trkpt>
      <trkpt lat="46.54844" lon="4.82677">
        <ele>322</ele>
        <time>2020-09-22T11:04:54Z</time>
      </trkpt>
      <trkpt lat="46.54926" lon="4.82742">
        <ele>316</ele>
        <time>2020-09-22T11:05:16Z</time>
      </trkpt>
      <trkpt lat="46.54959" lon="4.82765">
        <ele>312</ele>
        <time>2020-09-22T11:05:24Z</time>
      </trkpt>
      <trkpt lat="46.55088" lon="4.82907">
        <ele>301</ele>
        <time>2020-09-22T11:06:02Z</time>
      </trkpt>
      <trkpt lat="46.55152" lon="4.82973">
        <ele>299</ele>
        <time>2020-09-22T11:06:20Z</time>
      </trkpt>
      <trkpt lat="46.55209" lon="4.83043">
        <ele>299</ele>
        <time>2020-09-22T11:06:38Z</time>
      </trkpt>
      <trkpt lat="46.55258" lon="4.83083">
        <ele>291</ele>
        <time>2020-09-22T11:06:51Z</time>
      </trkpt>
      <trkpt lat="46.55306" lon="4.82976">
        <ele>268</ele>
        <time>2020-09-22T11:07:12Z</time>
      </trkpt>
      <trkpt lat="46.5531" lon="4.82951">
        <ele>266</ele>
        <time>2020-09-22T11:07:16Z</time>
      </trkpt>
      <trkpt lat="46.55317" lon="4.82927">
        <ele>263</ele>
        <time>2020-09-22T11:07:20Z</time>
      </trkpt>
      <trkpt lat="46.55338" lon="4.82874">
        <ele>258</ele>
        <time>2020-09-22T11:07:30Z</time>
      </trkpt>
      <trkpt lat="46.55338" lon="4.82838">
        <ele>258</ele>
        <time>2020-09-22T11:07:35Z</time>
      </trkpt>
      <trkpt lat="46.55342" lon="4.8283">
        <ele>258</ele>
        <time>2020-09-22T11:07:37Z</time>
      </trkpt>
      <trkpt lat="46.55345" lon="4.82825">
        <ele>258</ele>
        <time>2020-09-22T11:07:38Z</time>
      </trkpt>
      <trkpt lat="46.55406" lon="4.82792">
        <ele>259</ele>
        <time>2020-09-22T11:07:53Z</time>
      </trkpt>
      <trkpt lat="46.55442" lon="4.8273">
        <ele>261</ele>
        <time>2020-09-22T11:08:06Z</time>
      </trkpt>
      <trkpt lat="46.55449" lon="4.82714">
        <ele>262</ele>
        <time>2020-09-22T11:08:09Z</time>
      </trkpt>
      <trkpt lat="46.55452" lon="4.82702">
        <ele>262</ele>
        <time>2020-09-22T11:08:11Z</time>
      </trkpt>
      <trkpt lat="46.55453" lon="4.82674">
        <ele>263</ele>
        <time>2020-09-22T11:08:16Z</time>
      </trkpt>
      <trkpt lat="46.55452" lon="4.82657">
        <ele>263</ele>
        <time>2020-09-22T11:08:19Z</time>
      </trkpt>
      <trkpt lat="46.55444" lon="4.82624">
        <ele>265</ele>
        <time>2020-09-22T11:08:24Z</time>
      </trkpt>
      <trkpt lat="46.55474" lon="4.82588">
        <ele>270</ele>
        <time>2020-09-22T11:08:33Z</time>
      </trkpt>
      <trkpt lat="46.55479" lon="4.82591">
        <ele>271</ele>
        <time>2020-09-22T11:08:35Z</time>
      </trkpt>
      <trkpt lat="46.55507" lon="4.82597">
        <ele>273</ele>
        <time>2020-09-22T11:08:41Z</time>
      </trkpt>
      <trkpt lat="46.5551" lon="4.82595">
        <ele>273</ele>
        <time>2020-09-22T11:08:42Z</time>
      </trkpt>
      <trkpt lat="46.55513" lon="4.82568">
        <ele>276</ele>
        <time>2020-09-22T11:08:46Z</time>
      </trkpt>
      <trkpt lat="46.55534" lon="4.82528">
        <ele>281</ele>
        <time>2020-09-22T11:08:54Z</time>
      </trkpt>
      <trkpt lat="46.55539" lon="4.82527">
        <ele>282</ele>
        <time>2020-09-22T11:08:56Z</time>
      </trkpt>
      <trkpt lat="46.55557" lon="4.82541">
        <ele>284</ele>
        <time>2020-09-22T11:09:00Z</time>
      </trkpt>
      <trkpt lat="46.55563" lon="4.82539">
        <ele>285</ele>
        <time>2020-09-22T11:09:02Z</time>
      </trkpt>
      <trkpt lat="46.55595" lon="4.82494">
        <ele>292</ele>
        <time>2020-09-22T11:09:12Z</time>
      </trkpt>
      <trkpt lat="46.55606" lon="4.82471">
        <ele>294</ele>
        <time>2020-09-22T11:09:17Z</time>
      </trkpt>
      <trkpt lat="46.55625" lon="4.82481">
        <ele>295</ele>
        <time>2020-09-22T11:09:21Z</time>
      </trkpt>
      <trkpt lat="46.55679" lon="4.82468">
        <ele>298</ele>
        <time>2020-09-22T11:09:34Z</time>
      </trkpt>
      <trkpt lat="46.55695" lon="4.82467">
        <ele>298</ele>
        <time>2020-09-22T11:09:38Z</time>
      </trkpt>
      <trkpt lat="46.55724" lon="4.8247">
        <ele>298</ele>
        <time>2020-09-22T11:09:45Z</time>
      </trkpt>
      <trkpt lat="46.55784" lon="4.82481">
        <ele>298</ele>
        <time>2020-09-22T11:09:59Z</time>
      </trkpt>
      <trkpt lat="46.55797" lon="4.82482">
        <ele>297</ele>
        <time>2020-09-22T11:10:02Z</time>
      </trkpt>
      <trkpt lat="46.55811" lon="4.82477">
        <ele>296</ele>
        <time>2020-09-22T11:10:05Z</time>
      </trkpt>
      <trkpt lat="46.55823" lon="4.82457">
        <ele>294</ele>
        <time>2020-09-22T11:10:10Z</time>
      </trkpt>
      <trkpt lat="46.55877" lon="4.82331">
        <ele>291</ele>
        <time>2020-09-22T11:10:33Z</time>
      </trkpt>
      <trkpt lat="46.55898" lon="4.82269">
        <ele>293</ele>
        <time>2020-09-22T11:10:45Z</time>
      </trkpt>
      <trkpt lat="46.55905" lon="4.82258">
        <ele>293</ele>
        <time>2020-09-22T11:10:47Z</time>
      </trkpt>
      <trkpt lat="46.55928" lon="4.82184">
        <ele>302</ele>
        <time>2020-09-22T11:11:00Z</time>
      </trkpt>
      <trkpt lat="46.55931" lon="4.82178">
        <ele>302</ele>
        <time>2020-09-22T11:11:01Z</time>
      </trkpt>
      <trkpt lat="46.5594" lon="4.82171">
        <ele>303</ele>
        <time>2020-09-22T11:11:04Z</time>
      </trkpt>
      <trkpt lat="46.55949" lon="4.8217">
        <ele>304</ele>
        <time>2020-09-22T11:11:06Z</time>
      </trkpt>
      <trkpt lat="46.55995" lon="4.82179">
        <ele>304</ele>
        <time>2020-09-22T11:11:16Z</time>
      </trkpt>
      <trkpt lat="46.56012" lon="4.82176">
        <ele>305</ele>
        <time>2020-09-22T11:11:20Z</time>
      </trkpt>
      <trkpt lat="46.56018" lon="4.82171">
        <ele>306</ele>
        <time>2020-09-22T11:11:22Z</time>
      </trkpt>
      <trkpt lat="46.56062" lon="4.82112">
        <ele>315</ele>
        <time>2020-09-22T11:11:36Z</time>
      </trkpt>
      <trkpt lat="46.56068" lon="4.82106">
        <ele>316</ele>
        <time>2020-09-22T11:11:38Z</time>
      </trkpt>
      <trkpt lat="46.5608" lon="4.82103">
        <ele>317</ele>
        <time>2020-09-22T11:11:41Z</time>
      </trkpt>
      <trkpt lat="46.56103" lon="4.82111">
        <ele>318</ele>
        <time>2020-09-22T11:11:46Z</time>
      </trkpt>
      <trkpt lat="46.5613" lon="4.82129">
        <ele>318</ele>
        <time>2020-09-22T11:11:53Z</time>
      </trkpt>
      <trkpt lat="46.56147" lon="4.82137">
        <ele>318</ele>
        <time>2020-09-22T11:11:57Z</time>
      </trkpt>
      <trkpt lat="46.5618" lon="4.82148">
        <ele>318</ele>
        <time>2020-09-22T11:12:05Z</time>
      </trkpt>
      <trkpt lat="46.56214" lon="4.82163">
        <ele>318</ele>
        <time>2020-09-22T11:12:13Z</time>
      </trkpt>
      <trkpt lat="46.56283" lon="4.8218">
        <ele>320</ele>
        <time>2020-09-22T11:12:30Z</time>
      </trkpt>
      <trkpt lat="46.56306" lon="4.82191">
        <ele>321</ele>
        <time>2020-09-22T11:12:35Z</time>
      </trkpt>
      <trkpt lat="46.56324" lon="4.82202">
        <ele>321</ele>
        <time>2020-09-22T11:12:40Z</time>
      </trkpt>
      <trkpt lat="46.56384" lon="4.82251">
        <ele>328</ele>
        <time>2020-09-22T11:12:56Z</time>
      </trkpt>
      <trkpt lat="46.56416" lon="4.82268">
        <ele>331</ele>
        <time>2020-09-22T11:13:04Z</time>
      </trkpt>
      <trkpt lat="46.56444" lon="4.82268">
        <ele>336</ele>
        <time>2020-09-22T11:13:11Z</time>
      </trkpt>
      <trkpt lat="46.56487" lon="4.82263">
        <ele>345</ele>
        <time>2020-09-22T11:13:21Z</time>
      </trkpt>
      <trkpt lat="46.56514" lon="4.82246">
        <ele>351</ele>
        <time>2020-09-22T11:13:28Z</time>
      </trkpt>
      <trkpt lat="46.56574" lon="4.82225">
        <ele>358</ele>
        <time>2020-09-22T11:13:42Z</time>
      </trkpt>
      <trkpt lat="46.56581" lon="4.82213">
        <ele>359</ele>
        <time>2020-09-22T11:13:44Z</time>
      </trkpt>
      <trkpt lat="46.56587" lon="4.82186">
        <ele>362</ele>
        <time>2020-09-22T11:13:49Z</time>
      </trkpt>
      <trkpt lat="46.56584" lon="4.82089">
        <ele>372</ele>
        <time>2020-09-22T11:14:05Z</time>
      </trkpt>
      <trkpt lat="46.56576" lon="4.82028">
        <ele>374</ele>
        <time>2020-09-22T11:14:15Z</time>
      </trkpt>
      <trkpt lat="46.56578" lon="4.81968">
        <ele>378</ele>
        <time>2020-09-22T11:14:24Z</time>
      </trkpt>
      <trkpt lat="46.56544" lon="4.8177">
        <ele>392</ele>
        <time>2020-09-22T11:14:57Z</time>
      </trkpt>
      <trkpt lat="46.56544" lon="4.81741">
        <ele>396</ele>
        <time>2020-09-22T11:15:02Z</time>
      </trkpt>
      <trkpt lat="46.56548" lon="4.81723">
        <ele>398</ele>
        <time>2020-09-22T11:15:05Z</time>
      </trkpt>
      <trkpt lat="46.56558" lon="4.81701">
        <ele>400</ele>
        <time>2020-09-22T11:15:09Z</time>
      </trkpt>
      <trkpt lat="46.56576" lon="4.81671">
        <ele>403</ele>
        <time>2020-09-22T11:15:15Z</time>
      </trkpt>
      <trkpt lat="46.56593" lon="4.81612">
        <ele>408</ele>
        <time>2020-09-22T11:15:26Z</time>
      </trkpt>
      <trkpt lat="46.56599" lon="4.816">
        <ele>409</ele>
        <time>2020-09-22T11:15:28Z</time>
      </trkpt>
      <trkpt lat="46.56606" lon="4.81593">
        <ele>410</ele>
        <time>2020-09-22T11:15:30Z</time>
      </trkpt>
      <trkpt lat="46.56629" lon="4.81583">
        <ele>411</ele>
        <time>2020-09-22T11:15:36Z</time>
      </trkpt>
      <trkpt lat="46.56718" lon="4.81556">
        <ele>412</ele>
        <time>2020-09-22T11:15:57Z</time>
      </trkpt>
      <trkpt lat="46.56755" lon="4.81549">
        <ele>412</ele>
        <time>2020-09-22T11:16:05Z</time>
      </trkpt>
      <trkpt lat="46.56554" lon="4.8147">
        <ele>410</ele>
        <time>2020-09-22T11:16:54Z</time>
      </trkpt>
      <trkpt lat="46.56442" lon="4.81422">
        <ele>410</ele>
        <time>2020-09-22T11:17:21Z</time>
      </trkpt>
      <trkpt lat="46.56389" lon="4.81406">
        <ele>410</ele>
        <time>2020-09-22T11:17:34Z</time>
      </trkpt>
      <trkpt lat="46.56338" lon="4.81397">
        <ele>410</ele>
        <time>2020-09-22T11:17:46Z</time>
      </trkpt>
      <trkpt lat="46.56213" lon="4.81369">
        <ele>408</ele>
        <time>2020-09-22T11:18:16Z</time>
      </trkpt>
      <trkpt lat="46.5613" lon="4.81381">
        <ele>410</ele>
        <time>2020-09-22T11:18:35Z</time>
      </trkpt>
      <trkpt lat="46.56108" lon="4.81382">
        <ele>410</ele>
        <time>2020-09-22T11:18:40Z</time>
      </trkpt>
      <trkpt lat="46.56093" lon="4.81379">
        <ele>411</ele>
        <time>2020-09-22T11:18:44Z</time>
      </trkpt>
      <trkpt lat="46.55988" lon="4.81324">
        <ele>410</ele>
        <time>2020-09-22T11:19:10Z</time>
      </trkpt>
      <trkpt lat="46.55923" lon="4.81294">
        <ele>409</ele>
        <time>2020-09-22T11:19:26Z</time>
      </trkpt>
      <trkpt lat="46.55872" lon="4.81244">
        <ele>408</ele>
        <time>2020-09-22T11:19:40Z</time>
      </trkpt>
      <trkpt lat="46.55848" lon="4.81237">
        <ele>408</ele>
        <time>2020-09-22T11:19:46Z</time>
      </trkpt>
      <trkpt lat="46.55821" lon="4.81218">
        <ele>407</ele>
        <time>2020-09-22T11:19:53Z</time>
      </trkpt>
      <trkpt lat="46.55776" lon="4.8115">
        <ele>405</ele>
        <time>2020-09-22T11:20:08Z</time>
      </trkpt>
      <trkpt lat="46.55752" lon="4.81131">
        <ele>405</ele>
        <time>2020-09-22T11:20:14Z</time>
      </trkpt>
      <trkpt lat="46.55702" lon="4.81108">
        <ele>403</ele>
        <time>2020-09-22T11:20:27Z</time>
      </trkpt>
      <trkpt lat="46.55658" lon="4.81082">
        <ele>403</ele>
        <time>2020-09-22T11:20:38Z</time>
      </trkpt>
      <trkpt lat="46.55644" lon="4.81067">
        <ele>402</ele>
        <time>2020-09-22T11:20:42Z</time>
      </trkpt>
      <trkpt lat="46.55617" lon="4.81048">
        <ele>402</ele>
        <time>2020-09-22T11:20:49Z</time>
      </trkpt>
      <trkpt lat="46.5558" lon="4.81029">
        <ele>402</ele>
        <time>2020-09-22T11:20:58Z</time>
      </trkpt>
      <trkpt lat="46.55566" lon="4.81019">
        <ele>403</ele>
        <time>2020-09-22T11:21:02Z</time>
      </trkpt>
      <trkpt lat="46.55478" lon="4.8094">
        <ele>405</ele>
        <time>2020-09-22T11:21:26Z</time>
      </trkpt>
      <trkpt lat="46.55455" lon="4.80928">
        <ele>405</ele>
        <time>2020-09-22T11:21:31Z</time>
      </trkpt>
      <trkpt lat="46.55433" lon="4.80921">
        <ele>405</ele>
        <time>2020-09-22T11:21:37Z</time>
      </trkpt>
      <trkpt lat="46.55419" lon="4.8092">
        <ele>405</ele>
        <time>2020-09-22T11:21:40Z</time>
      </trkpt>
      <trkpt lat="46.55285" lon="4.80845">
        <ele>406</ele>
        <time>2020-09-22T11:22:13Z</time>
      </trkpt>
      <trkpt lat="46.55267" lon="4.80837">
        <ele>407</ele>
        <time>2020-09-22T11:22:18Z</time>
      </trkpt>
      <trkpt lat="46.55241" lon="4.80829">
        <ele>407</ele>
        <time>2020-09-22T11:22:24Z</time>
      </trkpt>
      <trkpt lat="46.55172" lon="4.80815">
        <ele>405</ele>
        <time>2020-09-22T11:22:40Z</time>
      </trkpt>
      <trkpt lat="46.55138" lon="4.80793">
        <ele>402</ele>
        <time>2020-09-22T11:22:49Z</time>
      </trkpt>
      <trkpt lat="46.54975" lon="4.80674">
        <ele>395</ele>
        <time>2020-09-22T11:23:32Z</time>
      </trkpt>
      <trkpt lat="46.5482" lon="4.80566">
        <ele>388</ele>
        <time>2020-09-22T11:24:12Z</time>
      </trkpt>
      <trkpt lat="46.54725" lon="4.80491">
        <ele>387</ele>
        <time>2020-09-22T11:24:37Z</time>
      </trkpt>
      <trkpt lat="46.54618" lon="4.80415">
        <ele>386</ele>
        <time>2020-09-22T11:25:05Z</time>
      </trkpt>
      <trkpt lat="46.54557" lon="4.80359">
        <ele>384</ele>
        <time>2020-09-22T11:25:22Z</time>
      </trkpt>
      <trkpt lat="46.54549" lon="4.80354">
        <ele>384</ele>
        <time>2020-09-22T11:25:24Z</time>
      </trkpt>
      <trkpt lat="46.54523" lon="4.80346">
        <ele>383</ele>
        <time>2020-09-22T11:25:30Z</time>
      </trkpt>
      <trkpt lat="46.54481" lon="4.80299">
        <ele>381</ele>
        <time>2020-09-22T11:25:42Z</time>
      </trkpt>
      <trkpt lat="46.54462" lon="4.80286">
        <ele>380</ele>
        <time>2020-09-22T11:25:47Z</time>
      </trkpt>
      <trkpt lat="46.54374" lon="4.80213">
        <ele>374</ele>
        <time>2020-09-22T11:26:11Z</time>
      </trkpt>
      <trkpt lat="46.54363" lon="4.80207">
        <ele>373</ele>
        <time>2020-09-22T11:26:14Z</time>
      </trkpt>
      <trkpt lat="46.54365" lon="4.8018">
        <ele>373</ele>
        <time>2020-09-22T11:26:18Z</time>
      </trkpt>
      <trkpt lat="46.54373" lon="4.80139">
        <ele>372</ele>
        <time>2020-09-22T11:26:25Z</time>
      </trkpt>
      <trkpt lat="46.54378" lon="4.80072">
        <ele>369</ele>
        <time>2020-09-22T11:26:36Z</time>
      </trkpt>
      <trkpt lat="46.54387" lon="4.80046">
        <ele>367</ele>
        <time>2020-09-22T11:26:40Z</time>
      </trkpt>
      <trkpt lat="46.54425" lon="4.79997">
        <ele>364</ele>
        <time>2020-09-22T11:26:52Z</time>
      </trkpt>
      <trkpt lat="46.54431" lon="4.79987">
        <ele>363</ele>
        <time>2020-09-22T11:26:54Z</time>
      </trkpt>
      <trkpt lat="46.5443" lon="4.7998">
        <ele>362</ele>
        <time>2020-09-22T11:26:55Z</time>
      </trkpt>
      <trkpt lat="46.54491" lon="4.79907">
        <ele>361</ele>
        <time>2020-09-22T11:27:14Z</time>
      </trkpt>
      <trkpt lat="46.54502" lon="4.79896">
        <ele>360</ele>
        <time>2020-09-22T11:27:17Z</time>
      </trkpt>
      <trkpt lat="46.54563" lon="4.79861">
        <ele>360</ele>
        <time>2020-09-22T11:27:32Z</time>
      </trkpt>
      <trkpt lat="46.54621" lon="4.79798">
        <ele>358</ele>
        <time>2020-09-22T11:27:49Z</time>
      </trkpt>
      <trkpt lat="46.54652" lon="4.79754">
        <ele>358</ele>
        <time>2020-09-22T11:27:59Z</time>
      </trkpt>
      <trkpt lat="46.54676" lon="4.7971">
        <ele>359</ele>
        <time>2020-09-22T11:28:08Z</time>
      </trkpt>
      <trkpt lat="46.54668" lon="4.79711">
        <ele>358</ele>
        <time>2020-09-22T11:28:10Z</time>
      </trkpt>
      <trkpt lat="46.54639" lon="4.79747">
        <ele>354</ele>
        <time>2020-09-22T11:28:19Z</time>
      </trkpt>
      <trkpt lat="46.54626" lon="4.79754">
        <ele>352</ele>
        <time>2020-09-22T11:28:22Z</time>
      </trkpt>
      <trkpt lat="46.54572" lon="4.79772">
        <ele>345</ele>
        <time>2020-09-22T11:28:35Z</time>
      </trkpt>
      <trkpt lat="46.54539" lon="4.79774">
        <ele>342</ele>
        <time>2020-09-22T11:28:43Z</time>
      </trkpt>
      <trkpt lat="46.54534" lon="4.79782">
        <ele>344</ele>
        <time>2020-09-22T11:28:45Z</time>
      </trkpt>
      <trkpt lat="46.54501" lon="4.798">
        <ele>344</ele>
        <time>2020-09-22T11:28:53Z</time>
      </trkpt>
      <trkpt lat="46.54482" lon="4.79806">
        <ele>345</ele>
        <time>2020-09-22T11:28:58Z</time>
      </trkpt>
      <trkpt lat="46.54448" lon="4.79809">
        <ele>344</ele>
        <time>2020-09-22T11:29:05Z</time>
      </trkpt>
      <trkpt lat="46.5442" lon="4.7982">
        <ele>343</ele>
        <time>2020-09-22T11:29:12Z</time>
      </trkpt>
      <trkpt lat="46.54398" lon="4.79841">
        <ele>344</ele>
        <time>2020-09-22T11:29:18Z</time>
      </trkpt>
      <trkpt lat="46.54381" lon="4.79879">
        <ele>348</ele>
        <time>2020-09-22T11:29:26Z</time>
      </trkpt>
      <trkpt lat="46.54363" lon="4.79896">
        <ele>349</ele>
        <time>2020-09-22T11:29:31Z</time>
      </trkpt>
      <trkpt lat="46.54292" lon="4.79937">
        <ele>351</ele>
        <time>2020-09-22T11:29:49Z</time>
      </trkpt>
      <trkpt lat="46.54274" lon="4.79945">
        <ele>352</ele>
        <time>2020-09-22T11:29:53Z</time>
      </trkpt>
      <trkpt lat="46.5426" lon="4.79945">
        <ele>352</ele>
        <time>2020-09-22T11:29:56Z</time>
      </trkpt>
      <trkpt lat="46.54246" lon="4.79936">
        <ele>352</ele>
        <time>2020-09-22T11:30:00Z</time>
      </trkpt>
      <trkpt lat="46.54239" lon="4.79942">
        <ele>352</ele>
        <time>2020-09-22T11:30:02Z</time>
      </trkpt>
      <trkpt lat="46.54224" lon="4.79956">
        <ele>353</ele>
        <time>2020-09-22T11:30:06Z</time>
      </trkpt>
      <trkpt lat="46.54138" lon="4.80058">
        <ele>354</ele>
        <time>2020-09-22T11:30:32Z</time>
      </trkpt>
      <trkpt lat="46.54109" lon="4.80087">
        <ele>353</ele>
        <time>2020-09-22T11:30:40Z</time>
      </trkpt>
      <trkpt lat="46.54093" lon="4.80093">
        <ele>352</ele>
        <time>2020-09-22T11:30:44Z</time>
      </trkpt>
      <trkpt lat="46.54085" lon="4.80093">
        <ele>352</ele>
        <time>2020-09-22T11:30:46Z</time>
      </trkpt>
      <trkpt lat="46.5407" lon="4.80088">
        <ele>350</ele>
        <time>2020-09-22T11:30:49Z</time>
      </trkpt>
      <trkpt lat="46.54058" lon="4.80081">
        <ele>349</ele>
        <time>2020-09-22T11:30:52Z</time>
      </trkpt>
      <trkpt lat="46.5406" lon="4.80155">
        <ele>346</ele>
        <time>2020-09-22T11:31:04Z</time>
      </trkpt>
      <trkpt lat="46.5407" lon="4.80191">
        <ele>346</ele>
        <time>2020-09-22T11:31:10Z</time>
      </trkpt>
      <trkpt lat="46.5407" lon="4.80209">
        <ele>345</ele>
        <time>2020-09-22T11:31:13Z</time>
      </trkpt>
      <trkpt lat="46.54065" lon="4.80222">
        <ele>344</ele>
        <time>2020-09-22T11:31:16Z</time>
      </trkpt>
      <trkpt lat="46.54059" lon="4.80229">
        <ele>343</ele>
        <time>2020-09-22T11:31:18Z</time>
      </trkpt>
      <trkpt lat="46.54029" lon="4.80251">
        <ele>340</ele>
        <time>2020-09-22T11:31:25Z</time>
      </trkpt>
      <trkpt lat="46.54024" lon="4.80251">
        <ele>340</ele>
        <time>2020-09-22T11:31:27Z</time>
      </trkpt>
      <trkpt lat="46.5392" lon="4.80208">
        <ele>337</ele>
        <time>2020-09-22T11:31:52Z</time>
      </trkpt>
      <trkpt lat="46.53891" lon="4.80202">
        <ele>337</ele>
        <time>2020-09-22T11:31:59Z</time>
      </trkpt>
      <trkpt lat="46.53866" lon="4.80202">
        <ele>337</ele>
        <time>2020-09-22T11:32:04Z</time>
      </trkpt>
      <trkpt lat="46.53754" lon="4.80237">
        <ele>342</ele>
        <time>2020-09-22T11:32:31Z</time>
      </trkpt>
      <trkpt lat="46.53734" lon="4.80246">
        <ele>342</ele>
        <time>2020-09-22T11:32:36Z</time>
      </trkpt>
      <trkpt lat="46.53671" lon="4.80264">
        <ele>340</ele>
        <time>2020-09-22T11:32:51Z</time>
      </trkpt>
      <trkpt lat="46.5366" lon="4.80272">
        <ele>340</ele>
        <time>2020-09-22T11:32:54Z</time>
      </trkpt>
      <trkpt lat="46.53646" lon="4.80283">
        <ele>339</ele>
        <time>2020-09-22T11:32:58Z</time>
      </trkpt>
      <trkpt lat="46.53622" lon="4.80309">
        <ele>339</ele>
        <time>2020-09-22T11:33:05Z</time>
      </trkpt>
      <trkpt lat="46.5359" lon="4.80367">
        <ele>337</ele>
        <time>2020-09-22T11:33:17Z</time>
      </trkpt>
      <trkpt lat="46.53528" lon="4.80448">
        <ele>327</ele>
        <time>2020-09-22T11:33:36Z</time>
      </trkpt>
      <trkpt lat="46.53508" lon="4.80487">
        <ele>323</ele>
        <time>2020-09-22T11:33:44Z</time>
      </trkpt>
      <trkpt lat="46.53492" lon="4.8053">
        <ele>321</ele>
        <time>2020-09-22T11:33:52Z</time>
      </trkpt>
      <trkpt lat="46.53441" lon="4.80628">
        <ele>313</ele>
        <time>2020-09-22T11:34:11Z</time>
      </trkpt>
      <trkpt lat="46.53501" lon="4.80651">
        <ele>320</ele>
        <time>2020-09-22T11:34:26Z</time>
      </trkpt>
      <trkpt lat="46.53568" lon="4.80724">
        <ele>324</ele>
        <time>2020-09-22T11:34:46Z</time>
      </trkpt>
      <trkpt lat="46.53623" lon="4.80826">
        <ele>324</ele>
        <time>2020-09-22T11:35:06Z</time>
      </trkpt>
      <trkpt lat="46.53649" lon="4.8084">
        <ele>327</ele>
        <time>2020-09-22T11:35:13Z</time>
      </trkpt>
      <trkpt lat="46.53766" lon="4.80883">
        <ele>343</ele>
        <time>2020-09-22T11:35:41Z</time>
      </trkpt>
      <trkpt lat="46.53801" lon="4.80888">
        <ele>348</ele>
        <time>2020-09-22T11:35:49Z</time>
      </trkpt>
      <trkpt lat="46.53828" lon="4.80897">
        <ele>352</ele>
        <time>2020-09-22T11:35:56Z</time>
      </trkpt>
      <trkpt lat="46.53921" lon="4.80907">
        <ele>367</ele>
        <time>2020-09-22T11:36:17Z</time>
      </trkpt>
      <trkpt lat="46.53971" lon="4.80934">
        <ele>371</ele>
        <time>2020-09-22T11:36:30Z</time>
      </trkpt>
      <trkpt lat="46.54078" lon="4.80938">
        <ele>385</ele>
        <time>2020-09-22T11:36:55Z</time>
      </trkpt>
      <trkpt lat="46.54233" lon="4.80995">
        <ele>391</ele>
        <time>2020-09-22T11:37:32Z</time>
      </trkpt>
      <trkpt lat="46.54308" lon="4.81014">
        <ele>394</ele>
        <time>2020-09-22T11:37:50Z</time>
      </trkpt>
      <trkpt lat="46.543" lon="4.8106">
        <ele>387</ele>
        <time>2020-09-22T11:37:58Z</time>
      </trkpt>
      <trkpt lat="46.54288" lon="4.81105">
        <ele>378</ele>
        <time>2020-09-22T11:38:05Z</time>
      </trkpt>
      <trkpt lat="46.54281" lon="4.8113">
        <ele>373</ele>
        <time>2020-09-22T11:38:10Z</time>
      </trkpt>
      <trkpt lat="46.54272" lon="4.81142">
        <ele>371</ele>
        <time>2020-09-22T11:38:13Z</time>
      </trkpt>
      <trkpt lat="46.54248" lon="4.81231">
        <ele>366</ele>
        <time>2020-09-22T11:38:28Z</time>
      </trkpt>
      <trkpt lat="46.54182" lon="4.81234">
        <ele>366</ele>
        <time>2020-09-22T11:38:43Z</time>
      </trkpt>
      <trkpt lat="46.54034" lon="4.81415">
        <ele>356</ele>
        <time>2020-09-22T11:39:29Z</time>
      </trkpt>
      <trkpt lat="46.54016" lon="4.81445">
        <ele>351</ele>
        <time>2020-09-22T11:39:35Z</time>
      </trkpt>
      <trkpt lat="46.54009" lon="4.81451">
        <ele>350</ele>
        <time>2020-09-22T11:39:37Z</time>
      </trkpt>
      <trkpt lat="46.54005" lon="4.81452">
        <ele>349</ele>
        <time>2020-09-22T11:39:38Z</time>
      </trkpt>
      <trkpt lat="46.53987" lon="4.81448">
        <ele>347</ele>
        <time>2020-09-22T11:39:42Z</time>
      </trkpt>
      <trkpt lat="46.53977" lon="4.81441">
        <ele>347</ele>
        <time>2020-09-22T11:39:45Z</time>
      </trkpt>
      <trkpt lat="46.53956" lon="4.81439">
        <ele>344</ele>
        <time>2020-09-22T11:39:50Z</time>
      </trkpt>
      <trkpt lat="46.53929" lon="4.81451">
        <ele>340</ele>
        <time>2020-09-22T11:39:56Z</time>
      </trkpt>
      <trkpt lat="46.53927" lon="4.81455">
        <ele>339</ele>
        <time>2020-09-22T11:39:57Z</time>
      </trkpt>
      <trkpt lat="46.53925" lon="4.8146">
        <ele>338</ele>
        <time>2020-09-22T11:39:58Z</time>
      </trkpt>
      <trkpt lat="46.53933" lon="4.81491">
        <ele>336</ele>
        <time>2020-09-22T11:40:03Z</time>
      </trkpt>
      <trkpt lat="46.53935" lon="4.8153">
        <ele>332</ele>
        <time>2020-09-22T11:40:09Z</time>
      </trkpt>
      <trkpt lat="46.53944" lon="4.81556">
        <ele>329</ele>
        <time>2020-09-22T11:40:14Z</time>
      </trkpt>
      <trkpt lat="46.53973" lon="4.81609">
        <ele>327</ele>
        <time>2020-09-22T11:40:25Z</time>
      </trkpt>
      <trkpt lat="46.53984" lon="4.81647">
        <ele>324</ele>
        <time>2020-09-22T11:40:32Z</time>
      </trkpt>
      <trkpt lat="46.5395" lon="4.81758">
        <ele>312</ele>
        <time>2020-09-22T11:40:51Z</time>
      </trkpt>
      <trkpt lat="46.53942" lon="4.81774">
        <ele>311</ele>
        <time>2020-09-22T11:40:54Z</time>
      </trkpt>
      <trkpt lat="46.53948" lon="4.81851">
        <ele>305</ele>
        <time>2020-09-22T11:41:07Z</time>
      </trkpt>
      <trkpt lat="46.53912" lon="4.81862">
        <ele>300</ele>
        <time>2020-09-22T11:41:15Z</time>
      </trkpt>
      <trkpt lat="46.53849" lon="4.81868">
        <ele>291</ele>
        <time>2020-09-22T11:41:30Z</time>
      </trkpt>
      <trkpt lat="46.53846" lon="4.81871">
        <ele>290</ele>
        <time>2020-09-22T11:41:31Z</time>
      </trkpt>
      <trkpt lat="46.53846" lon="4.81886">
        <ele>288</ele>
        <time>2020-09-22T11:41:33Z</time>
      </trkpt>
      <trkpt lat="46.53889" lon="4.81943">
        <ele>288</ele>
        <time>2020-09-22T11:41:47Z</time>
      </trkpt>
      <trkpt lat="46.53896" lon="4.8197">
        <ele>286</ele>
        <time>2020-09-22T11:41:52Z</time>
      </trkpt>
      <trkpt lat="46.53897" lon="4.81986">
        <ele>285</ele>
        <time>2020-09-22T11:41:54Z</time>
      </trkpt>
      <trkpt lat="46.53894" lon="4.82">
        <ele>284</ele>
        <time>2020-09-22T11:41:57Z</time>
      </trkpt>
      <trkpt lat="46.5389" lon="4.82014">
        <ele>284</ele>
        <time>2020-09-22T11:41:59Z</time>
      </trkpt>
      <trkpt lat="46.53878" lon="4.82034">
        <ele>285</ele>
        <time>2020-09-22T11:42:03Z</time>
      </trkpt>
      <trkpt lat="46.53815" lon="4.82117">
        <ele>287</ele>
        <time>2020-09-22T11:42:23Z</time>
      </trkpt>
      <trkpt lat="46.53785" lon="4.82149">
        <ele>289</ele>
        <time>2020-09-22T11:42:32Z</time>
      </trkpt>
      <trkpt lat="46.53748" lon="4.82148">
        <ele>287</ele>
        <time>2020-09-22T11:42:40Z</time>
      </trkpt>
      <trkpt lat="46.53706" lon="4.82162">
        <ele>283</ele>
        <time>2020-09-22T11:42:50Z</time>
      </trkpt>
      <trkpt lat="46.53646" lon="4.82152">
        <ele>274</ele>
        <time>2020-09-22T11:43:05Z</time>
      </trkpt>
      <trkpt lat="46.53635" lon="4.82151">
        <ele>273</ele>
        <time>2020-09-22T11:43:07Z</time>
      </trkpt>
      <trkpt lat="46.53627" lon="4.82153">
        <ele>272</ele>
        <time>2020-09-22T11:43:09Z</time>
      </trkpt>
      <trkpt lat="46.53591" lon="4.82175">
        <ele>268</ele>
        <time>2020-09-22T11:43:18Z</time>
      </trkpt>
      <trkpt lat="46.53539" lon="4.82189">
        <ele>266</ele>
        <time>2020-09-22T11:43:31Z</time>
      </trkpt>
      <trkpt lat="46.53515" lon="4.82209">
        <ele>265</ele>
        <time>2020-09-22T11:43:37Z</time>
      </trkpt>
      <trkpt lat="46.53451" lon="4.82255">
        <ele>264</ele>
        <time>2020-09-22T11:43:54Z</time>
      </trkpt>
      <trkpt lat="46.53435" lon="4.82265">
        <ele>264</ele>
        <time>2020-09-22T11:43:58Z</time>
      </trkpt>
      <trkpt lat="46.53427" lon="4.82265">
        <ele>264</ele>
        <time>2020-09-22T11:44:00Z</time>
      </trkpt>
      <trkpt lat="46.53412" lon="4.82243">
        <ele>263</ele>
        <time>2020-09-22T11:44:05Z</time>
      </trkpt>
      <trkpt lat="46.53404" lon="4.82236">
        <ele>263</ele>
        <time>2020-09-22T11:44:07Z</time>
      </trkpt>
      <trkpt lat="46.53382" lon="4.82229">
        <ele>261</ele>
        <time>2020-09-22T11:44:12Z</time>
      </trkpt>
      <trkpt lat="46.53323" lon="4.82218">
        <ele>258</ele>
        <time>2020-09-22T11:44:26Z</time>
      </trkpt>
      <trkpt lat="46.53304" lon="4.82212">
        <ele>258</ele>
        <time>2020-09-22T11:44:30Z</time>
      </trkpt>
      <trkpt lat="46.53282" lon="4.82188">
        <ele>258</ele>
        <time>2020-09-22T11:44:37Z</time>
      </trkpt>
      <trkpt lat="46.53273" lon="4.82191">
        <ele>258</ele>
        <time>2020-09-22T11:44:39Z</time>
      </trkpt>
      <trkpt lat="46.53268" lon="4.822">
        <ele>258</ele>
        <time>2020-09-22T11:44:41Z</time>
      </trkpt>
      <trkpt lat="46.53261" lon="4.822">
        <ele>258</ele>
        <time>2020-09-22T11:44:43Z</time>
      </trkpt>
      <trkpt lat="46.53229" lon="4.82219">
        <ele>258</ele>
        <time>2020-09-22T11:44:51Z</time>
      </trkpt>
      <trkpt lat="46.53219" lon="4.82222">
        <ele>258</ele>
        <time>2020-09-22T11:44:53Z</time>
      </trkpt>
      <trkpt lat="46.5321" lon="4.82221">
        <ele>258</ele>
        <time>2020-09-22T11:44:55Z</time>
      </trkpt>
      <trkpt lat="46.53208" lon="4.82211">
        <ele>259</ele>
        <time>2020-09-22T11:44:57Z</time>
      </trkpt>
      <trkpt lat="46.53209" lon="4.82175">
        <ele>261</ele>
        <time>2020-09-22T11:45:03Z</time>
      </trkpt>
      <trkpt lat="46.53164" lon="4.82119">
        <ele>264</ele>
        <time>2020-09-22T11:45:16Z</time>
      </trkpt>
      <trkpt lat="46.53146" lon="4.82103">
        <ele>263</ele>
        <time>2020-09-22T11:45:21Z</time>
      </trkpt>
      <trkpt lat="46.5313" lon="4.82107">
        <ele>263</ele>
        <time>2020-09-22T11:45:25Z</time>
      </trkpt>
      <trkpt lat="46.53123" lon="4.82106">
        <ele>263</ele>
        <time>2020-09-22T11:45:27Z</time>
      </trkpt>
      <trkpt lat="46.53103" lon="4.82095">
        <ele>263</ele>
        <time>2020-09-22T11:45:32Z</time>
      </trkpt>
      <trkpt lat="46.53084" lon="4.82091">
        <ele>263</ele>
        <time>2020-09-22T11:45:36Z</time>
      </trkpt>
      <trkpt lat="46.53078" lon="4.82099">
        <ele>263</ele>
        <time>2020-09-22T11:45:38Z</time>
      </trkpt>
      <trkpt lat="46.53077" lon="4.82113">
        <ele>262</ele>
        <time>2020-09-22T11:45:40Z</time>
      </trkpt>
      <trkpt lat="46.5308" lon="4.82128">
        <ele>261</ele>
        <time>2020-09-22T11:45:43Z</time>
      </trkpt>
      <trkpt lat="46.53087" lon="4.82142">
        <ele>260</ele>
        <time>2020-09-22T11:45:46Z</time>
      </trkpt>
      <trkpt lat="46.53081" lon="4.82162">
        <ele>259</ele>
        <time>2020-09-22T11:45:49Z</time>
      </trkpt>
      <trkpt lat="46.53066" lon="4.82185">
        <ele>260</ele>
        <time>2020-09-22T11:45:54Z</time>
      </trkpt>
      <trkpt lat="46.5303" lon="4.82209">
        <ele>266</ele>
        <time>2020-09-22T11:46:04Z</time>
      </trkpt>
      <trkpt lat="46.53018" lon="4.82225">
        <ele>270</ele>
        <time>2020-09-22T11:46:07Z</time>
      </trkpt>
      <trkpt lat="46.5303" lon="4.8223">
        <ele>269</ele>
        <time>2020-09-22T11:46:10Z</time>
      </trkpt>
      <trkpt lat="46.53036" lon="4.82238">
        <ele>268</ele>
        <time>2020-09-22T11:46:12Z</time>
      </trkpt>
      <trkpt lat="46.53055" lon="4.82285">
        <ele>273</ele>
        <time>2020-09-22T11:46:21Z</time>
      </trkpt>
      <trkpt lat="46.53068" lon="4.8231">
        <ele>274</ele>
        <time>2020-09-22T11:46:26Z</time>
      </trkpt>
      <trkpt lat="46.53084" lon="4.82332">
        <ele>274</ele>
        <time>2020-09-22T11:46:31Z</time>
      </trkpt>
      <trkpt lat="46.53194" lon="4.82448">
        <ele>266</ele>
        <time>2020-09-22T11:47:03Z</time>
      </trkpt>
      <trkpt lat="46.53244" lon="4.82538">
        <ele>262</ele>
        <time>2020-09-22T11:47:21Z</time>
      </trkpt>
      <trkpt lat="46.53256" lon="4.82575">
        <ele>262</ele>
        <time>2020-09-22T11:47:28Z</time>
      </trkpt>
      <trkpt lat="46.5326" lon="4.82615">
        <ele>263</ele>
        <time>2020-09-22T11:47:34Z</time>
      </trkpt>
      <trkpt lat="46.53239" lon="4.82697">
        <ele>268</ele>
        <time>2020-09-22T11:47:49Z</time>
      </trkpt>
      <trkpt lat="46.53237" lon="4.82787">
        <ele>267</ele>
        <time>2020-09-22T11:48:03Z</time>
      </trkpt>
      <trkpt lat="46.53241" lon="4.82871">
        <ele>262</ele>
        <time>2020-09-22T11:48:17Z</time>
      </trkpt>
      <trkpt lat="46.53238" lon="4.82895">
        <ele>261</ele>
        <time>2020-09-22T11:48:20Z</time>
      </trkpt>
      <trkpt lat="46.53211" lon="4.82951">
        <ele>261</ele>
        <time>2020-09-22T11:48:31Z</time>
      </trkpt>
      <trkpt lat="46.53197" lon="4.8297">
        <ele>261</ele>
        <time>2020-09-22T11:48:36Z</time>
      </trkpt>
      <trkpt lat="46.53134" lon="4.83082">
        <ele>257</ele>
        <time>2020-09-22T11:48:59Z</time>
      </trkpt>
      <trkpt lat="46.5312" lon="4.83116">
        <ele>259</ele>
        <time>2020-09-22T11:49:06Z</time>
      </trkpt>
      <trkpt lat="46.53118" lon="4.83133">
        <ele>259</ele>
        <time>2020-09-22T11:49:08Z</time>
      </trkpt>
      <trkpt lat="46.53121" lon="4.83164">
        <ele>260</ele>
        <time>2020-09-22T11:49:13Z</time>
      </trkpt>
      <trkpt lat="46.53127" lon="4.83182">
        <ele>262</ele>
        <time>2020-09-22T11:49:17Z</time>
      </trkpt>
      <trkpt lat="46.53187" lon="4.83243">
        <ele>261</ele>
        <time>2020-09-22T11:49:34Z</time>
      </trkpt>
      <trkpt lat="46.53239" lon="4.83315">
        <ele>265</ele>
        <time>2020-09-22T11:49:50Z</time>
      </trkpt>
      <trkpt lat="46.5323" lon="4.83311">
        <ele>265</ele>
        <time>2020-09-22T11:49:53Z</time>
      </trkpt>
      <trkpt lat="46.53213" lon="4.83296">
        <ele>265</ele>
        <time>2020-09-22T11:49:57Z</time>
      </trkpt>
      <trkpt lat="46.53205" lon="4.83292">
        <ele>265</ele>
        <time>2020-09-22T11:49:59Z</time>
      </trkpt>
      <trkpt lat="46.53191" lon="4.83291">
        <ele>267</ele>
        <time>2020-09-22T11:50:02Z</time>
      </trkpt>
      <trkpt lat="46.53172" lon="4.83305">
        <ele>271</ele>
        <time>2020-09-22T11:50:07Z</time>
      </trkpt>
      <trkpt lat="46.53093" lon="4.8332">
        <ele>279</ele>
        <time>2020-09-22T11:50:26Z</time>
      </trkpt>
      <trkpt lat="46.53043" lon="4.8334">
        <ele>284</ele>
        <time>2020-09-22T11:50:38Z</time>
      </trkpt>
      <trkpt lat="46.53026" lon="4.83351">
        <ele>285</ele>
        <time>2020-09-22T11:50:43Z</time>
      </trkpt>
      <trkpt lat="46.52938" lon="4.83421">
        <ele>291</ele>
        <time>2020-09-22T11:51:06Z</time>
      </trkpt>
      <trkpt lat="46.52865" lon="4.83463">
        <ele>290</ele>
        <time>2020-09-22T11:51:24Z</time>
      </trkpt>
      <trkpt lat="46.5283" lon="4.83491">
        <ele>287</ele>
        <time>2020-09-22T11:51:34Z</time>
      </trkpt>
      <trkpt lat="46.52768" lon="4.83508">
        <ele>282</ele>
        <time>2020-09-22T11:51:48Z</time>
      </trkpt>
      <trkpt lat="46.52723" lon="4.83557">
        <ele>278</ele>
        <time>2020-09-22T11:52:01Z</time>
      </trkpt>
      <trkpt lat="46.52707" lon="4.83565">
        <ele>278</ele>
        <time>2020-09-22T11:52:05Z</time>
      </trkpt>
      <trkpt lat="46.52691" lon="4.83568">
        <ele>278</ele>
        <time>2020-09-22T11:52:09Z</time>
      </trkpt>
      <trkpt lat="46.52649" lon="4.83569">
        <ele>279</ele>
        <time>2020-09-22T11:52:19Z</time>
      </trkpt>
      <trkpt lat="46.52591" lon="4.83576">
        <ele>281</ele>
        <time>2020-09-22T11:52:33Z</time>
      </trkpt>
      <trkpt lat="46.52552" lon="4.83601">
        <ele>282</ele>
        <time>2020-09-22T11:52:43Z</time>
      </trkpt>
      <trkpt lat="46.52546" lon="4.83603">
        <ele>282</ele>
        <time>2020-09-22T11:52:44Z</time>
      </trkpt>
      <trkpt lat="46.52524" lon="4.83603">
        <ele>283</ele>
        <time>2020-09-22T11:52:49Z</time>
      </trkpt>
      <trkpt lat="46.52515" lon="4.83606">
        <ele>284</ele>
        <time>2020-09-22T11:52:51Z</time>
      </trkpt>
      <trkpt lat="46.52511" lon="4.8361">
        <ele>284</ele>
        <time>2020-09-22T11:52:52Z</time>
      </trkpt>
      <trkpt lat="46.52475" lon="4.8369">
        <ele>285</ele>
        <time>2020-09-22T11:53:08Z</time>
      </trkpt>
      <trkpt lat="46.52468" lon="4.83678">
        <ele>285</ele>
        <time>2020-09-22T11:53:10Z</time>
      </trkpt>
      <trkpt lat="46.5242" lon="4.83645">
        <ele>289</ele>
        <time>2020-09-22T11:53:23Z</time>
      </trkpt>
      <trkpt lat="46.52418" lon="4.83639">
        <ele>289</ele>
        <time>2020-09-22T11:53:24Z</time>
      </trkpt>
      <trkpt lat="46.52448" lon="4.83532">
        <ele>291</ele>
        <time>2020-09-22T11:53:42Z</time>
      </trkpt>
      <trkpt lat="46.52469" lon="4.83428">
        <ele>299</ele>
        <time>2020-09-22T11:54:00Z</time>
      </trkpt>
      <trkpt lat="46.5247" lon="4.83398">
        <ele>302</ele>
        <time>2020-09-22T11:54:05Z</time>
      </trkpt>
      <trkpt lat="46.52463" lon="4.83342">
        <ele>308</ele>
        <time>2020-09-22T11:54:14Z</time>
      </trkpt>
      <trkpt lat="46.52435" lon="4.83329">
        <ele>312</ele>
        <time>2020-09-22T11:54:21Z</time>
      </trkpt>
      <trkpt lat="46.5241" lon="4.83295">
        <ele>317</ele>
        <time>2020-09-22T11:54:29Z</time>
      </trkpt>
      <trkpt lat="46.52378" lon="4.83265">
        <ele>323</ele>
        <time>2020-09-22T11:54:37Z</time>
      </trkpt>
      <trkpt lat="46.52321" lon="4.83219">
        <ele>330</ele>
        <time>2020-09-22T11:54:53Z</time>
      </trkpt>
      <trkpt lat="46.52245" lon="4.83164">
        <ele>339</ele>
        <time>2020-09-22T11:55:13Z</time>
      </trkpt>
      <trkpt lat="46.52175" lon="4.83097">
        <ele>348</ele>
        <time>2020-09-22T11:55:32Z</time>
      </trkpt>
      <trkpt lat="46.52069" lon="4.83017">
        <ele>362</ele>
        <time>2020-09-22T11:56:00Z</time>
      </trkpt>
      <trkpt lat="46.52022" lon="4.82967">
        <ele>370</ele>
        <time>2020-09-22T11:56:14Z</time>
      </trkpt>
      <trkpt lat="46.52001" lon="4.82953">
        <ele>373</ele>
        <time>2020-09-22T11:56:19Z</time>
      </trkpt>
      <trkpt lat="46.51979" lon="4.82942">
        <ele>375</ele>
        <time>2020-09-22T11:56:24Z</time>
      </trkpt>
      <trkpt lat="46.51962" lon="4.82938">
        <ele>376</ele>
        <time>2020-09-22T11:56:28Z</time>
      </trkpt>
      <trkpt lat="46.51945" lon="4.82929">
        <ele>378</ele>
        <time>2020-09-22T11:56:33Z</time>
      </trkpt>
      <trkpt lat="46.519" lon="4.82886">
        <ele>383</ele>
        <time>2020-09-22T11:56:45Z</time>
      </trkpt>
      <trkpt lat="46.51853" lon="4.82836">
        <ele>387</ele>
        <time>2020-09-22T11:56:59Z</time>
      </trkpt>
      <trkpt lat="46.51845" lon="4.82824">
        <ele>388</ele>
        <time>2020-09-22T11:57:02Z</time>
      </trkpt>
      <trkpt lat="46.51842" lon="4.82822">
        <ele>388</ele>
        <time>2020-09-22T11:57:02Z</time>
      </trkpt>
      <trkpt lat="46.51819" lon="4.82822">
        <ele>388</ele>
        <time>2020-09-22T11:57:08Z</time>
      </trkpt>
      <trkpt lat="46.51807" lon="4.82819">
        <ele>389</ele>
        <time>2020-09-22T11:57:11Z</time>
      </trkpt>
      <trkpt lat="46.51795" lon="4.82812">
        <ele>389</ele>
        <time>2020-09-22T11:57:14Z</time>
      </trkpt>
      <trkpt lat="46.51786" lon="4.828">
        <ele>389</ele>
        <time>2020-09-22T11:57:16Z</time>
      </trkpt>
      <trkpt lat="46.51782" lon="4.8279">
        <ele>390</ele>
        <time>2020-09-22T11:57:18Z</time>
      </trkpt>
      <trkpt lat="46.51763" lon="4.82706">
        <ele>392</ele>
        <time>2020-09-22T11:57:32Z</time>
      </trkpt>
      <trkpt lat="46.51757" lon="4.82696">
        <ele>392</ele>
        <time>2020-09-22T11:57:35Z</time>
      </trkpt>
      <trkpt lat="46.51693" lon="4.82665">
        <ele>392</ele>
        <time>2020-09-22T11:57:50Z</time>
      </trkpt>
      <trkpt lat="46.51652" lon="4.82651">
        <ele>391</ele>
        <time>2020-09-22T11:58:00Z</time>
      </trkpt>
      <trkpt lat="46.51605" lon="4.82645">
        <ele>390</ele>
        <time>2020-09-22T11:58:11Z</time>
      </trkpt>
      <trkpt lat="46.51601" lon="4.82655">
        <ele>390</ele>
        <time>2020-09-22T11:58:13Z</time>
      </trkpt>
      <trkpt lat="46.51568" lon="4.82695">
        <ele>390</ele>
        <time>2020-09-22T11:58:23Z</time>
      </trkpt>
      <trkpt lat="46.51563" lon="4.82704">
        <ele>390</ele>
        <time>2020-09-22T11:58:25Z</time>
      </trkpt>
      <trkpt lat="46.51545" lon="4.82766">
        <ele>386</ele>
        <time>2020-09-22T11:58:36Z</time>
      </trkpt>
      <trkpt lat="46.51541" lon="4.82773">
        <ele>385</ele>
        <time>2020-09-22T11:58:37Z</time>
      </trkpt>
      <trkpt lat="46.51534" lon="4.82781">
        <ele>384</ele>
        <time>2020-09-22T11:58:39Z</time>
      </trkpt>
      <trkpt lat="46.51521" lon="4.82788">
        <ele>383</ele>
        <time>2020-09-22T11:58:43Z</time>
      </trkpt>
      <trkpt lat="46.51489" lon="4.8279">
        <ele>380</ele>
        <time>2020-09-22T11:58:50Z</time>
      </trkpt>
      <trkpt lat="46.51478" lon="4.82795">
        <ele>378</ele>
        <time>2020-09-22T11:58:53Z</time>
      </trkpt>
      <trkpt lat="46.51455" lon="4.8279">
        <ele>376</ele>
        <time>2020-09-22T11:58:58Z</time>
      </trkpt>
      <trkpt lat="46.51429" lon="4.82778">
        <ele>375</ele>
        <time>2020-09-22T11:59:05Z</time>
      </trkpt>
      <trkpt lat="46.51326" lon="4.82722">
        <ele>373</ele>
        <time>2020-09-22T11:59:30Z</time>
      </trkpt>
      <trkpt lat="46.51318" lon="4.82722">
        <ele>372</ele>
        <time>2020-09-22T11:59:32Z</time>
      </trkpt>
      <trkpt lat="46.51299" lon="4.82741">
        <ele>366</ele>
        <time>2020-09-22T11:59:37Z</time>
      </trkpt>
      <trkpt lat="46.51282" lon="4.82751">
        <ele>363</ele>
        <time>2020-09-22T11:59:42Z</time>
      </trkpt>
      <trkpt lat="46.51269" lon="4.8275">
        <ele>361</ele>
        <time>2020-09-22T11:59:45Z</time>
      </trkpt>
      <trkpt lat="46.51227" lon="4.82728">
        <ele>361</ele>
        <time>2020-09-22T11:59:55Z</time>
      </trkpt>
      <trkpt lat="46.5121" lon="4.82733">
        <ele>359</ele>
        <time>2020-09-22T11:59:59Z</time>
      </trkpt>
      <trkpt lat="46.51193" lon="4.82743">
        <ele>355</ele>
        <time>2020-09-22T12:00:04Z</time>
      </trkpt>
      <trkpt lat="46.51172" lon="4.82757">
        <ele>351</ele>
        <time>2020-09-22T12:00:09Z</time>
      </trkpt>
      <trkpt lat="46.51142" lon="4.82782">
        <ele>344</ele>
        <time>2020-09-22T12:00:17Z</time>
      </trkpt>
      <trkpt lat="46.51133" lon="4.82795">
        <ele>341</ele>
        <time>2020-09-22T12:00:20Z</time>
      </trkpt>
      <trkpt lat="46.51116" lon="4.82841">
        <ele>333</ele>
        <time>2020-09-22T12:00:28Z</time>
      </trkpt>
      <trkpt lat="46.51108" lon="4.82836">
        <ele>333</ele>
        <time>2020-09-22T12:00:30Z</time>
      </trkpt>
      <trkpt lat="46.51093" lon="4.82832">
        <ele>332</ele>
        <time>2020-09-22T12:00:34Z</time>
      </trkpt>
      <trkpt lat="46.51024" lon="4.82837">
        <ele>325</ele>
        <time>2020-09-22T12:00:50Z</time>
      </trkpt>
      <trkpt lat="46.50977" lon="4.82836">
        <ele>321</ele>
        <time>2020-09-22T12:01:01Z</time>
      </trkpt>
      <trkpt lat="46.50945" lon="4.8284">
        <ele>319</ele>
        <time>2020-09-22T12:01:09Z</time>
      </trkpt>
      <trkpt lat="46.50907" lon="4.82838">
        <ele>318</ele>
        <time>2020-09-22T12:01:17Z</time>
      </trkpt>
      <trkpt lat="46.50898" lon="4.82835">
        <ele>318</ele>
        <time>2020-09-22T12:01:20Z</time>
      </trkpt>
      <trkpt lat="46.50892" lon="4.82837">
        <ele>317</ele>
        <time>2020-09-22T12:01:21Z</time>
      </trkpt>
      <trkpt lat="46.5085" lon="4.82829">
        <ele>317</ele>
        <time>2020-09-22T12:01:31Z</time>
      </trkpt>
      <trkpt lat="46.50808" lon="4.82831">
        <ele>316</ele>
        <time>2020-09-22T12:01:41Z</time>
      </trkpt>
      <trkpt lat="46.50725" lon="4.8285">
        <ele>308</ele>
        <time>2020-09-22T12:02:00Z</time>
      </trkpt>
      <trkpt lat="46.50685" lon="4.82873">
        <ele>299</ele>
        <time>2020-09-22T12:02:10Z</time>
      </trkpt>
      <trkpt lat="46.50669" lon="4.82878">
        <ele>297</ele>
        <time>2020-09-22T12:02:14Z</time>
      </trkpt>
      <trkpt lat="46.50649" lon="4.82881">
        <ele>293</ele>
        <time>2020-09-22T12:02:19Z</time>
      </trkpt>
      <trkpt lat="46.5059" lon="4.82879">
        <ele>286</ele>
        <time>2020-09-22T12:02:33Z</time>
      </trkpt>
      <trkpt lat="46.50506" lon="4.82885">
        <ele>275</ele>
        <time>2020-09-22T12:02:52Z</time>
      </trkpt>
      <trkpt lat="46.50476" lon="4.82915">
        <ele>265</ele>
        <time>2020-09-22T12:03:01Z</time>
      </trkpt>
      <trkpt lat="46.50473" lon="4.83009">
        <ele>262</ele>
        <time>2020-09-22T12:03:16Z</time>
      </trkpt>
      <trkpt lat="46.50483" lon="4.8301">
        <ele>262</ele>
        <time>2020-09-22T12:03:18Z</time>
      </trkpt>
      <trkpt lat="46.50492" lon="4.83056">
        <ele>264</ele>
        <time>2020-09-22T12:03:26Z</time>
      </trkpt>
      <trkpt lat="46.50492" lon="4.8323">
        <ele>276</ele>
        <time>2020-09-22T12:03:54Z</time>
      </trkpt>
      <trkpt lat="46.50496" lon="4.83288">
        <ele>282</ele>
        <time>2020-09-22T12:04:03Z</time>
      </trkpt>
      <trkpt lat="46.50502" lon="4.8333">
        <ele>288</ele>
        <time>2020-09-22T12:04:10Z</time>
      </trkpt>
      <trkpt lat="46.50501" lon="4.8345">
        <ele>295</ele>
        <time>2020-09-22T12:04:30Z</time>
      </trkpt>
      <trkpt lat="46.50494" lon="4.83505">
        <ele>299</ele>
        <time>2020-09-22T12:04:39Z</time>
      </trkpt>
      <trkpt lat="46.50498" lon="4.83524">
        <ele>300</ele>
        <time>2020-09-22T12:04:42Z</time>
      </trkpt>
      <trkpt lat="46.50519" lon="4.8353">
        <ele>301</ele>
        <time>2020-09-22T12:04:47Z</time>
      </trkpt>
      <trkpt lat="46.5054" lon="4.83532">
        <ele>302</ele>
        <time>2020-09-22T12:04:52Z</time>
      </trkpt>
      <trkpt lat="46.50592" lon="4.8355">
        <ele>306</ele>
        <time>2020-09-22T12:05:04Z</time>
      </trkpt>
      <trkpt lat="46.50642" lon="4.83559">
        <ele>310</ele>
        <time>2020-09-22T12:05:16Z</time>
      </trkpt>
      <trkpt lat="46.50678" lon="4.83572">
        <ele>314</ele>
        <time>2020-09-22T12:05:25Z</time>
      </trkpt>
      <trkpt lat="46.50695" lon="4.83583">
        <ele>315</ele>
        <time>2020-09-22T12:05:29Z</time>
      </trkpt>
      <trkpt lat="46.50718" lon="4.83603">
        <ele>317</ele>
        <time>2020-09-22T12:05:35Z</time>
      </trkpt>
      <trkpt lat="46.50822" lon="4.83652">
        <ele>323</ele>
        <time>2020-09-22T12:06:01Z</time>
      </trkpt>
      <trkpt lat="46.5084" lon="4.83642">
        <ele>324</ele>
        <time>2020-09-22T12:06:05Z</time>
      </trkpt>
      <trkpt lat="46.50849" lon="4.83627">
        <ele>324</ele>
        <time>2020-09-22T12:06:08Z</time>
      </trkpt>
      <trkpt lat="46.50858" lon="4.83535">
        <ele>324</ele>
        <time>2020-09-22T12:06:23Z</time>
      </trkpt>
      <trkpt lat="46.50861" lon="4.83525">
        <ele>325</ele>
        <time>2020-09-22T12:06:25Z</time>
      </trkpt>
      <trkpt lat="46.5087" lon="4.83516">
        <ele>326</ele>
        <time>2020-09-22T12:06:28Z</time>
      </trkpt>
      <trkpt lat="46.50884" lon="4.83508">
        <ele>327</ele>
        <time>2020-09-22T12:06:31Z</time>
      </trkpt>
      <trkpt lat="46.50913" lon="4.83477">
        <ele>329</ele>
        <time>2020-09-22T12:06:40Z</time>
      </trkpt>
      <trkpt lat="46.50946" lon="4.8346">
        <ele>329</ele>
        <time>2020-09-22T12:06:48Z</time>
      </trkpt>
      <trkpt lat="46.50962" lon="4.83459">
        <ele>329</ele>
        <time>2020-09-22T12:06:51Z</time>
      </trkpt>
      <trkpt lat="46.50992" lon="4.83463">
        <ele>330</ele>
        <time>2020-09-22T12:06:59Z</time>
      </trkpt>
      <trkpt lat="46.51046" lon="4.83477">
        <ele>333</ele>
        <time>2020-09-22T12:07:11Z</time>
      </trkpt>
      <trkpt lat="46.5107" lon="4.83477">
        <ele>333</ele>
        <time>2020-09-22T12:07:17Z</time>
      </trkpt>
      <trkpt lat="46.511" lon="4.83487">
        <ele>335</ele>
        <time>2020-09-22T12:07:24Z</time>
      </trkpt>
      <trkpt lat="46.5115" lon="4.83509">
        <ele>337</ele>
        <time>2020-09-22T12:07:36Z</time>
      </trkpt>
      <trkpt lat="46.51198" lon="4.83514">
        <ele>338</ele>
        <time>2020-09-22T12:07:48Z</time>
      </trkpt>
      <trkpt lat="46.51244" lon="4.83511">
        <ele>338</ele>
        <time>2020-09-22T12:07:58Z</time>
      </trkpt>
      <trkpt lat="46.5127" lon="4.83513">
        <ele>338</ele>
        <time>2020-09-22T12:08:04Z</time>
      </trkpt>
      <trkpt lat="46.51295" lon="4.83522">
        <ele>338</ele>
        <time>2020-09-22T12:08:10Z</time>
      </trkpt>
      <trkpt lat="46.51359" lon="4.83539">
        <ele>338</ele>
        <time>2020-09-22T12:08:26Z</time>
      </trkpt>
      <trkpt lat="46.5145" lon="4.83548">
        <ele>336</ele>
        <time>2020-09-22T12:08:47Z</time>
      </trkpt>
      <trkpt lat="46.51472" lon="4.83554">
        <ele>335</ele>
        <time>2020-09-22T12:08:52Z</time>
      </trkpt>
      <trkpt lat="46.51482" lon="4.83553">
        <ele>335</ele>
        <time>2020-09-22T12:08:54Z</time>
      </trkpt>
      <trkpt lat="46.51499" lon="4.83568">
        <ele>334</ele>
        <time>2020-09-22T12:08:59Z</time>
      </trkpt>
      <trkpt lat="46.51515" lon="4.83577">
        <ele>333</ele>
        <time>2020-09-22T12:09:03Z</time>
      </trkpt>
      <trkpt lat="46.51559" lon="4.83581">
        <ele>330</ele>
        <time>2020-09-22T12:09:13Z</time>
      </trkpt>
      <trkpt lat="46.5157" lon="4.83583">
        <ele>329</ele>
        <time>2020-09-22T12:09:16Z</time>
      </trkpt>
      <trkpt lat="46.51579" lon="4.83588">
        <ele>328</ele>
        <time>2020-09-22T12:09:18Z</time>
      </trkpt>
      <trkpt lat="46.51595" lon="4.83601">
        <ele>327</ele>
        <time>2020-09-22T12:09:23Z</time>
      </trkpt>
      <trkpt lat="46.51646" lon="4.83686">
        <ele>326</ele>
        <time>2020-09-22T12:09:41Z</time>
      </trkpt>
      <trkpt lat="46.51653" lon="4.83705">
        <ele>326</ele>
        <time>2020-09-22T12:09:44Z</time>
      </trkpt>
      <trkpt lat="46.51689" lon="4.83752">
        <ele>326</ele>
        <time>2020-09-22T12:09:55Z</time>
      </trkpt>
      <trkpt lat="46.51707" lon="4.83766">
        <ele>326</ele>
        <time>2020-09-22T12:10:00Z</time>
      </trkpt>
      <trkpt lat="46.51745" lon="4.83786">
        <ele>325</ele>
        <time>2020-09-22T12:10:10Z</time>
      </trkpt>
      <trkpt lat="46.51768" lon="4.83803">
        <ele>325</ele>
        <time>2020-09-22T12:10:16Z</time>
      </trkpt>
      <trkpt lat="46.51824" lon="4.8383">
        <ele>323</ele>
        <time>2020-09-22T12:10:29Z</time>
      </trkpt>
      <trkpt lat="46.51888" lon="4.83869">
        <ele>320</ele>
        <time>2020-09-22T12:10:46Z</time>
      </trkpt>
      <trkpt lat="46.51968" lon="4.8391">
        <ele>316</ele>
        <time>2020-09-22T12:11:05Z</time>
      </trkpt>
      <trkpt lat="46.51998" lon="4.83929">
        <ele>316</ele>
        <time>2020-09-22T12:11:13Z</time>
      </trkpt>
      <trkpt lat="46.52067" lon="4.83966">
        <ele>311</ele>
        <time>2020-09-22T12:11:30Z</time>
      </trkpt>
      <trkpt lat="46.52135" lon="4.84012">
        <ele>307</ele>
        <time>2020-09-22T12:11:48Z</time>
      </trkpt>
      <trkpt lat="46.52179" lon="4.84049">
        <ele>305</ele>
        <time>2020-09-22T12:12:00Z</time>
      </trkpt>
      <trkpt lat="46.52213" lon="4.84082">
        <ele>304</ele>
        <time>2020-09-22T12:12:09Z</time>
      </trkpt>
      <trkpt lat="46.5223" lon="4.84092">
        <ele>303</ele>
        <time>2020-09-22T12:12:13Z</time>
      </trkpt>
      <trkpt lat="46.52261" lon="4.84118">
        <ele>300</ele>
        <time>2020-09-22T12:12:22Z</time>
      </trkpt>
      <trkpt lat="46.52306" lon="4.84149">
        <ele>297</ele>
        <time>2020-09-22T12:12:33Z</time>
      </trkpt>
      <trkpt lat="46.5233" lon="4.84171">
        <ele>296</ele>
        <time>2020-09-22T12:12:40Z</time>
      </trkpt>
      <trkpt lat="46.52355" lon="4.84187">
        <ele>295</ele>
        <time>2020-09-22T12:12:46Z</time>
      </trkpt>
      <trkpt lat="46.52381" lon="4.84214">
        <ele>294</ele>
        <time>2020-09-22T12:12:54Z</time>
      </trkpt>
      <trkpt lat="46.52391" lon="4.84221">
        <ele>294</ele>
        <time>2020-09-22T12:12:57Z</time>
      </trkpt>
      <trkpt lat="46.52414" lon="4.84232">
        <ele>294</ele>
        <time>2020-09-22T12:13:02Z</time>
      </trkpt>
      <trkpt lat="46.52539" lon="4.84309">
        <ele>291</ele>
        <time>2020-09-22T12:13:34Z</time>
      </trkpt>
      <trkpt lat="46.52612" lon="4.84345">
        <ele>289</ele>
        <time>2020-09-22T12:13:52Z</time>
      </trkpt>
      <trkpt lat="46.52622" lon="4.84352">
        <ele>289</ele>
        <time>2020-09-22T12:13:54Z</time>
      </trkpt>
      <trkpt lat="46.52637" lon="4.84371">
        <ele>289</ele>
        <time>2020-09-22T12:13:59Z</time>
      </trkpt>
      <trkpt lat="46.52655" lon="4.84402">
        <ele>290</ele>
        <time>2020-09-22T12:14:06Z</time>
      </trkpt>
      <trkpt lat="46.52667" lon="4.84414">
        <ele>291</ele>
        <time>2020-09-22T12:14:09Z</time>
      </trkpt>
      <trkpt lat="46.52684" lon="4.84426">
        <ele>290</ele>
        <time>2020-09-22T12:14:13Z</time>
      </trkpt>
      <trkpt lat="46.52694" lon="4.84418">
        <ele>290</ele>
        <time>2020-09-22T12:14:16Z</time>
      </trkpt>
      <trkpt lat="46.52701" lon="4.84437">
        <ele>290</ele>
        <time>2020-09-22T12:14:20Z</time>
      </trkpt>
      <trkpt lat="46.52754" lon="4.84542">
        <ele>292</ele>
        <time>2020-09-22T12:14:41Z</time>
      </trkpt>
      <trkpt lat="46.52761" lon="4.84552">
        <ele>292</ele>
        <time>2020-09-22T12:14:43Z</time>
      </trkpt>
      <trkpt lat="46.52768" lon="4.84557">
        <ele>292</ele>
        <time>2020-09-22T12:14:45Z</time>
      </trkpt>
      <trkpt lat="46.52811" lon="4.84573">
        <ele>294</ele>
        <time>2020-09-22T12:14:55Z</time>
      </trkpt>
      <trkpt lat="46.52901" lon="4.846">
        <ele>298</ele>
        <time>2020-09-22T12:15:16Z</time>
      </trkpt>
      <trkpt lat="46.52913" lon="4.84606">
        <ele>298</ele>
        <time>2020-09-22T12:15:19Z</time>
      </trkpt>
      <trkpt lat="46.52936" lon="4.8461">
        <ele>298</ele>
        <time>2020-09-22T12:15:25Z</time>
      </trkpt>
      <trkpt lat="46.52952" lon="4.84616">
        <ele>298</ele>
        <time>2020-09-22T12:15:29Z</time>
      </trkpt>
      <trkpt lat="46.53024" lon="4.84658">
        <ele>299</ele>
        <time>2020-09-22T12:15:47Z</time>
      </trkpt>
      <trkpt lat="46.53204" lon="4.84739">
        <ele>298</ele>
        <time>2020-09-22T12:16:31Z</time>
      </trkpt>
      <trkpt lat="46.53278" lon="4.84782">
        <ele>297</ele>
        <time>2020-09-22T12:16:49Z</time>
      </trkpt>
      <trkpt lat="46.5333" lon="4.84807">
        <ele>297</ele>
        <time>2020-09-22T12:17:02Z</time>
      </trkpt>
      <trkpt lat="46.53356" lon="4.84825">
        <ele>297</ele>
        <time>2020-09-22T12:17:09Z</time>
      </trkpt>
      <trkpt lat="46.53377" lon="4.84866">
        <ele>298</ele>
        <time>2020-09-22T12:17:17Z</time>
      </trkpt>
      <trkpt lat="46.53393" lon="4.84936">
        <ele>300</ele>
        <time>2020-09-22T12:17:29Z</time>
      </trkpt>
      <trkpt lat="46.53439" lon="4.85094">
        <ele>299</ele>
        <time>2020-09-22T12:17:57Z</time>
      </trkpt>
      <trkpt lat="46.53466" lon="4.85146">
        <ele>294</ele>
        <time>2020-09-22T12:18:07Z</time>
      </trkpt>
      <trkpt lat="46.53508" lon="4.85192">
        <ele>292</ele>
        <time>2020-09-22T12:18:19Z</time>
      </trkpt>
      <trkpt lat="46.53523" lon="4.85213">
        <ele>292</ele>
        <time>2020-09-22T12:18:24Z</time>
      </trkpt>
      <trkpt lat="46.53537" lon="4.85244">
        <ele>291</ele>
        <time>2020-09-22T12:18:30Z</time>
      </trkpt>
      <trkpt lat="46.53542" lon="4.8528">
        <ele>289</ele>
        <time>2020-09-22T12:18:36Z</time>
      </trkpt>
      <trkpt lat="46.53542" lon="4.85326">
        <ele>287</ele>
        <time>2020-09-22T12:18:43Z</time>
      </trkpt>
      <trkpt lat="46.53545" lon="4.85348">
        <ele>286</ele>
        <time>2020-09-22T12:18:47Z</time>
      </trkpt>
      <trkpt lat="46.53569" lon="4.85413">
        <ele>284</ele>
        <time>2020-09-22T12:18:59Z</time>
      </trkpt>
      <trkpt lat="46.53577" lon="4.85441">
        <ele>285</ele>
        <time>2020-09-22T12:19:04Z</time>
      </trkpt>
      <trkpt lat="46.53602" lon="4.856">
        <ele>296</ele>
        <time>2020-09-22T12:19:30Z</time>
      </trkpt>
      <trkpt lat="46.53606" lon="4.85609">
        <ele>296</ele>
        <time>2020-09-22T12:19:32Z</time>
      </trkpt>
      <trkpt lat="46.53643" lon="4.85662">
        <ele>298</ele>
        <time>2020-09-22T12:19:44Z</time>
      </trkpt>
      <trkpt lat="46.53679" lon="4.85704">
        <ele>298</ele>
        <time>2020-09-22T12:19:55Z</time>
      </trkpt>
      <trkpt lat="46.53735" lon="4.8574">
        <ele>298</ele>
        <time>2020-09-22T12:20:09Z</time>
      </trkpt>
      <trkpt lat="46.53839" lon="4.85778">
        <ele>298</ele>
        <time>2020-09-22T12:20:34Z</time>
      </trkpt>
      <trkpt lat="46.53862" lon="4.85783">
        <ele>297</ele>
        <time>2020-09-22T12:20:39Z</time>
      </trkpt>
      <trkpt lat="46.53899" lon="4.85786">
        <ele>294</ele>
        <time>2020-09-22T12:20:48Z</time>
      </trkpt>
      <trkpt lat="46.53935" lon="4.85792">
        <ele>292</ele>
        <time>2020-09-22T12:20:56Z</time>
      </trkpt>
      <trkpt lat="46.54063" lon="4.858">
        <ele>282</ele>
        <time>2020-09-22T12:21:26Z</time>
      </trkpt>
      <trkpt lat="46.54107" lon="4.85794">
        <ele>277</ele>
        <time>2020-09-22T12:21:37Z</time>
      </trkpt>
      <trkpt lat="46.54138" lon="4.85799">
        <ele>275</ele>
        <time>2020-09-22T12:21:44Z</time>
      </trkpt>
      <trkpt lat="46.54177" lon="4.85797">
        <ele>272</ele>
        <time>2020-09-22T12:21:53Z</time>
      </trkpt>
      <trkpt lat="46.54196" lon="4.85791">
        <ele>270</ele>
        <time>2020-09-22T12:21:58Z</time>
      </trkpt>
      <trkpt lat="46.54213" lon="4.85776">
        <ele>268</ele>
        <time>2020-09-22T12:22:02Z</time>
      </trkpt>
      <trkpt lat="46.54223" lon="4.85759">
        <ele>266</ele>
        <time>2020-09-22T12:22:06Z</time>
      </trkpt>
      <trkpt lat="46.54245" lon="4.85821">
        <ele>272</ele>
        <time>2020-09-22T12:22:17Z</time>
      </trkpt>
      <trkpt lat="46.54242" lon="4.85984">
        <ele>290</ele>
        <time>2020-09-22T12:22:43Z</time>
      </trkpt>
      <trkpt lat="46.54226" lon="4.86094">
        <ele>300</ele>
        <time>2020-09-22T12:23:01Z</time>
      </trkpt>
      <trkpt lat="46.54148" lon="4.86229">
        <ele>316</ele>
        <time>2020-09-22T12:23:30Z</time>
      </trkpt>
      <trkpt lat="46.5407" lon="4.86436">
        <ele>335</ele>
        <time>2020-09-22T12:24:08Z</time>
      </trkpt>
      <trkpt lat="46.53931" lon="4.86768">
        <ele>344</ele>
        <time>2020-09-22T12:25:10Z</time>
      </trkpt>
      <trkpt lat="46.53924" lon="4.86792">
        <ele>344</ele>
        <time>2020-09-22T12:25:14Z</time>
      </trkpt>
      <trkpt lat="46.53918" lon="4.86841">
        <ele>343</ele>
        <time>2020-09-22T12:25:22Z</time>
      </trkpt>
      <trkpt lat="46.53888" lon="4.86859">
        <ele>341</ele>
        <time>2020-09-22T12:25:30Z</time>
      </trkpt>
      <trkpt lat="46.5386" lon="4.86866">
        <ele>340</ele>
        <time>2020-09-22T12:25:36Z</time>
      </trkpt>
      <trkpt lat="46.53803" lon="4.86917">
        <ele>328</ele>
        <time>2020-09-22T12:25:52Z</time>
      </trkpt>
      <trkpt lat="46.53793" lon="4.86921">
        <ele>326</ele>
        <time>2020-09-22T12:25:54Z</time>
      </trkpt>
      <trkpt lat="46.53783" lon="4.86923">
        <ele>325</ele>
        <time>2020-09-22T12:25:57Z</time>
      </trkpt>
      <trkpt lat="46.53743" lon="4.86921">
        <ele>322</ele>
        <time>2020-09-22T12:26:06Z</time>
      </trkpt>
      <trkpt lat="46.53722" lon="4.86915">
        <ele>321</ele>
        <time>2020-09-22T12:26:11Z</time>
      </trkpt>
      <trkpt lat="46.53696" lon="4.86902">
        <ele>321</ele>
        <time>2020-09-22T12:26:18Z</time>
      </trkpt>
      <trkpt lat="46.53591" lon="4.86899">
        <ele>313</ele>
        <time>2020-09-22T12:26:42Z</time>
      </trkpt>
      <trkpt lat="46.53464" lon="4.86923">
        <ele>305</ele>
        <time>2020-09-22T12:27:12Z</time>
      </trkpt>
      <trkpt lat="46.53411" lon="4.86947">
        <ele>297</ele>
        <time>2020-09-22T12:27:25Z</time>
      </trkpt>
      <trkpt lat="46.53315" lon="4.86958">
        <ele>290</ele>
        <time>2020-09-22T12:27:47Z</time>
      </trkpt>
      <trkpt lat="46.53279" lon="4.86967">
        <ele>287</ele>
        <time>2020-09-22T12:27:56Z</time>
      </trkpt>
      <trkpt lat="46.53265" lon="4.86974">
        <ele>285</ele>
        <time>2020-09-22T12:27:59Z</time>
      </trkpt>
      <trkpt lat="46.53247" lon="4.86989">
        <ele>282</ele>
        <time>2020-09-22T12:28:04Z</time>
      </trkpt>
      <trkpt lat="46.5323" lon="4.87011">
        <ele>279</ele>
        <time>2020-09-22T12:28:10Z</time>
      </trkpt>
      <trkpt lat="46.53224" lon="4.87032">
        <ele>277</ele>
        <time>2020-09-22T12:28:13Z</time>
      </trkpt>
      <trkpt lat="46.53234" lon="4.87047">
        <ele>276</ele>
        <time>2020-09-22T12:28:17Z</time>
      </trkpt>
      <trkpt lat="46.53236" lon="4.87064">
        <ele>275</ele>
        <time>2020-09-22T12:28:19Z</time>
      </trkpt>
      <trkpt lat="46.53231" lon="4.87173">
        <ele>270</ele>
        <time>2020-09-22T12:28:37Z</time>
      </trkpt>
      <trkpt lat="46.53162" lon="4.87159">
        <ele>269</ele>
        <time>2020-09-22T12:28:53Z</time>
      </trkpt>
      <trkpt lat="46.53156" lon="4.8716">
        <ele>269</ele>
        <time>2020-09-22T12:28:55Z</time>
      </trkpt>
      <trkpt lat="46.53132" lon="4.87178">
        <ele>270</ele>
        <time>2020-09-22T12:29:01Z</time>
      </trkpt>
      <trkpt lat="46.53123" lon="4.87181">
        <ele>270</ele>
        <time>2020-09-22T12:29:03Z</time>
      </trkpt>
      <trkpt lat="46.53128" lon="4.87304">
        <ele>270</ele>
        <time>2020-09-22T12:29:23Z</time>
      </trkpt>
      <trkpt lat="46.53124" lon="4.87319">
        <ele>270</ele>
        <time>2020-09-22T12:29:25Z</time>
      </trkpt>
      <trkpt lat="46.53086" lon="4.87375">
        <ele>267</ele>
        <time>2020-09-22T12:29:38Z</time>
      </trkpt>
      <trkpt lat="46.53075" lon="4.87384">
        <ele>267</ele>
        <time>2020-09-22T12:29:41Z</time>
      </trkpt>
      <trkpt lat="46.53062" lon="4.8739">
        <ele>266</ele>
        <time>2020-09-22T12:29:44Z</time>
      </trkpt>
      <trkpt lat="46.53033" lon="4.87391">
        <ele>264</ele>
        <time>2020-09-22T12:29:51Z</time>
      </trkpt>
      <trkpt lat="46.52993" lon="4.87408">
        <ele>261</ele>
        <time>2020-09-22T12:30:01Z</time>
      </trkpt>
      <trkpt lat="46.5293" lon="4.8742">
        <ele>258</ele>
        <time>2020-09-22T12:30:16Z</time>
      </trkpt>
      <trkpt lat="46.52908" lon="4.87428">
        <ele>257</ele>
        <time>2020-09-22T12:30:21Z</time>
      </trkpt>
      <trkpt lat="46.52893" lon="4.87438">
        <ele>256</ele>
        <time>2020-09-22T12:30:25Z</time>
      </trkpt>
      <trkpt lat="46.52874" lon="4.87459">
        <ele>255</ele>
        <time>2020-09-22T12:30:30Z</time>
      </trkpt>
      <trkpt lat="46.52867" lon="4.87463">
        <ele>255</ele>
        <time>2020-09-22T12:30:32Z</time>
      </trkpt>
      <trkpt lat="46.52848" lon="4.8746">
        <ele>254</ele>
        <time>2020-09-22T12:30:37Z</time>
      </trkpt>
      <trkpt lat="46.52797" lon="4.87432">
        <ele>251</ele>
        <time>2020-09-22T12:30:49Z</time>
      </trkpt>
      <trkpt lat="46.52763" lon="4.87417">
        <ele>249</ele>
        <time>2020-09-22T12:30:58Z</time>
      </trkpt>
      <trkpt lat="46.52741" lon="4.87436">
        <ele>249</ele>
        <time>2020-09-22T12:31:04Z</time>
      </trkpt>
      <trkpt lat="46.52716" lon="4.87524">
        <ele>248</ele>
        <time>2020-09-22T12:31:19Z</time>
      </trkpt>
      <trkpt lat="46.52694" lon="4.87637">
        <ele>249</ele>
        <time>2020-09-22T12:31:38Z</time>
      </trkpt>
      <trkpt lat="46.52666" lon="4.87804">
        <ele>247</ele>
        <time>2020-09-22T12:32:05Z</time>
      </trkpt>
      <trkpt lat="46.52658" lon="4.87829">
        <ele>247</ele>
        <time>2020-09-22T12:32:10Z</time>
      </trkpt>
      <trkpt lat="46.52647" lon="4.87853">
        <ele>247</ele>
        <time>2020-09-22T12:32:14Z</time>
      </trkpt>
      <trkpt lat="46.52587" lon="4.87808">
        <ele>247</ele>
        <time>2020-09-22T12:32:30Z</time>
      </trkpt>
      <trkpt lat="46.52512" lon="4.87778">
        <ele>262</ele>
        <time>2020-09-22T12:32:48Z</time>
      </trkpt>
      <trkpt lat="46.52465" lon="4.87766">
        <ele>273</ele>
        <time>2020-09-22T12:32:59Z</time>
      </trkpt>
      <trkpt lat="46.52455" lon="4.87773">
        <ele>274</ele>
        <time>2020-09-22T12:33:02Z</time>
      </trkpt>
      <trkpt lat="46.52448" lon="4.878">
        <ele>273</ele>
        <time>2020-09-22T12:33:07Z</time>
      </trkpt>
      <trkpt lat="46.5243" lon="4.87944">
        <ele>268</ele>
        <time>2020-09-22T12:33:30Z</time>
      </trkpt>
      <trkpt lat="46.52427" lon="4.87953">
        <ele>268</ele>
        <time>2020-09-22T12:33:32Z</time>
      </trkpt>
      <trkpt lat="46.52415" lon="4.87962">
        <ele>270</ele>
        <time>2020-09-22T12:33:35Z</time>
      </trkpt>
      <trkpt lat="46.52402" lon="4.87898">
        <ele>276</ele>
        <time>2020-09-22T12:33:46Z</time>
      </trkpt>
      <trkpt lat="46.52394" lon="4.8787">
        <ele>278</ele>
        <time>2020-09-22T12:33:51Z</time>
      </trkpt>
      <trkpt lat="46.52387" lon="4.87861">
        <ele>279</ele>
        <time>2020-09-22T12:33:53Z</time>
      </trkpt>
      <trkpt lat="46.52376" lon="4.87854">
        <ele>281</ele>
        <time>2020-09-22T12:33:56Z</time>
      </trkpt>
      <trkpt lat="46.5236" lon="4.87857">
        <ele>282</ele>
        <time>2020-09-22T12:33:59Z</time>
      </trkpt>
      <trkpt lat="46.52303" lon="4.87875">
        <ele>282</ele>
        <time>2020-09-22T12:34:13Z</time>
      </trkpt>
      <trkpt lat="46.52251" lon="4.87882">
        <ele>281</ele>
        <time>2020-09-22T12:34:25Z</time>
      </trkpt>
      <trkpt lat="46.52222" lon="4.87882">
        <ele>279</ele>
        <time>2020-09-22T12:34:32Z</time>
      </trkpt>
      <trkpt lat="46.52199" lon="4.87885">
        <ele>277</ele>
        <time>2020-09-22T12:34:37Z</time>
      </trkpt>
      <trkpt lat="46.52139" lon="4.87905">
        <ele>273</ele>
        <time>2020-09-22T12:34:52Z</time>
      </trkpt>
      <trkpt lat="46.52074" lon="4.87911">
        <ele>272</ele>
        <time>2020-09-22T12:35:07Z</time>
      </trkpt>
      <trkpt lat="46.52034" lon="4.87918">
        <ele>271</ele>
        <time>2020-09-22T12:35:16Z</time>
      </trkpt>
      <trkpt lat="46.51977" lon="4.87932">
        <ele>268</ele>
        <time>2020-09-22T12:35:30Z</time>
      </trkpt>
      <trkpt lat="46.51964" lon="4.87937">
        <ele>267</ele>
        <time>2020-09-22T12:35:33Z</time>
      </trkpt>
      <trkpt lat="46.51828" lon="4.88087">
        <ele>259</ele>
        <time>2020-09-22T12:36:13Z</time>
      </trkpt>
      <trkpt lat="46.5181" lon="4.8811">
        <ele>259</ele>
        <time>2020-09-22T12:36:18Z</time>
      </trkpt>
      <trkpt lat="46.51771" lon="4.88169">
        <ele>263</ele>
        <time>2020-09-22T12:36:32Z</time>
      </trkpt>
      <trkpt lat="46.51713" lon="4.88138">
        <ele>267</ele>
        <time>2020-09-22T12:36:46Z</time>
      </trkpt>
      <trkpt lat="46.51652" lon="4.88096">
        <ele>270</ele>
        <time>2020-09-22T12:37:02Z</time>
      </trkpt>
      <trkpt lat="46.5161" lon="4.88076">
        <ele>272</ele>
        <time>2020-09-22T12:37:12Z</time>
      </trkpt>
      <trkpt lat="46.51584" lon="4.88073">
        <ele>274</ele>
        <time>2020-09-22T12:37:18Z</time>
      </trkpt>
      <trkpt lat="46.5154" lon="4.88072">
        <ele>276</ele>
        <time>2020-09-22T12:37:28Z</time>
      </trkpt>
      <trkpt lat="46.51472" lon="4.88064">
        <ele>278</ele>
        <time>2020-09-22T12:37:44Z</time>
      </trkpt>
      <trkpt lat="46.51477" lon="4.88054">
        <ele>277</ele>
        <time>2020-09-22T12:37:46Z</time>
      </trkpt>
      <trkpt lat="46.51481" lon="4.88013">
        <ele>274</ele>
        <time>2020-09-22T12:37:53Z</time>
      </trkpt>
      <trkpt lat="46.51479" lon="4.88">
        <ele>273</ele>
        <time>2020-09-22T12:37:55Z</time>
      </trkpt>
      <trkpt lat="46.51462" lon="4.87962">
        <ele>273</ele>
        <time>2020-09-22T12:38:02Z</time>
      </trkpt>
      <trkpt lat="46.51459" lon="4.8795">
        <ele>273</ele>
        <time>2020-09-22T12:38:04Z</time>
      </trkpt>
      <trkpt lat="46.51459" lon="4.87934">
        <ele>272</ele>
        <time>2020-09-22T12:38:07Z</time>
      </trkpt>
      <trkpt lat="46.51475" lon="4.87857">
        <ele>271</ele>
        <time>2020-09-22T12:38:20Z</time>
      </trkpt>
      <trkpt lat="46.51485" lon="4.8782">
        <ele>272</ele>
        <time>2020-09-22T12:38:26Z</time>
      </trkpt>
      <trkpt lat="46.51493" lon="4.878">
        <ele>274</ele>
        <time>2020-09-22T12:38:30Z</time>
      </trkpt>
      <trkpt lat="46.51519" lon="4.87752">
        <ele>276</ele>
        <time>2020-09-22T12:38:40Z</time>
      </trkpt>
      <trkpt lat="46.5154" lon="4.87689">
        <ele>280</ele>
        <time>2020-09-22T12:38:51Z</time>
      </trkpt>
      <trkpt lat="46.51551" lon="4.87632">
        <ele>284</ele>
        <time>2020-09-22T12:39:01Z</time>
      </trkpt>
      <trkpt lat="46.51559" lon="4.87547">
        <ele>289</ele>
        <time>2020-09-22T12:39:14Z</time>
      </trkpt>
      <trkpt lat="46.51567" lon="4.87495">
        <ele>290</ele>
        <time>2020-09-22T12:39:23Z</time>
      </trkpt>
      <trkpt lat="46.5158" lon="4.8746">
        <ele>290</ele>
        <time>2020-09-22T12:39:29Z</time>
      </trkpt>
      <trkpt lat="46.516" lon="4.87423">
        <ele>291</ele>
        <time>2020-09-22T12:39:37Z</time>
      </trkpt>
      <trkpt lat="46.51602" lon="4.87413">
        <ele>292</ele>
        <time>2020-09-22T12:39:39Z</time>
      </trkpt>
      <trkpt lat="46.5159" lon="4.873">
        <ele>292</ele>
        <time>2020-09-22T12:39:57Z</time>
      </trkpt>
      <trkpt lat="46.5159" lon="4.87274">
        <ele>292</ele>
        <time>2020-09-22T12:40:01Z</time>
      </trkpt>
      <trkpt lat="46.51582" lon="4.87285">
        <ele>291</ele>
        <time>2020-09-22T12:40:04Z</time>
      </trkpt>
      <trkpt lat="46.51561" lon="4.87301">
        <ele>292</ele>
        <time>2020-09-22T12:40:09Z</time>
      </trkpt>
      <trkpt lat="46.51547" lon="4.87315">
        <ele>293</ele>
        <time>2020-09-22T12:40:13Z</time>
      </trkpt>
      <trkpt lat="46.51526" lon="4.87416">
        <ele>297</ele>
        <time>2020-09-22T12:40:30Z</time>
      </trkpt>
      <trkpt lat="46.51491" lon="4.87457">
        <ele>300</ele>
        <time>2020-09-22T12:40:41Z</time>
      </trkpt>
      <trkpt lat="46.51409" lon="4.87363">
        <ele>312</ele>
        <time>2020-09-22T12:41:05Z</time>
      </trkpt>
      <trkpt lat="46.51404" lon="4.87341">
        <ele>313</ele>
        <time>2020-09-22T12:41:09Z</time>
      </trkpt>
      <trkpt lat="46.51395" lon="4.87325">
        <ele>313</ele>
        <time>2020-09-22T12:41:12Z</time>
      </trkpt>
      <trkpt lat="46.51387" lon="4.87317">
        <ele>312</ele>
        <time>2020-09-22T12:41:14Z</time>
      </trkpt>
      <trkpt lat="46.51366" lon="4.87305">
        <ele>313</ele>
        <time>2020-09-22T12:41:20Z</time>
      </trkpt>
      <trkpt lat="46.51312" lon="4.87281">
        <ele>314</ele>
        <time>2020-09-22T12:41:33Z</time>
      </trkpt>
      <trkpt lat="46.51288" lon="4.87262">
        <ele>314</ele>
        <time>2020-09-22T12:41:39Z</time>
      </trkpt>
      <trkpt lat="46.51248" lon="4.87252">
        <ele>315</ele>
        <time>2020-09-22T12:41:49Z</time>
      </trkpt>
      <trkpt lat="46.5122" lon="4.87226">
        <ele>311</ele>
        <time>2020-09-22T12:41:57Z</time>
      </trkpt>
      <trkpt lat="46.51171" lon="4.87206">
        <ele>309</ele>
        <time>2020-09-22T12:42:08Z</time>
      </trkpt>
      <trkpt lat="46.51145" lon="4.87199">
        <ele>308</ele>
        <time>2020-09-22T12:42:15Z</time>
      </trkpt>
      <trkpt lat="46.51116" lon="4.87198">
        <ele>308</ele>
        <time>2020-09-22T12:42:21Z</time>
      </trkpt>
      <trkpt lat="46.51095" lon="4.87192">
        <ele>307</ele>
        <time>2020-09-22T12:42:26Z</time>
      </trkpt>
      <trkpt lat="46.51079" lon="4.87192">
        <ele>307</ele>
        <time>2020-09-22T12:42:30Z</time>
      </trkpt>
      <trkpt lat="46.51048" lon="4.87186">
        <ele>305</ele>
        <time>2020-09-22T12:42:37Z</time>
      </trkpt>
      <trkpt lat="46.51001" lon="4.87163">
        <ele>302</ele>
        <time>2020-09-22T12:42:49Z</time>
      </trkpt>
      <trkpt lat="46.50986" lon="4.87154">
        <ele>299</ele>
        <time>2020-09-22T12:42:53Z</time>
      </trkpt>
      <trkpt lat="46.50966" lon="4.87137">
        <ele>296</ele>
        <time>2020-09-22T12:42:58Z</time>
      </trkpt>
      <trkpt lat="46.50944" lon="4.87128">
        <ele>294</ele>
        <time>2020-09-22T12:43:03Z</time>
      </trkpt>
      <trkpt lat="46.50909" lon="4.87119">
        <ele>292</ele>
        <time>2020-09-22T12:43:12Z</time>
      </trkpt>
      <trkpt lat="46.50892" lon="4.87117">
        <ele>291</ele>
        <time>2020-09-22T12:43:16Z</time>
      </trkpt>
      <trkpt lat="46.50859" lon="4.87106">
        <ele>289</ele>
        <time>2020-09-22T12:43:24Z</time>
      </trkpt>
      <trkpt lat="46.50831" lon="4.8712">
        <ele>286</ele>
        <time>2020-09-22T12:43:31Z</time>
      </trkpt>
      <trkpt lat="46.50799" lon="4.87116">
        <ele>283</ele>
        <time>2020-09-22T12:43:38Z</time>
      </trkpt>
      <trkpt lat="46.50765" lon="4.87118">
        <ele>279</ele>
        <time>2020-09-22T12:43:46Z</time>
      </trkpt>
      <trkpt lat="46.50735" lon="4.87114">
        <ele>276</ele>
        <time>2020-09-22T12:43:53Z</time>
      </trkpt>
      <trkpt lat="46.50714" lon="4.87096">
        <ele>272</ele>
        <time>2020-09-22T12:43:59Z</time>
      </trkpt>
      <trkpt lat="46.50709" lon="4.87113">
        <ele>272</ele>
        <time>2020-09-22T12:44:02Z</time>
      </trkpt>
      <trkpt lat="46.50709" lon="4.87133">
        <ele>274</ele>
        <time>2020-09-22T12:44:05Z</time>
      </trkpt>
      <trkpt lat="46.50718" lon="4.87314">
        <ele>269</ele>
        <time>2020-09-22T12:44:34Z</time>
      </trkpt>
      <trkpt lat="46.50725" lon="4.87397">
        <ele>267</ele>
        <time>2020-09-22T12:44:48Z</time>
      </trkpt>
      <trkpt lat="46.50723" lon="4.87414">
        <ele>267</ele>
        <time>2020-09-22T12:44:50Z</time>
      </trkpt>
      <trkpt lat="46.50717" lon="4.87432">
        <ele>267</ele>
        <time>2020-09-22T12:44:54Z</time>
      </trkpt>
      <trkpt lat="46.50698" lon="4.87476">
        <ele>268</ele>
        <time>2020-09-22T12:45:02Z</time>
      </trkpt>
      <trkpt lat="46.50688" lon="4.87531">
        <ele>269</ele>
        <time>2020-09-22T12:45:11Z</time>
      </trkpt>
      <trkpt lat="46.50689" lon="4.87558">
        <ele>271</ele>
        <time>2020-09-22T12:45:15Z</time>
      </trkpt>
      <trkpt lat="46.5068" lon="4.87675">
        <ele>269</ele>
        <time>2020-09-22T12:45:34Z</time>
      </trkpt>
      <trkpt lat="46.50682" lon="4.87829">
        <ele>265</ele>
        <time>2020-09-22T12:45:59Z</time>
      </trkpt>
      <trkpt lat="46.50676" lon="4.87889">
        <ele>262</ele>
        <time>2020-09-22T12:46:09Z</time>
      </trkpt>
      <trkpt lat="46.50658" lon="4.88001">
        <ele>257</ele>
        <time>2020-09-22T12:46:27Z</time>
      </trkpt>
      <trkpt lat="46.50652" lon="4.88029">
        <ele>256</ele>
        <time>2020-09-22T12:46:32Z</time>
      </trkpt>
      <trkpt lat="46.50644" lon="4.88044">
        <ele>254</ele>
        <time>2020-09-22T12:46:35Z</time>
      </trkpt>
      <trkpt lat="46.50549" lon="4.88277">
        <ele>240</ele>
        <time>2020-09-22T12:47:19Z</time>
      </trkpt>
      <trkpt lat="46.50514" lon="4.88351">
        <ele>236</ele>
        <time>2020-09-22T12:47:33Z</time>
      </trkpt>
      <trkpt lat="46.50485" lon="4.88394">
        <ele>233</ele>
        <time>2020-09-22T12:47:43Z</time>
      </trkpt>
      <trkpt lat="46.50433" lon="4.88493">
        <ele>229</ele>
        <time>2020-09-22T12:48:03Z</time>
      </trkpt>
      <trkpt lat="46.50425" lon="4.88505">
        <ele>228</ele>
        <time>2020-09-22T12:48:05Z</time>
      </trkpt>
      <trkpt lat="46.50413" lon="4.88514">
        <ele>228</ele>
        <time>2020-09-22T12:48:09Z</time>
      </trkpt>
      <trkpt lat="46.5041" lon="4.88531">
        <ele>227</ele>
        <time>2020-09-22T12:48:11Z</time>
      </trkpt>
      <trkpt lat="46.50411" lon="4.88556">
        <ele>227</ele>
        <time>2020-09-22T12:48:15Z</time>
      </trkpt>
      <trkpt lat="46.50427" lon="4.88589">
        <ele>227</ele>
        <time>2020-09-22T12:48:22Z</time>
      </trkpt>
      <trkpt lat="46.50452" lon="4.88615">
        <ele>228</ele>
        <time>2020-09-22T12:48:29Z</time>
      </trkpt>
      <trkpt lat="46.50477" lon="4.88631">
        <ele>229</ele>
        <time>2020-09-22T12:48:35Z</time>
      </trkpt>
      <trkpt lat="46.50508" lon="4.88656">
        <ele>231</ele>
        <time>2020-09-22T12:48:44Z</time>
      </trkpt>
      <trkpt lat="46.50537" lon="4.8869">
        <ele>232</ele>
        <time>2020-09-22T12:48:52Z</time>
      </trkpt>
      <trkpt lat="46.50551" lon="4.88702">
        <ele>233</ele>
        <time>2020-09-22T12:48:56Z</time>
      </trkpt>
      <trkpt lat="46.50609" lon="4.88731">
        <ele>235</ele>
        <time>2020-09-22T12:49:11Z</time>
      </trkpt>
      <trkpt lat="46.50622" lon="4.88741">
        <ele>235</ele>
        <time>2020-09-22T12:49:14Z</time>
      </trkpt>
      <trkpt lat="46.50698" lon="4.88818">
        <ele>239</ele>
        <time>2020-09-22T12:49:36Z</time>
      </trkpt>
      <trkpt lat="46.50714" lon="4.88837">
        <ele>240</ele>
        <time>2020-09-22T12:49:40Z</time>
      </trkpt>
      <trkpt lat="46.50728" lon="4.88825">
        <ele>241</ele>
        <time>2020-09-22T12:49:44Z</time>
      </trkpt>
      <trkpt lat="46.50732" lon="4.88817">
        <ele>242</ele>
        <time>2020-09-22T12:49:46Z</time>
      </trkpt>
      <trkpt lat="46.50752" lon="4.88821">
        <ele>243</ele>
        <time>2020-09-22T12:49:51Z</time>
      </trkpt>
      <trkpt lat="46.50771" lon="4.88831">
        <ele>245</ele>
        <time>2020-09-22T12:49:55Z</time>
      </trkpt>
      <trkpt lat="46.50795" lon="4.88853">
        <ele>247</ele>
        <time>2020-09-22T12:50:02Z</time>
      </trkpt>
      <trkpt lat="46.50874" lon="4.88945">
        <ele>249</ele>
        <time>2020-09-22T12:50:26Z</time>
      </trkpt>
      <trkpt lat="46.50906" lon="4.88989">
        <ele>249</ele>
        <time>2020-09-22T12:50:36Z</time>
      </trkpt>
      <trkpt lat="46.50947" lon="4.89064">
        <ele>250</ele>
        <time>2020-09-22T12:50:51Z</time>
      </trkpt>
      <trkpt lat="46.50988" lon="4.89122">
        <ele>253</ele>
        <time>2020-09-22T12:51:05Z</time>
      </trkpt>
      <trkpt lat="46.51122" lon="4.8928">
        <ele>259</ele>
        <time>2020-09-22T12:51:45Z</time>
      </trkpt>
      <trkpt lat="46.5118" lon="4.89326">
        <ele>260</ele>
        <time>2020-09-22T12:52:00Z</time>
      </trkpt>
      <trkpt lat="46.51235" lon="4.89363">
        <ele>261</ele>
        <time>2020-09-22T12:52:14Z</time>
      </trkpt>
      <trkpt lat="46.51322" lon="4.894">
        <ele>259</ele>
        <time>2020-09-22T12:52:36Z</time>
      </trkpt>
      <trkpt lat="46.51347" lon="4.89415">
        <ele>258</ele>
        <time>2020-09-22T12:52:42Z</time>
      </trkpt>
      <trkpt lat="46.51363" lon="4.8943">
        <ele>257</ele>
        <time>2020-09-22T12:52:46Z</time>
      </trkpt>
      <trkpt lat="46.51384" lon="4.89464">
        <ele>254</ele>
        <time>2020-09-22T12:52:54Z</time>
      </trkpt>
      <trkpt lat="46.51422" lon="4.895">
        <ele>252</ele>
        <time>2020-09-22T12:53:04Z</time>
      </trkpt>
      <trkpt lat="46.51449" lon="4.89507">
        <ele>253</ele>
        <time>2020-09-22T12:53:11Z</time>
      </trkpt>
      <trkpt lat="46.51506" lon="4.89539">
        <ele>252</ele>
        <time>2020-09-22T12:53:25Z</time>
      </trkpt>
      <trkpt lat="46.51514" lon="4.89541">
        <ele>253</ele>
        <time>2020-09-22T12:53:27Z</time>
      </trkpt>
      <trkpt lat="46.51529" lon="4.89574">
        <ele>252</ele>
        <time>2020-09-22T12:53:33Z</time>
      </trkpt>
      <trkpt lat="46.51542" lon="4.89589">
        <ele>253</ele>
        <time>2020-09-22T12:53:37Z</time>
      </trkpt>
      <trkpt lat="46.51566" lon="4.89658">
        <ele>251</ele>
        <time>2020-09-22T12:53:50Z</time>
      </trkpt>
      <trkpt lat="46.51581" lon="4.89686">
        <ele>250</ele>
        <time>2020-09-22T12:53:55Z</time>
      </trkpt>
      <trkpt lat="46.51611" lon="4.89733">
        <ele>249</ele>
        <time>2020-09-22T12:54:06Z</time>
      </trkpt>
      <trkpt lat="46.517" lon="4.89857">
        <ele>251</ele>
        <time>2020-09-22T12:54:34Z</time>
      </trkpt>
      <trkpt lat="46.51724" lon="4.899">
        <ele>252</ele>
        <time>2020-09-22T12:54:43Z</time>
      </trkpt>
      <trkpt lat="46.51724" lon="4.89909">
        <ele>252</ele>
        <time>2020-09-22T12:54:45Z</time>
      </trkpt>
      <trkpt lat="46.51724" lon="4.89907">
        <ele>252</ele>
        <time>2020-09-22T12:54:45Z</time>
      </trkpt>
      <trkpt lat="46.5174" lon="4.89936">
        <ele>252</ele>
        <time>2020-09-22T12:54:51Z</time>
      </trkpt>
      <trkpt lat="46.51837" lon="4.89996">
        <ele>262</ele>
        <time>2020-09-22T12:55:16Z</time>
      </trkpt>
      <trkpt lat="46.51848" lon="4.90001">
        <ele>263</ele>
        <time>2020-09-22T12:55:18Z</time>
      </trkpt>
      <trkpt lat="46.51868" lon="4.90001">
        <ele>266</ele>
        <time>2020-09-22T12:55:23Z</time>
      </trkpt>
      <trkpt lat="46.51885" lon="4.90005">
        <ele>268</ele>
        <time>2020-09-22T12:55:27Z</time>
      </trkpt>
      <trkpt lat="46.51988" lon="4.90078">
        <ele>274</ele>
        <time>2020-09-22T12:55:54Z</time>
      </trkpt>
      <trkpt lat="46.5208" lon="4.90128">
        <ele>280</ele>
        <time>2020-09-22T12:56:17Z</time>
      </trkpt>
      <trkpt lat="46.52182" lon="4.90208">
        <ele>280</ele>
        <time>2020-09-22T12:56:44Z</time>
      </trkpt>
      <trkpt lat="46.52208" lon="4.90224">
        <ele>281</ele>
        <time>2020-09-22T12:56:50Z</time>
      </trkpt>
      <trkpt lat="46.52317" lon="4.90253">
        <ele>289</ele>
        <time>2020-09-22T12:57:16Z</time>
      </trkpt>
      <trkpt lat="46.52373" lon="4.9029">
        <ele>292</ele>
        <time>2020-09-22T12:57:31Z</time>
      </trkpt>
      <trkpt lat="46.52387" lon="4.90293">
        <ele>294</ele>
        <time>2020-09-22T12:57:34Z</time>
      </trkpt>
      <trkpt lat="46.52455" lon="4.90297">
        <ele>298</ele>
        <time>2020-09-22T12:57:50Z</time>
      </trkpt>
      <trkpt lat="46.52504" lon="4.90353">
        <ele>295</ele>
        <time>2020-09-22T12:58:04Z</time>
      </trkpt>
      <trkpt lat="46.52624" lon="4.90453">
        <ele>289</ele>
        <time>2020-09-22T12:58:37Z</time>
      </trkpt>
      <trkpt lat="46.52679" lon="4.90475">
        <ele>289</ele>
        <time>2020-09-22T12:58:50Z</time>
      </trkpt>
      <trkpt lat="46.52696" lon="4.90495">
        <ele>288</ele>
        <time>2020-09-22T12:58:55Z</time>
      </trkpt>
      <trkpt lat="46.52703" lon="4.90528">
        <ele>286</ele>
        <time>2020-09-22T12:59:01Z</time>
      </trkpt>
      <trkpt lat="46.52702" lon="4.90556">
        <ele>284</ele>
        <time>2020-09-22T12:59:05Z</time>
      </trkpt>
      <trkpt lat="46.52644" lon="4.90651">
        <ele>271</ele>
        <time>2020-09-22T12:59:26Z</time>
      </trkpt>
      <trkpt lat="46.52608" lon="4.90737">
        <ele>256</ele>
        <time>2020-09-22T12:59:42Z</time>
      </trkpt>
      <trkpt lat="46.52608" lon="4.90743">
        <ele>255</ele>
        <time>2020-09-22T12:59:43Z</time>
      </trkpt>
      <trkpt lat="46.52611" lon="4.90751">
        <ele>255</ele>
        <time>2020-09-22T12:59:44Z</time>
      </trkpt>
      <trkpt lat="46.52628" lon="4.9076">
        <ele>256</ele>
        <time>2020-09-22T12:59:48Z</time>
      </trkpt>
      <trkpt lat="46.52641" lon="4.90771">
        <ele>257</ele>
        <time>2020-09-22T12:59:52Z</time>
      </trkpt>
      <trkpt lat="46.52687" lon="4.90823">
        <ele>256</ele>
        <time>2020-09-22T13:00:06Z</time>
      </trkpt>
      <trkpt lat="46.52709" lon="4.90863">
        <ele>254</ele>
        <time>2020-09-22T13:00:14Z</time>
      </trkpt>
      <trkpt lat="46.52703" lon="4.90951">
        <ele>244</ele>
        <time>2020-09-22T13:00:28Z</time>
      </trkpt>
      <trkpt lat="46.52713" lon="4.90998">
        <ele>241</ele>
        <time>2020-09-22T13:00:36Z</time>
      </trkpt>
      <trkpt lat="46.52683" lon="4.91104">
        <ele>237</ele>
        <time>2020-09-22T13:00:54Z</time>
      </trkpt>
      <trkpt lat="46.52775" lon="4.91145">
        <ele>236</ele>
        <time>2020-09-22T13:01:17Z</time>
      </trkpt>
      <trkpt lat="46.52863" lon="4.91173">
        <ele>236</ele>
        <time>2020-09-22T13:01:38Z</time>
      </trkpt>
      <trkpt lat="46.52953" lon="4.91265">
        <ele>236</ele>
        <time>2020-09-22T13:02:03Z</time>
      </trkpt>
      <trkpt lat="46.52986" lon="4.91293">
        <ele>235</ele>
        <time>2020-09-22T13:02:12Z</time>
      </trkpt>
      <trkpt lat="46.53052" lon="4.91335">
        <ele>230</ele>
        <time>2020-09-22T13:02:29Z</time>
      </trkpt>
      <trkpt lat="46.53162" lon="4.91365">
        <ele>225</ele>
        <time>2020-09-22T13:02:55Z</time>
      </trkpt>
      <trkpt lat="46.5321" lon="4.91388">
        <ele>224</ele>
        <time>2020-09-22T13:03:07Z</time>
      </trkpt>
      <trkpt lat="46.53232" lon="4.91413">
        <ele>223</ele>
        <time>2020-09-22T13:03:14Z</time>
      </trkpt>
      <trkpt lat="46.53268" lon="4.91492">
        <ele>222</ele>
        <time>2020-09-22T13:03:29Z</time>
      </trkpt>
      <trkpt lat="46.5329" lon="4.91512">
        <ele>222</ele>
        <time>2020-09-22T13:03:35Z</time>
      </trkpt>
      <trkpt lat="46.5332" lon="4.91533">
        <ele>221</ele>
        <time>2020-09-22T13:03:43Z</time>
      </trkpt>
      <trkpt lat="46.53348" lon="4.91549">
        <ele>221</ele>
        <time>2020-09-22T13:03:50Z</time>
      </trkpt>
      <trkpt lat="46.53358" lon="4.91562">
        <ele>221</ele>
        <time>2020-09-22T13:03:53Z</time>
      </trkpt>
      <trkpt lat="46.5337" lon="4.91591">
        <ele>221</ele>
        <time>2020-09-22T13:03:58Z</time>
      </trkpt>
      <trkpt lat="46.53385" lon="4.91599">
        <ele>221</ele>
        <time>2020-09-22T13:04:02Z</time>
      </trkpt>
      <trkpt lat="46.53415" lon="4.91606">
        <ele>221</ele>
        <time>2020-09-22T13:04:09Z</time>
      </trkpt>
      <trkpt lat="46.53527" lon="4.91606">
        <ele>222</ele>
        <time>2020-09-22T13:04:35Z</time>
      </trkpt>
      <trkpt lat="46.53544" lon="4.91609">
        <ele>222</ele>
        <time>2020-09-22T13:04:39Z</time>
      </trkpt>
      <trkpt lat="46.53608" lon="4.91629">
        <ele>222</ele>
        <time>2020-09-22T13:04:55Z</time>
      </trkpt>
      <trkpt lat="46.53651" lon="4.91637">
        <ele>223</ele>
        <time>2020-09-22T13:05:05Z</time>
      </trkpt>
      <trkpt lat="46.53676" lon="4.91639">
        <ele>223</ele>
        <time>2020-09-22T13:05:11Z</time>
      </trkpt>
      <trkpt lat="46.53759" lon="4.91631">
        <ele>222</ele>
        <time>2020-09-22T13:05:30Z</time>
      </trkpt>
      <trkpt lat="46.53805" lon="4.91641">
        <ele>221</ele>
        <time>2020-09-22T13:05:41Z</time>
      </trkpt>
      <trkpt lat="46.53827" lon="4.91641">
        <ele>221</ele>
        <time>2020-09-22T13:05:46Z</time>
      </trkpt>
      <trkpt lat="46.53859" lon="4.91638">
        <ele>221</ele>
        <time>2020-09-22T13:05:54Z</time>
      </trkpt>
      <trkpt lat="46.53932" lon="4.91626">
        <ele>222</ele>
        <time>2020-09-22T13:06:11Z</time>
      </trkpt>
      <trkpt lat="46.53959" lon="4.91623">
        <ele>222</ele>
        <time>2020-09-22T13:06:17Z</time>
      </trkpt>
      <trkpt lat="46.53972" lon="4.91624">
        <ele>223</ele>
        <time>2020-09-22T13:06:20Z</time>
      </trkpt>
      <trkpt lat="46.54021" lon="4.91636">
        <ele>223</ele>
        <time>2020-09-22T13:06:32Z</time>
      </trkpt>
      <trkpt lat="46.54109" lon="4.91669">
        <ele>224</ele>
        <time>2020-09-22T13:06:53Z</time>
      </trkpt>
      <trkpt lat="46.5417" lon="4.91682">
        <ele>223</ele>
        <time>2020-09-22T13:07:07Z</time>
      </trkpt>
      <trkpt lat="46.54212" lon="4.91674">
        <ele>223</ele>
        <time>2020-09-22T13:07:17Z</time>
      </trkpt>
      <trkpt lat="46.54277" lon="4.91671">
        <ele>223</ele>
        <time>2020-09-22T13:07:32Z</time>
      </trkpt>
      <trkpt lat="46.54326" lon="4.91657">
        <ele>222</ele>
        <time>2020-09-22T13:07:44Z</time>
      </trkpt>
      <trkpt lat="46.54387" lon="4.91651">
        <ele>221</ele>
        <time>2020-09-22T13:07:58Z</time>
      </trkpt>
      <trkpt lat="46.54396" lon="4.91647">
        <ele>220</ele>
        <time>2020-09-22T13:08:00Z</time>
      </trkpt>
      <trkpt lat="46.54405" lon="4.91639">
        <ele>220</ele>
        <time>2020-09-22T13:08:03Z</time>
      </trkpt>
      <trkpt lat="46.54412" lon="4.91624">
        <ele>220</ele>
        <time>2020-09-22T13:08:06Z</time>
      </trkpt>
      <trkpt lat="46.54413" lon="4.91553">
        <ele>221</ele>
        <time>2020-09-22T13:08:17Z</time>
      </trkpt>
      <trkpt lat="46.54425" lon="4.9147">
        <ele>220</ele>
        <time>2020-09-22T13:08:31Z</time>
      </trkpt>
      <trkpt lat="46.5444" lon="4.91411">
        <ele>220</ele>
        <time>2020-09-22T13:08:41Z</time>
      </trkpt>
      <trkpt lat="46.54456" lon="4.91371">
        <ele>221</ele>
        <time>2020-09-22T13:08:48Z</time>
      </trkpt>
      <trkpt lat="46.54472" lon="4.91316">
        <ele>220</ele>
        <time>2020-09-22T13:08:58Z</time>
      </trkpt>
      <trkpt lat="46.5448" lon="4.91303">
        <ele>219</ele>
        <time>2020-09-22T13:09:01Z</time>
      </trkpt>
      <trkpt lat="46.5449" lon="4.91294">
        <ele>218</ele>
        <time>2020-09-22T13:09:04Z</time>
      </trkpt>
      <trkpt lat="46.54502" lon="4.91292">
        <ele>217</ele>
        <time>2020-09-22T13:09:06Z</time>
      </trkpt>
      <trkpt lat="46.54538" lon="4.91293">
        <ele>215</ele>
        <time>2020-09-22T13:09:15Z</time>
      </trkpt>
      <trkpt lat="46.54586" lon="4.91298">
        <ele>211</ele>
        <time>2020-09-22T13:09:26Z</time>
      </trkpt>
      <trkpt lat="46.54593" lon="4.91293">
        <ele>211</ele>
        <time>2020-09-22T13:09:28Z</time>
      </trkpt>
      <trkpt lat="46.54602" lon="4.91275">
        <ele>211</ele>
        <time>2020-09-22T13:09:31Z</time>
      </trkpt>
      <trkpt lat="46.54602" lon="4.91186">
        <ele>210</ele>
        <time>2020-09-22T13:09:46Z</time>
      </trkpt>
      <trkpt lat="46.54623" lon="4.91136">
        <ele>208</ele>
        <time>2020-09-22T13:09:55Z</time>
      </trkpt>
      <trkpt lat="46.54643" lon="4.911">
        <ele>208</ele>
        <time>2020-09-22T13:10:03Z</time>
      </trkpt>
      <trkpt lat="46.54648" lon="4.91087">
        <ele>207</ele>
        <time>2020-09-22T13:10:05Z</time>
      </trkpt>
      <trkpt lat="46.54649" lon="4.91072">
        <ele>207</ele>
        <time>2020-09-22T13:10:07Z</time>
      </trkpt>
      <trkpt lat="46.54663" lon="4.91078">
        <ele>207</ele>
        <time>2020-09-22T13:10:11Z</time>
      </trkpt>
      <trkpt lat="46.54685" lon="4.91096">
        <ele>206</ele>
        <time>2020-09-22T13:10:17Z</time>
      </trkpt>
      <trkpt lat="46.547" lon="4.91106">
        <ele>205</ele>
        <time>2020-09-22T13:10:21Z</time>
      </trkpt>
      <trkpt lat="46.54709" lon="4.91109">
        <ele>205</ele>
        <time>2020-09-22T13:10:23Z</time>
      </trkpt>
      <trkpt lat="46.5472" lon="4.9111">
        <ele>204</ele>
        <time>2020-09-22T13:10:25Z</time>
      </trkpt>
      <trkpt lat="46.54793" lon="4.91098">
        <ele>199</ele>
        <time>2020-09-22T13:10:42Z</time>
      </trkpt>
      <trkpt lat="46.54811" lon="4.91097">
        <ele>197</ele>
        <time>2020-09-22T13:10:47Z</time>
      </trkpt>
      <trkpt lat="46.54825" lon="4.911">
        <ele>196</ele>
        <time>2020-09-22T13:10:50Z</time>
      </trkpt>
      <trkpt lat="46.54835" lon="4.91105">
        <ele>196</ele>
        <time>2020-09-22T13:10:52Z</time>
      </trkpt>
      <trkpt lat="46.54864" lon="4.91128">
        <ele>196</ele>
        <time>2020-09-22T13:11:00Z</time>
      </trkpt>
      <trkpt lat="46.54929" lon="4.91224">
        <ele>198</ele>
        <time>2020-09-22T13:11:22Z</time>
      </trkpt>
      <trkpt lat="46.54946" lon="4.91255">
        <ele>197</ele>
        <time>2020-09-22T13:11:28Z</time>
      </trkpt>
      <trkpt lat="46.54977" lon="4.9134">
        <ele>198</ele>
        <time>2020-09-22T13:11:44Z</time>
      </trkpt>
      <trkpt lat="46.5499" lon="4.91389">
        <ele>198</ele>
        <time>2020-09-22T13:11:52Z</time>
      </trkpt>
      <trkpt lat="46.55008" lon="4.91427">
        <ele>197</ele>
        <time>2020-09-22T13:11:59Z</time>
      </trkpt>
      <trkpt lat="46.55041" lon="4.91466">
        <ele>194</ele>
        <time>2020-09-22T13:12:09Z</time>
      </trkpt>
      <trkpt lat="46.55103" lon="4.9153">
        <ele>192</ele>
        <time>2020-09-22T13:12:27Z</time>
      </trkpt>
      <trkpt lat="46.55139" lon="4.91557">
        <ele>190</ele>
        <time>2020-09-22T13:12:37Z</time>
      </trkpt>
      <trkpt lat="46.55154" lon="4.91544">
        <ele>188</ele>
        <time>2020-09-22T13:12:41Z</time>
      </trkpt>
      <trkpt lat="46.55172" lon="4.91541">
        <ele>187</ele>
        <time>2020-09-22T13:12:45Z</time>
      </trkpt>
      <trkpt lat="46.5527" lon="4.91618">
        <ele>181</ele>
        <time>2020-09-22T13:13:11Z</time>
      </trkpt>
      <trkpt lat="46.55295" lon="4.91629">
        <ele>179</ele>
        <time>2020-09-22T13:13:17Z</time>
      </trkpt>
      <trkpt lat="46.55318" lon="4.91634">
        <ele>178</ele>
        <time>2020-09-22T13:13:22Z</time>
      </trkpt>
      <trkpt lat="46.55355" lon="4.91627">
        <ele>176</ele>
        <time>2020-09-22T13:13:31Z</time>
      </trkpt>
      <trkpt lat="46.55377" lon="4.91619">
        <ele>176</ele>
        <time>2020-09-22T13:13:36Z</time>
      </trkpt>
      <trkpt lat="46.55384" lon="4.91619">
        <ele>176</ele>
        <time>2020-09-22T13:13:38Z</time>
      </trkpt>
      <trkpt lat="46.55391" lon="4.91625">
        <ele>176</ele>
        <time>2020-09-22T13:13:40Z</time>
      </trkpt>
      <trkpt lat="46.55411" lon="4.91613">
        <ele>175</ele>
        <time>2020-09-22T13:13:45Z</time>
      </trkpt>
      <trkpt lat="46.5543" lon="4.91605">
        <ele>175</ele>
        <time>2020-09-22T13:13:50Z</time>
      </trkpt>
      <trkpt lat="46.55464" lon="4.91593">
        <ele>174</ele>
        <time>2020-09-22T13:13:58Z</time>
      </trkpt>
      <trkpt lat="46.55489" lon="4.91587">
        <ele>174</ele>
        <time>2020-09-22T13:14:04Z</time>
      </trkpt>
      <trkpt lat="46.55523" lon="4.91585">
        <ele>175</ele>
        <time>2020-09-22T13:14:12Z</time>
      </trkpt>
      <trkpt lat="46.55537" lon="4.91591">
        <ele>175</ele>
        <time>2020-09-22T13:14:15Z</time>
      </trkpt>
      <trkpt lat="46.5559" lon="4.91761">
        <ele>174</ele>
        <time>2020-09-22T13:14:45Z</time>
      </trkpt>
      <trkpt lat="46.55673" lon="4.91741">
        <ele>174</ele>
        <time>2020-09-22T13:15:05Z</time>
      </trkpt>
      <trkpt lat="46.55731" lon="4.91718">
        <ele>171</ele>
        <time>2020-09-22T13:15:19Z</time>
      </trkpt>
      <trkpt lat="46.55925" lon="4.91602">
        <ele>175</ele>
        <time>2020-09-22T13:16:08Z</time>
      </trkpt>
      <trkpt lat="46.56017" lon="4.91537">
        <ele>174</ele>
        <time>2020-09-22T13:16:32Z</time>
      </trkpt>
      <trkpt lat="46.56164" lon="4.91384">
        <ele>178</ele>
        <time>2020-09-22T13:17:14Z</time>
      </trkpt>
      <trkpt lat="46.56299" lon="4.91273">
        <ele>179</ele>
        <time>2020-09-22T13:17:50Z</time>
      </trkpt>
      <trkpt lat="46.56332" lon="4.91249">
        <ele>179</ele>
        <time>2020-09-22T13:17:59Z</time>
      </trkpt>
      <trkpt lat="46.56389" lon="4.91216">
        <ele>178</ele>
        <time>2020-09-22T13:18:13Z</time>
      </trkpt>
      <trkpt lat="46.5644" lon="4.91191">
        <ele>178</ele>
        <time>2020-09-22T13:18:26Z</time>
      </trkpt>
      <trkpt lat="46.56469" lon="4.91181">
        <ele>178</ele>
        <time>2020-09-22T13:18:32Z</time>
      </trkpt>
      <trkpt lat="46.56544" lon="4.91139">
        <ele>177</ele>
        <time>2020-09-22T13:18:51Z</time>
      </trkpt>
      <trkpt lat="46.56576" lon="4.91125">
        <ele>176</ele>
        <time>2020-09-22T13:18:59Z</time>
      </trkpt>
      <trkpt lat="46.56625" lon="4.91111">
        <ele>176</ele>
        <time>2020-09-22T13:19:11Z</time>
      </trkpt>
      <trkpt lat="46.5664" lon="4.9111">
        <ele>175</ele>
        <time>2020-09-22T13:19:14Z</time>
      </trkpt>
      <trkpt lat="46.56655" lon="4.91105">
        <ele>175</ele>
        <time>2020-09-22T13:19:18Z</time>
      </trkpt>
      <trkpt lat="46.56687" lon="4.91087">
        <ele>175</ele>
        <time>2020-09-22T13:19:26Z</time>
      </trkpt>
      <trkpt lat="46.56693" lon="4.91104">
        <ele>174</ele>
        <time>2020-09-22T13:19:29Z</time>
      </trkpt>
      <trkpt lat="46.56698" lon="4.91107">
        <ele>173</ele>
        <time>2020-09-22T13:19:30Z</time>
      </trkpt>
      <trkpt lat="46.56791" lon="4.91122">
        <ele>173</ele>
        <time>2020-09-22T13:19:52Z</time>
      </trkpt>
      <trkpt lat="46.57057" lon="4.91205">
        <ele>173</ele>
        <time>2020-09-22T13:20:56Z</time>
      </trkpt>
    </trkseg>
  </trk>
  <trk>
    <name><![CDATA[9 SUR_LES_HAUTEURS_DE_CLUNY - Rouge]]></name>
    <extensions>
      <line xmlns="http://www.topografix.com/GPX/gpx_style/0/2">
        <color>8a2200</color>
        <width>4</width>
      </line>
    </extensions>
    <trkseg>
      <trkpt lat="46.43156" lon="4.66748">
        <ele>236</ele>
        <time>2020-09-22T10:11:34Z</time>
      </trkpt>
      <trkpt lat="46.4308" lon="4.66753">
        <ele>237</ele>
        <time>2020-09-22T10:11:52Z</time>
      </trkpt>
      <trkpt lat="46.43056" lon="4.66758">
        <ele>238</ele>
        <time>2020-09-22T10:11:57Z</time>
      </trkpt>
      <trkpt lat="46.43023" lon="4.66772">
        <ele>239</ele>
        <time>2020-09-22T10:12:05Z</time>
      </trkpt>
      <trkpt lat="46.43011" lon="4.66774">
        <ele>239</ele>
        <time>2020-09-22T10:12:08Z</time>
      </trkpt>
      <trkpt lat="46.42994" lon="4.66773">
        <ele>240</ele>
        <time>2020-09-22T10:12:12Z</time>
      </trkpt>
      <trkpt lat="46.42951" lon="4.66763">
        <ele>241</ele>
        <time>2020-09-22T10:12:22Z</time>
      </trkpt>
      <trkpt lat="46.4276" lon="4.66677">
        <ele>243</ele>
        <time>2020-09-22T10:13:09Z</time>
      </trkpt>
      <trkpt lat="46.42684" lon="4.6663">
        <ele>243</ele>
        <time>2020-09-22T10:13:28Z</time>
      </trkpt>
      <trkpt lat="46.42651" lon="4.66614">
        <ele>243</ele>
        <time>2020-09-22T10:13:37Z</time>
      </trkpt>
      <trkpt lat="46.42628" lon="4.66608">
        <ele>243</ele>
        <time>2020-09-22T10:13:42Z</time>
      </trkpt>
      <trkpt lat="46.42611" lon="4.66611">
        <ele>244</ele>
        <time>2020-09-22T10:13:46Z</time>
      </trkpt>
      <trkpt lat="46.4258" lon="4.66627">
        <ele>245</ele>
        <time>2020-09-22T10:13:54Z</time>
      </trkpt>
      <trkpt lat="46.42565" lon="4.66624">
        <ele>245</ele>
        <time>2020-09-22T10:13:57Z</time>
      </trkpt>
      <trkpt lat="46.42569" lon="4.66635">
        <ele>245</ele>
        <time>2020-09-22T10:13:59Z</time>
      </trkpt>
      <trkpt lat="46.42574" lon="4.6664">
        <ele>245</ele>
        <time>2020-09-22T10:14:01Z</time>
      </trkpt>
      <trkpt lat="46.42635" lon="4.66668">
        <ele>245</ele>
        <time>2020-09-22T10:14:16Z</time>
      </trkpt>
      <trkpt lat="46.42641" lon="4.6668">
        <ele>246</ele>
        <time>2020-09-22T10:14:18Z</time>
      </trkpt>
      <trkpt lat="46.42641" lon="4.66696">
        <ele>246</ele>
        <time>2020-09-22T10:14:21Z</time>
      </trkpt>
      <trkpt lat="46.42555" lon="4.66646">
        <ele>245</ele>
        <time>2020-09-22T10:14:42Z</time>
      </trkpt>
      <trkpt lat="46.42387" lon="4.66561">
        <ele>247</ele>
        <time>2020-09-22T10:15:24Z</time>
      </trkpt>
      <trkpt lat="46.42385" lon="4.66563">
        <ele>247</ele>
        <time>2020-09-22T10:15:24Z</time>
      </trkpt>
      <trkpt lat="46.4237" lon="4.66624">
        <ele>249</ele>
        <time>2020-09-22T10:15:35Z</time>
      </trkpt>
      <trkpt lat="46.42366" lon="4.66629">
        <ele>249</ele>
        <time>2020-09-22T10:15:36Z</time>
      </trkpt>
      <trkpt lat="46.42419" lon="4.66657">
        <ele>248</ele>
        <time>2020-09-22T10:15:49Z</time>
      </trkpt>
      <trkpt lat="46.42437" lon="4.66664">
        <ele>247</ele>
        <time>2020-09-22T10:15:53Z</time>
      </trkpt>
      <trkpt lat="46.42596" lon="4.66705">
        <ele>246</ele>
        <time>2020-09-22T10:16:31Z</time>
      </trkpt>
      <trkpt lat="46.42612" lon="4.66712">
        <ele>246</ele>
        <time>2020-09-22T10:16:35Z</time>
      </trkpt>
      <trkpt lat="46.42631" lon="4.66729">
        <ele>247</ele>
        <time>2020-09-22T10:16:40Z</time>
      </trkpt>
      <trkpt lat="46.42627" lon="4.66759">
        <ele>247</ele>
        <time>2020-09-22T10:16:45Z</time>
      </trkpt>
      <trkpt lat="46.42629" lon="4.6679">
        <ele>248</ele>
        <time>2020-09-22T10:16:50Z</time>
      </trkpt>
      <trkpt lat="46.42584" lon="4.66854">
        <ele>247</ele>
        <time>2020-09-22T10:17:05Z</time>
      </trkpt>
      <trkpt lat="46.42568" lon="4.66889">
        <ele>247</ele>
        <time>2020-09-22T10:17:12Z</time>
      </trkpt>
      <trkpt lat="46.42559" lon="4.6693">
        <ele>248</ele>
        <time>2020-09-22T10:17:19Z</time>
      </trkpt>
      <trkpt lat="46.42548" lon="4.67028">
        <ele>252</ele>
        <time>2020-09-22T10:17:35Z</time>
      </trkpt>
      <trkpt lat="46.42525" lon="4.67014">
        <ele>252</ele>
        <time>2020-09-22T10:17:40Z</time>
      </trkpt>
      <trkpt lat="46.42415" lon="4.66934">
        <ele>256</ele>
        <time>2020-09-22T10:18:09Z</time>
      </trkpt>
      <trkpt lat="46.42394" lon="4.66922">
        <ele>257</ele>
        <time>2020-09-22T10:18:14Z</time>
      </trkpt>
      <trkpt lat="46.42387" lon="4.66934">
        <ele>258</ele>
        <time>2020-09-22T10:18:17Z</time>
      </trkpt>
      <trkpt lat="46.42374" lon="4.66948">
        <ele>259</ele>
        <time>2020-09-22T10:18:21Z</time>
      </trkpt>
      <trkpt lat="46.42349" lon="4.66992">
        <ele>260</ele>
        <time>2020-09-22T10:18:30Z</time>
      </trkpt>
      <trkpt lat="46.42328" lon="4.67049">
        <ele>263</ele>
        <time>2020-09-22T10:18:40Z</time>
      </trkpt>
      <trkpt lat="46.42308" lon="4.67087">
        <ele>266</ele>
        <time>2020-09-22T10:18:48Z</time>
      </trkpt>
      <trkpt lat="46.42245" lon="4.67168">
        <ele>270</ele>
        <time>2020-09-22T10:19:08Z</time>
      </trkpt>
      <trkpt lat="46.42226" lon="4.67201">
        <ele>272</ele>
        <time>2020-09-22T10:19:15Z</time>
      </trkpt>
      <trkpt lat="46.42187" lon="4.67256">
        <ele>275</ele>
        <time>2020-09-22T10:19:27Z</time>
      </trkpt>
      <trkpt lat="46.42148" lon="4.67298">
        <ele>277</ele>
        <time>2020-09-22T10:19:39Z</time>
      </trkpt>
      <trkpt lat="46.42136" lon="4.67316">
        <ele>278</ele>
        <time>2020-09-22T10:19:43Z</time>
      </trkpt>
      <trkpt lat="46.42122" lon="4.67368">
        <ele>279</ele>
        <time>2020-09-22T10:19:52Z</time>
      </trkpt>
      <trkpt lat="46.42068" lon="4.67468">
        <ele>289</ele>
        <time>2020-09-22T10:20:12Z</time>
      </trkpt>
      <trkpt lat="46.41973" lon="4.67663">
        <ele>315</ele>
        <time>2020-09-22T10:20:51Z</time>
      </trkpt>
      <trkpt lat="46.41952" lon="4.677">
        <ele>321</ele>
        <time>2020-09-22T10:20:58Z</time>
      </trkpt>
      <trkpt lat="46.41905" lon="4.67756">
        <ele>329</ele>
        <time>2020-09-22T10:21:13Z</time>
      </trkpt>
      <trkpt lat="46.41896" lon="4.6777">
        <ele>330</ele>
        <time>2020-09-22T10:21:16Z</time>
      </trkpt>
      <trkpt lat="46.41858" lon="4.67856">
        <ele>335</ele>
        <time>2020-09-22T10:21:32Z</time>
      </trkpt>
      <trkpt lat="46.41833" lon="4.67957">
        <ele>341</ele>
        <time>2020-09-22T10:21:49Z</time>
      </trkpt>
      <trkpt lat="46.41823" lon="4.68048">
        <ele>346</ele>
        <time>2020-09-22T10:22:04Z</time>
      </trkpt>
      <trkpt lat="46.41798" lon="4.6812">
        <ele>346</ele>
        <time>2020-09-22T10:22:17Z</time>
      </trkpt>
      <trkpt lat="46.41784" lon="4.68172">
        <ele>348</ele>
        <time>2020-09-22T10:22:26Z</time>
      </trkpt>
      <trkpt lat="46.41776" lon="4.6819">
        <ele>350</ele>
        <time>2020-09-22T10:22:30Z</time>
      </trkpt>
      <trkpt lat="46.41724" lon="4.68255">
        <ele>352</ele>
        <time>2020-09-22T10:22:46Z</time>
      </trkpt>
      <trkpt lat="46.41706" lon="4.68271">
        <ele>351</ele>
        <time>2020-09-22T10:22:51Z</time>
      </trkpt>
      <trkpt lat="46.41682" lon="4.68285">
        <ele>351</ele>
        <time>2020-09-22T10:22:57Z</time>
      </trkpt>
      <trkpt lat="46.41659" lon="4.6831">
        <ele>353</ele>
        <time>2020-09-22T10:23:03Z</time>
      </trkpt>
      <trkpt lat="46.41629" lon="4.68348">
        <ele>356</ele>
        <time>2020-09-22T10:23:13Z</time>
      </trkpt>
      <trkpt lat="46.41591" lon="4.68405">
        <ele>364</ele>
        <time>2020-09-22T10:23:25Z</time>
      </trkpt>
      <trkpt lat="46.41564" lon="4.68433">
        <ele>368</ele>
        <time>2020-09-22T10:23:33Z</time>
      </trkpt>
      <trkpt lat="46.41505" lon="4.68515">
        <ele>375</ele>
        <time>2020-09-22T10:23:52Z</time>
      </trkpt>
      <trkpt lat="46.41483" lon="4.68559">
        <ele>379</ele>
        <time>2020-09-22T10:24:01Z</time>
      </trkpt>
      <trkpt lat="46.4143" lon="4.68638">
        <ele>383</ele>
        <time>2020-09-22T10:24:19Z</time>
      </trkpt>
      <trkpt lat="46.41421" lon="4.68656">
        <ele>384</ele>
        <time>2020-09-22T10:24:22Z</time>
      </trkpt>
      <trkpt lat="46.41399" lon="4.68686">
        <ele>388</ele>
        <time>2020-09-22T10:24:29Z</time>
      </trkpt>
      <trkpt lat="46.41391" lon="4.68704">
        <ele>390</ele>
        <time>2020-09-22T10:24:33Z</time>
      </trkpt>
      <trkpt lat="46.41377" lon="4.68767">
        <ele>395</ele>
        <time>2020-09-22T10:24:43Z</time>
      </trkpt>
      <trkpt lat="46.41363" lon="4.68769">
        <ele>395</ele>
        <time>2020-09-22T10:24:47Z</time>
      </trkpt>
      <trkpt lat="46.41354" lon="4.68766">
        <ele>395</ele>
        <time>2020-09-22T10:24:49Z</time>
      </trkpt>
      <trkpt lat="46.41332" lon="4.68765">
        <ele>395</ele>
        <time>2020-09-22T10:24:54Z</time>
      </trkpt>
      <trkpt lat="46.41312" lon="4.68774">
        <ele>399</ele>
        <time>2020-09-22T10:24:59Z</time>
      </trkpt>
      <trkpt lat="46.41302" lon="4.68784">
        <ele>401</ele>
        <time>2020-09-22T10:25:02Z</time>
      </trkpt>
      <trkpt lat="46.41272" lon="4.68835">
        <ele>408</ele>
        <time>2020-09-22T10:25:13Z</time>
      </trkpt>
      <trkpt lat="46.41252" lon="4.68891">
        <ele>416</ele>
        <time>2020-09-22T10:25:23Z</time>
      </trkpt>
      <trkpt lat="46.41222" lon="4.68998">
        <ele>435</ele>
        <time>2020-09-22T10:25:41Z</time>
      </trkpt>
      <trkpt lat="46.41215" lon="4.69031">
        <ele>439</ele>
        <time>2020-09-22T10:25:47Z</time>
      </trkpt>
      <trkpt lat="46.41206" lon="4.69096">
        <ele>446</ele>
        <time>2020-09-22T10:25:57Z</time>
      </trkpt>
      <trkpt lat="46.4118" lon="4.6915">
        <ele>447</ele>
        <time>2020-09-22T10:26:08Z</time>
      </trkpt>
      <trkpt lat="46.41193" lon="4.69169">
        <ele>450</ele>
        <time>2020-09-22T10:26:12Z</time>
      </trkpt>
      <trkpt lat="46.41219" lon="4.69196">
        <ele>455</ele>
        <time>2020-09-22T10:26:20Z</time>
      </trkpt>
      <trkpt lat="46.41248" lon="4.69243">
        <ele>460</ele>
        <time>2020-09-22T10:26:30Z</time>
      </trkpt>
      <trkpt lat="46.41257" lon="4.69267">
        <ele>460</ele>
        <time>2020-09-22T10:26:34Z</time>
      </trkpt>
      <trkpt lat="46.41258" lon="4.69278">
        <ele>460</ele>
        <time>2020-09-22T10:26:36Z</time>
      </trkpt>
      <trkpt lat="46.41257" lon="4.69291">
        <ele>460</ele>
        <time>2020-09-22T10:26:38Z</time>
      </trkpt>
      <trkpt lat="46.41249" lon="4.69306">
        <ele>461</ele>
        <time>2020-09-22T10:26:41Z</time>
      </trkpt>
      <trkpt lat="46.41229" lon="4.6934">
        <ele>463</ele>
        <time>2020-09-22T10:26:49Z</time>
      </trkpt>
      <trkpt lat="46.41217" lon="4.69353">
        <ele>465</ele>
        <time>2020-09-22T10:26:52Z</time>
      </trkpt>
      <trkpt lat="46.41208" lon="4.69358">
        <ele>466</ele>
        <time>2020-09-22T10:26:54Z</time>
      </trkpt>
      <trkpt lat="46.41109" lon="4.69393">
        <ele>480</ele>
        <time>2020-09-22T10:27:18Z</time>
      </trkpt>
      <trkpt lat="46.41032" lon="4.69409">
        <ele>487</ele>
        <time>2020-09-22T10:27:36Z</time>
      </trkpt>
      <trkpt lat="46.4099" lon="4.6941">
        <ele>489</ele>
        <time>2020-09-22T10:27:46Z</time>
      </trkpt>
      <trkpt lat="46.40972" lon="4.69413">
        <ele>490</ele>
        <time>2020-09-22T10:27:50Z</time>
      </trkpt>
      <trkpt lat="46.40929" lon="4.69434">
        <ele>495</ele>
        <time>2020-09-22T10:28:01Z</time>
      </trkpt>
      <trkpt lat="46.40879" lon="4.69464">
        <ele>503</ele>
        <time>2020-09-22T10:28:14Z</time>
      </trkpt>
      <trkpt lat="46.40892" lon="4.69473">
        <ele>504</ele>
        <time>2020-09-22T10:28:17Z</time>
      </trkpt>
      <trkpt lat="46.40919" lon="4.69499">
        <ele>508</ele>
        <time>2020-09-22T10:28:24Z</time>
      </trkpt>
      <trkpt lat="46.40949" lon="4.69544">
        <ele>509</ele>
        <time>2020-09-22T10:28:35Z</time>
      </trkpt>
      <trkpt lat="46.40961" lon="4.69568">
        <ele>510</ele>
        <time>2020-09-22T10:28:39Z</time>
      </trkpt>
      <trkpt lat="46.40967" lon="4.69589">
        <ele>510</ele>
        <time>2020-09-22T10:28:43Z</time>
      </trkpt>
      <trkpt lat="46.40973" lon="4.69649">
        <ele>511</ele>
        <time>2020-09-22T10:28:53Z</time>
      </trkpt>
      <trkpt lat="46.4098" lon="4.69682">
        <ele>509</ele>
        <time>2020-09-22T10:28:58Z</time>
      </trkpt>
      <trkpt lat="46.40994" lon="4.697">
        <ele>505</ele>
        <time>2020-09-22T10:29:03Z</time>
      </trkpt>
      <trkpt lat="46.41008" lon="4.6971">
        <ele>504</ele>
        <time>2020-09-22T10:29:06Z</time>
      </trkpt>
      <trkpt lat="46.41049" lon="4.69732">
        <ele>505</ele>
        <time>2020-09-22T10:29:17Z</time>
      </trkpt>
      <trkpt lat="46.41067" lon="4.69738">
        <ele>505</ele>
        <time>2020-09-22T10:29:21Z</time>
      </trkpt>
      <trkpt lat="46.41082" lon="4.69752">
        <ele>506</ele>
        <time>2020-09-22T10:29:25Z</time>
      </trkpt>
      <trkpt lat="46.41126" lon="4.69773">
        <ele>508</ele>
        <time>2020-09-22T10:29:36Z</time>
      </trkpt>
      <trkpt lat="46.41173" lon="4.69805">
        <ele>512</ele>
        <time>2020-09-22T10:29:48Z</time>
      </trkpt>
      <trkpt lat="46.4122" lon="4.69832">
        <ele>515</ele>
        <time>2020-09-22T10:30:00Z</time>
      </trkpt>
      <trkpt lat="46.41257" lon="4.6986">
        <ele>517</ele>
        <time>2020-09-22T10:30:10Z</time>
      </trkpt>
      <trkpt lat="46.41347" lon="4.69911">
        <ele>523</ele>
        <time>2020-09-22T10:30:32Z</time>
      </trkpt>
      <trkpt lat="46.41368" lon="4.69918">
        <ele>523</ele>
        <time>2020-09-22T10:30:37Z</time>
      </trkpt>
      <trkpt lat="46.41388" lon="4.69921">
        <ele>524</ele>
        <time>2020-09-22T10:30:42Z</time>
      </trkpt>
      <trkpt lat="46.41459" lon="4.69917">
        <ele>529</ele>
        <time>2020-09-22T10:30:58Z</time>
      </trkpt>
      <trkpt lat="46.41498" lon="4.69941">
        <ele>532</ele>
        <time>2020-09-22T10:31:08Z</time>
      </trkpt>
      <trkpt lat="46.41515" lon="4.69942">
        <ele>535</ele>
        <time>2020-09-22T10:31:12Z</time>
      </trkpt>
      <trkpt lat="46.41553" lon="4.69967">
        <ele>541</ele>
        <time>2020-09-22T10:31:22Z</time>
      </trkpt>
      <trkpt lat="46.41595" lon="4.69984">
        <ele>548</ele>
        <time>2020-09-22T10:31:32Z</time>
      </trkpt>
      <trkpt lat="46.41637" lon="4.70014">
        <ele>550</ele>
        <time>2020-09-22T10:31:43Z</time>
      </trkpt>
      <trkpt lat="46.41657" lon="4.70007">
        <ele>551</ele>
        <time>2020-09-22T10:31:48Z</time>
      </trkpt>
      <trkpt lat="46.41713" lon="4.70049">
        <ele>543</ele>
        <time>2020-09-22T10:32:03Z</time>
      </trkpt>
      <trkpt lat="46.41735" lon="4.70075">
        <ele>537</ele>
        <time>2020-09-22T10:32:09Z</time>
      </trkpt>
      <trkpt lat="46.41745" lon="4.7008">
        <ele>535</ele>
        <time>2020-09-22T10:32:12Z</time>
      </trkpt>
      <trkpt lat="46.41758" lon="4.70101">
        <ele>531</ele>
        <time>2020-09-22T10:32:16Z</time>
      </trkpt>
      <trkpt lat="46.4178" lon="4.70119">
        <ele>527</ele>
        <time>2020-09-22T10:32:22Z</time>
      </trkpt>
      <trkpt lat="46.41817" lon="4.70157">
        <ele>518</ele>
        <time>2020-09-22T10:32:33Z</time>
      </trkpt>
      <trkpt lat="46.41824" lon="4.70159">
        <ele>517</ele>
        <time>2020-09-22T10:32:34Z</time>
      </trkpt>
      <trkpt lat="46.41841" lon="4.70149">
        <ele>517</ele>
        <time>2020-09-22T10:32:39Z</time>
      </trkpt>
      <trkpt lat="46.41854" lon="4.70135">
        <ele>519</ele>
        <time>2020-09-22T10:32:43Z</time>
      </trkpt>
      <trkpt lat="46.41877" lon="4.70122">
        <ele>519</ele>
        <time>2020-09-22T10:32:48Z</time>
      </trkpt>
      <trkpt lat="46.4191" lon="4.70113">
        <ele>518</ele>
        <time>2020-09-22T10:32:56Z</time>
      </trkpt>
      <trkpt lat="46.41928" lon="4.70113">
        <ele>516</ele>
        <time>2020-09-22T10:33:00Z</time>
      </trkpt>
      <trkpt lat="46.41976" lon="4.70121">
        <ele>511</ele>
        <time>2020-09-22T10:33:12Z</time>
      </trkpt>
      <trkpt lat="46.41989" lon="4.70128">
        <ele>509</ele>
        <time>2020-09-22T10:33:15Z</time>
      </trkpt>
      <trkpt lat="46.41993" lon="4.70133">
        <ele>509</ele>
        <time>2020-09-22T10:33:16Z</time>
      </trkpt>
      <trkpt lat="46.42089" lon="4.70115">
        <ele>510</ele>
        <time>2020-09-22T10:33:39Z</time>
      </trkpt>
      <trkpt lat="46.42191" lon="4.70009">
        <ele>516</ele>
        <time>2020-09-22T10:34:08Z</time>
      </trkpt>
      <trkpt lat="46.42209" lon="4.69998">
        <ele>517</ele>
        <time>2020-09-22T10:34:13Z</time>
      </trkpt>
      <trkpt lat="46.4223" lon="4.69992">
        <ele>518</ele>
        <time>2020-09-22T10:34:18Z</time>
      </trkpt>
      <trkpt lat="46.42308" lon="4.69998">
        <ele>518</ele>
        <time>2020-09-22T10:34:36Z</time>
      </trkpt>
      <trkpt lat="46.42362" lon="4.69984">
        <ele>515</ele>
        <time>2020-09-22T10:34:49Z</time>
      </trkpt>
      <trkpt lat="46.42386" lon="4.69972">
        <ele>512</ele>
        <time>2020-09-22T10:34:55Z</time>
      </trkpt>
      <trkpt lat="46.42414" lon="4.69962">
        <ele>511</ele>
        <time>2020-09-22T10:35:01Z</time>
      </trkpt>
      <trkpt lat="46.4245" lon="4.69958">
        <ele>509</ele>
        <time>2020-09-22T10:35:10Z</time>
      </trkpt>
      <trkpt lat="46.42485" lon="4.69959">
        <ele>508</ele>
        <time>2020-09-22T10:35:18Z</time>
      </trkpt>
      <trkpt lat="46.42502" lon="4.69961">
        <ele>508</ele>
        <time>2020-09-22T10:35:22Z</time>
      </trkpt>
      <trkpt lat="46.42542" lon="4.69971">
        <ele>508</ele>
        <time>2020-09-22T10:35:31Z</time>
      </trkpt>
      <trkpt lat="46.42583" lon="4.69985">
        <ele>507</ele>
        <time>2020-09-22T10:35:41Z</time>
      </trkpt>
      <trkpt lat="46.42621" lon="4.70009">
        <ele>507</ele>
        <time>2020-09-22T10:35:51Z</time>
      </trkpt>
      <trkpt lat="46.42637" lon="4.70023">
        <ele>507</ele>
        <time>2020-09-22T10:35:55Z</time>
      </trkpt>
      <trkpt lat="46.42651" lon="4.7004">
        <ele>507</ele>
        <time>2020-09-22T10:35:59Z</time>
      </trkpt>
      <trkpt lat="46.42693" lon="4.70123">
        <ele>508</ele>
        <time>2020-09-22T10:36:16Z</time>
      </trkpt>
      <trkpt lat="46.42742" lon="4.70199">
        <ele>509</ele>
        <time>2020-09-22T10:36:33Z</time>
      </trkpt>
      <trkpt lat="46.42759" lon="4.70217">
        <ele>510</ele>
        <time>2020-09-22T10:36:38Z</time>
      </trkpt>
      <trkpt lat="46.42805" lon="4.70257">
        <ele>508</ele>
        <time>2020-09-22T10:36:50Z</time>
      </trkpt>
      <trkpt lat="46.42829" lon="4.70274">
        <ele>506</ele>
        <time>2020-09-22T10:36:56Z</time>
      </trkpt>
      <trkpt lat="46.42913" lon="4.70355">
        <ele>508</ele>
        <time>2020-09-22T10:37:20Z</time>
      </trkpt>
      <trkpt lat="46.42937" lon="4.70387">
        <ele>507</ele>
        <time>2020-09-22T10:37:28Z</time>
      </trkpt>
      <trkpt lat="46.42947" lon="4.70411">
        <ele>507</ele>
        <time>2020-09-22T10:37:32Z</time>
      </trkpt>
      <trkpt lat="46.42951" lon="4.70444">
        <ele>505</ele>
        <time>2020-09-22T10:37:38Z</time>
      </trkpt>
      <trkpt lat="46.42949" lon="4.70462">
        <ele>504</ele>
        <time>2020-09-22T10:37:40Z</time>
      </trkpt>
      <trkpt lat="46.42924" lon="4.70502">
        <ele>507</ele>
        <time>2020-09-22T10:37:49Z</time>
      </trkpt>
      <trkpt lat="46.42892" lon="4.70538">
        <ele>510</ele>
        <time>2020-09-22T10:37:59Z</time>
      </trkpt>
      <trkpt lat="46.42816" lon="4.70592">
        <ele>520</ele>
        <time>2020-09-22T10:38:18Z</time>
      </trkpt>
      <trkpt lat="46.42803" lon="4.70604">
        <ele>519</ele>
        <time>2020-09-22T10:38:22Z</time>
      </trkpt>
      <trkpt lat="46.42795" lon="4.70619">
        <ele>517</ele>
        <time>2020-09-22T10:38:25Z</time>
      </trkpt>
      <trkpt lat="46.42786" lon="4.70659">
        <ele>509</ele>
        <time>2020-09-22T10:38:32Z</time>
      </trkpt>
      <trkpt lat="46.4277" lon="4.70679">
        <ele>508</ele>
        <time>2020-09-22T10:38:37Z</time>
      </trkpt>
      <trkpt lat="46.42757" lon="4.70701">
        <ele>509</ele>
        <time>2020-09-22T10:38:41Z</time>
      </trkpt>
      <trkpt lat="46.42731" lon="4.70758">
        <ele>509</ele>
        <time>2020-09-22T10:38:52Z</time>
      </trkpt>
      <trkpt lat="46.42724" lon="4.70784">
        <ele>510</ele>
        <time>2020-09-22T10:38:57Z</time>
      </trkpt>
      <trkpt lat="46.4272" lon="4.70847">
        <ele>514</ele>
        <time>2020-09-22T10:39:07Z</time>
      </trkpt>
      <trkpt lat="46.42731" lon="4.70874">
        <ele>515</ele>
        <time>2020-09-22T10:39:12Z</time>
      </trkpt>
      <trkpt lat="46.42737" lon="4.70882">
        <ele>515</ele>
        <time>2020-09-22T10:39:14Z</time>
      </trkpt>
      <trkpt lat="46.42838" lon="4.70998">
        <ele>512</ele>
        <time>2020-09-22T10:39:44Z</time>
      </trkpt>
      <trkpt lat="46.42857" lon="4.71023">
        <ele>512</ele>
        <time>2020-09-22T10:39:50Z</time>
      </trkpt>
      <trkpt lat="46.42875" lon="4.71049">
        <ele>512</ele>
        <time>2020-09-22T10:39:56Z</time>
      </trkpt>
      <trkpt lat="46.42888" lon="4.71084">
        <ele>513</ele>
        <time>2020-09-22T10:40:02Z</time>
      </trkpt>
      <trkpt lat="46.4289" lon="4.71107">
        <ele>513</ele>
        <time>2020-09-22T10:40:06Z</time>
      </trkpt>
      <trkpt lat="46.4288" lon="4.71172">
        <ele>514</ele>
        <time>2020-09-22T10:40:17Z</time>
      </trkpt>
      <trkpt lat="46.42866" lon="4.71213">
        <ele>515</ele>
        <time>2020-09-22T10:40:24Z</time>
      </trkpt>
      <trkpt lat="46.42849" lon="4.71236">
        <ele>516</ele>
        <time>2020-09-22T10:40:30Z</time>
      </trkpt>
      <trkpt lat="46.42845" lon="4.71255">
        <ele>516</ele>
        <time>2020-09-22T10:40:33Z</time>
      </trkpt>
      <trkpt lat="46.42848" lon="4.71316">
        <ele>517</ele>
        <time>2020-09-22T10:40:43Z</time>
      </trkpt>
      <trkpt lat="46.42864" lon="4.71428">
        <ele>521</ele>
        <time>2020-09-22T10:41:01Z</time>
      </trkpt>
      <trkpt lat="46.42865" lon="4.71446">
        <ele>522</ele>
        <time>2020-09-22T10:41:04Z</time>
      </trkpt>
      <trkpt lat="46.42861" lon="4.71526">
        <ele>528</ele>
        <time>2020-09-22T10:41:17Z</time>
      </trkpt>
      <trkpt lat="46.42865" lon="4.71552">
        <ele>529</ele>
        <time>2020-09-22T10:41:21Z</time>
      </trkpt>
      <trkpt lat="46.42873" lon="4.71566">
        <ele>529</ele>
        <time>2020-09-22T10:41:24Z</time>
      </trkpt>
      <trkpt lat="46.42899" lon="4.71594">
        <ele>527</ele>
        <time>2020-09-22T10:41:32Z</time>
      </trkpt>
      <trkpt lat="46.42904" lon="4.71597">
        <ele>526</ele>
        <time>2020-09-22T10:41:33Z</time>
      </trkpt>
      <trkpt lat="46.42929" lon="4.71597">
        <ele>524</ele>
        <time>2020-09-22T10:41:39Z</time>
      </trkpt>
      <trkpt lat="46.42954" lon="4.71604">
        <ele>523</ele>
        <time>2020-09-22T10:41:45Z</time>
      </trkpt>
      <trkpt lat="46.42971" lon="4.71625">
        <ele>524</ele>
        <time>2020-09-22T10:41:50Z</time>
      </trkpt>
      <trkpt lat="46.42993" lon="4.71643">
        <ele>524</ele>
        <time>2020-09-22T10:41:56Z</time>
      </trkpt>
      <trkpt lat="46.43037" lon="4.71644">
        <ele>523</ele>
        <time>2020-09-22T10:42:06Z</time>
      </trkpt>
      <trkpt lat="46.43059" lon="4.71648">
        <ele>523</ele>
        <time>2020-09-22T10:42:11Z</time>
      </trkpt>
      <trkpt lat="46.43104" lon="4.71661">
        <ele>523</ele>
        <time>2020-09-22T10:42:22Z</time>
      </trkpt>
      <trkpt lat="46.43146" lon="4.71665">
        <ele>522</ele>
        <time>2020-09-22T10:42:32Z</time>
      </trkpt>
      <trkpt lat="46.43165" lon="4.71676">
        <ele>522</ele>
        <time>2020-09-22T10:42:37Z</time>
      </trkpt>
      <trkpt lat="46.43178" lon="4.71691">
        <ele>522</ele>
        <time>2020-09-22T10:42:41Z</time>
      </trkpt>
      <trkpt lat="46.43201" lon="4.71702">
        <ele>523</ele>
        <time>2020-09-22T10:42:46Z</time>
      </trkpt>
      <trkpt lat="46.43206" lon="4.71709">
        <ele>523</ele>
        <time>2020-09-22T10:42:48Z</time>
      </trkpt>
      <trkpt lat="46.43217" lon="4.71698">
        <ele>522</ele>
        <time>2020-09-22T10:42:51Z</time>
      </trkpt>
      <trkpt lat="46.4325" lon="4.71687">
        <ele>521</ele>
        <time>2020-09-22T10:42:59Z</time>
      </trkpt>
      <trkpt lat="46.43266" lon="4.71676">
        <ele>519</ele>
        <time>2020-09-22T10:43:03Z</time>
      </trkpt>
      <trkpt lat="46.43313" lon="4.71634">
        <ele>517</ele>
        <time>2020-09-22T10:43:16Z</time>
      </trkpt>
      <trkpt lat="46.43383" lon="4.71581">
        <ele>519</ele>
        <time>2020-09-22T10:43:34Z</time>
      </trkpt>
      <trkpt lat="46.43448" lon="4.71517">
        <ele>520</ele>
        <time>2020-09-22T10:43:53Z</time>
      </trkpt>
      <trkpt lat="46.43464" lon="4.71504">
        <ele>520</ele>
        <time>2020-09-22T10:43:57Z</time>
      </trkpt>
      <trkpt lat="46.43487" lon="4.71492">
        <ele>520</ele>
        <time>2020-09-22T10:44:03Z</time>
      </trkpt>
      <trkpt lat="46.43544" lon="4.7144">
        <ele>517</ele>
        <time>2020-09-22T10:44:18Z</time>
      </trkpt>
      <trkpt lat="46.43579" lon="4.71419">
        <ele>514</ele>
        <time>2020-09-22T10:44:27Z</time>
      </trkpt>
      <trkpt lat="46.43615" lon="4.71392">
        <ele>515</ele>
        <time>2020-09-22T10:44:37Z</time>
      </trkpt>
      <trkpt lat="46.43638" lon="4.71379">
        <ele>516</ele>
        <time>2020-09-22T10:44:42Z</time>
      </trkpt>
      <trkpt lat="46.43644" lon="4.71372">
        <ele>516</ele>
        <time>2020-09-22T10:44:44Z</time>
      </trkpt>
      <trkpt lat="46.43678" lon="4.71355">
        <ele>519</ele>
        <time>2020-09-22T10:44:53Z</time>
      </trkpt>
      <trkpt lat="46.43689" lon="4.71352">
        <ele>520</ele>
        <time>2020-09-22T10:44:55Z</time>
      </trkpt>
      <trkpt lat="46.43695" lon="4.71355">
        <ele>521</ele>
        <time>2020-09-22T10:44:57Z</time>
      </trkpt>
      <trkpt lat="46.43708" lon="4.71342">
        <ele>522</ele>
        <time>2020-09-22T10:45:00Z</time>
      </trkpt>
      <trkpt lat="46.43724" lon="4.71331">
        <ele>524</ele>
        <time>2020-09-22T10:45:05Z</time>
      </trkpt>
      <trkpt lat="46.43747" lon="4.71322">
        <ele>527</ele>
        <time>2020-09-22T10:45:10Z</time>
      </trkpt>
      <trkpt lat="46.43782" lon="4.71314">
        <ele>531</ele>
        <time>2020-09-22T10:45:18Z</time>
      </trkpt>
      <trkpt lat="46.43795" lon="4.71315">
        <ele>533</ele>
        <time>2020-09-22T10:45:21Z</time>
      </trkpt>
      <trkpt lat="46.43817" lon="4.71323">
        <ele>536</ele>
        <time>2020-09-22T10:45:27Z</time>
      </trkpt>
      <trkpt lat="46.43827" lon="4.71324">
        <ele>537</ele>
        <time>2020-09-22T10:45:29Z</time>
      </trkpt>
      <trkpt lat="46.43852" lon="4.71316">
        <ele>539</ele>
        <time>2020-09-22T10:45:35Z</time>
      </trkpt>
      <trkpt lat="46.43926" lon="4.7128">
        <ele>539</ele>
        <time>2020-09-22T10:45:53Z</time>
      </trkpt>
      <trkpt lat="46.43988" lon="4.71262">
        <ele>536</ele>
        <time>2020-09-22T10:46:08Z</time>
      </trkpt>
      <trkpt lat="46.44034" lon="4.7124">
        <ele>532</ele>
        <time>2020-09-22T10:46:19Z</time>
      </trkpt>
      <trkpt lat="46.44075" lon="4.71231">
        <ele>529</ele>
        <time>2020-09-22T10:46:29Z</time>
      </trkpt>
      <trkpt lat="46.44105" lon="4.71232">
        <ele>526</ele>
        <time>2020-09-22T10:46:36Z</time>
      </trkpt>
      <trkpt lat="46.44129" lon="4.71236">
        <ele>523</ele>
        <time>2020-09-22T10:46:42Z</time>
      </trkpt>
      <trkpt lat="46.44145" lon="4.71242">
        <ele>521</ele>
        <time>2020-09-22T10:46:46Z</time>
      </trkpt>
      <trkpt lat="46.44161" lon="4.71257">
        <ele>522</ele>
        <time>2020-09-22T10:46:50Z</time>
      </trkpt>
      <trkpt lat="46.44174" lon="4.71278">
        <ele>521</ele>
        <time>2020-09-22T10:46:55Z</time>
      </trkpt>
      <trkpt lat="46.44198" lon="4.71302">
        <ele>517</ele>
        <time>2020-09-22T10:47:01Z</time>
      </trkpt>
      <trkpt lat="46.44224" lon="4.71317">
        <ele>512</ele>
        <time>2020-09-22T10:47:08Z</time>
      </trkpt>
      <trkpt lat="46.44251" lon="4.71338">
        <ele>507</ele>
        <time>2020-09-22T10:47:15Z</time>
      </trkpt>
      <trkpt lat="46.44318" lon="4.71363">
        <ele>492</ele>
        <time>2020-09-22T10:47:31Z</time>
      </trkpt>
      <trkpt lat="46.44336" lon="4.71387">
        <ele>490</ele>
        <time>2020-09-22T10:47:37Z</time>
      </trkpt>
      <trkpt lat="46.44343" lon="4.71401">
        <ele>490</ele>
        <time>2020-09-22T10:47:40Z</time>
      </trkpt>
      <trkpt lat="46.44356" lon="4.71399">
        <ele>490</ele>
        <time>2020-09-22T10:47:43Z</time>
      </trkpt>
      <trkpt lat="46.44371" lon="4.71434">
        <ele>489</ele>
        <time>2020-09-22T10:47:49Z</time>
      </trkpt>
      <trkpt lat="46.44384" lon="4.71429">
        <ele>489</ele>
        <time>2020-09-22T10:47:53Z</time>
      </trkpt>
      <trkpt lat="46.44398" lon="4.71431">
        <ele>489</ele>
        <time>2020-09-22T10:47:56Z</time>
      </trkpt>
      <trkpt lat="46.44432" lon="4.7146">
        <ele>488</ele>
        <time>2020-09-22T10:48:05Z</time>
      </trkpt>
      <trkpt lat="46.44472" lon="4.7151">
        <ele>488</ele>
        <time>2020-09-22T10:48:17Z</time>
      </trkpt>
      <trkpt lat="46.44482" lon="4.71519">
        <ele>488</ele>
        <time>2020-09-22T10:48:20Z</time>
      </trkpt>
      <trkpt lat="46.44491" lon="4.71525">
        <ele>488</ele>
        <time>2020-09-22T10:48:22Z</time>
      </trkpt>
      <trkpt lat="46.44517" lon="4.71533">
        <ele>489</ele>
        <time>2020-09-22T10:48:29Z</time>
      </trkpt>
      <trkpt lat="46.44534" lon="4.71544">
        <ele>488</ele>
        <time>2020-09-22T10:48:33Z</time>
      </trkpt>
      <trkpt lat="46.44532" lon="4.71525">
        <ele>489</ele>
        <time>2020-09-22T10:48:36Z</time>
      </trkpt>
      <trkpt lat="46.44527" lon="4.71517">
        <ele>490</ele>
        <time>2020-09-22T10:48:38Z</time>
      </trkpt>
      <trkpt lat="46.44522" lon="4.71514">
        <ele>490</ele>
        <time>2020-09-22T10:48:39Z</time>
      </trkpt>
      <trkpt lat="46.44518" lon="4.71494">
        <ele>491</ele>
        <time>2020-09-22T10:48:42Z</time>
      </trkpt>
      <trkpt lat="46.44519" lon="4.71485">
        <ele>492</ele>
        <time>2020-09-22T10:48:44Z</time>
      </trkpt>
      <trkpt lat="46.44545" lon="4.71406">
        <ele>498</ele>
        <time>2020-09-22T10:48:58Z</time>
      </trkpt>
      <trkpt lat="46.44554" lon="4.71395">
        <ele>498</ele>
        <time>2020-09-22T10:49:01Z</time>
      </trkpt>
      <trkpt lat="46.44569" lon="4.71396">
        <ele>498</ele>
        <time>2020-09-22T10:49:04Z</time>
      </trkpt>
      <trkpt lat="46.44599" lon="4.71406">
        <ele>497</ele>
        <time>2020-09-22T10:49:11Z</time>
      </trkpt>
      <trkpt lat="46.44615" lon="4.714">
        <ele>496</ele>
        <time>2020-09-22T10:49:15Z</time>
      </trkpt>
      <trkpt lat="46.44665" lon="4.71391">
        <ele>492</ele>
        <time>2020-09-22T10:49:27Z</time>
      </trkpt>
      <trkpt lat="46.44676" lon="4.71387">
        <ele>492</ele>
        <time>2020-09-22T10:49:30Z</time>
      </trkpt>
      <trkpt lat="46.44701" lon="4.71369">
        <ele>490</ele>
        <time>2020-09-22T10:49:36Z</time>
      </trkpt>
      <trkpt lat="46.44707" lon="4.7137">
        <ele>490</ele>
        <time>2020-09-22T10:49:38Z</time>
      </trkpt>
      <trkpt lat="46.44734" lon="4.71398">
        <ele>489</ele>
        <time>2020-09-22T10:49:45Z</time>
      </trkpt>
      <trkpt lat="46.44753" lon="4.71411">
        <ele>489</ele>
        <time>2020-09-22T10:49:50Z</time>
      </trkpt>
      <trkpt lat="46.44777" lon="4.71413">
        <ele>489</ele>
        <time>2020-09-22T10:49:56Z</time>
      </trkpt>
      <trkpt lat="46.44798" lon="4.71418">
        <ele>489</ele>
        <time>2020-09-22T10:50:01Z</time>
      </trkpt>
      <trkpt lat="46.44866" lon="4.71421">
        <ele>490</ele>
        <time>2020-09-22T10:50:17Z</time>
      </trkpt>
      <trkpt lat="46.44871" lon="4.71424">
        <ele>490</ele>
        <time>2020-09-22T10:50:18Z</time>
      </trkpt>
      <trkpt lat="46.44895" lon="4.71456">
        <ele>491</ele>
        <time>2020-09-22T10:50:26Z</time>
      </trkpt>
      <trkpt lat="46.44912" lon="4.7147">
        <ele>492</ele>
        <time>2020-09-22T10:50:30Z</time>
      </trkpt>
      <trkpt lat="46.4492" lon="4.71473">
        <ele>492</ele>
        <time>2020-09-22T10:50:32Z</time>
      </trkpt>
      <trkpt lat="46.44961" lon="4.71467">
        <ele>489</ele>
        <time>2020-09-22T10:50:42Z</time>
      </trkpt>
      <trkpt lat="46.44988" lon="4.71468">
        <ele>488</ele>
        <time>2020-09-22T10:50:48Z</time>
      </trkpt>
      <trkpt lat="46.45019" lon="4.71486">
        <ele>488</ele>
        <time>2020-09-22T10:50:56Z</time>
      </trkpt>
      <trkpt lat="46.45055" lon="4.71512">
        <ele>485</ele>
        <time>2020-09-22T10:51:05Z</time>
      </trkpt>
      <trkpt lat="46.45073" lon="4.71521">
        <ele>483</ele>
        <time>2020-09-22T10:51:10Z</time>
      </trkpt>
      <trkpt lat="46.45113" lon="4.71531">
        <ele>479</ele>
        <time>2020-09-22T10:51:19Z</time>
      </trkpt>
      <trkpt lat="46.45163" lon="4.71554">
        <ele>478</ele>
        <time>2020-09-22T10:51:31Z</time>
      </trkpt>
      <trkpt lat="46.45175" lon="4.71554">
        <ele>477</ele>
        <time>2020-09-22T10:51:34Z</time>
      </trkpt>
      <trkpt lat="46.45192" lon="4.71566">
        <ele>478</ele>
        <time>2020-09-22T10:51:39Z</time>
      </trkpt>
      <trkpt lat="46.4525" lon="4.71595">
        <ele>478</ele>
        <time>2020-09-22T10:51:53Z</time>
      </trkpt>
      <trkpt lat="46.45284" lon="4.71603">
        <ele>477</ele>
        <time>2020-09-22T10:52:01Z</time>
      </trkpt>
      <trkpt lat="46.45302" lon="4.71594">
        <ele>477</ele>
        <time>2020-09-22T10:52:05Z</time>
      </trkpt>
      <trkpt lat="46.45392" lon="4.71574">
        <ele>477</ele>
        <time>2020-09-22T10:52:27Z</time>
      </trkpt>
      <trkpt lat="46.45385" lon="4.7155">
        <ele>476</ele>
        <time>2020-09-22T10:52:31Z</time>
      </trkpt>
      <trkpt lat="46.45372" lon="4.71531">
        <ele>473</ele>
        <time>2020-09-22T10:52:35Z</time>
      </trkpt>
      <trkpt lat="46.45336" lon="4.71506">
        <ele>467</ele>
        <time>2020-09-22T10:52:45Z</time>
      </trkpt>
      <trkpt lat="46.45277" lon="4.71478">
        <ele>462</ele>
        <time>2020-09-22T10:52:59Z</time>
      </trkpt>
      <trkpt lat="46.45229" lon="4.71452">
        <ele>459</ele>
        <time>2020-09-22T10:53:11Z</time>
      </trkpt>
      <trkpt lat="46.45207" lon="4.71438">
        <ele>459</ele>
        <time>2020-09-22T10:53:17Z</time>
      </trkpt>
      <trkpt lat="46.45192" lon="4.71423">
        <ele>458</ele>
        <time>2020-09-22T10:53:21Z</time>
      </trkpt>
      <trkpt lat="46.45164" lon="4.71386">
        <ele>454</ele>
        <time>2020-09-22T10:53:30Z</time>
      </trkpt>
      <trkpt lat="46.45154" lon="4.71369">
        <ele>453</ele>
        <time>2020-09-22T10:53:33Z</time>
      </trkpt>
      <trkpt lat="46.4514" lon="4.71337">
        <ele>450</ele>
        <time>2020-09-22T10:53:39Z</time>
      </trkpt>
      <trkpt lat="46.45105" lon="4.71223">
        <ele>444</ele>
        <time>2020-09-22T10:53:59Z</time>
      </trkpt>
      <trkpt lat="46.45075" lon="4.71175">
        <ele>442</ele>
        <time>2020-09-22T10:54:10Z</time>
      </trkpt>
      <trkpt lat="46.45055" lon="4.71138">
        <ele>440</ele>
        <time>2020-09-22T10:54:17Z</time>
      </trkpt>
      <trkpt lat="46.45039" lon="4.71121">
        <ele>439</ele>
        <time>2020-09-22T10:54:22Z</time>
      </trkpt>
      <trkpt lat="46.44994" lon="4.71084">
        <ele>437</ele>
        <time>2020-09-22T10:54:34Z</time>
      </trkpt>
      <trkpt lat="46.44913" lon="4.70968">
        <ele>425</ele>
        <time>2020-09-22T10:55:01Z</time>
      </trkpt>
      <trkpt lat="46.44893" lon="4.70946">
        <ele>425</ele>
        <time>2020-09-22T10:55:07Z</time>
      </trkpt>
      <trkpt lat="46.44894" lon="4.70917">
        <ele>422</ele>
        <time>2020-09-22T10:55:11Z</time>
      </trkpt>
      <trkpt lat="46.44904" lon="4.7089">
        <ele>420</ele>
        <time>2020-09-22T10:55:16Z</time>
      </trkpt>
      <trkpt lat="46.44912" lon="4.70847">
        <ele>417</ele>
        <time>2020-09-22T10:55:23Z</time>
      </trkpt>
      <trkpt lat="46.44919" lon="4.70834">
        <ele>416</ele>
        <time>2020-09-22T10:55:26Z</time>
      </trkpt>
      <trkpt lat="46.44948" lon="4.70799">
        <ele>413</ele>
        <time>2020-09-22T10:55:35Z</time>
      </trkpt>
      <trkpt lat="46.45004" lon="4.70752">
        <ele>410</ele>
        <time>2020-09-22T10:55:50Z</time>
      </trkpt>
      <trkpt lat="46.4502" lon="4.70734">
        <ele>412</ele>
        <time>2020-09-22T10:55:55Z</time>
      </trkpt>
      <trkpt lat="46.45068" lon="4.70652">
        <ele>411</ele>
        <time>2020-09-22T10:56:12Z</time>
      </trkpt>
      <trkpt lat="46.451" lon="4.70566">
        <ele>407</ele>
        <time>2020-09-22T10:56:28Z</time>
      </trkpt>
      <trkpt lat="46.45114" lon="4.70525">
        <ele>402</ele>
        <time>2020-09-22T10:56:35Z</time>
      </trkpt>
      <trkpt lat="46.45131" lon="4.70438">
        <ele>393</ele>
        <time>2020-09-22T10:56:50Z</time>
      </trkpt>
      <trkpt lat="46.45132" lon="4.70396">
        <ele>391</ele>
        <time>2020-09-22T10:56:56Z</time>
      </trkpt>
      <trkpt lat="46.45122" lon="4.70265">
        <ele>382</ele>
        <time>2020-09-22T10:57:18Z</time>
      </trkpt>
      <trkpt lat="46.45126" lon="4.70225">
        <ele>376</ele>
        <time>2020-09-22T10:57:24Z</time>
      </trkpt>
      <trkpt lat="46.45151" lon="4.70143">
        <ele>360</ele>
        <time>2020-09-22T10:57:39Z</time>
      </trkpt>
      <trkpt lat="46.45168" lon="4.7011">
        <ele>355</ele>
        <time>2020-09-22T10:57:45Z</time>
      </trkpt>
      <trkpt lat="46.45235" lon="4.69963">
        <ele>335</ele>
        <time>2020-09-22T10:58:13Z</time>
      </trkpt>
      <trkpt lat="46.45239" lon="4.6995">
        <ele>334</ele>
        <time>2020-09-22T10:58:16Z</time>
      </trkpt>
      <trkpt lat="46.45172" lon="4.69945">
        <ele>335</ele>
        <time>2020-09-22T10:58:31Z</time>
      </trkpt>
      <trkpt lat="46.4513" lon="4.69939">
        <ele>336</ele>
        <time>2020-09-22T10:58:41Z</time>
      </trkpt>
      <trkpt lat="46.45104" lon="4.6994">
        <ele>338</ele>
        <time>2020-09-22T10:58:47Z</time>
      </trkpt>
      <trkpt lat="46.45068" lon="4.69932">
        <ele>339</ele>
        <time>2020-09-22T10:58:56Z</time>
      </trkpt>
      <trkpt lat="46.45048" lon="4.6992">
        <ele>339</ele>
        <time>2020-09-22T10:59:01Z</time>
      </trkpt>
      <trkpt lat="46.44995" lon="4.69854">
        <ele>334</ele>
        <time>2020-09-22T10:59:17Z</time>
      </trkpt>
      <trkpt lat="46.44984" lon="4.69834">
        <ele>332</ele>
        <time>2020-09-22T10:59:21Z</time>
      </trkpt>
      <trkpt lat="46.44961" lon="4.69693">
        <ele>327</ele>
        <time>2020-09-22T10:59:45Z</time>
      </trkpt>
      <trkpt lat="46.44959" lon="4.69665">
        <ele>325</ele>
        <time>2020-09-22T10:59:49Z</time>
      </trkpt>
      <trkpt lat="46.44942" lon="4.69587">
        <ele>320</ele>
        <time>2020-09-22T11:00:02Z</time>
      </trkpt>
      <trkpt lat="46.44943" lon="4.69493">
        <ele>314</ele>
        <time>2020-09-22T11:00:18Z</time>
      </trkpt>
      <trkpt lat="46.44956" lon="4.69467">
        <ele>313</ele>
        <time>2020-09-22T11:00:23Z</time>
      </trkpt>
      <trkpt lat="46.44968" lon="4.69401">
        <ele>310</ele>
        <time>2020-09-22T11:00:34Z</time>
      </trkpt>
      <trkpt lat="46.44952" lon="4.69305">
        <ele>305</ele>
        <time>2020-09-22T11:00:50Z</time>
      </trkpt>
      <trkpt lat="46.44952" lon="4.69281">
        <ele>305</ele>
        <time>2020-09-22T11:00:53Z</time>
      </trkpt>
      <trkpt lat="46.44934" lon="4.69175">
        <ele>302</ele>
        <time>2020-09-22T11:01:11Z</time>
      </trkpt>
      <trkpt lat="46.44932" lon="4.69127">
        <ele>300</ele>
        <time>2020-09-22T11:01:19Z</time>
      </trkpt>
      <trkpt lat="46.44933" lon="4.69058">
        <ele>298</ele>
        <time>2020-09-22T11:01:30Z</time>
      </trkpt>
      <trkpt lat="46.44925" lon="4.68995">
        <ele>296</ele>
        <time>2020-09-22T11:01:40Z</time>
      </trkpt>
      <trkpt lat="46.44927" lon="4.6895">
        <ele>292</ele>
        <time>2020-09-22T11:01:47Z</time>
      </trkpt>
      <trkpt lat="46.4492" lon="4.68898">
        <ele>288</ele>
        <time>2020-09-22T11:01:56Z</time>
      </trkpt>
      <trkpt lat="46.44919" lon="4.68852">
        <ele>284</ele>
        <time>2020-09-22T11:02:03Z</time>
      </trkpt>
      <trkpt lat="46.44916" lon="4.68835">
        <ele>283</ele>
        <time>2020-09-22T11:02:06Z</time>
      </trkpt>
      <trkpt lat="46.44936" lon="4.6882">
        <ele>283</ele>
        <time>2020-09-22T11:02:11Z</time>
      </trkpt>
      <trkpt lat="46.44898" lon="4.68751">
        <ele>281</ele>
        <time>2020-09-22T11:02:26Z</time>
      </trkpt>
      <trkpt lat="46.44888" lon="4.68737">
        <ele>281</ele>
        <time>2020-09-22T11:02:29Z</time>
      </trkpt>
      <trkpt lat="46.44899" lon="4.68675">
        <ele>282</ele>
        <time>2020-09-22T11:02:39Z</time>
      </trkpt>
      <trkpt lat="46.4492" lon="4.68645">
        <ele>282</ele>
        <time>2020-09-22T11:02:46Z</time>
      </trkpt>
      <trkpt lat="46.44946" lon="4.68587">
        <ele>283</ele>
        <time>2020-09-22T11:02:57Z</time>
      </trkpt>
      <trkpt lat="46.44981" lon="4.68521">
        <ele>284</ele>
        <time>2020-09-22T11:03:11Z</time>
      </trkpt>
      <trkpt lat="46.44992" lon="4.6851">
        <ele>284</ele>
        <time>2020-09-22T11:03:14Z</time>
      </trkpt>
      <trkpt lat="46.45058" lon="4.68462">
        <ele>284</ele>
        <time>2020-09-22T11:03:31Z</time>
      </trkpt>
      <trkpt lat="46.45067" lon="4.68457">
        <ele>284</ele>
        <time>2020-09-22T11:03:33Z</time>
      </trkpt>
      <trkpt lat="46.45101" lon="4.68446">
        <ele>283</ele>
        <time>2020-09-22T11:03:41Z</time>
      </trkpt>
      <trkpt lat="46.45118" lon="4.68437">
        <ele>282</ele>
        <time>2020-09-22T11:03:46Z</time>
      </trkpt>
      <trkpt lat="46.45184" lon="4.68383">
        <ele>279</ele>
        <time>2020-09-22T11:04:03Z</time>
      </trkpt>
      <trkpt lat="46.45196" lon="4.68368">
        <ele>279</ele>
        <time>2020-09-22T11:04:07Z</time>
      </trkpt>
      <trkpt lat="46.45217" lon="4.68332">
        <ele>280</ele>
        <time>2020-09-22T11:04:15Z</time>
      </trkpt>
      <trkpt lat="46.45255" lon="4.68281">
        <ele>280</ele>
        <time>2020-09-22T11:04:27Z</time>
      </trkpt>
      <trkpt lat="46.45298" lon="4.68229">
        <ele>277</ele>
        <time>2020-09-22T11:04:40Z</time>
      </trkpt>
      <trkpt lat="46.45318" lon="4.68192">
        <ele>275</ele>
        <time>2020-09-22T11:04:47Z</time>
      </trkpt>
      <trkpt lat="46.45339" lon="4.68126">
        <ele>273</ele>
        <time>2020-09-22T11:04:59Z</time>
      </trkpt>
      <trkpt lat="46.45381" lon="4.68028">
        <ele>270</ele>
        <time>2020-09-22T11:05:18Z</time>
      </trkpt>
      <trkpt lat="46.45442" lon="4.67917">
        <ele>265</ele>
        <time>2020-09-22T11:05:40Z</time>
      </trkpt>
      <trkpt lat="46.45485" lon="4.6783">
        <ele>263</ele>
        <time>2020-09-22T11:05:58Z</time>
      </trkpt>
      <trkpt lat="46.45528" lon="4.67762">
        <ele>258</ele>
        <time>2020-09-22T11:06:12Z</time>
      </trkpt>
      <trkpt lat="46.45535" lon="4.67738">
        <ele>255</ele>
        <time>2020-09-22T11:06:17Z</time>
      </trkpt>
      <trkpt lat="46.45535" lon="4.67727">
        <ele>254</ele>
        <time>2020-09-22T11:06:18Z</time>
      </trkpt>
      <trkpt lat="46.45532" lon="4.677">
        <ele>252</ele>
        <time>2020-09-22T11:06:23Z</time>
      </trkpt>
      <trkpt lat="46.45521" lon="4.67647">
        <ele>248</ele>
        <time>2020-09-22T11:06:32Z</time>
      </trkpt>
      <trkpt lat="46.45526" lon="4.67593">
        <ele>243</ele>
        <time>2020-09-22T11:06:40Z</time>
      </trkpt>
      <trkpt lat="46.45524" lon="4.67578">
        <ele>242</ele>
        <time>2020-09-22T11:06:43Z</time>
      </trkpt>
      <trkpt lat="46.45515" lon="4.67554">
        <ele>241</ele>
        <time>2020-09-22T11:06:47Z</time>
      </trkpt>
      <trkpt lat="46.45506" lon="4.67491">
        <ele>238</ele>
        <time>2020-09-22T11:06:58Z</time>
      </trkpt>
      <trkpt lat="46.45505" lon="4.67468">
        <ele>236</ele>
        <time>2020-09-22T11:07:01Z</time>
      </trkpt>
      <trkpt lat="46.45368" lon="4.67465">
        <ele>242</ele>
        <time>2020-09-22T11:07:33Z</time>
      </trkpt>
      <trkpt lat="46.45324" lon="4.67459">
        <ele>243</ele>
        <time>2020-09-22T11:07:44Z</time>
      </trkpt>
      <trkpt lat="46.45284" lon="4.67448">
        <ele>245</ele>
        <time>2020-09-22T11:07:53Z</time>
      </trkpt>
      <trkpt lat="46.45052" lon="4.67365">
        <ele>250</ele>
        <time>2020-09-22T11:08:49Z</time>
      </trkpt>
      <trkpt lat="46.45016" lon="4.67348">
        <ele>249</ele>
        <time>2020-09-22T11:08:58Z</time>
      </trkpt>
      <trkpt lat="46.44974" lon="4.67308">
        <ele>245</ele>
        <time>2020-09-22T11:09:10Z</time>
      </trkpt>
      <trkpt lat="46.44953" lon="4.67293">
        <ele>244</ele>
        <time>2020-09-22T11:09:15Z</time>
      </trkpt>
      <trkpt lat="46.44934" lon="4.67284">
        <ele>243</ele>
        <time>2020-09-22T11:09:20Z</time>
      </trkpt>
      <trkpt lat="46.449" lon="4.67275">
        <ele>244</ele>
        <time>2020-09-22T11:09:28Z</time>
      </trkpt>
      <trkpt lat="46.44843" lon="4.67274">
        <ele>246</ele>
        <time>2020-09-22T11:09:41Z</time>
      </trkpt>
      <trkpt lat="46.44823" lon="4.6727">
        <ele>247</ele>
        <time>2020-09-22T11:09:46Z</time>
      </trkpt>
      <trkpt lat="46.44801" lon="4.67261">
        <ele>247</ele>
        <time>2020-09-22T11:09:51Z</time>
      </trkpt>
      <trkpt lat="46.44594" lon="4.67154">
        <ele>247</ele>
        <time>2020-09-22T11:10:42Z</time>
      </trkpt>
      <trkpt lat="46.44557" lon="4.6714">
        <ele>246</ele>
        <time>2020-09-22T11:10:51Z</time>
      </trkpt>
      <trkpt lat="46.44506" lon="4.67125">
        <ele>246</ele>
        <time>2020-09-22T11:11:04Z</time>
      </trkpt>
      <trkpt lat="46.44342" lon="4.67158">
        <ele>240</ele>
        <time>2020-09-22T11:11:42Z</time>
      </trkpt>
      <trkpt lat="46.44324" lon="4.67174">
        <ele>240</ele>
        <time>2020-09-22T11:11:47Z</time>
      </trkpt>
      <trkpt lat="46.44311" lon="4.67174">
        <ele>240</ele>
        <time>2020-09-22T11:11:50Z</time>
      </trkpt>
      <trkpt lat="46.442" lon="4.67207">
        <ele>240</ele>
        <time>2020-09-22T11:12:17Z</time>
      </trkpt>
      <trkpt lat="46.44141" lon="4.67219">
        <ele>241</ele>
        <time>2020-09-22T11:12:31Z</time>
      </trkpt>
      <trkpt lat="46.44131" lon="4.67216">
        <ele>242</ele>
        <time>2020-09-22T11:12:33Z</time>
      </trkpt>
      <trkpt lat="46.44128" lon="4.6721">
        <ele>242</ele>
        <time>2020-09-22T11:12:34Z</time>
      </trkpt>
      <trkpt lat="46.44121" lon="4.67155">
        <ele>240</ele>
        <time>2020-09-22T11:12:43Z</time>
      </trkpt>
      <trkpt lat="46.44112" lon="4.67131">
        <ele>239</ele>
        <time>2020-09-22T11:12:48Z</time>
      </trkpt>
      <trkpt lat="46.44062" lon="4.67042">
        <ele>234</ele>
        <time>2020-09-22T11:13:06Z</time>
      </trkpt>
      <trkpt lat="46.43998" lon="4.66909">
        <ele>233</ele>
        <time>2020-09-22T11:13:32Z</time>
      </trkpt>
      <trkpt lat="46.43991" lon="4.66901">
        <ele>233</ele>
        <time>2020-09-22T11:13:34Z</time>
      </trkpt>
      <trkpt lat="46.43965" lon="4.66889">
        <ele>233</ele>
        <time>2020-09-22T11:13:41Z</time>
      </trkpt>
      <trkpt lat="46.43942" lon="4.66869">
        <ele>233</ele>
        <time>2020-09-22T11:13:47Z</time>
      </trkpt>
      <trkpt lat="46.43926" lon="4.66847">
        <ele>233</ele>
        <time>2020-09-22T11:13:52Z</time>
      </trkpt>
      <trkpt lat="46.4392" lon="4.66827">
        <ele>233</ele>
        <time>2020-09-22T11:13:55Z</time>
      </trkpt>
      <trkpt lat="46.43912" lon="4.66814">
        <ele>233</ele>
        <time>2020-09-22T11:13:58Z</time>
      </trkpt>
      <trkpt lat="46.43787" lon="4.66752">
        <ele>233</ele>
        <time>2020-09-22T11:14:29Z</time>
      </trkpt>
      <trkpt lat="46.4376" lon="4.66731">
        <ele>233</ele>
        <time>2020-09-22T11:14:36Z</time>
      </trkpt>
      <trkpt lat="46.43715" lon="4.66682">
        <ele>233</ele>
        <time>2020-09-22T11:14:49Z</time>
      </trkpt>
      <trkpt lat="46.43688" lon="4.66657">
        <ele>234</ele>
        <time>2020-09-22T11:14:57Z</time>
      </trkpt>
      <trkpt lat="46.43669" lon="4.66641">
        <ele>234</ele>
        <time>2020-09-22T11:15:02Z</time>
      </trkpt>
      <trkpt lat="46.43637" lon="4.66621">
        <ele>234</ele>
        <time>2020-09-22T11:15:10Z</time>
      </trkpt>
      <trkpt lat="46.43625" lon="4.66615">
        <ele>233</ele>
        <time>2020-09-22T11:15:13Z</time>
      </trkpt>
      <trkpt lat="46.43612" lon="4.66612">
        <ele>233</ele>
        <time>2020-09-22T11:15:16Z</time>
      </trkpt>
      <trkpt lat="46.43567" lon="4.66611">
        <ele>233</ele>
        <time>2020-09-22T11:15:27Z</time>
      </trkpt>
      <trkpt lat="46.43552" lon="4.66608">
        <ele>233</ele>
        <time>2020-09-22T11:15:30Z</time>
      </trkpt>
      <trkpt lat="46.43536" lon="4.66604">
        <ele>233</ele>
        <time>2020-09-22T11:15:34Z</time>
      </trkpt>
      <trkpt lat="46.43502" lon="4.66588">
        <ele>233</ele>
        <time>2020-09-22T11:15:42Z</time>
      </trkpt>
      <trkpt lat="46.43443" lon="4.66578">
        <ele>233</ele>
        <time>2020-09-22T11:15:56Z</time>
      </trkpt>
      <trkpt lat="46.43482" lon="4.66467">
        <ele>233</ele>
        <time>2020-09-22T11:16:16Z</time>
      </trkpt>
      <trkpt lat="46.43483" lon="4.66436">
        <ele>233</ele>
        <time>2020-09-22T11:16:21Z</time>
      </trkpt>
      <trkpt lat="46.43486" lon="4.66433">
        <ele>233</ele>
        <time>2020-09-22T11:16:22Z</time>
      </trkpt>
      <trkpt lat="46.4346" lon="4.66397">
        <ele>234</ele>
        <time>2020-09-22T11:16:31Z</time>
      </trkpt>
      <trkpt lat="46.43502" lon="4.66386">
        <ele>232</ele>
        <time>2020-09-22T11:16:41Z</time>
      </trkpt>
      <trkpt lat="46.43512" lon="4.66375">
        <ele>232</ele>
        <time>2020-09-22T11:16:43Z</time>
      </trkpt>
      <trkpt lat="46.43521" lon="4.66353">
        <ele>233</ele>
        <time>2020-09-22T11:16:48Z</time>
      </trkpt>
      <trkpt lat="46.43523" lon="4.66342">
        <ele>233</ele>
        <time>2020-09-22T11:16:49Z</time>
      </trkpt>
      <trkpt lat="46.43519" lon="4.66319">
        <ele>233</ele>
        <time>2020-09-22T11:16:53Z</time>
      </trkpt>
      <trkpt lat="46.43512" lon="4.66307">
        <ele>234</ele>
        <time>2020-09-22T11:16:56Z</time>
      </trkpt>
      <trkpt lat="46.43497" lon="4.66297">
        <ele>233</ele>
        <time>2020-09-22T11:17:00Z</time>
      </trkpt>
      <trkpt lat="46.43472" lon="4.66285">
        <ele>234</ele>
        <time>2020-09-22T11:17:06Z</time>
      </trkpt>
      <trkpt lat="46.43337" lon="4.66233">
        <ele>237</ele>
        <time>2020-09-22T11:17:38Z</time>
      </trkpt>
      <trkpt lat="46.43302" lon="4.66377">
        <ele>236</ele>
        <time>2020-09-22T11:18:03Z</time>
      </trkpt>
      <trkpt lat="46.43298" lon="4.66407">
        <ele>235</ele>
        <time>2020-09-22T11:18:08Z</time>
      </trkpt>
      <trkpt lat="46.43269" lon="4.66403">
        <ele>235</ele>
        <time>2020-09-22T11:18:15Z</time>
      </trkpt>
      <trkpt lat="46.43222" lon="4.66391">
        <ele>235</ele>
        <time>2020-09-22T11:18:26Z</time>
      </trkpt>
      <trkpt lat="46.43222" lon="4.66437">
        <ele>235</ele>
        <time>2020-09-22T11:18:33Z</time>
      </trkpt>
      <trkpt lat="46.4323" lon="4.66499">
        <ele>236</ele>
        <time>2020-09-22T11:18:43Z</time>
      </trkpt>
      <trkpt lat="46.4324" lon="4.66627">
        <ele>235</ele>
        <time>2020-09-22T11:19:04Z</time>
      </trkpt>
      <trkpt lat="46.4324" lon="4.66742">
        <ele>236</ele>
        <time>2020-09-22T11:19:23Z</time>
      </trkpt>
      <trkpt lat="46.43156" lon="4.66748">
        <ele>236</ele>
        <time>2020-09-22T11:19:42Z</time>
      </trkpt>
    </trkseg>
  </trk>
  <trk>
    <name><![CDATA[10 - Bord de Saone - Bleu]]></name>
    <extensions>
      <line xmlns="http://www.topografix.com/GPX/gpx_style/0/2">
        <color>8aa1ff</color>
        <width>4</width>
      </line>
    </extensions>
    <trkseg>
      <trkpt lat="46.44767" lon="4.88669">
        <ele>167</ele>
        <time>2020-09-22T10:10:19Z</time>
      </trkpt>
      <trkpt lat="46.44652" lon="4.88607">
        <ele>172</ele>
        <time>2020-09-22T10:10:48Z</time>
      </trkpt>
      <trkpt lat="46.44647" lon="4.88597">
        <ele>172</ele>
        <time>2020-09-22T10:10:50Z</time>
      </trkpt>
      <trkpt lat="46.44648" lon="4.88583">
        <ele>173</ele>
        <time>2020-09-22T10:10:52Z</time>
      </trkpt>
      <trkpt lat="46.44646" lon="4.88571">
        <ele>173</ele>
        <time>2020-09-22T10:10:54Z</time>
      </trkpt>
      <trkpt lat="46.44641" lon="4.88566">
        <ele>173</ele>
        <time>2020-09-22T10:10:55Z</time>
      </trkpt>
      <trkpt lat="46.44629" lon="4.88561">
        <ele>172</ele>
        <time>2020-09-22T10:10:58Z</time>
      </trkpt>
      <trkpt lat="46.44599" lon="4.88562">
        <ele>172</ele>
        <time>2020-09-22T10:11:05Z</time>
      </trkpt>
      <trkpt lat="46.44588" lon="4.88569">
        <ele>172</ele>
        <time>2020-09-22T10:11:08Z</time>
      </trkpt>
      <trkpt lat="46.44579" lon="4.88591">
        <ele>172</ele>
        <time>2020-09-22T10:11:12Z</time>
      </trkpt>
      <trkpt lat="46.44568" lon="4.8865">
        <ele>170</ele>
        <time>2020-09-22T10:11:22Z</time>
      </trkpt>
      <trkpt lat="46.4456" lon="4.88664">
        <ele>170</ele>
        <time>2020-09-22T10:11:25Z</time>
      </trkpt>
      <trkpt lat="46.44551" lon="4.88664">
        <ele>170</ele>
        <time>2020-09-22T10:11:27Z</time>
      </trkpt>
      <trkpt lat="46.44501" lon="4.88622">
        <ele>171</ele>
        <time>2020-09-22T10:11:41Z</time>
      </trkpt>
      <trkpt lat="46.44491" lon="4.8861">
        <ele>171</ele>
        <time>2020-09-22T10:11:44Z</time>
      </trkpt>
      <trkpt lat="46.44458" lon="4.88554">
        <ele>172</ele>
        <time>2020-09-22T10:11:55Z</time>
      </trkpt>
      <trkpt lat="46.44454" lon="4.88542">
        <ele>172</ele>
        <time>2020-09-22T10:11:58Z</time>
      </trkpt>
      <trkpt lat="46.44455" lon="4.88508">
        <ele>172</ele>
        <time>2020-09-22T10:12:03Z</time>
      </trkpt>
      <trkpt lat="46.44423" lon="4.88429">
        <ele>172</ele>
        <time>2020-09-22T10:12:18Z</time>
      </trkpt>
      <trkpt lat="46.44417" lon="4.88423">
        <ele>172</ele>
        <time>2020-09-22T10:12:19Z</time>
      </trkpt>
      <trkpt lat="46.44402" lon="4.88417">
        <ele>172</ele>
        <time>2020-09-22T10:12:23Z</time>
      </trkpt>
      <trkpt lat="46.44384" lon="4.88424">
        <ele>172</ele>
        <time>2020-09-22T10:12:27Z</time>
      </trkpt>
      <trkpt lat="46.4435" lon="4.88444">
        <ele>171</ele>
        <time>2020-09-22T10:12:36Z</time>
      </trkpt>
      <trkpt lat="46.44336" lon="4.88446">
        <ele>171</ele>
        <time>2020-09-22T10:12:39Z</time>
      </trkpt>
      <trkpt lat="46.44352" lon="4.88419">
        <ele>171</ele>
        <time>2020-09-22T10:12:45Z</time>
      </trkpt>
      <trkpt lat="46.44364" lon="4.88412">
        <ele>171</ele>
        <time>2020-09-22T10:12:48Z</time>
      </trkpt>
      <trkpt lat="46.44376" lon="4.8841">
        <ele>172</ele>
        <time>2020-09-22T10:12:51Z</time>
      </trkpt>
      <trkpt lat="46.44385" lon="4.88397">
        <ele>172</ele>
        <time>2020-09-22T10:12:54Z</time>
      </trkpt>
      <trkpt lat="46.44386" lon="4.8838">
        <ele>173</ele>
        <time>2020-09-22T10:12:57Z</time>
      </trkpt>
      <trkpt lat="46.44384" lon="4.88371">
        <ele>173</ele>
        <time>2020-09-22T10:12:58Z</time>
      </trkpt>
      <trkpt lat="46.44377" lon="4.88361">
        <ele>173</ele>
        <time>2020-09-22T10:13:00Z</time>
      </trkpt>
      <trkpt lat="46.44371" lon="4.88337">
        <ele>173</ele>
        <time>2020-09-22T10:13:05Z</time>
      </trkpt>
      <trkpt lat="46.44375" lon="4.8828">
        <ele>174</ele>
        <time>2020-09-22T10:13:14Z</time>
      </trkpt>
      <trkpt lat="46.44422" lon="4.88084">
        <ele>176</ele>
        <time>2020-09-22T10:13:47Z</time>
      </trkpt>
      <trkpt lat="46.44479" lon="4.8791">
        <ele>176</ele>
        <time>2020-09-22T10:14:18Z</time>
      </trkpt>
      <trkpt lat="46.44487" lon="4.87893">
        <ele>176</ele>
        <time>2020-09-22T10:14:21Z</time>
      </trkpt>
      <trkpt lat="46.44528" lon="4.8783">
        <ele>177</ele>
        <time>2020-09-22T10:14:35Z</time>
      </trkpt>
      <trkpt lat="46.44549" lon="4.87778">
        <ele>178</ele>
        <time>2020-09-22T10:14:45Z</time>
      </trkpt>
      <trkpt lat="46.44674" lon="4.87402">
        <ele>186</ele>
        <time>2020-09-22T10:15:52Z</time>
      </trkpt>
      <trkpt lat="46.44688" lon="4.87324">
        <ele>187</ele>
        <time>2020-09-22T10:16:05Z</time>
      </trkpt>
      <trkpt lat="46.44691" lon="4.87268">
        <ele>187</ele>
        <time>2020-09-22T10:16:14Z</time>
      </trkpt>
      <trkpt lat="46.4469" lon="4.87232">
        <ele>188</ele>
        <time>2020-09-22T10:16:20Z</time>
      </trkpt>
      <trkpt lat="46.44676" lon="4.87096">
        <ele>194</ele>
        <time>2020-09-22T10:16:42Z</time>
      </trkpt>
      <trkpt lat="46.44738" lon="4.87107">
        <ele>194</ele>
        <time>2020-09-22T10:16:57Z</time>
      </trkpt>
      <trkpt lat="46.4481" lon="4.87109">
        <ele>194</ele>
        <time>2020-09-22T10:17:14Z</time>
      </trkpt>
      <trkpt lat="46.44946" lon="4.86959">
        <ele>198</ele>
        <time>2020-09-22T10:17:53Z</time>
      </trkpt>
      <trkpt lat="46.44982" lon="4.86926">
        <ele>199</ele>
        <time>2020-09-22T10:18:03Z</time>
      </trkpt>
      <trkpt lat="46.45007" lon="4.86873">
        <ele>200</ele>
        <time>2020-09-22T10:18:14Z</time>
      </trkpt>
      <trkpt lat="46.45019" lon="4.86842">
        <ele>201</ele>
        <time>2020-09-22T10:18:19Z</time>
      </trkpt>
      <trkpt lat="46.45024" lon="4.86815">
        <ele>201</ele>
        <time>2020-09-22T10:18:24Z</time>
      </trkpt>
      <trkpt lat="46.45004" lon="4.86794">
        <ele>200</ele>
        <time>2020-09-22T10:18:30Z</time>
      </trkpt>
      <trkpt lat="46.44981" lon="4.86776">
        <ele>199</ele>
        <time>2020-09-22T10:18:36Z</time>
      </trkpt>
      <trkpt lat="46.44953" lon="4.86756">
        <ele>199</ele>
        <time>2020-09-22T10:18:43Z</time>
      </trkpt>
      <trkpt lat="46.44894" lon="4.8672">
        <ele>198</ele>
        <time>2020-09-22T10:18:58Z</time>
      </trkpt>
      <trkpt lat="46.44881" lon="4.86702">
        <ele>199</ele>
        <time>2020-09-22T10:19:02Z</time>
      </trkpt>
      <trkpt lat="46.44864" lon="4.86684">
        <ele>199</ele>
        <time>2020-09-22T10:19:07Z</time>
      </trkpt>
      <trkpt lat="46.4484" lon="4.86666">
        <ele>200</ele>
        <time>2020-09-22T10:19:14Z</time>
      </trkpt>
      <trkpt lat="46.44836" lon="4.86642">
        <ele>200</ele>
        <time>2020-09-22T10:19:17Z</time>
      </trkpt>
      <trkpt lat="46.44898" lon="4.86562">
        <ele>202</ele>
        <time>2020-09-22T10:19:37Z</time>
      </trkpt>
      <trkpt lat="46.44909" lon="4.86544">
        <ele>202</ele>
        <time>2020-09-22T10:19:41Z</time>
      </trkpt>
      <trkpt lat="46.44947" lon="4.86328">
        <ele>204</ele>
        <time>2020-09-22T10:20:17Z</time>
      </trkpt>
      <trkpt lat="46.44954" lon="4.86274">
        <ele>205</ele>
        <time>2020-09-22T10:20:25Z</time>
      </trkpt>
      <trkpt lat="46.44945" lon="4.86222">
        <ele>206</ele>
        <time>2020-09-22T10:20:34Z</time>
      </trkpt>
      <trkpt lat="46.44941" lon="4.86121">
        <ele>207</ele>
        <time>2020-09-22T10:20:50Z</time>
      </trkpt>
      <trkpt lat="46.44952" lon="4.86118">
        <ele>207</ele>
        <time>2020-09-22T10:20:53Z</time>
      </trkpt>
      <trkpt lat="46.45056" lon="4.86068">
        <ele>207</ele>
        <time>2020-09-22T10:21:19Z</time>
      </trkpt>
      <trkpt lat="46.45081" lon="4.86059">
        <ele>207</ele>
        <time>2020-09-22T10:21:25Z</time>
      </trkpt>
      <trkpt lat="46.4513" lon="4.86053">
        <ele>208</ele>
        <time>2020-09-22T10:21:36Z</time>
      </trkpt>
      <trkpt lat="46.45241" lon="4.86002">
        <ele>208</ele>
        <time>2020-09-22T10:22:03Z</time>
      </trkpt>
      <trkpt lat="46.45274" lon="4.85989">
        <ele>208</ele>
        <time>2020-09-22T10:22:11Z</time>
      </trkpt>
      <trkpt lat="46.45303" lon="4.85981">
        <ele>208</ele>
        <time>2020-09-22T10:22:18Z</time>
      </trkpt>
      <trkpt lat="46.45412" lon="4.85938">
        <ele>210</ele>
        <time>2020-09-22T10:22:44Z</time>
      </trkpt>
      <trkpt lat="46.45506" lon="4.85913">
        <ele>211</ele>
        <time>2020-09-22T10:23:07Z</time>
      </trkpt>
      <trkpt lat="46.45602" lon="4.85901">
        <ele>211</ele>
        <time>2020-09-22T10:23:29Z</time>
      </trkpt>
      <trkpt lat="46.45624" lon="4.85896">
        <ele>211</ele>
        <time>2020-09-22T10:23:35Z</time>
      </trkpt>
      <trkpt lat="46.45642" lon="4.85889">
        <ele>211</ele>
        <time>2020-09-22T10:23:39Z</time>
      </trkpt>
      <trkpt lat="46.45663" lon="4.85893">
        <ele>212</ele>
        <time>2020-09-22T10:23:44Z</time>
      </trkpt>
      <trkpt lat="46.45701" lon="4.8591">
        <ele>211</ele>
        <time>2020-09-22T10:23:53Z</time>
      </trkpt>
      <trkpt lat="46.45716" lon="4.85922">
        <ele>211</ele>
        <time>2020-09-22T10:23:57Z</time>
      </trkpt>
      <trkpt lat="46.45754" lon="4.85964">
        <ele>210</ele>
        <time>2020-09-22T10:24:08Z</time>
      </trkpt>
      <trkpt lat="46.45789" lon="4.85994">
        <ele>210</ele>
        <time>2020-09-22T10:24:18Z</time>
      </trkpt>
      <trkpt lat="46.45801" lon="4.85877">
        <ele>213</ele>
        <time>2020-09-22T10:24:37Z</time>
      </trkpt>
      <trkpt lat="46.45803" lon="4.85834">
        <ele>215</ele>
        <time>2020-09-22T10:24:44Z</time>
      </trkpt>
      <trkpt lat="46.45805" lon="4.85756">
        <ele>218</ele>
        <time>2020-09-22T10:24:56Z</time>
      </trkpt>
      <trkpt lat="46.458" lon="4.85741">
        <ele>219</ele>
        <time>2020-09-22T10:24:59Z</time>
      </trkpt>
      <trkpt lat="46.45825" lon="4.85749">
        <ele>218</ele>
        <time>2020-09-22T10:25:05Z</time>
      </trkpt>
      <trkpt lat="46.45889" lon="4.85753">
        <ele>217</ele>
        <time>2020-09-22T10:25:20Z</time>
      </trkpt>
      <trkpt lat="46.45936" lon="4.85782">
        <ele>215</ele>
        <time>2020-09-22T10:25:32Z</time>
      </trkpt>
      <trkpt lat="46.4595" lon="4.85787">
        <ele>214</ele>
        <time>2020-09-22T10:25:35Z</time>
      </trkpt>
      <trkpt lat="46.46007" lon="4.85799">
        <ele>212</ele>
        <time>2020-09-22T10:25:49Z</time>
      </trkpt>
      <trkpt lat="46.46093" lon="4.85828">
        <ele>211</ele>
        <time>2020-09-22T10:26:09Z</time>
      </trkpt>
      <trkpt lat="46.46224" lon="4.85812">
        <ele>211</ele>
        <time>2020-09-22T10:26:40Z</time>
      </trkpt>
      <trkpt lat="46.463" lon="4.85807">
        <ele>210</ele>
        <time>2020-09-22T10:26:58Z</time>
      </trkpt>
      <trkpt lat="46.46318" lon="4.85808">
        <ele>210</ele>
        <time>2020-09-22T10:27:02Z</time>
      </trkpt>
      <trkpt lat="46.46607" lon="4.85944">
        <ele>212</ele>
        <time>2020-09-22T10:28:13Z</time>
      </trkpt>
      <trkpt lat="46.46672" lon="4.85988">
        <ele>213</ele>
        <time>2020-09-22T10:28:30Z</time>
      </trkpt>
      <trkpt lat="46.46699" lon="4.86013">
        <ele>214</ele>
        <time>2020-09-22T10:28:37Z</time>
      </trkpt>
      <trkpt lat="46.4675" lon="4.86044">
        <ele>215</ele>
        <time>2020-09-22T10:28:50Z</time>
      </trkpt>
      <trkpt lat="46.46784" lon="4.8606">
        <ele>214</ele>
        <time>2020-09-22T10:28:58Z</time>
      </trkpt>
      <trkpt lat="46.46793" lon="4.86054">
        <ele>214</ele>
        <time>2020-09-22T10:29:01Z</time>
      </trkpt>
      <trkpt lat="46.46807" lon="4.8599">
        <ele>213</ele>
        <time>2020-09-22T10:29:11Z</time>
      </trkpt>
      <trkpt lat="46.46821" lon="4.85946">
        <ele>212</ele>
        <time>2020-09-22T10:29:19Z</time>
      </trkpt>
      <trkpt lat="46.46841" lon="4.85902">
        <ele>212</ele>
        <time>2020-09-22T10:29:28Z</time>
      </trkpt>
      <trkpt lat="46.46907" lon="4.8578">
        <ele>214</ele>
        <time>2020-09-22T10:29:53Z</time>
      </trkpt>
      <trkpt lat="46.46923" lon="4.85757">
        <ele>214</ele>
        <time>2020-09-22T10:29:58Z</time>
      </trkpt>
      <trkpt lat="46.46935" lon="4.85747">
        <ele>214</ele>
        <time>2020-09-22T10:30:01Z</time>
      </trkpt>
      <trkpt lat="46.46939" lon="4.85747">
        <ele>214</ele>
        <time>2020-09-22T10:30:02Z</time>
      </trkpt>
      <trkpt lat="46.4695" lon="4.85752">
        <ele>214</ele>
        <time>2020-09-22T10:30:05Z</time>
      </trkpt>
      <trkpt lat="46.4696" lon="4.8577">
        <ele>213</ele>
        <time>2020-09-22T10:30:09Z</time>
      </trkpt>
      <trkpt lat="46.46982" lon="4.8579">
        <ele>213</ele>
        <time>2020-09-22T10:30:15Z</time>
      </trkpt>
      <trkpt lat="46.47063" lon="4.85841">
        <ele>212</ele>
        <time>2020-09-22T10:30:35Z</time>
      </trkpt>
      <trkpt lat="46.47132" lon="4.85861">
        <ele>209</ele>
        <time>2020-09-22T10:30:52Z</time>
      </trkpt>
      <trkpt lat="46.47164" lon="4.85867">
        <ele>208</ele>
        <time>2020-09-22T10:30:59Z</time>
      </trkpt>
      <trkpt lat="46.47213" lon="4.85881">
        <ele>206</ele>
        <time>2020-09-22T10:31:11Z</time>
      </trkpt>
      <trkpt lat="46.47257" lon="4.859">
        <ele>203</ele>
        <time>2020-09-22T10:31:22Z</time>
      </trkpt>
      <trkpt lat="46.47317" lon="4.85944">
        <ele>199</ele>
        <time>2020-09-22T10:31:37Z</time>
      </trkpt>
      <trkpt lat="46.47378" lon="4.85984">
        <ele>198</ele>
        <time>2020-09-22T10:31:53Z</time>
      </trkpt>
      <trkpt lat="46.47447" lon="4.85998">
        <ele>197</ele>
        <time>2020-09-22T10:32:09Z</time>
      </trkpt>
      <trkpt lat="46.47485" lon="4.86013">
        <ele>195</ele>
        <time>2020-09-22T10:32:18Z</time>
      </trkpt>
      <trkpt lat="46.47516" lon="4.86015">
        <ele>195</ele>
        <time>2020-09-22T10:32:26Z</time>
      </trkpt>
      <trkpt lat="46.47527" lon="4.86011">
        <ele>195</ele>
        <time>2020-09-22T10:32:28Z</time>
      </trkpt>
      <trkpt lat="46.47557" lon="4.85988">
        <ele>194</ele>
        <time>2020-09-22T10:32:36Z</time>
      </trkpt>
      <trkpt lat="46.4758" lon="4.85976">
        <ele>194</ele>
        <time>2020-09-22T10:32:42Z</time>
      </trkpt>
      <trkpt lat="46.47598" lon="4.85973">
        <ele>194</ele>
        <time>2020-09-22T10:32:46Z</time>
      </trkpt>
      <trkpt lat="46.4767" lon="4.85981">
        <ele>195</ele>
        <time>2020-09-22T10:33:03Z</time>
      </trkpt>
      <trkpt lat="46.47665" lon="4.86039">
        <ele>196</ele>
        <time>2020-09-22T10:33:12Z</time>
      </trkpt>
      <trkpt lat="46.47658" lon="4.86078">
        <ele>196</ele>
        <time>2020-09-22T10:33:19Z</time>
      </trkpt>
      <trkpt lat="46.47652" lon="4.86097">
        <ele>196</ele>
        <time>2020-09-22T10:33:22Z</time>
      </trkpt>
      <trkpt lat="46.47652" lon="4.86111">
        <ele>197</ele>
        <time>2020-09-22T10:33:24Z</time>
      </trkpt>
      <trkpt lat="46.47666" lon="4.86118">
        <ele>197</ele>
        <time>2020-09-22T10:33:28Z</time>
      </trkpt>
      <trkpt lat="46.47723" lon="4.86133">
        <ele>203</ele>
        <time>2020-09-22T10:33:41Z</time>
      </trkpt>
      <trkpt lat="46.47749" lon="4.86144">
        <ele>206</ele>
        <time>2020-09-22T10:33:48Z</time>
      </trkpt>
      <trkpt lat="46.47771" lon="4.86157">
        <ele>207</ele>
        <time>2020-09-22T10:33:53Z</time>
      </trkpt>
      <trkpt lat="46.47746" lon="4.86252">
        <ele>207</ele>
        <time>2020-09-22T10:34:10Z</time>
      </trkpt>
      <trkpt lat="46.47688" lon="4.86536">
        <ele>203</ele>
        <time>2020-09-22T10:34:57Z</time>
      </trkpt>
      <trkpt lat="46.47679" lon="4.86599">
        <ele>205</ele>
        <time>2020-09-22T10:35:08Z</time>
      </trkpt>
      <trkpt lat="46.47707" lon="4.86611">
        <ele>207</ele>
        <time>2020-09-22T10:35:14Z</time>
      </trkpt>
      <trkpt lat="46.47955" lon="4.86756">
        <ele>209</ele>
        <time>2020-09-22T10:36:17Z</time>
      </trkpt>
      <trkpt lat="46.48027" lon="4.86815">
        <ele>205</ele>
        <time>2020-09-22T10:36:36Z</time>
      </trkpt>
      <trkpt lat="46.48038" lon="4.86819">
        <ele>205</ele>
        <time>2020-09-22T10:36:39Z</time>
      </trkpt>
      <trkpt lat="46.48052" lon="4.86819">
        <ele>204</ele>
        <time>2020-09-22T10:36:42Z</time>
      </trkpt>
      <trkpt lat="46.48097" lon="4.86813">
        <ele>202</ele>
        <time>2020-09-22T10:36:53Z</time>
      </trkpt>
      <trkpt lat="46.48106" lon="4.86815">
        <ele>202</ele>
        <time>2020-09-22T10:36:55Z</time>
      </trkpt>
      <trkpt lat="46.48124" lon="4.86814">
        <ele>201</ele>
        <time>2020-09-22T10:36:59Z</time>
      </trkpt>
      <trkpt lat="46.48136" lon="4.86807">
        <ele>201</ele>
        <time>2020-09-22T10:37:02Z</time>
      </trkpt>
      <trkpt lat="46.48145" lon="4.86808">
        <ele>200</ele>
        <time>2020-09-22T10:37:04Z</time>
      </trkpt>
      <trkpt lat="46.48174" lon="4.86815">
        <ele>200</ele>
        <time>2020-09-22T10:37:11Z</time>
      </trkpt>
      <trkpt lat="46.482" lon="4.86829">
        <ele>201</ele>
        <time>2020-09-22T10:37:17Z</time>
      </trkpt>
      <trkpt lat="46.48229" lon="4.8684">
        <ele>202</ele>
        <time>2020-09-22T10:37:24Z</time>
      </trkpt>
      <trkpt lat="46.48284" lon="4.86854">
        <ele>204</ele>
        <time>2020-09-22T10:37:38Z</time>
      </trkpt>
      <trkpt lat="46.48351" lon="4.86883">
        <ele>205</ele>
        <time>2020-09-22T10:37:54Z</time>
      </trkpt>
      <trkpt lat="46.48351" lon="4.86899">
        <ele>205</ele>
        <time>2020-09-22T10:37:56Z</time>
      </trkpt>
      <trkpt lat="46.48321" lon="4.86992">
        <ele>204</ele>
        <time>2020-09-22T10:38:13Z</time>
      </trkpt>
      <trkpt lat="46.48301" lon="4.8708">
        <ele>206</ele>
        <time>2020-09-22T10:38:28Z</time>
      </trkpt>
      <trkpt lat="46.48269" lon="4.87322">
        <ele>203</ele>
        <time>2020-09-22T10:39:07Z</time>
      </trkpt>
      <trkpt lat="46.48239" lon="4.87511">
        <ele>199</ele>
        <time>2020-09-22T10:39:39Z</time>
      </trkpt>
      <trkpt lat="46.48231" lon="4.87596">
        <ele>198</ele>
        <time>2020-09-22T10:39:52Z</time>
      </trkpt>
      <trkpt lat="46.48218" lon="4.87669">
        <ele>196</ele>
        <time>2020-09-22T10:40:05Z</time>
      </trkpt>
      <trkpt lat="46.48213" lon="4.87719">
        <ele>195</ele>
        <time>2020-09-22T10:40:13Z</time>
      </trkpt>
      <trkpt lat="46.48224" lon="4.87816">
        <ele>193</ele>
        <time>2020-09-22T10:40:29Z</time>
      </trkpt>
      <trkpt lat="46.48225" lon="4.87868">
        <ele>192</ele>
        <time>2020-09-22T10:40:37Z</time>
      </trkpt>
      <trkpt lat="46.48234" lon="4.87883">
        <ele>192</ele>
        <time>2020-09-22T10:40:40Z</time>
      </trkpt>
      <trkpt lat="46.48252" lon="4.8789">
        <ele>191</ele>
        <time>2020-09-22T10:40:44Z</time>
      </trkpt>
      <trkpt lat="46.48445" lon="4.87939">
        <ele>196</ele>
        <time>2020-09-22T10:41:30Z</time>
      </trkpt>
      <trkpt lat="46.48554" lon="4.87959">
        <ele>198</ele>
        <time>2020-09-22T10:41:56Z</time>
      </trkpt>
      <trkpt lat="46.48624" lon="4.87965">
        <ele>199</ele>
        <time>2020-09-22T10:42:12Z</time>
      </trkpt>
      <trkpt lat="46.48658" lon="4.87975">
        <ele>199</ele>
        <time>2020-09-22T10:42:20Z</time>
      </trkpt>
      <trkpt lat="46.48679" lon="4.8799">
        <ele>199</ele>
        <time>2020-09-22T10:42:26Z</time>
      </trkpt>
      <trkpt lat="46.48694" lon="4.88006">
        <ele>200</ele>
        <time>2020-09-22T10:42:30Z</time>
      </trkpt>
      <trkpt lat="46.48729" lon="4.88076">
        <ele>201</ele>
        <time>2020-09-22T10:42:44Z</time>
      </trkpt>
      <trkpt lat="46.4876" lon="4.88113">
        <ele>202</ele>
        <time>2020-09-22T10:42:53Z</time>
      </trkpt>
      <trkpt lat="46.48782" lon="4.88131">
        <ele>202</ele>
        <time>2020-09-22T10:42:59Z</time>
      </trkpt>
      <trkpt lat="46.4883" lon="4.88159">
        <ele>203</ele>
        <time>2020-09-22T10:43:11Z</time>
      </trkpt>
      <trkpt lat="46.48872" lon="4.88177">
        <ele>203</ele>
        <time>2020-09-22T10:43:22Z</time>
      </trkpt>
      <trkpt lat="46.4896" lon="4.88195">
        <ele>202</ele>
        <time>2020-09-22T10:43:42Z</time>
      </trkpt>
      <trkpt lat="46.48989" lon="4.88209">
        <ele>201</ele>
        <time>2020-09-22T10:43:49Z</time>
      </trkpt>
      <trkpt lat="46.49007" lon="4.88215">
        <ele>201</ele>
        <time>2020-09-22T10:43:54Z</time>
      </trkpt>
      <trkpt lat="46.49063" lon="4.88223">
        <ele>200</ele>
        <time>2020-09-22T10:44:07Z</time>
      </trkpt>
      <trkpt lat="46.49167" lon="4.88231">
        <ele>198</ele>
        <time>2020-09-22T10:44:31Z</time>
      </trkpt>
      <trkpt lat="46.49181" lon="4.8823">
        <ele>198</ele>
        <time>2020-09-22T10:44:35Z</time>
      </trkpt>
      <trkpt lat="46.49201" lon="4.88216">
        <ele>198</ele>
        <time>2020-09-22T10:44:40Z</time>
      </trkpt>
      <trkpt lat="46.49228" lon="4.88176">
        <ele>200</ele>
        <time>2020-09-22T10:44:49Z</time>
      </trkpt>
      <trkpt lat="46.49241" lon="4.88161">
        <ele>201</ele>
        <time>2020-09-22T10:44:53Z</time>
      </trkpt>
      <trkpt lat="46.49276" lon="4.88134">
        <ele>203</ele>
        <time>2020-09-22T10:45:02Z</time>
      </trkpt>
      <trkpt lat="46.49315" lon="4.88111">
        <ele>205</ele>
        <time>2020-09-22T10:45:12Z</time>
      </trkpt>
      <trkpt lat="46.49337" lon="4.88103">
        <ele>205</ele>
        <time>2020-09-22T10:45:17Z</time>
      </trkpt>
      <trkpt lat="46.49357" lon="4.88101">
        <ele>205</ele>
        <time>2020-09-22T10:45:22Z</time>
      </trkpt>
      <trkpt lat="46.4937" lon="4.88103">
        <ele>205</ele>
        <time>2020-09-22T10:45:25Z</time>
      </trkpt>
      <trkpt lat="46.49383" lon="4.8811">
        <ele>204</ele>
        <time>2020-09-22T10:45:28Z</time>
      </trkpt>
      <trkpt lat="46.49445" lon="4.8816">
        <ele>200</ele>
        <time>2020-09-22T10:45:45Z</time>
      </trkpt>
      <trkpt lat="46.4947" lon="4.8817">
        <ele>199</ele>
        <time>2020-09-22T10:45:51Z</time>
      </trkpt>
      <trkpt lat="46.49571" lon="4.88189">
        <ele>203</ele>
        <time>2020-09-22T10:46:14Z</time>
      </trkpt>
      <trkpt lat="46.49667" lon="4.88195">
        <ele>208</ele>
        <time>2020-09-22T10:46:37Z</time>
      </trkpt>
      <trkpt lat="46.49699" lon="4.88204">
        <ele>209</ele>
        <time>2020-09-22T10:46:44Z</time>
      </trkpt>
      <trkpt lat="46.49774" lon="4.88245">
        <ele>210</ele>
        <time>2020-09-22T10:47:03Z</time>
      </trkpt>
      <trkpt lat="46.49816" lon="4.88275">
        <ele>209</ele>
        <time>2020-09-22T10:47:14Z</time>
      </trkpt>
      <trkpt lat="46.49868" lon="4.88296">
        <ele>211</ele>
        <time>2020-09-22T10:47:27Z</time>
      </trkpt>
      <trkpt lat="46.49884" lon="4.88296">
        <ele>211</ele>
        <time>2020-09-22T10:47:30Z</time>
      </trkpt>
      <trkpt lat="46.49892" lon="4.88292">
        <ele>212</ele>
        <time>2020-09-22T10:47:32Z</time>
      </trkpt>
      <trkpt lat="46.49933" lon="4.8824">
        <ele>213</ele>
        <time>2020-09-22T10:47:45Z</time>
      </trkpt>
      <trkpt lat="46.49937" lon="4.88238">
        <ele>213</ele>
        <time>2020-09-22T10:47:46Z</time>
      </trkpt>
      <trkpt lat="46.49949" lon="4.88237">
        <ele>214</ele>
        <time>2020-09-22T10:47:49Z</time>
      </trkpt>
      <trkpt lat="46.49978" lon="4.88267">
        <ele>214</ele>
        <time>2020-09-22T10:47:57Z</time>
      </trkpt>
      <trkpt lat="46.50033" lon="4.88346">
        <ele>217</ele>
        <time>2020-09-22T10:48:15Z</time>
      </trkpt>
      <trkpt lat="46.50075" lon="4.88389">
        <ele>220</ele>
        <time>2020-09-22T10:48:27Z</time>
      </trkpt>
      <trkpt lat="46.50107" lon="4.88427">
        <ele>221</ele>
        <time>2020-09-22T10:48:37Z</time>
      </trkpt>
      <trkpt lat="46.50112" lon="4.8844">
        <ele>221</ele>
        <time>2020-09-22T10:48:39Z</time>
      </trkpt>
      <trkpt lat="46.50106" lon="4.88465">
        <ele>221</ele>
        <time>2020-09-22T10:48:44Z</time>
      </trkpt>
      <trkpt lat="46.50104" lon="4.88485">
        <ele>220</ele>
        <time>2020-09-22T10:48:47Z</time>
      </trkpt>
      <trkpt lat="46.50146" lon="4.8854">
        <ele>220</ele>
        <time>2020-09-22T10:49:00Z</time>
      </trkpt>
      <trkpt lat="46.50157" lon="4.88551">
        <ele>220</ele>
        <time>2020-09-22T10:49:03Z</time>
      </trkpt>
      <trkpt lat="46.50163" lon="4.88562">
        <ele>220</ele>
        <time>2020-09-22T10:49:05Z</time>
      </trkpt>
      <trkpt lat="46.50169" lon="4.88569">
        <ele>220</ele>
        <time>2020-09-22T10:49:07Z</time>
      </trkpt>
      <trkpt lat="46.50178" lon="4.88572">
        <ele>221</ele>
        <time>2020-09-22T10:49:09Z</time>
      </trkpt>
      <trkpt lat="46.50229" lon="4.88576">
        <ele>222</ele>
        <time>2020-09-22T10:49:21Z</time>
      </trkpt>
      <trkpt lat="46.50238" lon="4.8858">
        <ele>222</ele>
        <time>2020-09-22T10:49:23Z</time>
      </trkpt>
      <trkpt lat="46.50238" lon="4.88617">
        <ele>221</ele>
        <time>2020-09-22T10:49:29Z</time>
      </trkpt>
      <trkpt lat="46.50221" lon="4.88705">
        <ele>218</ele>
        <time>2020-09-22T10:49:44Z</time>
      </trkpt>
      <trkpt lat="46.50221" lon="4.8873">
        <ele>218</ele>
        <time>2020-09-22T10:49:48Z</time>
      </trkpt>
      <trkpt lat="46.50213" lon="4.88736">
        <ele>217</ele>
        <time>2020-09-22T10:49:50Z</time>
      </trkpt>
      <trkpt lat="46.50219" lon="4.88745">
        <ele>217</ele>
        <time>2020-09-22T10:49:52Z</time>
      </trkpt>
      <trkpt lat="46.50223" lon="4.88761">
        <ele>217</ele>
        <time>2020-09-22T10:49:55Z</time>
      </trkpt>
      <trkpt lat="46.50248" lon="4.88827">
        <ele>219</ele>
        <time>2020-09-22T10:50:07Z</time>
      </trkpt>
      <trkpt lat="46.50311" lon="4.88897">
        <ele>220</ele>
        <time>2020-09-22T10:50:26Z</time>
      </trkpt>
      <trkpt lat="46.50345" lon="4.88922">
        <ele>220</ele>
        <time>2020-09-22T10:50:35Z</time>
      </trkpt>
      <trkpt lat="46.50359" lon="4.88926">
        <ele>221</ele>
        <time>2020-09-22T10:50:38Z</time>
      </trkpt>
      <trkpt lat="46.50382" lon="4.88926">
        <ele>222</ele>
        <time>2020-09-22T10:50:43Z</time>
      </trkpt>
      <trkpt lat="46.50389" lon="4.88922">
        <ele>223</ele>
        <time>2020-09-22T10:50:45Z</time>
      </trkpt>
      <trkpt lat="46.50399" lon="4.88927">
        <ele>223</ele>
        <time>2020-09-22T10:50:47Z</time>
      </trkpt>
      <trkpt lat="46.50452" lon="4.88943">
        <ele>224</ele>
        <time>2020-09-22T10:51:00Z</time>
      </trkpt>
      <trkpt lat="46.5047" lon="4.88955">
        <ele>225</ele>
        <time>2020-09-22T10:51:05Z</time>
      </trkpt>
      <trkpt lat="46.5052" lon="4.89011">
        <ele>226</ele>
        <time>2020-09-22T10:51:19Z</time>
      </trkpt>
      <trkpt lat="46.50573" lon="4.89062">
        <ele>227</ele>
        <time>2020-09-22T10:51:34Z</time>
      </trkpt>
      <trkpt lat="46.50575" lon="4.8907">
        <ele>227</ele>
        <time>2020-09-22T10:51:36Z</time>
      </trkpt>
      <trkpt lat="46.50574" lon="4.89082">
        <ele>227</ele>
        <time>2020-09-22T10:51:38Z</time>
      </trkpt>
      <trkpt lat="46.50566" lon="4.89104">
        <ele>226</ele>
        <time>2020-09-22T10:51:42Z</time>
      </trkpt>
      <trkpt lat="46.50532" lon="4.89171">
        <ele>224</ele>
        <time>2020-09-22T10:51:55Z</time>
      </trkpt>
      <trkpt lat="46.50488" lon="4.893">
        <ele>220</ele>
        <time>2020-09-22T10:52:18Z</time>
      </trkpt>
      <trkpt lat="46.50466" lon="4.89376">
        <ele>218</ele>
        <time>2020-09-22T10:52:31Z</time>
      </trkpt>
      <trkpt lat="46.50465" lon="4.89393">
        <ele>218</ele>
        <time>2020-09-22T10:52:34Z</time>
      </trkpt>
      <trkpt lat="46.50568" lon="4.89477">
        <ele>218</ele>
        <time>2020-09-22T10:53:02Z</time>
      </trkpt>
      <trkpt lat="46.50573" lon="4.89486">
        <ele>218</ele>
        <time>2020-09-22T10:53:04Z</time>
      </trkpt>
      <trkpt lat="46.50565" lon="4.89531">
        <ele>216</ele>
        <time>2020-09-22T10:53:11Z</time>
      </trkpt>
      <trkpt lat="46.50549" lon="4.89683">
        <ele>213</ele>
        <time>2020-09-22T10:53:36Z</time>
      </trkpt>
      <trkpt lat="46.50547" lon="4.8976">
        <ele>211</ele>
        <time>2020-09-22T10:53:48Z</time>
      </trkpt>
      <trkpt lat="46.50552" lon="4.89862">
        <ele>210</ele>
        <time>2020-09-22T10:54:05Z</time>
      </trkpt>
      <trkpt lat="46.50584" lon="4.9006">
        <ele>206</ele>
        <time>2020-09-22T10:54:37Z</time>
      </trkpt>
      <trkpt lat="46.50512" lon="4.90014">
        <ele>207</ele>
        <time>2020-09-22T10:54:56Z</time>
      </trkpt>
      <trkpt lat="46.50371" lon="4.89916">
        <ele>206</ele>
        <time>2020-09-22T10:55:32Z</time>
      </trkpt>
      <trkpt lat="46.50357" lon="4.89913">
        <ele>206</ele>
        <time>2020-09-22T10:55:35Z</time>
      </trkpt>
      <trkpt lat="46.50357" lon="4.89928">
        <ele>206</ele>
        <time>2020-09-22T10:55:38Z</time>
      </trkpt>
      <trkpt lat="46.50327" lon="4.90025">
        <ele>203</ele>
        <time>2020-09-22T10:55:55Z</time>
      </trkpt>
      <trkpt lat="46.50284" lon="4.90199">
        <ele>197</ele>
        <time>2020-09-22T10:56:25Z</time>
      </trkpt>
      <trkpt lat="46.50275" lon="4.90223">
        <ele>196</ele>
        <time>2020-09-22T10:56:29Z</time>
      </trkpt>
      <trkpt lat="46.50264" lon="4.9024">
        <ele>196</ele>
        <time>2020-09-22T10:56:33Z</time>
      </trkpt>
      <trkpt lat="46.50245" lon="4.9026">
        <ele>195</ele>
        <time>2020-09-22T10:56:38Z</time>
      </trkpt>
      <trkpt lat="46.50236" lon="4.90266">
        <ele>195</ele>
        <time>2020-09-22T10:56:41Z</time>
      </trkpt>
      <trkpt lat="46.50195" lon="4.90275">
        <ele>196</ele>
        <time>2020-09-22T10:56:50Z</time>
      </trkpt>
      <trkpt lat="46.50175" lon="4.90295">
        <ele>196</ele>
        <time>2020-09-22T10:56:56Z</time>
      </trkpt>
      <trkpt lat="46.50148" lon="4.90351">
        <ele>195</ele>
        <time>2020-09-22T10:57:07Z</time>
      </trkpt>
      <trkpt lat="46.50147" lon="4.90366">
        <ele>195</ele>
        <time>2020-09-22T10:57:09Z</time>
      </trkpt>
      <trkpt lat="46.50149" lon="4.90375">
        <ele>195</ele>
        <time>2020-09-22T10:57:11Z</time>
      </trkpt>
      <trkpt lat="46.50174" lon="4.90408">
        <ele>195</ele>
        <time>2020-09-22T10:57:19Z</time>
      </trkpt>
      <trkpt lat="46.50176" lon="4.90422">
        <ele>195</ele>
        <time>2020-09-22T10:57:21Z</time>
      </trkpt>
      <trkpt lat="46.50166" lon="4.90467">
        <ele>194</ele>
        <time>2020-09-22T10:57:29Z</time>
      </trkpt>
      <trkpt lat="46.50162" lon="4.90505">
        <ele>193</ele>
        <time>2020-09-22T10:57:35Z</time>
      </trkpt>
      <trkpt lat="46.50157" lon="4.90593">
        <ele>193</ele>
        <time>2020-09-22T10:57:49Z</time>
      </trkpt>
      <trkpt lat="46.50145" lon="4.90698">
        <ele>191</ele>
        <time>2020-09-22T10:58:06Z</time>
      </trkpt>
      <trkpt lat="46.50143" lon="4.90788">
        <ele>191</ele>
        <time>2020-09-22T10:58:21Z</time>
      </trkpt>
      <trkpt lat="46.49939" lon="4.90679">
        <ele>187</ele>
        <time>2020-09-22T10:59:11Z</time>
      </trkpt>
      <trkpt lat="46.49818" lon="4.90619">
        <ele>189</ele>
        <time>2020-09-22T10:59:41Z</time>
      </trkpt>
      <trkpt lat="46.49807" lon="4.90725">
        <ele>188</ele>
        <time>2020-09-22T10:59:58Z</time>
      </trkpt>
      <trkpt lat="46.498" lon="4.9077">
        <ele>187</ele>
        <time>2020-09-22T11:00:06Z</time>
      </trkpt>
      <trkpt lat="46.49788" lon="4.90816">
        <ele>185</ele>
        <time>2020-09-22T11:00:14Z</time>
      </trkpt>
      <trkpt lat="46.49767" lon="4.90863">
        <ele>183</ele>
        <time>2020-09-22T11:00:23Z</time>
      </trkpt>
      <trkpt lat="46.49746" lon="4.90918">
        <ele>180</ele>
        <time>2020-09-22T11:00:33Z</time>
      </trkpt>
      <trkpt lat="46.4973" lon="4.90983">
        <ele>176</ele>
        <time>2020-09-22T11:00:44Z</time>
      </trkpt>
      <trkpt lat="46.49696" lon="4.91052">
        <ele>174</ele>
        <time>2020-09-22T11:00:58Z</time>
      </trkpt>
      <trkpt lat="46.49648" lon="4.91163">
        <ele>172</ele>
        <time>2020-09-22T11:01:19Z</time>
      </trkpt>
      <trkpt lat="46.49468" lon="4.91608">
        <ele>171</ele>
        <time>2020-09-22T11:02:42Z</time>
      </trkpt>
      <trkpt lat="46.49467" lon="4.91625">
        <ele>171</ele>
        <time>2020-09-22T11:02:44Z</time>
      </trkpt>
      <trkpt lat="46.49461" lon="4.91628">
        <ele>171</ele>
        <time>2020-09-22T11:02:46Z</time>
      </trkpt>
      <trkpt lat="46.49456" lon="4.91638">
        <ele>171</ele>
        <time>2020-09-22T11:02:48Z</time>
      </trkpt>
      <trkpt lat="46.49411" lon="4.91749">
        <ele>172</ele>
        <time>2020-09-22T11:03:09Z</time>
      </trkpt>
      <trkpt lat="46.49375" lon="4.91725">
        <ele>172</ele>
        <time>2020-09-22T11:03:18Z</time>
      </trkpt>
      <trkpt lat="46.49314" lon="4.91672">
        <ele>170</ele>
        <time>2020-09-22T11:03:34Z</time>
      </trkpt>
      <trkpt lat="46.49253" lon="4.91595">
        <ele>169</ele>
        <time>2020-09-22T11:03:53Z</time>
      </trkpt>
      <trkpt lat="46.49193" lon="4.91528">
        <ele>171</ele>
        <time>2020-09-22T11:04:11Z</time>
      </trkpt>
      <trkpt lat="46.49152" lon="4.91486">
        <ele>171</ele>
        <time>2020-09-22T11:04:23Z</time>
      </trkpt>
      <trkpt lat="46.49073" lon="4.91422">
        <ele>172</ele>
        <time>2020-09-22T11:04:44Z</time>
      </trkpt>
      <trkpt lat="46.49035" lon="4.9138">
        <ele>172</ele>
        <time>2020-09-22T11:04:55Z</time>
      </trkpt>
      <trkpt lat="46.48979" lon="4.91337">
        <ele>172</ele>
        <time>2020-09-22T11:05:10Z</time>
      </trkpt>
      <trkpt lat="46.48956" lon="4.91323">
        <ele>172</ele>
        <time>2020-09-22T11:05:16Z</time>
      </trkpt>
      <trkpt lat="46.48862" lon="4.91277">
        <ele>173</ele>
        <time>2020-09-22T11:05:39Z</time>
      </trkpt>
      <trkpt lat="46.48821" lon="4.9126">
        <ele>173</ele>
        <time>2020-09-22T11:05:49Z</time>
      </trkpt>
      <trkpt lat="46.48781" lon="4.91247">
        <ele>173</ele>
        <time>2020-09-22T11:05:58Z</time>
      </trkpt>
      <trkpt lat="46.48763" lon="4.91244">
        <ele>173</ele>
        <time>2020-09-22T11:06:03Z</time>
      </trkpt>
      <trkpt lat="46.48762" lon="4.91253">
        <ele>173</ele>
        <time>2020-09-22T11:06:04Z</time>
      </trkpt>
      <trkpt lat="46.48622" lon="4.91224">
        <ele>173</ele>
        <time>2020-09-22T11:06:37Z</time>
      </trkpt>
      <trkpt lat="46.48591" lon="4.91224">
        <ele>173</ele>
        <time>2020-09-22T11:06:44Z</time>
      </trkpt>
      <trkpt lat="46.48461" lon="4.91255">
        <ele>172</ele>
        <time>2020-09-22T11:07:15Z</time>
      </trkpt>
      <trkpt lat="46.48439" lon="4.91258">
        <ele>172</ele>
        <time>2020-09-22T11:07:20Z</time>
      </trkpt>
      <trkpt lat="46.48309" lon="4.91253">
        <ele>174</ele>
        <time>2020-09-22T11:07:51Z</time>
      </trkpt>
      <trkpt lat="46.48297" lon="4.91254">
        <ele>173</ele>
        <time>2020-09-22T11:07:53Z</time>
      </trkpt>
      <trkpt lat="46.48269" lon="4.91262">
        <ele>173</ele>
        <time>2020-09-22T11:08:00Z</time>
      </trkpt>
      <trkpt lat="46.48237" lon="4.91263">
        <ele>173</ele>
        <time>2020-09-22T11:08:08Z</time>
      </trkpt>
      <trkpt lat="46.48207" lon="4.91262">
        <ele>173</ele>
        <time>2020-09-22T11:08:15Z</time>
      </trkpt>
      <trkpt lat="46.48197" lon="4.91259">
        <ele>173</ele>
        <time>2020-09-22T11:08:17Z</time>
      </trkpt>
      <trkpt lat="46.48144" lon="4.91254">
        <ele>173</ele>
        <time>2020-09-22T11:08:29Z</time>
      </trkpt>
      <trkpt lat="46.48101" lon="4.91254">
        <ele>174</ele>
        <time>2020-09-22T11:08:39Z</time>
      </trkpt>
      <trkpt lat="46.48078" lon="4.91258">
        <ele>174</ele>
        <time>2020-09-22T11:08:45Z</time>
      </trkpt>
      <trkpt lat="46.47976" lon="4.91267">
        <ele>173</ele>
        <time>2020-09-22T11:09:09Z</time>
      </trkpt>
      <trkpt lat="46.47819" lon="4.91287">
        <ele>171</ele>
        <time>2020-09-22T11:09:45Z</time>
      </trkpt>
      <trkpt lat="46.47803" lon="4.9129">
        <ele>171</ele>
        <time>2020-09-22T11:09:49Z</time>
      </trkpt>
      <trkpt lat="46.47777" lon="4.91299">
        <ele>170</ele>
        <time>2020-09-22T11:09:55Z</time>
      </trkpt>
      <trkpt lat="46.47744" lon="4.91318">
        <ele>170</ele>
        <time>2020-09-22T11:10:04Z</time>
      </trkpt>
      <trkpt lat="46.4768" lon="4.91332">
        <ele>173</ele>
        <time>2020-09-22T11:10:19Z</time>
      </trkpt>
      <trkpt lat="46.4764" lon="4.91335">
        <ele>173</ele>
        <time>2020-09-22T11:10:28Z</time>
      </trkpt>
      <trkpt lat="46.47619" lon="4.91343">
        <ele>172</ele>
        <time>2020-09-22T11:10:33Z</time>
      </trkpt>
      <trkpt lat="46.47579" lon="4.91366">
        <ele>171</ele>
        <time>2020-09-22T11:10:43Z</time>
      </trkpt>
      <trkpt lat="46.47564" lon="4.91372">
        <ele>170</ele>
        <time>2020-09-22T11:10:47Z</time>
      </trkpt>
      <trkpt lat="46.47427" lon="4.91403">
        <ele>170</ele>
        <time>2020-09-22T11:11:19Z</time>
      </trkpt>
      <trkpt lat="46.47384" lon="4.9141">
        <ele>172</ele>
        <time>2020-09-22T11:11:29Z</time>
      </trkpt>
      <trkpt lat="46.47282" lon="4.91417">
        <ele>172</ele>
        <time>2020-09-22T11:11:53Z</time>
      </trkpt>
      <trkpt lat="46.47122" lon="4.91409">
        <ele>174</ele>
        <time>2020-09-22T11:12:31Z</time>
      </trkpt>
      <trkpt lat="46.47067" lon="4.91409">
        <ele>174</ele>
        <time>2020-09-22T11:12:44Z</time>
      </trkpt>
      <trkpt lat="46.46991" lon="4.91413">
        <ele>168</ele>
        <time>2020-09-22T11:13:01Z</time>
      </trkpt>
      <trkpt lat="46.46973" lon="4.9141">
        <ele>169</ele>
        <time>2020-09-22T11:13:06Z</time>
      </trkpt>
      <trkpt lat="46.46962" lon="4.91414">
        <ele>169</ele>
        <time>2020-09-22T11:13:08Z</time>
      </trkpt>
      <trkpt lat="46.46889" lon="4.91413">
        <ele>171</ele>
        <time>2020-09-22T11:13:25Z</time>
      </trkpt>
      <trkpt lat="46.46854" lon="4.9142">
        <ele>172</ele>
        <time>2020-09-22T11:13:33Z</time>
      </trkpt>
      <trkpt lat="46.46792" lon="4.91415">
        <ele>172</ele>
        <time>2020-09-22T11:13:48Z</time>
      </trkpt>
      <trkpt lat="46.46777" lon="4.91411">
        <ele>172</ele>
        <time>2020-09-22T11:13:52Z</time>
      </trkpt>
      <trkpt lat="46.4675" lon="4.91395">
        <ele>172</ele>
        <time>2020-09-22T11:13:58Z</time>
      </trkpt>
      <trkpt lat="46.4673" lon="4.91378">
        <ele>171</ele>
        <time>2020-09-22T11:14:04Z</time>
      </trkpt>
      <trkpt lat="46.4672" lon="4.91373">
        <ele>171</ele>
        <time>2020-09-22T11:14:06Z</time>
      </trkpt>
      <trkpt lat="46.46703" lon="4.91368">
        <ele>171</ele>
        <time>2020-09-22T11:14:10Z</time>
      </trkpt>
      <trkpt lat="46.46664" lon="4.91374">
        <ele>171</ele>
        <time>2020-09-22T11:14:19Z</time>
      </trkpt>
      <trkpt lat="46.46655" lon="4.91373">
        <ele>171</ele>
        <time>2020-09-22T11:14:22Z</time>
      </trkpt>
      <trkpt lat="46.46638" lon="4.91368">
        <ele>171</ele>
        <time>2020-09-22T11:14:26Z</time>
      </trkpt>
      <trkpt lat="46.46602" lon="4.91348">
        <ele>171</ele>
        <time>2020-09-22T11:14:35Z</time>
      </trkpt>
      <trkpt lat="46.4657" lon="4.91335">
        <ele>171</ele>
        <time>2020-09-22T11:14:42Z</time>
      </trkpt>
      <trkpt lat="46.46528" lon="4.91327">
        <ele>170</ele>
        <time>2020-09-22T11:14:52Z</time>
      </trkpt>
      <trkpt lat="46.46452" lon="4.91302">
        <ele>170</ele>
        <time>2020-09-22T11:15:10Z</time>
      </trkpt>
      <trkpt lat="46.46445" lon="4.91297">
        <ele>170</ele>
        <time>2020-09-22T11:15:12Z</time>
      </trkpt>
      <trkpt lat="46.46432" lon="4.91303">
        <ele>171</ele>
        <time>2020-09-22T11:15:15Z</time>
      </trkpt>
      <trkpt lat="46.46375" lon="4.91299">
        <ele>171</ele>
        <time>2020-09-22T11:15:29Z</time>
      </trkpt>
      <trkpt lat="46.46325" lon="4.91288">
        <ele>171</ele>
        <time>2020-09-22T11:15:41Z</time>
      </trkpt>
      <trkpt lat="46.46293" lon="4.91278">
        <ele>171</ele>
        <time>2020-09-22T11:15:48Z</time>
      </trkpt>
      <trkpt lat="46.46217" lon="4.91244">
        <ele>173</ele>
        <time>2020-09-22T11:16:07Z</time>
      </trkpt>
      <trkpt lat="46.46165" lon="4.91216">
        <ele>172</ele>
        <time>2020-09-22T11:16:20Z</time>
      </trkpt>
      <trkpt lat="46.46115" lon="4.91186">
        <ele>172</ele>
        <time>2020-09-22T11:16:32Z</time>
      </trkpt>
      <trkpt lat="46.46039" lon="4.91133">
        <ele>171</ele>
        <time>2020-09-22T11:16:52Z</time>
      </trkpt>
      <trkpt lat="46.46009" lon="4.91108">
        <ele>170</ele>
        <time>2020-09-22T11:17:00Z</time>
      </trkpt>
      <trkpt lat="46.45954" lon="4.91051">
        <ele>169</ele>
        <time>2020-09-22T11:17:16Z</time>
      </trkpt>
      <trkpt lat="46.459" lon="4.9099">
        <ele>170</ele>
        <time>2020-09-22T11:17:32Z</time>
      </trkpt>
      <trkpt lat="46.45857" lon="4.90913">
        <ele>170</ele>
        <time>2020-09-22T11:17:48Z</time>
      </trkpt>
      <trkpt lat="46.45767" lon="4.90808">
        <ele>171</ele>
        <time>2020-09-22T11:18:15Z</time>
      </trkpt>
      <trkpt lat="46.45745" lon="4.9078">
        <ele>170</ele>
        <time>2020-09-22T11:18:22Z</time>
      </trkpt>
      <trkpt lat="46.45705" lon="4.9072">
        <ele>170</ele>
        <time>2020-09-22T11:18:35Z</time>
      </trkpt>
      <trkpt lat="46.45681" lon="4.90678">
        <ele>171</ele>
        <time>2020-09-22T11:18:44Z</time>
      </trkpt>
      <trkpt lat="46.45577" lon="4.90477">
        <ele>171</ele>
        <time>2020-09-22T11:19:24Z</time>
      </trkpt>
      <trkpt lat="46.45555" lon="4.90439">
        <ele>170</ele>
        <time>2020-09-22T11:19:32Z</time>
      </trkpt>
      <trkpt lat="46.45532" lon="4.9039">
        <ele>170</ele>
        <time>2020-09-22T11:19:42Z</time>
      </trkpt>
      <trkpt lat="46.4549" lon="4.90316">
        <ele>170</ele>
        <time>2020-09-22T11:19:57Z</time>
      </trkpt>
      <trkpt lat="46.45456" lon="4.90265">
        <ele>171</ele>
        <time>2020-09-22T11:20:09Z</time>
      </trkpt>
      <trkpt lat="46.45418" lon="4.90217">
        <ele>172</ele>
        <time>2020-09-22T11:20:20Z</time>
      </trkpt>
      <trkpt lat="46.45384" lon="4.90169">
        <ele>171</ele>
        <time>2020-09-22T11:20:32Z</time>
      </trkpt>
      <trkpt lat="46.45364" lon="4.90133">
        <ele>171</ele>
        <time>2020-09-22T11:20:39Z</time>
      </trkpt>
      <trkpt lat="46.45309" lon="4.90062">
        <ele>171</ele>
        <time>2020-09-22T11:20:56Z</time>
      </trkpt>
      <trkpt lat="46.45284" lon="4.90023">
        <ele>171</ele>
        <time>2020-09-22T11:21:05Z</time>
      </trkpt>
      <trkpt lat="46.45263" lon="4.89998">
        <ele>172</ele>
        <time>2020-09-22T11:21:11Z</time>
      </trkpt>
      <trkpt lat="46.45232" lon="4.89954">
        <ele>171</ele>
        <time>2020-09-22T11:21:21Z</time>
      </trkpt>
      <trkpt lat="46.45173" lon="4.89849">
        <ele>171</ele>
        <time>2020-09-22T11:21:43Z</time>
      </trkpt>
      <trkpt lat="46.45144" lon="4.89805">
        <ele>172</ele>
        <time>2020-09-22T11:21:53Z</time>
      </trkpt>
      <trkpt lat="46.45117" lon="4.89772">
        <ele>172</ele>
        <time>2020-09-22T11:22:01Z</time>
      </trkpt>
      <trkpt lat="46.45104" lon="4.8975">
        <ele>173</ele>
        <time>2020-09-22T11:22:06Z</time>
      </trkpt>
      <trkpt lat="46.44994" lon="4.89624">
        <ele>173</ele>
        <time>2020-09-22T11:22:38Z</time>
      </trkpt>
      <trkpt lat="46.44924" lon="4.89559">
        <ele>174</ele>
        <time>2020-09-22T11:22:58Z</time>
      </trkpt>
      <trkpt lat="46.44879" lon="4.89524">
        <ele>172</ele>
        <time>2020-09-22T11:23:10Z</time>
      </trkpt>
      <trkpt lat="46.44853" lon="4.895">
        <ele>172</ele>
        <time>2020-09-22T11:23:17Z</time>
      </trkpt>
      <trkpt lat="46.44838" lon="4.89489">
        <ele>172</ele>
        <time>2020-09-22T11:23:21Z</time>
      </trkpt>
      <trkpt lat="46.4483" lon="4.89495">
        <ele>172</ele>
        <time>2020-09-22T11:23:23Z</time>
      </trkpt>
      <trkpt lat="46.44818" lon="4.89497">
        <ele>172</ele>
        <time>2020-09-22T11:23:26Z</time>
      </trkpt>
      <trkpt lat="46.44797" lon="4.89497">
        <ele>171</ele>
        <time>2020-09-22T11:23:31Z</time>
      </trkpt>
      <trkpt lat="46.44791" lon="4.89496">
        <ele>171</ele>
        <time>2020-09-22T11:23:32Z</time>
      </trkpt>
      <trkpt lat="46.44786" lon="4.89492">
        <ele>171</ele>
        <time>2020-09-22T11:23:33Z</time>
      </trkpt>
      <trkpt lat="46.44769" lon="4.89472">
        <ele>171</ele>
        <time>2020-09-22T11:23:39Z</time>
      </trkpt>
      <trkpt lat="46.44755" lon="4.89442">
        <ele>173</ele>
        <time>2020-09-22T11:23:44Z</time>
      </trkpt>
      <trkpt lat="46.44747" lon="4.89411">
        <ele>174</ele>
        <time>2020-09-22T11:23:50Z</time>
      </trkpt>
      <trkpt lat="46.44646" lon="4.89319">
        <ele>173</ele>
        <time>2020-09-22T11:24:18Z</time>
      </trkpt>
      <trkpt lat="46.44625" lon="4.89302">
        <ele>174</ele>
        <time>2020-09-22T11:24:23Z</time>
      </trkpt>
      <trkpt lat="46.44596" lon="4.89285">
        <ele>174</ele>
        <time>2020-09-22T11:24:30Z</time>
      </trkpt>
      <trkpt lat="46.44599" lon="4.89287">
        <ele>174</ele>
        <time>2020-09-22T11:24:31Z</time>
      </trkpt>
      <trkpt lat="46.44725" lon="4.88851">
        <ele>170</ele>
        <time>2020-09-22T11:25:47Z</time>
      </trkpt>
      <trkpt lat="46.44746" lon="4.8877">
        <ele>169</ele>
        <time>2020-09-22T11:26:01Z</time>
      </trkpt>
      <trkpt lat="46.44767" lon="4.88669">
        <ele>167</ele>
        <time>2020-09-22T11:26:18Z</time>
      </trkpt>
    </trkseg>
  </trk>
  <trk>
    <name><![CDATA[11 - LE_VIGNOBLE_PAR_BURGY_ET_CLESSE - Rouge]]></name>
    <extensions>
      <line xmlns="http://www.topografix.com/GPX/gpx_style/0/2">
        <color>faab00</color>
        <width>4</width>
      </line>
    </extensions>
    <trkseg>
      <trkpt lat="46.44646" lon="4.88571">
        <ele>173</ele>
        <time>2020-09-22T10:09:14Z</time>
      </trkpt>
      <trkpt lat="46.44641" lon="4.88566">
        <ele>173</ele>
        <time>2020-09-22T10:09:15Z</time>
      </trkpt>
      <trkpt lat="46.44629" lon="4.88561">
        <ele>172</ele>
        <time>2020-09-22T10:09:18Z</time>
      </trkpt>
      <trkpt lat="46.44607" lon="4.88561">
        <ele>172</ele>
        <time>2020-09-22T10:09:23Z</time>
      </trkpt>
      <trkpt lat="46.44595" lon="4.88564">
        <ele>172</ele>
        <time>2020-09-22T10:09:26Z</time>
      </trkpt>
      <trkpt lat="46.44588" lon="4.88569">
        <ele>172</ele>
        <time>2020-09-22T10:09:28Z</time>
      </trkpt>
      <trkpt lat="46.44581" lon="4.88587">
        <ele>172</ele>
        <time>2020-09-22T10:09:31Z</time>
      </trkpt>
      <trkpt lat="46.44566" lon="4.88654">
        <ele>170</ele>
        <time>2020-09-22T10:09:43Z</time>
      </trkpt>
      <trkpt lat="46.4456" lon="4.88664">
        <ele>170</ele>
        <time>2020-09-22T10:09:45Z</time>
      </trkpt>
      <trkpt lat="46.44551" lon="4.88664">
        <ele>170</ele>
        <time>2020-09-22T10:09:47Z</time>
      </trkpt>
      <trkpt lat="46.44506" lon="4.88626">
        <ele>171</ele>
        <time>2020-09-22T10:09:59Z</time>
      </trkpt>
      <trkpt lat="46.44491" lon="4.8861">
        <ele>171</ele>
        <time>2020-09-22T10:10:04Z</time>
      </trkpt>
      <trkpt lat="46.44455" lon="4.88548">
        <ele>172</ele>
        <time>2020-09-22T10:10:17Z</time>
      </trkpt>
      <trkpt lat="46.44455" lon="4.88508">
        <ele>172</ele>
        <time>2020-09-22T10:10:23Z</time>
      </trkpt>
      <trkpt lat="46.4442" lon="4.88426">
        <ele>172</ele>
        <time>2020-09-22T10:10:39Z</time>
      </trkpt>
      <trkpt lat="46.44406" lon="4.88418">
        <ele>172</ele>
        <time>2020-09-22T10:10:42Z</time>
      </trkpt>
      <trkpt lat="46.44397" lon="4.88418">
        <ele>172</ele>
        <time>2020-09-22T10:10:44Z</time>
      </trkpt>
      <trkpt lat="46.4435" lon="4.88444">
        <ele>171</ele>
        <time>2020-09-22T10:10:56Z</time>
      </trkpt>
      <trkpt lat="46.44336" lon="4.88446">
        <ele>171</ele>
        <time>2020-09-22T10:10:59Z</time>
      </trkpt>
      <trkpt lat="46.44352" lon="4.88419">
        <ele>171</ele>
        <time>2020-09-22T10:11:05Z</time>
      </trkpt>
      <trkpt lat="46.44364" lon="4.88412">
        <ele>171</ele>
        <time>2020-09-22T10:11:08Z</time>
      </trkpt>
      <trkpt lat="46.44376" lon="4.8841">
        <ele>172</ele>
        <time>2020-09-22T10:11:11Z</time>
      </trkpt>
      <trkpt lat="46.44385" lon="4.88397">
        <ele>172</ele>
        <time>2020-09-22T10:11:14Z</time>
      </trkpt>
      <trkpt lat="46.44386" lon="4.8838">
        <ele>173</ele>
        <time>2020-09-22T10:11:16Z</time>
      </trkpt>
      <trkpt lat="46.44384" lon="4.88371">
        <ele>173</ele>
        <time>2020-09-22T10:11:18Z</time>
      </trkpt>
      <trkpt lat="46.44377" lon="4.88361">
        <ele>173</ele>
        <time>2020-09-22T10:11:20Z</time>
      </trkpt>
      <trkpt lat="46.44371" lon="4.88337">
        <ele>173</ele>
        <time>2020-09-22T10:11:24Z</time>
      </trkpt>
      <trkpt lat="46.44375" lon="4.8828">
        <ele>174</ele>
        <time>2020-09-22T10:11:34Z</time>
      </trkpt>
      <trkpt lat="46.44422" lon="4.88084">
        <ele>176</ele>
        <time>2020-09-22T10:12:07Z</time>
      </trkpt>
      <trkpt lat="46.44479" lon="4.8791">
        <ele>176</ele>
        <time>2020-09-22T10:12:38Z</time>
      </trkpt>
      <trkpt lat="46.44487" lon="4.87893">
        <ele>176</ele>
        <time>2020-09-22T10:12:41Z</time>
      </trkpt>
      <trkpt lat="46.44528" lon="4.8783">
        <ele>177</ele>
        <time>2020-09-22T10:12:55Z</time>
      </trkpt>
      <trkpt lat="46.44549" lon="4.87778">
        <ele>178</ele>
        <time>2020-09-22T10:13:05Z</time>
      </trkpt>
      <trkpt lat="46.44674" lon="4.87402">
        <ele>186</ele>
        <time>2020-09-22T10:14:12Z</time>
      </trkpt>
      <trkpt lat="46.44688" lon="4.87324">
        <ele>187</ele>
        <time>2020-09-22T10:14:25Z</time>
      </trkpt>
      <trkpt lat="46.44691" lon="4.87268">
        <ele>187</ele>
        <time>2020-09-22T10:14:34Z</time>
      </trkpt>
      <trkpt lat="46.4469" lon="4.87232">
        <ele>188</ele>
        <time>2020-09-22T10:14:40Z</time>
      </trkpt>
      <trkpt lat="46.44676" lon="4.87096">
        <ele>194</ele>
        <time>2020-09-22T10:15:02Z</time>
      </trkpt>
      <trkpt lat="46.44738" lon="4.87107">
        <ele>194</ele>
        <time>2020-09-22T10:15:17Z</time>
      </trkpt>
      <trkpt lat="46.4481" lon="4.87109">
        <ele>194</ele>
        <time>2020-09-22T10:15:33Z</time>
      </trkpt>
      <trkpt lat="46.44946" lon="4.86959">
        <ele>198</ele>
        <time>2020-09-22T10:16:13Z</time>
      </trkpt>
      <trkpt lat="46.44982" lon="4.86926">
        <ele>199</ele>
        <time>2020-09-22T10:16:23Z</time>
      </trkpt>
      <trkpt lat="46.45007" lon="4.86873">
        <ele>200</ele>
        <time>2020-09-22T10:16:34Z</time>
      </trkpt>
      <trkpt lat="46.45019" lon="4.86842">
        <ele>201</ele>
        <time>2020-09-22T10:16:39Z</time>
      </trkpt>
      <trkpt lat="46.45024" lon="4.86815">
        <ele>201</ele>
        <time>2020-09-22T10:16:44Z</time>
      </trkpt>
      <trkpt lat="46.45004" lon="4.86794">
        <ele>200</ele>
        <time>2020-09-22T10:16:50Z</time>
      </trkpt>
      <trkpt lat="46.44981" lon="4.86776">
        <ele>199</ele>
        <time>2020-09-22T10:16:56Z</time>
      </trkpt>
      <trkpt lat="46.44953" lon="4.86756">
        <ele>199</ele>
        <time>2020-09-22T10:17:03Z</time>
      </trkpt>
      <trkpt lat="46.44894" lon="4.8672">
        <ele>198</ele>
        <time>2020-09-22T10:17:18Z</time>
      </trkpt>
      <trkpt lat="46.44881" lon="4.86702">
        <ele>199</ele>
        <time>2020-09-22T10:17:22Z</time>
      </trkpt>
      <trkpt lat="46.44864" lon="4.86684">
        <ele>199</ele>
        <time>2020-09-22T10:17:27Z</time>
      </trkpt>
      <trkpt lat="46.4484" lon="4.86666">
        <ele>200</ele>
        <time>2020-09-22T10:17:33Z</time>
      </trkpt>
      <trkpt lat="46.44836" lon="4.86642">
        <ele>200</ele>
        <time>2020-09-22T10:17:37Z</time>
      </trkpt>
      <trkpt lat="46.44898" lon="4.86562">
        <ele>202</ele>
        <time>2020-09-22T10:17:57Z</time>
      </trkpt>
      <trkpt lat="46.44909" lon="4.86544">
        <ele>202</ele>
        <time>2020-09-22T10:18:01Z</time>
      </trkpt>
      <trkpt lat="46.44947" lon="4.86328">
        <ele>204</ele>
        <time>2020-09-22T10:18:36Z</time>
      </trkpt>
      <trkpt lat="46.44954" lon="4.86274">
        <ele>205</ele>
        <time>2020-09-22T10:18:45Z</time>
      </trkpt>
      <trkpt lat="46.44945" lon="4.86222">
        <ele>206</ele>
        <time>2020-09-22T10:18:54Z</time>
      </trkpt>
      <trkpt lat="46.44941" lon="4.86121">
        <ele>207</ele>
        <time>2020-09-22T10:19:10Z</time>
      </trkpt>
      <trkpt lat="46.44952" lon="4.86118">
        <ele>207</ele>
        <time>2020-09-22T10:19:13Z</time>
      </trkpt>
      <trkpt lat="46.45056" lon="4.86068">
        <ele>207</ele>
        <time>2020-09-22T10:19:38Z</time>
      </trkpt>
      <trkpt lat="46.45081" lon="4.86059">
        <ele>207</ele>
        <time>2020-09-22T10:19:44Z</time>
      </trkpt>
      <trkpt lat="46.4513" lon="4.86053">
        <ele>208</ele>
        <time>2020-09-22T10:19:56Z</time>
      </trkpt>
      <trkpt lat="46.45241" lon="4.86002">
        <ele>208</ele>
        <time>2020-09-22T10:20:23Z</time>
      </trkpt>
      <trkpt lat="46.45274" lon="4.85989">
        <ele>208</ele>
        <time>2020-09-22T10:20:31Z</time>
      </trkpt>
      <trkpt lat="46.45303" lon="4.85981">
        <ele>208</ele>
        <time>2020-09-22T10:20:38Z</time>
      </trkpt>
      <trkpt lat="46.45412" lon="4.85938">
        <ele>210</ele>
        <time>2020-09-22T10:21:04Z</time>
      </trkpt>
      <trkpt lat="46.45506" lon="4.85913">
        <ele>211</ele>
        <time>2020-09-22T10:21:27Z</time>
      </trkpt>
      <trkpt lat="46.45602" lon="4.85901">
        <ele>211</ele>
        <time>2020-09-22T10:21:49Z</time>
      </trkpt>
      <trkpt lat="46.45624" lon="4.85896">
        <ele>211</ele>
        <time>2020-09-22T10:21:54Z</time>
      </trkpt>
      <trkpt lat="46.45642" lon="4.85889">
        <ele>211</ele>
        <time>2020-09-22T10:21:59Z</time>
      </trkpt>
      <trkpt lat="46.45663" lon="4.85893">
        <ele>212</ele>
        <time>2020-09-22T10:22:04Z</time>
      </trkpt>
      <trkpt lat="46.45701" lon="4.8591">
        <ele>211</ele>
        <time>2020-09-22T10:22:13Z</time>
      </trkpt>
      <trkpt lat="46.45716" lon="4.85922">
        <ele>211</ele>
        <time>2020-09-22T10:22:17Z</time>
      </trkpt>
      <trkpt lat="46.45754" lon="4.85964">
        <ele>210</ele>
        <time>2020-09-22T10:22:28Z</time>
      </trkpt>
      <trkpt lat="46.45789" lon="4.85994">
        <ele>210</ele>
        <time>2020-09-22T10:22:38Z</time>
      </trkpt>
      <trkpt lat="46.45801" lon="4.85877">
        <ele>213</ele>
        <time>2020-09-22T10:22:57Z</time>
      </trkpt>
      <trkpt lat="46.45803" lon="4.85834">
        <ele>215</ele>
        <time>2020-09-22T10:23:04Z</time>
      </trkpt>
      <trkpt lat="46.45805" lon="4.85756">
        <ele>218</ele>
        <time>2020-09-22T10:23:16Z</time>
      </trkpt>
      <trkpt lat="46.458" lon="4.85741">
        <ele>219</ele>
        <time>2020-09-22T10:23:19Z</time>
      </trkpt>
      <trkpt lat="46.45825" lon="4.85749">
        <ele>218</ele>
        <time>2020-09-22T10:23:25Z</time>
      </trkpt>
      <trkpt lat="46.45889" lon="4.85753">
        <ele>217</ele>
        <time>2020-09-22T10:23:40Z</time>
      </trkpt>
      <trkpt lat="46.45936" lon="4.85782">
        <ele>215</ele>
        <time>2020-09-22T10:23:52Z</time>
      </trkpt>
      <trkpt lat="46.4595" lon="4.85787">
        <ele>214</ele>
        <time>2020-09-22T10:23:55Z</time>
      </trkpt>
      <trkpt lat="46.46007" lon="4.85799">
        <ele>212</ele>
        <time>2020-09-22T10:24:09Z</time>
      </trkpt>
      <trkpt lat="46.46093" lon="4.85828">
        <ele>211</ele>
        <time>2020-09-22T10:24:29Z</time>
      </trkpt>
      <trkpt lat="46.46224" lon="4.85812">
        <ele>211</ele>
        <time>2020-09-22T10:25:00Z</time>
      </trkpt>
      <trkpt lat="46.463" lon="4.85807">
        <ele>210</ele>
        <time>2020-09-22T10:25:18Z</time>
      </trkpt>
      <trkpt lat="46.46318" lon="4.85808">
        <ele>210</ele>
        <time>2020-09-22T10:25:22Z</time>
      </trkpt>
      <trkpt lat="46.46607" lon="4.85944">
        <ele>212</ele>
        <time>2020-09-22T10:26:33Z</time>
      </trkpt>
      <trkpt lat="46.46672" lon="4.85988">
        <ele>213</ele>
        <time>2020-09-22T10:26:49Z</time>
      </trkpt>
      <trkpt lat="46.46699" lon="4.86013">
        <ele>214</ele>
        <time>2020-09-22T10:26:57Z</time>
      </trkpt>
      <trkpt lat="46.4675" lon="4.86044">
        <ele>215</ele>
        <time>2020-09-22T10:27:10Z</time>
      </trkpt>
      <trkpt lat="46.46784" lon="4.8606">
        <ele>214</ele>
        <time>2020-09-22T10:27:18Z</time>
      </trkpt>
      <trkpt lat="46.46793" lon="4.86054">
        <ele>214</ele>
        <time>2020-09-22T10:27:21Z</time>
      </trkpt>
      <trkpt lat="46.46807" lon="4.8599">
        <ele>213</ele>
        <time>2020-09-22T10:27:31Z</time>
      </trkpt>
      <trkpt lat="46.46821" lon="4.85946">
        <ele>212</ele>
        <time>2020-09-22T10:27:39Z</time>
      </trkpt>
      <trkpt lat="46.46883" lon="4.8582">
        <ele>214</ele>
        <time>2020-09-22T10:28:04Z</time>
      </trkpt>
      <trkpt lat="46.46923" lon="4.85757">
        <ele>214</ele>
        <time>2020-09-22T10:28:18Z</time>
      </trkpt>
      <trkpt lat="46.46935" lon="4.85747">
        <ele>214</ele>
        <time>2020-09-22T10:28:21Z</time>
      </trkpt>
      <trkpt lat="46.46939" lon="4.85747">
        <ele>214</ele>
        <time>2020-09-22T10:28:22Z</time>
      </trkpt>
      <trkpt lat="46.4695" lon="4.85752">
        <ele>214</ele>
        <time>2020-09-22T10:28:25Z</time>
      </trkpt>
      <trkpt lat="46.4696" lon="4.8577">
        <ele>213</ele>
        <time>2020-09-22T10:28:28Z</time>
      </trkpt>
      <trkpt lat="46.46977" lon="4.85786">
        <ele>213</ele>
        <time>2020-09-22T10:28:33Z</time>
      </trkpt>
      <trkpt lat="46.47063" lon="4.85841">
        <ele>212</ele>
        <time>2020-09-22T10:28:55Z</time>
      </trkpt>
      <trkpt lat="46.47132" lon="4.85861">
        <ele>209</ele>
        <time>2020-09-22T10:29:12Z</time>
      </trkpt>
      <trkpt lat="46.47194" lon="4.85875">
        <ele>207</ele>
        <time>2020-09-22T10:29:26Z</time>
      </trkpt>
      <trkpt lat="46.4724" lon="4.85891">
        <ele>204</ele>
        <time>2020-09-22T10:29:37Z</time>
      </trkpt>
      <trkpt lat="46.47257" lon="4.859">
        <ele>203</ele>
        <time>2020-09-22T10:29:41Z</time>
      </trkpt>
      <trkpt lat="46.47369" lon="4.85981">
        <ele>198</ele>
        <time>2020-09-22T10:30:11Z</time>
      </trkpt>
      <trkpt lat="46.47385" lon="4.85987">
        <ele>198</ele>
        <time>2020-09-22T10:30:15Z</time>
      </trkpt>
      <trkpt lat="46.47411" lon="4.85991">
        <ele>198</ele>
        <time>2020-09-22T10:30:21Z</time>
      </trkpt>
      <trkpt lat="46.47402" lon="4.85969">
        <ele>198</ele>
        <time>2020-09-22T10:30:25Z</time>
      </trkpt>
      <trkpt lat="46.47385" lon="4.85869">
        <ele>202</ele>
        <time>2020-09-22T10:30:41Z</time>
      </trkpt>
      <trkpt lat="46.47386" lon="4.85854">
        <ele>202</ele>
        <time>2020-09-22T10:30:44Z</time>
      </trkpt>
      <trkpt lat="46.47395" lon="4.85837">
        <ele>203</ele>
        <time>2020-09-22T10:30:47Z</time>
      </trkpt>
      <trkpt lat="46.47397" lon="4.85823">
        <ele>204</ele>
        <time>2020-09-22T10:30:49Z</time>
      </trkpt>
      <trkpt lat="46.47365" lon="4.85667">
        <ele>209</ele>
        <time>2020-09-22T10:31:16Z</time>
      </trkpt>
      <trkpt lat="46.47352" lon="4.85622">
        <ele>211</ele>
        <time>2020-09-22T10:31:24Z</time>
      </trkpt>
      <trkpt lat="46.47345" lon="4.85575">
        <ele>212</ele>
        <time>2020-09-22T10:31:31Z</time>
      </trkpt>
      <trkpt lat="46.47341" lon="4.855">
        <ele>212</ele>
        <time>2020-09-22T10:31:43Z</time>
      </trkpt>
      <trkpt lat="46.47336" lon="4.85475">
        <ele>212</ele>
        <time>2020-09-22T10:31:48Z</time>
      </trkpt>
      <trkpt lat="46.47317" lon="4.85436">
        <ele>213</ele>
        <time>2020-09-22T10:31:55Z</time>
      </trkpt>
      <trkpt lat="46.473" lon="4.85418">
        <ele>215</ele>
        <time>2020-09-22T10:32:00Z</time>
      </trkpt>
      <trkpt lat="46.4725" lon="4.85376">
        <ele>219</ele>
        <time>2020-09-22T10:32:14Z</time>
      </trkpt>
      <trkpt lat="46.47244" lon="4.85368">
        <ele>219</ele>
        <time>2020-09-22T10:32:16Z</time>
      </trkpt>
      <trkpt lat="46.47235" lon="4.85344">
        <ele>221</ele>
        <time>2020-09-22T10:32:20Z</time>
      </trkpt>
      <trkpt lat="46.4723" lon="4.85337">
        <ele>221</ele>
        <time>2020-09-22T10:32:22Z</time>
      </trkpt>
      <trkpt lat="46.47199" lon="4.85309">
        <ele>223</ele>
        <time>2020-09-22T10:32:30Z</time>
      </trkpt>
      <trkpt lat="46.47191" lon="4.85297">
        <ele>224</ele>
        <time>2020-09-22T10:32:33Z</time>
      </trkpt>
      <trkpt lat="46.47187" lon="4.85279">
        <ele>225</ele>
        <time>2020-09-22T10:32:36Z</time>
      </trkpt>
      <trkpt lat="46.4719" lon="4.8523">
        <ele>227</ele>
        <time>2020-09-22T10:32:44Z</time>
      </trkpt>
      <trkpt lat="46.47189" lon="4.85199">
        <ele>227</ele>
        <time>2020-09-22T10:32:49Z</time>
      </trkpt>
      <trkpt lat="46.47184" lon="4.85176">
        <ele>228</ele>
        <time>2020-09-22T10:32:53Z</time>
      </trkpt>
      <trkpt lat="46.47175" lon="4.85159">
        <ele>229</ele>
        <time>2020-09-22T10:32:56Z</time>
      </trkpt>
      <trkpt lat="46.47171" lon="4.85164">
        <ele>229</ele>
        <time>2020-09-22T10:32:57Z</time>
      </trkpt>
      <trkpt lat="46.47145" lon="4.85162">
        <ele>230</ele>
        <time>2020-09-22T10:33:03Z</time>
      </trkpt>
      <trkpt lat="46.47104" lon="4.8515">
        <ele>231</ele>
        <time>2020-09-22T10:33:13Z</time>
      </trkpt>
      <trkpt lat="46.47043" lon="4.85121">
        <ele>232</ele>
        <time>2020-09-22T10:33:28Z</time>
      </trkpt>
      <trkpt lat="46.47015" lon="4.85115">
        <ele>231</ele>
        <time>2020-09-22T10:33:35Z</time>
      </trkpt>
      <trkpt lat="46.47009" lon="4.85116">
        <ele>231</ele>
        <time>2020-09-22T10:33:36Z</time>
      </trkpt>
      <trkpt lat="46.47001" lon="4.85008">
        <ele>233</ele>
        <time>2020-09-22T10:33:54Z</time>
      </trkpt>
      <trkpt lat="46.46986" lon="4.84961">
        <ele>234</ele>
        <time>2020-09-22T10:34:02Z</time>
      </trkpt>
      <trkpt lat="46.46984" lon="4.84947">
        <ele>234</ele>
        <time>2020-09-22T10:34:04Z</time>
      </trkpt>
      <trkpt lat="46.46985" lon="4.84924">
        <ele>235</ele>
        <time>2020-09-22T10:34:08Z</time>
      </trkpt>
      <trkpt lat="46.46994" lon="4.84894">
        <ele>235</ele>
        <time>2020-09-22T10:34:13Z</time>
      </trkpt>
      <trkpt lat="46.47022" lon="4.8483">
        <ele>236</ele>
        <time>2020-09-22T10:34:25Z</time>
      </trkpt>
      <trkpt lat="46.47034" lon="4.84811">
        <ele>236</ele>
        <time>2020-09-22T10:34:30Z</time>
      </trkpt>
      <trkpt lat="46.4705" lon="4.84793">
        <ele>237</ele>
        <time>2020-09-22T10:34:34Z</time>
      </trkpt>
      <trkpt lat="46.47065" lon="4.84781">
        <ele>237</ele>
        <time>2020-09-22T10:34:38Z</time>
      </trkpt>
      <trkpt lat="46.4716" lon="4.84738">
        <ele>239</ele>
        <time>2020-09-22T10:35:01Z</time>
      </trkpt>
      <trkpt lat="46.47169" lon="4.84731">
        <ele>239</ele>
        <time>2020-09-22T10:35:04Z</time>
      </trkpt>
      <trkpt lat="46.47175" lon="4.84724">
        <ele>239</ele>
        <time>2020-09-22T10:35:06Z</time>
      </trkpt>
      <trkpt lat="46.47187" lon="4.84694">
        <ele>240</ele>
        <time>2020-09-22T10:35:11Z</time>
      </trkpt>
      <trkpt lat="46.47198" lon="4.84638">
        <ele>242</ele>
        <time>2020-09-22T10:35:21Z</time>
      </trkpt>
      <trkpt lat="46.47197" lon="4.84605">
        <ele>242</ele>
        <time>2020-09-22T10:35:26Z</time>
      </trkpt>
      <trkpt lat="46.47174" lon="4.84555">
        <ele>243</ele>
        <time>2020-09-22T10:35:36Z</time>
      </trkpt>
      <trkpt lat="46.47145" lon="4.84462">
        <ele>242</ele>
        <time>2020-09-22T10:35:52Z</time>
      </trkpt>
      <trkpt lat="46.47138" lon="4.84429">
        <ele>241</ele>
        <time>2020-09-22T10:35:58Z</time>
      </trkpt>
      <trkpt lat="46.47129" lon="4.84365">
        <ele>240</ele>
        <time>2020-09-22T10:36:08Z</time>
      </trkpt>
      <trkpt lat="46.47132" lon="4.84327">
        <ele>239</ele>
        <time>2020-09-22T10:36:14Z</time>
      </trkpt>
      <trkpt lat="46.47157" lon="4.84279">
        <ele>237</ele>
        <time>2020-09-22T10:36:24Z</time>
      </trkpt>
      <trkpt lat="46.47203" lon="4.84204">
        <ele>239</ele>
        <time>2020-09-22T10:36:40Z</time>
      </trkpt>
      <trkpt lat="46.47214" lon="4.84176">
        <ele>240</ele>
        <time>2020-09-22T10:36:45Z</time>
      </trkpt>
      <trkpt lat="46.47217" lon="4.84154">
        <ele>240</ele>
        <time>2020-09-22T10:36:49Z</time>
      </trkpt>
      <trkpt lat="46.47217" lon="4.84118">
        <ele>241</ele>
        <time>2020-09-22T10:36:55Z</time>
      </trkpt>
      <trkpt lat="46.47204" lon="4.84048">
        <ele>244</ele>
        <time>2020-09-22T10:37:06Z</time>
      </trkpt>
      <trkpt lat="46.47203" lon="4.84032">
        <ele>244</ele>
        <time>2020-09-22T10:37:09Z</time>
      </trkpt>
      <trkpt lat="46.47214" lon="4.83864">
        <ele>247</ele>
        <time>2020-09-22T10:37:36Z</time>
      </trkpt>
      <trkpt lat="46.47211" lon="4.8373">
        <ele>254</ele>
        <time>2020-09-22T10:37:58Z</time>
      </trkpt>
      <trkpt lat="46.47194" lon="4.8364">
        <ele>257</ele>
        <time>2020-09-22T10:38:13Z</time>
      </trkpt>
      <trkpt lat="46.47176" lon="4.83572">
        <ele>259</ele>
        <time>2020-09-22T10:38:24Z</time>
      </trkpt>
      <trkpt lat="46.47167" lon="4.83577">
        <ele>260</ele>
        <time>2020-09-22T10:38:27Z</time>
      </trkpt>
      <trkpt lat="46.47152" lon="4.83579">
        <ele>262</ele>
        <time>2020-09-22T10:38:30Z</time>
      </trkpt>
      <trkpt lat="46.47105" lon="4.83529">
        <ele>267</ele>
        <time>2020-09-22T10:38:44Z</time>
      </trkpt>
      <trkpt lat="46.47066" lon="4.83503">
        <ele>271</ele>
        <time>2020-09-22T10:38:54Z</time>
      </trkpt>
      <trkpt lat="46.47069" lon="4.83498">
        <ele>270</ele>
        <time>2020-09-22T10:38:55Z</time>
      </trkpt>
      <trkpt lat="46.47069" lon="4.83492">
        <ele>270</ele>
        <time>2020-09-22T10:38:56Z</time>
      </trkpt>
      <trkpt lat="46.47063" lon="4.83483">
        <ele>270</ele>
        <time>2020-09-22T10:38:58Z</time>
      </trkpt>
      <trkpt lat="46.47006" lon="4.83416">
        <ele>275</ele>
        <time>2020-09-22T10:39:15Z</time>
      </trkpt>
      <trkpt lat="46.46973" lon="4.83393">
        <ele>276</ele>
        <time>2020-09-22T10:39:23Z</time>
      </trkpt>
      <trkpt lat="46.46926" lon="4.83351">
        <ele>275</ele>
        <time>2020-09-22T10:39:36Z</time>
      </trkpt>
      <trkpt lat="46.46908" lon="4.83341">
        <ele>274</ele>
        <time>2020-09-22T10:39:41Z</time>
      </trkpt>
      <trkpt lat="46.46893" lon="4.83329">
        <ele>273</ele>
        <time>2020-09-22T10:39:45Z</time>
      </trkpt>
      <trkpt lat="46.4675" lon="4.83327">
        <ele>280</ele>
        <time>2020-09-22T10:40:18Z</time>
      </trkpt>
      <trkpt lat="46.46723" lon="4.8332">
        <ele>283</ele>
        <time>2020-09-22T10:40:25Z</time>
      </trkpt>
      <trkpt lat="46.46698" lon="4.83306">
        <ele>285</ele>
        <time>2020-09-22T10:40:31Z</time>
      </trkpt>
      <trkpt lat="46.46693" lon="4.83359">
        <ele>290</ele>
        <time>2020-09-22T10:40:39Z</time>
      </trkpt>
      <trkpt lat="46.46677" lon="4.83407">
        <ele>297</ele>
        <time>2020-09-22T10:40:48Z</time>
      </trkpt>
      <trkpt lat="46.46667" lon="4.83419">
        <ele>299</ele>
        <time>2020-09-22T10:40:51Z</time>
      </trkpt>
      <trkpt lat="46.46662" lon="4.83437">
        <ele>303</ele>
        <time>2020-09-22T10:40:54Z</time>
      </trkpt>
      <trkpt lat="46.46669" lon="4.83492">
        <ele>310</ele>
        <time>2020-09-22T10:41:03Z</time>
      </trkpt>
      <trkpt lat="46.46682" lon="4.83541">
        <ele>319</ele>
        <time>2020-09-22T10:41:12Z</time>
      </trkpt>
      <trkpt lat="46.46703" lon="4.83584">
        <ele>325</ele>
        <time>2020-09-22T10:41:20Z</time>
      </trkpt>
      <trkpt lat="46.46748" lon="4.8364">
        <ele>325</ele>
        <time>2020-09-22T10:41:34Z</time>
      </trkpt>
      <trkpt lat="46.46754" lon="4.83657">
        <ele>327</ele>
        <time>2020-09-22T10:41:37Z</time>
      </trkpt>
      <trkpt lat="46.46753" lon="4.83677">
        <ele>329</ele>
        <time>2020-09-22T10:41:40Z</time>
      </trkpt>
      <trkpt lat="46.46747" lon="4.83694">
        <ele>330</ele>
        <time>2020-09-22T10:41:43Z</time>
      </trkpt>
      <trkpt lat="46.4674" lon="4.83702">
        <ele>331</ele>
        <time>2020-09-22T10:41:45Z</time>
      </trkpt>
      <trkpt lat="46.46739" lon="4.83712">
        <ele>332</ele>
        <time>2020-09-22T10:41:47Z</time>
      </trkpt>
      <trkpt lat="46.46694" lon="4.83662">
        <ele>338</ele>
        <time>2020-09-22T10:42:00Z</time>
      </trkpt>
      <trkpt lat="46.46627" lon="4.83615">
        <ele>341</ele>
        <time>2020-09-22T10:42:18Z</time>
      </trkpt>
      <trkpt lat="46.46599" lon="4.83589">
        <ele>343</ele>
        <time>2020-09-22T10:42:25Z</time>
      </trkpt>
      <trkpt lat="46.46535" lon="4.83559">
        <ele>347</ele>
        <time>2020-09-22T10:42:41Z</time>
      </trkpt>
      <trkpt lat="46.46498" lon="4.83537">
        <ele>349</ele>
        <time>2020-09-22T10:42:50Z</time>
      </trkpt>
      <trkpt lat="46.46488" lon="4.83534">
        <ele>350</ele>
        <time>2020-09-22T10:42:53Z</time>
      </trkpt>
      <trkpt lat="46.46477" lon="4.83534">
        <ele>350</ele>
        <time>2020-09-22T10:42:55Z</time>
      </trkpt>
      <trkpt lat="46.4646" lon="4.83538">
        <ele>352</ele>
        <time>2020-09-22T10:42:59Z</time>
      </trkpt>
      <trkpt lat="46.46452" lon="4.83513">
        <ele>352</ele>
        <time>2020-09-22T10:43:04Z</time>
      </trkpt>
      <trkpt lat="46.46438" lon="4.835">
        <ele>353</ele>
        <time>2020-09-22T10:43:08Z</time>
      </trkpt>
      <trkpt lat="46.46429" lon="4.83495">
        <ele>353</ele>
        <time>2020-09-22T10:43:10Z</time>
      </trkpt>
      <trkpt lat="46.46423" lon="4.83498">
        <ele>354</ele>
        <time>2020-09-22T10:43:11Z</time>
      </trkpt>
      <trkpt lat="46.46405" lon="4.83553">
        <ele>357</ele>
        <time>2020-09-22T10:43:21Z</time>
      </trkpt>
      <trkpt lat="46.46399" lon="4.83556">
        <ele>357</ele>
        <time>2020-09-22T10:43:23Z</time>
      </trkpt>
      <trkpt lat="46.46391" lon="4.83556">
        <ele>357</ele>
        <time>2020-09-22T10:43:25Z</time>
      </trkpt>
      <trkpt lat="46.46377" lon="4.83554">
        <ele>358</ele>
        <time>2020-09-22T10:43:28Z</time>
      </trkpt>
      <trkpt lat="46.46369" lon="4.8355">
        <ele>358</ele>
        <time>2020-09-22T10:43:30Z</time>
      </trkpt>
      <trkpt lat="46.46339" lon="4.83517">
        <ele>361</ele>
        <time>2020-09-22T10:43:39Z</time>
      </trkpt>
      <trkpt lat="46.46333" lon="4.83517">
        <ele>361</ele>
        <time>2020-09-22T10:43:40Z</time>
      </trkpt>
      <trkpt lat="46.4633" lon="4.8352">
        <ele>362</ele>
        <time>2020-09-22T10:43:41Z</time>
      </trkpt>
      <trkpt lat="46.46328" lon="4.83517">
        <ele>362</ele>
        <time>2020-09-22T10:43:42Z</time>
      </trkpt>
      <trkpt lat="46.46298" lon="4.83506">
        <ele>366</ele>
        <time>2020-09-22T10:43:49Z</time>
      </trkpt>
      <trkpt lat="46.46257" lon="4.83496">
        <ele>370</ele>
        <time>2020-09-22T10:43:59Z</time>
      </trkpt>
      <trkpt lat="46.46231" lon="4.83475">
        <ele>371</ele>
        <time>2020-09-22T10:44:05Z</time>
      </trkpt>
      <trkpt lat="46.46208" lon="4.83462">
        <ele>373</ele>
        <time>2020-09-22T10:44:11Z</time>
      </trkpt>
      <trkpt lat="46.46168" lon="4.83449">
        <ele>378</ele>
        <time>2020-09-22T10:44:21Z</time>
      </trkpt>
      <trkpt lat="46.46156" lon="4.83447">
        <ele>379</ele>
        <time>2020-09-22T10:44:24Z</time>
      </trkpt>
      <trkpt lat="46.46012" lon="4.83453">
        <ele>387</ele>
        <time>2020-09-22T10:44:57Z</time>
      </trkpt>
      <trkpt lat="46.45922" lon="4.83466">
        <ele>385</ele>
        <time>2020-09-22T10:45:18Z</time>
      </trkpt>
      <trkpt lat="46.45887" lon="4.83476">
        <ele>382</ele>
        <time>2020-09-22T10:45:27Z</time>
      </trkpt>
      <trkpt lat="46.45873" lon="4.83484">
        <ele>380</ele>
        <time>2020-09-22T10:45:30Z</time>
      </trkpt>
      <trkpt lat="46.45861" lon="4.83495">
        <ele>378</ele>
        <time>2020-09-22T10:45:34Z</time>
      </trkpt>
      <trkpt lat="46.45852" lon="4.83516">
        <ele>375</ele>
        <time>2020-09-22T10:45:38Z</time>
      </trkpt>
      <trkpt lat="46.45762" lon="4.83446">
        <ele>375</ele>
        <time>2020-09-22T10:46:01Z</time>
      </trkpt>
      <trkpt lat="46.45601" lon="4.8374">
        <ele>329</ele>
        <time>2020-09-22T10:47:02Z</time>
      </trkpt>
      <trkpt lat="46.45588" lon="4.8376">
        <ele>326</ele>
        <time>2020-09-22T10:47:06Z</time>
      </trkpt>
      <trkpt lat="46.45577" lon="4.83783">
        <ele>323</ele>
        <time>2020-09-22T10:47:11Z</time>
      </trkpt>
      <trkpt lat="46.45571" lon="4.83803">
        <ele>320</ele>
        <time>2020-09-22T10:47:14Z</time>
      </trkpt>
      <trkpt lat="46.45513" lon="4.83759">
        <ele>318</ele>
        <time>2020-09-22T10:47:30Z</time>
      </trkpt>
      <trkpt lat="46.45444" lon="4.83703">
        <ele>313</ele>
        <time>2020-09-22T10:47:48Z</time>
      </trkpt>
      <trkpt lat="46.45434" lon="4.83692">
        <ele>312</ele>
        <time>2020-09-22T10:47:51Z</time>
      </trkpt>
      <trkpt lat="46.45392" lon="4.83685">
        <ele>307</ele>
        <time>2020-09-22T10:48:01Z</time>
      </trkpt>
      <trkpt lat="46.45343" lon="4.83681">
        <ele>300</ele>
        <time>2020-09-22T10:48:12Z</time>
      </trkpt>
      <trkpt lat="46.45332" lon="4.83678">
        <ele>299</ele>
        <time>2020-09-22T10:48:15Z</time>
      </trkpt>
      <trkpt lat="46.45326" lon="4.83679">
        <ele>298</ele>
        <time>2020-09-22T10:48:16Z</time>
      </trkpt>
      <trkpt lat="46.45307" lon="4.83665">
        <ele>297</ele>
        <time>2020-09-22T10:48:21Z</time>
      </trkpt>
      <trkpt lat="46.45276" lon="4.83655">
        <ele>294</ele>
        <time>2020-09-22T10:48:29Z</time>
      </trkpt>
      <trkpt lat="46.45265" lon="4.83648">
        <ele>294</ele>
        <time>2020-09-22T10:48:31Z</time>
      </trkpt>
      <trkpt lat="46.45221" lon="4.83607">
        <ele>291</ele>
        <time>2020-09-22T10:48:44Z</time>
      </trkpt>
      <trkpt lat="46.452" lon="4.83599">
        <ele>289</ele>
        <time>2020-09-22T10:48:49Z</time>
      </trkpt>
      <trkpt lat="46.45187" lon="4.83597">
        <ele>288</ele>
        <time>2020-09-22T10:48:52Z</time>
      </trkpt>
      <trkpt lat="46.45108" lon="4.83604">
        <ele>281</ele>
        <time>2020-09-22T10:49:10Z</time>
      </trkpt>
      <trkpt lat="46.451" lon="4.83611">
        <ele>280</ele>
        <time>2020-09-22T10:49:12Z</time>
      </trkpt>
      <trkpt lat="46.45097" lon="4.83616">
        <ele>280</ele>
        <time>2020-09-22T10:49:14Z</time>
      </trkpt>
      <trkpt lat="46.45095" lon="4.8363">
        <ele>278</ele>
        <time>2020-09-22T10:49:16Z</time>
      </trkpt>
      <trkpt lat="46.45098" lon="4.83647">
        <ele>278</ele>
        <time>2020-09-22T10:49:19Z</time>
      </trkpt>
      <trkpt lat="46.45114" lon="4.83668">
        <ele>277</ele>
        <time>2020-09-22T10:49:24Z</time>
      </trkpt>
      <trkpt lat="46.45133" lon="4.83685">
        <ele>277</ele>
        <time>2020-09-22T10:49:29Z</time>
      </trkpt>
      <trkpt lat="46.45134" lon="4.83695">
        <ele>276</ele>
        <time>2020-09-22T10:49:31Z</time>
      </trkpt>
      <trkpt lat="46.45128" lon="4.83701">
        <ele>275</ele>
        <time>2020-09-22T10:49:32Z</time>
      </trkpt>
      <trkpt lat="46.45077" lon="4.83697">
        <ele>270</ele>
        <time>2020-09-22T10:49:44Z</time>
      </trkpt>
      <trkpt lat="46.45057" lon="4.83689">
        <ele>269</ele>
        <time>2020-09-22T10:49:49Z</time>
      </trkpt>
      <trkpt lat="46.4504" lon="4.83674">
        <ele>269</ele>
        <time>2020-09-22T10:49:54Z</time>
      </trkpt>
      <trkpt lat="46.45044" lon="4.83663">
        <ele>271</ele>
        <time>2020-09-22T10:49:56Z</time>
      </trkpt>
      <trkpt lat="46.45044" lon="4.83656">
        <ele>271</ele>
        <time>2020-09-22T10:49:57Z</time>
      </trkpt>
      <trkpt lat="46.45038" lon="4.83604">
        <ele>275</ele>
        <time>2020-09-22T10:50:05Z</time>
      </trkpt>
      <trkpt lat="46.45062" lon="4.83471">
        <ele>288</ele>
        <time>2020-09-22T10:50:27Z</time>
      </trkpt>
      <trkpt lat="46.45061" lon="4.83461">
        <ele>289</ele>
        <time>2020-09-22T10:50:29Z</time>
      </trkpt>
      <trkpt lat="46.44967" lon="4.83425">
        <ele>289</ele>
        <time>2020-09-22T10:50:52Z</time>
      </trkpt>
      <trkpt lat="46.44906" lon="4.83378">
        <ele>297</ele>
        <time>2020-09-22T10:51:08Z</time>
      </trkpt>
      <trkpt lat="46.44836" lon="4.83318">
        <ele>309</ele>
        <time>2020-09-22T10:51:27Z</time>
      </trkpt>
      <trkpt lat="46.44829" lon="4.83308">
        <ele>311</ele>
        <time>2020-09-22T10:51:29Z</time>
      </trkpt>
      <trkpt lat="46.44803" lon="4.83353">
        <ele>298</ele>
        <time>2020-09-22T10:51:39Z</time>
      </trkpt>
      <trkpt lat="46.448" lon="4.83368">
        <ele>295</ele>
        <time>2020-09-22T10:51:41Z</time>
      </trkpt>
      <trkpt lat="46.44783" lon="4.83413">
        <ele>284</ele>
        <time>2020-09-22T10:51:49Z</time>
      </trkpt>
      <trkpt lat="46.44782" lon="4.83418">
        <ele>283</ele>
        <time>2020-09-22T10:51:50Z</time>
      </trkpt>
      <trkpt lat="46.44788" lon="4.8345">
        <ele>279</ele>
        <time>2020-09-22T10:51:56Z</time>
      </trkpt>
      <trkpt lat="46.44785" lon="4.83462">
        <ele>276</ele>
        <time>2020-09-22T10:51:58Z</time>
      </trkpt>
      <trkpt lat="46.44779" lon="4.83471">
        <ele>274</ele>
        <time>2020-09-22T10:52:00Z</time>
      </trkpt>
      <trkpt lat="46.4476" lon="4.83479">
        <ele>271</ele>
        <time>2020-09-22T10:52:04Z</time>
      </trkpt>
      <trkpt lat="46.44754" lon="4.83491">
        <ele>268</ele>
        <time>2020-09-22T10:52:07Z</time>
      </trkpt>
      <trkpt lat="46.44745" lon="4.83526">
        <ele>262</ele>
        <time>2020-09-22T10:52:13Z</time>
      </trkpt>
      <trkpt lat="46.44743" lon="4.83543">
        <ele>260</ele>
        <time>2020-09-22T10:52:15Z</time>
      </trkpt>
      <trkpt lat="46.44744" lon="4.83565">
        <ele>258</ele>
        <time>2020-09-22T10:52:19Z</time>
      </trkpt>
      <trkpt lat="46.44685" lon="4.83516">
        <ele>259</ele>
        <time>2020-09-22T10:52:35Z</time>
      </trkpt>
      <trkpt lat="46.44559" lon="4.83435">
        <ele>260</ele>
        <time>2020-09-22T10:53:07Z</time>
      </trkpt>
      <trkpt lat="46.44533" lon="4.83424">
        <ele>260</ele>
        <time>2020-09-22T10:53:13Z</time>
      </trkpt>
      <trkpt lat="46.44464" lon="4.83388">
        <ele>263</ele>
        <time>2020-09-22T10:53:30Z</time>
      </trkpt>
      <trkpt lat="46.44412" lon="4.83365">
        <ele>265</ele>
        <time>2020-09-22T10:53:43Z</time>
      </trkpt>
      <trkpt lat="46.44399" lon="4.83349">
        <ele>266</ele>
        <time>2020-09-22T10:53:47Z</time>
      </trkpt>
      <trkpt lat="46.44387" lon="4.83322">
        <ele>269</ele>
        <time>2020-09-22T10:53:52Z</time>
      </trkpt>
      <trkpt lat="46.44332" lon="4.83301">
        <ele>267</ele>
        <time>2020-09-22T10:54:06Z</time>
      </trkpt>
      <trkpt lat="46.44329" lon="4.83304">
        <ele>266</ele>
        <time>2020-09-22T10:54:06Z</time>
      </trkpt>
      <trkpt lat="46.44327" lon="4.83316">
        <ele>265</ele>
        <time>2020-09-22T10:54:08Z</time>
      </trkpt>
      <trkpt lat="46.4432" lon="4.83314">
        <ele>264</ele>
        <time>2020-09-22T10:54:10Z</time>
      </trkpt>
      <trkpt lat="46.44271" lon="4.83282">
        <ele>262</ele>
        <time>2020-09-22T10:54:23Z</time>
      </trkpt>
      <trkpt lat="46.44256" lon="4.83275">
        <ele>261</ele>
        <time>2020-09-22T10:54:26Z</time>
      </trkpt>
      <trkpt lat="46.44229" lon="4.83273">
        <ele>259</ele>
        <time>2020-09-22T10:54:33Z</time>
      </trkpt>
      <trkpt lat="46.44218" lon="4.83267">
        <ele>258</ele>
        <time>2020-09-22T10:54:35Z</time>
      </trkpt>
      <trkpt lat="46.44159" lon="4.83218">
        <ele>259</ele>
        <time>2020-09-22T10:54:51Z</time>
      </trkpt>
      <trkpt lat="46.44218" lon="4.83267">
        <ele>258</ele>
        <time>2020-09-22T10:55:07Z</time>
      </trkpt>
      <trkpt lat="46.44159" lon="4.83218">
        <ele>259</ele>
        <time>2020-09-22T10:55:23Z</time>
      </trkpt>
      <trkpt lat="46.4415" lon="4.83226">
        <ele>258</ele>
        <time>2020-09-22T10:55:25Z</time>
      </trkpt>
      <trkpt lat="46.44131" lon="4.83226">
        <ele>258</ele>
        <time>2020-09-22T10:55:30Z</time>
      </trkpt>
      <trkpt lat="46.44127" lon="4.83251">
        <ele>255</ele>
        <time>2020-09-22T10:55:34Z</time>
      </trkpt>
      <trkpt lat="46.44109" lon="4.8325">
        <ele>255</ele>
        <time>2020-09-22T10:55:38Z</time>
      </trkpt>
      <trkpt lat="46.441" lon="4.83275">
        <ele>254</ele>
        <time>2020-09-22T10:55:43Z</time>
      </trkpt>
      <trkpt lat="46.44091" lon="4.83311">
        <ele>253</ele>
        <time>2020-09-22T10:55:49Z</time>
      </trkpt>
      <trkpt lat="46.44093" lon="4.83318">
        <ele>253</ele>
        <time>2020-09-22T10:55:50Z</time>
      </trkpt>
      <trkpt lat="46.44091" lon="4.83388">
        <ele>250</ele>
        <time>2020-09-22T10:56:01Z</time>
      </trkpt>
      <trkpt lat="46.44099" lon="4.83389">
        <ele>250</ele>
        <time>2020-09-22T10:56:03Z</time>
      </trkpt>
      <trkpt lat="46.4413" lon="4.83406">
        <ele>250</ele>
        <time>2020-09-22T10:56:11Z</time>
      </trkpt>
      <trkpt lat="46.44184" lon="4.83506">
        <ele>248</ele>
        <time>2020-09-22T10:56:31Z</time>
      </trkpt>
      <trkpt lat="46.44212" lon="4.83608">
        <ele>244</ele>
        <time>2020-09-22T10:56:49Z</time>
      </trkpt>
      <trkpt lat="46.44213" lon="4.83641">
        <ele>243</ele>
        <time>2020-09-22T10:56:54Z</time>
      </trkpt>
      <trkpt lat="46.44199" lon="4.83779">
        <ele>240</ele>
        <time>2020-09-22T10:57:17Z</time>
      </trkpt>
      <trkpt lat="46.44196" lon="4.8387">
        <ele>238</ele>
        <time>2020-09-22T10:57:32Z</time>
      </trkpt>
      <trkpt lat="46.44188" lon="4.83916">
        <ele>237</ele>
        <time>2020-09-22T10:57:39Z</time>
      </trkpt>
      <trkpt lat="46.44191" lon="4.83902">
        <ele>237</ele>
        <time>2020-09-22T10:57:42Z</time>
      </trkpt>
      <trkpt lat="46.44141" lon="4.83889">
        <ele>237</ele>
        <time>2020-09-22T10:57:53Z</time>
      </trkpt>
      <trkpt lat="46.44092" lon="4.83869">
        <ele>236</ele>
        <time>2020-09-22T10:58:05Z</time>
      </trkpt>
      <trkpt lat="46.44044" lon="4.83854">
        <ele>235</ele>
        <time>2020-09-22T10:58:17Z</time>
      </trkpt>
      <trkpt lat="46.44032" lon="4.83853">
        <ele>235</ele>
        <time>2020-09-22T10:58:20Z</time>
      </trkpt>
      <trkpt lat="46.4403" lon="4.83835">
        <ele>235</ele>
        <time>2020-09-22T10:58:23Z</time>
      </trkpt>
      <trkpt lat="46.44014" lon="4.8383">
        <ele>235</ele>
        <time>2020-09-22T10:58:26Z</time>
      </trkpt>
      <trkpt lat="46.43983" lon="4.83814">
        <ele>236</ele>
        <time>2020-09-22T10:58:34Z</time>
      </trkpt>
      <trkpt lat="46.43945" lon="4.83802">
        <ele>236</ele>
        <time>2020-09-22T10:58:43Z</time>
      </trkpt>
      <trkpt lat="46.43872" lon="4.83773">
        <ele>236</ele>
        <time>2020-09-22T10:59:01Z</time>
      </trkpt>
      <trkpt lat="46.43821" lon="4.83751">
        <ele>237</ele>
        <time>2020-09-22T10:59:13Z</time>
      </trkpt>
      <trkpt lat="46.43789" lon="4.83734">
        <ele>238</ele>
        <time>2020-09-22T10:59:21Z</time>
      </trkpt>
      <trkpt lat="46.43765" lon="4.83726">
        <ele>238</ele>
        <time>2020-09-22T10:59:27Z</time>
      </trkpt>
      <trkpt lat="46.43753" lon="4.83724">
        <ele>238</ele>
        <time>2020-09-22T10:59:30Z</time>
      </trkpt>
      <trkpt lat="46.43712" lon="4.83728">
        <ele>238</ele>
        <time>2020-09-22T10:59:39Z</time>
      </trkpt>
      <trkpt lat="46.43689" lon="4.83714">
        <ele>239</ele>
        <time>2020-09-22T10:59:45Z</time>
      </trkpt>
      <trkpt lat="46.43664" lon="4.83709">
        <ele>240</ele>
        <time>2020-09-22T10:59:51Z</time>
      </trkpt>
      <trkpt lat="46.43651" lon="4.83717">
        <ele>240</ele>
        <time>2020-09-22T10:59:54Z</time>
      </trkpt>
      <trkpt lat="46.43627" lon="4.83757">
        <ele>241</ele>
        <time>2020-09-22T11:00:03Z</time>
      </trkpt>
      <trkpt lat="46.43545" lon="4.83697">
        <ele>245</ele>
        <time>2020-09-22T11:00:24Z</time>
      </trkpt>
      <trkpt lat="46.43525" lon="4.8368">
        <ele>247</ele>
        <time>2020-09-22T11:00:30Z</time>
      </trkpt>
      <trkpt lat="46.4346" lon="4.83591">
        <ele>253</ele>
        <time>2020-09-22T11:00:51Z</time>
      </trkpt>
      <trkpt lat="46.43424" lon="4.83547">
        <ele>257</ele>
        <time>2020-09-22T11:01:02Z</time>
      </trkpt>
      <trkpt lat="46.43385" lon="4.83483">
        <ele>260</ele>
        <time>2020-09-22T11:01:15Z</time>
      </trkpt>
      <trkpt lat="46.43371" lon="4.83465">
        <ele>261</ele>
        <time>2020-09-22T11:01:20Z</time>
      </trkpt>
      <trkpt lat="46.4327" lon="4.83388">
        <ele>263</ele>
        <time>2020-09-22T11:01:46Z</time>
      </trkpt>
      <trkpt lat="46.43242" lon="4.83391">
        <ele>263</ele>
        <time>2020-09-22T11:01:53Z</time>
      </trkpt>
      <trkpt lat="46.4323" lon="4.83389">
        <ele>262</ele>
        <time>2020-09-22T11:01:56Z</time>
      </trkpt>
      <trkpt lat="46.43206" lon="4.83379">
        <ele>261</ele>
        <time>2020-09-22T11:02:02Z</time>
      </trkpt>
      <trkpt lat="46.43181" lon="4.83366">
        <ele>260</ele>
        <time>2020-09-22T11:02:08Z</time>
      </trkpt>
      <trkpt lat="46.43153" lon="4.83347">
        <ele>259</ele>
        <time>2020-09-22T11:02:15Z</time>
      </trkpt>
      <trkpt lat="46.43115" lon="4.83317">
        <ele>258</ele>
        <time>2020-09-22T11:02:25Z</time>
      </trkpt>
      <trkpt lat="46.43108" lon="4.83309">
        <ele>257</ele>
        <time>2020-09-22T11:02:27Z</time>
      </trkpt>
      <trkpt lat="46.43104" lon="4.83298">
        <ele>257</ele>
        <time>2020-09-22T11:02:29Z</time>
      </trkpt>
      <trkpt lat="46.43082" lon="4.83213">
        <ele>255</ele>
        <time>2020-09-22T11:02:44Z</time>
      </trkpt>
      <trkpt lat="46.43068" lon="4.83191">
        <ele>255</ele>
        <time>2020-09-22T11:02:49Z</time>
      </trkpt>
      <trkpt lat="46.42962" lon="4.83047">
        <ele>258</ele>
        <time>2020-09-22T11:03:23Z</time>
      </trkpt>
      <trkpt lat="46.42958" lon="4.83032">
        <ele>259</ele>
        <time>2020-09-22T11:03:25Z</time>
      </trkpt>
      <trkpt lat="46.42901" lon="4.82932">
        <ele>263</ele>
        <time>2020-09-22T11:03:46Z</time>
      </trkpt>
      <trkpt lat="46.42879" lon="4.82916">
        <ele>264</ele>
        <time>2020-09-22T11:03:52Z</time>
      </trkpt>
      <trkpt lat="46.4282" lon="4.82888">
        <ele>267</ele>
        <time>2020-09-22T11:04:06Z</time>
      </trkpt>
      <trkpt lat="46.42675" lon="4.82778">
        <ele>269</ele>
        <time>2020-09-22T11:04:44Z</time>
      </trkpt>
      <trkpt lat="46.42653" lon="4.82768">
        <ele>269</ele>
        <time>2020-09-22T11:04:50Z</time>
      </trkpt>
      <trkpt lat="46.42627" lon="4.82761">
        <ele>269</ele>
        <time>2020-09-22T11:04:56Z</time>
      </trkpt>
      <trkpt lat="46.42595" lon="4.82755">
        <ele>268</ele>
        <time>2020-09-22T11:05:04Z</time>
      </trkpt>
      <trkpt lat="46.42547" lon="4.82754">
        <ele>268</ele>
        <time>2020-09-22T11:05:15Z</time>
      </trkpt>
      <trkpt lat="46.42524" lon="4.82749">
        <ele>268</ele>
        <time>2020-09-22T11:05:20Z</time>
      </trkpt>
      <trkpt lat="46.42481" lon="4.82731">
        <ele>268</ele>
        <time>2020-09-22T11:05:31Z</time>
      </trkpt>
      <trkpt lat="46.42458" lon="4.82718">
        <ele>267</ele>
        <time>2020-09-22T11:05:36Z</time>
      </trkpt>
      <trkpt lat="46.42448" lon="4.82709">
        <ele>267</ele>
        <time>2020-09-22T11:05:39Z</time>
      </trkpt>
      <trkpt lat="46.42442" lon="4.82699">
        <ele>267</ele>
        <time>2020-09-22T11:05:41Z</time>
      </trkpt>
      <trkpt lat="46.42411" lon="4.82828">
        <ele>263</ele>
        <time>2020-09-22T11:06:03Z</time>
      </trkpt>
      <trkpt lat="46.42381" lon="4.8298">
        <ele>253</ele>
        <time>2020-09-22T11:06:29Z</time>
      </trkpt>
      <trkpt lat="46.42363" lon="4.83042">
        <ele>249</ele>
        <time>2020-09-22T11:06:40Z</time>
      </trkpt>
      <trkpt lat="46.42351" lon="4.8306">
        <ele>248</ele>
        <time>2020-09-22T11:06:44Z</time>
      </trkpt>
      <trkpt lat="46.4231" lon="4.83091">
        <ele>245</ele>
        <time>2020-09-22T11:06:54Z</time>
      </trkpt>
      <trkpt lat="46.42295" lon="4.83109">
        <ele>244</ele>
        <time>2020-09-22T11:06:59Z</time>
      </trkpt>
      <trkpt lat="46.42286" lon="4.83124">
        <ele>244</ele>
        <time>2020-09-22T11:07:02Z</time>
      </trkpt>
      <trkpt lat="46.42265" lon="4.83182">
        <ele>241</ele>
        <time>2020-09-22T11:07:13Z</time>
      </trkpt>
      <trkpt lat="46.42222" lon="4.83264">
        <ele>239</ele>
        <time>2020-09-22T11:07:29Z</time>
      </trkpt>
      <trkpt lat="46.42164" lon="4.83407">
        <ele>235</ele>
        <time>2020-09-22T11:07:56Z</time>
      </trkpt>
      <trkpt lat="46.42144" lon="4.83451">
        <ele>234</ele>
        <time>2020-09-22T11:08:04Z</time>
      </trkpt>
      <trkpt lat="46.42102" lon="4.83529">
        <ele>234</ele>
        <time>2020-09-22T11:08:20Z</time>
      </trkpt>
      <trkpt lat="46.42057" lon="4.83605">
        <ele>236</ele>
        <time>2020-09-22T11:08:37Z</time>
      </trkpt>
      <trkpt lat="46.42045" lon="4.83608">
        <ele>236</ele>
        <time>2020-09-22T11:08:39Z</time>
      </trkpt>
      <trkpt lat="46.42014" lon="4.83579">
        <ele>236</ele>
        <time>2020-09-22T11:08:48Z</time>
      </trkpt>
      <trkpt lat="46.42003" lon="4.83573">
        <ele>236</ele>
        <time>2020-09-22T11:08:51Z</time>
      </trkpt>
      <trkpt lat="46.41966" lon="4.8356">
        <ele>235</ele>
        <time>2020-09-22T11:09:00Z</time>
      </trkpt>
      <trkpt lat="46.41947" lon="4.83636">
        <ele>238</ele>
        <time>2020-09-22T11:09:13Z</time>
      </trkpt>
      <trkpt lat="46.41876" lon="4.8389">
        <ele>234</ele>
        <time>2020-09-22T11:09:57Z</time>
      </trkpt>
      <trkpt lat="46.4186" lon="4.84087">
        <ele>228</ele>
        <time>2020-09-22T11:10:29Z</time>
      </trkpt>
      <trkpt lat="46.41865" lon="4.84099">
        <ele>228</ele>
        <time>2020-09-22T11:10:31Z</time>
      </trkpt>
      <trkpt lat="46.41871" lon="4.84106">
        <ele>228</ele>
        <time>2020-09-22T11:10:33Z</time>
      </trkpt>
      <trkpt lat="46.4195" lon="4.84145">
        <ele>232</ele>
        <time>2020-09-22T11:10:52Z</time>
      </trkpt>
      <trkpt lat="46.41956" lon="4.84151">
        <ele>232</ele>
        <time>2020-09-22T11:10:54Z</time>
      </trkpt>
      <trkpt lat="46.41959" lon="4.84166">
        <ele>232</ele>
        <time>2020-09-22T11:10:56Z</time>
      </trkpt>
      <trkpt lat="46.41935" lon="4.84554">
        <ele>224</ele>
        <time>2020-09-22T11:11:59Z</time>
      </trkpt>
      <trkpt lat="46.41935" lon="4.84576">
        <ele>224</ele>
        <time>2020-09-22T11:12:03Z</time>
      </trkpt>
      <trkpt lat="46.41938" lon="4.84591">
        <ele>224</ele>
        <time>2020-09-22T11:12:05Z</time>
      </trkpt>
      <trkpt lat="46.42106" lon="4.84919">
        <ele>217</ele>
        <time>2020-09-22T11:13:11Z</time>
      </trkpt>
      <trkpt lat="46.42152" lon="4.85085">
        <ele>212</ele>
        <time>2020-09-22T11:13:40Z</time>
      </trkpt>
      <trkpt lat="46.42158" lon="4.85122">
        <ele>211</ele>
        <time>2020-09-22T11:13:46Z</time>
      </trkpt>
      <trkpt lat="46.42158" lon="4.8513">
        <ele>211</ele>
        <time>2020-09-22T11:13:47Z</time>
      </trkpt>
      <trkpt lat="46.42128" lon="4.85196">
        <ele>214</ele>
        <time>2020-09-22T11:14:00Z</time>
      </trkpt>
      <trkpt lat="46.42121" lon="4.85217">
        <ele>214</ele>
        <time>2020-09-22T11:14:04Z</time>
      </trkpt>
      <trkpt lat="46.42119" lon="4.85233">
        <ele>215</ele>
        <time>2020-09-22T11:14:06Z</time>
      </trkpt>
      <trkpt lat="46.4212" lon="4.85251">
        <ele>215</ele>
        <time>2020-09-22T11:14:09Z</time>
      </trkpt>
      <trkpt lat="46.42131" lon="4.85295">
        <ele>213</ele>
        <time>2020-09-22T11:14:17Z</time>
      </trkpt>
      <trkpt lat="46.42137" lon="4.85337">
        <ele>211</ele>
        <time>2020-09-22T11:14:24Z</time>
      </trkpt>
      <trkpt lat="46.42125" lon="4.85428">
        <ele>211</ele>
        <time>2020-09-22T11:14:39Z</time>
      </trkpt>
      <trkpt lat="46.42122" lon="4.85503">
        <ele>211</ele>
        <time>2020-09-22T11:14:51Z</time>
      </trkpt>
      <trkpt lat="46.42118" lon="4.85525">
        <ele>211</ele>
        <time>2020-09-22T11:14:54Z</time>
      </trkpt>
      <trkpt lat="46.42092" lon="4.85619">
        <ele>211</ele>
        <time>2020-09-22T11:15:11Z</time>
      </trkpt>
      <trkpt lat="46.42036" lon="4.85783">
        <ele>216</ele>
        <time>2020-09-22T11:15:40Z</time>
      </trkpt>
      <trkpt lat="46.42031" lon="4.85807">
        <ele>216</ele>
        <time>2020-09-22T11:15:44Z</time>
      </trkpt>
      <trkpt lat="46.42024" lon="4.85824">
        <ele>217</ele>
        <time>2020-09-22T11:15:47Z</time>
      </trkpt>
      <trkpt lat="46.42014" lon="4.85875">
        <ele>218</ele>
        <time>2020-09-22T11:15:56Z</time>
      </trkpt>
      <trkpt lat="46.42007" lon="4.85866">
        <ele>218</ele>
        <time>2020-09-22T11:15:58Z</time>
      </trkpt>
      <trkpt lat="46.42002" lon="4.85854">
        <ele>219</ele>
        <time>2020-09-22T11:16:00Z</time>
      </trkpt>
      <trkpt lat="46.42003" lon="4.85814">
        <ele>219</ele>
        <time>2020-09-22T11:16:07Z</time>
      </trkpt>
      <trkpt lat="46.41998" lon="4.85795">
        <ele>219</ele>
        <time>2020-09-22T11:16:10Z</time>
      </trkpt>
      <trkpt lat="46.41991" lon="4.8578">
        <ele>220</ele>
        <time>2020-09-22T11:16:13Z</time>
      </trkpt>
      <trkpt lat="46.41976" lon="4.85766">
        <ele>222</ele>
        <time>2020-09-22T11:16:17Z</time>
      </trkpt>
      <trkpt lat="46.41951" lon="4.85748">
        <ele>224</ele>
        <time>2020-09-22T11:16:24Z</time>
      </trkpt>
      <trkpt lat="46.41902" lon="4.85726">
        <ele>227</ele>
        <time>2020-09-22T11:16:36Z</time>
      </trkpt>
      <trkpt lat="46.4186" lon="4.85704">
        <ele>229</ele>
        <time>2020-09-22T11:16:46Z</time>
      </trkpt>
      <trkpt lat="46.41815" lon="4.85685">
        <ele>231</ele>
        <time>2020-09-22T11:16:57Z</time>
      </trkpt>
      <trkpt lat="46.41724" lon="4.8567">
        <ele>235</ele>
        <time>2020-09-22T11:17:18Z</time>
      </trkpt>
      <trkpt lat="46.41685" lon="4.85666">
        <ele>237</ele>
        <time>2020-09-22T11:17:28Z</time>
      </trkpt>
      <trkpt lat="46.4166" lon="4.85667">
        <ele>238</ele>
        <time>2020-09-22T11:17:33Z</time>
      </trkpt>
      <trkpt lat="46.41635" lon="4.85662">
        <ele>238</ele>
        <time>2020-09-22T11:17:39Z</time>
      </trkpt>
      <trkpt lat="46.41607" lon="4.85661">
        <ele>239</ele>
        <time>2020-09-22T11:17:46Z</time>
      </trkpt>
      <trkpt lat="46.41592" lon="4.85658">
        <ele>238</ele>
        <time>2020-09-22T11:17:49Z</time>
      </trkpt>
      <trkpt lat="46.41577" lon="4.85649">
        <ele>237</ele>
        <time>2020-09-22T11:17:53Z</time>
      </trkpt>
      <trkpt lat="46.41546" lon="4.85609">
        <ele>231</ele>
        <time>2020-09-22T11:18:03Z</time>
      </trkpt>
      <trkpt lat="46.41509" lon="4.85611">
        <ele>232</ele>
        <time>2020-09-22T11:18:11Z</time>
      </trkpt>
      <trkpt lat="46.41498" lon="4.85607">
        <ele>232</ele>
        <time>2020-09-22T11:18:14Z</time>
      </trkpt>
      <trkpt lat="46.41447" lon="4.85577">
        <ele>231</ele>
        <time>2020-09-22T11:18:27Z</time>
      </trkpt>
      <trkpt lat="46.41409" lon="4.85549">
        <ele>230</ele>
        <time>2020-09-22T11:18:37Z</time>
      </trkpt>
      <trkpt lat="46.41386" lon="4.85539">
        <ele>230</ele>
        <time>2020-09-22T11:18:43Z</time>
      </trkpt>
      <trkpt lat="46.4137" lon="4.85537">
        <ele>230</ele>
        <time>2020-09-22T11:18:46Z</time>
      </trkpt>
      <trkpt lat="46.41314" lon="4.85482">
        <ele>232</ele>
        <time>2020-09-22T11:19:02Z</time>
      </trkpt>
      <trkpt lat="46.4128" lon="4.85455">
        <ele>233</ele>
        <time>2020-09-22T11:19:11Z</time>
      </trkpt>
      <trkpt lat="46.41236" lon="4.85431">
        <ele>236</ele>
        <time>2020-09-22T11:19:22Z</time>
      </trkpt>
      <trkpt lat="46.41218" lon="4.85428">
        <ele>236</ele>
        <time>2020-09-22T11:19:26Z</time>
      </trkpt>
      <trkpt lat="46.41199" lon="4.85428">
        <ele>237</ele>
        <time>2020-09-22T11:19:31Z</time>
      </trkpt>
      <trkpt lat="46.41178" lon="4.85432">
        <ele>239</ele>
        <time>2020-09-22T11:19:36Z</time>
      </trkpt>
      <trkpt lat="46.41166" lon="4.85438">
        <ele>240</ele>
        <time>2020-09-22T11:19:39Z</time>
      </trkpt>
      <trkpt lat="46.41151" lon="4.85453">
        <ele>240</ele>
        <time>2020-09-22T11:19:43Z</time>
      </trkpt>
      <trkpt lat="46.41162" lon="4.85491">
        <ele>241</ele>
        <time>2020-09-22T11:19:50Z</time>
      </trkpt>
      <trkpt lat="46.41164" lon="4.85547">
        <ele>242</ele>
        <time>2020-09-22T11:19:59Z</time>
      </trkpt>
      <trkpt lat="46.41161" lon="4.85583">
        <ele>243</ele>
        <time>2020-09-22T11:20:04Z</time>
      </trkpt>
      <trkpt lat="46.41163" lon="4.85597">
        <ele>243</ele>
        <time>2020-09-22T11:20:07Z</time>
      </trkpt>
      <trkpt lat="46.4117" lon="4.85612">
        <ele>243</ele>
        <time>2020-09-22T11:20:10Z</time>
      </trkpt>
      <trkpt lat="46.41177" lon="4.85621">
        <ele>243</ele>
        <time>2020-09-22T11:20:12Z</time>
      </trkpt>
      <trkpt lat="46.41196" lon="4.85631">
        <ele>242</ele>
        <time>2020-09-22T11:20:17Z</time>
      </trkpt>
      <trkpt lat="46.41221" lon="4.85635">
        <ele>242</ele>
        <time>2020-09-22T11:20:22Z</time>
      </trkpt>
      <trkpt lat="46.41255" lon="4.85645">
        <ele>241</ele>
        <time>2020-09-22T11:20:31Z</time>
      </trkpt>
      <trkpt lat="46.41279" lon="4.85657">
        <ele>242</ele>
        <time>2020-09-22T11:20:36Z</time>
      </trkpt>
      <trkpt lat="46.41291" lon="4.85671">
        <ele>243</ele>
        <time>2020-09-22T11:20:40Z</time>
      </trkpt>
      <trkpt lat="46.41301" lon="4.85694">
        <ele>244</ele>
        <time>2020-09-22T11:20:44Z</time>
      </trkpt>
      <trkpt lat="46.41292" lon="4.85705">
        <ele>244</ele>
        <time>2020-09-22T11:20:47Z</time>
      </trkpt>
      <trkpt lat="46.4128" lon="4.85732">
        <ele>245</ele>
        <time>2020-09-22T11:20:52Z</time>
      </trkpt>
      <trkpt lat="46.41255" lon="4.85805">
        <ele>240</ele>
        <time>2020-09-22T11:21:05Z</time>
      </trkpt>
      <trkpt lat="46.41233" lon="4.85893">
        <ele>231</ele>
        <time>2020-09-22T11:21:21Z</time>
      </trkpt>
      <trkpt lat="46.41227" lon="4.85899">
        <ele>230</ele>
        <time>2020-09-22T11:21:22Z</time>
      </trkpt>
      <trkpt lat="46.41214" lon="4.859">
        <ele>229</ele>
        <time>2020-09-22T11:21:25Z</time>
      </trkpt>
      <trkpt lat="46.41205" lon="4.85898">
        <ele>228</ele>
        <time>2020-09-22T11:21:27Z</time>
      </trkpt>
      <trkpt lat="46.41186" lon="4.85887">
        <ele>228</ele>
        <time>2020-09-22T11:21:32Z</time>
      </trkpt>
      <trkpt lat="46.41031" lon="4.85779">
        <ele>225</ele>
        <time>2020-09-22T11:22:12Z</time>
      </trkpt>
      <trkpt lat="46.40992" lon="4.85761">
        <ele>223</ele>
        <time>2020-09-22T11:22:22Z</time>
      </trkpt>
      <trkpt lat="46.40958" lon="4.85753">
        <ele>220</ele>
        <time>2020-09-22T11:22:30Z</time>
      </trkpt>
      <trkpt lat="46.40907" lon="4.85747">
        <ele>215</ele>
        <time>2020-09-22T11:22:42Z</time>
      </trkpt>
      <trkpt lat="46.40878" lon="4.8574">
        <ele>211</ele>
        <time>2020-09-22T11:22:49Z</time>
      </trkpt>
      <trkpt lat="46.40839" lon="4.85727">
        <ele>205</ele>
        <time>2020-09-22T11:22:58Z</time>
      </trkpt>
      <trkpt lat="46.40803" lon="4.8571">
        <ele>201</ele>
        <time>2020-09-22T11:23:07Z</time>
      </trkpt>
      <trkpt lat="46.40792" lon="4.85703">
        <ele>200</ele>
        <time>2020-09-22T11:23:10Z</time>
      </trkpt>
      <trkpt lat="46.40706" lon="4.85625">
        <ele>189</ele>
        <time>2020-09-22T11:23:33Z</time>
      </trkpt>
      <trkpt lat="46.40663" lon="4.85594">
        <ele>180</ele>
        <time>2020-09-22T11:23:45Z</time>
      </trkpt>
      <trkpt lat="46.40649" lon="4.85589">
        <ele>181</ele>
        <time>2020-09-22T11:23:48Z</time>
      </trkpt>
      <trkpt lat="46.40644" lon="4.85728">
        <ele>181</ele>
        <time>2020-09-22T11:24:10Z</time>
      </trkpt>
      <trkpt lat="46.40649" lon="4.85789">
        <ele>180</ele>
        <time>2020-09-22T11:24:20Z</time>
      </trkpt>
      <trkpt lat="46.40657" lon="4.85829">
        <ele>178</ele>
        <time>2020-09-22T11:24:27Z</time>
      </trkpt>
      <trkpt lat="46.40675" lon="4.85892">
        <ele>179</ele>
        <time>2020-09-22T11:24:38Z</time>
      </trkpt>
      <trkpt lat="46.40705" lon="4.85965">
        <ele>180</ele>
        <time>2020-09-22T11:24:52Z</time>
      </trkpt>
      <trkpt lat="46.40719" lon="4.86027">
        <ele>180</ele>
        <time>2020-09-22T11:25:02Z</time>
      </trkpt>
      <trkpt lat="46.40733" lon="4.86248">
        <ele>179</ele>
        <time>2020-09-22T11:25:38Z</time>
      </trkpt>
      <trkpt lat="46.40733" lon="4.86307">
        <ele>179</ele>
        <time>2020-09-22T11:25:47Z</time>
      </trkpt>
      <trkpt lat="46.40726" lon="4.86389">
        <ele>180</ele>
        <time>2020-09-22T11:26:01Z</time>
      </trkpt>
      <trkpt lat="46.40727" lon="4.865">
        <ele>181</ele>
        <time>2020-09-22T11:26:19Z</time>
      </trkpt>
      <trkpt lat="46.4072" lon="4.86532">
        <ele>180</ele>
        <time>2020-09-22T11:26:24Z</time>
      </trkpt>
      <trkpt lat="46.407" lon="4.86568">
        <ele>179</ele>
        <time>2020-09-22T11:26:31Z</time>
      </trkpt>
      <trkpt lat="46.40664" lon="4.8666">
        <ele>179</ele>
        <time>2020-09-22T11:26:49Z</time>
      </trkpt>
      <trkpt lat="46.40583" lon="4.86901">
        <ele>178</ele>
        <time>2020-09-22T11:27:32Z</time>
      </trkpt>
      <trkpt lat="46.4057" lon="4.8692">
        <ele>178</ele>
        <time>2020-09-22T11:27:36Z</time>
      </trkpt>
      <trkpt lat="46.40575" lon="4.86913">
        <ele>178</ele>
        <time>2020-09-22T11:27:38Z</time>
      </trkpt>
      <trkpt lat="46.40581" lon="4.8692">
        <ele>179</ele>
        <time>2020-09-22T11:27:39Z</time>
      </trkpt>
      <trkpt lat="46.40599" lon="4.86931">
        <ele>181</ele>
        <time>2020-09-22T11:27:44Z</time>
      </trkpt>
      <trkpt lat="46.40635" lon="4.86946">
        <ele>184</ele>
        <time>2020-09-22T11:27:53Z</time>
      </trkpt>
      <trkpt lat="46.40723" lon="4.86978">
        <ele>190</ele>
        <time>2020-09-22T11:28:14Z</time>
      </trkpt>
      <trkpt lat="46.40785" lon="4.86996">
        <ele>192</ele>
        <time>2020-09-22T11:28:29Z</time>
      </trkpt>
      <trkpt lat="46.408" lon="4.87005">
        <ele>192</ele>
        <time>2020-09-22T11:28:32Z</time>
      </trkpt>
      <trkpt lat="46.40842" lon="4.87023">
        <ele>192</ele>
        <time>2020-09-22T11:28:43Z</time>
      </trkpt>
      <trkpt lat="46.40846" lon="4.87065">
        <ele>191</ele>
        <time>2020-09-22T11:28:50Z</time>
      </trkpt>
      <trkpt lat="46.40843" lon="4.87112">
        <ele>189</ele>
        <time>2020-09-22T11:28:57Z</time>
      </trkpt>
      <trkpt lat="46.40844" lon="4.87132">
        <ele>187</ele>
        <time>2020-09-22T11:29:00Z</time>
      </trkpt>
      <trkpt lat="46.40853" lon="4.87153">
        <ele>185</ele>
        <time>2020-09-22T11:29:04Z</time>
      </trkpt>
      <trkpt lat="46.40853" lon="4.87184">
        <ele>183</ele>
        <time>2020-09-22T11:29:09Z</time>
      </trkpt>
      <trkpt lat="46.40844" lon="4.87251">
        <ele>177</ele>
        <time>2020-09-22T11:29:20Z</time>
      </trkpt>
      <trkpt lat="46.4084" lon="4.87264">
        <ele>177</ele>
        <time>2020-09-22T11:29:23Z</time>
      </trkpt>
      <trkpt lat="46.40797" lon="4.87323">
        <ele>175</ele>
        <time>2020-09-22T11:29:36Z</time>
      </trkpt>
      <trkpt lat="46.40767" lon="4.87385">
        <ele>174</ele>
        <time>2020-09-22T11:29:49Z</time>
      </trkpt>
      <trkpt lat="46.40781" lon="4.87412">
        <ele>173</ele>
        <time>2020-09-22T11:29:54Z</time>
      </trkpt>
      <trkpt lat="46.40788" lon="4.87422">
        <ele>173</ele>
        <time>2020-09-22T11:29:56Z</time>
      </trkpt>
      <trkpt lat="46.40798" lon="4.8743">
        <ele>173</ele>
        <time>2020-09-22T11:29:59Z</time>
      </trkpt>
      <trkpt lat="46.40886" lon="4.87473">
        <ele>172</ele>
        <time>2020-09-22T11:30:21Z</time>
      </trkpt>
      <trkpt lat="46.40896" lon="4.87484">
        <ele>172</ele>
        <time>2020-09-22T11:30:24Z</time>
      </trkpt>
      <trkpt lat="46.40901" lon="4.87506">
        <ele>172</ele>
        <time>2020-09-22T11:30:27Z</time>
      </trkpt>
      <trkpt lat="46.40901" lon="4.87568">
        <ele>173</ele>
        <time>2020-09-22T11:30:37Z</time>
      </trkpt>
      <trkpt lat="46.40892" lon="4.87634">
        <ele>173</ele>
        <time>2020-09-22T11:30:48Z</time>
      </trkpt>
      <trkpt lat="46.40886" lon="4.87651">
        <ele>173</ele>
        <time>2020-09-22T11:30:51Z</time>
      </trkpt>
      <trkpt lat="46.40857" lon="4.87675">
        <ele>173</ele>
        <time>2020-09-22T11:30:59Z</time>
      </trkpt>
      <trkpt lat="46.40854" lon="4.87683">
        <ele>173</ele>
        <time>2020-09-22T11:31:01Z</time>
      </trkpt>
      <trkpt lat="46.4085" lon="4.8771">
        <ele>172</ele>
        <time>2020-09-22T11:31:05Z</time>
      </trkpt>
      <trkpt lat="46.40848" lon="4.87778">
        <ele>172</ele>
        <time>2020-09-22T11:31:16Z</time>
      </trkpt>
      <trkpt lat="46.40825" lon="4.87802">
        <ele>172</ele>
        <time>2020-09-22T11:31:23Z</time>
      </trkpt>
      <trkpt lat="46.40819" lon="4.87813">
        <ele>172</ele>
        <time>2020-09-22T11:31:25Z</time>
      </trkpt>
      <trkpt lat="46.40808" lon="4.87873">
        <ele>171</ele>
        <time>2020-09-22T11:31:35Z</time>
      </trkpt>
      <trkpt lat="46.40812" lon="4.87917">
        <ele>171</ele>
        <time>2020-09-22T11:31:42Z</time>
      </trkpt>
      <trkpt lat="46.40839" lon="4.88064">
        <ele>172</ele>
        <time>2020-09-22T11:32:06Z</time>
      </trkpt>
      <trkpt lat="46.40859" lon="4.88125">
        <ele>172</ele>
        <time>2020-09-22T11:32:17Z</time>
      </trkpt>
      <trkpt lat="46.40863" lon="4.88253">
        <ele>171</ele>
        <time>2020-09-22T11:32:38Z</time>
      </trkpt>
      <trkpt lat="46.40866" lon="4.88282">
        <ele>172</ele>
        <time>2020-09-22T11:32:43Z</time>
      </trkpt>
      <trkpt lat="46.4087" lon="4.88297">
        <ele>172</ele>
        <time>2020-09-22T11:32:45Z</time>
      </trkpt>
      <trkpt lat="46.40882" lon="4.8832">
        <ele>172</ele>
        <time>2020-09-22T11:32:50Z</time>
      </trkpt>
      <trkpt lat="46.4093" lon="4.88384">
        <ele>172</ele>
        <time>2020-09-22T11:33:05Z</time>
      </trkpt>
      <trkpt lat="46.40972" lon="4.88448">
        <ele>171</ele>
        <time>2020-09-22T11:33:19Z</time>
      </trkpt>
      <trkpt lat="46.40996" lon="4.88555">
        <ele>172</ele>
        <time>2020-09-22T11:33:37Z</time>
      </trkpt>
      <trkpt lat="46.41019" lon="4.88577">
        <ele>172</ele>
        <time>2020-09-22T11:33:44Z</time>
      </trkpt>
      <trkpt lat="46.41032" lon="4.88584">
        <ele>171</ele>
        <time>2020-09-22T11:33:47Z</time>
      </trkpt>
      <trkpt lat="46.41049" lon="4.88585">
        <ele>171</ele>
        <time>2020-09-22T11:33:51Z</time>
      </trkpt>
      <trkpt lat="46.41189" lon="4.88567">
        <ele>171</ele>
        <time>2020-09-22T11:34:24Z</time>
      </trkpt>
      <trkpt lat="46.41402" lon="4.88587">
        <ele>169</ele>
        <time>2020-09-22T11:35:14Z</time>
      </trkpt>
      <trkpt lat="46.41445" lon="4.88595">
        <ele>168</ele>
        <time>2020-09-22T11:35:24Z</time>
      </trkpt>
      <trkpt lat="46.41504" lon="4.8861">
        <ele>168</ele>
        <time>2020-09-22T11:35:38Z</time>
      </trkpt>
      <trkpt lat="46.4169" lon="4.88669">
        <ele>170</ele>
        <time>2020-09-22T11:36:22Z</time>
      </trkpt>
      <trkpt lat="46.41732" lon="4.88672">
        <ele>171</ele>
        <time>2020-09-22T11:36:32Z</time>
      </trkpt>
      <trkpt lat="46.41748" lon="4.88671">
        <ele>171</ele>
        <time>2020-09-22T11:36:36Z</time>
      </trkpt>
      <trkpt lat="46.41785" lon="4.88697">
        <ele>170</ele>
        <time>2020-09-22T11:36:46Z</time>
      </trkpt>
      <trkpt lat="46.41827" lon="4.88706">
        <ele>170</ele>
        <time>2020-09-22T11:36:55Z</time>
      </trkpt>
      <trkpt lat="46.41873" lon="4.88709">
        <ele>170</ele>
        <time>2020-09-22T11:37:06Z</time>
      </trkpt>
      <trkpt lat="46.42069" lon="4.88744">
        <ele>170</ele>
        <time>2020-09-22T11:37:52Z</time>
      </trkpt>
      <trkpt lat="46.42121" lon="4.88758">
        <ele>170</ele>
        <time>2020-09-22T11:38:05Z</time>
      </trkpt>
      <trkpt lat="46.42311" lon="4.88797">
        <ele>170</ele>
        <time>2020-09-22T11:38:49Z</time>
      </trkpt>
      <trkpt lat="46.42466" lon="4.88825">
        <ele>170</ele>
        <time>2020-09-22T11:39:26Z</time>
      </trkpt>
      <trkpt lat="46.42518" lon="4.8883">
        <ele>170</ele>
        <time>2020-09-22T11:39:38Z</time>
      </trkpt>
      <trkpt lat="46.42787" lon="4.88846">
        <ele>170</ele>
        <time>2020-09-22T11:40:41Z</time>
      </trkpt>
      <trkpt lat="46.4284" lon="4.88848">
        <ele>170</ele>
        <time>2020-09-22T11:40:53Z</time>
      </trkpt>
      <trkpt lat="46.42871" lon="4.88845">
        <ele>170</ele>
        <time>2020-09-22T11:41:01Z</time>
      </trkpt>
      <trkpt lat="46.42956" lon="4.88815">
        <ele>170</ele>
        <time>2020-09-22T11:41:21Z</time>
      </trkpt>
      <trkpt lat="46.42965" lon="4.88818">
        <ele>170</ele>
        <time>2020-09-22T11:41:23Z</time>
      </trkpt>
      <trkpt lat="46.42977" lon="4.88817">
        <ele>170</ele>
        <time>2020-09-22T11:41:26Z</time>
      </trkpt>
      <trkpt lat="46.4299" lon="4.88811">
        <ele>171</ele>
        <time>2020-09-22T11:41:29Z</time>
      </trkpt>
      <trkpt lat="46.43019" lon="4.88788">
        <ele>171</ele>
        <time>2020-09-22T11:41:37Z</time>
      </trkpt>
      <trkpt lat="46.43095" lon="4.88748">
        <ele>170</ele>
        <time>2020-09-22T11:41:56Z</time>
      </trkpt>
      <trkpt lat="46.43153" lon="4.8873">
        <ele>170</ele>
        <time>2020-09-22T11:42:10Z</time>
      </trkpt>
      <trkpt lat="46.43184" lon="4.88725">
        <ele>170</ele>
        <time>2020-09-22T11:42:17Z</time>
      </trkpt>
      <trkpt lat="46.43255" lon="4.88725">
        <ele>170</ele>
        <time>2020-09-22T11:42:34Z</time>
      </trkpt>
      <trkpt lat="46.43373" lon="4.88748">
        <ele>170</ele>
        <time>2020-09-22T11:43:01Z</time>
      </trkpt>
      <trkpt lat="46.43428" lon="4.88755">
        <ele>170</ele>
        <time>2020-09-22T11:43:14Z</time>
      </trkpt>
      <trkpt lat="46.43437" lon="4.88754">
        <ele>170</ele>
        <time>2020-09-22T11:43:16Z</time>
      </trkpt>
      <trkpt lat="46.43449" lon="4.88748">
        <ele>170</ele>
        <time>2020-09-22T11:43:19Z</time>
      </trkpt>
      <trkpt lat="46.4346" lon="4.88758">
        <ele>169</ele>
        <time>2020-09-22T11:43:22Z</time>
      </trkpt>
      <trkpt lat="46.43464" lon="4.88753">
        <ele>169</ele>
        <time>2020-09-22T11:43:24Z</time>
      </trkpt>
      <trkpt lat="46.43471" lon="4.88723">
        <ele>170</ele>
        <time>2020-09-22T11:43:29Z</time>
      </trkpt>
      <trkpt lat="46.43573" lon="4.88463">
        <ele>171</ele>
        <time>2020-09-22T11:44:17Z</time>
      </trkpt>
      <trkpt lat="46.43599" lon="4.88404">
        <ele>168</ele>
        <time>2020-09-22T11:44:28Z</time>
      </trkpt>
      <trkpt lat="46.43611" lon="4.88401">
        <ele>168</ele>
        <time>2020-09-22T11:44:31Z</time>
      </trkpt>
      <trkpt lat="46.43734" lon="4.88441">
        <ele>169</ele>
        <time>2020-09-22T11:45:00Z</time>
      </trkpt>
      <trkpt lat="46.43813" lon="4.88471">
        <ele>170</ele>
        <time>2020-09-22T11:45:19Z</time>
      </trkpt>
      <trkpt lat="46.43862" lon="4.88487">
        <ele>171</ele>
        <time>2020-09-22T11:45:31Z</time>
      </trkpt>
      <trkpt lat="46.43876" lon="4.88488">
        <ele>172</ele>
        <time>2020-09-22T11:45:34Z</time>
      </trkpt>
      <trkpt lat="46.4388" lon="4.88479">
        <ele>172</ele>
        <time>2020-09-22T11:45:36Z</time>
      </trkpt>
      <trkpt lat="46.43895" lon="4.88396">
        <ele>172</ele>
        <time>2020-09-22T11:45:50Z</time>
      </trkpt>
      <trkpt lat="46.43902" lon="4.8832">
        <ele>171</ele>
        <time>2020-09-22T11:46:02Z</time>
      </trkpt>
      <trkpt lat="46.43917" lon="4.88316">
        <ele>171</ele>
        <time>2020-09-22T11:46:06Z</time>
      </trkpt>
      <trkpt lat="46.43935" lon="4.8832">
        <ele>171</ele>
        <time>2020-09-22T11:46:10Z</time>
      </trkpt>
      <trkpt lat="46.44017" lon="4.88359">
        <ele>171</ele>
        <time>2020-09-22T11:46:30Z</time>
      </trkpt>
      <trkpt lat="46.44268" lon="4.88483">
        <ele>173</ele>
        <time>2020-09-22T11:47:32Z</time>
      </trkpt>
      <trkpt lat="46.44278" lon="4.88489">
        <ele>173</ele>
        <time>2020-09-22T11:47:35Z</time>
      </trkpt>
      <trkpt lat="46.44288" lon="4.88505">
        <ele>173</ele>
        <time>2020-09-22T11:47:38Z</time>
      </trkpt>
      <trkpt lat="46.44296" lon="4.88511">
        <ele>172</ele>
        <time>2020-09-22T11:47:40Z</time>
      </trkpt>
      <trkpt lat="46.44313" lon="4.88516">
        <ele>171</ele>
        <time>2020-09-22T11:47:44Z</time>
      </trkpt>
      <trkpt lat="46.44336" lon="4.88446">
        <ele>171</ele>
        <time>2020-09-22T11:47:57Z</time>
      </trkpt>
      <trkpt lat="46.44342" lon="4.88446">
        <ele>171</ele>
        <time>2020-09-22T11:47:58Z</time>
      </trkpt>
      <trkpt lat="46.44359" lon="4.88439">
        <ele>171</ele>
        <time>2020-09-22T11:48:02Z</time>
      </trkpt>
      <trkpt lat="46.44397" lon="4.88418">
        <ele>172</ele>
        <time>2020-09-22T11:48:12Z</time>
      </trkpt>
      <trkpt lat="46.4441" lon="4.88419">
        <ele>172</ele>
        <time>2020-09-22T11:48:15Z</time>
      </trkpt>
      <trkpt lat="46.44422" lon="4.88427">
        <ele>172</ele>
        <time>2020-09-22T11:48:18Z</time>
      </trkpt>
      <trkpt lat="46.44455" lon="4.88508">
        <ele>172</ele>
        <time>2020-09-22T11:48:33Z</time>
      </trkpt>
      <trkpt lat="46.44455" lon="4.88548">
        <ele>172</ele>
        <time>2020-09-22T11:48:40Z</time>
      </trkpt>
      <trkpt lat="46.44481" lon="4.88594">
        <ele>171</ele>
        <time>2020-09-22T11:48:49Z</time>
      </trkpt>
      <trkpt lat="46.44497" lon="4.88617">
        <ele>171</ele>
        <time>2020-09-22T11:48:54Z</time>
      </trkpt>
      <trkpt lat="46.44551" lon="4.88664">
        <ele>170</ele>
        <time>2020-09-22T11:49:09Z</time>
      </trkpt>
      <trkpt lat="46.4456" lon="4.88664">
        <ele>170</ele>
        <time>2020-09-22T11:49:11Z</time>
      </trkpt>
      <trkpt lat="46.44568" lon="4.8865">
        <ele>170</ele>
        <time>2020-09-22T11:49:14Z</time>
      </trkpt>
      <trkpt lat="46.44583" lon="4.8858">
        <ele>172</ele>
        <time>2020-09-22T11:49:26Z</time>
      </trkpt>
      <trkpt lat="46.44592" lon="4.88566">
        <ele>172</ele>
        <time>2020-09-22T11:49:29Z</time>
      </trkpt>
      <trkpt lat="46.44599" lon="4.88562">
        <ele>172</ele>
        <time>2020-09-22T11:49:31Z</time>
      </trkpt>
      <trkpt lat="46.44629" lon="4.88561">
        <ele>172</ele>
        <time>2020-09-22T11:49:38Z</time>
      </trkpt>
      <trkpt lat="46.44646" lon="4.88571">
        <ele>173</ele>
        <time>2020-09-22T11:49:42Z</time>
      </trkpt>
    </trkseg>
  </trk>
  <trk>
    <name><![CDATA[12 - ROULER_POUR_VISITER_LE_MACONNAIS - Bleu]]></name>
    <extensions>
      <line xmlns="http://www.topografix.com/GPX/gpx_style/0/2">
        <color>00eb85</color>
        <width>4</width>
      </line>
    </extensions>
    <trkseg>
      <trkpt lat="46.43107" lon="4.76182">
        <ele>244</ele>
        <time>2020-09-22T10:08:03Z</time>
      </trkpt>
      <trkpt lat="46.43112" lon="4.76234">
        <ele>240</ele>
        <time>2020-09-22T10:08:11Z</time>
      </trkpt>
      <trkpt lat="46.43111" lon="4.76265">
        <ele>239</ele>
        <time>2020-09-22T10:08:16Z</time>
      </trkpt>
      <trkpt lat="46.43103" lon="4.7628">
        <ele>238</ele>
        <time>2020-09-22T10:08:19Z</time>
      </trkpt>
      <trkpt lat="46.43075" lon="4.76297">
        <ele>237</ele>
        <time>2020-09-22T10:08:27Z</time>
      </trkpt>
      <trkpt lat="46.43057" lon="4.76304">
        <ele>237</ele>
        <time>2020-09-22T10:08:31Z</time>
      </trkpt>
      <trkpt lat="46.43034" lon="4.76337">
        <ele>236</ele>
        <time>2020-09-22T10:08:38Z</time>
      </trkpt>
      <trkpt lat="46.43026" lon="4.76366">
        <ele>237</ele>
        <time>2020-09-22T10:08:44Z</time>
      </trkpt>
      <trkpt lat="46.43021" lon="4.76455">
        <ele>240</ele>
        <time>2020-09-22T10:08:58Z</time>
      </trkpt>
      <trkpt lat="46.43016" lon="4.76479">
        <ele>242</ele>
        <time>2020-09-22T10:09:02Z</time>
      </trkpt>
      <trkpt lat="46.43007" lon="4.76509">
        <ele>243</ele>
        <time>2020-09-22T10:09:07Z</time>
      </trkpt>
      <trkpt lat="46.4299" lon="4.76538">
        <ele>245</ele>
        <time>2020-09-22T10:09:13Z</time>
      </trkpt>
      <trkpt lat="46.42978" lon="4.76544">
        <ele>246</ele>
        <time>2020-09-22T10:09:16Z</time>
      </trkpt>
      <trkpt lat="46.42879" lon="4.76574">
        <ele>247</ele>
        <time>2020-09-22T10:09:40Z</time>
      </trkpt>
      <trkpt lat="46.42856" lon="4.76575">
        <ele>247</ele>
        <time>2020-09-22T10:09:45Z</time>
      </trkpt>
      <trkpt lat="46.42742" lon="4.7657">
        <ele>246</ele>
        <time>2020-09-22T10:10:12Z</time>
      </trkpt>
      <trkpt lat="46.42727" lon="4.76571">
        <ele>246</ele>
        <time>2020-09-22T10:10:15Z</time>
      </trkpt>
      <trkpt lat="46.42716" lon="4.76575">
        <ele>246</ele>
        <time>2020-09-22T10:10:18Z</time>
      </trkpt>
      <trkpt lat="46.42671" lon="4.76609">
        <ele>248</ele>
        <time>2020-09-22T10:10:30Z</time>
      </trkpt>
      <trkpt lat="46.42646" lon="4.76619">
        <ele>248</ele>
        <time>2020-09-22T10:10:36Z</time>
      </trkpt>
      <trkpt lat="46.42623" lon="4.76632">
        <ele>248</ele>
        <time>2020-09-22T10:10:42Z</time>
      </trkpt>
      <trkpt lat="46.42582" lon="4.76665">
        <ele>249</ele>
        <time>2020-09-22T10:10:53Z</time>
      </trkpt>
      <trkpt lat="46.4256" lon="4.76679">
        <ele>248</ele>
        <time>2020-09-22T10:10:58Z</time>
      </trkpt>
      <trkpt lat="46.4248" lon="4.7672">
        <ele>246</ele>
        <time>2020-09-22T10:11:18Z</time>
      </trkpt>
      <trkpt lat="46.42349" lon="4.76782">
        <ele>245</ele>
        <time>2020-09-22T10:11:50Z</time>
      </trkpt>
      <trkpt lat="46.42284" lon="4.76821">
        <ele>241</ele>
        <time>2020-09-22T10:12:07Z</time>
      </trkpt>
      <trkpt lat="46.42266" lon="4.76824">
        <ele>240</ele>
        <time>2020-09-22T10:12:11Z</time>
      </trkpt>
      <trkpt lat="46.42255" lon="4.76823">
        <ele>239</ele>
        <time>2020-09-22T10:12:14Z</time>
      </trkpt>
      <trkpt lat="46.4219" lon="4.76798">
        <ele>234</ele>
        <time>2020-09-22T10:12:29Z</time>
      </trkpt>
      <trkpt lat="46.42182" lon="4.76814">
        <ele>234</ele>
        <time>2020-09-22T10:12:32Z</time>
      </trkpt>
      <trkpt lat="46.42069" lon="4.76761">
        <ele>226</ele>
        <time>2020-09-22T10:13:00Z</time>
      </trkpt>
      <trkpt lat="46.42048" lon="4.76754">
        <ele>225</ele>
        <time>2020-09-22T10:13:05Z</time>
      </trkpt>
      <trkpt lat="46.42049" lon="4.76731">
        <ele>225</ele>
        <time>2020-09-22T10:13:09Z</time>
      </trkpt>
      <trkpt lat="46.42055" lon="4.76707">
        <ele>226</ele>
        <time>2020-09-22T10:13:13Z</time>
      </trkpt>
      <trkpt lat="46.42072" lon="4.76658">
        <ele>226</ele>
        <time>2020-09-22T10:13:22Z</time>
      </trkpt>
      <trkpt lat="46.42094" lon="4.76624">
        <ele>226</ele>
        <time>2020-09-22T10:13:29Z</time>
      </trkpt>
      <trkpt lat="46.42114" lon="4.76582">
        <ele>225</ele>
        <time>2020-09-22T10:13:38Z</time>
      </trkpt>
      <trkpt lat="46.4213" lon="4.76517">
        <ele>226</ele>
        <time>2020-09-22T10:13:49Z</time>
      </trkpt>
      <trkpt lat="46.42128" lon="4.76489">
        <ele>226</ele>
        <time>2020-09-22T10:13:53Z</time>
      </trkpt>
      <trkpt lat="46.42119" lon="4.76463">
        <ele>228</ele>
        <time>2020-09-22T10:13:58Z</time>
      </trkpt>
      <trkpt lat="46.42113" lon="4.76453">
        <ele>229</ele>
        <time>2020-09-22T10:14:00Z</time>
      </trkpt>
      <trkpt lat="46.42075" lon="4.76413">
        <ele>234</ele>
        <time>2020-09-22T10:14:11Z</time>
      </trkpt>
      <trkpt lat="46.42069" lon="4.764">
        <ele>234</ele>
        <time>2020-09-22T10:14:13Z</time>
      </trkpt>
      <trkpt lat="46.42066" lon="4.76382">
        <ele>234</ele>
        <time>2020-09-22T10:14:16Z</time>
      </trkpt>
      <trkpt lat="46.42064" lon="4.76352">
        <ele>234</ele>
        <time>2020-09-22T10:14:21Z</time>
      </trkpt>
      <trkpt lat="46.42086" lon="4.76218">
        <ele>230</ele>
        <time>2020-09-22T10:14:44Z</time>
      </trkpt>
      <trkpt lat="46.4211" lon="4.76175">
        <ele>230</ele>
        <time>2020-09-22T10:14:52Z</time>
      </trkpt>
      <trkpt lat="46.42119" lon="4.76152">
        <ele>231</ele>
        <time>2020-09-22T10:14:57Z</time>
      </trkpt>
      <trkpt lat="46.42128" lon="4.76078">
        <ele>231</ele>
        <time>2020-09-22T10:15:09Z</time>
      </trkpt>
      <trkpt lat="46.42147" lon="4.75993">
        <ele>232</ele>
        <time>2020-09-22T10:15:23Z</time>
      </trkpt>
      <trkpt lat="46.42151" lon="4.75959">
        <ele>232</ele>
        <time>2020-09-22T10:15:29Z</time>
      </trkpt>
      <trkpt lat="46.42154" lon="4.75845">
        <ele>231</ele>
        <time>2020-09-22T10:15:47Z</time>
      </trkpt>
      <trkpt lat="46.42163" lon="4.75807">
        <ele>231</ele>
        <time>2020-09-22T10:15:54Z</time>
      </trkpt>
      <trkpt lat="46.42175" lon="4.75781">
        <ele>231</ele>
        <time>2020-09-22T10:15:59Z</time>
      </trkpt>
      <trkpt lat="46.42219" lon="4.75719">
        <ele>232</ele>
        <time>2020-09-22T10:16:13Z</time>
      </trkpt>
      <trkpt lat="46.4223" lon="4.75698">
        <ele>232</ele>
        <time>2020-09-22T10:16:17Z</time>
      </trkpt>
      <trkpt lat="46.42264" lon="4.756">
        <ele>233</ele>
        <time>2020-09-22T10:16:35Z</time>
      </trkpt>
      <trkpt lat="46.42269" lon="4.75568">
        <ele>234</ele>
        <time>2020-09-22T10:16:40Z</time>
      </trkpt>
      <trkpt lat="46.42289" lon="4.7535">
        <ele>244</ele>
        <time>2020-09-22T10:17:15Z</time>
      </trkpt>
      <trkpt lat="46.42286" lon="4.75322">
        <ele>245</ele>
        <time>2020-09-22T10:17:20Z</time>
      </trkpt>
      <trkpt lat="46.42271" lon="4.753">
        <ele>245</ele>
        <time>2020-09-22T10:17:25Z</time>
      </trkpt>
      <trkpt lat="46.42276" lon="4.75299">
        <ele>245</ele>
        <time>2020-09-22T10:17:26Z</time>
      </trkpt>
      <trkpt lat="46.4202" lon="4.75334">
        <ele>238</ele>
        <time>2020-09-22T10:18:26Z</time>
      </trkpt>
      <trkpt lat="46.42002" lon="4.75346">
        <ele>238</ele>
        <time>2020-09-22T10:18:31Z</time>
      </trkpt>
      <trkpt lat="46.41986" lon="4.75365">
        <ele>237</ele>
        <time>2020-09-22T10:18:36Z</time>
      </trkpt>
      <trkpt lat="46.41973" lon="4.75395">
        <ele>237</ele>
        <time>2020-09-22T10:18:41Z</time>
      </trkpt>
      <trkpt lat="46.41941" lon="4.75437">
        <ele>236</ele>
        <time>2020-09-22T10:18:51Z</time>
      </trkpt>
      <trkpt lat="46.41852" lon="4.7561">
        <ele>234</ele>
        <time>2020-09-22T10:19:26Z</time>
      </trkpt>
      <trkpt lat="46.41846" lon="4.75624">
        <ele>234</ele>
        <time>2020-09-22T10:19:29Z</time>
      </trkpt>
      <trkpt lat="46.4183" lon="4.75683">
        <ele>235</ele>
        <time>2020-09-22T10:19:39Z</time>
      </trkpt>
      <trkpt lat="46.41796" lon="4.7576">
        <ele>237</ele>
        <time>2020-09-22T10:19:54Z</time>
      </trkpt>
      <trkpt lat="46.41793" lon="4.75786">
        <ele>238</ele>
        <time>2020-09-22T10:19:58Z</time>
      </trkpt>
      <trkpt lat="46.41779" lon="4.75852">
        <ele>239</ele>
        <time>2020-09-22T10:20:09Z</time>
      </trkpt>
      <trkpt lat="46.41755" lon="4.75941">
        <ele>242</ele>
        <time>2020-09-22T10:20:25Z</time>
      </trkpt>
      <trkpt lat="46.41744" lon="4.75969">
        <ele>243</ele>
        <time>2020-09-22T10:20:30Z</time>
      </trkpt>
      <trkpt lat="46.4172" lon="4.76028">
        <ele>246</ele>
        <time>2020-09-22T10:20:41Z</time>
      </trkpt>
      <trkpt lat="46.4171" lon="4.76048">
        <ele>247</ele>
        <time>2020-09-22T10:20:45Z</time>
      </trkpt>
      <trkpt lat="46.41668" lon="4.76114">
        <ele>251</ele>
        <time>2020-09-22T10:20:59Z</time>
      </trkpt>
      <trkpt lat="46.41655" lon="4.7614">
        <ele>251</ele>
        <time>2020-09-22T10:21:04Z</time>
      </trkpt>
      <trkpt lat="46.41648" lon="4.76162">
        <ele>252</ele>
        <time>2020-09-22T10:21:08Z</time>
      </trkpt>
      <trkpt lat="46.41616" lon="4.76233">
        <ele>253</ele>
        <time>2020-09-22T10:21:22Z</time>
      </trkpt>
      <trkpt lat="46.41572" lon="4.76315">
        <ele>256</ele>
        <time>2020-09-22T10:21:39Z</time>
      </trkpt>
      <trkpt lat="46.41527" lon="4.76478">
        <ele>254</ele>
        <time>2020-09-22T10:22:07Z</time>
      </trkpt>
      <trkpt lat="46.41475" lon="4.76614">
        <ele>254</ele>
        <time>2020-09-22T10:22:32Z</time>
      </trkpt>
      <trkpt lat="46.41479" lon="4.76654">
        <ele>255</ele>
        <time>2020-09-22T10:22:39Z</time>
      </trkpt>
      <trkpt lat="46.41467" lon="4.76698">
        <ele>255</ele>
        <time>2020-09-22T10:22:46Z</time>
      </trkpt>
      <trkpt lat="46.41431" lon="4.76806">
        <ele>254</ele>
        <time>2020-09-22T10:23:05Z</time>
      </trkpt>
      <trkpt lat="46.41415" lon="4.76864">
        <ele>254</ele>
        <time>2020-09-22T10:23:16Z</time>
      </trkpt>
      <trkpt lat="46.41405" lon="4.76882">
        <ele>255</ele>
        <time>2020-09-22T10:23:19Z</time>
      </trkpt>
      <trkpt lat="46.41369" lon="4.76965">
        <ele>254</ele>
        <time>2020-09-22T10:23:35Z</time>
      </trkpt>
      <trkpt lat="46.41346" lon="4.7705">
        <ele>251</ele>
        <time>2020-09-22T10:23:50Z</time>
      </trkpt>
      <trkpt lat="46.41329" lon="4.77147">
        <ele>248</ele>
        <time>2020-09-22T10:24:06Z</time>
      </trkpt>
      <trkpt lat="46.41319" lon="4.77185">
        <ele>247</ele>
        <time>2020-09-22T10:24:12Z</time>
      </trkpt>
      <trkpt lat="46.41267" lon="4.7731">
        <ele>246</ele>
        <time>2020-09-22T10:24:36Z</time>
      </trkpt>
      <trkpt lat="46.41203" lon="4.77515">
        <ele>241</ele>
        <time>2020-09-22T10:25:12Z</time>
      </trkpt>
      <trkpt lat="46.41193" lon="4.77553">
        <ele>239</ele>
        <time>2020-09-22T10:25:19Z</time>
      </trkpt>
      <trkpt lat="46.41179" lon="4.77626">
        <ele>238</ele>
        <time>2020-09-22T10:25:31Z</time>
      </trkpt>
      <trkpt lat="46.41167" lon="4.7766">
        <ele>237</ele>
        <time>2020-09-22T10:25:37Z</time>
      </trkpt>
      <trkpt lat="46.41121" lon="4.77838">
        <ele>233</ele>
        <time>2020-09-22T10:26:08Z</time>
      </trkpt>
      <trkpt lat="46.4111" lon="4.77988">
        <ele>226</ele>
        <time>2020-09-22T10:26:32Z</time>
      </trkpt>
      <trkpt lat="46.41116" lon="4.78112">
        <ele>219</ele>
        <time>2020-09-22T10:26:52Z</time>
      </trkpt>
      <trkpt lat="46.41122" lon="4.78137">
        <ele>217</ele>
        <time>2020-09-22T10:26:56Z</time>
      </trkpt>
      <trkpt lat="46.41138" lon="4.78184">
        <ele>214</ele>
        <time>2020-09-22T10:27:05Z</time>
      </trkpt>
      <trkpt lat="46.4114" lon="4.78208">
        <ele>213</ele>
        <time>2020-09-22T10:27:09Z</time>
      </trkpt>
      <trkpt lat="46.41114" lon="4.78321">
        <ele>212</ele>
        <time>2020-09-22T10:27:28Z</time>
      </trkpt>
      <trkpt lat="46.41106" lon="4.78369">
        <ele>211</ele>
        <time>2020-09-22T10:27:36Z</time>
      </trkpt>
      <trkpt lat="46.41103" lon="4.78406">
        <ele>210</ele>
        <time>2020-09-22T10:27:42Z</time>
      </trkpt>
      <trkpt lat="46.41122" lon="4.78424">
        <ele>209</ele>
        <time>2020-09-22T10:27:47Z</time>
      </trkpt>
      <trkpt lat="46.41205" lon="4.78516">
        <ele>210</ele>
        <time>2020-09-22T10:28:11Z</time>
      </trkpt>
      <trkpt lat="46.41222" lon="4.78539">
        <ele>211</ele>
        <time>2020-09-22T10:28:17Z</time>
      </trkpt>
      <trkpt lat="46.41267" lon="4.78574">
        <ele>214</ele>
        <time>2020-09-22T10:28:29Z</time>
      </trkpt>
      <trkpt lat="46.41323" lon="4.78613">
        <ele>217</ele>
        <time>2020-09-22T10:28:43Z</time>
      </trkpt>
      <trkpt lat="46.41339" lon="4.78645">
        <ele>218</ele>
        <time>2020-09-22T10:28:50Z</time>
      </trkpt>
      <trkpt lat="46.41413" lon="4.78761">
        <ele>219</ele>
        <time>2020-09-22T10:29:15Z</time>
      </trkpt>
      <trkpt lat="46.41427" lon="4.78799">
        <ele>220</ele>
        <time>2020-09-22T10:29:22Z</time>
      </trkpt>
      <trkpt lat="46.41442" lon="4.78863">
        <ele>219</ele>
        <time>2020-09-22T10:29:33Z</time>
      </trkpt>
      <trkpt lat="46.41449" lon="4.78976">
        <ele>219</ele>
        <time>2020-09-22T10:29:51Z</time>
      </trkpt>
      <trkpt lat="46.41467" lon="4.79175">
        <ele>218</ele>
        <time>2020-09-22T10:30:23Z</time>
      </trkpt>
      <trkpt lat="46.41467" lon="4.79209">
        <ele>218</ele>
        <time>2020-09-22T10:30:29Z</time>
      </trkpt>
      <trkpt lat="46.41463" lon="4.79257">
        <ele>218</ele>
        <time>2020-09-22T10:30:37Z</time>
      </trkpt>
      <trkpt lat="46.41471" lon="4.79268">
        <ele>218</ele>
        <time>2020-09-22T10:30:39Z</time>
      </trkpt>
      <trkpt lat="46.415" lon="4.79284">
        <ele>219</ele>
        <time>2020-09-22T10:30:46Z</time>
      </trkpt>
      <trkpt lat="46.41521" lon="4.79291">
        <ele>219</ele>
        <time>2020-09-22T10:30:52Z</time>
      </trkpt>
      <trkpt lat="46.41532" lon="4.79291">
        <ele>220</ele>
        <time>2020-09-22T10:30:54Z</time>
      </trkpt>
      <trkpt lat="46.41544" lon="4.79285">
        <ele>220</ele>
        <time>2020-09-22T10:30:57Z</time>
      </trkpt>
      <trkpt lat="46.41575" lon="4.79258">
        <ele>222</ele>
        <time>2020-09-22T10:31:06Z</time>
      </trkpt>
      <trkpt lat="46.41578" lon="4.79253">
        <ele>222</ele>
        <time>2020-09-22T10:31:07Z</time>
      </trkpt>
      <trkpt lat="46.41627" lon="4.79029">
        <ele>222</ele>
        <time>2020-09-22T10:31:44Z</time>
      </trkpt>
      <trkpt lat="46.41812" lon="4.79141">
        <ele>227</ele>
        <time>2020-09-22T10:32:31Z</time>
      </trkpt>
      <trkpt lat="46.41862" lon="4.7918">
        <ele>230</ele>
        <time>2020-09-22T10:32:44Z</time>
      </trkpt>
      <trkpt lat="46.41878" lon="4.79189">
        <ele>231</ele>
        <time>2020-09-22T10:32:48Z</time>
      </trkpt>
      <trkpt lat="46.41942" lon="4.79211">
        <ele>231</ele>
        <time>2020-09-22T10:33:04Z</time>
      </trkpt>
      <trkpt lat="46.41998" lon="4.79237">
        <ele>228</ele>
        <time>2020-09-22T10:33:18Z</time>
      </trkpt>
      <trkpt lat="46.42046" lon="4.79238">
        <ele>227</ele>
        <time>2020-09-22T10:33:29Z</time>
      </trkpt>
      <trkpt lat="46.42049" lon="4.79265">
        <ele>227</ele>
        <time>2020-09-22T10:33:33Z</time>
      </trkpt>
      <trkpt lat="46.42054" lon="4.79417">
        <ele>223</ele>
        <time>2020-09-22T10:33:58Z</time>
      </trkpt>
      <trkpt lat="46.42067" lon="4.79548">
        <ele>223</ele>
        <time>2020-09-22T10:34:19Z</time>
      </trkpt>
      <trkpt lat="46.42066" lon="4.79572">
        <ele>224</ele>
        <time>2020-09-22T10:34:23Z</time>
      </trkpt>
      <trkpt lat="46.42055" lon="4.79664">
        <ele>228</ele>
        <time>2020-09-22T10:34:38Z</time>
      </trkpt>
      <trkpt lat="46.42051" lon="4.7974">
        <ele>232</ele>
        <time>2020-09-22T10:34:50Z</time>
      </trkpt>
      <trkpt lat="46.42021" lon="4.79922">
        <ele>243</ele>
        <time>2020-09-22T10:35:20Z</time>
      </trkpt>
      <trkpt lat="46.42011" lon="4.80009">
        <ele>246</ele>
        <time>2020-09-22T10:35:34Z</time>
      </trkpt>
      <trkpt lat="46.42009" lon="4.80041">
        <ele>245</ele>
        <time>2020-09-22T10:35:40Z</time>
      </trkpt>
      <trkpt lat="46.4201" lon="4.80208">
        <ele>240</ele>
        <time>2020-09-22T10:36:07Z</time>
      </trkpt>
      <trkpt lat="46.42005" lon="4.80285">
        <ele>237</ele>
        <time>2020-09-22T10:36:19Z</time>
      </trkpt>
      <trkpt lat="46.41994" lon="4.80376">
        <ele>233</ele>
        <time>2020-09-22T10:36:34Z</time>
      </trkpt>
      <trkpt lat="46.41955" lon="4.80647">
        <ele>223</ele>
        <time>2020-09-22T10:37:18Z</time>
      </trkpt>
      <trkpt lat="46.41938" lon="4.80729">
        <ele>222</ele>
        <time>2020-09-22T10:37:32Z</time>
      </trkpt>
      <trkpt lat="46.41895" lon="4.80867">
        <ele>216</ele>
        <time>2020-09-22T10:37:57Z</time>
      </trkpt>
      <trkpt lat="46.41882" lon="4.80924">
        <ele>214</ele>
        <time>2020-09-22T10:38:06Z</time>
      </trkpt>
      <trkpt lat="46.4186" lon="4.80988">
        <ele>216</ele>
        <time>2020-09-22T10:38:18Z</time>
      </trkpt>
      <trkpt lat="46.41846" lon="4.81054">
        <ele>221</ele>
        <time>2020-09-22T10:38:29Z</time>
      </trkpt>
      <trkpt lat="46.41841" lon="4.8107">
        <ele>222</ele>
        <time>2020-09-22T10:38:32Z</time>
      </trkpt>
      <trkpt lat="46.41815" lon="4.811">
        <ele>227</ele>
        <time>2020-09-22T10:38:40Z</time>
      </trkpt>
      <trkpt lat="46.41813" lon="4.81119">
        <ele>229</ele>
        <time>2020-09-22T10:38:43Z</time>
      </trkpt>
      <trkpt lat="46.41829" lon="4.81161">
        <ele>230</ele>
        <time>2020-09-22T10:38:50Z</time>
      </trkpt>
      <trkpt lat="46.41791" lon="4.81153">
        <ele>235</ele>
        <time>2020-09-22T10:38:59Z</time>
      </trkpt>
      <trkpt lat="46.41778" lon="4.81141">
        <ele>236</ele>
        <time>2020-09-22T10:39:03Z</time>
      </trkpt>
      <trkpt lat="46.41768" lon="4.81128">
        <ele>236</ele>
        <time>2020-09-22T10:39:06Z</time>
      </trkpt>
      <trkpt lat="46.41762" lon="4.81114">
        <ele>236</ele>
        <time>2020-09-22T10:39:09Z</time>
      </trkpt>
      <trkpt lat="46.41754" lon="4.81105">
        <ele>236</ele>
        <time>2020-09-22T10:39:11Z</time>
      </trkpt>
      <trkpt lat="46.41745" lon="4.81109">
        <ele>238</ele>
        <time>2020-09-22T10:39:13Z</time>
      </trkpt>
      <trkpt lat="46.41703" lon="4.81167">
        <ele>247</ele>
        <time>2020-09-22T10:39:27Z</time>
      </trkpt>
      <trkpt lat="46.41699" lon="4.81189">
        <ele>249</ele>
        <time>2020-09-22T10:39:30Z</time>
      </trkpt>
      <trkpt lat="46.4167" lon="4.81266">
        <ele>255</ele>
        <time>2020-09-22T10:39:45Z</time>
      </trkpt>
      <trkpt lat="46.41628" lon="4.81391">
        <ele>259</ele>
        <time>2020-09-22T10:40:07Z</time>
      </trkpt>
      <trkpt lat="46.41618" lon="4.81404">
        <ele>258</ele>
        <time>2020-09-22T10:40:10Z</time>
      </trkpt>
      <trkpt lat="46.41687" lon="4.8143">
        <ele>261</ele>
        <time>2020-09-22T10:40:27Z</time>
      </trkpt>
      <trkpt lat="46.41714" lon="4.81451">
        <ele>261</ele>
        <time>2020-09-22T10:40:34Z</time>
      </trkpt>
      <trkpt lat="46.41742" lon="4.81465">
        <ele>262</ele>
        <time>2020-09-22T10:40:41Z</time>
      </trkpt>
      <trkpt lat="46.41763" lon="4.81469">
        <ele>262</ele>
        <time>2020-09-22T10:40:46Z</time>
      </trkpt>
      <trkpt lat="46.41793" lon="4.81471">
        <ele>260</ele>
        <time>2020-09-22T10:40:53Z</time>
      </trkpt>
      <trkpt lat="46.41796" lon="4.81496">
        <ele>261</ele>
        <time>2020-09-22T10:40:57Z</time>
      </trkpt>
      <trkpt lat="46.41788" lon="4.81536">
        <ele>262</ele>
        <time>2020-09-22T10:41:04Z</time>
      </trkpt>
      <trkpt lat="46.4178" lon="4.81563">
        <ele>263</ele>
        <time>2020-09-22T10:41:08Z</time>
      </trkpt>
      <trkpt lat="46.41768" lon="4.81588">
        <ele>263</ele>
        <time>2020-09-22T10:41:13Z</time>
      </trkpt>
      <trkpt lat="46.41726" lon="4.81727">
        <ele>261</ele>
        <time>2020-09-22T10:41:38Z</time>
      </trkpt>
      <trkpt lat="46.4172" lon="4.81751">
        <ele>260</ele>
        <time>2020-09-22T10:41:42Z</time>
      </trkpt>
      <trkpt lat="46.4172" lon="4.81789">
        <ele>259</ele>
        <time>2020-09-22T10:41:48Z</time>
      </trkpt>
      <trkpt lat="46.4166" lon="4.81939">
        <ele>248</ele>
        <time>2020-09-22T10:42:16Z</time>
      </trkpt>
      <trkpt lat="46.41566" lon="4.82217">
        <ele>251</ele>
        <time>2020-09-22T10:43:06Z</time>
      </trkpt>
      <trkpt lat="46.41631" lon="4.8225">
        <ele>255</ele>
        <time>2020-09-22T10:43:22Z</time>
      </trkpt>
      <trkpt lat="46.41655" lon="4.82256">
        <ele>256</ele>
        <time>2020-09-22T10:43:27Z</time>
      </trkpt>
      <trkpt lat="46.4168" lon="4.82267">
        <ele>257</ele>
        <time>2020-09-22T10:43:34Z</time>
      </trkpt>
      <trkpt lat="46.41672" lon="4.82315">
        <ele>258</ele>
        <time>2020-09-22T10:43:41Z</time>
      </trkpt>
      <trkpt lat="46.41648" lon="4.82395">
        <ele>255</ele>
        <time>2020-09-22T10:43:56Z</time>
      </trkpt>
      <trkpt lat="46.41566" lon="4.82605">
        <ele>240</ele>
        <time>2020-09-22T10:44:34Z</time>
      </trkpt>
      <trkpt lat="46.4154" lon="4.82666">
        <ele>235</ele>
        <time>2020-09-22T10:44:46Z</time>
      </trkpt>
      <trkpt lat="46.41571" lon="4.82694">
        <ele>235</ele>
        <time>2020-09-22T10:44:54Z</time>
      </trkpt>
      <trkpt lat="46.4167" lon="4.82774">
        <ele>234</ele>
        <time>2020-09-22T10:45:21Z</time>
      </trkpt>
      <trkpt lat="46.41674" lon="4.8278">
        <ele>234</ele>
        <time>2020-09-22T10:45:22Z</time>
      </trkpt>
      <trkpt lat="46.41684" lon="4.82812">
        <ele>233</ele>
        <time>2020-09-22T10:45:28Z</time>
      </trkpt>
      <trkpt lat="46.417" lon="4.82829">
        <ele>233</ele>
        <time>2020-09-22T10:45:33Z</time>
      </trkpt>
      <trkpt lat="46.41729" lon="4.82848">
        <ele>234</ele>
        <time>2020-09-22T10:45:40Z</time>
      </trkpt>
      <trkpt lat="46.4186" lon="4.82947">
        <ele>236</ele>
        <time>2020-09-22T10:46:14Z</time>
      </trkpt>
      <trkpt lat="46.41945" lon="4.83041">
        <ele>236</ele>
        <time>2020-09-22T10:46:39Z</time>
      </trkpt>
      <trkpt lat="46.41983" lon="4.83078">
        <ele>236</ele>
        <time>2020-09-22T10:46:50Z</time>
      </trkpt>
      <trkpt lat="46.42053" lon="4.83166">
        <ele>234</ele>
        <time>2020-09-22T10:47:12Z</time>
      </trkpt>
      <trkpt lat="46.42131" lon="4.83214">
        <ele>236</ele>
        <time>2020-09-22T10:47:32Z</time>
      </trkpt>
      <trkpt lat="46.42222" lon="4.83264">
        <ele>239</ele>
        <time>2020-09-22T10:47:54Z</time>
      </trkpt>
      <trkpt lat="46.42261" lon="4.83191">
        <ele>241</ele>
        <time>2020-09-22T10:48:09Z</time>
      </trkpt>
      <trkpt lat="46.42286" lon="4.83124">
        <ele>244</ele>
        <time>2020-09-22T10:48:21Z</time>
      </trkpt>
      <trkpt lat="46.42295" lon="4.83109">
        <ele>244</ele>
        <time>2020-09-22T10:48:25Z</time>
      </trkpt>
      <trkpt lat="46.4232" lon="4.83132">
        <ele>244</ele>
        <time>2020-09-22T10:48:31Z</time>
      </trkpt>
      <trkpt lat="46.42338" lon="4.83145">
        <ele>245</ele>
        <time>2020-09-22T10:48:36Z</time>
      </trkpt>
      <trkpt lat="46.42353" lon="4.83153">
        <ele>245</ele>
        <time>2020-09-22T10:48:40Z</time>
      </trkpt>
      <trkpt lat="46.4237" lon="4.83158">
        <ele>246</ele>
        <time>2020-09-22T10:48:44Z</time>
      </trkpt>
      <trkpt lat="46.42463" lon="4.8321">
        <ele>248</ele>
        <time>2020-09-22T10:49:07Z</time>
      </trkpt>
      <trkpt lat="46.4252" lon="4.83233">
        <ele>249</ele>
        <time>2020-09-22T10:49:21Z</time>
      </trkpt>
      <trkpt lat="46.42564" lon="4.83259">
        <ele>249</ele>
        <time>2020-09-22T10:49:32Z</time>
      </trkpt>
      <trkpt lat="46.42573" lon="4.83269">
        <ele>249</ele>
        <time>2020-09-22T10:49:35Z</time>
      </trkpt>
      <trkpt lat="46.42573" lon="4.83278">
        <ele>249</ele>
        <time>2020-09-22T10:49:36Z</time>
      </trkpt>
      <trkpt lat="46.42569" lon="4.83291">
        <ele>248</ele>
        <time>2020-09-22T10:49:39Z</time>
      </trkpt>
      <trkpt lat="46.4257" lon="4.83301">
        <ele>248</ele>
        <time>2020-09-22T10:49:40Z</time>
      </trkpt>
      <trkpt lat="46.42582" lon="4.83313">
        <ele>248</ele>
        <time>2020-09-22T10:49:44Z</time>
      </trkpt>
      <trkpt lat="46.42697" lon="4.83391">
        <ele>243</ele>
        <time>2020-09-22T10:50:13Z</time>
      </trkpt>
      <trkpt lat="46.42692" lon="4.83407">
        <ele>242</ele>
        <time>2020-09-22T10:50:16Z</time>
      </trkpt>
      <trkpt lat="46.42699" lon="4.83387">
        <ele>243</ele>
        <time>2020-09-22T10:50:20Z</time>
      </trkpt>
      <trkpt lat="46.42704" lon="4.8338">
        <ele>243</ele>
        <time>2020-09-22T10:50:21Z</time>
      </trkpt>
      <trkpt lat="46.42711" lon="4.83376">
        <ele>243</ele>
        <time>2020-09-22T10:50:23Z</time>
      </trkpt>
      <trkpt lat="46.42732" lon="4.83377">
        <ele>243</ele>
        <time>2020-09-22T10:50:28Z</time>
      </trkpt>
      <trkpt lat="46.42741" lon="4.83375">
        <ele>243</ele>
        <time>2020-09-22T10:50:30Z</time>
      </trkpt>
      <trkpt lat="46.42761" lon="4.83366">
        <ele>244</ele>
        <time>2020-09-22T10:50:35Z</time>
      </trkpt>
      <trkpt lat="46.42768" lon="4.83359">
        <ele>244</ele>
        <time>2020-09-22T10:50:37Z</time>
      </trkpt>
      <trkpt lat="46.42796" lon="4.83309">
        <ele>246</ele>
        <time>2020-09-22T10:50:47Z</time>
      </trkpt>
      <trkpt lat="46.42809" lon="4.83292">
        <ele>246</ele>
        <time>2020-09-22T10:50:51Z</time>
      </trkpt>
      <trkpt lat="46.42832" lon="4.83272">
        <ele>247</ele>
        <time>2020-09-22T10:50:58Z</time>
      </trkpt>
      <trkpt lat="46.42863" lon="4.83261">
        <ele>248</ele>
        <time>2020-09-22T10:51:05Z</time>
      </trkpt>
      <trkpt lat="46.42878" lon="4.83247">
        <ele>249</ele>
        <time>2020-09-22T10:51:09Z</time>
      </trkpt>
      <trkpt lat="46.42887" lon="4.83226">
        <ele>250</ele>
        <time>2020-09-22T10:51:13Z</time>
      </trkpt>
      <trkpt lat="46.42885" lon="4.83205">
        <ele>251</ele>
        <time>2020-09-22T10:51:17Z</time>
      </trkpt>
      <trkpt lat="46.42886" lon="4.83171">
        <ele>253</ele>
        <time>2020-09-22T10:51:22Z</time>
      </trkpt>
      <trkpt lat="46.42897" lon="4.83138">
        <ele>254</ele>
        <time>2020-09-22T10:51:28Z</time>
      </trkpt>
      <trkpt lat="46.42958" lon="4.83032">
        <ele>259</ele>
        <time>2020-09-22T10:51:50Z</time>
      </trkpt>
      <trkpt lat="46.43016" lon="4.82944">
        <ele>264</ele>
        <time>2020-09-22T10:52:10Z</time>
      </trkpt>
      <trkpt lat="46.43056" lon="4.82849">
        <ele>270</ele>
        <time>2020-09-22T10:52:28Z</time>
      </trkpt>
      <trkpt lat="46.43064" lon="4.82844">
        <ele>271</ele>
        <time>2020-09-22T10:52:30Z</time>
      </trkpt>
      <trkpt lat="46.43107" lon="4.82843">
        <ele>272</ele>
        <time>2020-09-22T10:52:40Z</time>
      </trkpt>
      <trkpt lat="46.43115" lon="4.82838">
        <ele>272</ele>
        <time>2020-09-22T10:52:42Z</time>
      </trkpt>
      <trkpt lat="46.43132" lon="4.82798">
        <ele>273</ele>
        <time>2020-09-22T10:52:49Z</time>
      </trkpt>
      <trkpt lat="46.432" lon="4.82657">
        <ele>282</ele>
        <time>2020-09-22T10:53:17Z</time>
      </trkpt>
      <trkpt lat="46.43215" lon="4.82639">
        <ele>283</ele>
        <time>2020-09-22T10:53:22Z</time>
      </trkpt>
      <trkpt lat="46.43225" lon="4.82634">
        <ele>284</ele>
        <time>2020-09-22T10:53:24Z</time>
      </trkpt>
      <trkpt lat="46.43263" lon="4.82624">
        <ele>287</ele>
        <time>2020-09-22T10:53:33Z</time>
      </trkpt>
      <trkpt lat="46.43316" lon="4.82614">
        <ele>292</ele>
        <time>2020-09-22T10:53:46Z</time>
      </trkpt>
      <trkpt lat="46.43326" lon="4.82614">
        <ele>293</ele>
        <time>2020-09-22T10:53:48Z</time>
      </trkpt>
      <trkpt lat="46.43353" lon="4.82621">
        <ele>295</ele>
        <time>2020-09-22T10:53:54Z</time>
      </trkpt>
      <trkpt lat="46.43365" lon="4.82626">
        <ele>295</ele>
        <time>2020-09-22T10:53:57Z</time>
      </trkpt>
      <trkpt lat="46.4339" lon="4.82645">
        <ele>296</ele>
        <time>2020-09-22T10:54:04Z</time>
      </trkpt>
      <trkpt lat="46.43397" lon="4.82647">
        <ele>297</ele>
        <time>2020-09-22T10:54:06Z</time>
      </trkpt>
      <trkpt lat="46.43411" lon="4.82643">
        <ele>299</ele>
        <time>2020-09-22T10:54:09Z</time>
      </trkpt>
      <trkpt lat="46.43415" lon="4.82639">
        <ele>299</ele>
        <time>2020-09-22T10:54:10Z</time>
      </trkpt>
      <trkpt lat="46.43415" lon="4.82634">
        <ele>300</ele>
        <time>2020-09-22T10:54:11Z</time>
      </trkpt>
      <trkpt lat="46.43445" lon="4.82633">
        <ele>302</ele>
        <time>2020-09-22T10:54:18Z</time>
      </trkpt>
      <trkpt lat="46.43464" lon="4.82628">
        <ele>303</ele>
        <time>2020-09-22T10:54:22Z</time>
      </trkpt>
      <trkpt lat="46.43475" lon="4.82628">
        <ele>304</ele>
        <time>2020-09-22T10:54:25Z</time>
      </trkpt>
      <trkpt lat="46.43479" lon="4.82625">
        <ele>304</ele>
        <time>2020-09-22T10:54:26Z</time>
      </trkpt>
      <trkpt lat="46.43488" lon="4.82626">
        <ele>305</ele>
        <time>2020-09-22T10:54:28Z</time>
      </trkpt>
      <trkpt lat="46.43499" lon="4.82571">
        <ele>308</ele>
        <time>2020-09-22T10:54:37Z</time>
      </trkpt>
      <trkpt lat="46.43551" lon="4.8247">
        <ele>311</ele>
        <time>2020-09-22T10:54:58Z</time>
      </trkpt>
      <trkpt lat="46.43645" lon="4.82552">
        <ele>314</ele>
        <time>2020-09-22T10:55:23Z</time>
      </trkpt>
      <trkpt lat="46.43662" lon="4.82541">
        <ele>313</ele>
        <time>2020-09-22T10:55:28Z</time>
      </trkpt>
      <trkpt lat="46.43714" lon="4.82499">
        <ele>311</ele>
        <time>2020-09-22T10:55:41Z</time>
      </trkpt>
      <trkpt lat="46.43754" lon="4.82462">
        <ele>310</ele>
        <time>2020-09-22T10:55:53Z</time>
      </trkpt>
      <trkpt lat="46.4377" lon="4.82443">
        <ele>312</ele>
        <time>2020-09-22T10:55:57Z</time>
      </trkpt>
      <trkpt lat="46.43795" lon="4.82406">
        <ele>317</ele>
        <time>2020-09-22T10:56:06Z</time>
      </trkpt>
      <trkpt lat="46.43822" lon="4.82309">
        <ele>326</ele>
        <time>2020-09-22T10:56:23Z</time>
      </trkpt>
      <trkpt lat="46.43838" lon="4.82281">
        <ele>329</ele>
        <time>2020-09-22T10:56:28Z</time>
      </trkpt>
      <trkpt lat="46.43866" lon="4.82214">
        <ele>332</ele>
        <time>2020-09-22T10:56:41Z</time>
      </trkpt>
      <trkpt lat="46.43869" lon="4.82198">
        <ele>332</ele>
        <time>2020-09-22T10:56:44Z</time>
      </trkpt>
      <trkpt lat="46.43867" lon="4.82166">
        <ele>330</ele>
        <time>2020-09-22T10:56:49Z</time>
      </trkpt>
      <trkpt lat="46.4387" lon="4.82142">
        <ele>328</ele>
        <time>2020-09-22T10:56:53Z</time>
      </trkpt>
      <trkpt lat="46.43881" lon="4.82104">
        <ele>326</ele>
        <time>2020-09-22T10:56:59Z</time>
      </trkpt>
      <trkpt lat="46.4389" lon="4.82085">
        <ele>326</ele>
        <time>2020-09-22T10:57:03Z</time>
      </trkpt>
      <trkpt lat="46.43929" lon="4.82052">
        <ele>322</ele>
        <time>2020-09-22T10:57:14Z</time>
      </trkpt>
      <trkpt lat="46.43987" lon="4.81987">
        <ele>310</ele>
        <time>2020-09-22T10:57:31Z</time>
      </trkpt>
      <trkpt lat="46.44011" lon="4.81954">
        <ele>303</ele>
        <time>2020-09-22T10:57:39Z</time>
      </trkpt>
      <trkpt lat="46.44072" lon="4.81928">
        <ele>301</ele>
        <time>2020-09-22T10:57:53Z</time>
      </trkpt>
      <trkpt lat="46.44104" lon="4.81904">
        <ele>298</ele>
        <time>2020-09-22T10:58:02Z</time>
      </trkpt>
      <trkpt lat="46.44122" lon="4.81862">
        <ele>295</ele>
        <time>2020-09-22T10:58:10Z</time>
      </trkpt>
      <trkpt lat="46.44128" lon="4.81823">
        <ele>292</ele>
        <time>2020-09-22T10:58:16Z</time>
      </trkpt>
      <trkpt lat="46.44125" lon="4.81743">
        <ele>287</ele>
        <time>2020-09-22T10:58:29Z</time>
      </trkpt>
      <trkpt lat="46.44108" lon="4.81572">
        <ele>290</ele>
        <time>2020-09-22T10:58:57Z</time>
      </trkpt>
      <trkpt lat="46.44106" lon="4.81462">
        <ele>291</ele>
        <time>2020-09-22T10:59:15Z</time>
      </trkpt>
      <trkpt lat="46.44117" lon="4.81376">
        <ele>297</ele>
        <time>2020-09-22T10:59:29Z</time>
      </trkpt>
      <trkpt lat="46.44115" lon="4.81339">
        <ele>299</ele>
        <time>2020-09-22T10:59:35Z</time>
      </trkpt>
      <trkpt lat="46.44113" lon="4.81321">
        <ele>300</ele>
        <time>2020-09-22T10:59:38Z</time>
      </trkpt>
      <trkpt lat="46.44087" lon="4.8121">
        <ele>301</ele>
        <time>2020-09-22T10:59:56Z</time>
      </trkpt>
      <trkpt lat="46.44083" lon="4.81167">
        <ele>301</ele>
        <time>2020-09-22T11:00:03Z</time>
      </trkpt>
      <trkpt lat="46.44042" lon="4.81153">
        <ele>298</ele>
        <time>2020-09-22T11:00:13Z</time>
      </trkpt>
      <trkpt lat="46.44033" lon="4.81147">
        <ele>298</ele>
        <time>2020-09-22T11:00:16Z</time>
      </trkpt>
      <trkpt lat="46.4402" lon="4.81084">
        <ele>298</ele>
        <time>2020-09-22T11:00:26Z</time>
      </trkpt>
      <trkpt lat="46.44013" lon="4.8103">
        <ele>297</ele>
        <time>2020-09-22T11:00:35Z</time>
      </trkpt>
      <trkpt lat="46.44037" lon="4.8103">
        <ele>297</ele>
        <time>2020-09-22T11:00:41Z</time>
      </trkpt>
      <trkpt lat="46.44128" lon="4.81048">
        <ele>298</ele>
        <time>2020-09-22T11:01:02Z</time>
      </trkpt>
      <trkpt lat="46.4424" lon="4.81081">
        <ele>298</ele>
        <time>2020-09-22T11:01:29Z</time>
      </trkpt>
      <trkpt lat="46.44263" lon="4.81094">
        <ele>297</ele>
        <time>2020-09-22T11:01:34Z</time>
      </trkpt>
      <trkpt lat="46.44285" lon="4.8111">
        <ele>297</ele>
        <time>2020-09-22T11:01:40Z</time>
      </trkpt>
      <trkpt lat="46.44327" lon="4.81116">
        <ele>294</ele>
        <time>2020-09-22T11:01:50Z</time>
      </trkpt>
      <trkpt lat="46.4435" lon="4.81116">
        <ele>293</ele>
        <time>2020-09-22T11:01:55Z</time>
      </trkpt>
      <trkpt lat="46.44378" lon="4.81102">
        <ele>289</ele>
        <time>2020-09-22T11:02:02Z</time>
      </trkpt>
      <trkpt lat="46.44439" lon="4.8109">
        <ele>285</ele>
        <time>2020-09-22T11:02:17Z</time>
      </trkpt>
      <trkpt lat="46.44473" lon="4.81093">
        <ele>283</ele>
        <time>2020-09-22T11:02:25Z</time>
      </trkpt>
      <trkpt lat="46.44493" lon="4.811">
        <ele>283</ele>
        <time>2020-09-22T11:02:30Z</time>
      </trkpt>
      <trkpt lat="46.44514" lon="4.81099">
        <ele>283</ele>
        <time>2020-09-22T11:02:34Z</time>
      </trkpt>
      <trkpt lat="46.44588" lon="4.81075">
        <ele>285</ele>
        <time>2020-09-22T11:02:52Z</time>
      </trkpt>
      <trkpt lat="46.4459" lon="4.81064">
        <ele>285</ele>
        <time>2020-09-22T11:02:54Z</time>
      </trkpt>
      <trkpt lat="46.44631" lon="4.80993">
        <ele>287</ele>
        <time>2020-09-22T11:03:09Z</time>
      </trkpt>
      <trkpt lat="46.4468" lon="4.80919">
        <ele>294</ele>
        <time>2020-09-22T11:03:25Z</time>
      </trkpt>
      <trkpt lat="46.44728" lon="4.80816">
        <ele>302</ele>
        <time>2020-09-22T11:03:45Z</time>
      </trkpt>
      <trkpt lat="46.44749" lon="4.8075">
        <ele>302</ele>
        <time>2020-09-22T11:03:57Z</time>
      </trkpt>
      <trkpt lat="46.44755" lon="4.80694">
        <ele>298</ele>
        <time>2020-09-22T11:04:06Z</time>
      </trkpt>
      <trkpt lat="46.44765" lon="4.80649">
        <ele>296</ele>
        <time>2020-09-22T11:04:14Z</time>
      </trkpt>
      <trkpt lat="46.44767" lon="4.80629">
        <ele>295</ele>
        <time>2020-09-22T11:04:17Z</time>
      </trkpt>
      <trkpt lat="46.44763" lon="4.80542">
        <ele>290</ele>
        <time>2020-09-22T11:04:31Z</time>
      </trkpt>
      <trkpt lat="46.44774" lon="4.80456">
        <ele>283</ele>
        <time>2020-09-22T11:04:45Z</time>
      </trkpt>
      <trkpt lat="46.44783" lon="4.80414">
        <ele>280</ele>
        <time>2020-09-22T11:04:52Z</time>
      </trkpt>
      <trkpt lat="46.44783" lon="4.80405">
        <ele>279</ele>
        <time>2020-09-22T11:04:54Z</time>
      </trkpt>
      <trkpt lat="46.44767" lon="4.80405">
        <ele>279</ele>
        <time>2020-09-22T11:04:57Z</time>
      </trkpt>
      <trkpt lat="46.44784" lon="4.80396">
        <ele>278</ele>
        <time>2020-09-22T11:05:02Z</time>
      </trkpt>
      <trkpt lat="46.44801" lon="4.80382">
        <ele>277</ele>
        <time>2020-09-22T11:05:06Z</time>
      </trkpt>
      <trkpt lat="46.44832" lon="4.80326">
        <ele>272</ele>
        <time>2020-09-22T11:05:18Z</time>
      </trkpt>
      <trkpt lat="46.44846" lon="4.80308">
        <ele>271</ele>
        <time>2020-09-22T11:05:22Z</time>
      </trkpt>
      <trkpt lat="46.44916" lon="4.80242">
        <ele>269</ele>
        <time>2020-09-22T11:05:42Z</time>
      </trkpt>
      <trkpt lat="46.44924" lon="4.80232">
        <ele>269</ele>
        <time>2020-09-22T11:05:44Z</time>
      </trkpt>
      <trkpt lat="46.44951" lon="4.8018">
        <ele>268</ele>
        <time>2020-09-22T11:05:55Z</time>
      </trkpt>
      <trkpt lat="46.44989" lon="4.80121">
        <ele>269</ele>
        <time>2020-09-22T11:06:08Z</time>
      </trkpt>
      <trkpt lat="46.45019" lon="4.80057">
        <ele>269</ele>
        <time>2020-09-22T11:06:20Z</time>
      </trkpt>
      <trkpt lat="46.44992" lon="4.79979">
        <ele>268</ele>
        <time>2020-09-22T11:06:34Z</time>
      </trkpt>
      <trkpt lat="46.44994" lon="4.79953">
        <ele>270</ele>
        <time>2020-09-22T11:06:38Z</time>
      </trkpt>
      <trkpt lat="46.45017" lon="4.79917">
        <ele>273</ele>
        <time>2020-09-22T11:06:46Z</time>
      </trkpt>
      <trkpt lat="46.45109" lon="4.79863">
        <ele>277</ele>
        <time>2020-09-22T11:07:09Z</time>
      </trkpt>
      <trkpt lat="46.45186" lon="4.79861">
        <ele>277</ele>
        <time>2020-09-22T11:07:27Z</time>
      </trkpt>
      <trkpt lat="46.45186" lon="4.79821">
        <ele>280</ele>
        <time>2020-09-22T11:07:34Z</time>
      </trkpt>
      <trkpt lat="46.45193" lon="4.79775">
        <ele>283</ele>
        <time>2020-09-22T11:07:41Z</time>
      </trkpt>
      <trkpt lat="46.45204" lon="4.7975">
        <ele>285</ele>
        <time>2020-09-22T11:07:46Z</time>
      </trkpt>
      <trkpt lat="46.45234" lon="4.79702">
        <ele>286</ele>
        <time>2020-09-22T11:07:57Z</time>
      </trkpt>
      <trkpt lat="46.45265" lon="4.79605">
        <ele>287</ele>
        <time>2020-09-22T11:08:14Z</time>
      </trkpt>
      <trkpt lat="46.45285" lon="4.79532">
        <ele>284</ele>
        <time>2020-09-22T11:08:26Z</time>
      </trkpt>
      <trkpt lat="46.45284" lon="4.79455">
        <ele>280</ele>
        <time>2020-09-22T11:08:39Z</time>
      </trkpt>
      <trkpt lat="46.45273" lon="4.79452">
        <ele>280</ele>
        <time>2020-09-22T11:08:41Z</time>
      </trkpt>
      <trkpt lat="46.45269" lon="4.79358">
        <ele>270</ele>
        <time>2020-09-22T11:08:57Z</time>
      </trkpt>
      <trkpt lat="46.45235" lon="4.79341">
        <ele>268</ele>
        <time>2020-09-22T11:09:05Z</time>
      </trkpt>
      <trkpt lat="46.45186" lon="4.79327">
        <ele>266</ele>
        <time>2020-09-22T11:09:17Z</time>
      </trkpt>
      <trkpt lat="46.4515" lon="4.79321">
        <ele>265</ele>
        <time>2020-09-22T11:09:25Z</time>
      </trkpt>
      <trkpt lat="46.45118" lon="4.79321">
        <ele>264</ele>
        <time>2020-09-22T11:09:33Z</time>
      </trkpt>
      <trkpt lat="46.45052" lon="4.79332">
        <ele>261</ele>
        <time>2020-09-22T11:09:48Z</time>
      </trkpt>
      <trkpt lat="46.44951" lon="4.79309">
        <ele>253</ele>
        <time>2020-09-22T11:10:12Z</time>
      </trkpt>
      <trkpt lat="46.44938" lon="4.79304">
        <ele>252</ele>
        <time>2020-09-22T11:10:15Z</time>
      </trkpt>
      <trkpt lat="46.44924" lon="4.79288">
        <ele>251</ele>
        <time>2020-09-22T11:10:19Z</time>
      </trkpt>
      <trkpt lat="46.44913" lon="4.79267">
        <ele>249</ele>
        <time>2020-09-22T11:10:23Z</time>
      </trkpt>
      <trkpt lat="46.4491" lon="4.79257">
        <ele>248</ele>
        <time>2020-09-22T11:10:25Z</time>
      </trkpt>
      <trkpt lat="46.44912" lon="4.79231">
        <ele>247</ele>
        <time>2020-09-22T11:10:29Z</time>
      </trkpt>
      <trkpt lat="46.44908" lon="4.79223">
        <ele>247</ele>
        <time>2020-09-22T11:10:31Z</time>
      </trkpt>
      <trkpt lat="46.44899" lon="4.7922">
        <ele>247</ele>
        <time>2020-09-22T11:10:33Z</time>
      </trkpt>
      <trkpt lat="46.44789" lon="4.7921">
        <ele>246</ele>
        <time>2020-09-22T11:10:59Z</time>
      </trkpt>
      <trkpt lat="46.4472" lon="4.79193">
        <ele>246</ele>
        <time>2020-09-22T11:11:15Z</time>
      </trkpt>
      <trkpt lat="46.44665" lon="4.79187">
        <ele>245</ele>
        <time>2020-09-22T11:11:28Z</time>
      </trkpt>
      <trkpt lat="46.44619" lon="4.7919">
        <ele>244</ele>
        <time>2020-09-22T11:11:39Z</time>
      </trkpt>
      <trkpt lat="46.44604" lon="4.79184">
        <ele>244</ele>
        <time>2020-09-22T11:11:43Z</time>
      </trkpt>
      <trkpt lat="46.44597" lon="4.79176">
        <ele>244</ele>
        <time>2020-09-22T11:11:45Z</time>
      </trkpt>
      <trkpt lat="46.44569" lon="4.79125">
        <ele>242</ele>
        <time>2020-09-22T11:11:55Z</time>
      </trkpt>
      <trkpt lat="46.44568" lon="4.79114">
        <ele>242</ele>
        <time>2020-09-22T11:11:57Z</time>
      </trkpt>
      <trkpt lat="46.44574" lon="4.79035">
        <ele>242</ele>
        <time>2020-09-22T11:12:10Z</time>
      </trkpt>
      <trkpt lat="46.44566" lon="4.7895">
        <ele>243</ele>
        <time>2020-09-22T11:12:24Z</time>
      </trkpt>
      <trkpt lat="46.44565" lon="4.78922">
        <ele>243</ele>
        <time>2020-09-22T11:12:28Z</time>
      </trkpt>
      <trkpt lat="46.44568" lon="4.78871">
        <ele>244</ele>
        <time>2020-09-22T11:12:36Z</time>
      </trkpt>
      <trkpt lat="46.44566" lon="4.78865">
        <ele>244</ele>
        <time>2020-09-22T11:12:37Z</time>
      </trkpt>
      <trkpt lat="46.44586" lon="4.78875">
        <ele>244</ele>
        <time>2020-09-22T11:12:42Z</time>
      </trkpt>
      <trkpt lat="46.44592" lon="4.78884">
        <ele>245</ele>
        <time>2020-09-22T11:12:44Z</time>
      </trkpt>
      <trkpt lat="46.44608" lon="4.78928">
        <ele>246</ele>
        <time>2020-09-22T11:12:52Z</time>
      </trkpt>
      <trkpt lat="46.44647" lon="4.78978">
        <ele>249</ele>
        <time>2020-09-22T11:13:04Z</time>
      </trkpt>
      <trkpt lat="46.44662" lon="4.78986">
        <ele>251</ele>
        <time>2020-09-22T11:13:08Z</time>
      </trkpt>
      <trkpt lat="46.44684" lon="4.78992">
        <ele>252</ele>
        <time>2020-09-22T11:13:13Z</time>
      </trkpt>
      <trkpt lat="46.44711" lon="4.78995">
        <ele>255</ele>
        <time>2020-09-22T11:13:20Z</time>
      </trkpt>
      <trkpt lat="46.4479" lon="4.78992">
        <ele>257</ele>
        <time>2020-09-22T11:13:38Z</time>
      </trkpt>
      <trkpt lat="46.44803" lon="4.78994">
        <ele>256</ele>
        <time>2020-09-22T11:13:41Z</time>
      </trkpt>
      <trkpt lat="46.44863" lon="4.79019">
        <ele>253</ele>
        <time>2020-09-22T11:13:56Z</time>
      </trkpt>
      <trkpt lat="46.44881" lon="4.79022">
        <ele>252</ele>
        <time>2020-09-22T11:14:00Z</time>
      </trkpt>
      <trkpt lat="46.44924" lon="4.79022">
        <ele>251</ele>
        <time>2020-09-22T11:14:10Z</time>
      </trkpt>
      <trkpt lat="46.44936" lon="4.79026">
        <ele>252</ele>
        <time>2020-09-22T11:14:13Z</time>
      </trkpt>
      <trkpt lat="46.44953" lon="4.79037">
        <ele>253</ele>
        <time>2020-09-22T11:14:17Z</time>
      </trkpt>
      <trkpt lat="46.44959" lon="4.79036">
        <ele>254</ele>
        <time>2020-09-22T11:14:19Z</time>
      </trkpt>
      <trkpt lat="46.44962" lon="4.79033">
        <ele>254</ele>
        <time>2020-09-22T11:14:20Z</time>
      </trkpt>
      <trkpt lat="46.44968" lon="4.79011">
        <ele>256</ele>
        <time>2020-09-22T11:14:23Z</time>
      </trkpt>
      <trkpt lat="46.44974" lon="4.78943">
        <ele>259</ele>
        <time>2020-09-22T11:14:34Z</time>
      </trkpt>
      <trkpt lat="46.44979" lon="4.78916">
        <ele>259</ele>
        <time>2020-09-22T11:14:39Z</time>
      </trkpt>
      <trkpt lat="46.45009" lon="4.78808">
        <ele>259</ele>
        <time>2020-09-22T11:14:58Z</time>
      </trkpt>
      <trkpt lat="46.45019" lon="4.78783">
        <ele>259</ele>
        <time>2020-09-22T11:15:02Z</time>
      </trkpt>
      <trkpt lat="46.45074" lon="4.78704">
        <ele>261</ele>
        <time>2020-09-22T11:15:20Z</time>
      </trkpt>
      <trkpt lat="46.45085" lon="4.78651">
        <ele>258</ele>
        <time>2020-09-22T11:15:29Z</time>
      </trkpt>
      <trkpt lat="46.45142" lon="4.78545">
        <ele>264</ele>
        <time>2020-09-22T11:15:51Z</time>
      </trkpt>
      <trkpt lat="46.45178" lon="4.7841">
        <ele>262</ele>
        <time>2020-09-22T11:16:14Z</time>
      </trkpt>
      <trkpt lat="46.45185" lon="4.78375">
        <ele>262</ele>
        <time>2020-09-22T11:16:20Z</time>
      </trkpt>
      <trkpt lat="46.45187" lon="4.78341">
        <ele>260</ele>
        <time>2020-09-22T11:16:26Z</time>
      </trkpt>
      <trkpt lat="46.45192" lon="4.78319">
        <ele>261</ele>
        <time>2020-09-22T11:16:29Z</time>
      </trkpt>
      <trkpt lat="46.45203" lon="4.78289">
        <ele>261</ele>
        <time>2020-09-22T11:16:35Z</time>
      </trkpt>
      <trkpt lat="46.45224" lon="4.78243">
        <ele>261</ele>
        <time>2020-09-22T11:16:44Z</time>
      </trkpt>
      <trkpt lat="46.45254" lon="4.78156">
        <ele>263</ele>
        <time>2020-09-22T11:16:59Z</time>
      </trkpt>
      <trkpt lat="46.45261" lon="4.78147">
        <ele>264</ele>
        <time>2020-09-22T11:17:01Z</time>
      </trkpt>
      <trkpt lat="46.45327" lon="4.78093">
        <ele>268</ele>
        <time>2020-09-22T11:17:19Z</time>
      </trkpt>
      <trkpt lat="46.45361" lon="4.78073">
        <ele>270</ele>
        <time>2020-09-22T11:17:28Z</time>
      </trkpt>
      <trkpt lat="46.45417" lon="4.78053">
        <ele>272</ele>
        <time>2020-09-22T11:17:41Z</time>
      </trkpt>
      <trkpt lat="46.45433" lon="4.78042">
        <ele>272</ele>
        <time>2020-09-22T11:17:45Z</time>
      </trkpt>
      <trkpt lat="46.45485" lon="4.77977">
        <ele>272</ele>
        <time>2020-09-22T11:18:01Z</time>
      </trkpt>
      <trkpt lat="46.45501" lon="4.77962">
        <ele>272</ele>
        <time>2020-09-22T11:18:06Z</time>
      </trkpt>
      <trkpt lat="46.45536" lon="4.77936">
        <ele>273</ele>
        <time>2020-09-22T11:18:15Z</time>
      </trkpt>
      <trkpt lat="46.4555" lon="4.77922">
        <ele>274</ele>
        <time>2020-09-22T11:18:19Z</time>
      </trkpt>
      <trkpt lat="46.4557" lon="4.77891">
        <ele>274</ele>
        <time>2020-09-22T11:18:26Z</time>
      </trkpt>
      <trkpt lat="46.4563" lon="4.77767">
        <ele>277</ele>
        <time>2020-09-22T11:18:50Z</time>
      </trkpt>
      <trkpt lat="46.45646" lon="4.77745">
        <ele>277</ele>
        <time>2020-09-22T11:18:55Z</time>
      </trkpt>
      <trkpt lat="46.45665" lon="4.77726">
        <ele>278</ele>
        <time>2020-09-22T11:19:01Z</time>
      </trkpt>
      <trkpt lat="46.45678" lon="4.77717">
        <ele>278</ele>
        <time>2020-09-22T11:19:04Z</time>
      </trkpt>
      <trkpt lat="46.45731" lon="4.77688">
        <ele>278</ele>
        <time>2020-09-22T11:19:17Z</time>
      </trkpt>
      <trkpt lat="46.45769" lon="4.77646">
        <ele>278</ele>
        <time>2020-09-22T11:19:28Z</time>
      </trkpt>
      <trkpt lat="46.45764" lon="4.77435">
        <ele>270</ele>
        <time>2020-09-22T11:20:02Z</time>
      </trkpt>
      <trkpt lat="46.45769" lon="4.77381">
        <ele>271</ele>
        <time>2020-09-22T11:20:11Z</time>
      </trkpt>
      <trkpt lat="46.45783" lon="4.77291">
        <ele>274</ele>
        <time>2020-09-22T11:20:26Z</time>
      </trkpt>
      <trkpt lat="46.45793" lon="4.77152">
        <ele>278</ele>
        <time>2020-09-22T11:20:48Z</time>
      </trkpt>
      <trkpt lat="46.45786" lon="4.77141">
        <ele>278</ele>
        <time>2020-09-22T11:20:51Z</time>
      </trkpt>
      <trkpt lat="46.45779" lon="4.77119">
        <ele>278</ele>
        <time>2020-09-22T11:20:55Z</time>
      </trkpt>
      <trkpt lat="46.45782" lon="4.77086">
        <ele>278</ele>
        <time>2020-09-22T11:21:00Z</time>
      </trkpt>
      <trkpt lat="46.4579" lon="4.77042">
        <ele>279</ele>
        <time>2020-09-22T11:21:07Z</time>
      </trkpt>
      <trkpt lat="46.45814" lon="4.76974">
        <ele>280</ele>
        <time>2020-09-22T11:21:20Z</time>
      </trkpt>
      <trkpt lat="46.45839" lon="4.7688">
        <ele>283</ele>
        <time>2020-09-22T11:21:36Z</time>
      </trkpt>
      <trkpt lat="46.45904" lon="4.76708">
        <ele>301</ele>
        <time>2020-09-22T11:22:08Z</time>
      </trkpt>
      <trkpt lat="46.45933" lon="4.76682">
        <ele>307</ele>
        <time>2020-09-22T11:22:16Z</time>
      </trkpt>
      <trkpt lat="46.45955" lon="4.7667">
        <ele>311</ele>
        <time>2020-09-22T11:22:21Z</time>
      </trkpt>
      <trkpt lat="46.45972" lon="4.7667">
        <ele>313</ele>
        <time>2020-09-22T11:22:25Z</time>
      </trkpt>
      <trkpt lat="46.45995" lon="4.76674">
        <ele>314</ele>
        <time>2020-09-22T11:22:30Z</time>
      </trkpt>
      <trkpt lat="46.46024" lon="4.76668">
        <ele>318</ele>
        <time>2020-09-22T11:22:37Z</time>
      </trkpt>
      <trkpt lat="46.46038" lon="4.76661">
        <ele>320</ele>
        <time>2020-09-22T11:22:41Z</time>
      </trkpt>
      <trkpt lat="46.46011" lon="4.76638">
        <ele>322</ele>
        <time>2020-09-22T11:22:48Z</time>
      </trkpt>
      <trkpt lat="46.45925" lon="4.76591">
        <ele>323</ele>
        <time>2020-09-22T11:23:09Z</time>
      </trkpt>
      <trkpt lat="46.4575" lon="4.76517">
        <ele>322</ele>
        <time>2020-09-22T11:23:52Z</time>
      </trkpt>
      <trkpt lat="46.4573" lon="4.7651">
        <ele>322</ele>
        <time>2020-09-22T11:23:57Z</time>
      </trkpt>
      <trkpt lat="46.4569" lon="4.76507">
        <ele>320</ele>
        <time>2020-09-22T11:24:06Z</time>
      </trkpt>
      <trkpt lat="46.45648" lon="4.76485">
        <ele>321</ele>
        <time>2020-09-22T11:24:17Z</time>
      </trkpt>
      <trkpt lat="46.45562" lon="4.76449">
        <ele>324</ele>
        <time>2020-09-22T11:24:37Z</time>
      </trkpt>
      <trkpt lat="46.45517" lon="4.76423">
        <ele>326</ele>
        <time>2020-09-22T11:24:49Z</time>
      </trkpt>
      <trkpt lat="46.45512" lon="4.76418">
        <ele>327</ele>
        <time>2020-09-22T11:24:50Z</time>
      </trkpt>
      <trkpt lat="46.45532" lon="4.76418">
        <ele>328</ele>
        <time>2020-09-22T11:24:55Z</time>
      </trkpt>
      <trkpt lat="46.45522" lon="4.76408">
        <ele>329</ele>
        <time>2020-09-22T11:24:58Z</time>
      </trkpt>
      <trkpt lat="46.45508" lon="4.76407">
        <ele>328</ele>
        <time>2020-09-22T11:25:01Z</time>
      </trkpt>
      <trkpt lat="46.45483" lon="4.76396">
        <ele>329</ele>
        <time>2020-09-22T11:25:07Z</time>
      </trkpt>
      <trkpt lat="46.45447" lon="4.76385">
        <ele>329</ele>
        <time>2020-09-22T11:25:16Z</time>
      </trkpt>
      <trkpt lat="46.45395" lon="4.76375">
        <ele>327</ele>
        <time>2020-09-22T11:25:28Z</time>
      </trkpt>
      <trkpt lat="46.45458" lon="4.76388">
        <ele>329</ele>
        <time>2020-09-22T11:25:43Z</time>
      </trkpt>
      <trkpt lat="46.45343" lon="4.76365">
        <ele>327</ele>
        <time>2020-09-22T11:26:10Z</time>
      </trkpt>
      <trkpt lat="46.45297" lon="4.76342">
        <ele>330</ele>
        <time>2020-09-22T11:26:21Z</time>
      </trkpt>
      <trkpt lat="46.45249" lon="4.76332">
        <ele>331</ele>
        <time>2020-09-22T11:26:33Z</time>
      </trkpt>
      <trkpt lat="46.45204" lon="4.76315">
        <ele>333</ele>
        <time>2020-09-22T11:26:43Z</time>
      </trkpt>
      <trkpt lat="46.45173" lon="4.76306">
        <ele>334</ele>
        <time>2020-09-22T11:26:51Z</time>
      </trkpt>
      <trkpt lat="46.45147" lon="4.763">
        <ele>335</ele>
        <time>2020-09-22T11:26:57Z</time>
      </trkpt>
      <trkpt lat="46.45093" lon="4.76299">
        <ele>335</ele>
        <time>2020-09-22T11:27:10Z</time>
      </trkpt>
      <trkpt lat="46.45062" lon="4.76296">
        <ele>334</ele>
        <time>2020-09-22T11:27:17Z</time>
      </trkpt>
      <trkpt lat="46.45041" lon="4.7629">
        <ele>334</ele>
        <time>2020-09-22T11:27:22Z</time>
      </trkpt>
      <trkpt lat="46.44986" lon="4.76249">
        <ele>339</ele>
        <time>2020-09-22T11:27:36Z</time>
      </trkpt>
      <trkpt lat="46.44844" lon="4.76178">
        <ele>344</ele>
        <time>2020-09-22T11:28:11Z</time>
      </trkpt>
      <trkpt lat="46.44831" lon="4.7619">
        <ele>343</ele>
        <time>2020-09-22T11:28:15Z</time>
      </trkpt>
      <trkpt lat="46.44827" lon="4.76214">
        <ele>341</ele>
        <time>2020-09-22T11:28:19Z</time>
      </trkpt>
      <trkpt lat="46.44851" lon="4.76249">
        <ele>336</ele>
        <time>2020-09-22T11:28:27Z</time>
      </trkpt>
      <trkpt lat="46.44882" lon="4.76304">
        <ele>328</ele>
        <time>2020-09-22T11:28:38Z</time>
      </trkpt>
      <trkpt lat="46.44898" lon="4.76349">
        <ele>322</ele>
        <time>2020-09-22T11:28:46Z</time>
      </trkpt>
      <trkpt lat="46.44903" lon="4.76406">
        <ele>315</ele>
        <time>2020-09-22T11:28:56Z</time>
      </trkpt>
      <trkpt lat="46.44913" lon="4.76445">
        <ele>309</ele>
        <time>2020-09-22T11:29:02Z</time>
      </trkpt>
      <trkpt lat="46.44916" lon="4.76476">
        <ele>305</ele>
        <time>2020-09-22T11:29:07Z</time>
      </trkpt>
      <trkpt lat="46.44964" lon="4.76587">
        <ele>290</ele>
        <time>2020-09-22T11:29:29Z</time>
      </trkpt>
      <trkpt lat="46.44974" lon="4.76623">
        <ele>287</ele>
        <time>2020-09-22T11:29:35Z</time>
      </trkpt>
      <trkpt lat="46.44984" lon="4.76643">
        <ele>285</ele>
        <time>2020-09-22T11:29:39Z</time>
      </trkpt>
      <trkpt lat="46.44991" lon="4.76671">
        <ele>283</ele>
        <time>2020-09-22T11:29:44Z</time>
      </trkpt>
      <trkpt lat="46.44984" lon="4.76668">
        <ele>284</ele>
        <time>2020-09-22T11:29:45Z</time>
      </trkpt>
      <trkpt lat="46.44959" lon="4.76644">
        <ele>285</ele>
        <time>2020-09-22T11:29:52Z</time>
      </trkpt>
      <trkpt lat="46.44937" lon="4.76602">
        <ele>289</ele>
        <time>2020-09-22T11:30:01Z</time>
      </trkpt>
      <trkpt lat="46.44924" lon="4.76546">
        <ele>296</ele>
        <time>2020-09-22T11:30:10Z</time>
      </trkpt>
      <trkpt lat="46.44903" lon="4.76525">
        <ele>300</ele>
        <time>2020-09-22T11:30:16Z</time>
      </trkpt>
      <trkpt lat="46.44899" lon="4.76517">
        <ele>302</ele>
        <time>2020-09-22T11:30:18Z</time>
      </trkpt>
      <trkpt lat="46.44892" lon="4.7651">
        <ele>303</ele>
        <time>2020-09-22T11:30:20Z</time>
      </trkpt>
      <trkpt lat="46.44828" lon="4.76495">
        <ele>312</ele>
        <time>2020-09-22T11:30:35Z</time>
      </trkpt>
      <trkpt lat="46.44757" lon="4.76461">
        <ele>318</ele>
        <time>2020-09-22T11:30:52Z</time>
      </trkpt>
      <trkpt lat="46.44669" lon="4.76391">
        <ele>327</ele>
        <time>2020-09-22T11:31:16Z</time>
      </trkpt>
      <trkpt lat="46.4457" lon="4.76322">
        <ele>335</ele>
        <time>2020-09-22T11:31:41Z</time>
      </trkpt>
      <trkpt lat="46.44532" lon="4.7631">
        <ele>333</ele>
        <time>2020-09-22T11:31:51Z</time>
      </trkpt>
      <trkpt lat="46.44513" lon="4.76316">
        <ele>329</ele>
        <time>2020-09-22T11:31:55Z</time>
      </trkpt>
      <trkpt lat="46.44505" lon="4.76314">
        <ele>329</ele>
        <time>2020-09-22T11:31:57Z</time>
      </trkpt>
      <trkpt lat="46.44486" lon="4.76297">
        <ele>330</ele>
        <time>2020-09-22T11:32:02Z</time>
      </trkpt>
      <trkpt lat="46.44475" lon="4.76295">
        <ele>328</ele>
        <time>2020-09-22T11:32:05Z</time>
      </trkpt>
      <trkpt lat="46.4447" lon="4.76288">
        <ele>329</ele>
        <time>2020-09-22T11:32:06Z</time>
      </trkpt>
      <trkpt lat="46.44429" lon="4.76284">
        <ele>324</ele>
        <time>2020-09-22T11:32:16Z</time>
      </trkpt>
      <trkpt lat="46.44417" lon="4.76276">
        <ele>323</ele>
        <time>2020-09-22T11:32:19Z</time>
      </trkpt>
      <trkpt lat="46.44337" lon="4.76252">
        <ele>320</ele>
        <time>2020-09-22T11:32:38Z</time>
      </trkpt>
      <trkpt lat="46.44295" lon="4.76236">
        <ele>317</ele>
        <time>2020-09-22T11:32:48Z</time>
      </trkpt>
      <trkpt lat="46.44274" lon="4.7624">
        <ele>314</ele>
        <time>2020-09-22T11:32:53Z</time>
      </trkpt>
      <trkpt lat="46.44229" lon="4.76229">
        <ele>309</ele>
        <time>2020-09-22T11:33:04Z</time>
      </trkpt>
      <trkpt lat="46.44217" lon="4.76233">
        <ele>307</ele>
        <time>2020-09-22T11:33:07Z</time>
      </trkpt>
      <trkpt lat="46.44203" lon="4.76232">
        <ele>306</ele>
        <time>2020-09-22T11:33:10Z</time>
      </trkpt>
      <trkpt lat="46.44181" lon="4.76226">
        <ele>304</ele>
        <time>2020-09-22T11:33:15Z</time>
      </trkpt>
      <trkpt lat="46.44125" lon="4.76203">
        <ele>298</ele>
        <time>2020-09-22T11:33:29Z</time>
      </trkpt>
      <trkpt lat="46.4412" lon="4.7621">
        <ele>296</ele>
        <time>2020-09-22T11:33:30Z</time>
      </trkpt>
      <trkpt lat="46.44129" lon="4.76235">
        <ele>294</ele>
        <time>2020-09-22T11:33:35Z</time>
      </trkpt>
      <trkpt lat="46.44169" lon="4.76322">
        <ele>286</ele>
        <time>2020-09-22T11:33:52Z</time>
      </trkpt>
      <trkpt lat="46.44194" lon="4.7637">
        <ele>282</ele>
        <time>2020-09-22T11:34:02Z</time>
      </trkpt>
      <trkpt lat="46.44196" lon="4.76378">
        <ele>281</ele>
        <time>2020-09-22T11:34:03Z</time>
      </trkpt>
      <trkpt lat="46.44193" lon="4.76405">
        <ele>277</ele>
        <time>2020-09-22T11:34:07Z</time>
      </trkpt>
      <trkpt lat="46.44162" lon="4.76515">
        <ele>267</ele>
        <time>2020-09-22T11:34:26Z</time>
      </trkpt>
      <trkpt lat="46.44132" lon="4.76503">
        <ele>265</ele>
        <time>2020-09-22T11:34:34Z</time>
      </trkpt>
      <trkpt lat="46.44102" lon="4.76483">
        <ele>263</ele>
        <time>2020-09-22T11:34:41Z</time>
      </trkpt>
      <trkpt lat="46.44096" lon="4.76483">
        <ele>263</ele>
        <time>2020-09-22T11:34:43Z</time>
      </trkpt>
      <trkpt lat="46.4409" lon="4.76487">
        <ele>262</ele>
        <time>2020-09-22T11:34:44Z</time>
      </trkpt>
      <trkpt lat="46.44055" lon="4.76582">
        <ele>261</ele>
        <time>2020-09-22T11:35:02Z</time>
      </trkpt>
      <trkpt lat="46.44017" lon="4.76565">
        <ele>259</ele>
        <time>2020-09-22T11:35:11Z</time>
      </trkpt>
      <trkpt lat="46.44004" lon="4.76563">
        <ele>259</ele>
        <time>2020-09-22T11:35:14Z</time>
      </trkpt>
      <trkpt lat="46.43979" lon="4.76564">
        <ele>258</ele>
        <time>2020-09-22T11:35:20Z</time>
      </trkpt>
      <trkpt lat="46.4395" lon="4.76578">
        <ele>256</ele>
        <time>2020-09-22T11:35:27Z</time>
      </trkpt>
      <trkpt lat="46.43894" lon="4.76614">
        <ele>255</ele>
        <time>2020-09-22T11:35:41Z</time>
      </trkpt>
      <trkpt lat="46.43874" lon="4.76619">
        <ele>254</ele>
        <time>2020-09-22T11:35:46Z</time>
      </trkpt>
      <trkpt lat="46.43879" lon="4.76662">
        <ele>255</ele>
        <time>2020-09-22T11:35:53Z</time>
      </trkpt>
      <trkpt lat="46.4389" lon="4.76711">
        <ele>256</ele>
        <time>2020-09-22T11:36:01Z</time>
      </trkpt>
      <trkpt lat="46.43872" lon="4.76705">
        <ele>256</ele>
        <time>2020-09-22T11:36:06Z</time>
      </trkpt>
      <trkpt lat="46.43779" lon="4.76638">
        <ele>255</ele>
        <time>2020-09-22T11:36:30Z</time>
      </trkpt>
      <trkpt lat="46.43735" lon="4.76624">
        <ele>256</ele>
        <time>2020-09-22T11:36:40Z</time>
      </trkpt>
      <trkpt lat="46.43663" lon="4.76595">
        <ele>255</ele>
        <time>2020-09-22T11:36:58Z</time>
      </trkpt>
      <trkpt lat="46.4364" lon="4.76579">
        <ele>253</ele>
        <time>2020-09-22T11:37:04Z</time>
      </trkpt>
      <trkpt lat="46.4362" lon="4.7655">
        <ele>250</ele>
        <time>2020-09-22T11:37:10Z</time>
      </trkpt>
      <trkpt lat="46.43601" lon="4.76539">
        <ele>249</ele>
        <time>2020-09-22T11:37:15Z</time>
      </trkpt>
      <trkpt lat="46.43377" lon="4.76466">
        <ele>243</ele>
        <time>2020-09-22T11:38:09Z</time>
      </trkpt>
      <trkpt lat="46.43247" lon="4.76449">
        <ele>241</ele>
        <time>2020-09-22T11:38:39Z</time>
      </trkpt>
      <trkpt lat="46.43024" lon="4.76415">
        <ele>238</ele>
        <time>2020-09-22T11:39:32Z</time>
      </trkpt>
      <trkpt lat="46.43026" lon="4.76366">
        <ele>237</ele>
        <time>2020-09-22T11:39:40Z</time>
      </trkpt>
      <trkpt lat="46.43034" lon="4.76337">
        <ele>236</ele>
        <time>2020-09-22T11:39:45Z</time>
      </trkpt>
      <trkpt lat="46.43057" lon="4.76304">
        <ele>237</ele>
        <time>2020-09-22T11:39:52Z</time>
      </trkpt>
      <trkpt lat="46.43075" lon="4.76297">
        <ele>237</ele>
        <time>2020-09-22T11:39:57Z</time>
      </trkpt>
      <trkpt lat="46.43103" lon="4.7628">
        <ele>238</ele>
        <time>2020-09-22T11:40:04Z</time>
      </trkpt>
      <trkpt lat="46.43111" lon="4.76265">
        <ele>239</ele>
        <time>2020-09-22T11:40:07Z</time>
      </trkpt>
      <trkpt lat="46.43113" lon="4.76246">
        <ele>240</ele>
        <time>2020-09-22T11:40:10Z</time>
      </trkpt>
      <trkpt lat="46.43107" lon="4.76177">
        <ele>244</ele>
        <time>2020-09-22T11:40:21Z</time>
      </trkpt>
    </trkseg>
  </trk>
  <trk>
    <name><![CDATA[13 - Sur les hauteurs du clunisois - noir]]></name>
    <extensions>
      <line xmlns="http://www.topografix.com/GPX/gpx_style/0/2">
        <color>434356</color>
        <width>4</width>
      </line>
    </extensions>
    <trkseg>
      <trkpt lat="46.43107" lon="4.76182">
        <ele>244</ele>
      </trkpt>
      <trkpt lat="46.43109" lon="4.76196">
        <ele>243</ele>
      </trkpt>
      <trkpt lat="46.43111" lon="4.76218">
        <ele>242.2</ele>
      </trkpt>
      <trkpt lat="46.43112" lon="4.76234">
        <ele>241.1</ele>
      </trkpt>
      <trkpt lat="46.43113" lon="4.76246">
        <ele>240.3</ele>
      </trkpt>
      <trkpt lat="46.43112" lon="4.76256">
        <ele>239.8</ele>
      </trkpt>
      <trkpt lat="46.43111" lon="4.76265">
        <ele>239.5</ele>
      </trkpt>
      <trkpt lat="46.43108" lon="4.76273">
        <ele>239.1</ele>
      </trkpt>
      <trkpt lat="46.43103" lon="4.7628">
        <ele>238.7</ele>
      </trkpt>
      <trkpt lat="46.43093" lon="4.76287">
        <ele>238.3</ele>
      </trkpt>
      <trkpt lat="46.43075" lon="4.76297">
        <ele>238.1</ele>
      </trkpt>
      <trkpt lat="46.43071" lon="4.76298">
        <ele>238.2</ele>
      </trkpt>
      <trkpt lat="46.43064" lon="4.76301">
        <ele>238.5</ele>
      </trkpt>
      <trkpt lat="46.43057" lon="4.76304">
        <ele>238.8</ele>
      </trkpt>
      <trkpt lat="46.43054" lon="4.76308">
        <ele>238.8</ele>
      </trkpt>
      <trkpt lat="46.43052" lon="4.7631">
        <ele>238.6</ele>
      </trkpt>
      <trkpt lat="46.43043" lon="4.76322">
        <ele>238</ele>
      </trkpt>
      <trkpt lat="46.4304" lon="4.76327">
        <ele>238</ele>
      </trkpt>
      <trkpt lat="46.43034" lon="4.76337">
        <ele>238.1</ele>
      </trkpt>
      <trkpt lat="46.43029" lon="4.76351">
        <ele>238.6</ele>
      </trkpt>
      <trkpt lat="46.43026" lon="4.76366">
        <ele>238.9</ele>
      </trkpt>
      <trkpt lat="46.43025" lon="4.76381">
        <ele>238.8</ele>
      </trkpt>
      <trkpt lat="46.43024" lon="4.76401">
        <ele>238.8</ele>
      </trkpt>
      <trkpt lat="46.43024" lon="4.76415">
        <ele>238.8</ele>
      </trkpt>
      <trkpt lat="46.43061" lon="4.76422">
        <ele>239</ele>
      </trkpt>
      <trkpt lat="46.43158" lon="4.76435">
        <ele>239.4</ele>
      </trkpt>
      <trkpt lat="46.43173" lon="4.76437">
        <ele>239.7</ele>
      </trkpt>
      <trkpt lat="46.43178" lon="4.76438">
        <ele>239.8</ele>
      </trkpt>
      <trkpt lat="46.43219" lon="4.76445">
        <ele>240.9</ele>
      </trkpt>
      <trkpt lat="46.4323" lon="4.76446">
        <ele>241.1</ele>
      </trkpt>
      <trkpt lat="46.43261" lon="4.7645">
        <ele>241.3</ele>
      </trkpt>
      <trkpt lat="46.43313" lon="4.76458">
        <ele>242.1</ele>
      </trkpt>
      <trkpt lat="46.43358" lon="4.76464">
        <ele>243.3</ele>
      </trkpt>
      <trkpt lat="46.43363" lon="4.76465">
        <ele>243.4</ele>
      </trkpt>
      <trkpt lat="46.43368" lon="4.76466">
        <ele>243.3</ele>
      </trkpt>
      <trkpt lat="46.43377" lon="4.76466">
        <ele>243.1</ele>
      </trkpt>
      <trkpt lat="46.43374" lon="4.76452">
        <ele>242.4</ele>
      </trkpt>
      <trkpt lat="46.43373" lon="4.76427">
        <ele>241.4</ele>
      </trkpt>
      <trkpt lat="46.43377" lon="4.76324">
        <ele>240</ele>
      </trkpt>
      <trkpt lat="46.43377" lon="4.76317">
        <ele>240</ele>
      </trkpt>
      <trkpt lat="46.43374" lon="4.76312">
        <ele>240</ele>
      </trkpt>
      <trkpt lat="46.43371" lon="4.76312">
        <ele>240</ele>
      </trkpt>
      <trkpt lat="46.43357" lon="4.76318">
        <ele>240</ele>
      </trkpt>
      <trkpt lat="46.43344" lon="4.76327">
        <ele>240</ele>
      </trkpt>
      <trkpt lat="46.43334" lon="4.76332">
        <ele>240</ele>
      </trkpt>
      <trkpt lat="46.43328" lon="4.76313">
        <ele>239.8</ele>
      </trkpt>
      <trkpt lat="46.43328" lon="4.76297">
        <ele>239.8</ele>
      </trkpt>
      <trkpt lat="46.43331" lon="4.76208">
        <ele>242.4</ele>
      </trkpt>
      <trkpt lat="46.43331" lon="4.762">
        <ele>242.8</ele>
      </trkpt>
      <trkpt lat="46.43331" lon="4.76196">
        <ele>242.9</ele>
      </trkpt>
      <trkpt lat="46.43339" lon="4.762">
        <ele>243</ele>
      </trkpt>
      <trkpt lat="46.43353" lon="4.7621">
        <ele>242.8</ele>
      </trkpt>
      <trkpt lat="46.43372" lon="4.76219">
        <ele>242.3</ele>
      </trkpt>
      <trkpt lat="46.43388" lon="4.76226">
        <ele>241.7</ele>
      </trkpt>
      <trkpt lat="46.43407" lon="4.76231">
        <ele>242.1</ele>
      </trkpt>
      <trkpt lat="46.43419" lon="4.76233">
        <ele>242.2</ele>
      </trkpt>
      <trkpt lat="46.43426" lon="4.76233">
        <ele>242</ele>
      </trkpt>
      <trkpt lat="46.43429" lon="4.76232">
        <ele>242</ele>
      </trkpt>
      <trkpt lat="46.43437" lon="4.76225">
        <ele>242.1</ele>
      </trkpt>
      <trkpt lat="46.43446" lon="4.76212">
        <ele>243.4</ele>
      </trkpt>
      <trkpt lat="46.43461" lon="4.76191">
        <ele>245.1</ele>
      </trkpt>
      <trkpt lat="46.43472" lon="4.7618">
        <ele>245.6</ele>
      </trkpt>
      <trkpt lat="46.43478" lon="4.76175">
        <ele>246.3</ele>
      </trkpt>
      <trkpt lat="46.43484" lon="4.76174">
        <ele>246.7</ele>
      </trkpt>
      <trkpt lat="46.43506" lon="4.76175">
        <ele>247.2</ele>
      </trkpt>
      <trkpt lat="46.43512" lon="4.76174">
        <ele>247.4</ele>
      </trkpt>
      <trkpt lat="46.43523" lon="4.76168">
        <ele>247.9</ele>
      </trkpt>
      <trkpt lat="46.43563" lon="4.7618">
        <ele>248.1</ele>
      </trkpt>
      <trkpt lat="46.43602" lon="4.7619">
        <ele>249</ele>
      </trkpt>
      <trkpt lat="46.43607" lon="4.76191">
        <ele>249</ele>
      </trkpt>
      <trkpt lat="46.43619" lon="4.76123">
        <ele>252.7</ele>
      </trkpt>
      <trkpt lat="46.43636" lon="4.76033">
        <ele>255.7</ele>
      </trkpt>
      <trkpt lat="46.43642" lon="4.76012">
        <ele>256.7</ele>
      </trkpt>
      <trkpt lat="46.43646" lon="4.76004">
        <ele>257.3</ele>
      </trkpt>
      <trkpt lat="46.43651" lon="4.75999">
        <ele>258</ele>
      </trkpt>
      <trkpt lat="46.43653" lon="4.75998">
        <ele>258.2</ele>
      </trkpt>
      <trkpt lat="46.43659" lon="4.75996">
        <ele>258.8</ele>
      </trkpt>
      <trkpt lat="46.43694" lon="4.75987">
        <ele>261.9</ele>
      </trkpt>
      <trkpt lat="46.43697" lon="4.75984">
        <ele>262.3</ele>
      </trkpt>
      <trkpt lat="46.437" lon="4.75981">
        <ele>262.7</ele>
      </trkpt>
      <trkpt lat="46.43701" lon="4.75976">
        <ele>263.2</ele>
      </trkpt>
      <trkpt lat="46.43703" lon="4.75963">
        <ele>264.3</ele>
      </trkpt>
      <trkpt lat="46.43705" lon="4.75945">
        <ele>265.8</ele>
      </trkpt>
      <trkpt lat="46.43706" lon="4.75937">
        <ele>266.3</ele>
      </trkpt>
      <trkpt lat="46.43715" lon="4.75909">
        <ele>268</ele>
      </trkpt>
      <trkpt lat="46.43728" lon="4.75877">
        <ele>269.5</ele>
      </trkpt>
      <trkpt lat="46.43738" lon="4.75855">
        <ele>270.3</ele>
      </trkpt>
      <trkpt lat="46.43743" lon="4.75846">
        <ele>270.9</ele>
      </trkpt>
      <trkpt lat="46.43754" lon="4.75816">
        <ele>272.6</ele>
      </trkpt>
      <trkpt lat="46.43763" lon="4.75787">
        <ele>273.4</ele>
      </trkpt>
      <trkpt lat="46.43768" lon="4.75765">
        <ele>273.7</ele>
      </trkpt>
      <trkpt lat="46.43769" lon="4.75758">
        <ele>273.8</ele>
      </trkpt>
      <trkpt lat="46.43771" lon="4.75751">
        <ele>274</ele>
      </trkpt>
      <trkpt lat="46.43774" lon="4.75737">
        <ele>273.6</ele>
      </trkpt>
      <trkpt lat="46.43779" lon="4.75718">
        <ele>273</ele>
      </trkpt>
      <trkpt lat="46.43783" lon="4.75705">
        <ele>272.8</ele>
      </trkpt>
      <trkpt lat="46.43786" lon="4.75693">
        <ele>272.7</ele>
      </trkpt>
      <trkpt lat="46.43793" lon="4.75687">
        <ele>272.4</ele>
      </trkpt>
      <trkpt lat="46.43799" lon="4.75678">
        <ele>271.9</ele>
      </trkpt>
      <trkpt lat="46.43805" lon="4.75666">
        <ele>271.1</ele>
      </trkpt>
      <trkpt lat="46.43809" lon="4.7566">
        <ele>271.3</ele>
      </trkpt>
      <trkpt lat="46.43819" lon="4.7564">
        <ele>271.5</ele>
      </trkpt>
      <trkpt lat="46.43852" lon="4.75576">
        <ele>268.3</ele>
      </trkpt>
      <trkpt lat="46.43859" lon="4.7558">
        <ele>267.3</ele>
      </trkpt>
      <trkpt lat="46.43869" lon="4.75586">
        <ele>266.1</ele>
      </trkpt>
      <trkpt lat="46.43884" lon="4.75591">
        <ele>264</ele>
      </trkpt>
      <trkpt lat="46.43897" lon="4.75595">
        <ele>262.3</ele>
      </trkpt>
      <trkpt lat="46.43919" lon="4.75604">
        <ele>259.3</ele>
      </trkpt>
      <trkpt lat="46.43917" lon="4.75612">
        <ele>259</ele>
      </trkpt>
      <trkpt lat="46.43937" lon="4.75619">
        <ele>257</ele>
      </trkpt>
      <trkpt lat="46.43962" lon="4.75637">
        <ele>255</ele>
      </trkpt>
      <trkpt lat="46.43964" lon="4.75639">
        <ele>255</ele>
      </trkpt>
      <trkpt lat="46.43968" lon="4.75641">
        <ele>254.9</ele>
      </trkpt>
      <trkpt lat="46.43973" lon="4.75645">
        <ele>254.8</ele>
      </trkpt>
      <trkpt lat="46.43982" lon="4.75651">
        <ele>254.7</ele>
      </trkpt>
      <trkpt lat="46.4399" lon="4.75654">
        <ele>254.8</ele>
      </trkpt>
      <trkpt lat="46.43996" lon="4.75655">
        <ele>254.9</ele>
      </trkpt>
      <trkpt lat="46.44005" lon="4.75655">
        <ele>255.6</ele>
      </trkpt>
      <trkpt lat="46.44014" lon="4.75652">
        <ele>256.5</ele>
      </trkpt>
      <trkpt lat="46.44033" lon="4.75639">
        <ele>256.9</ele>
      </trkpt>
      <trkpt lat="46.4406" lon="4.75607">
        <ele>258.7</ele>
      </trkpt>
      <trkpt lat="46.44104" lon="4.75561">
        <ele>261</ele>
      </trkpt>
      <trkpt lat="46.44125" lon="4.75539">
        <ele>262.6</ele>
      </trkpt>
      <trkpt lat="46.44143" lon="4.7552">
        <ele>264</ele>
      </trkpt>
      <trkpt lat="46.44177" lon="4.75485">
        <ele>266</ele>
      </trkpt>
      <trkpt lat="46.4421" lon="4.75458">
        <ele>268.1</ele>
      </trkpt>
      <trkpt lat="46.44237" lon="4.75438">
        <ele>269.5</ele>
      </trkpt>
      <trkpt lat="46.44251" lon="4.75428">
        <ele>269.7</ele>
      </trkpt>
      <trkpt lat="46.44261" lon="4.75421">
        <ele>269.8</ele>
      </trkpt>
      <trkpt lat="46.44271" lon="4.75417">
        <ele>270.3</ele>
      </trkpt>
      <trkpt lat="46.4429" lon="4.75409">
        <ele>271.3</ele>
      </trkpt>
      <trkpt lat="46.44318" lon="4.75399">
        <ele>272.8</ele>
      </trkpt>
      <trkpt lat="46.44357" lon="4.75384">
        <ele>274.7</ele>
      </trkpt>
      <trkpt lat="46.4441" lon="4.75366">
        <ele>277.4</ele>
      </trkpt>
      <trkpt lat="46.44445" lon="4.75358">
        <ele>278.6</ele>
      </trkpt>
      <trkpt lat="46.44463" lon="4.75356">
        <ele>280.3</ele>
      </trkpt>
      <trkpt lat="46.44478" lon="4.75356">
        <ele>281.7</ele>
      </trkpt>
      <trkpt lat="46.44497" lon="4.75359">
        <ele>282.6</ele>
      </trkpt>
      <trkpt lat="46.44514" lon="4.75364">
        <ele>283.9</ele>
      </trkpt>
      <trkpt lat="46.44544" lon="4.75372">
        <ele>285</ele>
      </trkpt>
      <trkpt lat="46.44569" lon="4.7538">
        <ele>285.3</ele>
      </trkpt>
      <trkpt lat="46.44597" lon="4.75387">
        <ele>285.2</ele>
      </trkpt>
      <trkpt lat="46.44611" lon="4.75388">
        <ele>284.9</ele>
      </trkpt>
      <trkpt lat="46.44623" lon="4.75389">
        <ele>285</ele>
      </trkpt>
      <trkpt lat="46.44643" lon="4.75389">
        <ele>284.8</ele>
      </trkpt>
      <trkpt lat="46.44667" lon="4.75388">
        <ele>284</ele>
      </trkpt>
      <trkpt lat="46.44676" lon="4.75388">
        <ele>284.3</ele>
      </trkpt>
      <trkpt lat="46.44692" lon="4.75387">
        <ele>284.7</ele>
      </trkpt>
      <trkpt lat="46.44707" lon="4.7539">
        <ele>285.2</ele>
      </trkpt>
      <trkpt lat="46.4472" lon="4.75391">
        <ele>285.6</ele>
      </trkpt>
      <trkpt lat="46.44782" lon="4.75394">
        <ele>287.7</ele>
      </trkpt>
      <trkpt lat="46.44818" lon="4.75393">
        <ele>288.3</ele>
      </trkpt>
      <trkpt lat="46.44858" lon="4.75391">
        <ele>289.4</ele>
      </trkpt>
      <trkpt lat="46.44888" lon="4.75387">
        <ele>289.6</ele>
      </trkpt>
      <trkpt lat="46.44899" lon="4.75385">
        <ele>289.2</ele>
      </trkpt>
      <trkpt lat="46.44906" lon="4.75381">
        <ele>288.8</ele>
      </trkpt>
      <trkpt lat="46.44919" lon="4.75375">
        <ele>288.6</ele>
      </trkpt>
      <trkpt lat="46.45032" lon="4.75383">
        <ele>292</ele>
      </trkpt>
      <trkpt lat="46.45081" lon="4.75396">
        <ele>293.9</ele>
      </trkpt>
      <trkpt lat="46.45153" lon="4.75425">
        <ele>296.3</ele>
      </trkpt>
      <trkpt lat="46.45227" lon="4.75492">
        <ele>300.4</ele>
      </trkpt>
      <trkpt lat="46.45305" lon="4.75613">
        <ele>304.3</ele>
      </trkpt>
      <trkpt lat="46.45383" lon="4.75723">
        <ele>304.9</ele>
      </trkpt>
      <trkpt lat="46.45499" lon="4.75829">
        <ele>308.9</ele>
      </trkpt>
      <trkpt lat="46.45515" lon="4.7584">
        <ele>310.7</ele>
      </trkpt>
      <trkpt lat="46.45545" lon="4.7585">
        <ele>313</ele>
      </trkpt>
      <trkpt lat="46.45647" lon="4.75883">
        <ele>315.4</ele>
      </trkpt>
      <trkpt lat="46.45654" lon="4.75885">
        <ele>315.3</ele>
      </trkpt>
      <trkpt lat="46.45663" lon="4.75887">
        <ele>315.1</ele>
      </trkpt>
      <trkpt lat="46.45672" lon="4.75887">
        <ele>315.3</ele>
      </trkpt>
      <trkpt lat="46.45687" lon="4.75886">
        <ele>316.2</ele>
      </trkpt>
      <trkpt lat="46.45699" lon="4.75884">
        <ele>316.7</ele>
      </trkpt>
      <trkpt lat="46.45708" lon="4.75884">
        <ele>317.1</ele>
      </trkpt>
      <trkpt lat="46.45718" lon="4.75885">
        <ele>317.6</ele>
      </trkpt>
      <trkpt lat="46.45727" lon="4.75887">
        <ele>317.5</ele>
      </trkpt>
      <trkpt lat="46.45738" lon="4.75891">
        <ele>317.5</ele>
      </trkpt>
      <trkpt lat="46.45749" lon="4.75895">
        <ele>318.3</ele>
      </trkpt>
      <trkpt lat="46.45757" lon="4.75897">
        <ele>319.2</ele>
      </trkpt>
      <trkpt lat="46.45765" lon="4.75898">
        <ele>319.3</ele>
      </trkpt>
      <trkpt lat="46.45773" lon="4.75897">
        <ele>318.8</ele>
      </trkpt>
      <trkpt lat="46.45781" lon="4.75893">
        <ele>318.3</ele>
      </trkpt>
      <trkpt lat="46.45796" lon="4.75881">
        <ele>319.9</ele>
      </trkpt>
      <trkpt lat="46.45815" lon="4.7586">
        <ele>320.8</ele>
      </trkpt>
      <trkpt lat="46.45825" lon="4.75849">
        <ele>322</ele>
      </trkpt>
      <trkpt lat="46.45833" lon="4.75843">
        <ele>322</ele>
      </trkpt>
      <trkpt lat="46.45842" lon="4.75837">
        <ele>321.3</ele>
      </trkpt>
      <trkpt lat="46.45848" lon="4.75836">
        <ele>321.1</ele>
      </trkpt>
      <trkpt lat="46.45853" lon="4.75836">
        <ele>321.3</ele>
      </trkpt>
      <trkpt lat="46.45859" lon="4.75838">
        <ele>322.3</ele>
      </trkpt>
      <trkpt lat="46.45872" lon="4.75846">
        <ele>323.8</ele>
      </trkpt>
      <trkpt lat="46.45888" lon="4.7586">
        <ele>323.1</ele>
      </trkpt>
      <trkpt lat="46.45903" lon="4.75871">
        <ele>325.5</ele>
      </trkpt>
      <trkpt lat="46.45916" lon="4.75878">
        <ele>326.4</ele>
      </trkpt>
      <trkpt lat="46.45927" lon="4.75883">
        <ele>327.3</ele>
      </trkpt>
      <trkpt lat="46.45954" lon="4.75895">
        <ele>329.3</ele>
      </trkpt>
      <trkpt lat="46.45981" lon="4.75903">
        <ele>330.4</ele>
      </trkpt>
      <trkpt lat="46.46002" lon="4.75909">
        <ele>331.3</ele>
      </trkpt>
      <trkpt lat="46.46018" lon="4.75914">
        <ele>331.9</ele>
      </trkpt>
      <trkpt lat="46.46047" lon="4.75944">
        <ele>338.3</ele>
      </trkpt>
      <trkpt lat="46.46089" lon="4.75983">
        <ele>346.3</ele>
      </trkpt>
      <trkpt lat="46.46132" lon="4.76019">
        <ele>353.3</ele>
      </trkpt>
      <trkpt lat="46.46152" lon="4.76036">
        <ele>356.7</ele>
      </trkpt>
      <trkpt lat="46.46158" lon="4.76043">
        <ele>357.8</ele>
      </trkpt>
      <trkpt lat="46.46155" lon="4.76045">
        <ele>358</ele>
      </trkpt>
      <trkpt lat="46.46149" lon="4.76049">
        <ele>358.4</ele>
      </trkpt>
      <trkpt lat="46.46138" lon="4.76054">
        <ele>358.8</ele>
      </trkpt>
      <trkpt lat="46.46121" lon="4.76061">
        <ele>360</ele>
      </trkpt>
      <trkpt lat="46.46104" lon="4.76067">
        <ele>361.3</ele>
      </trkpt>
      <trkpt lat="46.46091" lon="4.76083">
        <ele>363.9</ele>
      </trkpt>
      <trkpt lat="46.4608" lon="4.76099">
        <ele>365.7</ele>
      </trkpt>
      <trkpt lat="46.46072" lon="4.76113">
        <ele>367.2</ele>
      </trkpt>
      <trkpt lat="46.46058" lon="4.76136">
        <ele>368.8</ele>
      </trkpt>
      <trkpt lat="46.4607" lon="4.76138">
        <ele>369.5</ele>
      </trkpt>
      <trkpt lat="46.46091" lon="4.76147">
        <ele>370.3</ele>
      </trkpt>
      <trkpt lat="46.46205" lon="4.76194">
        <ele>375.4</ele>
      </trkpt>
      <trkpt lat="46.46224" lon="4.76202">
        <ele>376.4</ele>
      </trkpt>
      <trkpt lat="46.46246" lon="4.76204">
        <ele>377.2</ele>
      </trkpt>
      <trkpt lat="46.46283" lon="4.76204">
        <ele>379.6</ele>
      </trkpt>
      <trkpt lat="46.46314" lon="4.76198">
        <ele>381.6</ele>
      </trkpt>
      <trkpt lat="46.46332" lon="4.76193">
        <ele>382.8</ele>
      </trkpt>
      <trkpt lat="46.46375" lon="4.76181">
        <ele>386</ele>
      </trkpt>
      <trkpt lat="46.46431" lon="4.76166">
        <ele>391.5</ele>
      </trkpt>
      <trkpt lat="46.46514" lon="4.76145">
        <ele>399.2</ele>
      </trkpt>
      <trkpt lat="46.4658" lon="4.76125">
        <ele>406.9</ele>
      </trkpt>
      <trkpt lat="46.46607" lon="4.76119">
        <ele>413.3</ele>
      </trkpt>
      <trkpt lat="46.4662" lon="4.76121">
        <ele>416.7</ele>
      </trkpt>
      <trkpt lat="46.46648" lon="4.76119">
        <ele>422.1</ele>
      </trkpt>
      <trkpt lat="46.46676" lon="4.76114">
        <ele>424.3</ele>
      </trkpt>
      <trkpt lat="46.46706" lon="4.76117">
        <ele>427.7</ele>
      </trkpt>
      <trkpt lat="46.46731" lon="4.76119">
        <ele>429.7</ele>
      </trkpt>
      <trkpt lat="46.46767" lon="4.76131">
        <ele>433.3</ele>
      </trkpt>
      <trkpt lat="46.4682" lon="4.76147">
        <ele>438.8</ele>
      </trkpt>
      <trkpt lat="46.46878" lon="4.76166">
        <ele>441.2</ele>
      </trkpt>
      <trkpt lat="46.46931" lon="4.76176">
        <ele>444.2</ele>
      </trkpt>
      <trkpt lat="46.46942" lon="4.76178">
        <ele>444.5</ele>
      </trkpt>
      <trkpt lat="46.46983" lon="4.76189">
        <ele>445.1</ele>
      </trkpt>
      <trkpt lat="46.47029" lon="4.76202">
        <ele>446.2</ele>
      </trkpt>
      <trkpt lat="46.47113" lon="4.76226">
        <ele>446.7</ele>
      </trkpt>
      <trkpt lat="46.47179" lon="4.76243">
        <ele>446.2</ele>
      </trkpt>
      <trkpt lat="46.47346" lon="4.76262">
        <ele>455.4</ele>
      </trkpt>
      <trkpt lat="46.4749" lon="4.76307">
        <ele>461.5</ele>
      </trkpt>
      <trkpt lat="46.47687" lon="4.76393">
        <ele>462.7</ele>
      </trkpt>
      <trkpt lat="46.47812" lon="4.76459">
        <ele>466.9</ele>
      </trkpt>
      <trkpt lat="46.47842" lon="4.76468">
        <ele>469.3</ele>
      </trkpt>
      <trkpt lat="46.47864" lon="4.76479">
        <ele>470.2</ele>
      </trkpt>
      <trkpt lat="46.47861" lon="4.76519">
        <ele>471</ele>
      </trkpt>
      <trkpt lat="46.4782" lon="4.76672">
        <ele>457</ele>
      </trkpt>
      <trkpt lat="46.47796" lon="4.76789">
        <ele>442.9</ele>
      </trkpt>
      <trkpt lat="46.47841" lon="4.76797">
        <ele>446</ele>
      </trkpt>
      <trkpt lat="46.47874" lon="4.76802">
        <ele>447.4</ele>
      </trkpt>
      <trkpt lat="46.47911" lon="4.76808">
        <ele>448.3</ele>
      </trkpt>
      <trkpt lat="46.47919" lon="4.76809">
        <ele>448.4</ele>
      </trkpt>
      <trkpt lat="46.47926" lon="4.76808">
        <ele>448.6</ele>
      </trkpt>
      <trkpt lat="46.47933" lon="4.76805">
        <ele>449.1</ele>
      </trkpt>
      <trkpt lat="46.47946" lon="4.76795">
        <ele>450.6</ele>
      </trkpt>
      <trkpt lat="46.47956" lon="4.76784">
        <ele>452.2</ele>
      </trkpt>
      <trkpt lat="46.47963" lon="4.7677">
        <ele>453.8</ele>
      </trkpt>
      <trkpt lat="46.47967" lon="4.76755">
        <ele>455.5</ele>
      </trkpt>
      <trkpt lat="46.47969" lon="4.7674">
        <ele>457.1</ele>
      </trkpt>
      <trkpt lat="46.47973" lon="4.76732">
        <ele>458</ele>
      </trkpt>
      <trkpt lat="46.4798" lon="4.76723">
        <ele>459.2</ele>
      </trkpt>
      <trkpt lat="46.47989" lon="4.76715">
        <ele>460.3</ele>
      </trkpt>
      <trkpt lat="46.48001" lon="4.76706">
        <ele>461.8</ele>
      </trkpt>
      <trkpt lat="46.4801" lon="4.76702">
        <ele>462.5</ele>
      </trkpt>
      <trkpt lat="46.48018" lon="4.767">
        <ele>463.1</ele>
      </trkpt>
      <trkpt lat="46.48032" lon="4.76699">
        <ele>463.7</ele>
      </trkpt>
      <trkpt lat="46.48046" lon="4.76698">
        <ele>464.3</ele>
      </trkpt>
      <trkpt lat="46.48057" lon="4.76698">
        <ele>464.8</ele>
      </trkpt>
      <trkpt lat="46.48068" lon="4.76701">
        <ele>465</ele>
      </trkpt>
      <trkpt lat="46.48081" lon="4.76704">
        <ele>465.2</ele>
      </trkpt>
      <trkpt lat="46.48104" lon="4.76711">
        <ele>465.1</ele>
      </trkpt>
      <trkpt lat="46.48115" lon="4.76716">
        <ele>464.9</ele>
      </trkpt>
      <trkpt lat="46.48126" lon="4.76723">
        <ele>465.1</ele>
      </trkpt>
      <trkpt lat="46.4814" lon="4.76731">
        <ele>465.1</ele>
      </trkpt>
      <trkpt lat="46.48154" lon="4.76739">
        <ele>464.7</ele>
      </trkpt>
      <trkpt lat="46.48167" lon="4.76747">
        <ele>464.4</ele>
      </trkpt>
      <trkpt lat="46.48184" lon="4.76755">
        <ele>464.1</ele>
      </trkpt>
      <trkpt lat="46.48198" lon="4.76761">
        <ele>463.8</ele>
      </trkpt>
      <trkpt lat="46.48208" lon="4.76766">
        <ele>463.3</ele>
      </trkpt>
      <trkpt lat="46.48217" lon="4.76767">
        <ele>463.1</ele>
      </trkpt>
      <trkpt lat="46.48226" lon="4.76768">
        <ele>463.1</ele>
      </trkpt>
      <trkpt lat="46.48241" lon="4.76767">
        <ele>463.2</ele>
      </trkpt>
      <trkpt lat="46.48256" lon="4.76764">
        <ele>463.3</ele>
      </trkpt>
      <trkpt lat="46.48269" lon="4.76761">
        <ele>463.4</ele>
      </trkpt>
      <trkpt lat="46.4828" lon="4.76758">
        <ele>463.4</ele>
      </trkpt>
      <trkpt lat="46.48299" lon="4.76755">
        <ele>463.7</ele>
      </trkpt>
      <trkpt lat="46.48313" lon="4.76753">
        <ele>463.3</ele>
      </trkpt>
      <trkpt lat="46.48322" lon="4.76754">
        <ele>462.6</ele>
      </trkpt>
      <trkpt lat="46.48337" lon="4.76753">
        <ele>461.5</ele>
      </trkpt>
      <trkpt lat="46.48351" lon="4.76751">
        <ele>460.1</ele>
      </trkpt>
      <trkpt lat="46.48371" lon="4.76754">
        <ele>458</ele>
      </trkpt>
      <trkpt lat="46.48383" lon="4.76754">
        <ele>456.7</ele>
      </trkpt>
      <trkpt lat="46.48402" lon="4.76749">
        <ele>454.5</ele>
      </trkpt>
      <trkpt lat="46.48417" lon="4.76746">
        <ele>452.5</ele>
      </trkpt>
      <trkpt lat="46.48428" lon="4.76747">
        <ele>451.1</ele>
      </trkpt>
      <trkpt lat="46.48438" lon="4.76746">
        <ele>449.6</ele>
      </trkpt>
      <trkpt lat="46.4844" lon="4.76744">
        <ele>449.2</ele>
      </trkpt>
      <trkpt lat="46.48447" lon="4.76737">
        <ele>447.6</ele>
      </trkpt>
      <trkpt lat="46.48454" lon="4.76725">
        <ele>445.7</ele>
      </trkpt>
      <trkpt lat="46.48462" lon="4.7671">
        <ele>445.3</ele>
      </trkpt>
      <trkpt lat="46.48471" lon="4.76691">
        <ele>446.1</ele>
      </trkpt>
      <trkpt lat="46.48477" lon="4.76685">
        <ele>445.6</ele>
      </trkpt>
      <trkpt lat="46.48486" lon="4.76677">
        <ele>445.3</ele>
      </trkpt>
      <trkpt lat="46.48495" lon="4.76672">
        <ele>445.4</ele>
      </trkpt>
      <trkpt lat="46.48508" lon="4.76665">
        <ele>445.8</ele>
      </trkpt>
      <trkpt lat="46.48528" lon="4.76662">
        <ele>445.4</ele>
      </trkpt>
      <trkpt lat="46.48534" lon="4.76651">
        <ele>446.6</ele>
      </trkpt>
      <trkpt lat="46.4854" lon="4.76649">
        <ele>447.1</ele>
      </trkpt>
      <trkpt lat="46.48545" lon="4.76639">
        <ele>448.3</ele>
      </trkpt>
      <trkpt lat="46.48557" lon="4.7663">
        <ele>450.5</ele>
      </trkpt>
      <trkpt lat="46.48565" lon="4.76628">
        <ele>451.8</ele>
      </trkpt>
      <trkpt lat="46.48567" lon="4.76628">
        <ele>452.1</ele>
      </trkpt>
      <trkpt lat="46.48571" lon="4.76628">
        <ele>452.6</ele>
      </trkpt>
      <trkpt lat="46.48581" lon="4.76633">
        <ele>453.3</ele>
      </trkpt>
      <trkpt lat="46.48597" lon="4.76641">
        <ele>454.8</ele>
      </trkpt>
      <trkpt lat="46.48613" lon="4.76648">
        <ele>456.2</ele>
      </trkpt>
      <trkpt lat="46.48621" lon="4.76651">
        <ele>456.6</ele>
      </trkpt>
      <trkpt lat="46.48631" lon="4.76634">
        <ele>458.8</ele>
      </trkpt>
      <trkpt lat="46.48645" lon="4.76614">
        <ele>461.3</ele>
      </trkpt>
      <trkpt lat="46.48648" lon="4.7661">
        <ele>461.7</ele>
      </trkpt>
      <trkpt lat="46.48667" lon="4.76581">
        <ele>465.2</ele>
      </trkpt>
      <trkpt lat="46.48672" lon="4.76575">
        <ele>466.5</ele>
      </trkpt>
      <trkpt lat="46.48677" lon="4.76573">
        <ele>467.2</ele>
      </trkpt>
      <trkpt lat="46.48694" lon="4.76575">
        <ele>468.8</ele>
      </trkpt>
      <trkpt lat="46.48714" lon="4.76574">
        <ele>471</ele>
      </trkpt>
      <trkpt lat="46.48721" lon="4.76573">
        <ele>471.9</ele>
      </trkpt>
      <trkpt lat="46.48727" lon="4.76566">
        <ele>472.9</ele>
      </trkpt>
      <trkpt lat="46.48735" lon="4.76547">
        <ele>474.6</ele>
      </trkpt>
      <trkpt lat="46.48744" lon="4.76521">
        <ele>476.7</ele>
      </trkpt>
      <trkpt lat="46.48752" lon="4.76502">
        <ele>479</ele>
      </trkpt>
      <trkpt lat="46.48756" lon="4.76492">
        <ele>480.6</ele>
      </trkpt>
      <trkpt lat="46.48765" lon="4.76477">
        <ele>483.5</ele>
      </trkpt>
      <trkpt lat="46.48769" lon="4.76475">
        <ele>484</ele>
      </trkpt>
      <trkpt lat="46.48777" lon="4.76474">
        <ele>484.7</ele>
      </trkpt>
      <trkpt lat="46.48787" lon="4.76477">
        <ele>485.2</ele>
      </trkpt>
      <trkpt lat="46.48798" lon="4.76477">
        <ele>485.9</ele>
      </trkpt>
      <trkpt lat="46.48807" lon="4.76477">
        <ele>486.6</ele>
      </trkpt>
      <trkpt lat="46.48816" lon="4.7647">
        <ele>487.4</ele>
      </trkpt>
      <trkpt lat="46.48826" lon="4.76458">
        <ele>487.3</ele>
      </trkpt>
      <trkpt lat="46.48829" lon="4.76449">
        <ele>486.7</ele>
      </trkpt>
      <trkpt lat="46.48829" lon="4.7644">
        <ele>485.9</ele>
      </trkpt>
      <trkpt lat="46.48824" lon="4.76426">
        <ele>484.5</ele>
      </trkpt>
      <trkpt lat="46.48815" lon="4.76409">
        <ele>483.4</ele>
      </trkpt>
      <trkpt lat="46.48809" lon="4.76395">
        <ele>481.7</ele>
      </trkpt>
      <trkpt lat="46.48807" lon="4.76384">
        <ele>480.5</ele>
      </trkpt>
      <trkpt lat="46.48807" lon="4.76377">
        <ele>480.1</ele>
      </trkpt>
      <trkpt lat="46.48809" lon="4.76365">
        <ele>479</ele>
      </trkpt>
      <trkpt lat="46.48817" lon="4.76343">
        <ele>477.1</ele>
      </trkpt>
      <trkpt lat="46.48827" lon="4.76316">
        <ele>476.6</ele>
      </trkpt>
      <trkpt lat="46.48834" lon="4.76298">
        <ele>477</ele>
      </trkpt>
      <trkpt lat="46.48837" lon="4.76283">
        <ele>477</ele>
      </trkpt>
      <trkpt lat="46.48839" lon="4.76259">
        <ele>477.1</ele>
      </trkpt>
      <trkpt lat="46.48839" lon="4.7624">
        <ele>477.3</ele>
      </trkpt>
      <trkpt lat="46.48839" lon="4.76227">
        <ele>477.4</ele>
      </trkpt>
      <trkpt lat="46.48851" lon="4.76235">
        <ele>478</ele>
      </trkpt>
      <trkpt lat="46.48861" lon="4.76242">
        <ele>478.3</ele>
      </trkpt>
      <trkpt lat="46.48881" lon="4.76259">
        <ele>478.1</ele>
      </trkpt>
      <trkpt lat="46.48899" lon="4.76275">
        <ele>477.6</ele>
      </trkpt>
      <trkpt lat="46.48904" lon="4.76262">
        <ele>478.4</ele>
      </trkpt>
      <trkpt lat="46.48913" lon="4.76246">
        <ele>479.3</ele>
      </trkpt>
      <trkpt lat="46.4892" lon="4.76222">
        <ele>481</ele>
      </trkpt>
      <trkpt lat="46.48934" lon="4.76177">
        <ele>483.9</ele>
      </trkpt>
      <trkpt lat="46.48943" lon="4.76149">
        <ele>486.3</ele>
      </trkpt>
      <trkpt lat="46.48951" lon="4.76127">
        <ele>487.8</ele>
      </trkpt>
      <trkpt lat="46.48957" lon="4.76116">
        <ele>488.9</ele>
      </trkpt>
      <trkpt lat="46.48968" lon="4.76097">
        <ele>490.9</ele>
      </trkpt>
      <trkpt lat="46.48989" lon="4.76069">
        <ele>493.6</ele>
      </trkpt>
      <trkpt lat="46.48994" lon="4.76059">
        <ele>494.6</ele>
      </trkpt>
      <trkpt lat="46.49008" lon="4.76035">
        <ele>497.3</ele>
      </trkpt>
      <trkpt lat="46.4902" lon="4.76011">
        <ele>499.6</ele>
      </trkpt>
      <trkpt lat="46.49038" lon="4.75984">
        <ele>502.7</ele>
      </trkpt>
      <trkpt lat="46.49045" lon="4.75973">
        <ele>504.2</ele>
      </trkpt>
      <trkpt lat="46.49059" lon="4.75962">
        <ele>506.2</ele>
      </trkpt>
      <trkpt lat="46.49079" lon="4.75947">
        <ele>509.4</ele>
      </trkpt>
      <trkpt lat="46.49101" lon="4.75931">
        <ele>513.8</ele>
      </trkpt>
      <trkpt lat="46.49114" lon="4.75927">
        <ele>516.4</ele>
      </trkpt>
      <trkpt lat="46.49126" lon="4.75925">
        <ele>518.7</ele>
      </trkpt>
      <trkpt lat="46.49135" lon="4.75926">
        <ele>520.2</ele>
      </trkpt>
      <trkpt lat="46.49156" lon="4.75932">
        <ele>521.6</ele>
      </trkpt>
      <trkpt lat="46.49162" lon="4.75934">
        <ele>521.8</ele>
      </trkpt>
      <trkpt lat="46.49194" lon="4.75947">
        <ele>523.7</ele>
      </trkpt>
      <trkpt lat="46.49228" lon="4.75956">
        <ele>524.7</ele>
      </trkpt>
      <trkpt lat="46.49245" lon="4.75961">
        <ele>525.3</ele>
      </trkpt>
      <trkpt lat="46.4927" lon="4.75964">
        <ele>525.9</ele>
      </trkpt>
      <trkpt lat="46.4928" lon="4.75964">
        <ele>526.2</ele>
      </trkpt>
      <trkpt lat="46.49281" lon="4.75964">
        <ele>526.2</ele>
      </trkpt>
      <trkpt lat="46.49288" lon="4.75962">
        <ele>526.6</ele>
      </trkpt>
      <trkpt lat="46.49301" lon="4.75951">
        <ele>528.7</ele>
      </trkpt>
      <trkpt lat="46.49322" lon="4.7593">
        <ele>530.7</ele>
      </trkpt>
      <trkpt lat="46.4934" lon="4.75911">
        <ele>532.2</ele>
      </trkpt>
      <trkpt lat="46.49349" lon="4.75896">
        <ele>532.9</ele>
      </trkpt>
      <trkpt lat="46.49352" lon="4.75889">
        <ele>533.3</ele>
      </trkpt>
      <trkpt lat="46.49352" lon="4.7588">
        <ele>534.1</ele>
      </trkpt>
      <trkpt lat="46.49352" lon="4.75877">
        <ele>534.5</ele>
      </trkpt>
      <trkpt lat="46.49352" lon="4.7588">
        <ele>534.1</ele>
      </trkpt>
      <trkpt lat="46.49356" lon="4.75874">
        <ele>534.7</ele>
      </trkpt>
      <trkpt lat="46.49359" lon="4.75863">
        <ele>535.8</ele>
      </trkpt>
      <trkpt lat="46.49365" lon="4.75834">
        <ele>537.8</ele>
      </trkpt>
      <trkpt lat="46.4937" lon="4.75811">
        <ele>539.5</ele>
      </trkpt>
      <trkpt lat="46.49376" lon="4.75782">
        <ele>542.1</ele>
      </trkpt>
      <trkpt lat="46.49379" lon="4.75761">
        <ele>543.8</ele>
      </trkpt>
      <trkpt lat="46.49382" lon="4.75737">
        <ele>546</ele>
      </trkpt>
      <trkpt lat="46.49386" lon="4.75708">
        <ele>548.4</ele>
      </trkpt>
      <trkpt lat="46.49391" lon="4.75687">
        <ele>549.3</ele>
      </trkpt>
      <trkpt lat="46.49397" lon="4.75662">
        <ele>549.7</ele>
      </trkpt>
      <trkpt lat="46.49402" lon="4.75635">
        <ele>549.2</ele>
      </trkpt>
      <trkpt lat="46.49392" lon="4.75646">
        <ele>551.1</ele>
      </trkpt>
      <trkpt lat="46.49385" lon="4.75655">
        <ele>552.2</ele>
      </trkpt>
      <trkpt lat="46.49375" lon="4.75661">
        <ele>553.9</ele>
      </trkpt>
      <trkpt lat="46.49366" lon="4.75664">
        <ele>555.4</ele>
      </trkpt>
      <trkpt lat="46.49359" lon="4.75666">
        <ele>556.3</ele>
      </trkpt>
      <trkpt lat="46.49339" lon="4.7567">
        <ele>557.9</ele>
      </trkpt>
      <trkpt lat="46.49329" lon="4.75673">
        <ele>558.2</ele>
      </trkpt>
      <trkpt lat="46.49318" lon="4.75674">
        <ele>558</ele>
      </trkpt>
      <trkpt lat="46.493" lon="4.75674">
        <ele>557.6</ele>
      </trkpt>
      <trkpt lat="46.49291" lon="4.75671">
        <ele>557.4</ele>
      </trkpt>
      <trkpt lat="46.49282" lon="4.75668">
        <ele>557.1</ele>
      </trkpt>
      <trkpt lat="46.49263" lon="4.7566">
        <ele>556.9</ele>
      </trkpt>
      <trkpt lat="46.49252" lon="4.75656">
        <ele>556.6</ele>
      </trkpt>
      <trkpt lat="46.49241" lon="4.75677">
        <ele>553.1</ele>
      </trkpt>
      <trkpt lat="46.49229" lon="4.75708">
        <ele>549.9</ele>
      </trkpt>
      <trkpt lat="46.49223" lon="4.7573">
        <ele>548.7</ele>
      </trkpt>
      <trkpt lat="46.4922" lon="4.75733">
        <ele>548.5</ele>
      </trkpt>
      <trkpt lat="46.49216" lon="4.75732">
        <ele>548.4</ele>
      </trkpt>
      <trkpt lat="46.4921" lon="4.75732">
        <ele>548.2</ele>
      </trkpt>
      <trkpt lat="46.49201" lon="4.7573">
        <ele>548</ele>
      </trkpt>
      <trkpt lat="46.49182" lon="4.75729">
        <ele>547.3</ele>
      </trkpt>
      <trkpt lat="46.49168" lon="4.75729">
        <ele>546.8</ele>
      </trkpt>
      <trkpt lat="46.49156" lon="4.75726">
        <ele>546.5</ele>
      </trkpt>
      <trkpt lat="46.49143" lon="4.75725">
        <ele>546.1</ele>
      </trkpt>
      <trkpt lat="46.49128" lon="4.75727">
        <ele>545.5</ele>
      </trkpt>
      <trkpt lat="46.49116" lon="4.75728">
        <ele>545.1</ele>
      </trkpt>
      <trkpt lat="46.49093" lon="4.75726">
        <ele>544.2</ele>
      </trkpt>
      <trkpt lat="46.49076" lon="4.75728">
        <ele>543.3</ele>
      </trkpt>
      <trkpt lat="46.49066" lon="4.75731">
        <ele>542.1</ele>
      </trkpt>
      <trkpt lat="46.49058" lon="4.75729">
        <ele>541.6</ele>
      </trkpt>
      <trkpt lat="46.4905" lon="4.75723">
        <ele>542</ele>
      </trkpt>
      <trkpt lat="46.49038" lon="4.75713">
        <ele>541.1</ele>
      </trkpt>
      <trkpt lat="46.49027" lon="4.75703">
        <ele>541.7</ele>
      </trkpt>
      <trkpt lat="46.49021" lon="4.75699">
        <ele>542.3</ele>
      </trkpt>
      <trkpt lat="46.49005" lon="4.75681">
        <ele>542.6</ele>
      </trkpt>
      <trkpt lat="46.48984" lon="4.75651">
        <ele>542.5</ele>
      </trkpt>
      <trkpt lat="46.4897" lon="4.75638">
        <ele>542.9</ele>
      </trkpt>
      <trkpt lat="46.4896" lon="4.75631">
        <ele>542.2</ele>
      </trkpt>
      <trkpt lat="46.48952" lon="4.75621">
        <ele>541.8</ele>
      </trkpt>
      <trkpt lat="46.48937" lon="4.75606">
        <ele>541.1</ele>
      </trkpt>
      <trkpt lat="46.48929" lon="4.75601">
        <ele>540.4</ele>
      </trkpt>
      <trkpt lat="46.48925" lon="4.756">
        <ele>540.4</ele>
      </trkpt>
      <trkpt lat="46.4891" lon="4.756">
        <ele>540.2</ele>
      </trkpt>
      <trkpt lat="46.48899" lon="4.75596">
        <ele>539.5</ele>
      </trkpt>
      <trkpt lat="46.4889" lon="4.75592">
        <ele>539</ele>
      </trkpt>
      <trkpt lat="46.48868" lon="4.75584">
        <ele>537.5</ele>
      </trkpt>
      <trkpt lat="46.48785" lon="4.75549">
        <ele>530.4</ele>
      </trkpt>
      <trkpt lat="46.48711" lon="4.75514">
        <ele>521.9</ele>
      </trkpt>
      <trkpt lat="46.4869" lon="4.75509">
        <ele>520.5</ele>
      </trkpt>
      <trkpt lat="46.4864" lon="4.75508">
        <ele>519.6</ele>
      </trkpt>
      <trkpt lat="46.48608" lon="4.75493">
        <ele>519.7</ele>
      </trkpt>
      <trkpt lat="46.48599" lon="4.75486">
        <ele>519.5</ele>
      </trkpt>
      <trkpt lat="46.48374" lon="4.75329">
        <ele>515.3</ele>
      </trkpt>
      <trkpt lat="46.48349" lon="4.75312">
        <ele>514.8</ele>
      </trkpt>
      <trkpt lat="46.4833" lon="4.75291">
        <ele>514.6</ele>
      </trkpt>
      <trkpt lat="46.48298" lon="4.75259">
        <ele>516.1</ele>
      </trkpt>
      <trkpt lat="46.48289" lon="4.75247">
        <ele>516.6</ele>
      </trkpt>
      <trkpt lat="46.48278" lon="4.75233">
        <ele>517</ele>
      </trkpt>
      <trkpt lat="46.48259" lon="4.75201">
        <ele>517.2</ele>
      </trkpt>
      <trkpt lat="46.48248" lon="4.7518">
        <ele>515.5</ele>
      </trkpt>
      <trkpt lat="46.48219" lon="4.75165">
        <ele>514.6</ele>
      </trkpt>
      <trkpt lat="46.482" lon="4.75168">
        <ele>514.3</ele>
      </trkpt>
      <trkpt lat="46.48182" lon="4.75177">
        <ele>514.2</ele>
      </trkpt>
      <trkpt lat="46.48158" lon="4.75204">
        <ele>512.2</ele>
      </trkpt>
      <trkpt lat="46.4814" lon="4.75218">
        <ele>507.8</ele>
      </trkpt>
      <trkpt lat="46.48088" lon="4.7521">
        <ele>502.5</ele>
      </trkpt>
      <trkpt lat="46.47998" lon="4.75185">
        <ele>496</ele>
      </trkpt>
      <trkpt lat="46.47942" lon="4.75165">
        <ele>492.5</ele>
      </trkpt>
      <trkpt lat="46.47909" lon="4.75158">
        <ele>489</ele>
      </trkpt>
      <trkpt lat="46.4786" lon="4.75175">
        <ele>486.6</ele>
      </trkpt>
      <trkpt lat="46.47864" lon="4.75185">
        <ele>487.3</ele>
      </trkpt>
      <trkpt lat="46.47858" lon="4.75186">
        <ele>487.6</ele>
      </trkpt>
      <trkpt lat="46.47844" lon="4.75187">
        <ele>488.5</ele>
      </trkpt>
      <trkpt lat="46.47838" lon="4.75188">
        <ele>489</ele>
      </trkpt>
      <trkpt lat="46.47808" lon="4.75185">
        <ele>492.6</ele>
      </trkpt>
      <trkpt lat="46.47773" lon="4.75176">
        <ele>497.2</ele>
      </trkpt>
      <trkpt lat="46.47757" lon="4.75173">
        <ele>498.7</ele>
      </trkpt>
      <trkpt lat="46.4773" lon="4.75167">
        <ele>499.8</ele>
      </trkpt>
      <trkpt lat="46.47705" lon="4.75162">
        <ele>500.4</ele>
      </trkpt>
      <trkpt lat="46.47684" lon="4.75156">
        <ele>500.2</ele>
      </trkpt>
      <trkpt lat="46.47667" lon="4.75151">
        <ele>499.9</ele>
      </trkpt>
      <trkpt lat="46.47657" lon="4.75147">
        <ele>498.9</ele>
      </trkpt>
      <trkpt lat="46.47646" lon="4.75144">
        <ele>497.9</ele>
      </trkpt>
      <trkpt lat="46.47628" lon="4.75138">
        <ele>496.5</ele>
      </trkpt>
      <trkpt lat="46.47609" lon="4.75133">
        <ele>495.3</ele>
      </trkpt>
      <trkpt lat="46.47585" lon="4.75126">
        <ele>492.7</ele>
      </trkpt>
      <trkpt lat="46.47577" lon="4.75123">
        <ele>492.2</ele>
      </trkpt>
      <trkpt lat="46.4756" lon="4.75117">
        <ele>491.4</ele>
      </trkpt>
      <trkpt lat="46.47548" lon="4.75111">
        <ele>491.3</ele>
      </trkpt>
      <trkpt lat="46.47526" lon="4.75098">
        <ele>492</ele>
      </trkpt>
      <trkpt lat="46.47509" lon="4.75083">
        <ele>492.7</ele>
      </trkpt>
      <trkpt lat="46.4748" lon="4.75057">
        <ele>493.7</ele>
      </trkpt>
      <trkpt lat="46.47466" lon="4.75047">
        <ele>493.8</ele>
      </trkpt>
      <trkpt lat="46.47445" lon="4.75028">
        <ele>494</ele>
      </trkpt>
      <trkpt lat="46.47426" lon="4.75015">
        <ele>493.5</ele>
      </trkpt>
      <trkpt lat="46.47418" lon="4.75011">
        <ele>493.4</ele>
      </trkpt>
      <trkpt lat="46.47404" lon="4.74998">
        <ele>493.4</ele>
      </trkpt>
      <trkpt lat="46.47388" lon="4.74986">
        <ele>493.5</ele>
      </trkpt>
      <trkpt lat="46.47376" lon="4.74971">
        <ele>493.4</ele>
      </trkpt>
      <trkpt lat="46.47365" lon="4.74964">
        <ele>493.2</ele>
      </trkpt>
      <trkpt lat="46.47357" lon="4.74958">
        <ele>492.9</ele>
      </trkpt>
      <trkpt lat="46.47295" lon="4.74918">
        <ele>489.6</ele>
      </trkpt>
      <trkpt lat="46.47281" lon="4.74909">
        <ele>488.6</ele>
      </trkpt>
      <trkpt lat="46.4727" lon="4.74914">
        <ele>488.3</ele>
      </trkpt>
      <trkpt lat="46.47248" lon="4.74932">
        <ele>488</ele>
      </trkpt>
      <trkpt lat="46.47237" lon="4.74936">
        <ele>487.5</ele>
      </trkpt>
      <trkpt lat="46.4722" lon="4.7494">
        <ele>486.8</ele>
      </trkpt>
      <trkpt lat="46.47203" lon="4.74934">
        <ele>486.2</ele>
      </trkpt>
      <trkpt lat="46.47203" lon="4.74931">
        <ele>486.2</ele>
      </trkpt>
      <trkpt lat="46.47204" lon="4.74918">
        <ele>486</ele>
      </trkpt>
      <trkpt lat="46.47203" lon="4.74906">
        <ele>485.3</ele>
      </trkpt>
      <trkpt lat="46.47201" lon="4.74893">
        <ele>484.3</ele>
      </trkpt>
      <trkpt lat="46.47196" lon="4.74874">
        <ele>482.9</ele>
      </trkpt>
      <trkpt lat="46.4719" lon="4.74855">
        <ele>481.8</ele>
      </trkpt>
      <trkpt lat="46.47186" lon="4.74842">
        <ele>481</ele>
      </trkpt>
      <trkpt lat="46.47179" lon="4.74828">
        <ele>479.9</ele>
      </trkpt>
      <trkpt lat="46.47171" lon="4.74816">
        <ele>478.5</ele>
      </trkpt>
      <trkpt lat="46.4717" lon="4.74811">
        <ele>477.8</ele>
      </trkpt>
      <trkpt lat="46.47169" lon="4.74804">
        <ele>476.9</ele>
      </trkpt>
      <trkpt lat="46.47169" lon="4.74795">
        <ele>476</ele>
      </trkpt>
      <trkpt lat="46.47175" lon="4.74773">
        <ele>473.6</ele>
      </trkpt>
      <trkpt lat="46.47197" lon="4.74718">
        <ele>467.5</ele>
      </trkpt>
      <trkpt lat="46.47134" lon="4.74681">
        <ele>462.8</ele>
      </trkpt>
      <trkpt lat="46.47054" lon="4.74559">
        <ele>451.5</ele>
      </trkpt>
      <trkpt lat="46.46916" lon="4.74167">
        <ele>439.2</ele>
      </trkpt>
      <trkpt lat="46.46905" lon="4.74139">
        <ele>437.3</ele>
      </trkpt>
      <trkpt lat="46.46897" lon="4.74115">
        <ele>435.2</ele>
      </trkpt>
      <trkpt lat="46.46888" lon="4.74099">
        <ele>433.2</ele>
      </trkpt>
      <trkpt lat="46.4688" lon="4.74093">
        <ele>432.2</ele>
      </trkpt>
      <trkpt lat="46.46869" lon="4.74088">
        <ele>431.5</ele>
      </trkpt>
      <trkpt lat="46.46852" lon="4.74079">
        <ele>429.4</ele>
      </trkpt>
      <trkpt lat="46.46833" lon="4.74072">
        <ele>426.8</ele>
      </trkpt>
      <trkpt lat="46.46815" lon="4.74069">
        <ele>424.5</ele>
      </trkpt>
      <trkpt lat="46.46793" lon="4.74057">
        <ele>423</ele>
      </trkpt>
      <trkpt lat="46.46771" lon="4.74007">
        <ele>423.1</ele>
      </trkpt>
      <trkpt lat="46.46755" lon="4.73953">
        <ele>423.8</ele>
      </trkpt>
      <trkpt lat="46.46734" lon="4.7393">
        <ele>425.7</ele>
      </trkpt>
      <trkpt lat="46.46722" lon="4.73915">
        <ele>425.9</ele>
      </trkpt>
      <trkpt lat="46.4667" lon="4.73897">
        <ele>428.3</ele>
      </trkpt>
      <trkpt lat="46.46614" lon="4.73855">
        <ele>430</ele>
      </trkpt>
      <trkpt lat="46.46572" lon="4.73824">
        <ele>432</ele>
      </trkpt>
      <trkpt lat="46.46559" lon="4.73814">
        <ele>432.5</ele>
      </trkpt>
      <trkpt lat="46.46547" lon="4.73802">
        <ele>433.4</ele>
      </trkpt>
      <trkpt lat="46.46537" lon="4.73787">
        <ele>434.5</ele>
      </trkpt>
      <trkpt lat="46.46527" lon="4.73775">
        <ele>436</ele>
      </trkpt>
      <trkpt lat="46.46516" lon="4.73764">
        <ele>437.6</ele>
      </trkpt>
      <trkpt lat="46.46505" lon="4.73753">
        <ele>439.1</ele>
      </trkpt>
      <trkpt lat="46.46491" lon="4.7374">
        <ele>441.2</ele>
      </trkpt>
      <trkpt lat="46.4648" lon="4.73728">
        <ele>442.7</ele>
      </trkpt>
      <trkpt lat="46.46466" lon="4.73704">
        <ele>443.8</ele>
      </trkpt>
      <trkpt lat="46.46464" lon="4.73695">
        <ele>443.5</ele>
      </trkpt>
      <trkpt lat="46.46463" lon="4.73685">
        <ele>443.7</ele>
      </trkpt>
      <trkpt lat="46.46464" lon="4.73677">
        <ele>443.8</ele>
      </trkpt>
      <trkpt lat="46.46465" lon="4.73667">
        <ele>443.7</ele>
      </trkpt>
      <trkpt lat="46.46465" lon="4.73659">
        <ele>444.4</ele>
      </trkpt>
      <trkpt lat="46.46468" lon="4.73647">
        <ele>444.9</ele>
      </trkpt>
      <trkpt lat="46.46472" lon="4.73636">
        <ele>445.6</ele>
      </trkpt>
      <trkpt lat="46.46475" lon="4.73625">
        <ele>446.7</ele>
      </trkpt>
      <trkpt lat="46.46476" lon="4.73616">
        <ele>447.8</ele>
      </trkpt>
      <trkpt lat="46.46476" lon="4.73605">
        <ele>448.4</ele>
      </trkpt>
      <trkpt lat="46.46473" lon="4.73591">
        <ele>448.8</ele>
      </trkpt>
      <trkpt lat="46.46471" lon="4.73585">
        <ele>449.2</ele>
      </trkpt>
      <trkpt lat="46.46465" lon="4.73573">
        <ele>449.5</ele>
      </trkpt>
      <trkpt lat="46.46455" lon="4.73555">
        <ele>450.5</ele>
      </trkpt>
      <trkpt lat="46.46444" lon="4.73541">
        <ele>451.5</ele>
      </trkpt>
      <trkpt lat="46.46431" lon="4.73526">
        <ele>452.9</ele>
      </trkpt>
      <trkpt lat="46.46419" lon="4.73513">
        <ele>454.1</ele>
      </trkpt>
      <trkpt lat="46.46405" lon="4.73499">
        <ele>455.1</ele>
      </trkpt>
      <trkpt lat="46.46391" lon="4.73485">
        <ele>455.7</ele>
      </trkpt>
      <trkpt lat="46.46376" lon="4.73473">
        <ele>456.9</ele>
      </trkpt>
      <trkpt lat="46.46359" lon="4.73459">
        <ele>458.2</ele>
      </trkpt>
      <trkpt lat="46.46323" lon="4.73428">
        <ele>457.4</ele>
      </trkpt>
      <trkpt lat="46.46306" lon="4.73414">
        <ele>457.8</ele>
      </trkpt>
      <trkpt lat="46.46289" lon="4.73399">
        <ele>458.1</ele>
      </trkpt>
      <trkpt lat="46.46276" lon="4.73384">
        <ele>457.5</ele>
      </trkpt>
      <trkpt lat="46.46267" lon="4.73372">
        <ele>456.5</ele>
      </trkpt>
      <trkpt lat="46.46252" lon="4.73362">
        <ele>456</ele>
      </trkpt>
      <trkpt lat="46.46248" lon="4.73353">
        <ele>455.5</ele>
      </trkpt>
      <trkpt lat="46.46243" lon="4.73345">
        <ele>455.2</ele>
      </trkpt>
      <trkpt lat="46.46235" lon="4.73331">
        <ele>454.9</ele>
      </trkpt>
      <trkpt lat="46.46219" lon="4.73309">
        <ele>453.6</ele>
      </trkpt>
      <trkpt lat="46.46203" lon="4.73289">
        <ele>453.2</ele>
      </trkpt>
      <trkpt lat="46.46191" lon="4.73272">
        <ele>452.5</ele>
      </trkpt>
      <trkpt lat="46.46181" lon="4.73252">
        <ele>451.2</ele>
      </trkpt>
      <trkpt lat="46.46166" lon="4.73222">
        <ele>451</ele>
      </trkpt>
      <trkpt lat="46.46153" lon="4.73199">
        <ele>451.1</ele>
      </trkpt>
      <trkpt lat="46.46143" lon="4.73178">
        <ele>451.7</ele>
      </trkpt>
      <trkpt lat="46.4614" lon="4.73168">
        <ele>451.9</ele>
      </trkpt>
      <trkpt lat="46.46138" lon="4.73162">
        <ele>452</ele>
      </trkpt>
      <trkpt lat="46.46136" lon="4.73153">
        <ele>451.9</ele>
      </trkpt>
      <trkpt lat="46.46136" lon="4.73146">
        <ele>451.9</ele>
      </trkpt>
      <trkpt lat="46.46136" lon="4.73141">
        <ele>451.9</ele>
      </trkpt>
      <trkpt lat="46.46136" lon="4.7314">
        <ele>451.9</ele>
      </trkpt>
      <trkpt lat="46.46136" lon="4.73129">
        <ele>451.9</ele>
      </trkpt>
      <trkpt lat="46.46133" lon="4.73126">
        <ele>451.8</ele>
      </trkpt>
      <trkpt lat="46.46141" lon="4.73109">
        <ele>452</ele>
      </trkpt>
      <trkpt lat="46.46147" lon="4.73092">
        <ele>452.4</ele>
      </trkpt>
      <trkpt lat="46.4615" lon="4.73079">
        <ele>452.8</ele>
      </trkpt>
      <trkpt lat="46.46155" lon="4.73068">
        <ele>453.3</ele>
      </trkpt>
      <trkpt lat="46.4616" lon="4.73058">
        <ele>453.9</ele>
      </trkpt>
      <trkpt lat="46.46165" lon="4.73048">
        <ele>454.3</ele>
      </trkpt>
      <trkpt lat="46.46168" lon="4.7304">
        <ele>454.5</ele>
      </trkpt>
      <trkpt lat="46.46172" lon="4.73028">
        <ele>454.8</ele>
      </trkpt>
      <trkpt lat="46.46176" lon="4.73014">
        <ele>454.8</ele>
      </trkpt>
      <trkpt lat="46.46177" lon="4.73005">
        <ele>454.9</ele>
      </trkpt>
      <trkpt lat="46.46182" lon="4.72983">
        <ele>455</ele>
      </trkpt>
      <trkpt lat="46.46184" lon="4.72969">
        <ele>454.9</ele>
      </trkpt>
      <trkpt lat="46.46184" lon="4.7296">
        <ele>454.7</ele>
      </trkpt>
      <trkpt lat="46.46184" lon="4.7295">
        <ele>454.5</ele>
      </trkpt>
      <trkpt lat="46.46183" lon="4.72941">
        <ele>454.4</ele>
      </trkpt>
      <trkpt lat="46.46183" lon="4.72933">
        <ele>454.2</ele>
      </trkpt>
      <trkpt lat="46.46184" lon="4.72923">
        <ele>454.1</ele>
      </trkpt>
      <trkpt lat="46.46185" lon="4.72914">
        <ele>454</ele>
      </trkpt>
      <trkpt lat="46.46187" lon="4.72904">
        <ele>454</ele>
      </trkpt>
      <trkpt lat="46.46189" lon="4.72892">
        <ele>454</ele>
      </trkpt>
      <trkpt lat="46.4619" lon="4.72886">
        <ele>454.1</ele>
      </trkpt>
      <trkpt lat="46.46191" lon="4.72876">
        <ele>454.4</ele>
      </trkpt>
      <trkpt lat="46.46194" lon="4.72873">
        <ele>454.6</ele>
      </trkpt>
      <trkpt lat="46.46197" lon="4.72868">
        <ele>454.7</ele>
      </trkpt>
      <trkpt lat="46.46198" lon="4.72863">
        <ele>454.8</ele>
      </trkpt>
      <trkpt lat="46.46202" lon="4.72853">
        <ele>454.8</ele>
      </trkpt>
      <trkpt lat="46.46205" lon="4.72837">
        <ele>454.9</ele>
      </trkpt>
      <trkpt lat="46.4621" lon="4.72822">
        <ele>455.4</ele>
      </trkpt>
      <trkpt lat="46.46219" lon="4.72801">
        <ele>456.5</ele>
      </trkpt>
      <trkpt lat="46.46228" lon="4.72778">
        <ele>458.6</ele>
      </trkpt>
      <trkpt lat="46.46233" lon="4.72764">
        <ele>459.4</ele>
      </trkpt>
      <trkpt lat="46.46238" lon="4.72745">
        <ele>460.8</ele>
      </trkpt>
      <trkpt lat="46.46244" lon="4.72722">
        <ele>462.2</ele>
      </trkpt>
      <trkpt lat="46.4625" lon="4.72698">
        <ele>463.8</ele>
      </trkpt>
      <trkpt lat="46.46253" lon="4.72677">
        <ele>465.1</ele>
      </trkpt>
      <trkpt lat="46.46255" lon="4.72659">
        <ele>466.4</ele>
      </trkpt>
      <trkpt lat="46.46255" lon="4.7265">
        <ele>467</ele>
      </trkpt>
      <trkpt lat="46.46255" lon="4.72643">
        <ele>467.5</ele>
      </trkpt>
      <trkpt lat="46.46254" lon="4.72638">
        <ele>467.9</ele>
      </trkpt>
      <trkpt lat="46.46252" lon="4.7263">
        <ele>468.3</ele>
      </trkpt>
      <trkpt lat="46.46248" lon="4.72617">
        <ele>468.7</ele>
      </trkpt>
      <trkpt lat="46.4624" lon="4.72599">
        <ele>469.5</ele>
      </trkpt>
      <trkpt lat="46.46234" lon="4.7258">
        <ele>470.5</ele>
      </trkpt>
      <trkpt lat="46.46228" lon="4.72557">
        <ele>470.9</ele>
      </trkpt>
      <trkpt lat="46.46223" lon="4.72539">
        <ele>471.6</ele>
      </trkpt>
      <trkpt lat="46.46221" lon="4.72528">
        <ele>471.9</ele>
      </trkpt>
      <trkpt lat="46.4622" lon="4.72516">
        <ele>471.9</ele>
      </trkpt>
      <trkpt lat="46.4622" lon="4.72503">
        <ele>471.9</ele>
      </trkpt>
      <trkpt lat="46.46219" lon="4.72494">
        <ele>471.9</ele>
      </trkpt>
      <trkpt lat="46.4622" lon="4.72479">
        <ele>471.9</ele>
      </trkpt>
      <trkpt lat="46.46221" lon="4.72468">
        <ele>471.8</ele>
      </trkpt>
      <trkpt lat="46.46223" lon="4.72457">
        <ele>471.5</ele>
      </trkpt>
      <trkpt lat="46.46226" lon="4.7244">
        <ele>471</ele>
      </trkpt>
      <trkpt lat="46.46228" lon="4.72435">
        <ele>470.8</ele>
      </trkpt>
      <trkpt lat="46.46232" lon="4.72428">
        <ele>470.8</ele>
      </trkpt>
      <trkpt lat="46.46238" lon="4.72419">
        <ele>470.9</ele>
      </trkpt>
      <trkpt lat="46.46244" lon="4.72409">
        <ele>470.8</ele>
      </trkpt>
      <trkpt lat="46.46248" lon="4.72401">
        <ele>470.7</ele>
      </trkpt>
      <trkpt lat="46.46252" lon="4.72392">
        <ele>470.4</ele>
      </trkpt>
      <trkpt lat="46.46255" lon="4.72377">
        <ele>470.2</ele>
      </trkpt>
      <trkpt lat="46.46258" lon="4.7236">
        <ele>470.1</ele>
      </trkpt>
      <trkpt lat="46.4626" lon="4.7235">
        <ele>470.1</ele>
      </trkpt>
      <trkpt lat="46.4626" lon="4.72341">
        <ele>470</ele>
      </trkpt>
      <trkpt lat="46.4626" lon="4.72333">
        <ele>469.8</ele>
      </trkpt>
      <trkpt lat="46.4626" lon="4.72327">
        <ele>469.8</ele>
      </trkpt>
      <trkpt lat="46.46259" lon="4.72318">
        <ele>469.7</ele>
      </trkpt>
      <trkpt lat="46.46257" lon="4.72301">
        <ele>469.8</ele>
      </trkpt>
      <trkpt lat="46.46251" lon="4.72268">
        <ele>471.7</ele>
      </trkpt>
      <trkpt lat="46.46245" lon="4.72238">
        <ele>474.1</ele>
      </trkpt>
      <trkpt lat="46.4624" lon="4.72219">
        <ele>475.6</ele>
      </trkpt>
      <trkpt lat="46.46236" lon="4.72201">
        <ele>477.1</ele>
      </trkpt>
      <trkpt lat="46.4623" lon="4.72184">
        <ele>478.1</ele>
      </trkpt>
      <trkpt lat="46.46222" lon="4.72163">
        <ele>479.1</ele>
      </trkpt>
      <trkpt lat="46.46214" lon="4.72143">
        <ele>479.3</ele>
      </trkpt>
      <trkpt lat="46.46206" lon="4.72123">
        <ele>479</ele>
      </trkpt>
      <trkpt lat="46.46196" lon="4.72095">
        <ele>479.9</ele>
      </trkpt>
      <trkpt lat="46.4619" lon="4.72077">
        <ele>480.4</ele>
      </trkpt>
      <trkpt lat="46.46187" lon="4.72066">
        <ele>480.4</ele>
      </trkpt>
      <trkpt lat="46.46183" lon="4.72055">
        <ele>480.4</ele>
      </trkpt>
      <trkpt lat="46.4618" lon="4.72045">
        <ele>480.1</ele>
      </trkpt>
      <trkpt lat="46.46175" lon="4.72035">
        <ele>479.8</ele>
      </trkpt>
      <trkpt lat="46.46171" lon="4.72024">
        <ele>479.4</ele>
      </trkpt>
      <trkpt lat="46.46167" lon="4.7201">
        <ele>479</ele>
      </trkpt>
      <trkpt lat="46.46166" lon="4.71999">
        <ele>478.8</ele>
      </trkpt>
      <trkpt lat="46.46164" lon="4.71987">
        <ele>478</ele>
      </trkpt>
      <trkpt lat="46.46162" lon="4.71969">
        <ele>477</ele>
      </trkpt>
      <trkpt lat="46.4616" lon="4.71957">
        <ele>476</ele>
      </trkpt>
      <trkpt lat="46.46157" lon="4.71945">
        <ele>475</ele>
      </trkpt>
      <trkpt lat="46.46154" lon="4.71937">
        <ele>474.2</ele>
      </trkpt>
      <trkpt lat="46.46151" lon="4.71924">
        <ele>473.2</ele>
      </trkpt>
      <trkpt lat="46.46149" lon="4.71918">
        <ele>472.7</ele>
      </trkpt>
      <trkpt lat="46.46147" lon="4.71909">
        <ele>472</ele>
      </trkpt>
      <trkpt lat="46.46147" lon="4.71902">
        <ele>471.3</ele>
      </trkpt>
      <trkpt lat="46.46147" lon="4.71893">
        <ele>470.7</ele>
      </trkpt>
      <trkpt lat="46.46149" lon="4.71887">
        <ele>470.3</ele>
      </trkpt>
      <trkpt lat="46.46152" lon="4.71883">
        <ele>470.1</ele>
      </trkpt>
      <trkpt lat="46.46153" lon="4.71877">
        <ele>469.9</ele>
      </trkpt>
      <trkpt lat="46.46152" lon="4.71872">
        <ele>469.6</ele>
      </trkpt>
      <trkpt lat="46.4615" lon="4.71863">
        <ele>469.1</ele>
      </trkpt>
      <trkpt lat="46.46144" lon="4.71854">
        <ele>469</ele>
      </trkpt>
      <trkpt lat="46.46139" lon="4.71843">
        <ele>469</ele>
      </trkpt>
      <trkpt lat="46.4613" lon="4.71826">
        <ele>468.8</ele>
      </trkpt>
      <trkpt lat="46.46118" lon="4.7181">
        <ele>468.9</ele>
      </trkpt>
      <trkpt lat="46.46105" lon="4.71798">
        <ele>469.5</ele>
      </trkpt>
      <trkpt lat="46.46099" lon="4.71791">
        <ele>469.8</ele>
      </trkpt>
      <trkpt lat="46.46096" lon="4.71784">
        <ele>470.1</ele>
      </trkpt>
      <trkpt lat="46.46095" lon="4.71773">
        <ele>470.8</ele>
      </trkpt>
      <trkpt lat="46.46095" lon="4.71762">
        <ele>471.9</ele>
      </trkpt>
      <trkpt lat="46.46094" lon="4.71752">
        <ele>472.8</ele>
      </trkpt>
      <trkpt lat="46.46092" lon="4.71743">
        <ele>471.4</ele>
      </trkpt>
      <trkpt lat="46.46089" lon="4.71739">
        <ele>470.4</ele>
      </trkpt>
      <trkpt lat="46.46086" lon="4.7174">
        <ele>470.7</ele>
      </trkpt>
      <trkpt lat="46.4608" lon="4.71743">
        <ele>471.4</ele>
      </trkpt>
      <trkpt lat="46.46075" lon="4.71746">
        <ele>472</ele>
      </trkpt>
      <trkpt lat="46.46067" lon="4.71747">
        <ele>472.1</ele>
      </trkpt>
      <trkpt lat="46.46062" lon="4.71745">
        <ele>471.8</ele>
      </trkpt>
      <trkpt lat="46.46057" lon="4.71742">
        <ele>471.7</ele>
      </trkpt>
      <trkpt lat="46.4605" lon="4.7174">
        <ele>471.5</ele>
      </trkpt>
      <trkpt lat="46.46044" lon="4.7174">
        <ele>471.3</ele>
      </trkpt>
      <trkpt lat="46.4604" lon="4.7174">
        <ele>471.2</ele>
      </trkpt>
      <trkpt lat="46.46033" lon="4.71741">
        <ele>471.2</ele>
      </trkpt>
      <trkpt lat="46.46021" lon="4.71742">
        <ele>471</ele>
      </trkpt>
      <trkpt lat="46.46008" lon="4.71742">
        <ele>470.9</ele>
      </trkpt>
      <trkpt lat="46.45994" lon="4.71742">
        <ele>470.8</ele>
      </trkpt>
      <trkpt lat="46.45983" lon="4.71743">
        <ele>470.8</ele>
      </trkpt>
      <trkpt lat="46.45975" lon="4.71741">
        <ele>470.3</ele>
      </trkpt>
      <trkpt lat="46.45965" lon="4.71739">
        <ele>470.3</ele>
      </trkpt>
      <trkpt lat="46.45956" lon="4.7174">
        <ele>470.8</ele>
      </trkpt>
      <trkpt lat="46.45952" lon="4.71739">
        <ele>470.8</ele>
      </trkpt>
      <trkpt lat="46.45946" lon="4.7174">
        <ele>471.2</ele>
      </trkpt>
      <trkpt lat="46.4594" lon="4.71741">
        <ele>471.6</ele>
      </trkpt>
      <trkpt lat="46.45933" lon="4.71739">
        <ele>471.6</ele>
      </trkpt>
      <trkpt lat="46.45926" lon="4.71737">
        <ele>471.6</ele>
      </trkpt>
      <trkpt lat="46.45918" lon="4.71734">
        <ele>471.6</ele>
      </trkpt>
      <trkpt lat="46.45909" lon="4.71732">
        <ele>471.4</ele>
      </trkpt>
      <trkpt lat="46.45904" lon="4.7173">
        <ele>471.3</ele>
      </trkpt>
      <trkpt lat="46.45896" lon="4.7173">
        <ele>471.5</ele>
      </trkpt>
      <trkpt lat="46.45887" lon="4.7173">
        <ele>471.6</ele>
      </trkpt>
      <trkpt lat="46.4588" lon="4.71732">
        <ele>471.6</ele>
      </trkpt>
      <trkpt lat="46.45875" lon="4.71733">
        <ele>471.6</ele>
      </trkpt>
      <trkpt lat="46.45869" lon="4.71732">
        <ele>471.4</ele>
      </trkpt>
      <trkpt lat="46.45861" lon="4.71731">
        <ele>471.3</ele>
      </trkpt>
      <trkpt lat="46.45854" lon="4.7173">
        <ele>471.5</ele>
      </trkpt>
      <trkpt lat="46.45848" lon="4.71726">
        <ele>471.6</ele>
      </trkpt>
      <trkpt lat="46.45842" lon="4.71722">
        <ele>471.6</ele>
      </trkpt>
      <trkpt lat="46.45834" lon="4.71718">
        <ele>471.2</ele>
      </trkpt>
      <trkpt lat="46.45824" lon="4.71716">
        <ele>471.5</ele>
      </trkpt>
      <trkpt lat="46.45814" lon="4.71713">
        <ele>471.9</ele>
      </trkpt>
      <trkpt lat="46.45808" lon="4.71713">
        <ele>472.4</ele>
      </trkpt>
      <trkpt lat="46.45803" lon="4.71715">
        <ele>473</ele>
      </trkpt>
      <trkpt lat="46.45799" lon="4.71718">
        <ele>473.4</ele>
      </trkpt>
      <trkpt lat="46.4579" lon="4.71721">
        <ele>473.8</ele>
      </trkpt>
      <trkpt lat="46.45779" lon="4.71731">
        <ele>473.4</ele>
      </trkpt>
      <trkpt lat="46.45773" lon="4.71736">
        <ele>473</ele>
      </trkpt>
      <trkpt lat="46.45768" lon="4.71744">
        <ele>472.4</ele>
      </trkpt>
      <trkpt lat="46.45758" lon="4.71747">
        <ele>472.2</ele>
      </trkpt>
      <trkpt lat="46.45747" lon="4.71737">
        <ele>472.7</ele>
      </trkpt>
      <trkpt lat="46.45728" lon="4.71723">
        <ele>471.6</ele>
      </trkpt>
      <trkpt lat="46.45708" lon="4.71708">
        <ele>470.2</ele>
      </trkpt>
      <trkpt lat="46.45698" lon="4.71701">
        <ele>469.4</ele>
      </trkpt>
      <trkpt lat="46.45695" lon="4.717">
        <ele>469.1</ele>
      </trkpt>
      <trkpt lat="46.45692" lon="4.71701">
        <ele>469.1</ele>
      </trkpt>
      <trkpt lat="46.4569" lon="4.71706">
        <ele>469.2</ele>
      </trkpt>
      <trkpt lat="46.45687" lon="4.71717">
        <ele>469.1</ele>
      </trkpt>
      <trkpt lat="46.45683" lon="4.7173">
        <ele>468.2</ele>
      </trkpt>
      <trkpt lat="46.45679" lon="4.71738">
        <ele>467.2</ele>
      </trkpt>
      <trkpt lat="46.45675" lon="4.71738">
        <ele>467.1</ele>
      </trkpt>
      <trkpt lat="46.45665" lon="4.71739">
        <ele>466.6</ele>
      </trkpt>
      <trkpt lat="46.4566" lon="4.71742">
        <ele>466.1</ele>
      </trkpt>
      <trkpt lat="46.45655" lon="4.71744">
        <ele>465.7</ele>
      </trkpt>
      <trkpt lat="46.45648" lon="4.71747">
        <ele>465.4</ele>
      </trkpt>
      <trkpt lat="46.45641" lon="4.71748">
        <ele>465.3</ele>
      </trkpt>
      <trkpt lat="46.4563" lon="4.7175">
        <ele>464.4</ele>
      </trkpt>
      <trkpt lat="46.45618" lon="4.71753">
        <ele>463.1</ele>
      </trkpt>
      <trkpt lat="46.45604" lon="4.7176">
        <ele>462.3</ele>
      </trkpt>
      <trkpt lat="46.45593" lon="4.71767">
        <ele>462</ele>
      </trkpt>
      <trkpt lat="46.45584" lon="4.71777">
        <ele>461.1</ele>
      </trkpt>
      <trkpt lat="46.45575" lon="4.71789">
        <ele>460.4</ele>
      </trkpt>
      <trkpt lat="46.45565" lon="4.71806">
        <ele>459.3</ele>
      </trkpt>
      <trkpt lat="46.45557" lon="4.71824">
        <ele>458.5</ele>
      </trkpt>
      <trkpt lat="46.45549" lon="4.7181">
        <ele>460.6</ele>
      </trkpt>
      <trkpt lat="46.45506" lon="4.71745">
        <ele>470.6</ele>
      </trkpt>
      <trkpt lat="46.45479" lon="4.71706">
        <ele>474.7</ele>
      </trkpt>
      <trkpt lat="46.45462" lon="4.71681">
        <ele>476.6</ele>
      </trkpt>
      <trkpt lat="46.45447" lon="4.71659">
        <ele>478.1</ele>
      </trkpt>
      <trkpt lat="46.45413" lon="4.7161">
        <ele>480.2</ele>
      </trkpt>
      <trkpt lat="46.45399" lon="4.71588">
        <ele>481.5</ele>
      </trkpt>
      <trkpt lat="46.45393" lon="4.71574">
        <ele>481.4</ele>
      </trkpt>
      <trkpt lat="46.45383" lon="4.71577">
        <ele>481.4</ele>
      </trkpt>
      <trkpt lat="46.45377" lon="4.71578">
        <ele>481.5</ele>
      </trkpt>
      <trkpt lat="46.45365" lon="4.7158">
        <ele>481.5</ele>
      </trkpt>
      <trkpt lat="46.45353" lon="4.71582">
        <ele>481.7</ele>
      </trkpt>
      <trkpt lat="46.45344" lon="4.71584">
        <ele>482</ele>
      </trkpt>
      <trkpt lat="46.45333" lon="4.71587">
        <ele>482.1</ele>
      </trkpt>
      <trkpt lat="46.45317" lon="4.71591">
        <ele>481.6</ele>
      </trkpt>
      <trkpt lat="46.45302" lon="4.71594">
        <ele>481.8</ele>
      </trkpt>
      <trkpt lat="46.45296" lon="4.71596">
        <ele>482.5</ele>
      </trkpt>
      <trkpt lat="46.45292" lon="4.71599">
        <ele>483.4</ele>
      </trkpt>
      <trkpt lat="46.45289" lon="4.71602">
        <ele>484</ele>
      </trkpt>
      <trkpt lat="46.45284" lon="4.71603">
        <ele>484.6</ele>
      </trkpt>
      <trkpt lat="46.45269" lon="4.716">
        <ele>484.7</ele>
      </trkpt>
      <trkpt lat="46.45257" lon="4.71597">
        <ele>484.3</ele>
      </trkpt>
      <trkpt lat="46.4525" lon="4.71595">
        <ele>484.2</ele>
      </trkpt>
      <trkpt lat="46.45217" lon="4.71579">
        <ele>485.8</ele>
      </trkpt>
      <trkpt lat="46.45192" lon="4.71566">
        <ele>485.3</ele>
      </trkpt>
      <trkpt lat="46.45179" lon="4.71556">
        <ele>485.7</ele>
      </trkpt>
      <trkpt lat="46.45175" lon="4.71554">
        <ele>485.7</ele>
      </trkpt>
      <trkpt lat="46.45169" lon="4.71554">
        <ele>486.2</ele>
      </trkpt>
      <trkpt lat="46.45163" lon="4.71554">
        <ele>486.7</ele>
      </trkpt>
      <trkpt lat="46.45152" lon="4.71549">
        <ele>485.7</ele>
      </trkpt>
      <trkpt lat="46.45129" lon="4.71538">
        <ele>486</ele>
      </trkpt>
      <trkpt lat="46.45113" lon="4.71531">
        <ele>488.5</ele>
      </trkpt>
      <trkpt lat="46.45093" lon="4.71526">
        <ele>491.9</ele>
      </trkpt>
      <trkpt lat="46.45073" lon="4.71521">
        <ele>494.2</ele>
      </trkpt>
      <trkpt lat="46.45055" lon="4.71512">
        <ele>497.7</ele>
      </trkpt>
      <trkpt lat="46.4505" lon="4.71509">
        <ele>498.5</ele>
      </trkpt>
      <trkpt lat="46.45036" lon="4.715">
        <ele>501.5</ele>
      </trkpt>
      <trkpt lat="46.45019" lon="4.71486">
        <ele>502.5</ele>
      </trkpt>
      <trkpt lat="46.45" lon="4.71475">
        <ele>505.9</ele>
      </trkpt>
      <trkpt lat="46.44988" lon="4.71469">
        <ele>505.6</ele>
      </trkpt>
      <trkpt lat="46.44978" lon="4.71467">
        <ele>506.4</ele>
      </trkpt>
      <trkpt lat="46.4497" lon="4.71467">
        <ele>507.2</ele>
      </trkpt>
      <trkpt lat="46.44961" lon="4.71467">
        <ele>507.3</ele>
      </trkpt>
      <trkpt lat="46.44948" lon="4.71468">
        <ele>507.6</ele>
      </trkpt>
      <trkpt lat="46.44937" lon="4.71471">
        <ele>507.3</ele>
      </trkpt>
      <trkpt lat="46.44928" lon="4.71472">
        <ele>506.8</ele>
      </trkpt>
      <trkpt lat="46.4492" lon="4.71473">
        <ele>506.2</ele>
      </trkpt>
      <trkpt lat="46.44912" lon="4.7147">
        <ele>505.3</ele>
      </trkpt>
      <trkpt lat="46.44904" lon="4.71464">
        <ele>504.3</ele>
      </trkpt>
      <trkpt lat="46.44895" lon="4.71456">
        <ele>503.3</ele>
      </trkpt>
      <trkpt lat="46.44883" lon="4.7144">
        <ele>502</ele>
      </trkpt>
      <trkpt lat="46.44871" lon="4.71424">
        <ele>500.8</ele>
      </trkpt>
      <trkpt lat="46.44866" lon="4.71421">
        <ele>500.8</ele>
      </trkpt>
      <trkpt lat="46.44859" lon="4.7142">
        <ele>500.8</ele>
      </trkpt>
      <trkpt lat="46.44851" lon="4.71419">
        <ele>500.2</ele>
      </trkpt>
      <trkpt lat="46.44822" lon="4.71419">
        <ele>498.5</ele>
      </trkpt>
      <trkpt lat="46.44798" lon="4.71418">
        <ele>497.3</ele>
      </trkpt>
      <trkpt lat="46.44777" lon="4.71413">
        <ele>496.1</ele>
      </trkpt>
      <trkpt lat="46.44769" lon="4.71412">
        <ele>495.8</ele>
      </trkpt>
      <trkpt lat="46.44761" lon="4.71412">
        <ele>495.5</ele>
      </trkpt>
      <trkpt lat="46.44753" lon="4.71411">
        <ele>495.1</ele>
      </trkpt>
      <trkpt lat="46.44745" lon="4.71407">
        <ele>494.8</ele>
      </trkpt>
      <trkpt lat="46.44734" lon="4.71398">
        <ele>494.6</ele>
      </trkpt>
      <trkpt lat="46.4472" lon="4.71382">
        <ele>494.6</ele>
      </trkpt>
      <trkpt lat="46.44707" lon="4.7137">
        <ele>495.1</ele>
      </trkpt>
      <trkpt lat="46.44701" lon="4.71369">
        <ele>496</ele>
      </trkpt>
      <trkpt lat="46.44697" lon="4.71371">
        <ele>496.7</ele>
      </trkpt>
      <trkpt lat="46.44689" lon="4.71377">
        <ele>497.9</ele>
      </trkpt>
      <trkpt lat="46.44676" lon="4.71387">
        <ele>499.3</ele>
      </trkpt>
      <trkpt lat="46.44667" lon="4.7139">
        <ele>499.6</ele>
      </trkpt>
      <trkpt lat="46.44665" lon="4.71391">
        <ele>499.6</ele>
      </trkpt>
      <trkpt lat="46.44658" lon="4.71393">
        <ele>499.3</ele>
      </trkpt>
      <trkpt lat="46.44643" lon="4.71395">
        <ele>499.3</ele>
      </trkpt>
      <trkpt lat="46.44633" lon="4.71396">
        <ele>499.4</ele>
      </trkpt>
      <trkpt lat="46.44624" lon="4.71399">
        <ele>499</ele>
      </trkpt>
      <trkpt lat="46.44615" lon="4.714">
        <ele>499</ele>
      </trkpt>
      <trkpt lat="46.44607" lon="4.71402">
        <ele>498.8</ele>
      </trkpt>
      <trkpt lat="46.44603" lon="4.71405">
        <ele>498.3</ele>
      </trkpt>
      <trkpt lat="46.44599" lon="4.71406">
        <ele>498</ele>
      </trkpt>
      <trkpt lat="46.44595" lon="4.71405">
        <ele>498.5</ele>
      </trkpt>
      <trkpt lat="46.44589" lon="4.71403">
        <ele>499.2</ele>
      </trkpt>
      <trkpt lat="46.44569" lon="4.71397">
        <ele>501</ele>
      </trkpt>
      <trkpt lat="46.44561" lon="4.71395">
        <ele>501.2</ele>
      </trkpt>
      <trkpt lat="46.44554" lon="4.71395">
        <ele>501.1</ele>
      </trkpt>
      <trkpt lat="46.44545" lon="4.71406">
        <ele>499.9</ele>
      </trkpt>
      <trkpt lat="46.4453" lon="4.71448">
        <ele>498.7</ele>
      </trkpt>
      <trkpt lat="46.4452" lon="4.7148">
        <ele>497.7</ele>
      </trkpt>
      <trkpt lat="46.44519" lon="4.71485">
        <ele>497.5</ele>
      </trkpt>
      <trkpt lat="46.44518" lon="4.71494">
        <ele>497.2</ele>
      </trkpt>
      <trkpt lat="46.44519" lon="4.71502">
        <ele>496.8</ele>
      </trkpt>
      <trkpt lat="46.44522" lon="4.71514">
        <ele>495.9</ele>
      </trkpt>
      <trkpt lat="46.44527" lon="4.71517">
        <ele>495.7</ele>
      </trkpt>
      <trkpt lat="46.4453" lon="4.71521">
        <ele>495.5</ele>
      </trkpt>
      <trkpt lat="46.44532" lon="4.71525">
        <ele>495.2</ele>
      </trkpt>
      <trkpt lat="46.44533" lon="4.71532">
        <ele>494.6</ele>
      </trkpt>
      <trkpt lat="46.44533" lon="4.71539">
        <ele>494.1</ele>
      </trkpt>
      <trkpt lat="46.44534" lon="4.71544">
        <ele>493.7</ele>
      </trkpt>
      <trkpt lat="46.4453" lon="4.71542">
        <ele>493.9</ele>
      </trkpt>
      <trkpt lat="46.44527" lon="4.7154">
        <ele>494.1</ele>
      </trkpt>
      <trkpt lat="46.44517" lon="4.71533">
        <ele>494.2</ele>
      </trkpt>
      <trkpt lat="46.44505" lon="4.71529">
        <ele>494</ele>
      </trkpt>
      <trkpt lat="46.44496" lon="4.71527">
        <ele>493.6</ele>
      </trkpt>
      <trkpt lat="46.44491" lon="4.71525">
        <ele>493.3</ele>
      </trkpt>
      <trkpt lat="46.44483" lon="4.71519">
        <ele>493</ele>
      </trkpt>
      <trkpt lat="46.44472" lon="4.7151">
        <ele>493</ele>
      </trkpt>
      <trkpt lat="46.44457" lon="4.71491">
        <ele>492.5</ele>
      </trkpt>
      <trkpt lat="46.44432" lon="4.7146">
        <ele>491.1</ele>
      </trkpt>
      <trkpt lat="46.44412" lon="4.71441">
        <ele>489.9</ele>
      </trkpt>
      <trkpt lat="46.44398" lon="4.71431">
        <ele>489.2</ele>
      </trkpt>
      <trkpt lat="46.44392" lon="4.71429">
        <ele>488.8</ele>
      </trkpt>
      <trkpt lat="46.44389" lon="4.71429">
        <ele>488.6</ele>
      </trkpt>
      <trkpt lat="46.44384" lon="4.71429">
        <ele>488.6</ele>
      </trkpt>
      <trkpt lat="46.44378" lon="4.71431">
        <ele>488.7</ele>
      </trkpt>
      <trkpt lat="46.44371" lon="4.71434">
        <ele>488.8</ele>
      </trkpt>
      <trkpt lat="46.44361" lon="4.71411">
        <ele>488.8</ele>
      </trkpt>
      <trkpt lat="46.44356" lon="4.71399">
        <ele>488.9</ele>
      </trkpt>
      <trkpt lat="46.44348" lon="4.714">
        <ele>489.6</ele>
      </trkpt>
      <trkpt lat="46.44344" lon="4.71401">
        <ele>490.1</ele>
      </trkpt>
      <trkpt lat="46.44341" lon="4.71396">
        <ele>490.3</ele>
      </trkpt>
      <trkpt lat="46.44336" lon="4.71387">
        <ele>490.6</ele>
      </trkpt>
      <trkpt lat="46.44328" lon="4.71375">
        <ele>491.2</ele>
      </trkpt>
      <trkpt lat="46.44319" lon="4.71363">
        <ele>492.8</ele>
      </trkpt>
      <trkpt lat="46.44305" lon="4.71358">
        <ele>495.5</ele>
      </trkpt>
      <trkpt lat="46.44293" lon="4.71354">
        <ele>497.7</ele>
      </trkpt>
      <trkpt lat="46.44285" lon="4.71351">
        <ele>499.3</ele>
      </trkpt>
      <trkpt lat="46.44277" lon="4.71348">
        <ele>501.2</ele>
      </trkpt>
      <trkpt lat="46.44263" lon="4.71344">
        <ele>504</ele>
      </trkpt>
      <trkpt lat="46.44251" lon="4.71338">
        <ele>506.7</ele>
      </trkpt>
      <trkpt lat="46.44244" lon="4.71334">
        <ele>508.3</ele>
      </trkpt>
      <trkpt lat="46.44235" lon="4.71324">
        <ele>509.2</ele>
      </trkpt>
      <trkpt lat="46.44224" lon="4.71317">
        <ele>510.9</ele>
      </trkpt>
      <trkpt lat="46.4421" lon="4.7131">
        <ele>513.6</ele>
      </trkpt>
      <trkpt lat="46.44198" lon="4.71302">
        <ele>515.8</ele>
      </trkpt>
      <trkpt lat="46.44185" lon="4.71291">
        <ele>518.6</ele>
      </trkpt>
      <trkpt lat="46.44174" lon="4.71278">
        <ele>520.3</ele>
      </trkpt>
      <trkpt lat="46.44167" lon="4.71266">
        <ele>520.3</ele>
      </trkpt>
      <trkpt lat="46.44161" lon="4.71257">
        <ele>520.3</ele>
      </trkpt>
      <trkpt lat="46.44152" lon="4.71247">
        <ele>520.7</ele>
      </trkpt>
      <trkpt lat="46.44145" lon="4.71242">
        <ele>521.4</ele>
      </trkpt>
      <trkpt lat="46.44129" lon="4.71236">
        <ele>523.5</ele>
      </trkpt>
      <trkpt lat="46.44105" lon="4.71232">
        <ele>526.2</ele>
      </trkpt>
      <trkpt lat="46.44089" lon="4.71231">
        <ele>527.4</ele>
      </trkpt>
      <trkpt lat="46.44075" lon="4.71231">
        <ele>527.8</ele>
      </trkpt>
      <trkpt lat="46.44042" lon="4.71238">
        <ele>527.9</ele>
      </trkpt>
      <trkpt lat="46.44034" lon="4.7124">
        <ele>527.6</ele>
      </trkpt>
      <trkpt lat="46.43996" lon="4.71257">
        <ele>528.2</ele>
      </trkpt>
      <trkpt lat="46.43988" lon="4.71262">
        <ele>529.3</ele>
      </trkpt>
      <trkpt lat="46.43975" lon="4.71266">
        <ele>530.4</ele>
      </trkpt>
      <trkpt lat="46.43955" lon="4.71272">
        <ele>533.1</ele>
      </trkpt>
      <trkpt lat="46.43926" lon="4.7128">
        <ele>535.9</ele>
      </trkpt>
      <trkpt lat="46.43918" lon="4.71283">
        <ele>536.4</ele>
      </trkpt>
      <trkpt lat="46.43909" lon="4.71288">
        <ele>536.2</ele>
      </trkpt>
      <trkpt lat="46.4388" lon="4.71302">
        <ele>534.9</ele>
      </trkpt>
      <trkpt lat="46.43852" lon="4.71316">
        <ele>534.1</ele>
      </trkpt>
      <trkpt lat="46.43827" lon="4.71324">
        <ele>533.4</ele>
      </trkpt>
      <trkpt lat="46.43817" lon="4.71323">
        <ele>532.3</ele>
      </trkpt>
      <trkpt lat="46.43806" lon="4.71319">
        <ele>531</ele>
      </trkpt>
      <trkpt lat="46.43795" lon="4.71315">
        <ele>529.2</ele>
      </trkpt>
      <trkpt lat="46.43782" lon="4.71314">
        <ele>527.2</ele>
      </trkpt>
      <trkpt lat="46.43768" lon="4.71316">
        <ele>525.6</ele>
      </trkpt>
      <trkpt lat="46.43759" lon="4.71319">
        <ele>524.6</ele>
      </trkpt>
      <trkpt lat="46.43747" lon="4.71322">
        <ele>523.1</ele>
      </trkpt>
      <trkpt lat="46.43724" lon="4.71331">
        <ele>519.3</ele>
      </trkpt>
      <trkpt lat="46.4372" lon="4.71334">
        <ele>518.7</ele>
      </trkpt>
      <trkpt lat="46.43708" lon="4.71342">
        <ele>517.2</ele>
      </trkpt>
      <trkpt lat="46.43701" lon="4.7135">
        <ele>516</ele>
      </trkpt>
      <trkpt lat="46.43695" lon="4.71355">
        <ele>515.1</ele>
      </trkpt>
      <trkpt lat="46.43689" lon="4.71352">
        <ele>514.3</ele>
      </trkpt>
      <trkpt lat="46.43679" lon="4.71355">
        <ele>513.2</ele>
      </trkpt>
      <trkpt lat="46.43657" lon="4.71366">
        <ele>511.4</ele>
      </trkpt>
      <trkpt lat="46.43644" lon="4.71372">
        <ele>510.7</ele>
      </trkpt>
      <trkpt lat="46.43638" lon="4.71379">
        <ele>510.6</ele>
      </trkpt>
      <trkpt lat="46.43635" lon="4.71381">
        <ele>510.6</ele>
      </trkpt>
      <trkpt lat="46.43632" lon="4.71383">
        <ele>510.7</ele>
      </trkpt>
      <trkpt lat="46.43628" lon="4.71385">
        <ele>510.7</ele>
      </trkpt>
      <trkpt lat="46.43615" lon="4.71392">
        <ele>511.3</ele>
      </trkpt>
      <trkpt lat="46.43603" lon="4.71401">
        <ele>512.4</ele>
      </trkpt>
      <trkpt lat="46.43591" lon="4.7141">
        <ele>513.9</ele>
      </trkpt>
      <trkpt lat="46.43579" lon="4.71419">
        <ele>515.2</ele>
      </trkpt>
      <trkpt lat="46.43577" lon="4.7142">
        <ele>515.3</ele>
      </trkpt>
      <trkpt lat="46.43565" lon="4.71426">
        <ele>516</ele>
      </trkpt>
      <trkpt lat="46.43555" lon="4.71433">
        <ele>516.8</ele>
      </trkpt>
      <trkpt lat="46.43544" lon="4.7144">
        <ele>517.6</ele>
      </trkpt>
      <trkpt lat="46.43525" lon="4.71457">
        <ele>518.5</ele>
      </trkpt>
      <trkpt lat="46.43511" lon="4.71472">
        <ele>519</ele>
      </trkpt>
      <trkpt lat="46.43504" lon="4.71477">
        <ele>519</ele>
      </trkpt>
      <trkpt lat="46.43495" lon="4.71484">
        <ele>519.1</ele>
      </trkpt>
      <trkpt lat="46.43487" lon="4.71492">
        <ele>519.1</ele>
      </trkpt>
      <trkpt lat="46.43484" lon="4.71494">
        <ele>519.1</ele>
      </trkpt>
      <trkpt lat="46.43476" lon="4.71498">
        <ele>519.1</ele>
      </trkpt>
      <trkpt lat="46.43464" lon="4.71504">
        <ele>518.8</ele>
      </trkpt>
      <trkpt lat="46.43448" lon="4.71517">
        <ele>518.4</ele>
      </trkpt>
      <trkpt lat="46.43428" lon="4.71538">
        <ele>517</ele>
      </trkpt>
      <trkpt lat="46.43421" lon="4.71545">
        <ele>516.5</ele>
      </trkpt>
      <trkpt lat="46.43418" lon="4.71548">
        <ele>516.3</ele>
      </trkpt>
      <trkpt lat="46.43412" lon="4.71554">
        <ele>515.9</ele>
      </trkpt>
      <trkpt lat="46.43397" lon="4.71568">
        <ele>515.3</ele>
      </trkpt>
      <trkpt lat="46.43383" lon="4.71581">
        <ele>515</ele>
      </trkpt>
      <trkpt lat="46.43372" lon="4.71589">
        <ele>514.9</ele>
      </trkpt>
      <trkpt lat="46.43371" lon="4.7159">
        <ele>514.8</ele>
      </trkpt>
      <trkpt lat="46.43364" lon="4.71595">
        <ele>514.6</ele>
      </trkpt>
      <trkpt lat="46.43337" lon="4.71615">
        <ele>514.8</ele>
      </trkpt>
      <trkpt lat="46.43313" lon="4.71635">
        <ele>514.2</ele>
      </trkpt>
      <trkpt lat="46.43307" lon="4.71639">
        <ele>514</ele>
      </trkpt>
      <trkpt lat="46.43296" lon="4.7165">
        <ele>513.6</ele>
      </trkpt>
      <trkpt lat="46.43294" lon="4.71652">
        <ele>513.5</ele>
      </trkpt>
      <trkpt lat="46.43275" lon="4.71669">
        <ele>513.1</ele>
      </trkpt>
      <trkpt lat="46.43266" lon="4.71676">
        <ele>513.4</ele>
      </trkpt>
      <trkpt lat="46.4325" lon="4.71687">
        <ele>514</ele>
      </trkpt>
      <trkpt lat="46.43233" lon="4.71692">
        <ele>514.6</ele>
      </trkpt>
      <trkpt lat="46.43217" lon="4.71698">
        <ele>515.3</ele>
      </trkpt>
      <trkpt lat="46.43206" lon="4.71709">
        <ele>516.1</ele>
      </trkpt>
      <trkpt lat="46.43201" lon="4.71702">
        <ele>516</ele>
      </trkpt>
      <trkpt lat="46.43189" lon="4.71695">
        <ele>516.2</ele>
      </trkpt>
      <trkpt lat="46.43183" lon="4.71693">
        <ele>516.3</ele>
      </trkpt>
      <trkpt lat="46.43178" lon="4.71691">
        <ele>516.4</ele>
      </trkpt>
      <trkpt lat="46.43174" lon="4.71687">
        <ele>516.3</ele>
      </trkpt>
      <trkpt lat="46.43171" lon="4.71682">
        <ele>516</ele>
      </trkpt>
      <trkpt lat="46.43165" lon="4.71676">
        <ele>515.8</ele>
      </trkpt>
      <trkpt lat="46.43159" lon="4.71672">
        <ele>515.7</ele>
      </trkpt>
      <trkpt lat="46.43152" lon="4.71668">
        <ele>515.6</ele>
      </trkpt>
      <trkpt lat="46.43146" lon="4.71665">
        <ele>515.6</ele>
      </trkpt>
      <trkpt lat="46.43138" lon="4.71664">
        <ele>515.7</ele>
      </trkpt>
      <trkpt lat="46.4313" lon="4.71663">
        <ele>515.9</ele>
      </trkpt>
      <trkpt lat="46.43114" lon="4.71662">
        <ele>516.4</ele>
      </trkpt>
      <trkpt lat="46.43113" lon="4.71662">
        <ele>516.4</ele>
      </trkpt>
      <trkpt lat="46.43104" lon="4.71661">
        <ele>516.7</ele>
      </trkpt>
      <trkpt lat="46.43093" lon="4.71658">
        <ele>516.9</ele>
      </trkpt>
      <trkpt lat="46.4308" lon="4.71655">
        <ele>517.3</ele>
      </trkpt>
      <trkpt lat="46.4307" lon="4.71652">
        <ele>517.4</ele>
      </trkpt>
      <trkpt lat="46.43064" lon="4.7165">
        <ele>517.5</ele>
      </trkpt>
      <trkpt lat="46.43059" lon="4.71649">
        <ele>517.6</ele>
      </trkpt>
      <trkpt lat="46.43047" lon="4.71646">
        <ele>517.5</ele>
      </trkpt>
      <trkpt lat="46.43037" lon="4.71644">
        <ele>517.4</ele>
      </trkpt>
      <trkpt lat="46.43025" lon="4.71643">
        <ele>517.4</ele>
      </trkpt>
      <trkpt lat="46.43013" lon="4.71643">
        <ele>517.8</ele>
      </trkpt>
      <trkpt lat="46.43002" lon="4.71643">
        <ele>518.1</ele>
      </trkpt>
      <trkpt lat="46.42993" lon="4.71643">
        <ele>518.6</ele>
      </trkpt>
      <trkpt lat="46.42987" lon="4.71639">
        <ele>518.9</ele>
      </trkpt>
      <trkpt lat="46.42971" lon="4.71625">
        <ele>519.6</ele>
      </trkpt>
      <trkpt lat="46.42955" lon="4.71604">
        <ele>520.3</ele>
      </trkpt>
      <trkpt lat="46.42929" lon="4.71597">
        <ele>522.1</ele>
      </trkpt>
      <trkpt lat="46.42904" lon="4.71597">
        <ele>524.1</ele>
      </trkpt>
      <trkpt lat="46.42907" lon="4.71602">
        <ele>524</ele>
      </trkpt>
      <trkpt lat="46.42908" lon="4.71615">
        <ele>523.9</ele>
      </trkpt>
      <trkpt lat="46.42906" lon="4.71628">
        <ele>524.2</ele>
      </trkpt>
      <trkpt lat="46.42903" lon="4.71636">
        <ele>524.5</ele>
      </trkpt>
      <trkpt lat="46.429" lon="4.71645">
        <ele>524.9</ele>
      </trkpt>
      <trkpt lat="46.42892" lon="4.71659">
        <ele>525.7</ele>
      </trkpt>
      <trkpt lat="46.42886" lon="4.71669">
        <ele>526.4</ele>
      </trkpt>
      <trkpt lat="46.42878" lon="4.71683">
        <ele>526.8</ele>
      </trkpt>
      <trkpt lat="46.42871" lon="4.71698">
        <ele>526.7</ele>
      </trkpt>
      <trkpt lat="46.42865" lon="4.71715">
        <ele>526.2</ele>
      </trkpt>
      <trkpt lat="46.4286" lon="4.71737">
        <ele>525.1</ele>
      </trkpt>
      <trkpt lat="46.42859" lon="4.71748">
        <ele>524.4</ele>
      </trkpt>
      <trkpt lat="46.42857" lon="4.71767">
        <ele>522.6</ele>
      </trkpt>
      <trkpt lat="46.42855" lon="4.71782">
        <ele>521.2</ele>
      </trkpt>
      <trkpt lat="46.42852" lon="4.71797">
        <ele>519.6</ele>
      </trkpt>
      <trkpt lat="46.42849" lon="4.71812">
        <ele>518.3</ele>
      </trkpt>
      <trkpt lat="46.42846" lon="4.71827">
        <ele>517.2</ele>
      </trkpt>
      <trkpt lat="46.42844" lon="4.71838">
        <ele>516.3</ele>
      </trkpt>
      <trkpt lat="46.42842" lon="4.71851">
        <ele>515.1</ele>
      </trkpt>
      <trkpt lat="46.4284" lon="4.71859">
        <ele>514.5</ele>
      </trkpt>
      <trkpt lat="46.42839" lon="4.71863">
        <ele>514</ele>
      </trkpt>
      <trkpt lat="46.42837" lon="4.71868">
        <ele>513.2</ele>
      </trkpt>
      <trkpt lat="46.42835" lon="4.71874">
        <ele>512.3</ele>
      </trkpt>
      <trkpt lat="46.42831" lon="4.71889">
        <ele>510.1</ele>
      </trkpt>
      <trkpt lat="46.42826" lon="4.71901">
        <ele>508.9</ele>
      </trkpt>
      <trkpt lat="46.42823" lon="4.71911">
        <ele>507.6</ele>
      </trkpt>
      <trkpt lat="46.42821" lon="4.71922">
        <ele>506.1</ele>
      </trkpt>
      <trkpt lat="46.4282" lon="4.71935">
        <ele>504.6</ele>
      </trkpt>
      <trkpt lat="46.42818" lon="4.71945">
        <ele>503.2</ele>
      </trkpt>
      <trkpt lat="46.42816" lon="4.71954">
        <ele>502.2</ele>
      </trkpt>
      <trkpt lat="46.42815" lon="4.7196">
        <ele>501.8</ele>
      </trkpt>
      <trkpt lat="46.42815" lon="4.71961">
        <ele>501.7</ele>
      </trkpt>
      <trkpt lat="46.42814" lon="4.71973">
        <ele>500.8</ele>
      </trkpt>
      <trkpt lat="46.42813" lon="4.71981">
        <ele>500.8</ele>
      </trkpt>
      <trkpt lat="46.42809" lon="4.71988">
        <ele>500.3</ele>
      </trkpt>
      <trkpt lat="46.42806" lon="4.71994">
        <ele>499.8</ele>
      </trkpt>
      <trkpt lat="46.42804" lon="4.71996">
        <ele>499.5</ele>
      </trkpt>
      <trkpt lat="46.42799" lon="4.72005">
        <ele>498.3</ele>
      </trkpt>
      <trkpt lat="46.42794" lon="4.72016">
        <ele>496.6</ele>
      </trkpt>
      <trkpt lat="46.42791" lon="4.72028">
        <ele>495.2</ele>
      </trkpt>
      <trkpt lat="46.42787" lon="4.72046">
        <ele>493.1</ele>
      </trkpt>
      <trkpt lat="46.42786" lon="4.72066">
        <ele>490.6</ele>
      </trkpt>
      <trkpt lat="46.42784" lon="4.72087">
        <ele>487.3</ele>
      </trkpt>
      <trkpt lat="46.42782" lon="4.72098">
        <ele>485.8</ele>
      </trkpt>
      <trkpt lat="46.42782" lon="4.72103">
        <ele>485.2</ele>
      </trkpt>
      <trkpt lat="46.42784" lon="4.72112">
        <ele>485</ele>
      </trkpt>
      <trkpt lat="46.42785" lon="4.72122">
        <ele>484.4</ele>
      </trkpt>
      <trkpt lat="46.42784" lon="4.72135">
        <ele>483.4</ele>
      </trkpt>
      <trkpt lat="46.42783" lon="4.72148">
        <ele>482</ele>
      </trkpt>
      <trkpt lat="46.42782" lon="4.72154">
        <ele>481.4</ele>
      </trkpt>
      <trkpt lat="46.42778" lon="4.7218">
        <ele>478.2</ele>
      </trkpt>
      <trkpt lat="46.42773" lon="4.72235">
        <ele>472.5</ele>
      </trkpt>
      <trkpt lat="46.42769" lon="4.72285">
        <ele>467.4</ele>
      </trkpt>
      <trkpt lat="46.42767" lon="4.72308">
        <ele>464.5</ele>
      </trkpt>
      <trkpt lat="46.42765" lon="4.72333">
        <ele>460.8</ele>
      </trkpt>
      <trkpt lat="46.42763" lon="4.72352">
        <ele>458.5</ele>
      </trkpt>
      <trkpt lat="46.42761" lon="4.72367">
        <ele>456.3</ele>
      </trkpt>
      <trkpt lat="46.42759" lon="4.72378">
        <ele>454</ele>
      </trkpt>
      <trkpt lat="46.42758" lon="4.72393">
        <ele>451.3</ele>
      </trkpt>
      <trkpt lat="46.42757" lon="4.72406">
        <ele>448.9</ele>
      </trkpt>
      <trkpt lat="46.42756" lon="4.72421">
        <ele>446.1</ele>
      </trkpt>
      <trkpt lat="46.42755" lon="4.72439">
        <ele>443.5</ele>
      </trkpt>
      <trkpt lat="46.42754" lon="4.72453">
        <ele>441.3</ele>
      </trkpt>
      <trkpt lat="46.42752" lon="4.72466">
        <ele>439.2</ele>
      </trkpt>
      <trkpt lat="46.42751" lon="4.72477">
        <ele>437.6</ele>
      </trkpt>
      <trkpt lat="46.42749" lon="4.7249">
        <ele>436.1</ele>
      </trkpt>
      <trkpt lat="46.42748" lon="4.72498">
        <ele>435.2</ele>
      </trkpt>
      <trkpt lat="46.4275" lon="4.72506">
        <ele>434.8</ele>
      </trkpt>
      <trkpt lat="46.42752" lon="4.72512">
        <ele>434.8</ele>
      </trkpt>
      <trkpt lat="46.42754" lon="4.72517">
        <ele>434.9</ele>
      </trkpt>
      <trkpt lat="46.42757" lon="4.72531">
        <ele>434.9</ele>
      </trkpt>
      <trkpt lat="46.42758" lon="4.72542">
        <ele>434.9</ele>
      </trkpt>
      <trkpt lat="46.42758" lon="4.72555">
        <ele>434.8</ele>
      </trkpt>
      <trkpt lat="46.4276" lon="4.72571">
        <ele>433.5</ele>
      </trkpt>
      <trkpt lat="46.42761" lon="4.72585">
        <ele>432.5</ele>
      </trkpt>
      <trkpt lat="46.42762" lon="4.72598">
        <ele>431.8</ele>
      </trkpt>
      <trkpt lat="46.42762" lon="4.72608">
        <ele>431.2</ele>
      </trkpt>
      <trkpt lat="46.42763" lon="4.72619">
        <ele>430.5</ele>
      </trkpt>
      <trkpt lat="46.42765" lon="4.72633">
        <ele>429.5</ele>
      </trkpt>
      <trkpt lat="46.42769" lon="4.72644">
        <ele>429.2</ele>
      </trkpt>
      <trkpt lat="46.42773" lon="4.72657">
        <ele>428.4</ele>
      </trkpt>
      <trkpt lat="46.42777" lon="4.72671">
        <ele>427.6</ele>
      </trkpt>
      <trkpt lat="46.42781" lon="4.72682">
        <ele>427.4</ele>
      </trkpt>
      <trkpt lat="46.42784" lon="4.72695">
        <ele>426.9</ele>
      </trkpt>
      <trkpt lat="46.42789" lon="4.72703">
        <ele>426.3</ele>
      </trkpt>
      <trkpt lat="46.42794" lon="4.72714">
        <ele>425.1</ele>
      </trkpt>
      <trkpt lat="46.42799" lon="4.72726">
        <ele>423.5</ele>
      </trkpt>
      <trkpt lat="46.42804" lon="4.72738">
        <ele>421.3</ele>
      </trkpt>
      <trkpt lat="46.42807" lon="4.7275">
        <ele>419.3</ele>
      </trkpt>
      <trkpt lat="46.42811" lon="4.72761">
        <ele>417.9</ele>
      </trkpt>
      <trkpt lat="46.42814" lon="4.72777">
        <ele>415.8</ele>
      </trkpt>
      <trkpt lat="46.42816" lon="4.72787">
        <ele>414.2</ele>
      </trkpt>
      <trkpt lat="46.42816" lon="4.72793">
        <ele>412.9</ele>
      </trkpt>
      <trkpt lat="46.42814" lon="4.72802">
        <ele>411.3</ele>
      </trkpt>
      <trkpt lat="46.4281" lon="4.72808">
        <ele>409.8</ele>
      </trkpt>
      <trkpt lat="46.42809" lon="4.72815">
        <ele>408.5</ele>
      </trkpt>
      <trkpt lat="46.42808" lon="4.72822">
        <ele>407.1</ele>
      </trkpt>
      <trkpt lat="46.42809" lon="4.7283">
        <ele>405.7</ele>
      </trkpt>
      <trkpt lat="46.42812" lon="4.72843">
        <ele>403.9</ele>
      </trkpt>
      <trkpt lat="46.42818" lon="4.72862">
        <ele>401.4</ele>
      </trkpt>
      <trkpt lat="46.42821" lon="4.72877">
        <ele>398.9</ele>
      </trkpt>
      <trkpt lat="46.42816" lon="4.72881">
        <ele>398.3</ele>
      </trkpt>
      <trkpt lat="46.42812" lon="4.72885">
        <ele>397.7</ele>
      </trkpt>
      <trkpt lat="46.42808" lon="4.72888">
        <ele>397.2</ele>
      </trkpt>
      <trkpt lat="46.42806" lon="4.72892">
        <ele>396.9</ele>
      </trkpt>
      <trkpt lat="46.42805" lon="4.72896">
        <ele>396.8</ele>
      </trkpt>
      <trkpt lat="46.42804" lon="4.729">
        <ele>396.7</ele>
      </trkpt>
      <trkpt lat="46.42804" lon="4.72903">
        <ele>396.6</ele>
      </trkpt>
      <trkpt lat="46.42805" lon="4.72907">
        <ele>396.4</ele>
      </trkpt>
      <trkpt lat="46.42805" lon="4.7291">
        <ele>396.2</ele>
      </trkpt>
      <trkpt lat="46.42808" lon="4.72914">
        <ele>396</ele>
      </trkpt>
      <trkpt lat="46.42811" lon="4.72916">
        <ele>395.7</ele>
      </trkpt>
      <trkpt lat="46.42815" lon="4.72919">
        <ele>395.6</ele>
      </trkpt>
      <trkpt lat="46.4282" lon="4.7292">
        <ele>395.4</ele>
      </trkpt>
      <trkpt lat="46.42826" lon="4.72923">
        <ele>395.3</ele>
      </trkpt>
      <trkpt lat="46.42832" lon="4.72927">
        <ele>395.2</ele>
      </trkpt>
      <trkpt lat="46.42839" lon="4.72933">
        <ele>395.3</ele>
      </trkpt>
      <trkpt lat="46.42843" lon="4.72938">
        <ele>395.4</ele>
      </trkpt>
      <trkpt lat="46.42853" lon="4.72942">
        <ele>394.7</ele>
      </trkpt>
      <trkpt lat="46.42863" lon="4.72947">
        <ele>394.4</ele>
      </trkpt>
      <trkpt lat="46.42873" lon="4.72952">
        <ele>393.8</ele>
      </trkpt>
      <trkpt lat="46.42883" lon="4.72958">
        <ele>393.7</ele>
      </trkpt>
      <trkpt lat="46.42891" lon="4.72966">
        <ele>393.9</ele>
      </trkpt>
      <trkpt lat="46.42899" lon="4.72973">
        <ele>393.2</ele>
      </trkpt>
      <trkpt lat="46.42908" lon="4.72984">
        <ele>393.3</ele>
      </trkpt>
      <trkpt lat="46.42915" lon="4.72993">
        <ele>393.8</ele>
      </trkpt>
      <trkpt lat="46.42918" lon="4.73001">
        <ele>394.3</ele>
      </trkpt>
      <trkpt lat="46.42921" lon="4.73008">
        <ele>393.2</ele>
      </trkpt>
      <trkpt lat="46.42922" lon="4.73016">
        <ele>392.6</ele>
      </trkpt>
      <trkpt lat="46.42923" lon="4.73024">
        <ele>392.5</ele>
      </trkpt>
      <trkpt lat="46.42924" lon="4.73037">
        <ele>392</ele>
      </trkpt>
      <trkpt lat="46.42925" lon="4.73048">
        <ele>391.4</ele>
      </trkpt>
      <trkpt lat="46.42926" lon="4.73059">
        <ele>390.8</ele>
      </trkpt>
      <trkpt lat="46.42927" lon="4.73072">
        <ele>390.1</ele>
      </trkpt>
      <trkpt lat="46.42928" lon="4.73082">
        <ele>389.4</ele>
      </trkpt>
      <trkpt lat="46.4293" lon="4.73096">
        <ele>389.4</ele>
      </trkpt>
      <trkpt lat="46.42933" lon="4.73111">
        <ele>389.5</ele>
      </trkpt>
      <trkpt lat="46.42936" lon="4.73127">
        <ele>388.2</ele>
      </trkpt>
      <trkpt lat="46.42939" lon="4.73137">
        <ele>387.7</ele>
      </trkpt>
      <trkpt lat="46.42941" lon="4.7315">
        <ele>387.8</ele>
      </trkpt>
      <trkpt lat="46.42942" lon="4.73158">
        <ele>388</ele>
      </trkpt>
      <trkpt lat="46.42942" lon="4.73166">
        <ele>388.4</ele>
      </trkpt>
      <trkpt lat="46.42942" lon="4.7317">
        <ele>388.5</ele>
      </trkpt>
      <trkpt lat="46.42941" lon="4.73175">
        <ele>388.6</ele>
      </trkpt>
      <trkpt lat="46.42939" lon="4.73181">
        <ele>388.7</ele>
      </trkpt>
      <trkpt lat="46.42936" lon="4.73188">
        <ele>389</ele>
      </trkpt>
      <trkpt lat="46.42931" lon="4.73198">
        <ele>389.1</ele>
      </trkpt>
      <trkpt lat="46.42926" lon="4.73204">
        <ele>388.9</ele>
      </trkpt>
      <trkpt lat="46.4292" lon="4.73209">
        <ele>388.7</ele>
      </trkpt>
      <trkpt lat="46.42914" lon="4.73212">
        <ele>388.5</ele>
      </trkpt>
      <trkpt lat="46.42907" lon="4.73214">
        <ele>388.2</ele>
      </trkpt>
      <trkpt lat="46.42899" lon="4.73218">
        <ele>387.7</ele>
      </trkpt>
      <trkpt lat="46.4289" lon="4.73221">
        <ele>387.2</ele>
      </trkpt>
      <trkpt lat="46.42879" lon="4.73226">
        <ele>385.3</ele>
      </trkpt>
      <trkpt lat="46.42871" lon="4.73229">
        <ele>383.9</ele>
      </trkpt>
      <trkpt lat="46.42861" lon="4.73233">
        <ele>382.4</ele>
      </trkpt>
      <trkpt lat="46.42854" lon="4.73236">
        <ele>381</ele>
      </trkpt>
      <trkpt lat="46.42846" lon="4.73237">
        <ele>379.8</ele>
      </trkpt>
      <trkpt lat="46.42839" lon="4.73239">
        <ele>378.7</ele>
      </trkpt>
      <trkpt lat="46.4283" lon="4.7324">
        <ele>377.9</ele>
      </trkpt>
      <trkpt lat="46.42824" lon="4.73244">
        <ele>377.2</ele>
      </trkpt>
      <trkpt lat="46.42816" lon="4.73249">
        <ele>376.5</ele>
      </trkpt>
      <trkpt lat="46.42811" lon="4.73254">
        <ele>376</ele>
      </trkpt>
      <trkpt lat="46.42804" lon="4.73262">
        <ele>375</ele>
      </trkpt>
      <trkpt lat="46.428" lon="4.73269">
        <ele>373.8</ele>
      </trkpt>
      <trkpt lat="46.42795" lon="4.73277">
        <ele>372.9</ele>
      </trkpt>
      <trkpt lat="46.42791" lon="4.73284">
        <ele>372.2</ele>
      </trkpt>
      <trkpt lat="46.42789" lon="4.7329">
        <ele>371.6</ele>
      </trkpt>
      <trkpt lat="46.42786" lon="4.73296">
        <ele>371</ele>
      </trkpt>
      <trkpt lat="46.42783" lon="4.73308">
        <ele>369.6</ele>
      </trkpt>
      <trkpt lat="46.42779" lon="4.73325">
        <ele>368.5</ele>
      </trkpt>
      <trkpt lat="46.42777" lon="4.73333">
        <ele>368.1</ele>
      </trkpt>
      <trkpt lat="46.42776" lon="4.73338">
        <ele>368.2</ele>
      </trkpt>
      <trkpt lat="46.4277" lon="4.73349">
        <ele>369.1</ele>
      </trkpt>
      <trkpt lat="46.42763" lon="4.73363">
        <ele>370.2</ele>
      </trkpt>
      <trkpt lat="46.4276" lon="4.73371">
        <ele>370.8</ele>
      </trkpt>
      <trkpt lat="46.42758" lon="4.73376">
        <ele>371.3</ele>
      </trkpt>
      <trkpt lat="46.42756" lon="4.73386">
        <ele>371.8</ele>
      </trkpt>
      <trkpt lat="46.42755" lon="4.73398">
        <ele>372.4</ele>
      </trkpt>
      <trkpt lat="46.42756" lon="4.73412">
        <ele>372.7</ele>
      </trkpt>
      <trkpt lat="46.42757" lon="4.7343">
        <ele>373.3</ele>
      </trkpt>
      <trkpt lat="46.42759" lon="4.73443">
        <ele>373.7</ele>
      </trkpt>
      <trkpt lat="46.42762" lon="4.73455">
        <ele>373.9</ele>
      </trkpt>
      <trkpt lat="46.42766" lon="4.73472">
        <ele>374.2</ele>
      </trkpt>
      <trkpt lat="46.42768" lon="4.73489">
        <ele>374.6</ele>
      </trkpt>
      <trkpt lat="46.4277" lon="4.73509">
        <ele>375.4</ele>
      </trkpt>
      <trkpt lat="46.42765" lon="4.73514">
        <ele>376.4</ele>
      </trkpt>
      <trkpt lat="46.42761" lon="4.73524">
        <ele>377.5</ele>
      </trkpt>
      <trkpt lat="46.42756" lon="4.73542">
        <ele>379.3</ele>
      </trkpt>
      <trkpt lat="46.42751" lon="4.73562">
        <ele>381.3</ele>
      </trkpt>
      <trkpt lat="46.42745" lon="4.73584">
        <ele>383.7</ele>
      </trkpt>
      <trkpt lat="46.42735" lon="4.73611">
        <ele>387.2</ele>
      </trkpt>
      <trkpt lat="46.42728" lon="4.73629">
        <ele>388.7</ele>
      </trkpt>
      <trkpt lat="46.42721" lon="4.73645">
        <ele>390.4</ele>
      </trkpt>
      <trkpt lat="46.42717" lon="4.73661">
        <ele>392.1</ele>
      </trkpt>
      <trkpt lat="46.42708" lon="4.73683">
        <ele>395.5</ele>
      </trkpt>
      <trkpt lat="46.42706" lon="4.73693">
        <ele>396.5</ele>
      </trkpt>
      <trkpt lat="46.42704" lon="4.73703">
        <ele>397.3</ele>
      </trkpt>
      <trkpt lat="46.42699" lon="4.73722">
        <ele>398.7</ele>
      </trkpt>
      <trkpt lat="46.42697" lon="4.73739">
        <ele>398.9</ele>
      </trkpt>
      <trkpt lat="46.42697" lon="4.73754">
        <ele>398.2</ele>
      </trkpt>
      <trkpt lat="46.42696" lon="4.73789">
        <ele>397.3</ele>
      </trkpt>
      <trkpt lat="46.42692" lon="4.7383">
        <ele>396.6</ele>
      </trkpt>
      <trkpt lat="46.4269" lon="4.73861">
        <ele>395.1</ele>
      </trkpt>
      <trkpt lat="46.42688" lon="4.7389">
        <ele>395.1</ele>
      </trkpt>
      <trkpt lat="46.42683" lon="4.73918">
        <ele>394.9</ele>
      </trkpt>
      <trkpt lat="46.4268" lon="4.73938">
        <ele>394.1</ele>
      </trkpt>
      <trkpt lat="46.4268" lon="4.73945">
        <ele>393.6</ele>
      </trkpt>
      <trkpt lat="46.42683" lon="4.73959">
        <ele>392.7</ele>
      </trkpt>
      <trkpt lat="46.42688" lon="4.73982">
        <ele>391.9</ele>
      </trkpt>
      <trkpt lat="46.42693" lon="4.73999">
        <ele>392</ele>
      </trkpt>
      <trkpt lat="46.42698" lon="4.74016">
        <ele>391.9</ele>
      </trkpt>
      <trkpt lat="46.42705" lon="4.74052">
        <ele>391.4</ele>
      </trkpt>
      <trkpt lat="46.42709" lon="4.74072">
        <ele>391.5</ele>
      </trkpt>
      <trkpt lat="46.42715" lon="4.74091">
        <ele>391.6</ele>
      </trkpt>
      <trkpt lat="46.42718" lon="4.74106">
        <ele>391.8</ele>
      </trkpt>
      <trkpt lat="46.42721" lon="4.74119">
        <ele>391.6</ele>
      </trkpt>
      <trkpt lat="46.42722" lon="4.74131">
        <ele>391.2</ele>
      </trkpt>
      <trkpt lat="46.42724" lon="4.74141">
        <ele>390.8</ele>
      </trkpt>
      <trkpt lat="46.42725" lon="4.74143">
        <ele>390.5</ele>
      </trkpt>
      <trkpt lat="46.4273" lon="4.74152">
        <ele>389.6</ele>
      </trkpt>
      <trkpt lat="46.42734" lon="4.74159">
        <ele>388.8</ele>
      </trkpt>
      <trkpt lat="46.42746" lon="4.74175">
        <ele>388</ele>
      </trkpt>
      <trkpt lat="46.4276" lon="4.74191">
        <ele>387.4</ele>
      </trkpt>
      <trkpt lat="46.42771" lon="4.74204">
        <ele>386.4</ele>
      </trkpt>
      <trkpt lat="46.42792" lon="4.74224">
        <ele>385.3</ele>
      </trkpt>
      <trkpt lat="46.42802" lon="4.74235">
        <ele>384.1</ele>
      </trkpt>
      <trkpt lat="46.42808" lon="4.7424">
        <ele>383.3</ele>
      </trkpt>
      <trkpt lat="46.42821" lon="4.74245">
        <ele>382.4</ele>
      </trkpt>
      <trkpt lat="46.42824" lon="4.74245">
        <ele>382.3</ele>
      </trkpt>
      <trkpt lat="46.42836" lon="4.74248">
        <ele>381.7</ele>
      </trkpt>
      <trkpt lat="46.42837" lon="4.74249">
        <ele>381.5</ele>
      </trkpt>
      <trkpt lat="46.42849" lon="4.74257">
        <ele>379.3</ele>
      </trkpt>
      <trkpt lat="46.4286" lon="4.74264">
        <ele>378.1</ele>
      </trkpt>
      <trkpt lat="46.42874" lon="4.74278">
        <ele>377</ele>
      </trkpt>
      <trkpt lat="46.42891" lon="4.74293">
        <ele>374.9</ele>
      </trkpt>
      <trkpt lat="46.42902" lon="4.74301">
        <ele>374.6</ele>
      </trkpt>
      <trkpt lat="46.42919" lon="4.74296">
        <ele>374.6</ele>
      </trkpt>
      <trkpt lat="46.42935" lon="4.74295">
        <ele>374.1</ele>
      </trkpt>
      <trkpt lat="46.42966" lon="4.743">
        <ele>374.2</ele>
      </trkpt>
      <trkpt lat="46.43001" lon="4.74302">
        <ele>372.6</ele>
      </trkpt>
      <trkpt lat="46.43025" lon="4.74306">
        <ele>372.3</ele>
      </trkpt>
      <trkpt lat="46.43048" lon="4.74313">
        <ele>372.2</ele>
      </trkpt>
      <trkpt lat="46.43068" lon="4.74318">
        <ele>370.9</ele>
      </trkpt>
      <trkpt lat="46.43087" lon="4.74326">
        <ele>369.8</ele>
      </trkpt>
      <trkpt lat="46.43116" lon="4.74342">
        <ele>369.3</ele>
      </trkpt>
      <trkpt lat="46.43145" lon="4.74355">
        <ele>367.8</ele>
      </trkpt>
      <trkpt lat="46.43171" lon="4.74371">
        <ele>366.7</ele>
      </trkpt>
      <trkpt lat="46.43188" lon="4.74385">
        <ele>366.4</ele>
      </trkpt>
      <trkpt lat="46.432" lon="4.74392">
        <ele>365.7</ele>
      </trkpt>
      <trkpt lat="46.43211" lon="4.74398">
        <ele>364.5</ele>
      </trkpt>
      <trkpt lat="46.43221" lon="4.74404">
        <ele>363.5</ele>
      </trkpt>
      <trkpt lat="46.43249" lon="4.74426">
        <ele>360</ele>
      </trkpt>
      <trkpt lat="46.43263" lon="4.74436">
        <ele>357.8</ele>
      </trkpt>
      <trkpt lat="46.43274" lon="4.74442">
        <ele>356.2</ele>
      </trkpt>
      <trkpt lat="46.43285" lon="4.74449">
        <ele>355.3</ele>
      </trkpt>
      <trkpt lat="46.43293" lon="4.74458">
        <ele>355.1</ele>
      </trkpt>
      <trkpt lat="46.43303" lon="4.74471">
        <ele>354.7</ele>
      </trkpt>
      <trkpt lat="46.43312" lon="4.74482">
        <ele>354</ele>
      </trkpt>
      <trkpt lat="46.43319" lon="4.7449">
        <ele>353.5</ele>
      </trkpt>
      <trkpt lat="46.43326" lon="4.74498">
        <ele>353.1</ele>
      </trkpt>
      <trkpt lat="46.43334" lon="4.74509">
        <ele>353.5</ele>
      </trkpt>
      <trkpt lat="46.43342" lon="4.74523">
        <ele>354.3</ele>
      </trkpt>
      <trkpt lat="46.4335" lon="4.74537">
        <ele>354.8</ele>
      </trkpt>
      <trkpt lat="46.4337" lon="4.74565">
        <ele>354.2</ele>
      </trkpt>
      <trkpt lat="46.43379" lon="4.74574">
        <ele>353.6</ele>
      </trkpt>
      <trkpt lat="46.43397" lon="4.74594">
        <ele>351.2</ele>
      </trkpt>
      <trkpt lat="46.43406" lon="4.746">
        <ele>349.5</ele>
      </trkpt>
      <trkpt lat="46.43416" lon="4.74607">
        <ele>347.6</ele>
      </trkpt>
      <trkpt lat="46.43427" lon="4.74615">
        <ele>345</ele>
      </trkpt>
      <trkpt lat="46.43441" lon="4.74624">
        <ele>341.8</ele>
      </trkpt>
      <trkpt lat="46.43451" lon="4.74629">
        <ele>339.7</ele>
      </trkpt>
      <trkpt lat="46.4346" lon="4.74636">
        <ele>337.6</ele>
      </trkpt>
      <trkpt lat="46.43469" lon="4.74643">
        <ele>335.8</ele>
      </trkpt>
      <trkpt lat="46.43481" lon="4.74651">
        <ele>334.2</ele>
      </trkpt>
      <trkpt lat="46.43491" lon="4.74661">
        <ele>333.4</ele>
      </trkpt>
      <trkpt lat="46.43503" lon="4.74674">
        <ele>331.6</ele>
      </trkpt>
      <trkpt lat="46.43514" lon="4.74686">
        <ele>329.6</ele>
      </trkpt>
      <trkpt lat="46.43526" lon="4.74698">
        <ele>327</ele>
      </trkpt>
      <trkpt lat="46.43537" lon="4.74709">
        <ele>324.9</ele>
      </trkpt>
      <trkpt lat="46.43545" lon="4.7472">
        <ele>323.7</ele>
      </trkpt>
      <trkpt lat="46.43558" lon="4.74731">
        <ele>321.9</ele>
      </trkpt>
      <trkpt lat="46.43569" lon="4.74741">
        <ele>320.3</ele>
      </trkpt>
      <trkpt lat="46.43578" lon="4.74754">
        <ele>319.2</ele>
      </trkpt>
      <trkpt lat="46.43587" lon="4.74768">
        <ele>317.6</ele>
      </trkpt>
      <trkpt lat="46.43596" lon="4.74779">
        <ele>316.1</ele>
      </trkpt>
      <trkpt lat="46.43604" lon="4.74793">
        <ele>314.9</ele>
      </trkpt>
      <trkpt lat="46.43613" lon="4.74808">
        <ele>313.9</ele>
      </trkpt>
      <trkpt lat="46.43622" lon="4.74823">
        <ele>313</ele>
      </trkpt>
      <trkpt lat="46.43629" lon="4.74839">
        <ele>312.5</ele>
      </trkpt>
      <trkpt lat="46.43639" lon="4.74854">
        <ele>312</ele>
      </trkpt>
      <trkpt lat="46.4365" lon="4.74868">
        <ele>311.2</ele>
      </trkpt>
      <trkpt lat="46.43655" lon="4.74876">
        <ele>310.7</ele>
      </trkpt>
      <trkpt lat="46.43659" lon="4.74885">
        <ele>310.3</ele>
      </trkpt>
      <trkpt lat="46.43663" lon="4.74895">
        <ele>309.9</ele>
      </trkpt>
      <trkpt lat="46.43669" lon="4.74916">
        <ele>309.4</ele>
      </trkpt>
      <trkpt lat="46.43673" lon="4.74941">
        <ele>309.2</ele>
      </trkpt>
      <trkpt lat="46.43677" lon="4.7497">
        <ele>308.5</ele>
      </trkpt>
      <trkpt lat="46.43682" lon="4.74999">
        <ele>307.7</ele>
      </trkpt>
      <trkpt lat="46.43685" lon="4.75016">
        <ele>307.7</ele>
      </trkpt>
      <trkpt lat="46.4369" lon="4.75028">
        <ele>307.1</ele>
      </trkpt>
      <trkpt lat="46.43697" lon="4.75046">
        <ele>306.1</ele>
      </trkpt>
      <trkpt lat="46.43701" lon="4.75061">
        <ele>305.4</ele>
      </trkpt>
      <trkpt lat="46.43706" lon="4.75084">
        <ele>304.6</ele>
      </trkpt>
      <trkpt lat="46.43709" lon="4.75102">
        <ele>304.3</ele>
      </trkpt>
      <trkpt lat="46.4371" lon="4.75124">
        <ele>304</ele>
      </trkpt>
      <trkpt lat="46.43711" lon="4.75142">
        <ele>303.9</ele>
      </trkpt>
      <trkpt lat="46.43713" lon="4.7516">
        <ele>303.7</ele>
      </trkpt>
      <trkpt lat="46.43716" lon="4.75181">
        <ele>303.5</ele>
      </trkpt>
      <trkpt lat="46.43717" lon="4.75195">
        <ele>303.6</ele>
      </trkpt>
      <trkpt lat="46.43718" lon="4.7521">
        <ele>303.3</ele>
      </trkpt>
      <trkpt lat="46.4372" lon="4.75223">
        <ele>302.8</ele>
      </trkpt>
      <trkpt lat="46.43721" lon="4.7523">
        <ele>302.2</ele>
      </trkpt>
      <trkpt lat="46.43721" lon="4.75247">
        <ele>301.7</ele>
      </trkpt>
      <trkpt lat="46.43719" lon="4.75262">
        <ele>300.9</ele>
      </trkpt>
      <trkpt lat="46.43717" lon="4.75273">
        <ele>300.8</ele>
      </trkpt>
      <trkpt lat="46.43716" lon="4.75291">
        <ele>299.6</ele>
      </trkpt>
      <trkpt lat="46.43716" lon="4.75309">
        <ele>297.8</ele>
      </trkpt>
      <trkpt lat="46.43716" lon="4.75325">
        <ele>295.8</ele>
      </trkpt>
      <trkpt lat="46.43717" lon="4.75346">
        <ele>293.8</ele>
      </trkpt>
      <trkpt lat="46.43718" lon="4.75363">
        <ele>292.8</ele>
      </trkpt>
      <trkpt lat="46.43718" lon="4.75373">
        <ele>291.6</ele>
      </trkpt>
      <trkpt lat="46.43716" lon="4.75385">
        <ele>290.7</ele>
      </trkpt>
      <trkpt lat="46.43711" lon="4.75404">
        <ele>290.3</ele>
      </trkpt>
      <trkpt lat="46.43705" lon="4.75422">
        <ele>289.5</ele>
      </trkpt>
      <trkpt lat="46.43696" lon="4.75445">
        <ele>286.8</ele>
      </trkpt>
      <trkpt lat="46.43689" lon="4.75462">
        <ele>286.1</ele>
      </trkpt>
      <trkpt lat="46.43681" lon="4.75477">
        <ele>286</ele>
      </trkpt>
      <trkpt lat="46.43674" lon="4.75488">
        <ele>286</ele>
      </trkpt>
      <trkpt lat="46.43662" lon="4.75512">
        <ele>284.6</ele>
      </trkpt>
      <trkpt lat="46.43654" lon="4.75525">
        <ele>284.6</ele>
      </trkpt>
      <trkpt lat="46.43647" lon="4.75536">
        <ele>284.6</ele>
      </trkpt>
      <trkpt lat="46.43637" lon="4.75553">
        <ele>283.7</ele>
      </trkpt>
      <trkpt lat="46.43626" lon="4.75567">
        <ele>283.9</ele>
      </trkpt>
      <trkpt lat="46.43613" lon="4.75581">
        <ele>283.2</ele>
      </trkpt>
      <trkpt lat="46.43607" lon="4.75585">
        <ele>283</ele>
      </trkpt>
      <trkpt lat="46.43595" lon="4.75594">
        <ele>282.6</ele>
      </trkpt>
      <trkpt lat="46.43582" lon="4.75607">
        <ele>281.5</ele>
      </trkpt>
      <trkpt lat="46.43569" lon="4.75619">
        <ele>280.1</ele>
      </trkpt>
      <trkpt lat="46.43558" lon="4.7563">
        <ele>278.9</ele>
      </trkpt>
      <trkpt lat="46.4355" lon="4.75638">
        <ele>278.1</ele>
      </trkpt>
      <trkpt lat="46.43537" lon="4.75643">
        <ele>277.7</ele>
      </trkpt>
      <trkpt lat="46.43523" lon="4.75649">
        <ele>277.1</ele>
      </trkpt>
      <trkpt lat="46.43503" lon="4.75653">
        <ele>276.1</ele>
      </trkpt>
      <trkpt lat="46.43492" lon="4.75655">
        <ele>275.4</ele>
      </trkpt>
      <trkpt lat="46.43485" lon="4.75656">
        <ele>275</ele>
      </trkpt>
      <trkpt lat="46.43482" lon="4.75658">
        <ele>274.8</ele>
      </trkpt>
      <trkpt lat="46.43478" lon="4.75658">
        <ele>274.6</ele>
      </trkpt>
      <trkpt lat="46.43474" lon="4.75659">
        <ele>274.5</ele>
      </trkpt>
      <trkpt lat="46.4347" lon="4.75659">
        <ele>274.4</ele>
      </trkpt>
      <trkpt lat="46.43463" lon="4.7566">
        <ele>274.2</ele>
      </trkpt>
      <trkpt lat="46.43458" lon="4.7566">
        <ele>274</ele>
      </trkpt>
      <trkpt lat="46.43452" lon="4.75659">
        <ele>273.8</ele>
      </trkpt>
      <trkpt lat="46.43445" lon="4.7566">
        <ele>273.5</ele>
      </trkpt>
      <trkpt lat="46.4344" lon="4.75664">
        <ele>272.9</ele>
      </trkpt>
      <trkpt lat="46.43434" lon="4.7567">
        <ele>272</ele>
      </trkpt>
      <trkpt lat="46.43414" lon="4.75696">
        <ele>268.7</ele>
      </trkpt>
      <trkpt lat="46.43408" lon="4.75704">
        <ele>268</ele>
      </trkpt>
      <trkpt lat="46.43395" lon="4.75721">
        <ele>266.5</ele>
      </trkpt>
      <trkpt lat="46.43388" lon="4.7573">
        <ele>265.7</ele>
      </trkpt>
      <trkpt lat="46.43366" lon="4.75749">
        <ele>262.5</ele>
      </trkpt>
      <trkpt lat="46.43352" lon="4.75763">
        <ele>260.7</ele>
      </trkpt>
      <trkpt lat="46.43343" lon="4.75773">
        <ele>259.7</ele>
      </trkpt>
      <trkpt lat="46.43344" lon="4.75782">
        <ele>259.1</ele>
      </trkpt>
      <trkpt lat="46.43341" lon="4.75789">
        <ele>258.6</ele>
      </trkpt>
      <trkpt lat="46.43336" lon="4.75798">
        <ele>257.7</ele>
      </trkpt>
      <trkpt lat="46.4332" lon="4.75823">
        <ele>256.1</ele>
      </trkpt>
      <trkpt lat="46.43312" lon="4.75837">
        <ele>255.1</ele>
      </trkpt>
      <trkpt lat="46.43306" lon="4.75858">
        <ele>254.1</ele>
      </trkpt>
      <trkpt lat="46.43282" lon="4.75949">
        <ele>251</ele>
      </trkpt>
      <trkpt lat="46.43281" lon="4.75952">
        <ele>250.8</ele>
      </trkpt>
      <trkpt lat="46.43272" lon="4.75991">
        <ele>250.1</ele>
      </trkpt>
      <trkpt lat="46.43255" lon="4.76045">
        <ele>249.2</ele>
      </trkpt>
      <trkpt lat="46.43244" lon="4.76086">
        <ele>248.7</ele>
      </trkpt>
      <trkpt lat="46.43242" lon="4.76085">
        <ele>248.7</ele>
      </trkpt>
      <trkpt lat="46.4324" lon="4.76086">
        <ele>248.5</ele>
      </trkpt>
      <trkpt lat="46.43238" lon="4.76089">
        <ele>248.4</ele>
      </trkpt>
      <trkpt lat="46.43238" lon="4.76091">
        <ele>248.3</ele>
      </trkpt>
      <trkpt lat="46.43232" lon="4.76089">
        <ele>248.2</ele>
      </trkpt>
      <trkpt lat="46.43221" lon="4.76085">
        <ele>247.9</ele>
      </trkpt>
      <trkpt lat="46.432" lon="4.76084">
        <ele>247.2</ele>
      </trkpt>
      <trkpt lat="46.43185" lon="4.76086">
        <ele>247</ele>
      </trkpt>
      <trkpt lat="46.43179" lon="4.76088">
        <ele>246.9</ele>
      </trkpt>
      <trkpt lat="46.4317" lon="4.76095">
        <ele>246.7</ele>
      </trkpt>
      <trkpt lat="46.43166" lon="4.761">
        <ele>246.4</ele>
      </trkpt>
      <trkpt lat="46.43161" lon="4.76108">
        <ele>246.1</ele>
      </trkpt>
      <trkpt lat="46.43155" lon="4.76122">
        <ele>246</ele>
      </trkpt>
      <trkpt lat="46.4315" lon="4.76135">
        <ele>246</ele>
      </trkpt>
      <trkpt lat="46.43146" lon="4.76144">
        <ele>245.8</ele>
      </trkpt>
      <trkpt lat="46.43143" lon="4.76149">
        <ele>245.6</ele>
      </trkpt>
      <trkpt lat="46.43138" lon="4.76154">
        <ele>245.5</ele>
      </trkpt>
      <trkpt lat="46.43131" lon="4.76156">
        <ele>245.3</ele>
      </trkpt>
      <trkpt lat="46.43127" lon="4.76156">
        <ele>245.2</ele>
      </trkpt>
      <trkpt lat="46.43121" lon="4.76155">
        <ele>245.1</ele>
      </trkpt>
      <trkpt lat="46.43114" lon="4.76153">
        <ele>245.1</ele>
      </trkpt>
      <trkpt lat="46.43107" lon="4.7615">
        <ele>244.9</ele>
      </trkpt>
      <trkpt lat="46.43107" lon="4.76163">
        <ele>245</ele>
      </trkpt>
      <trkpt lat="46.43107" lon="4.76177">
        <ele>244.3</ele>
      </trkpt>
      <trkpt lat="46.43107" lon="4.76182">
        <ele>244</ele>
      </trkpt>
    </trkseg>
  </trk>
  <trk>
    <name><![CDATA[14 - Tout le Maconnais - Bleu]]></name>
    <extensions>
      <line xmlns="http://www.topografix.com/GPX/gpx_style/0/2">
        <color>0000FF</color>
        <width>4</width>
      </line>
    </extensions>
    <trkseg>
      <trkpt lat="46.47158" lon="4.80829">
        <ele>231</ele>
        <time>2020-09-22T10:05:37Z</time>
      </trkpt>
      <trkpt lat="46.47226" lon="4.80795">
        <ele>231</ele>
        <time>2020-09-22T10:05:54Z</time>
      </trkpt>
      <trkpt lat="46.47245" lon="4.80896">
        <ele>228</ele>
        <time>2020-09-22T10:06:11Z</time>
      </trkpt>
      <trkpt lat="46.47232" lon="4.80904">
        <ele>228</ele>
        <time>2020-09-22T10:06:14Z</time>
      </trkpt>
      <trkpt lat="46.47212" lon="4.80911">
        <ele>228</ele>
        <time>2020-09-22T10:06:19Z</time>
      </trkpt>
      <trkpt lat="46.47194" lon="4.80933">
        <ele>227</ele>
        <time>2020-09-22T10:06:24Z</time>
      </trkpt>
      <trkpt lat="46.47181" lon="4.80944">
        <ele>227</ele>
        <time>2020-09-22T10:06:28Z</time>
      </trkpt>
      <trkpt lat="46.47191" lon="4.81005">
        <ele>226</ele>
        <time>2020-09-22T10:06:38Z</time>
      </trkpt>
      <trkpt lat="46.47204" lon="4.81357">
        <ele>223</ele>
        <time>2020-09-22T10:07:35Z</time>
      </trkpt>
      <trkpt lat="46.47205" lon="4.81403">
        <ele>223</ele>
        <time>2020-09-22T10:07:42Z</time>
      </trkpt>
      <trkpt lat="46.47197" lon="4.81646">
        <ele>223</ele>
        <time>2020-09-22T10:08:21Z</time>
      </trkpt>
      <trkpt lat="46.47207" lon="4.81645">
        <ele>222</ele>
        <time>2020-09-22T10:08:23Z</time>
      </trkpt>
      <trkpt lat="46.47215" lon="4.81641">
        <ele>222</ele>
        <time>2020-09-22T10:08:25Z</time>
      </trkpt>
      <trkpt lat="46.47326" lon="4.81514">
        <ele>218</ele>
        <time>2020-09-22T10:08:58Z</time>
      </trkpt>
      <trkpt lat="46.47334" lon="4.81503">
        <ele>218</ele>
        <time>2020-09-22T10:09:01Z</time>
      </trkpt>
      <trkpt lat="46.47338" lon="4.81486">
        <ele>218</ele>
        <time>2020-09-22T10:09:04Z</time>
      </trkpt>
      <trkpt lat="46.47343" lon="4.81493">
        <ele>219</ele>
        <time>2020-09-22T10:09:05Z</time>
      </trkpt>
      <trkpt lat="46.4735" lon="4.81517">
        <ele>219</ele>
        <time>2020-09-22T10:09:10Z</time>
      </trkpt>
      <trkpt lat="46.47394" lon="4.81798">
        <ele>227</ele>
        <time>2020-09-22T10:09:56Z</time>
      </trkpt>
      <trkpt lat="46.47419" lon="4.81765">
        <ele>227</ele>
        <time>2020-09-22T10:10:04Z</time>
      </trkpt>
      <trkpt lat="46.47436" lon="4.81732">
        <ele>226</ele>
        <time>2020-09-22T10:10:11Z</time>
      </trkpt>
      <trkpt lat="46.47442" lon="4.81691">
        <ele>223</ele>
        <time>2020-09-22T10:10:17Z</time>
      </trkpt>
      <trkpt lat="46.47442" lon="4.81606">
        <ele>220</ele>
        <time>2020-09-22T10:10:31Z</time>
      </trkpt>
      <trkpt lat="46.47634" lon="4.81587">
        <ele>222</ele>
        <time>2020-09-22T10:11:16Z</time>
      </trkpt>
      <trkpt lat="46.47651" lon="4.81588">
        <ele>222</ele>
        <time>2020-09-22T10:11:20Z</time>
      </trkpt>
      <trkpt lat="46.47683" lon="4.816">
        <ele>223</ele>
        <time>2020-09-22T10:11:28Z</time>
      </trkpt>
      <trkpt lat="46.47692" lon="4.81601">
        <ele>223</ele>
        <time>2020-09-22T10:11:30Z</time>
      </trkpt>
      <trkpt lat="46.47752" lon="4.81589">
        <ele>223</ele>
        <time>2020-09-22T10:11:44Z</time>
      </trkpt>
      <trkpt lat="46.47844" lon="4.81566">
        <ele>224</ele>
        <time>2020-09-22T10:12:06Z</time>
      </trkpt>
      <trkpt lat="46.47878" lon="4.81564">
        <ele>225</ele>
        <time>2020-09-22T10:12:14Z</time>
      </trkpt>
      <trkpt lat="46.4791" lon="4.81568">
        <ele>226</ele>
        <time>2020-09-22T10:12:21Z</time>
      </trkpt>
      <trkpt lat="46.47931" lon="4.81574">
        <ele>226</ele>
        <time>2020-09-22T10:12:26Z</time>
      </trkpt>
      <trkpt lat="46.4794" lon="4.81565">
        <ele>226</ele>
        <time>2020-09-22T10:12:29Z</time>
      </trkpt>
      <trkpt lat="46.47958" lon="4.8147">
        <ele>226</ele>
        <time>2020-09-22T10:12:44Z</time>
      </trkpt>
      <trkpt lat="46.47949" lon="4.81459">
        <ele>226</ele>
        <time>2020-09-22T10:12:47Z</time>
      </trkpt>
      <trkpt lat="46.47924" lon="4.81413">
        <ele>226</ele>
        <time>2020-09-22T10:12:57Z</time>
      </trkpt>
      <trkpt lat="46.47904" lon="4.81359">
        <ele>228</ele>
        <time>2020-09-22T10:13:06Z</time>
      </trkpt>
      <trkpt lat="46.47937" lon="4.81338">
        <ele>229</ele>
        <time>2020-09-22T10:13:15Z</time>
      </trkpt>
      <trkpt lat="46.47948" lon="4.81336">
        <ele>229</ele>
        <time>2020-09-22T10:13:17Z</time>
      </trkpt>
      <trkpt lat="46.47968" lon="4.81338">
        <ele>228</ele>
        <time>2020-09-22T10:13:22Z</time>
      </trkpt>
      <trkpt lat="46.48" lon="4.81348">
        <ele>228</ele>
        <time>2020-09-22T10:13:30Z</time>
      </trkpt>
      <trkpt lat="46.48018" lon="4.81349">
        <ele>228</ele>
        <time>2020-09-22T10:13:34Z</time>
      </trkpt>
      <trkpt lat="46.48059" lon="4.81343">
        <ele>229</ele>
        <time>2020-09-22T10:13:44Z</time>
      </trkpt>
      <trkpt lat="46.48064" lon="4.81344">
        <ele>229</ele>
        <time>2020-09-22T10:13:45Z</time>
      </trkpt>
      <trkpt lat="46.48069" lon="4.81346">
        <ele>229</ele>
        <time>2020-09-22T10:13:46Z</time>
      </trkpt>
      <trkpt lat="46.48075" lon="4.81353">
        <ele>229</ele>
        <time>2020-09-22T10:13:48Z</time>
      </trkpt>
      <trkpt lat="46.48091" lon="4.81377">
        <ele>229</ele>
        <time>2020-09-22T10:13:53Z</time>
      </trkpt>
      <trkpt lat="46.48108" lon="4.81396">
        <ele>230</ele>
        <time>2020-09-22T10:13:58Z</time>
      </trkpt>
      <trkpt lat="46.4812" lon="4.81402">
        <ele>231</ele>
        <time>2020-09-22T10:14:01Z</time>
      </trkpt>
      <trkpt lat="46.48151" lon="4.81409">
        <ele>233</ele>
        <time>2020-09-22T10:14:09Z</time>
      </trkpt>
      <trkpt lat="46.48163" lon="4.81415">
        <ele>234</ele>
        <time>2020-09-22T10:14:11Z</time>
      </trkpt>
      <trkpt lat="46.48207" lon="4.81458">
        <ele>238</ele>
        <time>2020-09-22T10:14:24Z</time>
      </trkpt>
      <trkpt lat="46.48243" lon="4.81478">
        <ele>240</ele>
        <time>2020-09-22T10:14:33Z</time>
      </trkpt>
      <trkpt lat="46.4826" lon="4.81491">
        <ele>241</ele>
        <time>2020-09-22T10:14:37Z</time>
      </trkpt>
      <trkpt lat="46.48264" lon="4.81484">
        <ele>241</ele>
        <time>2020-09-22T10:14:39Z</time>
      </trkpt>
      <trkpt lat="46.48327" lon="4.81515">
        <ele>245</ele>
        <time>2020-09-22T10:14:54Z</time>
      </trkpt>
      <trkpt lat="46.48337" lon="4.81521">
        <ele>245</ele>
        <time>2020-09-22T10:14:57Z</time>
      </trkpt>
      <trkpt lat="46.48363" lon="4.81545">
        <ele>247</ele>
        <time>2020-09-22T10:15:04Z</time>
      </trkpt>
      <trkpt lat="46.48393" lon="4.81561">
        <ele>249</ele>
        <time>2020-09-22T10:15:12Z</time>
      </trkpt>
      <trkpt lat="46.48419" lon="4.81572">
        <ele>251</ele>
        <time>2020-09-22T10:15:18Z</time>
      </trkpt>
      <trkpt lat="46.48463" lon="4.8158">
        <ele>255</ele>
        <time>2020-09-22T10:15:28Z</time>
      </trkpt>
      <trkpt lat="46.48545" lon="4.81604">
        <ele>262</ele>
        <time>2020-09-22T10:15:48Z</time>
      </trkpt>
      <trkpt lat="46.48574" lon="4.81608">
        <ele>265</ele>
        <time>2020-09-22T10:15:55Z</time>
      </trkpt>
      <trkpt lat="46.48596" lon="4.81617">
        <ele>267</ele>
        <time>2020-09-22T10:16:00Z</time>
      </trkpt>
      <trkpt lat="46.48621" lon="4.81632">
        <ele>268</ele>
        <time>2020-09-22T10:16:06Z</time>
      </trkpt>
      <trkpt lat="46.48674" lon="4.81677">
        <ele>269</ele>
        <time>2020-09-22T10:16:21Z</time>
      </trkpt>
      <trkpt lat="46.48733" lon="4.81736">
        <ele>270</ele>
        <time>2020-09-22T10:16:37Z</time>
      </trkpt>
      <trkpt lat="46.48782" lon="4.81799">
        <ele>270</ele>
        <time>2020-09-22T10:16:53Z</time>
      </trkpt>
      <trkpt lat="46.48825" lon="4.81865">
        <ele>270</ele>
        <time>2020-09-22T10:17:07Z</time>
      </trkpt>
      <trkpt lat="46.48829" lon="4.81882">
        <ele>269</ele>
        <time>2020-09-22T10:17:10Z</time>
      </trkpt>
      <trkpt lat="46.4883" lon="4.81919">
        <ele>268</ele>
        <time>2020-09-22T10:17:16Z</time>
      </trkpt>
      <trkpt lat="46.4884" lon="4.81935">
        <ele>267</ele>
        <time>2020-09-22T10:17:19Z</time>
      </trkpt>
      <trkpt lat="46.48851" lon="4.81944">
        <ele>267</ele>
        <time>2020-09-22T10:17:22Z</time>
      </trkpt>
      <trkpt lat="46.4887" lon="4.81952">
        <ele>267</ele>
        <time>2020-09-22T10:17:27Z</time>
      </trkpt>
      <trkpt lat="46.48905" lon="4.81975">
        <ele>267</ele>
        <time>2020-09-22T10:17:36Z</time>
      </trkpt>
      <trkpt lat="46.48951" lon="4.82018">
        <ele>264</ele>
        <time>2020-09-22T10:17:49Z</time>
      </trkpt>
      <trkpt lat="46.49024" lon="4.82078">
        <ele>258</ele>
        <time>2020-09-22T10:18:08Z</time>
      </trkpt>
      <trkpt lat="46.49042" lon="4.82104">
        <ele>256</ele>
        <time>2020-09-22T10:18:14Z</time>
      </trkpt>
      <trkpt lat="46.49044" lon="4.82112">
        <ele>256</ele>
        <time>2020-09-22T10:18:16Z</time>
      </trkpt>
      <trkpt lat="46.49089" lon="4.82118">
        <ele>255</ele>
        <time>2020-09-22T10:18:26Z</time>
      </trkpt>
      <trkpt lat="46.49134" lon="4.82131">
        <ele>256</ele>
        <time>2020-09-22T10:18:37Z</time>
      </trkpt>
      <trkpt lat="46.49177" lon="4.82148">
        <ele>255</ele>
        <time>2020-09-22T10:18:47Z</time>
      </trkpt>
      <trkpt lat="46.4924" lon="4.82167">
        <ele>255</ele>
        <time>2020-09-22T10:19:02Z</time>
      </trkpt>
      <trkpt lat="46.49277" lon="4.82158">
        <ele>256</ele>
        <time>2020-09-22T10:19:11Z</time>
      </trkpt>
      <trkpt lat="46.4934" lon="4.82132">
        <ele>260</ele>
        <time>2020-09-22T10:19:26Z</time>
      </trkpt>
      <trkpt lat="46.49363" lon="4.82156">
        <ele>255</ele>
        <time>2020-09-22T10:19:33Z</time>
      </trkpt>
      <trkpt lat="46.49373" lon="4.82163">
        <ele>254</ele>
        <time>2020-09-22T10:19:36Z</time>
      </trkpt>
      <trkpt lat="46.49399" lon="4.82169">
        <ele>252</ele>
        <time>2020-09-22T10:19:42Z</time>
      </trkpt>
      <trkpt lat="46.49404" lon="4.82139">
        <ele>256</ele>
        <time>2020-09-22T10:19:47Z</time>
      </trkpt>
      <trkpt lat="46.49408" lon="4.82128">
        <ele>257</ele>
        <time>2020-09-22T10:19:49Z</time>
      </trkpt>
      <trkpt lat="46.49416" lon="4.82115">
        <ele>258</ele>
        <time>2020-09-22T10:19:52Z</time>
      </trkpt>
      <trkpt lat="46.49426" lon="4.82107">
        <ele>259</ele>
        <time>2020-09-22T10:19:54Z</time>
      </trkpt>
      <trkpt lat="46.49438" lon="4.82117">
        <ele>259</ele>
        <time>2020-09-22T10:19:57Z</time>
      </trkpt>
      <trkpt lat="46.49435" lon="4.82153">
        <ele>256</ele>
        <time>2020-09-22T10:20:03Z</time>
      </trkpt>
      <trkpt lat="46.4944" lon="4.82175">
        <ele>256</ele>
        <time>2020-09-22T10:20:07Z</time>
      </trkpt>
      <trkpt lat="46.49446" lon="4.82183">
        <ele>256</ele>
        <time>2020-09-22T10:20:09Z</time>
      </trkpt>
      <trkpt lat="46.49478" lon="4.82199">
        <ele>261</ele>
        <time>2020-09-22T10:20:17Z</time>
      </trkpt>
      <trkpt lat="46.49506" lon="4.82195">
        <ele>265</ele>
        <time>2020-09-22T10:20:23Z</time>
      </trkpt>
      <trkpt lat="46.49524" lon="4.82188">
        <ele>268</ele>
        <time>2020-09-22T10:20:28Z</time>
      </trkpt>
      <trkpt lat="46.49536" lon="4.82188">
        <ele>270</ele>
        <time>2020-09-22T10:20:31Z</time>
      </trkpt>
      <trkpt lat="46.49559" lon="4.82196">
        <ele>273</ele>
        <time>2020-09-22T10:20:36Z</time>
      </trkpt>
      <trkpt lat="46.49569" lon="4.82197">
        <ele>274</ele>
        <time>2020-09-22T10:20:38Z</time>
      </trkpt>
      <trkpt lat="46.49586" lon="4.82191">
        <ele>277</ele>
        <time>2020-09-22T10:20:42Z</time>
      </trkpt>
      <trkpt lat="46.49584" lon="4.82178">
        <ele>278</ele>
        <time>2020-09-22T10:20:45Z</time>
      </trkpt>
      <trkpt lat="46.49586" lon="4.82171">
        <ele>278</ele>
        <time>2020-09-22T10:20:46Z</time>
      </trkpt>
      <trkpt lat="46.49604" lon="4.82147">
        <ele>282</ele>
        <time>2020-09-22T10:20:52Z</time>
      </trkpt>
      <trkpt lat="46.49608" lon="4.82138">
        <ele>282</ele>
        <time>2020-09-22T10:20:53Z</time>
      </trkpt>
      <trkpt lat="46.49619" lon="4.82156">
        <ele>284</ele>
        <time>2020-09-22T10:20:57Z</time>
      </trkpt>
      <trkpt lat="46.4964" lon="4.8218">
        <ele>287</ele>
        <time>2020-09-22T10:21:03Z</time>
      </trkpt>
      <trkpt lat="46.49653" lon="4.82189">
        <ele>288</ele>
        <time>2020-09-22T10:21:07Z</time>
      </trkpt>
      <trkpt lat="46.49667" lon="4.82193">
        <ele>290</ele>
        <time>2020-09-22T10:21:10Z</time>
      </trkpt>
      <trkpt lat="46.49692" lon="4.82197">
        <ele>293</ele>
        <time>2020-09-22T10:21:16Z</time>
      </trkpt>
      <trkpt lat="46.49718" lon="4.82184">
        <ele>297</ele>
        <time>2020-09-22T10:21:22Z</time>
      </trkpt>
      <trkpt lat="46.49734" lon="4.82184">
        <ele>299</ele>
        <time>2020-09-22T10:21:26Z</time>
      </trkpt>
      <trkpt lat="46.49749" lon="4.82179">
        <ele>302</ele>
        <time>2020-09-22T10:21:30Z</time>
      </trkpt>
      <trkpt lat="46.49761" lon="4.82179">
        <ele>303</ele>
        <time>2020-09-22T10:21:32Z</time>
      </trkpt>
      <trkpt lat="46.49784" lon="4.82185">
        <ele>306</ele>
        <time>2020-09-22T10:21:38Z</time>
      </trkpt>
      <trkpt lat="46.49803" lon="4.82183">
        <ele>309</ele>
        <time>2020-09-22T10:21:42Z</time>
      </trkpt>
      <trkpt lat="46.49826" lon="4.82185">
        <ele>312</ele>
        <time>2020-09-22T10:21:48Z</time>
      </trkpt>
      <trkpt lat="46.49835" lon="4.82182">
        <ele>313</ele>
        <time>2020-09-22T10:21:50Z</time>
      </trkpt>
      <trkpt lat="46.49863" lon="4.82164">
        <ele>318</ele>
        <time>2020-09-22T10:21:57Z</time>
      </trkpt>
      <trkpt lat="46.49886" lon="4.82138">
        <ele>321</ele>
        <time>2020-09-22T10:22:04Z</time>
      </trkpt>
      <trkpt lat="46.4993" lon="4.82129">
        <ele>326</ele>
        <time>2020-09-22T10:22:14Z</time>
      </trkpt>
      <trkpt lat="46.49967" lon="4.82115">
        <ele>329</ele>
        <time>2020-09-22T10:22:23Z</time>
      </trkpt>
      <trkpt lat="46.49986" lon="4.82103">
        <ele>330</ele>
        <time>2020-09-22T10:22:28Z</time>
      </trkpt>
      <trkpt lat="46.50039" lon="4.82055">
        <ele>333</ele>
        <time>2020-09-22T10:22:43Z</time>
      </trkpt>
      <trkpt lat="46.50049" lon="4.82052">
        <ele>334</ele>
        <time>2020-09-22T10:22:45Z</time>
      </trkpt>
      <trkpt lat="46.50075" lon="4.82052">
        <ele>336</ele>
        <time>2020-09-22T10:22:51Z</time>
      </trkpt>
      <trkpt lat="46.50163" lon="4.8208">
        <ele>343</ele>
        <time>2020-09-22T10:23:12Z</time>
      </trkpt>
      <trkpt lat="46.50269" lon="4.82091">
        <ele>349</ele>
        <time>2020-09-22T10:23:37Z</time>
      </trkpt>
      <trkpt lat="46.50355" lon="4.82104">
        <ele>352</ele>
        <time>2020-09-22T10:23:57Z</time>
      </trkpt>
      <trkpt lat="46.50545" lon="4.82166">
        <ele>362</ele>
        <time>2020-09-22T10:24:43Z</time>
      </trkpt>
      <trkpt lat="46.50673" lon="4.82211">
        <ele>368</ele>
        <time>2020-09-22T10:25:13Z</time>
      </trkpt>
      <trkpt lat="46.50819" lon="4.8227">
        <ele>376</ele>
        <time>2020-09-22T10:25:49Z</time>
      </trkpt>
      <trkpt lat="46.50901" lon="4.82319">
        <ele>380</ele>
        <time>2020-09-22T10:26:09Z</time>
      </trkpt>
      <trkpt lat="46.50964" lon="4.82345">
        <ele>383</ele>
        <time>2020-09-22T10:26:25Z</time>
      </trkpt>
      <trkpt lat="46.50998" lon="4.82356">
        <ele>384</ele>
        <time>2020-09-22T10:26:33Z</time>
      </trkpt>
      <trkpt lat="46.51079" lon="4.82376">
        <ele>384</ele>
        <time>2020-09-22T10:26:52Z</time>
      </trkpt>
      <trkpt lat="46.51108" lon="4.82389">
        <ele>384</ele>
        <time>2020-09-22T10:26:59Z</time>
      </trkpt>
      <trkpt lat="46.51206" lon="4.82446">
        <ele>386</ele>
        <time>2020-09-22T10:27:24Z</time>
      </trkpt>
      <trkpt lat="46.51337" lon="4.82496">
        <ele>391</ele>
        <time>2020-09-22T10:27:55Z</time>
      </trkpt>
      <trkpt lat="46.51486" lon="4.82579">
        <ele>392</ele>
        <time>2020-09-22T10:28:33Z</time>
      </trkpt>
      <trkpt lat="46.51557" lon="4.82611">
        <ele>390</ele>
        <time>2020-09-22T10:28:50Z</time>
      </trkpt>
      <trkpt lat="46.51605" lon="4.82645">
        <ele>390</ele>
        <time>2020-09-22T10:29:03Z</time>
      </trkpt>
      <trkpt lat="46.51605" lon="4.8263">
        <ele>390</ele>
        <time>2020-09-22T10:29:05Z</time>
      </trkpt>
      <trkpt lat="46.51592" lon="4.82539">
        <ele>389</ele>
        <time>2020-09-22T10:29:20Z</time>
      </trkpt>
      <trkpt lat="46.51589" lon="4.82486">
        <ele>389</ele>
        <time>2020-09-22T10:29:28Z</time>
      </trkpt>
      <trkpt lat="46.51588" lon="4.8228">
        <ele>390</ele>
        <time>2020-09-22T10:30:02Z</time>
      </trkpt>
      <trkpt lat="46.51586" lon="4.82264">
        <ele>390</ele>
        <time>2020-09-22T10:30:04Z</time>
      </trkpt>
      <trkpt lat="46.51575" lon="4.82245">
        <ele>389</ele>
        <time>2020-09-22T10:30:08Z</time>
      </trkpt>
      <trkpt lat="46.51532" lon="4.82203">
        <ele>386</ele>
        <time>2020-09-22T10:30:20Z</time>
      </trkpt>
      <trkpt lat="46.51522" lon="4.82192">
        <ele>386</ele>
        <time>2020-09-22T10:30:23Z</time>
      </trkpt>
      <trkpt lat="46.5152" lon="4.82186">
        <ele>385</ele>
        <time>2020-09-22T10:30:24Z</time>
      </trkpt>
      <trkpt lat="46.51524" lon="4.82179">
        <ele>384</ele>
        <time>2020-09-22T10:30:26Z</time>
      </trkpt>
      <trkpt lat="46.51548" lon="4.82186">
        <ele>383</ele>
        <time>2020-09-22T10:30:31Z</time>
      </trkpt>
      <trkpt lat="46.51587" lon="4.82177">
        <ele>377</ele>
        <time>2020-09-22T10:30:41Z</time>
      </trkpt>
      <trkpt lat="46.51592" lon="4.82173">
        <ele>377</ele>
        <time>2020-09-22T10:30:42Z</time>
      </trkpt>
      <trkpt lat="46.51598" lon="4.82108">
        <ele>368</ele>
        <time>2020-09-22T10:30:53Z</time>
      </trkpt>
      <trkpt lat="46.5159" lon="4.8208">
        <ele>364</ele>
        <time>2020-09-22T10:30:57Z</time>
      </trkpt>
      <trkpt lat="46.51531" lon="4.81947">
        <ele>355</ele>
        <time>2020-09-22T10:31:23Z</time>
      </trkpt>
      <trkpt lat="46.51546" lon="4.81953">
        <ele>355</ele>
        <time>2020-09-22T10:31:26Z</time>
      </trkpt>
      <trkpt lat="46.51588" lon="4.81961">
        <ele>353</ele>
        <time>2020-09-22T10:31:36Z</time>
      </trkpt>
      <trkpt lat="46.51596" lon="4.8196">
        <ele>353</ele>
        <time>2020-09-22T10:31:38Z</time>
      </trkpt>
      <trkpt lat="46.51607" lon="4.81952">
        <ele>352</ele>
        <time>2020-09-22T10:31:41Z</time>
      </trkpt>
      <trkpt lat="46.51616" lon="4.8194">
        <ele>351</ele>
        <time>2020-09-22T10:31:44Z</time>
      </trkpt>
      <trkpt lat="46.51623" lon="4.8192">
        <ele>349</ele>
        <time>2020-09-22T10:31:48Z</time>
      </trkpt>
      <trkpt lat="46.5163" lon="4.81897">
        <ele>348</ele>
        <time>2020-09-22T10:31:52Z</time>
      </trkpt>
      <trkpt lat="46.51637" lon="4.81842">
        <ele>346</ele>
        <time>2020-09-22T10:32:01Z</time>
      </trkpt>
      <trkpt lat="46.51667" lon="4.8156">
        <ele>338</ele>
        <time>2020-09-22T10:32:46Z</time>
      </trkpt>
      <trkpt lat="46.51668" lon="4.8152">
        <ele>337</ele>
        <time>2020-09-22T10:32:53Z</time>
      </trkpt>
      <trkpt lat="46.51657" lon="4.81473">
        <ele>336</ele>
        <time>2020-09-22T10:33:01Z</time>
      </trkpt>
      <trkpt lat="46.51647" lon="4.81403">
        <ele>336</ele>
        <time>2020-09-22T10:33:12Z</time>
      </trkpt>
      <trkpt lat="46.51636" lon="4.81289">
        <ele>340</ele>
        <time>2020-09-22T10:33:31Z</time>
      </trkpt>
      <trkpt lat="46.51616" lon="4.81222">
        <ele>343</ele>
        <time>2020-09-22T10:33:43Z</time>
      </trkpt>
      <trkpt lat="46.51609" lon="4.81171">
        <ele>344</ele>
        <time>2020-09-22T10:33:51Z</time>
      </trkpt>
      <trkpt lat="46.5158" lon="4.81064">
        <ele>349</ele>
        <time>2020-09-22T10:34:09Z</time>
      </trkpt>
      <trkpt lat="46.51568" lon="4.81026">
        <ele>351</ele>
        <time>2020-09-22T10:34:16Z</time>
      </trkpt>
      <trkpt lat="46.51537" lon="4.80967">
        <ele>352</ele>
        <time>2020-09-22T10:34:28Z</time>
      </trkpt>
      <trkpt lat="46.51504" lon="4.80865">
        <ele>355</ele>
        <time>2020-09-22T10:34:46Z</time>
      </trkpt>
      <trkpt lat="46.51493" lon="4.80847">
        <ele>355</ele>
        <time>2020-09-22T10:34:50Z</time>
      </trkpt>
      <trkpt lat="46.51486" lon="4.80841">
        <ele>355</ele>
        <time>2020-09-22T10:34:52Z</time>
      </trkpt>
      <trkpt lat="46.51467" lon="4.80828">
        <ele>354</ele>
        <time>2020-09-22T10:34:57Z</time>
      </trkpt>
      <trkpt lat="46.51419" lon="4.80811">
        <ele>351</ele>
        <time>2020-09-22T10:35:08Z</time>
      </trkpt>
      <trkpt lat="46.51363" lon="4.8078">
        <ele>351</ele>
        <time>2020-09-22T10:35:22Z</time>
      </trkpt>
      <trkpt lat="46.51325" lon="4.80773">
        <ele>351</ele>
        <time>2020-09-22T10:35:31Z</time>
      </trkpt>
      <trkpt lat="46.51296" lon="4.80771">
        <ele>352</ele>
        <time>2020-09-22T10:35:38Z</time>
      </trkpt>
      <trkpt lat="46.51276" lon="4.8077">
        <ele>353</ele>
        <time>2020-09-22T10:35:43Z</time>
      </trkpt>
      <trkpt lat="46.51249" lon="4.80773">
        <ele>354</ele>
        <time>2020-09-22T10:35:49Z</time>
      </trkpt>
      <trkpt lat="46.51228" lon="4.8077">
        <ele>353</ele>
        <time>2020-09-22T10:35:54Z</time>
      </trkpt>
      <trkpt lat="46.51197" lon="4.80758">
        <ele>353</ele>
        <time>2020-09-22T10:36:02Z</time>
      </trkpt>
      <trkpt lat="46.51076" lon="4.80655">
        <ele>347</ele>
        <time>2020-09-22T10:36:34Z</time>
      </trkpt>
      <trkpt lat="46.5104" lon="4.80639">
        <ele>345</ele>
        <time>2020-09-22T10:36:43Z</time>
      </trkpt>
      <trkpt lat="46.5098" lon="4.80623">
        <ele>343</ele>
        <time>2020-09-22T10:36:57Z</time>
      </trkpt>
      <trkpt lat="46.50953" lon="4.80611">
        <ele>343</ele>
        <time>2020-09-22T10:37:04Z</time>
      </trkpt>
      <trkpt lat="46.50908" lon="4.80585">
        <ele>343</ele>
        <time>2020-09-22T10:37:15Z</time>
      </trkpt>
      <trkpt lat="46.50879" lon="4.80557">
        <ele>341</ele>
        <time>2020-09-22T10:37:23Z</time>
      </trkpt>
      <trkpt lat="46.50828" lon="4.80533">
        <ele>339</ele>
        <time>2020-09-22T10:37:36Z</time>
      </trkpt>
      <trkpt lat="46.5082" lon="4.80527">
        <ele>338</ele>
        <time>2020-09-22T10:37:38Z</time>
      </trkpt>
      <trkpt lat="46.50804" lon="4.80503">
        <ele>337</ele>
        <time>2020-09-22T10:37:43Z</time>
      </trkpt>
      <trkpt lat="46.50782" lon="4.80446">
        <ele>335</ele>
        <time>2020-09-22T10:37:54Z</time>
      </trkpt>
      <trkpt lat="46.50764" lon="4.80412">
        <ele>334</ele>
        <time>2020-09-22T10:38:01Z</time>
      </trkpt>
      <trkpt lat="46.50755" lon="4.804">
        <ele>334</ele>
        <time>2020-09-22T10:38:04Z</time>
      </trkpt>
      <trkpt lat="46.5068" lon="4.8033">
        <ele>333</ele>
        <time>2020-09-22T10:38:24Z</time>
      </trkpt>
      <trkpt lat="46.50662" lon="4.80302">
        <ele>333</ele>
        <time>2020-09-22T10:38:31Z</time>
      </trkpt>
      <trkpt lat="46.50649" lon="4.80269">
        <ele>332</ele>
        <time>2020-09-22T10:38:37Z</time>
      </trkpt>
      <trkpt lat="46.50629" lon="4.80182">
        <ele>331</ele>
        <time>2020-09-22T10:38:51Z</time>
      </trkpt>
      <trkpt lat="46.50606" lon="4.80137">
        <ele>330</ele>
        <time>2020-09-22T10:39:00Z</time>
      </trkpt>
      <trkpt lat="46.50598" lon="4.80109">
        <ele>329</ele>
        <time>2020-09-22T10:39:05Z</time>
      </trkpt>
      <trkpt lat="46.50594" lon="4.80084">
        <ele>329</ele>
        <time>2020-09-22T10:39:09Z</time>
      </trkpt>
      <trkpt lat="46.50606" lon="4.79992">
        <ele>316</ele>
        <time>2020-09-22T10:39:24Z</time>
      </trkpt>
      <trkpt lat="46.50609" lon="4.79945">
        <ele>312</ele>
        <time>2020-09-22T10:39:32Z</time>
      </trkpt>
      <trkpt lat="46.50609" lon="4.79904">
        <ele>308</ele>
        <time>2020-09-22T10:39:39Z</time>
      </trkpt>
      <trkpt lat="46.50599" lon="4.7986">
        <ele>305</ele>
        <time>2020-09-22T10:39:46Z</time>
      </trkpt>
      <trkpt lat="46.50597" lon="4.79843">
        <ele>303</ele>
        <time>2020-09-22T10:39:49Z</time>
      </trkpt>
      <trkpt lat="46.50598" lon="4.79825">
        <ele>302</ele>
        <time>2020-09-22T10:39:52Z</time>
      </trkpt>
      <trkpt lat="46.50606" lon="4.79793">
        <ele>300</ele>
        <time>2020-09-22T10:39:57Z</time>
      </trkpt>
      <trkpt lat="46.50619" lon="4.79756">
        <ele>298</ele>
        <time>2020-09-22T10:40:04Z</time>
      </trkpt>
      <trkpt lat="46.50611" lon="4.79756">
        <ele>299</ele>
        <time>2020-09-22T10:40:06Z</time>
      </trkpt>
      <trkpt lat="46.50542" lon="4.79728">
        <ele>302</ele>
        <time>2020-09-22T10:40:23Z</time>
      </trkpt>
      <trkpt lat="46.50546" lon="4.79692">
        <ele>301</ele>
        <time>2020-09-22T10:40:28Z</time>
      </trkpt>
      <trkpt lat="46.50545" lon="4.79654">
        <ele>301</ele>
        <time>2020-09-22T10:40:34Z</time>
      </trkpt>
      <trkpt lat="46.50531" lon="4.79643">
        <ele>302</ele>
        <time>2020-09-22T10:40:38Z</time>
      </trkpt>
      <trkpt lat="46.5053" lon="4.7961">
        <ele>302</ele>
        <time>2020-09-22T10:40:44Z</time>
      </trkpt>
      <trkpt lat="46.50523" lon="4.79542">
        <ele>302</ele>
        <time>2020-09-22T10:40:55Z</time>
      </trkpt>
      <trkpt lat="46.50514" lon="4.79504">
        <ele>302</ele>
        <time>2020-09-22T10:41:01Z</time>
      </trkpt>
      <trkpt lat="46.50509" lon="4.79461">
        <ele>300</ele>
        <time>2020-09-22T10:41:08Z</time>
      </trkpt>
      <trkpt lat="46.50503" lon="4.79386">
        <ele>301</ele>
        <time>2020-09-22T10:41:20Z</time>
      </trkpt>
      <trkpt lat="46.50507" lon="4.7938">
        <ele>301</ele>
        <time>2020-09-22T10:41:22Z</time>
      </trkpt>
      <trkpt lat="46.50517" lon="4.7938">
        <ele>300</ele>
        <time>2020-09-22T10:41:24Z</time>
      </trkpt>
      <trkpt lat="46.50515" lon="4.79386">
        <ele>300</ele>
        <time>2020-09-22T10:41:25Z</time>
      </trkpt>
      <trkpt lat="46.50516" lon="4.79407">
        <ele>299</ele>
        <time>2020-09-22T10:41:28Z</time>
      </trkpt>
      <trkpt lat="46.50518" lon="4.79417">
        <ele>298</ele>
        <time>2020-09-22T10:41:30Z</time>
      </trkpt>
      <trkpt lat="46.50523" lon="4.79426">
        <ele>298</ele>
        <time>2020-09-22T10:41:32Z</time>
      </trkpt>
      <trkpt lat="46.50549" lon="4.7945">
        <ele>297</ele>
        <time>2020-09-22T10:41:39Z</time>
      </trkpt>
      <trkpt lat="46.50571" lon="4.79459">
        <ele>296</ele>
        <time>2020-09-22T10:41:44Z</time>
      </trkpt>
      <trkpt lat="46.50613" lon="4.79452">
        <ele>296</ele>
        <time>2020-09-22T10:41:54Z</time>
      </trkpt>
      <trkpt lat="46.50606" lon="4.79368">
        <ele>298</ele>
        <time>2020-09-22T10:42:08Z</time>
      </trkpt>
      <trkpt lat="46.50595" lon="4.79303">
        <ele>300</ele>
        <time>2020-09-22T10:42:19Z</time>
      </trkpt>
      <trkpt lat="46.50577" lon="4.79223">
        <ele>300</ele>
        <time>2020-09-22T10:42:32Z</time>
      </trkpt>
      <trkpt lat="46.50568" lon="4.79164">
        <ele>299</ele>
        <time>2020-09-22T10:42:42Z</time>
      </trkpt>
      <trkpt lat="46.50565" lon="4.79126">
        <ele>296</ele>
        <time>2020-09-22T10:42:48Z</time>
      </trkpt>
      <trkpt lat="46.50562" lon="4.79115">
        <ele>295</ele>
        <time>2020-09-22T10:42:50Z</time>
      </trkpt>
      <trkpt lat="46.50548" lon="4.7909">
        <ele>292</ele>
        <time>2020-09-22T10:42:55Z</time>
      </trkpt>
      <trkpt lat="46.50537" lon="4.79063">
        <ele>295</ele>
        <time>2020-09-22T10:43:00Z</time>
      </trkpt>
      <trkpt lat="46.50534" lon="4.79046">
        <ele>297</ele>
        <time>2020-09-22T10:43:03Z</time>
      </trkpt>
      <trkpt lat="46.50536" lon="4.79013">
        <ele>303</ele>
        <time>2020-09-22T10:43:08Z</time>
      </trkpt>
      <trkpt lat="46.50493" lon="4.79046">
        <ele>299</ele>
        <time>2020-09-22T10:43:20Z</time>
      </trkpt>
      <trkpt lat="46.50411" lon="4.79079">
        <ele>296</ele>
        <time>2020-09-22T10:43:39Z</time>
      </trkpt>
      <trkpt lat="46.50286" lon="4.79213">
        <ele>289</ele>
        <time>2020-09-22T10:44:16Z</time>
      </trkpt>
      <trkpt lat="46.50249" lon="4.79225">
        <ele>287</ele>
        <time>2020-09-22T10:44:25Z</time>
      </trkpt>
      <trkpt lat="46.50214" lon="4.79187">
        <ele>292</ele>
        <time>2020-09-22T10:44:35Z</time>
      </trkpt>
      <trkpt lat="46.50173" lon="4.79231">
        <ele>285</ele>
        <time>2020-09-22T10:44:47Z</time>
      </trkpt>
      <trkpt lat="46.50164" lon="4.79235">
        <ele>285</ele>
        <time>2020-09-22T10:44:49Z</time>
      </trkpt>
      <trkpt lat="46.50155" lon="4.79236">
        <ele>284</ele>
        <time>2020-09-22T10:44:51Z</time>
      </trkpt>
      <trkpt lat="46.50123" lon="4.79228">
        <ele>282</ele>
        <time>2020-09-22T10:44:59Z</time>
      </trkpt>
      <trkpt lat="46.50042" lon="4.79215">
        <ele>277</ele>
        <time>2020-09-22T10:45:18Z</time>
      </trkpt>
      <trkpt lat="46.50019" lon="4.79192">
        <ele>277</ele>
        <time>2020-09-22T10:45:24Z</time>
      </trkpt>
      <trkpt lat="46.50006" lon="4.79173">
        <ele>278</ele>
        <time>2020-09-22T10:45:28Z</time>
      </trkpt>
      <trkpt lat="46.49994" lon="4.79168">
        <ele>277</ele>
        <time>2020-09-22T10:45:31Z</time>
      </trkpt>
      <trkpt lat="46.49985" lon="4.79161">
        <ele>277</ele>
        <time>2020-09-22T10:45:34Z</time>
      </trkpt>
      <trkpt lat="46.49939" lon="4.79118">
        <ele>279</ele>
        <time>2020-09-22T10:45:47Z</time>
      </trkpt>
      <trkpt lat="46.49938" lon="4.79099">
        <ele>282</ele>
        <time>2020-09-22T10:45:50Z</time>
      </trkpt>
      <trkpt lat="46.49921" lon="4.79083">
        <ele>282</ele>
        <time>2020-09-22T10:45:54Z</time>
      </trkpt>
      <trkpt lat="46.49906" lon="4.79073">
        <ele>284</ele>
        <time>2020-09-22T10:45:58Z</time>
      </trkpt>
      <trkpt lat="46.49849" lon="4.79011">
        <ele>292</ele>
        <time>2020-09-22T10:46:15Z</time>
      </trkpt>
      <trkpt lat="46.49826" lon="4.78979">
        <ele>297</ele>
        <time>2020-09-22T10:46:22Z</time>
      </trkpt>
      <trkpt lat="46.49813" lon="4.78956">
        <ele>300</ele>
        <time>2020-09-22T10:46:27Z</time>
      </trkpt>
      <trkpt lat="46.49715" lon="4.78881">
        <ele>308</ele>
        <time>2020-09-22T10:46:53Z</time>
      </trkpt>
      <trkpt lat="46.49668" lon="4.78839">
        <ele>312</ele>
        <time>2020-09-22T10:47:06Z</time>
      </trkpt>
      <trkpt lat="46.4964" lon="4.78825">
        <ele>313</ele>
        <time>2020-09-22T10:47:13Z</time>
      </trkpt>
      <trkpt lat="46.49628" lon="4.7881">
        <ele>315</ele>
        <time>2020-09-22T10:47:16Z</time>
      </trkpt>
      <trkpt lat="46.49581" lon="4.78783">
        <ele>317</ele>
        <time>2020-09-22T10:47:28Z</time>
      </trkpt>
      <trkpt lat="46.49519" lon="4.78738">
        <ele>321</ele>
        <time>2020-09-22T10:47:44Z</time>
      </trkpt>
      <trkpt lat="46.49476" lon="4.78691">
        <ele>328</ele>
        <time>2020-09-22T10:47:57Z</time>
      </trkpt>
      <trkpt lat="46.49469" lon="4.78689">
        <ele>328</ele>
        <time>2020-09-22T10:47:59Z</time>
      </trkpt>
      <trkpt lat="46.49436" lon="4.78664">
        <ele>330</ele>
        <time>2020-09-22T10:48:07Z</time>
      </trkpt>
      <trkpt lat="46.49421" lon="4.78662">
        <ele>330</ele>
        <time>2020-09-22T10:48:11Z</time>
      </trkpt>
      <trkpt lat="46.49408" lon="4.78666">
        <ele>329</ele>
        <time>2020-09-22T10:48:14Z</time>
      </trkpt>
      <trkpt lat="46.49378" lon="4.78659">
        <ele>329</ele>
        <time>2020-09-22T10:48:21Z</time>
      </trkpt>
      <trkpt lat="46.49339" lon="4.78639">
        <ele>331</ele>
        <time>2020-09-22T10:48:31Z</time>
      </trkpt>
      <trkpt lat="46.49307" lon="4.78626">
        <ele>332</ele>
        <time>2020-09-22T10:48:38Z</time>
      </trkpt>
      <trkpt lat="46.49292" lon="4.78624">
        <ele>331</ele>
        <time>2020-09-22T10:48:42Z</time>
      </trkpt>
      <trkpt lat="46.49272" lon="4.78613">
        <ele>331</ele>
        <time>2020-09-22T10:48:47Z</time>
      </trkpt>
      <trkpt lat="46.49247" lon="4.78599">
        <ele>331</ele>
        <time>2020-09-22T10:48:53Z</time>
      </trkpt>
      <trkpt lat="46.49225" lon="4.78578">
        <ele>332</ele>
        <time>2020-09-22T10:48:59Z</time>
      </trkpt>
      <trkpt lat="46.49112" lon="4.7851">
        <ele>331</ele>
        <time>2020-09-22T10:49:28Z</time>
      </trkpt>
      <trkpt lat="46.49101" lon="4.785">
        <ele>331</ele>
        <time>2020-09-22T10:49:31Z</time>
      </trkpt>
      <trkpt lat="46.49078" lon="4.78472">
        <ele>332</ele>
        <time>2020-09-22T10:49:38Z</time>
      </trkpt>
      <trkpt lat="46.49053" lon="4.78455">
        <ele>331</ele>
        <time>2020-09-22T10:49:44Z</time>
      </trkpt>
      <trkpt lat="46.49008" lon="4.78418">
        <ele>330</ele>
        <time>2020-09-22T10:49:57Z</time>
      </trkpt>
      <trkpt lat="46.48995" lon="4.7841">
        <ele>329</ele>
        <time>2020-09-22T10:50:00Z</time>
      </trkpt>
      <trkpt lat="46.48983" lon="4.78406">
        <ele>329</ele>
        <time>2020-09-22T10:50:03Z</time>
      </trkpt>
      <trkpt lat="46.48964" lon="4.78404">
        <ele>328</ele>
        <time>2020-09-22T10:50:07Z</time>
      </trkpt>
      <trkpt lat="46.48939" lon="4.78394">
        <ele>327</ele>
        <time>2020-09-22T10:50:13Z</time>
      </trkpt>
      <trkpt lat="46.489" lon="4.78374">
        <ele>327</ele>
        <time>2020-09-22T10:50:23Z</time>
      </trkpt>
      <trkpt lat="46.48886" lon="4.7837">
        <ele>327</ele>
        <time>2020-09-22T10:50:26Z</time>
      </trkpt>
      <trkpt lat="46.48863" lon="4.78368">
        <ele>327</ele>
        <time>2020-09-22T10:50:32Z</time>
      </trkpt>
      <trkpt lat="46.48839" lon="4.78374">
        <ele>325</ele>
        <time>2020-09-22T10:50:37Z</time>
      </trkpt>
      <trkpt lat="46.48796" lon="4.78429">
        <ele>318</ele>
        <time>2020-09-22T10:50:51Z</time>
      </trkpt>
      <trkpt lat="46.48777" lon="4.78446">
        <ele>316</ele>
        <time>2020-09-22T10:50:56Z</time>
      </trkpt>
      <trkpt lat="46.48758" lon="4.78457">
        <ele>315</ele>
        <time>2020-09-22T10:51:01Z</time>
      </trkpt>
      <trkpt lat="46.48711" lon="4.78507">
        <ele>310</ele>
        <time>2020-09-22T10:51:14Z</time>
      </trkpt>
      <trkpt lat="46.48664" lon="4.78544">
        <ele>308</ele>
        <time>2020-09-22T10:51:27Z</time>
      </trkpt>
      <trkpt lat="46.48608" lon="4.78581">
        <ele>306</ele>
        <time>2020-09-22T10:51:41Z</time>
      </trkpt>
      <trkpt lat="46.48584" lon="4.78608">
        <ele>306</ele>
        <time>2020-09-22T10:51:48Z</time>
      </trkpt>
      <trkpt lat="46.48569" lon="4.78612">
        <ele>305</ele>
        <time>2020-09-22T10:51:52Z</time>
      </trkpt>
      <trkpt lat="46.48506" lon="4.78576">
        <ele>302</ele>
        <time>2020-09-22T10:52:08Z</time>
      </trkpt>
      <trkpt lat="46.48445" lon="4.78531">
        <ele>297</ele>
        <time>2020-09-22T10:52:24Z</time>
      </trkpt>
      <trkpt lat="46.48432" lon="4.78526">
        <ele>295</ele>
        <time>2020-09-22T10:52:27Z</time>
      </trkpt>
      <trkpt lat="46.48376" lon="4.7849">
        <ele>292</ele>
        <time>2020-09-22T10:52:41Z</time>
      </trkpt>
      <trkpt lat="46.48315" lon="4.7846">
        <ele>289</ele>
        <time>2020-09-22T10:52:56Z</time>
      </trkpt>
      <trkpt lat="46.483" lon="4.7846">
        <ele>289</ele>
        <time>2020-09-22T10:52:59Z</time>
      </trkpt>
      <trkpt lat="46.48286" lon="4.78468">
        <ele>287</ele>
        <time>2020-09-22T10:53:03Z</time>
      </trkpt>
      <trkpt lat="46.48259" lon="4.78517">
        <ele>279</ele>
        <time>2020-09-22T10:53:13Z</time>
      </trkpt>
      <trkpt lat="46.48256" lon="4.78521">
        <ele>279</ele>
        <time>2020-09-22T10:53:14Z</time>
      </trkpt>
      <trkpt lat="46.48252" lon="4.78522">
        <ele>278</ele>
        <time>2020-09-22T10:53:15Z</time>
      </trkpt>
      <trkpt lat="46.48208" lon="4.78517">
        <ele>274</ele>
        <time>2020-09-22T10:53:25Z</time>
      </trkpt>
      <trkpt lat="46.48156" lon="4.78491">
        <ele>272</ele>
        <time>2020-09-22T10:53:38Z</time>
      </trkpt>
      <trkpt lat="46.48133" lon="4.78491">
        <ele>270</ele>
        <time>2020-09-22T10:53:44Z</time>
      </trkpt>
      <trkpt lat="46.48122" lon="4.78498">
        <ele>268</ele>
        <time>2020-09-22T10:53:46Z</time>
      </trkpt>
      <trkpt lat="46.4812" lon="4.78454">
        <ele>272</ele>
        <time>2020-09-22T10:53:53Z</time>
      </trkpt>
      <trkpt lat="46.48118" lon="4.7844">
        <ele>273</ele>
        <time>2020-09-22T10:53:56Z</time>
      </trkpt>
      <trkpt lat="46.48112" lon="4.78423">
        <ele>274</ele>
        <time>2020-09-22T10:53:59Z</time>
      </trkpt>
      <trkpt lat="46.48102" lon="4.78353">
        <ele>280</ele>
        <time>2020-09-22T10:54:10Z</time>
      </trkpt>
      <trkpt lat="46.48101" lon="4.78332">
        <ele>282</ele>
        <time>2020-09-22T10:54:14Z</time>
      </trkpt>
      <trkpt lat="46.48105" lon="4.7832">
        <ele>284</ele>
        <time>2020-09-22T10:54:16Z</time>
      </trkpt>
      <trkpt lat="46.48107" lon="4.78292">
        <ele>287</ele>
        <time>2020-09-22T10:54:20Z</time>
      </trkpt>
      <trkpt lat="46.48099" lon="4.7825">
        <ele>290</ele>
        <time>2020-09-22T10:54:27Z</time>
      </trkpt>
      <trkpt lat="46.4808" lon="4.78177">
        <ele>294</ele>
        <time>2020-09-22T10:54:40Z</time>
      </trkpt>
      <trkpt lat="46.48065" lon="4.78132">
        <ele>298</ele>
        <time>2020-09-22T10:54:48Z</time>
      </trkpt>
      <trkpt lat="46.48029" lon="4.78076">
        <ele>300</ele>
        <time>2020-09-22T10:55:00Z</time>
      </trkpt>
      <trkpt lat="46.48005" lon="4.78029">
        <ele>302</ele>
        <time>2020-09-22T10:55:10Z</time>
      </trkpt>
      <trkpt lat="46.47967" lon="4.77982">
        <ele>303</ele>
        <time>2020-09-22T10:55:21Z</time>
      </trkpt>
      <trkpt lat="46.47951" lon="4.77977">
        <ele>302</ele>
        <time>2020-09-22T10:55:25Z</time>
      </trkpt>
      <trkpt lat="46.47923" lon="4.77979">
        <ele>298</ele>
        <time>2020-09-22T10:55:32Z</time>
      </trkpt>
      <trkpt lat="46.47899" lon="4.77971">
        <ele>297</ele>
        <time>2020-09-22T10:55:37Z</time>
      </trkpt>
      <trkpt lat="46.47878" lon="4.7796">
        <ele>297</ele>
        <time>2020-09-22T10:55:43Z</time>
      </trkpt>
      <trkpt lat="46.47827" lon="4.77925">
        <ele>296</ele>
        <time>2020-09-22T10:55:56Z</time>
      </trkpt>
      <trkpt lat="46.4777" lon="4.77894">
        <ele>295</ele>
        <time>2020-09-22T10:56:10Z</time>
      </trkpt>
      <trkpt lat="46.4771" lon="4.77851">
        <ele>295</ele>
        <time>2020-09-22T10:56:26Z</time>
      </trkpt>
      <trkpt lat="46.47677" lon="4.77824">
        <ele>295</ele>
        <time>2020-09-22T10:56:35Z</time>
      </trkpt>
      <trkpt lat="46.47617" lon="4.77786">
        <ele>295</ele>
        <time>2020-09-22T10:56:50Z</time>
      </trkpt>
      <trkpt lat="46.47611" lon="4.77786">
        <ele>295</ele>
        <time>2020-09-22T10:56:51Z</time>
      </trkpt>
      <trkpt lat="46.47608" lon="4.77791">
        <ele>295</ele>
        <time>2020-09-22T10:56:52Z</time>
      </trkpt>
      <trkpt lat="46.4758" lon="4.77855">
        <ele>289</ele>
        <time>2020-09-22T10:57:04Z</time>
      </trkpt>
      <trkpt lat="46.47524" lon="4.78029">
        <ele>278</ele>
        <time>2020-09-22T10:57:35Z</time>
      </trkpt>
      <trkpt lat="46.47492" lon="4.78024">
        <ele>277</ele>
        <time>2020-09-22T10:57:43Z</time>
      </trkpt>
      <trkpt lat="46.47474" lon="4.78017">
        <ele>277</ele>
        <time>2020-09-22T10:57:47Z</time>
      </trkpt>
      <trkpt lat="46.47466" lon="4.78017">
        <ele>277</ele>
        <time>2020-09-22T10:57:49Z</time>
      </trkpt>
      <trkpt lat="46.47477" lon="4.78036">
        <ele>276</ele>
        <time>2020-09-22T10:57:53Z</time>
      </trkpt>
      <trkpt lat="46.4748" lon="4.78062">
        <ele>275</ele>
        <time>2020-09-22T10:57:57Z</time>
      </trkpt>
      <trkpt lat="46.47476" lon="4.78084">
        <ele>274</ele>
        <time>2020-09-22T10:58:01Z</time>
      </trkpt>
      <trkpt lat="46.47456" lon="4.78157">
        <ele>269</ele>
        <time>2020-09-22T10:58:14Z</time>
      </trkpt>
      <trkpt lat="46.47458" lon="4.78159">
        <ele>269</ele>
        <time>2020-09-22T10:58:14Z</time>
      </trkpt>
      <trkpt lat="46.47456" lon="4.78157">
        <ele>269</ele>
        <time>2020-09-22T10:58:15Z</time>
      </trkpt>
      <trkpt lat="46.47446" lon="4.78188">
        <ele>267</ele>
        <time>2020-09-22T10:58:20Z</time>
      </trkpt>
      <trkpt lat="46.47428" lon="4.7823">
        <ele>265</ele>
        <time>2020-09-22T10:58:28Z</time>
      </trkpt>
      <trkpt lat="46.4743" lon="4.78244">
        <ele>265</ele>
        <time>2020-09-22T10:58:31Z</time>
      </trkpt>
      <trkpt lat="46.47442" lon="4.78276">
        <ele>264</ele>
        <time>2020-09-22T10:58:36Z</time>
      </trkpt>
      <trkpt lat="46.47439" lon="4.78307">
        <ele>263</ele>
        <time>2020-09-22T10:58:41Z</time>
      </trkpt>
      <trkpt lat="46.47429" lon="4.78333">
        <ele>262</ele>
        <time>2020-09-22T10:58:46Z</time>
      </trkpt>
      <trkpt lat="46.47332" lon="4.78504">
        <ele>262</ele>
        <time>2020-09-22T10:59:22Z</time>
      </trkpt>
      <trkpt lat="46.47308" lon="4.78552">
        <ele>266</ele>
        <time>2020-09-22T10:59:31Z</time>
      </trkpt>
      <trkpt lat="46.47307" lon="4.7857">
        <ele>267</ele>
        <time>2020-09-22T10:59:34Z</time>
      </trkpt>
      <trkpt lat="46.4731" lon="4.78584">
        <ele>268</ele>
        <time>2020-09-22T10:59:37Z</time>
      </trkpt>
      <trkpt lat="46.47363" lon="4.78755">
        <ele>276</ele>
        <time>2020-09-22T11:00:07Z</time>
      </trkpt>
      <trkpt lat="46.47365" lon="4.78764">
        <ele>277</ele>
        <time>2020-09-22T11:00:08Z</time>
      </trkpt>
      <trkpt lat="46.47363" lon="4.78777">
        <ele>278</ele>
        <time>2020-09-22T11:00:10Z</time>
      </trkpt>
      <trkpt lat="46.47355" lon="4.78777">
        <ele>279</ele>
        <time>2020-09-22T11:00:12Z</time>
      </trkpt>
      <trkpt lat="46.47303" lon="4.78726">
        <ele>279</ele>
        <time>2020-09-22T11:00:27Z</time>
      </trkpt>
      <trkpt lat="46.47291" lon="4.78719">
        <ele>280</ele>
        <time>2020-09-22T11:00:30Z</time>
      </trkpt>
      <trkpt lat="46.47283" lon="4.78719">
        <ele>280</ele>
        <time>2020-09-22T11:00:32Z</time>
      </trkpt>
      <trkpt lat="46.47272" lon="4.78723">
        <ele>282</ele>
        <time>2020-09-22T11:00:35Z</time>
      </trkpt>
      <trkpt lat="46.47261" lon="4.78738">
        <ele>284</ele>
        <time>2020-09-22T11:00:38Z</time>
      </trkpt>
      <trkpt lat="46.47198" lon="4.78864">
        <ele>292</ele>
        <time>2020-09-22T11:01:03Z</time>
      </trkpt>
      <trkpt lat="46.47143" lon="4.78947">
        <ele>292</ele>
        <time>2020-09-22T11:01:22Z</time>
      </trkpt>
      <trkpt lat="46.47105" lon="4.78996">
        <ele>290</ele>
        <time>2020-09-22T11:01:33Z</time>
      </trkpt>
      <trkpt lat="46.47091" lon="4.79021">
        <ele>290</ele>
        <time>2020-09-22T11:01:39Z</time>
      </trkpt>
      <trkpt lat="46.47061" lon="4.79127">
        <ele>291</ele>
        <time>2020-09-22T11:01:57Z</time>
      </trkpt>
      <trkpt lat="46.47054" lon="4.7913">
        <ele>291</ele>
        <time>2020-09-22T11:01:59Z</time>
      </trkpt>
      <trkpt lat="46.46958" lon="4.79221">
        <ele>299</ele>
        <time>2020-09-22T11:02:26Z</time>
      </trkpt>
      <trkpt lat="46.46925" lon="4.79268">
        <ele>302</ele>
        <time>2020-09-22T11:02:36Z</time>
      </trkpt>
      <trkpt lat="46.4688" lon="4.79364">
        <ele>308</ele>
        <time>2020-09-22T11:02:55Z</time>
      </trkpt>
      <trkpt lat="46.46841" lon="4.7942">
        <ele>310</ele>
        <time>2020-09-22T11:03:08Z</time>
      </trkpt>
      <trkpt lat="46.46831" lon="4.79442">
        <ele>310</ele>
        <time>2020-09-22T11:03:12Z</time>
      </trkpt>
      <trkpt lat="46.46726" lon="4.79728">
        <ele>314</ele>
        <time>2020-09-22T11:04:04Z</time>
      </trkpt>
      <trkpt lat="46.46701" lon="4.79789">
        <ele>314</ele>
        <time>2020-09-22T11:04:16Z</time>
      </trkpt>
      <trkpt lat="46.46665" lon="4.79905">
        <ele>314</ele>
        <time>2020-09-22T11:04:36Z</time>
      </trkpt>
      <trkpt lat="46.46663" lon="4.79922">
        <ele>314</ele>
        <time>2020-09-22T11:04:39Z</time>
      </trkpt>
      <trkpt lat="46.4666" lon="4.80154">
        <ele>316</ele>
        <time>2020-09-22T11:05:16Z</time>
      </trkpt>
      <trkpt lat="46.46655" lon="4.80167">
        <ele>317</ele>
        <time>2020-09-22T11:05:19Z</time>
      </trkpt>
      <trkpt lat="46.4665" lon="4.80231">
        <ele>316</ele>
        <time>2020-09-22T11:05:29Z</time>
      </trkpt>
      <trkpt lat="46.46638" lon="4.80308">
        <ele>317</ele>
        <time>2020-09-22T11:05:42Z</time>
      </trkpt>
      <trkpt lat="46.46629" lon="4.80577">
        <ele>317</ele>
        <time>2020-09-22T11:06:25Z</time>
      </trkpt>
      <trkpt lat="46.46625" lon="4.80608">
        <ele>318</ele>
        <time>2020-09-22T11:06:30Z</time>
      </trkpt>
      <trkpt lat="46.46618" lon="4.80621">
        <ele>319</ele>
        <time>2020-09-22T11:06:33Z</time>
      </trkpt>
      <trkpt lat="46.46835" lon="4.80754">
        <ele>292</ele>
        <time>2020-09-22T11:07:28Z</time>
      </trkpt>
      <trkpt lat="46.46857" lon="4.80788">
        <ele>287</ele>
        <time>2020-09-22T11:07:35Z</time>
      </trkpt>
      <trkpt lat="46.46881" lon="4.80806">
        <ele>282</ele>
        <time>2020-09-22T11:07:42Z</time>
      </trkpt>
      <trkpt lat="46.46914" lon="4.80845">
        <ele>272</ele>
        <time>2020-09-22T11:07:51Z</time>
      </trkpt>
      <trkpt lat="46.46943" lon="4.80863">
        <ele>264</ele>
        <time>2020-09-22T11:07:59Z</time>
      </trkpt>
      <trkpt lat="46.46975" lon="4.80859">
        <ele>257</ele>
        <time>2020-09-22T11:08:06Z</time>
      </trkpt>
      <trkpt lat="46.4698" lon="4.80842">
        <ele>258</ele>
        <time>2020-09-22T11:08:09Z</time>
      </trkpt>
      <trkpt lat="46.4699" lon="4.80829">
        <ele>257</ele>
        <time>2020-09-22T11:08:12Z</time>
      </trkpt>
      <trkpt lat="46.47001" lon="4.8083">
        <ele>254</ele>
        <time>2020-09-22T11:08:15Z</time>
      </trkpt>
      <trkpt lat="46.47047" lon="4.80858">
        <ele>242</ele>
        <time>2020-09-22T11:08:27Z</time>
      </trkpt>
      <trkpt lat="46.47073" lon="4.80871">
        <ele>237</ele>
        <time>2020-09-22T11:08:33Z</time>
      </trkpt>
      <trkpt lat="46.47081" lon="4.80871">
        <ele>235</ele>
        <time>2020-09-22T11:08:35Z</time>
      </trkpt>
      <trkpt lat="46.47095" lon="4.80868">
        <ele>234</ele>
        <time>2020-09-22T11:08:38Z</time>
      </trkpt>
      <trkpt lat="46.47126" lon="4.80853">
        <ele>233</ele>
        <time>2020-09-22T11:08:46Z</time>
      </trkpt>
      <trkpt lat="46.47134" lon="4.80844">
        <ele>232</ele>
        <time>2020-09-22T11:08:48Z</time>
      </trkpt>
      <trkpt lat="46.47158" lon="4.80829">
        <ele>231</ele>
        <time>2020-09-22T11:08:54Z</time>
      </trkpt>
    </trkseg>
  </trk>
  <trk>
    <name><![CDATA[15 Une boucle pour une descente - rouge]]></name>
    <extensions>
      <line xmlns="http://www.topografix.com/GPX/gpx_style/0/2">
        <color>ff00ea</color>
        <width>4</width>
      </line>
    </extensions>
    <trkseg>
      <trkpt lat="46.47158" lon="4.80829">
        <ele>229.4</ele>
      </trkpt>
      <trkpt lat="46.47173" lon="4.80822">
        <ele>229</ele>
      </trkpt>
      <trkpt lat="46.47189" lon="4.80814">
        <ele>228.1</ele>
      </trkpt>
      <trkpt lat="46.47198" lon="4.80809">
        <ele>227.9</ele>
      </trkpt>
      <trkpt lat="46.47227" lon="4.80795">
        <ele>228.3</ele>
      </trkpt>
      <trkpt lat="46.47226" lon="4.80799">
        <ele>228.1</ele>
      </trkpt>
      <trkpt lat="46.47227" lon="4.80808">
        <ele>227.8</ele>
      </trkpt>
      <trkpt lat="46.47237" lon="4.80858">
        <ele>226.2</ele>
      </trkpt>
      <trkpt lat="46.47245" lon="4.80896">
        <ele>225.8</ele>
      </trkpt>
      <trkpt lat="46.47232" lon="4.80904">
        <ele>225.4</ele>
      </trkpt>
      <trkpt lat="46.47219" lon="4.80908">
        <ele>225.4</ele>
      </trkpt>
      <trkpt lat="46.47212" lon="4.80911">
        <ele>225.5</ele>
      </trkpt>
      <trkpt lat="46.47206" lon="4.80916">
        <ele>225.6</ele>
      </trkpt>
      <trkpt lat="46.47201" lon="4.80924">
        <ele>225.5</ele>
      </trkpt>
      <trkpt lat="46.47197" lon="4.80929">
        <ele>225.5</ele>
      </trkpt>
      <trkpt lat="46.47194" lon="4.80933">
        <ele>225.4</ele>
      </trkpt>
      <trkpt lat="46.47188" lon="4.80939">
        <ele>225.4</ele>
      </trkpt>
      <trkpt lat="46.47181" lon="4.80944">
        <ele>225.5</ele>
      </trkpt>
      <trkpt lat="46.47185" lon="4.80962">
        <ele>225.3</ele>
      </trkpt>
      <trkpt lat="46.47189" lon="4.80987">
        <ele>225.1</ele>
      </trkpt>
      <trkpt lat="46.47189" lon="4.80991">
        <ele>225.1</ele>
      </trkpt>
      <trkpt lat="46.47191" lon="4.81006">
        <ele>225</ele>
      </trkpt>
      <trkpt lat="46.47191" lon="4.81013">
        <ele>225</ele>
      </trkpt>
      <trkpt lat="46.47191" lon="4.81027">
        <ele>225</ele>
      </trkpt>
      <trkpt lat="46.47192" lon="4.81059">
        <ele>224.1</ele>
      </trkpt>
      <trkpt lat="46.47193" lon="4.81075">
        <ele>224</ele>
      </trkpt>
      <trkpt lat="46.47195" lon="4.81096">
        <ele>224</ele>
      </trkpt>
      <trkpt lat="46.47196" lon="4.81119">
        <ele>224</ele>
      </trkpt>
      <trkpt lat="46.47198" lon="4.81191">
        <ele>223.1</ele>
      </trkpt>
      <trkpt lat="46.472" lon="4.81242">
        <ele>223</ele>
      </trkpt>
      <trkpt lat="46.47202" lon="4.81294">
        <ele>222.8</ele>
      </trkpt>
      <trkpt lat="46.47203" lon="4.81329">
        <ele>222.7</ele>
      </trkpt>
      <trkpt lat="46.47204" lon="4.81357">
        <ele>222.6</ele>
      </trkpt>
      <trkpt lat="46.47205" lon="4.81381">
        <ele>221.9</ele>
      </trkpt>
      <trkpt lat="46.47205" lon="4.81403">
        <ele>221.6</ele>
      </trkpt>
      <trkpt lat="46.47204" lon="4.81442">
        <ele>221.7</ele>
      </trkpt>
      <trkpt lat="46.47201" lon="4.81508">
        <ele>221.1</ele>
      </trkpt>
      <trkpt lat="46.47199" lon="4.81563">
        <ele>221.1</ele>
      </trkpt>
      <trkpt lat="46.47198" lon="4.81578">
        <ele>221</ele>
      </trkpt>
      <trkpt lat="46.47197" lon="4.81646">
        <ele>220.7</ele>
      </trkpt>
      <trkpt lat="46.47202" lon="4.81646">
        <ele>220.5</ele>
      </trkpt>
      <trkpt lat="46.47207" lon="4.81645">
        <ele>220.4</ele>
      </trkpt>
      <trkpt lat="46.47215" lon="4.81641">
        <ele>220.3</ele>
      </trkpt>
      <trkpt lat="46.47244" lon="4.81607">
        <ele>221</ele>
      </trkpt>
      <trkpt lat="46.47291" lon="4.81552">
        <ele>221.1</ele>
      </trkpt>
      <trkpt lat="46.4732" lon="4.81521">
        <ele>220.6</ele>
      </trkpt>
      <trkpt lat="46.47326" lon="4.81514">
        <ele>220.9</ele>
      </trkpt>
      <trkpt lat="46.47334" lon="4.81503">
        <ele>221.8</ele>
      </trkpt>
      <trkpt lat="46.47338" lon="4.81492">
        <ele>221.6</ele>
      </trkpt>
      <trkpt lat="46.47339" lon="4.81486">
        <ele>221.4</ele>
      </trkpt>
      <trkpt lat="46.47343" lon="4.81493">
        <ele>221.5</ele>
      </trkpt>
      <trkpt lat="46.47347" lon="4.81504">
        <ele>221.3</ele>
      </trkpt>
      <trkpt lat="46.4735" lon="4.81517">
        <ele>220.5</ele>
      </trkpt>
      <trkpt lat="46.47358" lon="4.81574">
        <ele>221.2</ele>
      </trkpt>
      <trkpt lat="46.47361" lon="4.81594">
        <ele>222</ele>
      </trkpt>
      <trkpt lat="46.47375" lon="4.8168">
        <ele>221.2</ele>
      </trkpt>
      <trkpt lat="46.47386" lon="4.81751">
        <ele>226.8</ele>
      </trkpt>
      <trkpt lat="46.47394" lon="4.81798">
        <ele>229</ele>
      </trkpt>
      <trkpt lat="46.47408" lon="4.81781">
        <ele>228.9</ele>
      </trkpt>
      <trkpt lat="46.47419" lon="4.81765">
        <ele>228.7</ele>
      </trkpt>
      <trkpt lat="46.47427" lon="4.81753">
        <ele>228.5</ele>
      </trkpt>
      <trkpt lat="46.47431" lon="4.81743">
        <ele>227.8</ele>
      </trkpt>
      <trkpt lat="46.47436" lon="4.81732">
        <ele>226.8</ele>
      </trkpt>
      <trkpt lat="46.4744" lon="4.8171">
        <ele>224.5</ele>
      </trkpt>
      <trkpt lat="46.47442" lon="4.81691">
        <ele>222.9</ele>
      </trkpt>
      <trkpt lat="46.47442" lon="4.81656">
        <ele>221.9</ele>
      </trkpt>
      <trkpt lat="46.47442" lon="4.81631">
        <ele>221.7</ele>
      </trkpt>
      <trkpt lat="46.47442" lon="4.81606">
        <ele>221</ele>
      </trkpt>
      <trkpt lat="46.47493" lon="4.81601">
        <ele>221.5</ele>
      </trkpt>
      <trkpt lat="46.47499" lon="4.81601">
        <ele>221.6</ele>
      </trkpt>
      <trkpt lat="46.47504" lon="4.816">
        <ele>221.7</ele>
      </trkpt>
      <trkpt lat="46.47507" lon="4.81601">
        <ele>221.7</ele>
      </trkpt>
      <trkpt lat="46.4755" lon="4.81596">
        <ele>222</ele>
      </trkpt>
      <trkpt lat="46.47603" lon="4.81591">
        <ele>223</ele>
      </trkpt>
      <trkpt lat="46.47634" lon="4.81587">
        <ele>223.1</ele>
      </trkpt>
      <trkpt lat="46.47643" lon="4.81587">
        <ele>223.3</ele>
      </trkpt>
      <trkpt lat="46.47651" lon="4.81588">
        <ele>223.6</ele>
      </trkpt>
      <trkpt lat="46.47656" lon="4.8159">
        <ele>223.8</ele>
      </trkpt>
      <trkpt lat="46.47674" lon="4.81597">
        <ele>224.5</ele>
      </trkpt>
      <trkpt lat="46.47683" lon="4.816">
        <ele>224.6</ele>
      </trkpt>
      <trkpt lat="46.47692" lon="4.81601">
        <ele>224.6</ele>
      </trkpt>
      <trkpt lat="46.477" lon="4.81601">
        <ele>224.6</ele>
      </trkpt>
      <trkpt lat="46.47708" lon="4.81601">
        <ele>224.6</ele>
      </trkpt>
      <trkpt lat="46.47739" lon="4.81593">
        <ele>225</ele>
      </trkpt>
      <trkpt lat="46.47752" lon="4.81589">
        <ele>225.3</ele>
      </trkpt>
      <trkpt lat="46.47761" lon="4.81586">
        <ele>225.4</ele>
      </trkpt>
      <trkpt lat="46.47792" lon="4.81578">
        <ele>225.8</ele>
      </trkpt>
      <trkpt lat="46.47823" lon="4.81571">
        <ele>225.8</ele>
      </trkpt>
      <trkpt lat="46.47844" lon="4.81566">
        <ele>226</ele>
      </trkpt>
      <trkpt lat="46.47861" lon="4.81564">
        <ele>226</ele>
      </trkpt>
      <trkpt lat="46.47878" lon="4.81564">
        <ele>226.6</ele>
      </trkpt>
      <trkpt lat="46.47894" lon="4.81564">
        <ele>227</ele>
      </trkpt>
      <trkpt lat="46.4791" lon="4.81569">
        <ele>227</ele>
      </trkpt>
      <trkpt lat="46.47924" lon="4.81573">
        <ele>227.3</ele>
      </trkpt>
      <trkpt lat="46.47931" lon="4.81574">
        <ele>227.5</ele>
      </trkpt>
      <trkpt lat="46.47934" lon="4.81573">
        <ele>227.6</ele>
      </trkpt>
      <trkpt lat="46.47937" lon="4.8157">
        <ele>227.7</ele>
      </trkpt>
      <trkpt lat="46.4794" lon="4.81565">
        <ele>227.8</ele>
      </trkpt>
      <trkpt lat="46.47942" lon="4.81555">
        <ele>227.9</ele>
      </trkpt>
      <trkpt lat="46.47948" lon="4.81515">
        <ele>227.5</ele>
      </trkpt>
      <trkpt lat="46.47958" lon="4.8147">
        <ele>227.4</ele>
      </trkpt>
      <trkpt lat="46.4795" lon="4.81459">
        <ele>227.1</ele>
      </trkpt>
      <trkpt lat="46.47934" lon="4.81433">
        <ele>227</ele>
      </trkpt>
      <trkpt lat="46.47924" lon="4.81413">
        <ele>226.9</ele>
      </trkpt>
      <trkpt lat="46.47916" lon="4.81391">
        <ele>226.1</ele>
      </trkpt>
      <trkpt lat="46.4791" lon="4.81372">
        <ele>226.4</ele>
      </trkpt>
      <trkpt lat="46.47904" lon="4.81359">
        <ele>226.6</ele>
      </trkpt>
      <trkpt lat="46.47927" lon="4.81344">
        <ele>228</ele>
      </trkpt>
      <trkpt lat="46.47937" lon="4.81339">
        <ele>228.5</ele>
      </trkpt>
      <trkpt lat="46.47948" lon="4.81336">
        <ele>229</ele>
      </trkpt>
      <trkpt lat="46.47959" lon="4.81336">
        <ele>229.4</ele>
      </trkpt>
      <trkpt lat="46.47968" lon="4.81338">
        <ele>229.7</ele>
      </trkpt>
      <trkpt lat="46.47981" lon="4.81343">
        <ele>229.8</ele>
      </trkpt>
      <trkpt lat="46.48" lon="4.81348">
        <ele>230</ele>
      </trkpt>
      <trkpt lat="46.48018" lon="4.81349">
        <ele>229.6</ele>
      </trkpt>
      <trkpt lat="46.48038" lon="4.81346">
        <ele>229.5</ele>
      </trkpt>
      <trkpt lat="46.4806" lon="4.81343">
        <ele>229.6</ele>
      </trkpt>
      <trkpt lat="46.48064" lon="4.81344">
        <ele>229.6</ele>
      </trkpt>
      <trkpt lat="46.48069" lon="4.81346">
        <ele>229.6</ele>
      </trkpt>
      <trkpt lat="46.48073" lon="4.81328">
        <ele>230.2</ele>
      </trkpt>
      <trkpt lat="46.48073" lon="4.81316">
        <ele>230.6</ele>
      </trkpt>
      <trkpt lat="46.48073" lon="4.81306">
        <ele>231</ele>
      </trkpt>
      <trkpt lat="46.48071" lon="4.81298">
        <ele>231.7</ele>
      </trkpt>
      <trkpt lat="46.48067" lon="4.81295">
        <ele>232</ele>
      </trkpt>
      <trkpt lat="46.48063" lon="4.81293">
        <ele>232.2</ele>
      </trkpt>
      <trkpt lat="46.48049" lon="4.81293">
        <ele>232.6</ele>
      </trkpt>
      <trkpt lat="46.48027" lon="4.81292">
        <ele>233.4</ele>
      </trkpt>
      <trkpt lat="46.48016" lon="4.81288">
        <ele>234.1</ele>
      </trkpt>
      <trkpt lat="46.4801" lon="4.81284">
        <ele>234.9</ele>
      </trkpt>
      <trkpt lat="46.48005" lon="4.81276">
        <ele>236</ele>
      </trkpt>
      <trkpt lat="46.48" lon="4.81259">
        <ele>238</ele>
      </trkpt>
      <trkpt lat="46.47996" lon="4.81242">
        <ele>240.2</ele>
      </trkpt>
      <trkpt lat="46.47988" lon="4.81224">
        <ele>242.7</ele>
      </trkpt>
      <trkpt lat="46.4798" lon="4.8121">
        <ele>245.1</ele>
      </trkpt>
      <trkpt lat="46.47967" lon="4.81195">
        <ele>247.9</ele>
      </trkpt>
      <trkpt lat="46.47946" lon="4.81178">
        <ele>251.5</ele>
      </trkpt>
      <trkpt lat="46.47923" lon="4.81163">
        <ele>253.2</ele>
      </trkpt>
      <trkpt lat="46.47895" lon="4.81148">
        <ele>256.7</ele>
      </trkpt>
      <trkpt lat="46.47881" lon="4.81139">
        <ele>259.2</ele>
      </trkpt>
      <trkpt lat="46.47869" lon="4.81127">
        <ele>261.6</ele>
      </trkpt>
      <trkpt lat="46.47863" lon="4.81117">
        <ele>263.2</ele>
      </trkpt>
      <trkpt lat="46.47857" lon="4.81108">
        <ele>264.5</ele>
      </trkpt>
      <trkpt lat="46.47855" lon="4.81097">
        <ele>266</ele>
      </trkpt>
      <trkpt lat="46.47854" lon="4.81083">
        <ele>268</ele>
      </trkpt>
      <trkpt lat="46.47855" lon="4.81071">
        <ele>269.3</ele>
      </trkpt>
      <trkpt lat="46.47858" lon="4.81055">
        <ele>271.1</ele>
      </trkpt>
      <trkpt lat="46.47859" lon="4.81042">
        <ele>272.4</ele>
      </trkpt>
      <trkpt lat="46.47858" lon="4.81034">
        <ele>273.4</ele>
      </trkpt>
      <trkpt lat="46.47855" lon="4.81026">
        <ele>274.1</ele>
      </trkpt>
      <trkpt lat="46.47848" lon="4.81014">
        <ele>275.3</ele>
      </trkpt>
      <trkpt lat="46.47838" lon="4.81002">
        <ele>276</ele>
      </trkpt>
      <trkpt lat="46.47825" lon="4.80989">
        <ele>276.6</ele>
      </trkpt>
      <trkpt lat="46.4782" lon="4.80984">
        <ele>277</ele>
      </trkpt>
      <trkpt lat="46.47803" lon="4.8097">
        <ele>278.1</ele>
      </trkpt>
      <trkpt lat="46.47784" lon="4.80958">
        <ele>278.8</ele>
      </trkpt>
      <trkpt lat="46.47773" lon="4.80952">
        <ele>278.9</ele>
      </trkpt>
      <trkpt lat="46.47765" lon="4.80949">
        <ele>278.7</ele>
      </trkpt>
      <trkpt lat="46.4775" lon="4.80945">
        <ele>277.9</ele>
      </trkpt>
      <trkpt lat="46.47731" lon="4.80939">
        <ele>277.6</ele>
      </trkpt>
      <trkpt lat="46.4771" lon="4.80929">
        <ele>276.3</ele>
      </trkpt>
      <trkpt lat="46.47696" lon="4.80921">
        <ele>275.6</ele>
      </trkpt>
      <trkpt lat="46.47672" lon="4.80908">
        <ele>275</ele>
      </trkpt>
      <trkpt lat="46.47658" lon="4.80902">
        <ele>273.9</ele>
      </trkpt>
      <trkpt lat="46.47649" lon="4.80894">
        <ele>273.5</ele>
      </trkpt>
      <trkpt lat="46.47639" lon="4.80882">
        <ele>273.2</ele>
      </trkpt>
      <trkpt lat="46.47632" lon="4.80874">
        <ele>272.6</ele>
      </trkpt>
      <trkpt lat="46.47626" lon="4.80868">
        <ele>272.3</ele>
      </trkpt>
      <trkpt lat="46.47621" lon="4.80863">
        <ele>271.9</ele>
      </trkpt>
      <trkpt lat="46.4763" lon="4.80849">
        <ele>273</ele>
      </trkpt>
      <trkpt lat="46.4765" lon="4.80817">
        <ele>274.2</ele>
      </trkpt>
      <trkpt lat="46.47662" lon="4.80804">
        <ele>274.6</ele>
      </trkpt>
      <trkpt lat="46.47673" lon="4.80787">
        <ele>275.6</ele>
      </trkpt>
      <trkpt lat="46.47683" lon="4.80769">
        <ele>276.6</ele>
      </trkpt>
      <trkpt lat="46.47697" lon="4.80744">
        <ele>278.2</ele>
      </trkpt>
      <trkpt lat="46.47706" lon="4.80728">
        <ele>278.9</ele>
      </trkpt>
      <trkpt lat="46.47714" lon="4.8072">
        <ele>279.4</ele>
      </trkpt>
      <trkpt lat="46.47729" lon="4.80706">
        <ele>280.6</ele>
      </trkpt>
      <trkpt lat="46.47758" lon="4.80688">
        <ele>281.8</ele>
      </trkpt>
      <trkpt lat="46.47772" lon="4.80676">
        <ele>282.5</ele>
      </trkpt>
      <trkpt lat="46.47791" lon="4.80661">
        <ele>282.9</ele>
      </trkpt>
      <trkpt lat="46.47814" lon="4.80639">
        <ele>284.3</ele>
      </trkpt>
      <trkpt lat="46.47821" lon="4.80635">
        <ele>284.3</ele>
      </trkpt>
      <trkpt lat="46.47834" lon="4.80629">
        <ele>284.7</ele>
      </trkpt>
      <trkpt lat="46.47885" lon="4.80613">
        <ele>288.7</ele>
      </trkpt>
      <trkpt lat="46.47915" lon="4.80604">
        <ele>289.9</ele>
      </trkpt>
      <trkpt lat="46.47948" lon="4.80594">
        <ele>291.1</ele>
      </trkpt>
      <trkpt lat="46.47975" lon="4.80588">
        <ele>292.1</ele>
      </trkpt>
      <trkpt lat="46.47998" lon="4.80584">
        <ele>292.9</ele>
      </trkpt>
      <trkpt lat="46.48027" lon="4.80578">
        <ele>294</ele>
      </trkpt>
      <trkpt lat="46.4806" lon="4.80568">
        <ele>295.7</ele>
      </trkpt>
      <trkpt lat="46.48112" lon="4.80554">
        <ele>298.1</ele>
      </trkpt>
      <trkpt lat="46.48138" lon="4.80546">
        <ele>299.9</ele>
      </trkpt>
      <trkpt lat="46.48164" lon="4.80538">
        <ele>302.1</ele>
      </trkpt>
      <trkpt lat="46.48196" lon="4.80531">
        <ele>304.2</ele>
      </trkpt>
      <trkpt lat="46.48208" lon="4.8053">
        <ele>305</ele>
      </trkpt>
      <trkpt lat="46.48221" lon="4.8053">
        <ele>306</ele>
      </trkpt>
      <trkpt lat="46.4823" lon="4.80526">
        <ele>306.8</ele>
      </trkpt>
      <trkpt lat="46.48247" lon="4.80517">
        <ele>307.9</ele>
      </trkpt>
      <trkpt lat="46.48266" lon="4.80503">
        <ele>308.3</ele>
      </trkpt>
      <trkpt lat="46.48285" lon="4.80491">
        <ele>308.9</ele>
      </trkpt>
      <trkpt lat="46.48309" lon="4.80481">
        <ele>309.8</ele>
      </trkpt>
      <trkpt lat="46.48333" lon="4.80471">
        <ele>310.9</ele>
      </trkpt>
      <trkpt lat="46.48359" lon="4.80464">
        <ele>311.3</ele>
      </trkpt>
      <trkpt lat="46.48397" lon="4.80453">
        <ele>311.7</ele>
      </trkpt>
      <trkpt lat="46.4842" lon="4.8045">
        <ele>311.5</ele>
      </trkpt>
      <trkpt lat="46.4843" lon="4.80451">
        <ele>311.6</ele>
      </trkpt>
      <trkpt lat="46.48446" lon="4.80456">
        <ele>311.8</ele>
      </trkpt>
      <trkpt lat="46.48467" lon="4.80468">
        <ele>312.7</ele>
      </trkpt>
      <trkpt lat="46.48495" lon="4.80487">
        <ele>311.4</ele>
      </trkpt>
      <trkpt lat="46.48525" lon="4.80502">
        <ele>309.4</ele>
      </trkpt>
      <trkpt lat="46.4853" lon="4.80483">
        <ele>308.2</ele>
      </trkpt>
      <trkpt lat="46.48548" lon="4.80417">
        <ele>306.6</ele>
      </trkpt>
      <trkpt lat="46.48576" lon="4.80324">
        <ele>306.2</ele>
      </trkpt>
      <trkpt lat="46.48589" lon="4.80277">
        <ele>305.8</ele>
      </trkpt>
      <trkpt lat="46.48601" lon="4.80238">
        <ele>305</ele>
      </trkpt>
      <trkpt lat="46.48608" lon="4.80221">
        <ele>305</ele>
      </trkpt>
      <trkpt lat="46.48616" lon="4.80206">
        <ele>304.3</ele>
      </trkpt>
      <trkpt lat="46.48625" lon="4.80191">
        <ele>304</ele>
      </trkpt>
      <trkpt lat="46.48642" lon="4.80168">
        <ele>303.9</ele>
      </trkpt>
      <trkpt lat="46.4866" lon="4.80143">
        <ele>303</ele>
      </trkpt>
      <trkpt lat="46.48674" lon="4.80118">
        <ele>302.9</ele>
      </trkpt>
      <trkpt lat="46.48687" lon="4.80095">
        <ele>303</ele>
      </trkpt>
      <trkpt lat="46.48699" lon="4.80075">
        <ele>302.9</ele>
      </trkpt>
      <trkpt lat="46.48714" lon="4.80054">
        <ele>303</ele>
      </trkpt>
      <trkpt lat="46.48724" lon="4.80035">
        <ele>303.7</ele>
      </trkpt>
      <trkpt lat="46.48729" lon="4.80023">
        <ele>303.8</ele>
      </trkpt>
      <trkpt lat="46.48734" lon="4.80006">
        <ele>303.6</ele>
      </trkpt>
      <trkpt lat="46.48744" lon="4.79975">
        <ele>304.6</ele>
      </trkpt>
      <trkpt lat="46.48753" lon="4.79948">
        <ele>305</ele>
      </trkpt>
      <trkpt lat="46.48763" lon="4.79916">
        <ele>306</ele>
      </trkpt>
      <trkpt lat="46.48772" lon="4.79881">
        <ele>306.3</ele>
      </trkpt>
      <trkpt lat="46.4878" lon="4.79852">
        <ele>307.3</ele>
      </trkpt>
      <trkpt lat="46.4879" lon="4.79817">
        <ele>307.8</ele>
      </trkpt>
      <trkpt lat="46.48794" lon="4.79799">
        <ele>308.3</ele>
      </trkpt>
      <trkpt lat="46.48798" lon="4.79777">
        <ele>309</ele>
      </trkpt>
      <trkpt lat="46.48803" lon="4.79743">
        <ele>310.2</ele>
      </trkpt>
      <trkpt lat="46.48807" lon="4.79712">
        <ele>311.3</ele>
      </trkpt>
      <trkpt lat="46.4881" lon="4.79696">
        <ele>311.8</ele>
      </trkpt>
      <trkpt lat="46.48815" lon="4.79675">
        <ele>311.7</ele>
      </trkpt>
      <trkpt lat="46.48821" lon="4.7964">
        <ele>312</ele>
      </trkpt>
      <trkpt lat="46.48828" lon="4.79604">
        <ele>313</ele>
      </trkpt>
      <trkpt lat="46.48841" lon="4.79543">
        <ele>313.9</ele>
      </trkpt>
      <trkpt lat="46.48848" lon="4.79503">
        <ele>312.7</ele>
      </trkpt>
      <trkpt lat="46.48829" lon="4.79497">
        <ele>311.4</ele>
      </trkpt>
      <trkpt lat="46.48817" lon="4.79495">
        <ele>310.4</ele>
      </trkpt>
      <trkpt lat="46.48804" lon="4.79495">
        <ele>309.5</ele>
      </trkpt>
      <trkpt lat="46.48797" lon="4.79494">
        <ele>309.2</ele>
      </trkpt>
      <trkpt lat="46.48773" lon="4.79487">
        <ele>308</ele>
      </trkpt>
      <trkpt lat="46.48748" lon="4.79482">
        <ele>307</ele>
      </trkpt>
      <trkpt lat="46.48724" lon="4.79476">
        <ele>305.5</ele>
      </trkpt>
      <trkpt lat="46.48685" lon="4.79465">
        <ele>304.3</ele>
      </trkpt>
      <trkpt lat="46.48635" lon="4.79454">
        <ele>303.1</ele>
      </trkpt>
      <trkpt lat="46.4859" lon="4.79442">
        <ele>303.5</ele>
      </trkpt>
      <trkpt lat="46.48581" lon="4.79434">
        <ele>303.1</ele>
      </trkpt>
      <trkpt lat="46.48569" lon="4.79422">
        <ele>303</ele>
      </trkpt>
      <trkpt lat="46.48555" lon="4.79411">
        <ele>303</ele>
      </trkpt>
      <trkpt lat="46.48537" lon="4.79403">
        <ele>302.4</ele>
      </trkpt>
      <trkpt lat="46.48518" lon="4.79397">
        <ele>302.4</ele>
      </trkpt>
      <trkpt lat="46.48492" lon="4.79391">
        <ele>302.6</ele>
      </trkpt>
      <trkpt lat="46.48466" lon="4.79385">
        <ele>302.5</ele>
      </trkpt>
      <trkpt lat="46.48452" lon="4.79384">
        <ele>302.7</ele>
      </trkpt>
      <trkpt lat="46.48433" lon="4.79381">
        <ele>302.7</ele>
      </trkpt>
      <trkpt lat="46.48423" lon="4.79381">
        <ele>302.9</ele>
      </trkpt>
      <trkpt lat="46.48419" lon="4.79383">
        <ele>303.1</ele>
      </trkpt>
      <trkpt lat="46.48415" lon="4.79404">
        <ele>305.1</ele>
      </trkpt>
      <trkpt lat="46.4841" lon="4.79433">
        <ele>306.4</ele>
      </trkpt>
      <trkpt lat="46.484" lon="4.79492">
        <ele>305.1</ele>
      </trkpt>
      <trkpt lat="46.48391" lon="4.7953">
        <ele>303.9</ele>
      </trkpt>
      <trkpt lat="46.48382" lon="4.79574">
        <ele>302.6</ele>
      </trkpt>
      <trkpt lat="46.48375" lon="4.79574">
        <ele>302.8</ele>
      </trkpt>
      <trkpt lat="46.48365" lon="4.79578">
        <ele>303.1</ele>
      </trkpt>
      <trkpt lat="46.48354" lon="4.79583">
        <ele>303.3</ele>
      </trkpt>
      <trkpt lat="46.48344" lon="4.79585">
        <ele>303.6</ele>
      </trkpt>
      <trkpt lat="46.48333" lon="4.79587">
        <ele>303.9</ele>
      </trkpt>
      <trkpt lat="46.48318" lon="4.79589">
        <ele>303.8</ele>
      </trkpt>
      <trkpt lat="46.48304" lon="4.79594">
        <ele>303.6</ele>
      </trkpt>
      <trkpt lat="46.4828" lon="4.79598">
        <ele>303.5</ele>
      </trkpt>
      <trkpt lat="46.4826" lon="4.79606">
        <ele>303.2</ele>
      </trkpt>
      <trkpt lat="46.48252" lon="4.79606">
        <ele>303.2</ele>
      </trkpt>
      <trkpt lat="46.48234" lon="4.79608">
        <ele>302.5</ele>
      </trkpt>
      <trkpt lat="46.48216" lon="4.79612">
        <ele>302</ele>
      </trkpt>
      <trkpt lat="46.48208" lon="4.79613">
        <ele>301.9</ele>
      </trkpt>
      <trkpt lat="46.48186" lon="4.79616">
        <ele>301.4</ele>
      </trkpt>
      <trkpt lat="46.48179" lon="4.79614">
        <ele>301.3</ele>
      </trkpt>
      <trkpt lat="46.48175" lon="4.79611">
        <ele>301.3</ele>
      </trkpt>
      <trkpt lat="46.48171" lon="4.79606">
        <ele>301.2</ele>
      </trkpt>
      <trkpt lat="46.4817" lon="4.796">
        <ele>301.1</ele>
      </trkpt>
      <trkpt lat="46.48171" lon="4.79589">
        <ele>301.1</ele>
      </trkpt>
      <trkpt lat="46.48171" lon="4.79574">
        <ele>301.2</ele>
      </trkpt>
      <trkpt lat="46.4817" lon="4.7956">
        <ele>301.2</ele>
      </trkpt>
      <trkpt lat="46.48165" lon="4.79536">
        <ele>300.9</ele>
      </trkpt>
      <trkpt lat="46.48159" lon="4.79512">
        <ele>300.6</ele>
      </trkpt>
      <trkpt lat="46.48151" lon="4.79478">
        <ele>298.7</ele>
      </trkpt>
      <trkpt lat="46.48145" lon="4.79462">
        <ele>297.8</ele>
      </trkpt>
      <trkpt lat="46.48141" lon="4.79445">
        <ele>297.1</ele>
      </trkpt>
      <trkpt lat="46.48136" lon="4.79431">
        <ele>295.4</ele>
      </trkpt>
      <trkpt lat="46.48129" lon="4.79424">
        <ele>294.3</ele>
      </trkpt>
      <trkpt lat="46.48123" lon="4.79421">
        <ele>293.8</ele>
      </trkpt>
      <trkpt lat="46.48116" lon="4.79416">
        <ele>293.1</ele>
      </trkpt>
      <trkpt lat="46.48105" lon="4.79411">
        <ele>292.1</ele>
      </trkpt>
      <trkpt lat="46.48097" lon="4.79408">
        <ele>291.4</ele>
      </trkpt>
      <trkpt lat="46.48096" lon="4.79408">
        <ele>291.3</ele>
      </trkpt>
      <trkpt lat="46.48081" lon="4.79403">
        <ele>289.9</ele>
      </trkpt>
      <trkpt lat="46.48073" lon="4.794">
        <ele>289.5</ele>
      </trkpt>
      <trkpt lat="46.48056" lon="4.7939">
        <ele>288.2</ele>
      </trkpt>
      <trkpt lat="46.48039" lon="4.79382">
        <ele>287.4</ele>
      </trkpt>
      <trkpt lat="46.4803" lon="4.79378">
        <ele>286.9</ele>
      </trkpt>
      <trkpt lat="46.48018" lon="4.79374">
        <ele>286.1</ele>
      </trkpt>
      <trkpt lat="46.47995" lon="4.79368">
        <ele>284.8</ele>
      </trkpt>
      <trkpt lat="46.47974" lon="4.79362">
        <ele>284.2</ele>
      </trkpt>
      <trkpt lat="46.47958" lon="4.7936">
        <ele>283.4</ele>
      </trkpt>
      <trkpt lat="46.4794" lon="4.79354">
        <ele>281.9</ele>
      </trkpt>
      <trkpt lat="46.47924" lon="4.79349">
        <ele>280.3</ele>
      </trkpt>
      <trkpt lat="46.47913" lon="4.79345">
        <ele>279</ele>
      </trkpt>
      <trkpt lat="46.47906" lon="4.79344">
        <ele>278.2</ele>
      </trkpt>
      <trkpt lat="46.47901" lon="4.79344">
        <ele>277.7</ele>
      </trkpt>
      <trkpt lat="46.47895" lon="4.79344">
        <ele>277.1</ele>
      </trkpt>
      <trkpt lat="46.47884" lon="4.79347">
        <ele>276.2</ele>
      </trkpt>
      <trkpt lat="46.47872" lon="4.7935">
        <ele>274.7</ele>
      </trkpt>
      <trkpt lat="46.47863" lon="4.79356">
        <ele>274.2</ele>
      </trkpt>
      <trkpt lat="46.47855" lon="4.79361">
        <ele>273.9</ele>
      </trkpt>
      <trkpt lat="46.47852" lon="4.79365">
        <ele>274.2</ele>
      </trkpt>
      <trkpt lat="46.47849" lon="4.79365">
        <ele>273.8</ele>
      </trkpt>
      <trkpt lat="46.47847" lon="4.79365">
        <ele>273.4</ele>
      </trkpt>
      <trkpt lat="46.47845" lon="4.79364">
        <ele>272.7</ele>
      </trkpt>
      <trkpt lat="46.47844" lon="4.79361">
        <ele>271.8</ele>
      </trkpt>
      <trkpt lat="46.47843" lon="4.79357">
        <ele>271</ele>
      </trkpt>
      <trkpt lat="46.47844" lon="4.79353">
        <ele>270.2</ele>
      </trkpt>
      <trkpt lat="46.47846" lon="4.79346">
        <ele>269.3</ele>
      </trkpt>
      <trkpt lat="46.47856" lon="4.79322">
        <ele>267.6</ele>
      </trkpt>
      <trkpt lat="46.47869" lon="4.7929">
        <ele>266.1</ele>
      </trkpt>
      <trkpt lat="46.47882" lon="4.79263">
        <ele>265.8</ele>
      </trkpt>
      <trkpt lat="46.4789" lon="4.79244">
        <ele>265.3</ele>
      </trkpt>
      <trkpt lat="46.47896" lon="4.79232">
        <ele>264.3</ele>
      </trkpt>
      <trkpt lat="46.479" lon="4.79221">
        <ele>263.3</ele>
      </trkpt>
      <trkpt lat="46.47903" lon="4.7921">
        <ele>262.2</ele>
      </trkpt>
      <trkpt lat="46.47902" lon="4.79196">
        <ele>260.2</ele>
      </trkpt>
      <trkpt lat="46.47899" lon="4.79182">
        <ele>258.6</ele>
      </trkpt>
      <trkpt lat="46.47898" lon="4.79177">
        <ele>258.1</ele>
      </trkpt>
      <trkpt lat="46.47899" lon="4.79172">
        <ele>257.8</ele>
      </trkpt>
      <trkpt lat="46.479" lon="4.79165">
        <ele>257.4</ele>
      </trkpt>
      <trkpt lat="46.47901" lon="4.79154">
        <ele>256.8</ele>
      </trkpt>
      <trkpt lat="46.47901" lon="4.79141">
        <ele>255.8</ele>
      </trkpt>
      <trkpt lat="46.47903" lon="4.79136">
        <ele>256</ele>
      </trkpt>
      <trkpt lat="46.47913" lon="4.79113">
        <ele>256.8</ele>
      </trkpt>
      <trkpt lat="46.47928" lon="4.79076">
        <ele>255.6</ele>
      </trkpt>
      <trkpt lat="46.47943" lon="4.79037">
        <ele>255.5</ele>
      </trkpt>
      <trkpt lat="46.47957" lon="4.79006">
        <ele>254.7</ele>
      </trkpt>
      <trkpt lat="46.47982" lon="4.78957">
        <ele>254.3</ele>
      </trkpt>
      <trkpt lat="46.47985" lon="4.78951">
        <ele>254.2</ele>
      </trkpt>
      <trkpt lat="46.48007" lon="4.78909">
        <ele>254.8</ele>
      </trkpt>
      <trkpt lat="46.48024" lon="4.7887">
        <ele>254.8</ele>
      </trkpt>
      <trkpt lat="46.48033" lon="4.78847">
        <ele>255.2</ele>
      </trkpt>
      <trkpt lat="46.48046" lon="4.78813">
        <ele>255.4</ele>
      </trkpt>
      <trkpt lat="46.48056" lon="4.78786">
        <ele>256</ele>
      </trkpt>
      <trkpt lat="46.48066" lon="4.78763">
        <ele>256</ele>
      </trkpt>
      <trkpt lat="46.48073" lon="4.78744">
        <ele>256.2</ele>
      </trkpt>
      <trkpt lat="46.48073" lon="4.78742">
        <ele>256.3</ele>
      </trkpt>
      <trkpt lat="46.48078" lon="4.78725">
        <ele>256.6</ele>
      </trkpt>
      <trkpt lat="46.48079" lon="4.78721">
        <ele>256.6</ele>
      </trkpt>
      <trkpt lat="46.4808" lon="4.78713">
        <ele>256.5</ele>
      </trkpt>
      <trkpt lat="46.48081" lon="4.78701">
        <ele>256.2</ele>
      </trkpt>
      <trkpt lat="46.48081" lon="4.78692">
        <ele>255.9</ele>
      </trkpt>
      <trkpt lat="46.4808" lon="4.78686">
        <ele>255.9</ele>
      </trkpt>
      <trkpt lat="46.48079" lon="4.78678">
        <ele>255.8</ele>
      </trkpt>
      <trkpt lat="46.48075" lon="4.78669">
        <ele>255.7</ele>
      </trkpt>
      <trkpt lat="46.48077" lon="4.78657">
        <ele>256.2</ele>
      </trkpt>
      <trkpt lat="46.48078" lon="4.78652">
        <ele>256.4</ele>
      </trkpt>
      <trkpt lat="46.4808" lon="4.78628">
        <ele>257.3</ele>
      </trkpt>
      <trkpt lat="46.48085" lon="4.78592">
        <ele>258.6</ele>
      </trkpt>
      <trkpt lat="46.48092" lon="4.78557">
        <ele>260.9</ele>
      </trkpt>
      <trkpt lat="46.48093" lon="4.78549">
        <ele>261.5</ele>
      </trkpt>
      <trkpt lat="46.48096" lon="4.7854">
        <ele>262.4</ele>
      </trkpt>
      <trkpt lat="46.48106" lon="4.78521">
        <ele>264.6</ele>
      </trkpt>
      <trkpt lat="46.4811" lon="4.78513">
        <ele>265.6</ele>
      </trkpt>
      <trkpt lat="46.48118" lon="4.78502">
        <ele>267.2</ele>
      </trkpt>
      <trkpt lat="46.48122" lon="4.78498">
        <ele>268</ele>
      </trkpt>
      <trkpt lat="46.48121" lon="4.78487">
        <ele>268.9</ele>
      </trkpt>
      <trkpt lat="46.48121" lon="4.78475">
        <ele>269.9</ele>
      </trkpt>
      <trkpt lat="46.48121" lon="4.78467">
        <ele>270.9</ele>
      </trkpt>
      <trkpt lat="46.4812" lon="4.78454">
        <ele>272.4</ele>
      </trkpt>
      <trkpt lat="46.48118" lon="4.7844">
        <ele>273.7</ele>
      </trkpt>
      <trkpt lat="46.48112" lon="4.78423">
        <ele>274.6</ele>
      </trkpt>
      <trkpt lat="46.48109" lon="4.78406">
        <ele>275.9</ele>
      </trkpt>
      <trkpt lat="46.48107" lon="4.78393">
        <ele>277.1</ele>
      </trkpt>
      <trkpt lat="46.48104" lon="4.78371">
        <ele>279.2</ele>
      </trkpt>
      <trkpt lat="46.48102" lon="4.78353">
        <ele>281.1</ele>
      </trkpt>
      <trkpt lat="46.48101" lon="4.78339">
        <ele>282.4</ele>
      </trkpt>
      <trkpt lat="46.48101" lon="4.78332">
        <ele>283.3</ele>
      </trkpt>
      <trkpt lat="46.48103" lon="4.78326">
        <ele>284.1</ele>
      </trkpt>
      <trkpt lat="46.48105" lon="4.7832">
        <ele>285.1</ele>
      </trkpt>
      <trkpt lat="46.48107" lon="4.78311">
        <ele>286.1</ele>
      </trkpt>
      <trkpt lat="46.48107" lon="4.78302">
        <ele>286.9</ele>
      </trkpt>
      <trkpt lat="46.48107" lon="4.78292">
        <ele>288</ele>
      </trkpt>
      <trkpt lat="46.48105" lon="4.78276">
        <ele>289.3</ele>
      </trkpt>
      <trkpt lat="46.48099" lon="4.7825">
        <ele>291.7</ele>
      </trkpt>
      <trkpt lat="46.48092" lon="4.78223">
        <ele>293.2</ele>
      </trkpt>
      <trkpt lat="46.48088" lon="4.7821">
        <ele>294</ele>
      </trkpt>
      <trkpt lat="46.48084" lon="4.78192">
        <ele>295.3</ele>
      </trkpt>
      <trkpt lat="46.4808" lon="4.78177">
        <ele>296.4</ele>
      </trkpt>
      <trkpt lat="46.48074" lon="4.78159">
        <ele>297.7</ele>
      </trkpt>
      <trkpt lat="46.48069" lon="4.78142">
        <ele>299</ele>
      </trkpt>
      <trkpt lat="46.48065" lon="4.78132">
        <ele>299.6</ele>
      </trkpt>
      <trkpt lat="46.48061" lon="4.78126">
        <ele>299.8</ele>
      </trkpt>
      <trkpt lat="46.4805" lon="4.78111">
        <ele>300.2</ele>
      </trkpt>
      <trkpt lat="46.48038" lon="4.7809">
        <ele>300.7</ele>
      </trkpt>
      <trkpt lat="46.48029" lon="4.78076">
        <ele>301</ele>
      </trkpt>
      <trkpt lat="46.48022" lon="4.78063">
        <ele>301.6</ele>
      </trkpt>
      <trkpt lat="46.48017" lon="4.78053">
        <ele>302.2</ele>
      </trkpt>
      <trkpt lat="46.48011" lon="4.7804">
        <ele>303.1</ele>
      </trkpt>
      <trkpt lat="46.48005" lon="4.78029">
        <ele>303.5</ele>
      </trkpt>
      <trkpt lat="46.47992" lon="4.78013">
        <ele>303.8</ele>
      </trkpt>
      <trkpt lat="46.47981" lon="4.77998">
        <ele>304.1</ele>
      </trkpt>
      <trkpt lat="46.47973" lon="4.77988">
        <ele>304.4</ele>
      </trkpt>
      <trkpt lat="46.47971" lon="4.77985">
        <ele>304.4</ele>
      </trkpt>
      <trkpt lat="46.47967" lon="4.77982">
        <ele>304.3</ele>
      </trkpt>
      <trkpt lat="46.47962" lon="4.77979">
        <ele>304</ele>
      </trkpt>
      <trkpt lat="46.47957" lon="4.77978">
        <ele>303.6</ele>
      </trkpt>
      <trkpt lat="46.47951" lon="4.77977">
        <ele>303</ele>
      </trkpt>
      <trkpt lat="46.47936" lon="4.77978">
        <ele>301.2</ele>
      </trkpt>
      <trkpt lat="46.47928" lon="4.77979">
        <ele>300.2</ele>
      </trkpt>
      <trkpt lat="46.47923" lon="4.77979">
        <ele>299.7</ele>
      </trkpt>
      <trkpt lat="46.47919" lon="4.77979">
        <ele>299.3</ele>
      </trkpt>
      <trkpt lat="46.47912" lon="4.77976">
        <ele>298.9</ele>
      </trkpt>
      <trkpt lat="46.47899" lon="4.77971">
        <ele>298.2</ele>
      </trkpt>
      <trkpt lat="46.47878" lon="4.7796">
        <ele>297.4</ele>
      </trkpt>
      <trkpt lat="46.4784" lon="4.77934">
        <ele>296.8</ele>
      </trkpt>
      <trkpt lat="46.47827" lon="4.77925">
        <ele>296.8</ele>
      </trkpt>
      <trkpt lat="46.47814" lon="4.77918">
        <ele>297.2</ele>
      </trkpt>
      <trkpt lat="46.47793" lon="4.77907">
        <ele>297.1</ele>
      </trkpt>
      <trkpt lat="46.47771" lon="4.77894">
        <ele>297.4</ele>
      </trkpt>
      <trkpt lat="46.47758" lon="4.77884">
        <ele>297.6</ele>
      </trkpt>
      <trkpt lat="46.4771" lon="4.77851">
        <ele>298</ele>
      </trkpt>
      <trkpt lat="46.47677" lon="4.77824">
        <ele>298.4</ele>
      </trkpt>
      <trkpt lat="46.4766" lon="4.77812">
        <ele>298.3</ele>
      </trkpt>
      <trkpt lat="46.47645" lon="4.77803">
        <ele>298.5</ele>
      </trkpt>
      <trkpt lat="46.47629" lon="4.77793">
        <ele>298.2</ele>
      </trkpt>
      <trkpt lat="46.47621" lon="4.77787">
        <ele>298</ele>
      </trkpt>
      <trkpt lat="46.47617" lon="4.77786">
        <ele>297.8</ele>
      </trkpt>
      <trkpt lat="46.47615" lon="4.77786">
        <ele>297.7</ele>
      </trkpt>
      <trkpt lat="46.47611" lon="4.77786">
        <ele>297.4</ele>
      </trkpt>
      <trkpt lat="46.47608" lon="4.77791">
        <ele>296.8</ele>
      </trkpt>
      <trkpt lat="46.47596" lon="4.77818">
        <ele>294.3</ele>
      </trkpt>
      <trkpt lat="46.4758" lon="4.77855">
        <ele>291.3</ele>
      </trkpt>
      <trkpt lat="46.4757" lon="4.77882">
        <ele>289.8</ele>
      </trkpt>
      <trkpt lat="46.47557" lon="4.77925">
        <ele>287.5</ele>
      </trkpt>
      <trkpt lat="46.47546" lon="4.7796">
        <ele>285.1</ele>
      </trkpt>
      <trkpt lat="46.47534" lon="4.77999">
        <ele>284</ele>
      </trkpt>
      <trkpt lat="46.47524" lon="4.7803">
        <ele>282.5</ele>
      </trkpt>
      <trkpt lat="46.47501" lon="4.78025">
        <ele>281.4</ele>
      </trkpt>
      <trkpt lat="46.47492" lon="4.78024">
        <ele>280.7</ele>
      </trkpt>
      <trkpt lat="46.47482" lon="4.7802">
        <ele>280.2</ele>
      </trkpt>
      <trkpt lat="46.47474" lon="4.78017">
        <ele>280</ele>
      </trkpt>
      <trkpt lat="46.47466" lon="4.78017">
        <ele>279.3</ele>
      </trkpt>
      <trkpt lat="46.47477" lon="4.78036">
        <ele>277.6</ele>
      </trkpt>
      <trkpt lat="46.47479" lon="4.78045">
        <ele>276.9</ele>
      </trkpt>
      <trkpt lat="46.4748" lon="4.78052">
        <ele>276.3</ele>
      </trkpt>
      <trkpt lat="46.4748" lon="4.78058">
        <ele>275.8</ele>
      </trkpt>
      <trkpt lat="46.4748" lon="4.78062">
        <ele>275.5</ele>
      </trkpt>
      <trkpt lat="46.47479" lon="4.78071">
        <ele>275</ele>
      </trkpt>
      <trkpt lat="46.47476" lon="4.78084">
        <ele>274.2</ele>
      </trkpt>
      <trkpt lat="46.47472" lon="4.78101">
        <ele>273.3</ele>
      </trkpt>
      <trkpt lat="46.4746" lon="4.78141">
        <ele>271.1</ele>
      </trkpt>
      <trkpt lat="46.47456" lon="4.78157">
        <ele>270.6</ele>
      </trkpt>
      <trkpt lat="46.47451" lon="4.78174">
        <ele>269.9</ele>
      </trkpt>
      <trkpt lat="46.47446" lon="4.78188">
        <ele>269.2</ele>
      </trkpt>
      <trkpt lat="46.47441" lon="4.78201">
        <ele>268.2</ele>
      </trkpt>
      <trkpt lat="46.47436" lon="4.78212">
        <ele>267.2</ele>
      </trkpt>
      <trkpt lat="46.47432" lon="4.78219">
        <ele>266.7</ele>
      </trkpt>
      <trkpt lat="46.47429" lon="4.78225">
        <ele>266.4</ele>
      </trkpt>
      <trkpt lat="46.47428" lon="4.7823">
        <ele>266.1</ele>
      </trkpt>
      <trkpt lat="46.47428" lon="4.78237">
        <ele>265.9</ele>
      </trkpt>
      <trkpt lat="46.4743" lon="4.78244">
        <ele>265.7</ele>
      </trkpt>
      <trkpt lat="46.47433" lon="4.78253">
        <ele>265.6</ele>
      </trkpt>
      <trkpt lat="46.47437" lon="4.78262">
        <ele>265.7</ele>
      </trkpt>
      <trkpt lat="46.4744" lon="4.78269">
        <ele>265.8</ele>
      </trkpt>
      <trkpt lat="46.47442" lon="4.78276">
        <ele>265.9</ele>
      </trkpt>
      <trkpt lat="46.47442" lon="4.78283">
        <ele>265.9</ele>
      </trkpt>
      <trkpt lat="46.47442" lon="4.7829">
        <ele>265.9</ele>
      </trkpt>
      <trkpt lat="46.47441" lon="4.78298">
        <ele>265.8</ele>
      </trkpt>
      <trkpt lat="46.47439" lon="4.78307">
        <ele>265.6</ele>
      </trkpt>
      <trkpt lat="46.47436" lon="4.78318">
        <ele>265.1</ele>
      </trkpt>
      <trkpt lat="46.47429" lon="4.78333">
        <ele>264.4</ele>
      </trkpt>
      <trkpt lat="46.47412" lon="4.78364">
        <ele>263.8</ele>
      </trkpt>
      <trkpt lat="46.47407" lon="4.78374">
        <ele>263.4</ele>
      </trkpt>
      <trkpt lat="46.47384" lon="4.78414">
        <ele>263</ele>
      </trkpt>
      <trkpt lat="46.47348" lon="4.78477">
        <ele>262.6</ele>
      </trkpt>
      <trkpt lat="46.47332" lon="4.78504">
        <ele>264.1</ele>
      </trkpt>
      <trkpt lat="46.47327" lon="4.78514">
        <ele>264.5</ele>
      </trkpt>
      <trkpt lat="46.47317" lon="4.78532">
        <ele>266</ele>
      </trkpt>
      <trkpt lat="46.4731" lon="4.78545">
        <ele>267.6</ele>
      </trkpt>
      <trkpt lat="46.47308" lon="4.78552">
        <ele>268.4</ele>
      </trkpt>
      <trkpt lat="46.47307" lon="4.7856">
        <ele>268.9</ele>
      </trkpt>
      <trkpt lat="46.47307" lon="4.7857">
        <ele>269.3</ele>
      </trkpt>
      <trkpt lat="46.4731" lon="4.78584">
        <ele>269.6</ele>
      </trkpt>
      <trkpt lat="46.47328" lon="4.78643">
        <ele>273</ele>
      </trkpt>
      <trkpt lat="46.47354" lon="4.78729">
        <ele>278.5</ele>
      </trkpt>
      <trkpt lat="46.47363" lon="4.78755">
        <ele>280.1</ele>
      </trkpt>
      <trkpt lat="46.47365" lon="4.78764">
        <ele>280.6</ele>
      </trkpt>
      <trkpt lat="46.47365" lon="4.7877">
        <ele>281</ele>
      </trkpt>
      <trkpt lat="46.47364" lon="4.78773">
        <ele>281.4</ele>
      </trkpt>
      <trkpt lat="46.47363" lon="4.78777">
        <ele>281.8</ele>
      </trkpt>
      <trkpt lat="46.4736" lon="4.78778">
        <ele>282.2</ele>
      </trkpt>
      <trkpt lat="46.47358" lon="4.78778">
        <ele>282.5</ele>
      </trkpt>
      <trkpt lat="46.47355" lon="4.78777">
        <ele>282.8</ele>
      </trkpt>
      <trkpt lat="46.47347" lon="4.78769">
        <ele>283.5</ele>
      </trkpt>
      <trkpt lat="46.47323" lon="4.78746">
        <ele>284.3</ele>
      </trkpt>
      <trkpt lat="46.47307" lon="4.78729">
        <ele>285</ele>
      </trkpt>
      <trkpt lat="46.47303" lon="4.78726">
        <ele>285.3</ele>
      </trkpt>
      <trkpt lat="46.47299" lon="4.78724">
        <ele>285.5</ele>
      </trkpt>
      <trkpt lat="46.47295" lon="4.78721">
        <ele>285.7</ele>
      </trkpt>
      <trkpt lat="46.47291" lon="4.78719">
        <ele>285.8</ele>
      </trkpt>
      <trkpt lat="46.47287" lon="4.78719">
        <ele>286.1</ele>
      </trkpt>
      <trkpt lat="46.47283" lon="4.78719">
        <ele>286.5</ele>
      </trkpt>
      <trkpt lat="46.47277" lon="4.78721">
        <ele>287</ele>
      </trkpt>
      <trkpt lat="46.47273" lon="4.78723">
        <ele>287.4</ele>
      </trkpt>
      <trkpt lat="46.47267" lon="4.78729">
        <ele>288.1</ele>
      </trkpt>
      <trkpt lat="46.47261" lon="4.78738">
        <ele>288.8</ele>
      </trkpt>
      <trkpt lat="46.47253" lon="4.78754">
        <ele>289.8</ele>
      </trkpt>
      <trkpt lat="46.47246" lon="4.78771">
        <ele>290.1</ele>
      </trkpt>
      <trkpt lat="46.4724" lon="4.78781">
        <ele>290.5</ele>
      </trkpt>
      <trkpt lat="46.47233" lon="4.78796">
        <ele>291.3</ele>
      </trkpt>
      <trkpt lat="46.47214" lon="4.78834">
        <ele>293.3</ele>
      </trkpt>
      <trkpt lat="46.47205" lon="4.78852">
        <ele>294.3</ele>
      </trkpt>
      <trkpt lat="46.47198" lon="4.78864">
        <ele>294.8</ele>
      </trkpt>
      <trkpt lat="46.47181" lon="4.78889">
        <ele>294.5</ele>
      </trkpt>
      <trkpt lat="46.47171" lon="4.78903">
        <ele>294.9</ele>
      </trkpt>
      <trkpt lat="46.47143" lon="4.78947">
        <ele>294.8</ele>
      </trkpt>
      <trkpt lat="46.47135" lon="4.78955">
        <ele>294.5</ele>
      </trkpt>
      <trkpt lat="46.47134" lon="4.78957">
        <ele>294.5</ele>
      </trkpt>
      <trkpt lat="46.47119" lon="4.78976">
        <ele>293.9</ele>
      </trkpt>
      <trkpt lat="46.47105" lon="4.78997">
        <ele>292.9</ele>
      </trkpt>
      <trkpt lat="46.47097" lon="4.7901">
        <ele>292.5</ele>
      </trkpt>
      <trkpt lat="46.47091" lon="4.79021">
        <ele>292.3</ele>
      </trkpt>
      <trkpt lat="46.47086" lon="4.79037">
        <ele>291.7</ele>
      </trkpt>
      <trkpt lat="46.47079" lon="4.79059">
        <ele>290.4</ele>
      </trkpt>
      <trkpt lat="46.47073" lon="4.7908">
        <ele>289.3</ele>
      </trkpt>
      <trkpt lat="46.47067" lon="4.79103">
        <ele>288.2</ele>
      </trkpt>
      <trkpt lat="46.47061" lon="4.79127">
        <ele>288.9</ele>
      </trkpt>
      <trkpt lat="46.47058" lon="4.79129">
        <ele>289.2</ele>
      </trkpt>
      <trkpt lat="46.47056" lon="4.7913">
        <ele>289.3</ele>
      </trkpt>
      <trkpt lat="46.47054" lon="4.7913">
        <ele>289.4</ele>
      </trkpt>
      <trkpt lat="46.47048" lon="4.79136">
        <ele>289.8</ele>
      </trkpt>
      <trkpt lat="46.47019" lon="4.79162">
        <ele>292</ele>
      </trkpt>
      <trkpt lat="46.47004" lon="4.79146">
        <ele>291.4</ele>
      </trkpt>
      <trkpt lat="46.46998" lon="4.79137">
        <ele>290.9</ele>
      </trkpt>
      <trkpt lat="46.46992" lon="4.79127">
        <ele>290.5</ele>
      </trkpt>
      <trkpt lat="46.4698" lon="4.79106">
        <ele>290.1</ele>
      </trkpt>
      <trkpt lat="46.46975" lon="4.791">
        <ele>290.1</ele>
      </trkpt>
      <trkpt lat="46.4697" lon="4.79092">
        <ele>289.6</ele>
      </trkpt>
      <trkpt lat="46.46965" lon="4.79083">
        <ele>289.2</ele>
      </trkpt>
      <trkpt lat="46.46953" lon="4.79057">
        <ele>288.7</ele>
      </trkpt>
      <trkpt lat="46.46948" lon="4.79048">
        <ele>288.6</ele>
      </trkpt>
      <trkpt lat="46.46942" lon="4.79032">
        <ele>288.4</ele>
      </trkpt>
      <trkpt lat="46.46935" lon="4.79014">
        <ele>289.2</ele>
      </trkpt>
      <trkpt lat="46.4693" lon="4.79">
        <ele>290.1</ele>
      </trkpt>
      <trkpt lat="46.46926" lon="4.78986">
        <ele>290.8</ele>
      </trkpt>
      <trkpt lat="46.46916" lon="4.78948">
        <ele>292.1</ele>
      </trkpt>
      <trkpt lat="46.46903" lon="4.78911">
        <ele>293</ele>
      </trkpt>
      <trkpt lat="46.46887" lon="4.78869">
        <ele>294.7</ele>
      </trkpt>
      <trkpt lat="46.4688" lon="4.78841">
        <ele>296.1</ele>
      </trkpt>
      <trkpt lat="46.46874" lon="4.78824">
        <ele>297.2</ele>
      </trkpt>
      <trkpt lat="46.46864" lon="4.78805">
        <ele>298.6</ele>
      </trkpt>
      <trkpt lat="46.46851" lon="4.78783">
        <ele>300.4</ele>
      </trkpt>
      <trkpt lat="46.46845" lon="4.78775">
        <ele>301.3</ele>
      </trkpt>
      <trkpt lat="46.4683" lon="4.78756">
        <ele>302.4</ele>
      </trkpt>
      <trkpt lat="46.46814" lon="4.78738">
        <ele>302.9</ele>
      </trkpt>
      <trkpt lat="46.46796" lon="4.7872">
        <ele>302.8</ele>
      </trkpt>
      <trkpt lat="46.4678" lon="4.78707">
        <ele>302.4</ele>
      </trkpt>
      <trkpt lat="46.46767" lon="4.78696">
        <ele>302.4</ele>
      </trkpt>
      <trkpt lat="46.46757" lon="4.78688">
        <ele>302.5</ele>
      </trkpt>
      <trkpt lat="46.46743" lon="4.78671">
        <ele>302.4</ele>
      </trkpt>
      <trkpt lat="46.46734" lon="4.78657">
        <ele>302.2</ele>
      </trkpt>
      <trkpt lat="46.46724" lon="4.78637">
        <ele>301.8</ele>
      </trkpt>
      <trkpt lat="46.4672" lon="4.7863">
        <ele>301.4</ele>
      </trkpt>
      <trkpt lat="46.46713" lon="4.7862">
        <ele>300.8</ele>
      </trkpt>
      <trkpt lat="46.46704" lon="4.78611">
        <ele>300.6</ele>
      </trkpt>
      <trkpt lat="46.46691" lon="4.78601">
        <ele>299.7</ele>
      </trkpt>
      <trkpt lat="46.46678" lon="4.78589">
        <ele>299.4</ele>
      </trkpt>
      <trkpt lat="46.46666" lon="4.78577">
        <ele>299.4</ele>
      </trkpt>
      <trkpt lat="46.46654" lon="4.78563">
        <ele>299.1</ele>
      </trkpt>
      <trkpt lat="46.46646" lon="4.78552">
        <ele>299.1</ele>
      </trkpt>
      <trkpt lat="46.46643" lon="4.78547">
        <ele>299</ele>
      </trkpt>
      <trkpt lat="46.46643" lon="4.78541">
        <ele>298.7</ele>
      </trkpt>
      <trkpt lat="46.46643" lon="4.78535">
        <ele>298.3</ele>
      </trkpt>
      <trkpt lat="46.46645" lon="4.78523">
        <ele>297.7</ele>
      </trkpt>
      <trkpt lat="46.46676" lon="4.7844">
        <ele>300</ele>
      </trkpt>
      <trkpt lat="46.46714" lon="4.78332">
        <ele>301</ele>
      </trkpt>
      <trkpt lat="46.46753" lon="4.7822">
        <ele>298.9</ele>
      </trkpt>
      <trkpt lat="46.4676" lon="4.78201">
        <ele>298.5</ele>
      </trkpt>
      <trkpt lat="46.46763" lon="4.78187">
        <ele>298.3</ele>
      </trkpt>
      <trkpt lat="46.46744" lon="4.78173">
        <ele>298</ele>
      </trkpt>
      <trkpt lat="46.46667" lon="4.78111">
        <ele>297</ele>
      </trkpt>
      <trkpt lat="46.46604" lon="4.7806">
        <ele>296.2</ele>
      </trkpt>
      <trkpt lat="46.46587" lon="4.78045">
        <ele>295.9</ele>
      </trkpt>
      <trkpt lat="46.46583" lon="4.78041">
        <ele>296</ele>
      </trkpt>
      <trkpt lat="46.46579" lon="4.78034">
        <ele>296</ele>
      </trkpt>
      <trkpt lat="46.46573" lon="4.78023">
        <ele>295.8</ele>
      </trkpt>
      <trkpt lat="46.46566" lon="4.78034">
        <ele>296.1</ele>
      </trkpt>
      <trkpt lat="46.46552" lon="4.78058">
        <ele>296.9</ele>
      </trkpt>
      <trkpt lat="46.46543" lon="4.78077">
        <ele>296.9</ele>
      </trkpt>
      <trkpt lat="46.46532" lon="4.78097">
        <ele>297</ele>
      </trkpt>
      <trkpt lat="46.46497" lon="4.78161">
        <ele>297.7</ele>
      </trkpt>
      <trkpt lat="46.46474" lon="4.78202">
        <ele>298</ele>
      </trkpt>
      <trkpt lat="46.46467" lon="4.78213">
        <ele>298</ele>
      </trkpt>
      <trkpt lat="46.46454" lon="4.78231">
        <ele>297.8</ele>
      </trkpt>
      <trkpt lat="46.46427" lon="4.78267">
        <ele>296.6</ele>
      </trkpt>
      <trkpt lat="46.46397" lon="4.78307">
        <ele>295</ele>
      </trkpt>
      <trkpt lat="46.46389" lon="4.78317">
        <ele>294.6</ele>
      </trkpt>
      <trkpt lat="46.46375" lon="4.78334">
        <ele>293.5</ele>
      </trkpt>
      <trkpt lat="46.4636" lon="4.78351">
        <ele>293</ele>
      </trkpt>
      <trkpt lat="46.46353" lon="4.78358">
        <ele>292.7</ele>
      </trkpt>
      <trkpt lat="46.46345" lon="4.78365">
        <ele>292.5</ele>
      </trkpt>
      <trkpt lat="46.4632" lon="4.78385">
        <ele>292.4</ele>
      </trkpt>
      <trkpt lat="46.46304" lon="4.784">
        <ele>292.8</ele>
      </trkpt>
      <trkpt lat="46.46299" lon="4.78403">
        <ele>292.9</ele>
      </trkpt>
      <trkpt lat="46.46284" lon="4.78416">
        <ele>293.2</ele>
      </trkpt>
      <trkpt lat="46.46255" lon="4.78439">
        <ele>294.7</ele>
      </trkpt>
      <trkpt lat="46.46237" lon="4.78456">
        <ele>294.9</ele>
      </trkpt>
      <trkpt lat="46.4622" lon="4.78473">
        <ele>295.9</ele>
      </trkpt>
      <trkpt lat="46.46209" lon="4.78485">
        <ele>295.7</ele>
      </trkpt>
      <trkpt lat="46.462" lon="4.78499">
        <ele>296.2</ele>
      </trkpt>
      <trkpt lat="46.46196" lon="4.78506">
        <ele>296.5</ele>
      </trkpt>
      <trkpt lat="46.4619" lon="4.78525">
        <ele>297.6</ele>
      </trkpt>
      <trkpt lat="46.46186" lon="4.78544">
        <ele>298.7</ele>
      </trkpt>
      <trkpt lat="46.46181" lon="4.78571">
        <ele>299.8</ele>
      </trkpt>
      <trkpt lat="46.4617" lon="4.7857">
        <ele>299.2</ele>
      </trkpt>
      <trkpt lat="46.46159" lon="4.78568">
        <ele>298.5</ele>
      </trkpt>
      <trkpt lat="46.46149" lon="4.78562">
        <ele>297.3</ele>
      </trkpt>
      <trkpt lat="46.46139" lon="4.78557">
        <ele>296.1</ele>
      </trkpt>
      <trkpt lat="46.46127" lon="4.78545">
        <ele>295.2</ele>
      </trkpt>
      <trkpt lat="46.46125" lon="4.78542">
        <ele>295</ele>
      </trkpt>
      <trkpt lat="46.4612" lon="4.78535">
        <ele>294.6</ele>
      </trkpt>
      <trkpt lat="46.46118" lon="4.78527">
        <ele>294.2</ele>
      </trkpt>
      <trkpt lat="46.46118" lon="4.7852">
        <ele>293.7</ele>
      </trkpt>
      <trkpt lat="46.46119" lon="4.78499">
        <ele>292.5</ele>
      </trkpt>
      <trkpt lat="46.46125" lon="4.78468">
        <ele>290.9</ele>
      </trkpt>
      <trkpt lat="46.46132" lon="4.78413">
        <ele>288.6</ele>
      </trkpt>
      <trkpt lat="46.46135" lon="4.78387">
        <ele>287.8</ele>
      </trkpt>
      <trkpt lat="46.4614" lon="4.78362">
        <ele>287</ele>
      </trkpt>
      <trkpt lat="46.46148" lon="4.78325">
        <ele>286.1</ele>
      </trkpt>
      <trkpt lat="46.46138" lon="4.78318">
        <ele>285.4</ele>
      </trkpt>
      <trkpt lat="46.46119" lon="4.78309">
        <ele>285</ele>
      </trkpt>
      <trkpt lat="46.46096" lon="4.78296">
        <ele>285.6</ele>
      </trkpt>
      <trkpt lat="46.46068" lon="4.7828">
        <ele>286.6</ele>
      </trkpt>
      <trkpt lat="46.46056" lon="4.78273">
        <ele>286.8</ele>
      </trkpt>
      <trkpt lat="46.46047" lon="4.78267">
        <ele>287.5</ele>
      </trkpt>
      <trkpt lat="46.46035" lon="4.78257">
        <ele>288.4</ele>
      </trkpt>
      <trkpt lat="46.46017" lon="4.78231">
        <ele>289.2</ele>
      </trkpt>
      <trkpt lat="46.46012" lon="4.78224">
        <ele>289.3</ele>
      </trkpt>
      <trkpt lat="46.46001" lon="4.78203">
        <ele>289.5</ele>
      </trkpt>
      <trkpt lat="46.45997" lon="4.78192">
        <ele>289.1</ele>
      </trkpt>
      <trkpt lat="46.45992" lon="4.78176">
        <ele>288.6</ele>
      </trkpt>
      <trkpt lat="46.45984" lon="4.78165">
        <ele>288.6</ele>
      </trkpt>
      <trkpt lat="46.45965" lon="4.78147">
        <ele>288.5</ele>
      </trkpt>
      <trkpt lat="46.45946" lon="4.78128">
        <ele>288.6</ele>
      </trkpt>
      <trkpt lat="46.4593" lon="4.78116">
        <ele>288.4</ele>
      </trkpt>
      <trkpt lat="46.45908" lon="4.78096">
        <ele>287.6</ele>
      </trkpt>
      <trkpt lat="46.45885" lon="4.78079">
        <ele>286.7</ele>
      </trkpt>
      <trkpt lat="46.45864" lon="4.78062">
        <ele>285.6</ele>
      </trkpt>
      <trkpt lat="46.45853" lon="4.7805">
        <ele>284.5</ele>
      </trkpt>
      <trkpt lat="46.45851" lon="4.78043">
        <ele>283.9</ele>
      </trkpt>
      <trkpt lat="46.45851" lon="4.78035">
        <ele>283.2</ele>
      </trkpt>
      <trkpt lat="46.45853" lon="4.78025">
        <ele>282.6</ele>
      </trkpt>
      <trkpt lat="46.45856" lon="4.78007">
        <ele>282.1</ele>
      </trkpt>
      <trkpt lat="46.45859" lon="4.77989">
        <ele>281.9</ele>
      </trkpt>
      <trkpt lat="46.4586" lon="4.77979">
        <ele>282</ele>
      </trkpt>
      <trkpt lat="46.45858" lon="4.77973">
        <ele>281.9</ele>
      </trkpt>
      <trkpt lat="46.45854" lon="4.7797">
        <ele>281.9</ele>
      </trkpt>
      <trkpt lat="46.45839" lon="4.77967">
        <ele>281.7</ele>
      </trkpt>
      <trkpt lat="46.45814" lon="4.77962">
        <ele>281.4</ele>
      </trkpt>
      <trkpt lat="46.45796" lon="4.77958">
        <ele>281.4</ele>
      </trkpt>
      <trkpt lat="46.45785" lon="4.77953">
        <ele>281.6</ele>
      </trkpt>
      <trkpt lat="46.45771" lon="4.77941">
        <ele>282</ele>
      </trkpt>
      <trkpt lat="46.45757" lon="4.7793">
        <ele>281.9</ele>
      </trkpt>
      <trkpt lat="46.45747" lon="4.77922">
        <ele>281.7</ele>
      </trkpt>
      <trkpt lat="46.45736" lon="4.77923">
        <ele>281.1</ele>
      </trkpt>
      <trkpt lat="46.45704" lon="4.7792">
        <ele>279.5</ele>
      </trkpt>
      <trkpt lat="46.45679" lon="4.77929">
        <ele>278.3</ele>
      </trkpt>
      <trkpt lat="46.45651" lon="4.77937">
        <ele>277.4</ele>
      </trkpt>
      <trkpt lat="46.45626" lon="4.7794">
        <ele>276.5</ele>
      </trkpt>
      <trkpt lat="46.4558" lon="4.77931">
        <ele>276.1</ele>
      </trkpt>
      <trkpt lat="46.4555" lon="4.77922">
        <ele>276.9</ele>
      </trkpt>
      <trkpt lat="46.4557" lon="4.77891">
        <ele>277.9</ele>
      </trkpt>
      <trkpt lat="46.45592" lon="4.77846">
        <ele>278.5</ele>
      </trkpt>
      <trkpt lat="46.45615" lon="4.77797">
        <ele>280.2</ele>
      </trkpt>
      <trkpt lat="46.4563" lon="4.77767">
        <ele>280.9</ele>
      </trkpt>
      <trkpt lat="46.45646" lon="4.77745">
        <ele>281.8</ele>
      </trkpt>
      <trkpt lat="46.45665" lon="4.77726">
        <ele>281.9</ele>
      </trkpt>
      <trkpt lat="46.45673" lon="4.77721">
        <ele>281.8</ele>
      </trkpt>
      <trkpt lat="46.45679" lon="4.77717">
        <ele>281.6</ele>
      </trkpt>
      <trkpt lat="46.45696" lon="4.77708">
        <ele>281.5</ele>
      </trkpt>
      <trkpt lat="46.45731" lon="4.77688">
        <ele>281</ele>
      </trkpt>
      <trkpt lat="46.45737" lon="4.77683">
        <ele>281</ele>
      </trkpt>
      <trkpt lat="46.45742" lon="4.77678">
        <ele>281</ele>
      </trkpt>
      <trkpt lat="46.45753" lon="4.77666">
        <ele>281</ele>
      </trkpt>
      <trkpt lat="46.45756" lon="4.77662">
        <ele>281</ele>
      </trkpt>
      <trkpt lat="46.45769" lon="4.77646">
        <ele>280.5</ele>
      </trkpt>
      <trkpt lat="46.45768" lon="4.77628">
        <ele>280</ele>
      </trkpt>
      <trkpt lat="46.45767" lon="4.77608">
        <ele>279.4</ele>
      </trkpt>
      <trkpt lat="46.45767" lon="4.7757">
        <ele>278.9</ele>
      </trkpt>
      <trkpt lat="46.45767" lon="4.77528">
        <ele>277</ele>
      </trkpt>
      <trkpt lat="46.45766" lon="4.77492">
        <ele>274.6</ele>
      </trkpt>
      <trkpt lat="46.45765" lon="4.77461">
        <ele>272.9</ele>
      </trkpt>
      <trkpt lat="46.4574" lon="4.77458">
        <ele>272.3</ele>
      </trkpt>
      <trkpt lat="46.45717" lon="4.77456">
        <ele>271.9</ele>
      </trkpt>
      <trkpt lat="46.457" lon="4.77457">
        <ele>271.5</ele>
      </trkpt>
      <trkpt lat="46.45682" lon="4.77458">
        <ele>271.1</ele>
      </trkpt>
      <trkpt lat="46.45668" lon="4.77462">
        <ele>270.7</ele>
      </trkpt>
      <trkpt lat="46.45648" lon="4.77469">
        <ele>270.2</ele>
      </trkpt>
      <trkpt lat="46.45637" lon="4.77471">
        <ele>269.9</ele>
      </trkpt>
      <trkpt lat="46.4562" lon="4.77473">
        <ele>269.3</ele>
      </trkpt>
      <trkpt lat="46.45599" lon="4.77473">
        <ele>268.6</ele>
      </trkpt>
      <trkpt lat="46.45574" lon="4.77476">
        <ele>268.1</ele>
      </trkpt>
      <trkpt lat="46.45553" lon="4.77477">
        <ele>267.9</ele>
      </trkpt>
      <trkpt lat="46.45533" lon="4.77481">
        <ele>267.2</ele>
      </trkpt>
      <trkpt lat="46.45523" lon="4.77484">
        <ele>266.9</ele>
      </trkpt>
      <trkpt lat="46.45502" lon="4.7749">
        <ele>266.7</ele>
      </trkpt>
      <trkpt lat="46.45468" lon="4.77501">
        <ele>266</ele>
      </trkpt>
      <trkpt lat="46.45455" lon="4.77506">
        <ele>266.1</ele>
      </trkpt>
      <trkpt lat="46.45438" lon="4.77512">
        <ele>265.9</ele>
      </trkpt>
      <trkpt lat="46.45421" lon="4.77516">
        <ele>265.6</ele>
      </trkpt>
      <trkpt lat="46.45403" lon="4.77516">
        <ele>265.6</ele>
      </trkpt>
      <trkpt lat="46.45398" lon="4.77521">
        <ele>265.8</ele>
      </trkpt>
      <trkpt lat="46.45384" lon="4.77527">
        <ele>265.6</ele>
      </trkpt>
      <trkpt lat="46.45365" lon="4.77536">
        <ele>264.5</ele>
      </trkpt>
      <trkpt lat="46.45344" lon="4.77552">
        <ele>264.9</ele>
      </trkpt>
      <trkpt lat="46.45336" lon="4.77558">
        <ele>265.1</ele>
      </trkpt>
      <trkpt lat="46.45312" lon="4.77584">
        <ele>265.2</ele>
      </trkpt>
      <trkpt lat="46.45292" lon="4.77598">
        <ele>265.3</ele>
      </trkpt>
      <trkpt lat="46.45272" lon="4.77625">
        <ele>265.1</ele>
      </trkpt>
      <trkpt lat="46.45266" lon="4.77631">
        <ele>265.6</ele>
      </trkpt>
      <trkpt lat="46.45259" lon="4.77644">
        <ele>265.7</ele>
      </trkpt>
      <trkpt lat="46.45253" lon="4.7767">
        <ele>264.7</ele>
      </trkpt>
      <trkpt lat="46.45244" lon="4.77719">
        <ele>264.3</ele>
      </trkpt>
      <trkpt lat="46.45239" lon="4.7774">
        <ele>264.5</ele>
      </trkpt>
      <trkpt lat="46.45236" lon="4.77753">
        <ele>264.5</ele>
      </trkpt>
      <trkpt lat="46.45227" lon="4.77787">
        <ele>264.4</ele>
      </trkpt>
      <trkpt lat="46.45218" lon="4.77817">
        <ele>264.3</ele>
      </trkpt>
      <trkpt lat="46.45208" lon="4.77845">
        <ele>265.2</ele>
      </trkpt>
      <trkpt lat="46.45201" lon="4.77862">
        <ele>265.8</ele>
      </trkpt>
      <trkpt lat="46.45194" lon="4.77878">
        <ele>266.5</ele>
      </trkpt>
      <trkpt lat="46.45186" lon="4.77888">
        <ele>267.6</ele>
      </trkpt>
      <trkpt lat="46.4518" lon="4.77892">
        <ele>268.5</ele>
      </trkpt>
      <trkpt lat="46.45173" lon="4.77894">
        <ele>269.7</ele>
      </trkpt>
      <trkpt lat="46.45162" lon="4.77897">
        <ele>271.1</ele>
      </trkpt>
      <trkpt lat="46.45155" lon="4.77896">
        <ele>271.6</ele>
      </trkpt>
      <trkpt lat="46.45147" lon="4.77895">
        <ele>272.2</ele>
      </trkpt>
      <trkpt lat="46.45131" lon="4.7789">
        <ele>273.2</ele>
      </trkpt>
      <trkpt lat="46.45113" lon="4.77884">
        <ele>273.9</ele>
      </trkpt>
      <trkpt lat="46.45104" lon="4.77905">
        <ele>273</ele>
      </trkpt>
      <trkpt lat="46.45092" lon="4.77931">
        <ele>272.1</ele>
      </trkpt>
      <trkpt lat="46.4508" lon="4.77954">
        <ele>271.8</ele>
      </trkpt>
      <trkpt lat="46.45071" lon="4.77967">
        <ele>271.1</ele>
      </trkpt>
      <trkpt lat="46.45069" lon="4.7797">
        <ele>271</ele>
      </trkpt>
      <trkpt lat="46.45071" lon="4.77967">
        <ele>271.1</ele>
      </trkpt>
      <trkpt lat="46.45069" lon="4.77984">
        <ele>270.8</ele>
      </trkpt>
      <trkpt lat="46.45067" lon="4.77998">
        <ele>270.4</ele>
      </trkpt>
      <trkpt lat="46.45057" lon="4.78036">
        <ele>269.7</ele>
      </trkpt>
      <trkpt lat="46.45045" lon="4.78078">
        <ele>269.3</ele>
      </trkpt>
      <trkpt lat="46.45033" lon="4.78117">
        <ele>269.8</ele>
      </trkpt>
      <trkpt lat="46.4502" lon="4.78153">
        <ele>270.2</ele>
      </trkpt>
      <trkpt lat="46.45007" lon="4.78181">
        <ele>270.4</ele>
      </trkpt>
      <trkpt lat="46.44998" lon="4.78198">
        <ele>270.1</ele>
      </trkpt>
      <trkpt lat="46.44988" lon="4.78228">
        <ele>270.2</ele>
      </trkpt>
      <trkpt lat="46.4498" lon="4.78257">
        <ele>269.5</ele>
      </trkpt>
      <trkpt lat="46.44971" lon="4.78281">
        <ele>268.9</ele>
      </trkpt>
      <trkpt lat="46.44965" lon="4.78293">
        <ele>268.7</ele>
      </trkpt>
      <trkpt lat="46.44959" lon="4.78301">
        <ele>268.7</ele>
      </trkpt>
      <trkpt lat="46.44949" lon="4.78306">
        <ele>268.8</ele>
      </trkpt>
      <trkpt lat="46.44938" lon="4.7831">
        <ele>269.1</ele>
      </trkpt>
      <trkpt lat="46.44926" lon="4.7831">
        <ele>269.5</ele>
      </trkpt>
      <trkpt lat="46.4492" lon="4.78309">
        <ele>269.8</ele>
      </trkpt>
      <trkpt lat="46.44917" lon="4.78311">
        <ele>269.8</ele>
      </trkpt>
      <trkpt lat="46.44914" lon="4.78318">
        <ele>269.5</ele>
      </trkpt>
      <trkpt lat="46.44907" lon="4.78358">
        <ele>269</ele>
      </trkpt>
      <trkpt lat="46.44899" lon="4.78387">
        <ele>268.6</ele>
      </trkpt>
      <trkpt lat="46.44895" lon="4.78391">
        <ele>268.8</ele>
      </trkpt>
      <trkpt lat="46.44917" lon="4.78413">
        <ele>267.1</ele>
      </trkpt>
      <trkpt lat="46.44941" lon="4.78439">
        <ele>264.3</ele>
      </trkpt>
      <trkpt lat="46.44948" lon="4.78451">
        <ele>263.7</ele>
      </trkpt>
      <trkpt lat="46.44984" lon="4.78525">
        <ele>259.7</ele>
      </trkpt>
      <trkpt lat="46.44991" lon="4.7854">
        <ele>259</ele>
      </trkpt>
      <trkpt lat="46.45007" lon="4.78559">
        <ele>257.6</ele>
      </trkpt>
      <trkpt lat="46.4502" lon="4.78576">
        <ele>256.5</ele>
      </trkpt>
      <trkpt lat="46.45032" lon="4.78592">
        <ele>255.6</ele>
      </trkpt>
      <trkpt lat="46.45045" lon="4.78612">
        <ele>255</ele>
      </trkpt>
      <trkpt lat="46.45054" lon="4.7863">
        <ele>254.3</ele>
      </trkpt>
      <trkpt lat="46.45063" lon="4.78652">
        <ele>254.4</ele>
      </trkpt>
      <trkpt lat="46.45071" lon="4.7867">
        <ele>255.3</ele>
      </trkpt>
      <trkpt lat="46.45079" lon="4.78686">
        <ele>256.9</ele>
      </trkpt>
      <trkpt lat="46.45077" lon="4.78694">
        <ele>257.3</ele>
      </trkpt>
      <trkpt lat="46.45074" lon="4.78704">
        <ele>257.8</ele>
      </trkpt>
      <trkpt lat="46.45068" lon="4.78714">
        <ele>258.1</ele>
      </trkpt>
      <trkpt lat="46.45062" lon="4.78724">
        <ele>258.6</ele>
      </trkpt>
      <trkpt lat="46.45049" lon="4.78741">
        <ele>258.4</ele>
      </trkpt>
      <trkpt lat="46.45038" lon="4.78754">
        <ele>257.7</ele>
      </trkpt>
      <trkpt lat="46.45031" lon="4.78764">
        <ele>257.4</ele>
      </trkpt>
      <trkpt lat="46.45019" lon="4.78784">
        <ele>256.7</ele>
      </trkpt>
      <trkpt lat="46.45009" lon="4.78808">
        <ele>255.8</ele>
      </trkpt>
      <trkpt lat="46.45003" lon="4.78828">
        <ele>256</ele>
      </trkpt>
      <trkpt lat="46.44998" lon="4.78843">
        <ele>256</ele>
      </trkpt>
      <trkpt lat="46.44989" lon="4.78878">
        <ele>255.1</ele>
      </trkpt>
      <trkpt lat="46.44983" lon="4.78903">
        <ele>254.2</ele>
      </trkpt>
      <trkpt lat="46.44979" lon="4.78916">
        <ele>253.6</ele>
      </trkpt>
      <trkpt lat="46.44974" lon="4.78943">
        <ele>253.3</ele>
      </trkpt>
      <trkpt lat="46.4497" lon="4.78978">
        <ele>252.8</ele>
      </trkpt>
      <trkpt lat="46.44968" lon="4.79011">
        <ele>253</ele>
      </trkpt>
      <trkpt lat="46.44966" lon="4.79023">
        <ele>253.2</ele>
      </trkpt>
      <trkpt lat="46.44962" lon="4.79033">
        <ele>252.9</ele>
      </trkpt>
      <trkpt lat="46.44959" lon="4.79036">
        <ele>252.5</ele>
      </trkpt>
      <trkpt lat="46.44953" lon="4.79037">
        <ele>252</ele>
      </trkpt>
      <trkpt lat="46.44949" lon="4.79035">
        <ele>251.5</ele>
      </trkpt>
      <trkpt lat="46.44947" lon="4.79034">
        <ele>251.3</ele>
      </trkpt>
      <trkpt lat="46.44936" lon="4.79026">
        <ele>251</ele>
      </trkpt>
      <trkpt lat="46.44924" lon="4.79022">
        <ele>251</ele>
      </trkpt>
      <trkpt lat="46.44915" lon="4.79021">
        <ele>251.1</ele>
      </trkpt>
      <trkpt lat="46.44901" lon="4.79021">
        <ele>251.7</ele>
      </trkpt>
      <trkpt lat="46.44881" lon="4.79022">
        <ele>252.3</ele>
      </trkpt>
      <trkpt lat="46.44864" lon="4.79019">
        <ele>252.9</ele>
      </trkpt>
      <trkpt lat="46.44848" lon="4.79014">
        <ele>254.4</ele>
      </trkpt>
      <trkpt lat="46.4483" lon="4.79005">
        <ele>256.6</ele>
      </trkpt>
      <trkpt lat="46.44816" lon="4.78998">
        <ele>257.8</ele>
      </trkpt>
      <trkpt lat="46.44803" lon="4.78994">
        <ele>258.8</ele>
      </trkpt>
      <trkpt lat="46.4479" lon="4.78992">
        <ele>259.4</ele>
      </trkpt>
      <trkpt lat="46.44759" lon="4.78994">
        <ele>259.5</ele>
      </trkpt>
      <trkpt lat="46.44736" lon="4.78995">
        <ele>258.9</ele>
      </trkpt>
      <trkpt lat="46.44711" lon="4.78995">
        <ele>257.6</ele>
      </trkpt>
      <trkpt lat="46.44684" lon="4.78992">
        <ele>255.3</ele>
      </trkpt>
      <trkpt lat="46.44662" lon="4.78986">
        <ele>253</ele>
      </trkpt>
      <trkpt lat="46.44652" lon="4.78981">
        <ele>252.2</ele>
      </trkpt>
      <trkpt lat="46.44647" lon="4.78978">
        <ele>251.7</ele>
      </trkpt>
      <trkpt lat="46.44641" lon="4.7897">
        <ele>251.2</ele>
      </trkpt>
      <trkpt lat="46.44628" lon="4.78955">
        <ele>250.2</ele>
      </trkpt>
      <trkpt lat="46.44619" lon="4.78944">
        <ele>249.1</ele>
      </trkpt>
      <trkpt lat="46.44608" lon="4.78928">
        <ele>247.8</ele>
      </trkpt>
      <trkpt lat="46.44603" lon="4.78917">
        <ele>247.4</ele>
      </trkpt>
      <trkpt lat="46.44598" lon="4.789">
        <ele>247</ele>
      </trkpt>
      <trkpt lat="46.44592" lon="4.78884">
        <ele>246.5</ele>
      </trkpt>
      <trkpt lat="46.44586" lon="4.78875">
        <ele>245.7</ele>
      </trkpt>
      <trkpt lat="46.44579" lon="4.78871">
        <ele>245.1</ele>
      </trkpt>
      <trkpt lat="46.44566" lon="4.78865">
        <ele>244.4</ele>
      </trkpt>
      <trkpt lat="46.44568" lon="4.78871">
        <ele>244.6</ele>
      </trkpt>
      <trkpt lat="46.44567" lon="4.78886">
        <ele>244.8</ele>
      </trkpt>
      <trkpt lat="46.44565" lon="4.78922">
        <ele>244.7</ele>
      </trkpt>
      <trkpt lat="46.44566" lon="4.7895">
        <ele>244.7</ele>
      </trkpt>
      <trkpt lat="46.44569" lon="4.78977">
        <ele>244.8</ele>
      </trkpt>
      <trkpt lat="46.44572" lon="4.79009">
        <ele>244.5</ele>
      </trkpt>
      <trkpt lat="46.44574" lon="4.79035">
        <ele>244.1</ele>
      </trkpt>
      <trkpt lat="46.44574" lon="4.79049">
        <ele>243.8</ele>
      </trkpt>
      <trkpt lat="46.44572" lon="4.79068">
        <ele>243.6</ele>
      </trkpt>
      <trkpt lat="46.44569" lon="4.79098">
        <ele>243.7</ele>
      </trkpt>
      <trkpt lat="46.44568" lon="4.79114">
        <ele>244</ele>
      </trkpt>
      <trkpt lat="46.44569" lon="4.79125">
        <ele>244</ele>
      </trkpt>
      <trkpt lat="46.44574" lon="4.79137">
        <ele>244</ele>
      </trkpt>
      <trkpt lat="46.44587" lon="4.79158">
        <ele>244.7</ele>
      </trkpt>
      <trkpt lat="46.44597" lon="4.79176">
        <ele>245</ele>
      </trkpt>
      <trkpt lat="46.44604" lon="4.79184">
        <ele>245</ele>
      </trkpt>
      <trkpt lat="46.4461" lon="4.79187">
        <ele>245</ele>
      </trkpt>
      <trkpt lat="46.44619" lon="4.7919">
        <ele>245.2</ele>
      </trkpt>
      <trkpt lat="46.44642" lon="4.79189">
        <ele>245.8</ele>
      </trkpt>
      <trkpt lat="46.44665" lon="4.79187">
        <ele>245.7</ele>
      </trkpt>
      <trkpt lat="46.44677" lon="4.79188">
        <ele>245.8</ele>
      </trkpt>
      <trkpt lat="46.44696" lon="4.7919">
        <ele>246</ele>
      </trkpt>
      <trkpt lat="46.4472" lon="4.79193">
        <ele>246.9</ele>
      </trkpt>
      <trkpt lat="46.44739" lon="4.79199">
        <ele>247</ele>
      </trkpt>
      <trkpt lat="46.44769" lon="4.79205">
        <ele>247.3</ele>
      </trkpt>
      <trkpt lat="46.44803" lon="4.7921">
        <ele>247.6</ele>
      </trkpt>
      <trkpt lat="46.44816" lon="4.79212">
        <ele>247.6</ele>
      </trkpt>
      <trkpt lat="46.4482" lon="4.79212">
        <ele>247.6</ele>
      </trkpt>
      <trkpt lat="46.44841" lon="4.79214">
        <ele>248</ele>
      </trkpt>
      <trkpt lat="46.44876" lon="4.79218">
        <ele>248.8</ele>
      </trkpt>
      <trkpt lat="46.44899" lon="4.79221">
        <ele>249.3</ele>
      </trkpt>
      <trkpt lat="46.44908" lon="4.79223">
        <ele>249.7</ele>
      </trkpt>
      <trkpt lat="46.44912" lon="4.79231">
        <ele>250.1</ele>
      </trkpt>
      <trkpt lat="46.44911" lon="4.79242">
        <ele>250.5</ele>
      </trkpt>
      <trkpt lat="46.4491" lon="4.79257">
        <ele>251</ele>
      </trkpt>
      <trkpt lat="46.44913" lon="4.79267">
        <ele>251.5</ele>
      </trkpt>
      <trkpt lat="46.44918" lon="4.79277">
        <ele>252</ele>
      </trkpt>
      <trkpt lat="46.44924" lon="4.79288">
        <ele>252.5</ele>
      </trkpt>
      <trkpt lat="46.44929" lon="4.79294">
        <ele>252.9</ele>
      </trkpt>
      <trkpt lat="46.44938" lon="4.79304">
        <ele>253.6</ele>
      </trkpt>
      <trkpt lat="46.44951" lon="4.79309">
        <ele>254.5</ele>
      </trkpt>
      <trkpt lat="46.44978" lon="4.79314">
        <ele>255.8</ele>
      </trkpt>
      <trkpt lat="46.44995" lon="4.79319">
        <ele>256.8</ele>
      </trkpt>
      <trkpt lat="46.45" lon="4.7932">
        <ele>257</ele>
      </trkpt>
      <trkpt lat="46.45015" lon="4.79325">
        <ele>257.8</ele>
      </trkpt>
      <trkpt lat="46.45027" lon="4.79327">
        <ele>258.3</ele>
      </trkpt>
      <trkpt lat="46.45044" lon="4.79331">
        <ele>259.4</ele>
      </trkpt>
      <trkpt lat="46.45052" lon="4.79332">
        <ele>259.7</ele>
      </trkpt>
      <trkpt lat="46.45077" lon="4.79329">
        <ele>260.2</ele>
      </trkpt>
      <trkpt lat="46.45118" lon="4.79321">
        <ele>259.9</ele>
      </trkpt>
      <trkpt lat="46.4515" lon="4.79321">
        <ele>260.3</ele>
      </trkpt>
      <trkpt lat="46.45186" lon="4.79327">
        <ele>260.5</ele>
      </trkpt>
      <trkpt lat="46.45235" lon="4.79341">
        <ele>262.6</ele>
      </trkpt>
      <trkpt lat="46.45269" lon="4.79358">
        <ele>266.8</ele>
      </trkpt>
      <trkpt lat="46.45272" lon="4.79437">
        <ele>275.4</ele>
      </trkpt>
      <trkpt lat="46.45273" lon="4.7945">
        <ele>276.4</ele>
      </trkpt>
      <trkpt lat="46.45273" lon="4.79452">
        <ele>276.6</ele>
      </trkpt>
      <trkpt lat="46.45281" lon="4.79455">
        <ele>276.8</ele>
      </trkpt>
      <trkpt lat="46.45284" lon="4.79455">
        <ele>277</ele>
      </trkpt>
      <trkpt lat="46.45285" lon="4.79532">
        <ele>281.4</ele>
      </trkpt>
      <trkpt lat="46.45265" lon="4.79605">
        <ele>282.4</ele>
      </trkpt>
      <trkpt lat="46.45264" lon="4.79607">
        <ele>282.4</ele>
      </trkpt>
      <trkpt lat="46.45264" lon="4.79609">
        <ele>282.5</ele>
      </trkpt>
      <trkpt lat="46.45256" lon="4.79633">
        <ele>282</ele>
      </trkpt>
      <trkpt lat="46.45246" lon="4.79663">
        <ele>281.9</ele>
      </trkpt>
      <trkpt lat="46.45234" lon="4.79703">
        <ele>280.5</ele>
      </trkpt>
      <trkpt lat="46.45213" lon="4.79737">
        <ele>278.5</ele>
      </trkpt>
      <trkpt lat="46.45204" lon="4.7975">
        <ele>278</ele>
      </trkpt>
      <trkpt lat="46.45199" lon="4.79765">
        <ele>277.5</ele>
      </trkpt>
      <trkpt lat="46.45193" lon="4.79775">
        <ele>277</ele>
      </trkpt>
      <trkpt lat="46.45191" lon="4.79787">
        <ele>276.2</ele>
      </trkpt>
      <trkpt lat="46.45187" lon="4.79821">
        <ele>273.6</ele>
      </trkpt>
      <trkpt lat="46.45186" lon="4.79836">
        <ele>272.6</ele>
      </trkpt>
      <trkpt lat="46.45186" lon="4.79861">
        <ele>271</ele>
      </trkpt>
      <trkpt lat="46.45186" lon="4.79861">
        <ele>271</ele>
      </trkpt>
      <trkpt lat="46.45185" lon="4.79938">
        <ele>267.6</ele>
      </trkpt>
      <trkpt lat="46.45185" lon="4.79942">
        <ele>267.7</ele>
      </trkpt>
      <trkpt lat="46.45209" lon="4.7997">
        <ele>269.9</ele>
      </trkpt>
      <trkpt lat="46.45213" lon="4.80002">
        <ele>274.2</ele>
      </trkpt>
      <trkpt lat="46.45209" lon="4.80078">
        <ele>280.6</ele>
      </trkpt>
      <trkpt lat="46.45228" lon="4.80141">
        <ele>284.9</ele>
      </trkpt>
      <trkpt lat="46.45225" lon="4.80167">
        <ele>286</ele>
      </trkpt>
      <trkpt lat="46.45216" lon="4.80174">
        <ele>286.2</ele>
      </trkpt>
      <trkpt lat="46.4521" lon="4.80187">
        <ele>286.7</ele>
      </trkpt>
      <trkpt lat="46.45207" lon="4.80208">
        <ele>287.7</ele>
      </trkpt>
      <trkpt lat="46.45203" lon="4.8023">
        <ele>288.8</ele>
      </trkpt>
      <trkpt lat="46.45206" lon="4.80235">
        <ele>289.2</ele>
      </trkpt>
      <trkpt lat="46.45198" lon="4.80267">
        <ele>290.7</ele>
      </trkpt>
      <trkpt lat="46.4517" lon="4.80383">
        <ele>296.7</ele>
      </trkpt>
      <trkpt lat="46.45184" lon="4.8038">
        <ele>297</ele>
      </trkpt>
      <trkpt lat="46.45196" lon="4.80378">
        <ele>297.3</ele>
      </trkpt>
      <trkpt lat="46.4521" lon="4.80377">
        <ele>297.4</ele>
      </trkpt>
      <trkpt lat="46.45246" lon="4.80676">
        <ele>317.6</ele>
      </trkpt>
      <trkpt lat="46.45284" lon="4.80918">
        <ele>332.1</ele>
      </trkpt>
      <trkpt lat="46.45299" lon="4.81008">
        <ele>337.6</ele>
      </trkpt>
      <trkpt lat="46.45309" lon="4.81072">
        <ele>341.2</ele>
      </trkpt>
      <trkpt lat="46.4536" lon="4.814">
        <ele>358.7</ele>
      </trkpt>
      <trkpt lat="46.45377" lon="4.81391">
        <ele>359.3</ele>
      </trkpt>
      <trkpt lat="46.45402" lon="4.81448">
        <ele>364.7</ele>
      </trkpt>
      <trkpt lat="46.45438" lon="4.81525">
        <ele>376.9</ele>
      </trkpt>
      <trkpt lat="46.4546" lon="4.81582">
        <ele>382.1</ele>
      </trkpt>
      <trkpt lat="46.45464" lon="4.81601">
        <ele>383.1</ele>
      </trkpt>
      <trkpt lat="46.45465" lon="4.81621">
        <ele>384.6</ele>
      </trkpt>
      <trkpt lat="46.45463" lon="4.81635">
        <ele>386</ele>
      </trkpt>
      <trkpt lat="46.45461" lon="4.81646">
        <ele>386.7</ele>
      </trkpt>
      <trkpt lat="46.45457" lon="4.81661">
        <ele>387.7</ele>
      </trkpt>
      <trkpt lat="46.45455" lon="4.81679">
        <ele>387.4</ele>
      </trkpt>
      <trkpt lat="46.45454" lon="4.81692">
        <ele>386.6</ele>
      </trkpt>
      <trkpt lat="46.45456" lon="4.81699">
        <ele>386.2</ele>
      </trkpt>
      <trkpt lat="46.45462" lon="4.81709">
        <ele>386.3</ele>
      </trkpt>
      <trkpt lat="46.45467" lon="4.8172">
        <ele>386.2</ele>
      </trkpt>
      <trkpt lat="46.45473" lon="4.81741">
        <ele>385.2</ele>
      </trkpt>
      <trkpt lat="46.4548" lon="4.81764">
        <ele>384.5</ele>
      </trkpt>
      <trkpt lat="46.45483" lon="4.81786">
        <ele>383.2</ele>
      </trkpt>
      <trkpt lat="46.45486" lon="4.81808">
        <ele>381.8</ele>
      </trkpt>
      <trkpt lat="46.45491" lon="4.81829">
        <ele>380.4</ele>
      </trkpt>
      <trkpt lat="46.45501" lon="4.81856">
        <ele>378.7</ele>
      </trkpt>
      <trkpt lat="46.45511" lon="4.81878">
        <ele>378</ele>
      </trkpt>
      <trkpt lat="46.45517" lon="4.81894">
        <ele>377.6</ele>
      </trkpt>
      <trkpt lat="46.45519" lon="4.81908">
        <ele>377.2</ele>
      </trkpt>
      <trkpt lat="46.4552" lon="4.81915">
        <ele>376.9</ele>
      </trkpt>
      <trkpt lat="46.45522" lon="4.81935">
        <ele>375.2</ele>
      </trkpt>
      <trkpt lat="46.45524" lon="4.81958">
        <ele>373.1</ele>
      </trkpt>
      <trkpt lat="46.45526" lon="4.81968">
        <ele>372.1</ele>
      </trkpt>
      <trkpt lat="46.45528" lon="4.81975">
        <ele>371.8</ele>
      </trkpt>
      <trkpt lat="46.45533" lon="4.81989">
        <ele>371.6</ele>
      </trkpt>
      <trkpt lat="46.45535" lon="4.82">
        <ele>371</ele>
      </trkpt>
      <trkpt lat="46.45542" lon="4.82025">
        <ele>370.7</ele>
      </trkpt>
      <trkpt lat="46.45551" lon="4.82052">
        <ele>370.9</ele>
      </trkpt>
      <trkpt lat="46.45554" lon="4.82069">
        <ele>371.4</ele>
      </trkpt>
      <trkpt lat="46.45548" lon="4.82071">
        <ele>371.3</ele>
      </trkpt>
      <trkpt lat="46.45541" lon="4.82077">
        <ele>371.2</ele>
      </trkpt>
      <trkpt lat="46.45486" lon="4.82129">
        <ele>372.8</ele>
      </trkpt>
      <trkpt lat="46.45414" lon="4.82202">
        <ele>375.5</ele>
      </trkpt>
      <trkpt lat="46.45387" lon="4.82224">
        <ele>376.1</ele>
      </trkpt>
      <trkpt lat="46.45391" lon="4.8223">
        <ele>376.6</ele>
      </trkpt>
      <trkpt lat="46.45396" lon="4.82234">
        <ele>377</ele>
      </trkpt>
      <trkpt lat="46.45403" lon="4.82236">
        <ele>377.2</ele>
      </trkpt>
      <trkpt lat="46.45413" lon="4.82237">
        <ele>377.5</ele>
      </trkpt>
      <trkpt lat="46.45422" lon="4.82238">
        <ele>377.6</ele>
      </trkpt>
      <trkpt lat="46.45428" lon="4.82239">
        <ele>377.6</ele>
      </trkpt>
      <trkpt lat="46.45434" lon="4.82241">
        <ele>377.7</ele>
      </trkpt>
      <trkpt lat="46.45442" lon="4.82249">
        <ele>378</ele>
      </trkpt>
      <trkpt lat="46.45451" lon="4.82259">
        <ele>378.2</ele>
      </trkpt>
      <trkpt lat="46.45464" lon="4.82277">
        <ele>378.3</ele>
      </trkpt>
      <trkpt lat="46.45476" lon="4.82289">
        <ele>378.2</ele>
      </trkpt>
      <trkpt lat="46.45478" lon="4.82291">
        <ele>378.2</ele>
      </trkpt>
      <trkpt lat="46.45498" lon="4.82308">
        <ele>377.2</ele>
      </trkpt>
      <trkpt lat="46.4554" lon="4.8234">
        <ele>375.2</ele>
      </trkpt>
      <trkpt lat="46.45546" lon="4.82344">
        <ele>374.7</ele>
      </trkpt>
      <trkpt lat="46.45538" lon="4.82387">
        <ele>375.8</ele>
      </trkpt>
      <trkpt lat="46.45535" lon="4.82404">
        <ele>376.7</ele>
      </trkpt>
      <trkpt lat="46.45533" lon="4.82412">
        <ele>377.3</ele>
      </trkpt>
      <trkpt lat="46.4553" lon="4.82417">
        <ele>377.8</ele>
      </trkpt>
      <trkpt lat="46.45526" lon="4.8242">
        <ele>378.4</ele>
      </trkpt>
      <trkpt lat="46.45522" lon="4.82423">
        <ele>378.9</ele>
      </trkpt>
      <trkpt lat="46.45518" lon="4.82431">
        <ele>379.6</ele>
      </trkpt>
      <trkpt lat="46.45515" lon="4.82442">
        <ele>380.3</ele>
      </trkpt>
      <trkpt lat="46.45513" lon="4.82458">
        <ele>381.4</ele>
      </trkpt>
      <trkpt lat="46.4551" lon="4.8249">
        <ele>383.2</ele>
      </trkpt>
      <trkpt lat="46.45505" lon="4.82541">
        <ele>385.7</ele>
      </trkpt>
      <trkpt lat="46.45503" lon="4.82589">
        <ele>388.9</ele>
      </trkpt>
      <trkpt lat="46.45502" lon="4.82624">
        <ele>391.6</ele>
      </trkpt>
      <trkpt lat="46.45506" lon="4.82657">
        <ele>392.6</ele>
      </trkpt>
      <trkpt lat="46.45541" lon="4.82719">
        <ele>389.5</ele>
      </trkpt>
      <trkpt lat="46.45605" lon="4.8282">
        <ele>379.3</ele>
      </trkpt>
      <trkpt lat="46.45609" lon="4.82875">
        <ele>383.3</ele>
      </trkpt>
      <trkpt lat="46.45656" lon="4.82928">
        <ele>378.6</ele>
      </trkpt>
      <trkpt lat="46.45774" lon="4.83072">
        <ele>365.4</ele>
      </trkpt>
      <trkpt lat="46.45918" lon="4.83213">
        <ele>363.9</ele>
      </trkpt>
      <trkpt lat="46.46044" lon="4.83263">
        <ele>353.1</ele>
      </trkpt>
      <trkpt lat="46.46279" lon="4.83376">
        <ele>346.6</ele>
      </trkpt>
      <trkpt lat="46.46326" lon="4.8339">
        <ele>342.7</ele>
      </trkpt>
      <trkpt lat="46.4636" lon="4.83396">
        <ele>339.9</ele>
      </trkpt>
      <trkpt lat="46.46364" lon="4.83388">
        <ele>336.3</ele>
      </trkpt>
      <trkpt lat="46.46361" lon="4.83385">
        <ele>335.9</ele>
      </trkpt>
      <trkpt lat="46.46335" lon="4.83362">
        <ele>334</ele>
      </trkpt>
      <trkpt lat="46.46332" lon="4.83354">
        <ele>332.3</ele>
      </trkpt>
      <trkpt lat="46.46327" lon="4.83343">
        <ele>330.2</ele>
      </trkpt>
      <trkpt lat="46.4632" lon="4.83332">
        <ele>328.8</ele>
      </trkpt>
      <trkpt lat="46.46315" lon="4.83322">
        <ele>327.3</ele>
      </trkpt>
      <trkpt lat="46.46313" lon="4.83313">
        <ele>325.6</ele>
      </trkpt>
      <trkpt lat="46.46312" lon="4.83298">
        <ele>323.1</ele>
      </trkpt>
      <trkpt lat="46.46311" lon="4.83287">
        <ele>321.2</ele>
      </trkpt>
      <trkpt lat="46.4631" lon="4.83279">
        <ele>319.9</ele>
      </trkpt>
      <trkpt lat="46.4631" lon="4.8327">
        <ele>318.7</ele>
      </trkpt>
      <trkpt lat="46.46312" lon="4.83262">
        <ele>317.7</ele>
      </trkpt>
      <trkpt lat="46.46315" lon="4.83249">
        <ele>315.9</ele>
      </trkpt>
      <trkpt lat="46.4632" lon="4.83236">
        <ele>313.5</ele>
      </trkpt>
      <trkpt lat="46.46323" lon="4.8323">
        <ele>312.3</ele>
      </trkpt>
      <trkpt lat="46.46326" lon="4.83225">
        <ele>311.2</ele>
      </trkpt>
      <trkpt lat="46.46331" lon="4.83215">
        <ele>309.4</ele>
      </trkpt>
      <trkpt lat="46.46334" lon="4.83205">
        <ele>308.1</ele>
      </trkpt>
      <trkpt lat="46.46342" lon="4.83191">
        <ele>306.5</ele>
      </trkpt>
      <trkpt lat="46.46337" lon="4.83188">
        <ele>306.6</ele>
      </trkpt>
      <trkpt lat="46.46326" lon="4.83177">
        <ele>306.8</ele>
      </trkpt>
      <trkpt lat="46.46317" lon="4.8317">
        <ele>306.8</ele>
      </trkpt>
      <trkpt lat="46.46321" lon="4.83163">
        <ele>306</ele>
      </trkpt>
      <trkpt lat="46.46324" lon="4.83155">
        <ele>304.9</ele>
      </trkpt>
      <trkpt lat="46.46326" lon="4.83146">
        <ele>303.7</ele>
      </trkpt>
      <trkpt lat="46.46327" lon="4.83136">
        <ele>302.4</ele>
      </trkpt>
      <trkpt lat="46.46328" lon="4.83127">
        <ele>301.6</ele>
      </trkpt>
      <trkpt lat="46.46329" lon="4.83117">
        <ele>300.8</ele>
      </trkpt>
      <trkpt lat="46.46329" lon="4.8311">
        <ele>300.2</ele>
      </trkpt>
      <trkpt lat="46.46328" lon="4.83103">
        <ele>299.3</ele>
      </trkpt>
      <trkpt lat="46.46327" lon="4.83096">
        <ele>298.4</ele>
      </trkpt>
      <trkpt lat="46.46325" lon="4.83091">
        <ele>297.8</ele>
      </trkpt>
      <trkpt lat="46.46319" lon="4.83083">
        <ele>297.4</ele>
      </trkpt>
      <trkpt lat="46.46313" lon="4.83077">
        <ele>296.2</ele>
      </trkpt>
      <trkpt lat="46.46292" lon="4.83057">
        <ele>293.5</ele>
      </trkpt>
      <trkpt lat="46.4627" lon="4.8304">
        <ele>292.7</ele>
      </trkpt>
      <trkpt lat="46.4625" lon="4.83024">
        <ele>292.1</ele>
      </trkpt>
      <trkpt lat="46.46232" lon="4.83011">
        <ele>291.9</ele>
      </trkpt>
      <trkpt lat="46.4621" lon="4.82996">
        <ele>292.2</ele>
      </trkpt>
      <trkpt lat="46.46189" lon="4.82982">
        <ele>291.6</ele>
      </trkpt>
      <trkpt lat="46.46168" lon="4.82968">
        <ele>291.8</ele>
      </trkpt>
      <trkpt lat="46.46154" lon="4.82953">
        <ele>290.5</ele>
      </trkpt>
      <trkpt lat="46.46146" lon="4.82942">
        <ele>289.7</ele>
      </trkpt>
      <trkpt lat="46.46142" lon="4.82937">
        <ele>289.7</ele>
      </trkpt>
      <trkpt lat="46.46123" lon="4.82916">
        <ele>290.2</ele>
      </trkpt>
      <trkpt lat="46.46104" lon="4.82897">
        <ele>291.9</ele>
      </trkpt>
      <trkpt lat="46.46089" lon="4.8288">
        <ele>293.2</ele>
      </trkpt>
      <trkpt lat="46.46078" lon="4.82866">
        <ele>293.4</ele>
      </trkpt>
      <trkpt lat="46.46065" lon="4.82844">
        <ele>293.7</ele>
      </trkpt>
      <trkpt lat="46.4605" lon="4.82819">
        <ele>293.2</ele>
      </trkpt>
      <trkpt lat="46.46039" lon="4.82797">
        <ele>292.5</ele>
      </trkpt>
      <trkpt lat="46.4603" lon="4.82779">
        <ele>291.8</ele>
      </trkpt>
      <trkpt lat="46.46025" lon="4.82767">
        <ele>291.4</ele>
      </trkpt>
      <trkpt lat="46.4602" lon="4.82754">
        <ele>291</ele>
      </trkpt>
      <trkpt lat="46.46017" lon="4.82742">
        <ele>290.9</ele>
      </trkpt>
      <trkpt lat="46.46014" lon="4.82733">
        <ele>290.7</ele>
      </trkpt>
      <trkpt lat="46.46011" lon="4.82719">
        <ele>290.5</ele>
      </trkpt>
      <trkpt lat="46.46005" lon="4.82701">
        <ele>290.2</ele>
      </trkpt>
      <trkpt lat="46.45999" lon="4.82678">
        <ele>289.3</ele>
      </trkpt>
      <trkpt lat="46.45993" lon="4.82659">
        <ele>289.3</ele>
      </trkpt>
      <trkpt lat="46.45989" lon="4.82647">
        <ele>289.5</ele>
      </trkpt>
      <trkpt lat="46.45986" lon="4.8264">
        <ele>289.5</ele>
      </trkpt>
      <trkpt lat="46.45984" lon="4.82631">
        <ele>289.8</ele>
      </trkpt>
      <trkpt lat="46.45983" lon="4.82623">
        <ele>290</ele>
      </trkpt>
      <trkpt lat="46.45983" lon="4.82616">
        <ele>290.1</ele>
      </trkpt>
      <trkpt lat="46.45983" lon="4.82604">
        <ele>290.8</ele>
      </trkpt>
      <trkpt lat="46.45985" lon="4.82595">
        <ele>291.5</ele>
      </trkpt>
      <trkpt lat="46.45997" lon="4.82533">
        <ele>297.9</ele>
      </trkpt>
      <trkpt lat="46.45991" lon="4.82482">
        <ele>299.5</ele>
      </trkpt>
      <trkpt lat="46.45973" lon="4.82373">
        <ele>299.5</ele>
      </trkpt>
      <trkpt lat="46.45989" lon="4.8238">
        <ele>299.4</ele>
      </trkpt>
      <trkpt lat="46.46025" lon="4.82419">
        <ele>295.7</ele>
      </trkpt>
      <trkpt lat="46.46102" lon="4.82479">
        <ele>288.1</ele>
      </trkpt>
      <trkpt lat="46.46148" lon="4.8252">
        <ele>280.9</ele>
      </trkpt>
      <trkpt lat="46.46192" lon="4.82573">
        <ele>269.7</ele>
      </trkpt>
      <trkpt lat="46.46244" lon="4.8262">
        <ele>265.2</ele>
      </trkpt>
      <trkpt lat="46.46303" lon="4.82637">
        <ele>262.6</ele>
      </trkpt>
      <trkpt lat="46.46369" lon="4.8265">
        <ele>262.8</ele>
      </trkpt>
      <trkpt lat="46.46407" lon="4.82691">
        <ele>256.9</ele>
      </trkpt>
      <trkpt lat="46.46437" lon="4.82689">
        <ele>255.9</ele>
      </trkpt>
      <trkpt lat="46.46446" lon="4.8269">
        <ele>255.5</ele>
      </trkpt>
      <trkpt lat="46.46456" lon="4.82689">
        <ele>255.6</ele>
      </trkpt>
      <trkpt lat="46.46463" lon="4.82687">
        <ele>255.8</ele>
      </trkpt>
      <trkpt lat="46.46472" lon="4.82687">
        <ele>255.9</ele>
      </trkpt>
      <trkpt lat="46.46479" lon="4.82687">
        <ele>256.2</ele>
      </trkpt>
      <trkpt lat="46.46487" lon="4.82689">
        <ele>256.3</ele>
      </trkpt>
      <trkpt lat="46.46497" lon="4.82694">
        <ele>256</ele>
      </trkpt>
      <trkpt lat="46.46507" lon="4.82698">
        <ele>256</ele>
      </trkpt>
      <trkpt lat="46.46516" lon="4.82701">
        <ele>256.1</ele>
      </trkpt>
      <trkpt lat="46.46523" lon="4.82703">
        <ele>256.2</ele>
      </trkpt>
      <trkpt lat="46.46534" lon="4.82706">
        <ele>255.8</ele>
      </trkpt>
      <trkpt lat="46.46543" lon="4.8271">
        <ele>255</ele>
      </trkpt>
      <trkpt lat="46.46553" lon="4.82713">
        <ele>254.4</ele>
      </trkpt>
      <trkpt lat="46.46561" lon="4.82713">
        <ele>253.9</ele>
      </trkpt>
      <trkpt lat="46.46571" lon="4.82712">
        <ele>253.1</ele>
      </trkpt>
      <trkpt lat="46.46579" lon="4.82711">
        <ele>252.6</ele>
      </trkpt>
      <trkpt lat="46.46588" lon="4.82709">
        <ele>251.9</ele>
      </trkpt>
      <trkpt lat="46.46596" lon="4.82707">
        <ele>251</ele>
      </trkpt>
      <trkpt lat="46.46602" lon="4.82704">
        <ele>250.5</ele>
      </trkpt>
      <trkpt lat="46.46609" lon="4.82703">
        <ele>249.7</ele>
      </trkpt>
      <trkpt lat="46.46616" lon="4.82702">
        <ele>249.8</ele>
      </trkpt>
      <trkpt lat="46.46623" lon="4.82702">
        <ele>250.2</ele>
      </trkpt>
      <trkpt lat="46.46629" lon="4.82705">
        <ele>250.2</ele>
      </trkpt>
      <trkpt lat="46.46635" lon="4.82709">
        <ele>249.7</ele>
      </trkpt>
      <trkpt lat="46.46649" lon="4.82721">
        <ele>247.8</ele>
      </trkpt>
      <trkpt lat="46.4666" lon="4.82728">
        <ele>246.6</ele>
      </trkpt>
      <trkpt lat="46.46674" lon="4.82734">
        <ele>245.7</ele>
      </trkpt>
      <trkpt lat="46.46685" lon="4.82739">
        <ele>245.2</ele>
      </trkpt>
      <trkpt lat="46.467" lon="4.8275">
        <ele>244.2</ele>
      </trkpt>
      <trkpt lat="46.46727" lon="4.82777">
        <ele>240.7</ele>
      </trkpt>
      <trkpt lat="46.46751" lon="4.82808">
        <ele>236.8</ele>
      </trkpt>
      <trkpt lat="46.46755" lon="4.82812">
        <ele>236.7</ele>
      </trkpt>
      <trkpt lat="46.46762" lon="4.82814">
        <ele>237.1</ele>
      </trkpt>
      <trkpt lat="46.46766" lon="4.82819">
        <ele>236.6</ele>
      </trkpt>
      <trkpt lat="46.46771" lon="4.82826">
        <ele>235.4</ele>
      </trkpt>
      <trkpt lat="46.46818" lon="4.82832">
        <ele>237</ele>
      </trkpt>
      <trkpt lat="46.46847" lon="4.82819">
        <ele>240.1</ele>
      </trkpt>
      <trkpt lat="46.46862" lon="4.82795">
        <ele>243.3</ele>
      </trkpt>
      <trkpt lat="46.4688" lon="4.82749">
        <ele>250.5</ele>
      </trkpt>
      <trkpt lat="46.46894" lon="4.8267">
        <ele>260.2</ele>
      </trkpt>
      <trkpt lat="46.46909" lon="4.82638">
        <ele>260.2</ele>
      </trkpt>
      <trkpt lat="46.46926" lon="4.82633">
        <ele>260</ele>
      </trkpt>
      <trkpt lat="46.46959" lon="4.82635">
        <ele>263.3</ele>
      </trkpt>
      <trkpt lat="46.46987" lon="4.82619">
        <ele>267.5</ele>
      </trkpt>
      <trkpt lat="46.47026" lon="4.82579">
        <ele>269.4</ele>
      </trkpt>
      <trkpt lat="46.47041" lon="4.82523">
        <ele>271.3</ele>
      </trkpt>
      <trkpt lat="46.46975" lon="4.82497">
        <ele>278.9</ele>
      </trkpt>
      <trkpt lat="46.46905" lon="4.8245">
        <ele>289.4</ele>
      </trkpt>
      <trkpt lat="46.46802" lon="4.82426">
        <ele>304.5</ele>
      </trkpt>
      <trkpt lat="46.46771" lon="4.82419">
        <ele>308.9</ele>
      </trkpt>
      <trkpt lat="46.4669" lon="4.82407">
        <ele>317.7</ele>
      </trkpt>
      <trkpt lat="46.46629" lon="4.82381">
        <ele>327.8</ele>
      </trkpt>
      <trkpt lat="46.46602" lon="4.82359">
        <ele>334.5</ele>
      </trkpt>
      <trkpt lat="46.46559" lon="4.82312">
        <ele>345.4</ele>
      </trkpt>
      <trkpt lat="46.46493" lon="4.82237">
        <ele>355.7</ele>
      </trkpt>
      <trkpt lat="46.46428" lon="4.82162">
        <ele>367.7</ele>
      </trkpt>
      <trkpt lat="46.46367" lon="4.82091">
        <ele>381.4</ele>
      </trkpt>
      <trkpt lat="46.46325" lon="4.82049">
        <ele>390.7</ele>
      </trkpt>
      <trkpt lat="46.46253" lon="4.82001">
        <ele>398.3</ele>
      </trkpt>
      <trkpt lat="46.46269" lon="4.81982">
        <ele>400.8</ele>
      </trkpt>
      <trkpt lat="46.46289" lon="4.81954">
        <ele>397.9</ele>
      </trkpt>
      <trkpt lat="46.46296" lon="4.81929">
        <ele>395.2</ele>
      </trkpt>
      <trkpt lat="46.46302" lon="4.81921">
        <ele>393.9</ele>
      </trkpt>
      <trkpt lat="46.46305" lon="4.81908">
        <ele>392.1</ele>
      </trkpt>
      <trkpt lat="46.46302" lon="4.8189">
        <ele>390.5</ele>
      </trkpt>
      <trkpt lat="46.463" lon="4.81889">
        <ele>390.6</ele>
      </trkpt>
      <trkpt lat="46.46295" lon="4.81876">
        <ele>389.3</ele>
      </trkpt>
      <trkpt lat="46.46314" lon="4.81877">
        <ele>386.4</ele>
      </trkpt>
      <trkpt lat="46.46329" lon="4.81897">
        <ele>386</ele>
      </trkpt>
      <trkpt lat="46.46333" lon="4.81898">
        <ele>385.4</ele>
      </trkpt>
      <trkpt lat="46.46337" lon="4.81891">
        <ele>383.5</ele>
      </trkpt>
      <trkpt lat="46.46328" lon="4.81858">
        <ele>380.8</ele>
      </trkpt>
      <trkpt lat="46.46319" lon="4.81835">
        <ele>379.8</ele>
      </trkpt>
      <trkpt lat="46.4632" lon="4.81817">
        <ele>376.7</ele>
      </trkpt>
      <trkpt lat="46.46317" lon="4.81807">
        <ele>375.6</ele>
      </trkpt>
      <trkpt lat="46.46317" lon="4.81791">
        <ele>373.5</ele>
      </trkpt>
      <trkpt lat="46.46323" lon="4.81781">
        <ele>371.6</ele>
      </trkpt>
      <trkpt lat="46.46329" lon="4.81778">
        <ele>370.5</ele>
      </trkpt>
      <trkpt lat="46.46335" lon="4.81778">
        <ele>369.7</ele>
      </trkpt>
      <trkpt lat="46.46346" lon="4.81785">
        <ele>368.5</ele>
      </trkpt>
      <trkpt lat="46.46351" lon="4.81793">
        <ele>368.4</ele>
      </trkpt>
      <trkpt lat="46.46363" lon="4.81797">
        <ele>366.6</ele>
      </trkpt>
      <trkpt lat="46.46368" lon="4.81788">
        <ele>364.3</ele>
      </trkpt>
      <trkpt lat="46.46368" lon="4.8177">
        <ele>362.8</ele>
      </trkpt>
      <trkpt lat="46.46367" lon="4.81763">
        <ele>362.5</ele>
      </trkpt>
      <trkpt lat="46.46374" lon="4.81711">
        <ele>357.2</ele>
      </trkpt>
      <trkpt lat="46.46378" lon="4.81702">
        <ele>355.6</ele>
      </trkpt>
      <trkpt lat="46.46384" lon="4.81698">
        <ele>354.3</ele>
      </trkpt>
      <trkpt lat="46.46389" lon="4.81697">
        <ele>353.1</ele>
      </trkpt>
      <trkpt lat="46.464" lon="4.81703">
        <ele>350.1</ele>
      </trkpt>
      <trkpt lat="46.46404" lon="4.81691">
        <ele>347.3</ele>
      </trkpt>
      <trkpt lat="46.46415" lon="4.81692">
        <ele>344.2</ele>
      </trkpt>
      <trkpt lat="46.46424" lon="4.817">
        <ele>341.7</ele>
      </trkpt>
      <trkpt lat="46.46432" lon="4.81705">
        <ele>339.5</ele>
      </trkpt>
      <trkpt lat="46.46434" lon="4.817">
        <ele>338.1</ele>
      </trkpt>
      <trkpt lat="46.46441" lon="4.81697">
        <ele>334.6</ele>
      </trkpt>
      <trkpt lat="46.46451" lon="4.81665">
        <ele>327.4</ele>
      </trkpt>
      <trkpt lat="46.46453" lon="4.81646">
        <ele>325.6</ele>
      </trkpt>
      <trkpt lat="46.46457" lon="4.81628">
        <ele>323.7</ele>
      </trkpt>
      <trkpt lat="46.4647" lon="4.81596">
        <ele>319.4</ele>
      </trkpt>
      <trkpt lat="46.46487" lon="4.81578">
        <ele>315.5</ele>
      </trkpt>
      <trkpt lat="46.46499" lon="4.81566">
        <ele>312.9</ele>
      </trkpt>
      <trkpt lat="46.46498" lon="4.81557">
        <ele>312.4</ele>
      </trkpt>
      <trkpt lat="46.46497" lon="4.81539">
        <ele>311.3</ele>
      </trkpt>
      <trkpt lat="46.46498" lon="4.81526">
        <ele>310.2</ele>
      </trkpt>
      <trkpt lat="46.46493" lon="4.81478">
        <ele>307.5</ele>
      </trkpt>
      <trkpt lat="46.46496" lon="4.81462">
        <ele>305.8</ele>
      </trkpt>
      <trkpt lat="46.46505" lon="4.81425">
        <ele>302.1</ele>
      </trkpt>
      <trkpt lat="46.46508" lon="4.81407">
        <ele>300.7</ele>
      </trkpt>
      <trkpt lat="46.46541" lon="4.81363">
        <ele>295.6</ele>
      </trkpt>
      <trkpt lat="46.46558" lon="4.81357">
        <ele>293.5</ele>
      </trkpt>
      <trkpt lat="46.46591" lon="4.81333">
        <ele>288.6</ele>
      </trkpt>
      <trkpt lat="46.46621" lon="4.8131">
        <ele>286</ele>
      </trkpt>
      <trkpt lat="46.46624" lon="4.8131">
        <ele>285.9</ele>
      </trkpt>
      <trkpt lat="46.46625" lon="4.81309">
        <ele>285.8</ele>
      </trkpt>
      <trkpt lat="46.46627" lon="4.81308">
        <ele>285.7</ele>
      </trkpt>
      <trkpt lat="46.4664" lon="4.81298">
        <ele>285</ele>
      </trkpt>
      <trkpt lat="46.46658" lon="4.8133">
        <ele>284</ele>
      </trkpt>
      <trkpt lat="46.46667" lon="4.81353">
        <ele>284</ele>
      </trkpt>
      <trkpt lat="46.46681" lon="4.81396">
        <ele>283</ele>
      </trkpt>
      <trkpt lat="46.46691" lon="4.81414">
        <ele>283</ele>
      </trkpt>
      <trkpt lat="46.46728" lon="4.81479">
        <ele>279.6</ele>
      </trkpt>
      <trkpt lat="46.46737" lon="4.81497">
        <ele>279</ele>
      </trkpt>
      <trkpt lat="46.46745" lon="4.81532">
        <ele>278.1</ele>
      </trkpt>
      <trkpt lat="46.46744" lon="4.81572">
        <ele>277</ele>
      </trkpt>
      <trkpt lat="46.46816" lon="4.81547">
        <ele>266.7</ele>
      </trkpt>
      <trkpt lat="46.46847" lon="4.81521">
        <ele>264</ele>
      </trkpt>
      <trkpt lat="46.46859" lon="4.81486">
        <ele>259.5</ele>
      </trkpt>
      <trkpt lat="46.46858" lon="4.81451">
        <ele>256.6</ele>
      </trkpt>
      <trkpt lat="46.46856" lon="4.81406">
        <ele>254.7</ele>
      </trkpt>
      <trkpt lat="46.46853" lon="4.81388">
        <ele>254.4</ele>
      </trkpt>
      <trkpt lat="46.46855" lon="4.81371">
        <ele>253.3</ele>
      </trkpt>
      <trkpt lat="46.4686" lon="4.81357">
        <ele>252.1</ele>
      </trkpt>
      <trkpt lat="46.46868" lon="4.81337">
        <ele>249.6</ele>
      </trkpt>
      <trkpt lat="46.46881" lon="4.81312">
        <ele>245.5</ele>
      </trkpt>
      <trkpt lat="46.4689" lon="4.81289">
        <ele>242.7</ele>
      </trkpt>
      <trkpt lat="46.46905" lon="4.81252">
        <ele>236.9</ele>
      </trkpt>
      <trkpt lat="46.46912" lon="4.81231">
        <ele>235.4</ele>
      </trkpt>
      <trkpt lat="46.46984" lon="4.81244">
        <ele>231.7</ele>
      </trkpt>
      <trkpt lat="46.47066" lon="4.81265">
        <ele>228.6</ele>
      </trkpt>
      <trkpt lat="46.4708" lon="4.8127">
        <ele>228.1</ele>
      </trkpt>
      <trkpt lat="46.47087" lon="4.8124">
        <ele>227.8</ele>
      </trkpt>
      <trkpt lat="46.47098" lon="4.81212">
        <ele>227.3</ele>
      </trkpt>
      <trkpt lat="46.47105" lon="4.8118">
        <ele>227.8</ele>
      </trkpt>
      <trkpt lat="46.4711" lon="4.81148">
        <ele>227.4</ele>
      </trkpt>
      <trkpt lat="46.47112" lon="4.8109">
        <ele>227.7</ele>
      </trkpt>
      <trkpt lat="46.47105" lon="4.81091">
        <ele>228.2</ele>
      </trkpt>
      <trkpt lat="46.47105" lon="4.81018">
        <ele>228.4</ele>
      </trkpt>
      <trkpt lat="46.47105" lon="4.81006">
        <ele>228.4</ele>
      </trkpt>
      <trkpt lat="46.47105" lon="4.80994">
        <ele>228.6</ele>
      </trkpt>
      <trkpt lat="46.47105" lon="4.80972">
        <ele>229.2</ele>
      </trkpt>
      <trkpt lat="46.47105" lon="4.80964">
        <ele>229.4</ele>
      </trkpt>
      <trkpt lat="46.47105" lon="4.80929">
        <ele>230.2</ele>
      </trkpt>
      <trkpt lat="46.47106" lon="4.80916">
        <ele>230.6</ele>
      </trkpt>
      <trkpt lat="46.47108" lon="4.80904">
        <ele>230.8</ele>
      </trkpt>
      <trkpt lat="46.47111" lon="4.80891">
        <ele>231</ele>
      </trkpt>
      <trkpt lat="46.47116" lon="4.80875">
        <ele>231</ele>
      </trkpt>
      <trkpt lat="46.47121" lon="4.80862">
        <ele>231</ele>
      </trkpt>
      <trkpt lat="46.47126" lon="4.80853">
        <ele>230.6</ele>
      </trkpt>
      <trkpt lat="46.47134" lon="4.80844">
        <ele>230.1</ele>
      </trkpt>
      <trkpt lat="46.47152" lon="4.80832">
        <ele>229.6</ele>
      </trkpt>
      <trkpt lat="46.47158" lon="4.80829">
        <ele>229.4</ele>
      </trkpt>
    </trkseg>
  </trk>
  <trk>
    <name><![CDATA[16-PATRIMOINE_VITICOLE_ET_ARCHITECTURAL - Rouge]]></name>
    <extensions>
      <line xmlns="http://www.topografix.com/GPX/gpx_style/0/2">
        <color>ae00ff</color>
        <width>4</width>
      </line>
    </extensions>
    <trkseg>
      <trkpt lat="46.47158" lon="4.80829">
        <ele>229.4</ele>
      </trkpt>
      <trkpt lat="46.47173" lon="4.80822">
        <ele>229</ele>
      </trkpt>
      <trkpt lat="46.47189" lon="4.80814">
        <ele>228.1</ele>
      </trkpt>
      <trkpt lat="46.47198" lon="4.80809">
        <ele>227.9</ele>
      </trkpt>
      <trkpt lat="46.47227" lon="4.80795">
        <ele>228.3</ele>
      </trkpt>
      <trkpt lat="46.47226" lon="4.80799">
        <ele>228.1</ele>
      </trkpt>
      <trkpt lat="46.47227" lon="4.80808">
        <ele>227.8</ele>
      </trkpt>
      <trkpt lat="46.47237" lon="4.80858">
        <ele>226.2</ele>
      </trkpt>
      <trkpt lat="46.47245" lon="4.80896">
        <ele>225.8</ele>
      </trkpt>
      <trkpt lat="46.47232" lon="4.80904">
        <ele>225.4</ele>
      </trkpt>
      <trkpt lat="46.47219" lon="4.80908">
        <ele>225.4</ele>
      </trkpt>
      <trkpt lat="46.47212" lon="4.80911">
        <ele>225.5</ele>
      </trkpt>
      <trkpt lat="46.47206" lon="4.80916">
        <ele>225.6</ele>
      </trkpt>
      <trkpt lat="46.47201" lon="4.80924">
        <ele>225.5</ele>
      </trkpt>
      <trkpt lat="46.47197" lon="4.80929">
        <ele>225.5</ele>
      </trkpt>
      <trkpt lat="46.47194" lon="4.80933">
        <ele>225.4</ele>
      </trkpt>
      <trkpt lat="46.47188" lon="4.80939">
        <ele>225.4</ele>
      </trkpt>
      <trkpt lat="46.47181" lon="4.80944">
        <ele>225.5</ele>
      </trkpt>
      <trkpt lat="46.47185" lon="4.80962">
        <ele>225.3</ele>
      </trkpt>
      <trkpt lat="46.47189" lon="4.80987">
        <ele>225.1</ele>
      </trkpt>
      <trkpt lat="46.47189" lon="4.80991">
        <ele>225.1</ele>
      </trkpt>
      <trkpt lat="46.47191" lon="4.81006">
        <ele>225</ele>
      </trkpt>
      <trkpt lat="46.47191" lon="4.81013">
        <ele>225</ele>
      </trkpt>
      <trkpt lat="46.47191" lon="4.81027">
        <ele>225</ele>
      </trkpt>
      <trkpt lat="46.47192" lon="4.81059">
        <ele>224.1</ele>
      </trkpt>
      <trkpt lat="46.47193" lon="4.81075">
        <ele>224</ele>
      </trkpt>
      <trkpt lat="46.47195" lon="4.81096">
        <ele>224</ele>
      </trkpt>
      <trkpt lat="46.47196" lon="4.81119">
        <ele>224</ele>
      </trkpt>
      <trkpt lat="46.47198" lon="4.81191">
        <ele>223.1</ele>
      </trkpt>
      <trkpt lat="46.472" lon="4.81242">
        <ele>223</ele>
      </trkpt>
      <trkpt lat="46.47202" lon="4.81294">
        <ele>222.8</ele>
      </trkpt>
      <trkpt lat="46.47203" lon="4.81329">
        <ele>222.7</ele>
      </trkpt>
      <trkpt lat="46.47204" lon="4.81357">
        <ele>222.6</ele>
      </trkpt>
      <trkpt lat="46.47205" lon="4.81381">
        <ele>221.9</ele>
      </trkpt>
      <trkpt lat="46.47205" lon="4.81403">
        <ele>221.6</ele>
      </trkpt>
      <trkpt lat="46.47204" lon="4.81442">
        <ele>221.7</ele>
      </trkpt>
      <trkpt lat="46.47201" lon="4.81508">
        <ele>221.1</ele>
      </trkpt>
      <trkpt lat="46.47199" lon="4.81563">
        <ele>221.1</ele>
      </trkpt>
      <trkpt lat="46.47198" lon="4.81578">
        <ele>221</ele>
      </trkpt>
      <trkpt lat="46.47197" lon="4.81646">
        <ele>220.7</ele>
      </trkpt>
      <trkpt lat="46.47202" lon="4.81646">
        <ele>220.5</ele>
      </trkpt>
      <trkpt lat="46.47207" lon="4.81645">
        <ele>220.4</ele>
      </trkpt>
      <trkpt lat="46.47215" lon="4.81641">
        <ele>220.3</ele>
      </trkpt>
      <trkpt lat="46.47244" lon="4.81607">
        <ele>221</ele>
      </trkpt>
      <trkpt lat="46.47291" lon="4.81552">
        <ele>221.1</ele>
      </trkpt>
      <trkpt lat="46.4732" lon="4.81521">
        <ele>220.6</ele>
      </trkpt>
      <trkpt lat="46.47326" lon="4.81514">
        <ele>220.9</ele>
      </trkpt>
      <trkpt lat="46.47334" lon="4.81503">
        <ele>221.8</ele>
      </trkpt>
      <trkpt lat="46.47338" lon="4.81492">
        <ele>221.6</ele>
      </trkpt>
      <trkpt lat="46.47339" lon="4.81486">
        <ele>221.4</ele>
      </trkpt>
      <trkpt lat="46.47343" lon="4.81493">
        <ele>221.5</ele>
      </trkpt>
      <trkpt lat="46.47347" lon="4.81504">
        <ele>221.3</ele>
      </trkpt>
      <trkpt lat="46.4735" lon="4.81517">
        <ele>220.5</ele>
      </trkpt>
      <trkpt lat="46.47358" lon="4.81574">
        <ele>221.2</ele>
      </trkpt>
      <trkpt lat="46.47361" lon="4.81594">
        <ele>222</ele>
      </trkpt>
      <trkpt lat="46.47375" lon="4.8168">
        <ele>221.2</ele>
      </trkpt>
      <trkpt lat="46.47386" lon="4.81751">
        <ele>226.8</ele>
      </trkpt>
      <trkpt lat="46.47394" lon="4.81798">
        <ele>229</ele>
      </trkpt>
      <trkpt lat="46.47408" lon="4.81781">
        <ele>228.9</ele>
      </trkpt>
      <trkpt lat="46.47419" lon="4.81765">
        <ele>228.7</ele>
      </trkpt>
      <trkpt lat="46.47427" lon="4.81753">
        <ele>228.5</ele>
      </trkpt>
      <trkpt lat="46.47431" lon="4.81743">
        <ele>227.8</ele>
      </trkpt>
      <trkpt lat="46.47436" lon="4.81732">
        <ele>226.8</ele>
      </trkpt>
      <trkpt lat="46.4744" lon="4.8171">
        <ele>224.5</ele>
      </trkpt>
      <trkpt lat="46.47442" lon="4.81691">
        <ele>222.9</ele>
      </trkpt>
      <trkpt lat="46.47442" lon="4.81656">
        <ele>221.9</ele>
      </trkpt>
      <trkpt lat="46.47442" lon="4.81631">
        <ele>221.7</ele>
      </trkpt>
      <trkpt lat="46.47442" lon="4.81606">
        <ele>221</ele>
      </trkpt>
      <trkpt lat="46.47493" lon="4.81601">
        <ele>221.5</ele>
      </trkpt>
      <trkpt lat="46.47499" lon="4.81601">
        <ele>221.6</ele>
      </trkpt>
      <trkpt lat="46.47504" lon="4.816">
        <ele>221.7</ele>
      </trkpt>
      <trkpt lat="46.47507" lon="4.81601">
        <ele>221.7</ele>
      </trkpt>
      <trkpt lat="46.4755" lon="4.81596">
        <ele>222</ele>
      </trkpt>
      <trkpt lat="46.47603" lon="4.81591">
        <ele>223</ele>
      </trkpt>
      <trkpt lat="46.47634" lon="4.81587">
        <ele>223.1</ele>
      </trkpt>
      <trkpt lat="46.47643" lon="4.81587">
        <ele>223.3</ele>
      </trkpt>
      <trkpt lat="46.47651" lon="4.81588">
        <ele>223.6</ele>
      </trkpt>
      <trkpt lat="46.47656" lon="4.8159">
        <ele>223.8</ele>
      </trkpt>
      <trkpt lat="46.47674" lon="4.81597">
        <ele>224.5</ele>
      </trkpt>
      <trkpt lat="46.47683" lon="4.816">
        <ele>224.6</ele>
      </trkpt>
      <trkpt lat="46.47692" lon="4.81601">
        <ele>224.6</ele>
      </trkpt>
      <trkpt lat="46.477" lon="4.81601">
        <ele>224.6</ele>
      </trkpt>
      <trkpt lat="46.47708" lon="4.81601">
        <ele>224.6</ele>
      </trkpt>
      <trkpt lat="46.47739" lon="4.81593">
        <ele>225</ele>
      </trkpt>
      <trkpt lat="46.47752" lon="4.81589">
        <ele>225.3</ele>
      </trkpt>
      <trkpt lat="46.47761" lon="4.81586">
        <ele>225.4</ele>
      </trkpt>
      <trkpt lat="46.47792" lon="4.81578">
        <ele>225.8</ele>
      </trkpt>
      <trkpt lat="46.47823" lon="4.81571">
        <ele>225.8</ele>
      </trkpt>
      <trkpt lat="46.47844" lon="4.81566">
        <ele>226</ele>
      </trkpt>
      <trkpt lat="46.47861" lon="4.81564">
        <ele>226</ele>
      </trkpt>
      <trkpt lat="46.47878" lon="4.81564">
        <ele>226.6</ele>
      </trkpt>
      <trkpt lat="46.47894" lon="4.81564">
        <ele>227</ele>
      </trkpt>
      <trkpt lat="46.4791" lon="4.81569">
        <ele>227</ele>
      </trkpt>
      <trkpt lat="46.47924" lon="4.81573">
        <ele>227.3</ele>
      </trkpt>
      <trkpt lat="46.47931" lon="4.81574">
        <ele>227.5</ele>
      </trkpt>
      <trkpt lat="46.47934" lon="4.81573">
        <ele>227.6</ele>
      </trkpt>
      <trkpt lat="46.47937" lon="4.8157">
        <ele>227.7</ele>
      </trkpt>
      <trkpt lat="46.4794" lon="4.81565">
        <ele>227.8</ele>
      </trkpt>
      <trkpt lat="46.47942" lon="4.81555">
        <ele>227.9</ele>
      </trkpt>
      <trkpt lat="46.47948" lon="4.81515">
        <ele>227.5</ele>
      </trkpt>
      <trkpt lat="46.47958" lon="4.8147">
        <ele>227.4</ele>
      </trkpt>
      <trkpt lat="46.4795" lon="4.81459">
        <ele>227.1</ele>
      </trkpt>
      <trkpt lat="46.47934" lon="4.81433">
        <ele>227</ele>
      </trkpt>
      <trkpt lat="46.47924" lon="4.81413">
        <ele>226.9</ele>
      </trkpt>
      <trkpt lat="46.47916" lon="4.81391">
        <ele>226.1</ele>
      </trkpt>
      <trkpt lat="46.4791" lon="4.81372">
        <ele>226.4</ele>
      </trkpt>
      <trkpt lat="46.47904" lon="4.81359">
        <ele>226.6</ele>
      </trkpt>
      <trkpt lat="46.47927" lon="4.81344">
        <ele>228</ele>
      </trkpt>
      <trkpt lat="46.47937" lon="4.81339">
        <ele>228.5</ele>
      </trkpt>
      <trkpt lat="46.47948" lon="4.81336">
        <ele>229</ele>
      </trkpt>
      <trkpt lat="46.47959" lon="4.81336">
        <ele>229.4</ele>
      </trkpt>
      <trkpt lat="46.47968" lon="4.81338">
        <ele>229.7</ele>
      </trkpt>
      <trkpt lat="46.47981" lon="4.81343">
        <ele>229.8</ele>
      </trkpt>
      <trkpt lat="46.48" lon="4.81348">
        <ele>230</ele>
      </trkpt>
      <trkpt lat="46.48018" lon="4.81349">
        <ele>229.6</ele>
      </trkpt>
      <trkpt lat="46.48038" lon="4.81346">
        <ele>229.5</ele>
      </trkpt>
      <trkpt lat="46.4806" lon="4.81343">
        <ele>229.6</ele>
      </trkpt>
      <trkpt lat="46.48064" lon="4.81344">
        <ele>229.6</ele>
      </trkpt>
      <trkpt lat="46.48069" lon="4.81346">
        <ele>229.6</ele>
      </trkpt>
      <trkpt lat="46.48075" lon="4.81353">
        <ele>229.3</ele>
      </trkpt>
      <trkpt lat="46.48091" lon="4.81377">
        <ele>229.4</ele>
      </trkpt>
      <trkpt lat="46.48104" lon="4.81392">
        <ele>230.6</ele>
      </trkpt>
      <trkpt lat="46.48108" lon="4.81396">
        <ele>231.3</ele>
      </trkpt>
      <trkpt lat="46.48115" lon="4.814">
        <ele>232</ele>
      </trkpt>
      <trkpt lat="46.4812" lon="4.81402">
        <ele>232.6</ele>
      </trkpt>
      <trkpt lat="46.4814" lon="4.81407">
        <ele>234.6</ele>
      </trkpt>
      <trkpt lat="46.48151" lon="4.81409">
        <ele>235.2</ele>
      </trkpt>
      <trkpt lat="46.48156" lon="4.81412">
        <ele>235.6</ele>
      </trkpt>
      <trkpt lat="46.48163" lon="4.81416">
        <ele>235.9</ele>
      </trkpt>
      <trkpt lat="46.48173" lon="4.81424">
        <ele>236.7</ele>
      </trkpt>
      <trkpt lat="46.48175" lon="4.81427">
        <ele>236.9</ele>
      </trkpt>
      <trkpt lat="46.48183" lon="4.81435">
        <ele>237.5</ele>
      </trkpt>
      <trkpt lat="46.48186" lon="4.81438">
        <ele>237.7</ele>
      </trkpt>
      <trkpt lat="46.48196" lon="4.81448">
        <ele>238.1</ele>
      </trkpt>
      <trkpt lat="46.48207" lon="4.81458">
        <ele>238.7</ele>
      </trkpt>
      <trkpt lat="46.48225" lon="4.81467">
        <ele>239.7</ele>
      </trkpt>
      <trkpt lat="46.48243" lon="4.81478">
        <ele>240.3</ele>
      </trkpt>
      <trkpt lat="46.4826" lon="4.81491">
        <ele>242</ele>
      </trkpt>
      <trkpt lat="46.48264" lon="4.81484">
        <ele>241.9</ele>
      </trkpt>
      <trkpt lat="46.48284" lon="4.81495">
        <ele>243.7</ele>
      </trkpt>
      <trkpt lat="46.4831" lon="4.81507">
        <ele>246.5</ele>
      </trkpt>
      <trkpt lat="46.48327" lon="4.81515">
        <ele>248.3</ele>
      </trkpt>
      <trkpt lat="46.48337" lon="4.81521">
        <ele>249.3</ele>
      </trkpt>
      <trkpt lat="46.48347" lon="4.8153">
        <ele>250.3</ele>
      </trkpt>
      <trkpt lat="46.48356" lon="4.81539">
        <ele>250.7</ele>
      </trkpt>
      <trkpt lat="46.48363" lon="4.81545">
        <ele>250.9</ele>
      </trkpt>
      <trkpt lat="46.48374" lon="4.81552">
        <ele>251.6</ele>
      </trkpt>
      <trkpt lat="46.48393" lon="4.81561">
        <ele>253.2</ele>
      </trkpt>
      <trkpt lat="46.48407" lon="4.81568">
        <ele>254.2</ele>
      </trkpt>
      <trkpt lat="46.48419" lon="4.81572">
        <ele>255.1</ele>
      </trkpt>
      <trkpt lat="46.48433" lon="4.81574">
        <ele>256.2</ele>
      </trkpt>
      <trkpt lat="46.48445" lon="4.81576">
        <ele>257.3</ele>
      </trkpt>
      <trkpt lat="46.48463" lon="4.81581">
        <ele>258.5</ele>
      </trkpt>
      <trkpt lat="46.48484" lon="4.81587">
        <ele>259.6</ele>
      </trkpt>
      <trkpt lat="46.485" lon="4.81592">
        <ele>260.4</ele>
      </trkpt>
      <trkpt lat="46.48524" lon="4.81599">
        <ele>262.1</ele>
      </trkpt>
      <trkpt lat="46.48545" lon="4.81604">
        <ele>263.7</ele>
      </trkpt>
      <trkpt lat="46.48563" lon="4.81606">
        <ele>265.1</ele>
      </trkpt>
      <trkpt lat="46.48574" lon="4.81608">
        <ele>266.2</ele>
      </trkpt>
      <trkpt lat="46.48584" lon="4.81612">
        <ele>267.1</ele>
      </trkpt>
      <trkpt lat="46.48596" lon="4.81617">
        <ele>268</ele>
      </trkpt>
      <trkpt lat="46.48614" lon="4.81628">
        <ele>269.7</ele>
      </trkpt>
      <trkpt lat="46.48621" lon="4.81632">
        <ele>270.1</ele>
      </trkpt>
      <trkpt lat="46.48631" lon="4.81641">
        <ele>270.3</ele>
      </trkpt>
      <trkpt lat="46.48651" lon="4.81656">
        <ele>271</ele>
      </trkpt>
      <trkpt lat="46.48674" lon="4.81677">
        <ele>271.8</ele>
      </trkpt>
      <trkpt lat="46.48696" lon="4.81698">
        <ele>271.9</ele>
      </trkpt>
      <trkpt lat="46.48733" lon="4.81736">
        <ele>271.6</ele>
      </trkpt>
      <trkpt lat="46.48756" lon="4.81764">
        <ele>271</ele>
      </trkpt>
      <trkpt lat="46.48782" lon="4.81799">
        <ele>271.5</ele>
      </trkpt>
      <trkpt lat="46.48806" lon="4.81836">
        <ele>271.9</ele>
      </trkpt>
      <trkpt lat="46.48819" lon="4.81855">
        <ele>271.7</ele>
      </trkpt>
      <trkpt lat="46.48825" lon="4.81865">
        <ele>271.6</ele>
      </trkpt>
      <trkpt lat="46.48828" lon="4.81874">
        <ele>271.7</ele>
      </trkpt>
      <trkpt lat="46.48829" lon="4.81882">
        <ele>271.7</ele>
      </trkpt>
      <trkpt lat="46.48829" lon="4.81893">
        <ele>271.7</ele>
      </trkpt>
      <trkpt lat="46.48829" lon="4.8191">
        <ele>271.7</ele>
      </trkpt>
      <trkpt lat="46.4883" lon="4.81919">
        <ele>271.5</ele>
      </trkpt>
      <trkpt lat="46.48832" lon="4.81925">
        <ele>271</ele>
      </trkpt>
      <trkpt lat="46.4884" lon="4.81935">
        <ele>270.5</ele>
      </trkpt>
      <trkpt lat="46.48852" lon="4.81944">
        <ele>271</ele>
      </trkpt>
      <trkpt lat="46.4887" lon="4.81952">
        <ele>271.2</ele>
      </trkpt>
      <trkpt lat="46.48887" lon="4.81962">
        <ele>271.3</ele>
      </trkpt>
      <trkpt lat="46.48905" lon="4.81976">
        <ele>270.6</ele>
      </trkpt>
      <trkpt lat="46.48922" lon="4.81992">
        <ele>269</ele>
      </trkpt>
      <trkpt lat="46.48951" lon="4.82018">
        <ele>266.7</ele>
      </trkpt>
      <trkpt lat="46.48986" lon="4.82048">
        <ele>264.3</ele>
      </trkpt>
      <trkpt lat="46.49008" lon="4.82066">
        <ele>262.4</ele>
      </trkpt>
      <trkpt lat="46.49024" lon="4.82078">
        <ele>261.3</ele>
      </trkpt>
      <trkpt lat="46.49035" lon="4.82093">
        <ele>260.1</ele>
      </trkpt>
      <trkpt lat="46.49042" lon="4.82104">
        <ele>259.1</ele>
      </trkpt>
      <trkpt lat="46.49044" lon="4.82112">
        <ele>258.5</ele>
      </trkpt>
      <trkpt lat="46.49066" lon="4.82115">
        <ele>258.2</ele>
      </trkpt>
      <trkpt lat="46.49089" lon="4.82118">
        <ele>257.6</ele>
      </trkpt>
      <trkpt lat="46.49134" lon="4.82131">
        <ele>257.3</ele>
      </trkpt>
      <trkpt lat="46.49177" lon="4.82148">
        <ele>257.8</ele>
      </trkpt>
      <trkpt lat="46.49229" lon="4.82165">
        <ele>259.1</ele>
      </trkpt>
      <trkpt lat="46.4924" lon="4.82167">
        <ele>258.9</ele>
      </trkpt>
      <trkpt lat="46.49254" lon="4.82165">
        <ele>258.8</ele>
      </trkpt>
      <trkpt lat="46.49277" lon="4.82158">
        <ele>258</ele>
      </trkpt>
      <trkpt lat="46.49323" lon="4.82139">
        <ele>259.9</ele>
      </trkpt>
      <trkpt lat="46.4934" lon="4.82132">
        <ele>261.1</ele>
      </trkpt>
      <trkpt lat="46.49352" lon="4.82144">
        <ele>258.8</ele>
      </trkpt>
      <trkpt lat="46.49363" lon="4.82156">
        <ele>255.2</ele>
      </trkpt>
      <trkpt lat="46.49373" lon="4.82163">
        <ele>252</ele>
      </trkpt>
      <trkpt lat="46.49382" lon="4.82166">
        <ele>250</ele>
      </trkpt>
      <trkpt lat="46.49399" lon="4.82169">
        <ele>248.6</ele>
      </trkpt>
      <trkpt lat="46.49401" lon="4.82156">
        <ele>249.3</ele>
      </trkpt>
      <trkpt lat="46.49404" lon="4.82139">
        <ele>250.4</ele>
      </trkpt>
      <trkpt lat="46.49408" lon="4.82128">
        <ele>250.9</ele>
      </trkpt>
      <trkpt lat="46.49416" lon="4.82115">
        <ele>250.9</ele>
      </trkpt>
      <trkpt lat="46.49426" lon="4.82108">
        <ele>251.8</ele>
      </trkpt>
      <trkpt lat="46.49434" lon="4.82113">
        <ele>252.2</ele>
      </trkpt>
      <trkpt lat="46.49437" lon="4.82115">
        <ele>252.5</ele>
      </trkpt>
      <trkpt lat="46.49438" lon="4.82117">
        <ele>252.6</ele>
      </trkpt>
      <trkpt lat="46.49437" lon="4.82121">
        <ele>252.7</ele>
      </trkpt>
      <trkpt lat="46.49435" lon="4.82153">
        <ele>253.4</ele>
      </trkpt>
      <trkpt lat="46.49437" lon="4.82167">
        <ele>254.5</ele>
      </trkpt>
      <trkpt lat="46.4944" lon="4.82175">
        <ele>254.9</ele>
      </trkpt>
      <trkpt lat="46.49446" lon="4.82183">
        <ele>256.2</ele>
      </trkpt>
      <trkpt lat="46.49454" lon="4.82188">
        <ele>258.1</ele>
      </trkpt>
      <trkpt lat="46.49465" lon="4.82191">
        <ele>260.5</ele>
      </trkpt>
      <trkpt lat="46.49478" lon="4.82199">
        <ele>262.7</ele>
      </trkpt>
      <trkpt lat="46.49491" lon="4.82198">
        <ele>265.3</ele>
      </trkpt>
      <trkpt lat="46.49506" lon="4.82195">
        <ele>268.8</ele>
      </trkpt>
      <trkpt lat="46.49524" lon="4.82188">
        <ele>271.9</ele>
      </trkpt>
      <trkpt lat="46.49536" lon="4.82188">
        <ele>274</ele>
      </trkpt>
      <trkpt lat="46.49548" lon="4.82192">
        <ele>275.8</ele>
      </trkpt>
      <trkpt lat="46.49559" lon="4.82196">
        <ele>277.1</ele>
      </trkpt>
      <trkpt lat="46.49569" lon="4.82197">
        <ele>278.1</ele>
      </trkpt>
      <trkpt lat="46.49575" lon="4.82195">
        <ele>279</ele>
      </trkpt>
      <trkpt lat="46.49586" lon="4.82191">
        <ele>281</ele>
      </trkpt>
      <trkpt lat="46.49584" lon="4.82178">
        <ele>281.9</ele>
      </trkpt>
      <trkpt lat="46.49586" lon="4.82171">
        <ele>282.9</ele>
      </trkpt>
      <trkpt lat="46.49589" lon="4.82166">
        <ele>284.1</ele>
      </trkpt>
      <trkpt lat="46.49604" lon="4.82147">
        <ele>286.4</ele>
      </trkpt>
      <trkpt lat="46.49608" lon="4.82138">
        <ele>286.7</ele>
      </trkpt>
      <trkpt lat="46.49619" lon="4.82157">
        <ele>289</ele>
      </trkpt>
      <trkpt lat="46.49631" lon="4.82171">
        <ele>290.7</ele>
      </trkpt>
      <trkpt lat="46.49641" lon="4.8218">
        <ele>291.7</ele>
      </trkpt>
      <trkpt lat="46.49653" lon="4.82189">
        <ele>292.8</ele>
      </trkpt>
      <trkpt lat="46.49667" lon="4.82193">
        <ele>294.1</ele>
      </trkpt>
      <trkpt lat="46.49681" lon="4.82195">
        <ele>295.4</ele>
      </trkpt>
      <trkpt lat="46.49692" lon="4.82197">
        <ele>296.6</ele>
      </trkpt>
      <trkpt lat="46.49695" lon="4.82196">
        <ele>296.9</ele>
      </trkpt>
      <trkpt lat="46.49703" lon="4.82192">
        <ele>298.7</ele>
      </trkpt>
      <trkpt lat="46.49718" lon="4.82184">
        <ele>302.1</ele>
      </trkpt>
      <trkpt lat="46.49722" lon="4.82183">
        <ele>302.7</ele>
      </trkpt>
      <trkpt lat="46.49734" lon="4.82184">
        <ele>304.2</ele>
      </trkpt>
      <trkpt lat="46.49738" lon="4.82183">
        <ele>304.8</ele>
      </trkpt>
      <trkpt lat="46.49749" lon="4.82179">
        <ele>306.5</ele>
      </trkpt>
      <trkpt lat="46.49761" lon="4.82179">
        <ele>307.7</ele>
      </trkpt>
      <trkpt lat="46.49772" lon="4.82182">
        <ele>308.8</ele>
      </trkpt>
      <trkpt lat="46.49784" lon="4.82185">
        <ele>310</ele>
      </trkpt>
      <trkpt lat="46.49793" lon="4.82184">
        <ele>311</ele>
      </trkpt>
      <trkpt lat="46.49803" lon="4.82183">
        <ele>312.1</ele>
      </trkpt>
      <trkpt lat="46.49815" lon="4.82184">
        <ele>313.3</ele>
      </trkpt>
      <trkpt lat="46.49826" lon="4.82185">
        <ele>314.6</ele>
      </trkpt>
      <trkpt lat="46.49835" lon="4.82182">
        <ele>315.7</ele>
      </trkpt>
      <trkpt lat="46.49848" lon="4.82174">
        <ele>317.3</ele>
      </trkpt>
      <trkpt lat="46.49864" lon="4.82164">
        <ele>319.4</ele>
      </trkpt>
      <trkpt lat="46.49872" lon="4.82154">
        <ele>320.7</ele>
      </trkpt>
      <trkpt lat="46.4988" lon="4.82144">
        <ele>321.8</ele>
      </trkpt>
      <trkpt lat="46.49886" lon="4.82138">
        <ele>322.7</ele>
      </trkpt>
      <trkpt lat="46.49893" lon="4.82136">
        <ele>323.3</ele>
      </trkpt>
      <trkpt lat="46.49909" lon="4.82134">
        <ele>324.4</ele>
      </trkpt>
      <trkpt lat="46.4993" lon="4.82129">
        <ele>326.3</ele>
      </trkpt>
      <trkpt lat="46.49948" lon="4.82124">
        <ele>327.7</ele>
      </trkpt>
      <trkpt lat="46.49967" lon="4.82115">
        <ele>328.8</ele>
      </trkpt>
      <trkpt lat="46.49986" lon="4.82103">
        <ele>330.4</ele>
      </trkpt>
      <trkpt lat="46.50004" lon="4.82088">
        <ele>332.3</ele>
      </trkpt>
      <trkpt lat="46.5002" lon="4.82073">
        <ele>332.7</ele>
      </trkpt>
      <trkpt lat="46.50039" lon="4.82055">
        <ele>332.8</ele>
      </trkpt>
      <trkpt lat="46.50049" lon="4.82052">
        <ele>333.1</ele>
      </trkpt>
      <trkpt lat="46.50061" lon="4.82051">
        <ele>333.9</ele>
      </trkpt>
      <trkpt lat="46.50075" lon="4.82053">
        <ele>335.1</ele>
      </trkpt>
      <trkpt lat="46.50093" lon="4.82058">
        <ele>336.6</ele>
      </trkpt>
      <trkpt lat="46.50132" lon="4.82071">
        <ele>339.9</ele>
      </trkpt>
      <trkpt lat="46.50163" lon="4.8208">
        <ele>341.7</ele>
      </trkpt>
      <trkpt lat="46.50207" lon="4.82086">
        <ele>345.2</ele>
      </trkpt>
      <trkpt lat="46.50236" lon="4.82088">
        <ele>347.1</ele>
      </trkpt>
      <trkpt lat="46.50269" lon="4.82091">
        <ele>348.6</ele>
      </trkpt>
      <trkpt lat="46.503" lon="4.82096">
        <ele>349.8</ele>
      </trkpt>
      <trkpt lat="46.50338" lon="4.82101">
        <ele>351.5</ele>
      </trkpt>
      <trkpt lat="46.50355" lon="4.82104">
        <ele>352.3</ele>
      </trkpt>
      <trkpt lat="46.5042" lon="4.82126">
        <ele>355.7</ele>
      </trkpt>
      <trkpt lat="46.50475" lon="4.82144">
        <ele>357.7</ele>
      </trkpt>
      <trkpt lat="46.50545" lon="4.82166">
        <ele>361.4</ele>
      </trkpt>
      <trkpt lat="46.50628" lon="4.82196">
        <ele>365.1</ele>
      </trkpt>
      <trkpt lat="46.50673" lon="4.82211">
        <ele>367.7</ele>
      </trkpt>
      <trkpt lat="46.50768" lon="4.82249">
        <ele>372.6</ele>
      </trkpt>
      <trkpt lat="46.50819" lon="4.8227">
        <ele>376.2</ele>
      </trkpt>
      <trkpt lat="46.5087" lon="4.82301">
        <ele>378.6</ele>
      </trkpt>
      <trkpt lat="46.50901" lon="4.82319">
        <ele>380.4</ele>
      </trkpt>
      <trkpt lat="46.50964" lon="4.82345">
        <ele>382.3</ele>
      </trkpt>
      <trkpt lat="46.50983" lon="4.82351">
        <ele>382.8</ele>
      </trkpt>
      <trkpt lat="46.50998" lon="4.82357">
        <ele>383.1</ele>
      </trkpt>
      <trkpt lat="46.51038" lon="4.82366">
        <ele>384.3</ele>
      </trkpt>
      <trkpt lat="46.51079" lon="4.82376">
        <ele>384.9</ele>
      </trkpt>
      <trkpt lat="46.51108" lon="4.82389">
        <ele>385</ele>
      </trkpt>
      <trkpt lat="46.51167" lon="4.82423">
        <ele>383.2</ele>
      </trkpt>
      <trkpt lat="46.51206" lon="4.82446">
        <ele>382.6</ele>
      </trkpt>
      <trkpt lat="46.51236" lon="4.82459">
        <ele>383.3</ele>
      </trkpt>
      <trkpt lat="46.51338" lon="4.82496">
        <ele>388.3</ele>
      </trkpt>
      <trkpt lat="46.51417" lon="4.82541">
        <ele>392</ele>
      </trkpt>
      <trkpt lat="46.51486" lon="4.82579">
        <ele>391.9</ele>
      </trkpt>
      <trkpt lat="46.51531" lon="4.82598">
        <ele>391.5</ele>
      </trkpt>
      <trkpt lat="46.51557" lon="4.82611">
        <ele>391.9</ele>
      </trkpt>
      <trkpt lat="46.51587" lon="4.82631">
        <ele>391.7</ele>
      </trkpt>
      <trkpt lat="46.51605" lon="4.82645">
        <ele>391.9</ele>
      </trkpt>
      <trkpt lat="46.51601" lon="4.82655">
        <ele>391.8</ele>
      </trkpt>
      <trkpt lat="46.51592" lon="4.82667">
        <ele>391.3</ele>
      </trkpt>
      <trkpt lat="46.51575" lon="4.82686">
        <ele>391</ele>
      </trkpt>
      <trkpt lat="46.51568" lon="4.82695">
        <ele>391</ele>
      </trkpt>
      <trkpt lat="46.51563" lon="4.82704">
        <ele>390.7</ele>
      </trkpt>
      <trkpt lat="46.51558" lon="4.8272">
        <ele>390.1</ele>
      </trkpt>
      <trkpt lat="46.51545" lon="4.82766">
        <ele>387.5</ele>
      </trkpt>
      <trkpt lat="46.51541" lon="4.82774">
        <ele>386.8</ele>
      </trkpt>
      <trkpt lat="46.51534" lon="4.82781">
        <ele>386</ele>
      </trkpt>
      <trkpt lat="46.51521" lon="4.82789">
        <ele>384.8</ele>
      </trkpt>
      <trkpt lat="46.51511" lon="4.8279">
        <ele>383.9</ele>
      </trkpt>
      <trkpt lat="46.51496" lon="4.82789">
        <ele>382.9</ele>
      </trkpt>
      <trkpt lat="46.51489" lon="4.8279">
        <ele>382.2</ele>
      </trkpt>
      <trkpt lat="46.51484" lon="4.82793">
        <ele>381.5</ele>
      </trkpt>
      <trkpt lat="46.51478" lon="4.82795">
        <ele>380.7</ele>
      </trkpt>
      <trkpt lat="46.5147" lon="4.82794">
        <ele>379.9</ele>
      </trkpt>
      <trkpt lat="46.51455" lon="4.8279">
        <ele>378.9</ele>
      </trkpt>
      <trkpt lat="46.51429" lon="4.82778">
        <ele>377.3</ele>
      </trkpt>
      <trkpt lat="46.51391" lon="4.82757">
        <ele>374.1</ele>
      </trkpt>
      <trkpt lat="46.51326" lon="4.82722">
        <ele>373.6</ele>
      </trkpt>
      <trkpt lat="46.51318" lon="4.82722">
        <ele>372.9</ele>
      </trkpt>
      <trkpt lat="46.51299" lon="4.82742">
        <ele>368.1</ele>
      </trkpt>
      <trkpt lat="46.51282" lon="4.82752">
        <ele>365</ele>
      </trkpt>
      <trkpt lat="46.51269" lon="4.8275">
        <ele>363.6</ele>
      </trkpt>
      <trkpt lat="46.51245" lon="4.82736">
        <ele>362.9</ele>
      </trkpt>
      <trkpt lat="46.51227" lon="4.82729">
        <ele>361.7</ele>
      </trkpt>
      <trkpt lat="46.5121" lon="4.82733">
        <ele>359.4</ele>
      </trkpt>
      <trkpt lat="46.51193" lon="4.82743">
        <ele>355.6</ele>
      </trkpt>
      <trkpt lat="46.51172" lon="4.82757">
        <ele>351.4</ele>
      </trkpt>
      <trkpt lat="46.51155" lon="4.8277">
        <ele>348</ele>
      </trkpt>
      <trkpt lat="46.51142" lon="4.82782">
        <ele>345.9</ele>
      </trkpt>
      <trkpt lat="46.51133" lon="4.82795">
        <ele>344.1</ele>
      </trkpt>
      <trkpt lat="46.51127" lon="4.82812">
        <ele>341.9</ele>
      </trkpt>
      <trkpt lat="46.51121" lon="4.82827">
        <ele>339.8</ele>
      </trkpt>
      <trkpt lat="46.51116" lon="4.82841">
        <ele>337.5</ele>
      </trkpt>
      <trkpt lat="46.51108" lon="4.82837">
        <ele>337.2</ele>
      </trkpt>
      <trkpt lat="46.51093" lon="4.82832">
        <ele>336.1</ele>
      </trkpt>
      <trkpt lat="46.5108" lon="4.82832">
        <ele>334.7</ele>
      </trkpt>
      <trkpt lat="46.51064" lon="4.82834">
        <ele>332.9</ele>
      </trkpt>
      <trkpt lat="46.5104" lon="4.82836">
        <ele>330.4</ele>
      </trkpt>
      <trkpt lat="46.51025" lon="4.82837">
        <ele>329.3</ele>
      </trkpt>
      <trkpt lat="46.51" lon="4.82836">
        <ele>327.7</ele>
      </trkpt>
      <trkpt lat="46.50977" lon="4.82836">
        <ele>326.8</ele>
      </trkpt>
      <trkpt lat="46.50961" lon="4.82839">
        <ele>325.7</ele>
      </trkpt>
      <trkpt lat="46.50945" lon="4.8284">
        <ele>324.6</ele>
      </trkpt>
      <trkpt lat="46.50923" lon="4.82839">
        <ele>323</ele>
      </trkpt>
      <trkpt lat="46.50907" lon="4.82838">
        <ele>322.1</ele>
      </trkpt>
      <trkpt lat="46.50899" lon="4.82835">
        <ele>322</ele>
      </trkpt>
      <trkpt lat="46.50902" lon="4.82831">
        <ele>322.7</ele>
      </trkpt>
      <trkpt lat="46.50899" lon="4.82835">
        <ele>322</ele>
      </trkpt>
      <trkpt lat="46.50892" lon="4.82837">
        <ele>321.6</ele>
      </trkpt>
      <trkpt lat="46.50876" lon="4.82833">
        <ele>321.6</ele>
      </trkpt>
      <trkpt lat="46.5085" lon="4.82829">
        <ele>320.3</ele>
      </trkpt>
      <trkpt lat="46.50829" lon="4.8283">
        <ele>318.2</ele>
      </trkpt>
      <trkpt lat="46.50808" lon="4.82831">
        <ele>315.7</ele>
      </trkpt>
      <trkpt lat="46.50794" lon="4.82833">
        <ele>314.7</ele>
      </trkpt>
      <trkpt lat="46.50765" lon="4.82842">
        <ele>311.5</ele>
      </trkpt>
      <trkpt lat="46.50731" lon="4.8285">
        <ele>309.2</ele>
      </trkpt>
      <trkpt lat="46.50725" lon="4.8285">
        <ele>308.8</ele>
      </trkpt>
      <trkpt lat="46.5071" lon="4.8286">
        <ele>305.8</ele>
      </trkpt>
      <trkpt lat="46.50697" lon="4.82865">
        <ele>304</ele>
      </trkpt>
      <trkpt lat="46.50685" lon="4.82873">
        <ele>301</ele>
      </trkpt>
      <trkpt lat="46.50669" lon="4.82878">
        <ele>298.3</ele>
      </trkpt>
      <trkpt lat="46.50649" lon="4.82881">
        <ele>294.8</ele>
      </trkpt>
      <trkpt lat="46.50622" lon="4.8288">
        <ele>290.8</ele>
      </trkpt>
      <trkpt lat="46.5059" lon="4.82879">
        <ele>285.5</ele>
      </trkpt>
      <trkpt lat="46.50521" lon="4.82883">
        <ele>273.3</ele>
      </trkpt>
      <trkpt lat="46.5051" lon="4.82884">
        <ele>271.7</ele>
      </trkpt>
      <trkpt lat="46.50506" lon="4.82885">
        <ele>270.8</ele>
      </trkpt>
      <trkpt lat="46.50499" lon="4.8289">
        <ele>268.9</ele>
      </trkpt>
      <trkpt lat="46.5049" lon="4.829">
        <ele>268</ele>
      </trkpt>
      <trkpt lat="46.50476" lon="4.82915">
        <ele>266.3</ele>
      </trkpt>
      <trkpt lat="46.50476" lon="4.82935">
        <ele>264.8</ele>
      </trkpt>
      <trkpt lat="46.50476" lon="4.82969">
        <ele>263.1</ele>
      </trkpt>
      <trkpt lat="46.50475" lon="4.8299">
        <ele>262.4</ele>
      </trkpt>
      <trkpt lat="46.50473" lon="4.83009">
        <ele>262</ele>
      </trkpt>
      <trkpt lat="46.50483" lon="4.8301">
        <ele>262</ele>
      </trkpt>
      <trkpt lat="46.50488" lon="4.83027">
        <ele>262</ele>
      </trkpt>
      <trkpt lat="46.50491" lon="4.83046">
        <ele>262.5</ele>
      </trkpt>
      <trkpt lat="46.50492" lon="4.83056">
        <ele>262.7</ele>
      </trkpt>
      <trkpt lat="46.50492" lon="4.83096">
        <ele>265.6</ele>
      </trkpt>
      <trkpt lat="46.50491" lon="4.8319">
        <ele>273.1</ele>
      </trkpt>
      <trkpt lat="46.50492" lon="4.8323">
        <ele>276.4</ele>
      </trkpt>
      <trkpt lat="46.50494" lon="4.83266">
        <ele>279.7</ele>
      </trkpt>
      <trkpt lat="46.50497" lon="4.83288">
        <ele>281.9</ele>
      </trkpt>
      <trkpt lat="46.505" lon="4.83309">
        <ele>283.3</ele>
      </trkpt>
      <trkpt lat="46.50502" lon="4.83323">
        <ele>284.5</ele>
      </trkpt>
      <trkpt lat="46.50502" lon="4.8333">
        <ele>285.3</ele>
      </trkpt>
      <trkpt lat="46.50502" lon="4.83344">
        <ele>286.6</ele>
      </trkpt>
      <trkpt lat="46.50501" lon="4.83399">
        <ele>291.2</ele>
      </trkpt>
      <trkpt lat="46.50501" lon="4.8345">
        <ele>295.6</ele>
      </trkpt>
      <trkpt lat="46.50498" lon="4.83475">
        <ele>298.3</ele>
      </trkpt>
      <trkpt lat="46.50494" lon="4.83505">
        <ele>300.6</ele>
      </trkpt>
      <trkpt lat="46.50498" lon="4.83524">
        <ele>300.9</ele>
      </trkpt>
      <trkpt lat="46.50492" lon="4.83523">
        <ele>300.7</ele>
      </trkpt>
      <trkpt lat="46.50487" lon="4.83522">
        <ele>300.4</ele>
      </trkpt>
      <trkpt lat="46.50479" lon="4.83521">
        <ele>300.1</ele>
      </trkpt>
      <trkpt lat="46.50463" lon="4.8353">
        <ele>299.3</ele>
      </trkpt>
      <trkpt lat="46.50456" lon="4.83534">
        <ele>298.8</ele>
      </trkpt>
      <trkpt lat="46.50445" lon="4.83541">
        <ele>298.1</ele>
      </trkpt>
      <trkpt lat="46.50435" lon="4.83552">
        <ele>297</ele>
      </trkpt>
      <trkpt lat="46.50429" lon="4.83562">
        <ele>296.4</ele>
      </trkpt>
      <trkpt lat="46.50424" lon="4.83571">
        <ele>295.8</ele>
      </trkpt>
      <trkpt lat="46.50409" lon="4.83602">
        <ele>293.4</ele>
      </trkpt>
      <trkpt lat="46.50388" lon="4.83641">
        <ele>289.9</ele>
      </trkpt>
      <trkpt lat="46.50375" lon="4.83663">
        <ele>288.6</ele>
      </trkpt>
      <trkpt lat="46.5038" lon="4.83686">
        <ele>287.3</ele>
      </trkpt>
      <trkpt lat="46.50375" lon="4.83663">
        <ele>288.6</ele>
      </trkpt>
      <trkpt lat="46.50372" lon="4.83667">
        <ele>288.4</ele>
      </trkpt>
      <trkpt lat="46.50367" lon="4.83672">
        <ele>287.8</ele>
      </trkpt>
      <trkpt lat="46.50365" lon="4.83676">
        <ele>287.5</ele>
      </trkpt>
      <trkpt lat="46.50362" lon="4.83681">
        <ele>287</ele>
      </trkpt>
      <trkpt lat="46.50358" lon="4.83688">
        <ele>286.1</ele>
      </trkpt>
      <trkpt lat="46.50354" lon="4.83692">
        <ele>285.4</ele>
      </trkpt>
      <trkpt lat="46.50351" lon="4.83698">
        <ele>284.6</ele>
      </trkpt>
      <trkpt lat="46.50349" lon="4.83705">
        <ele>283.9</ele>
      </trkpt>
      <trkpt lat="46.50346" lon="4.83719">
        <ele>282.6</ele>
      </trkpt>
      <trkpt lat="46.50344" lon="4.83733">
        <ele>281.3</ele>
      </trkpt>
      <trkpt lat="46.50341" lon="4.83746">
        <ele>280.1</ele>
      </trkpt>
      <trkpt lat="46.5034" lon="4.83753">
        <ele>279.5</ele>
      </trkpt>
      <trkpt lat="46.50338" lon="4.83759">
        <ele>279</ele>
      </trkpt>
      <trkpt lat="46.50334" lon="4.8377">
        <ele>277.6</ele>
      </trkpt>
      <trkpt lat="46.50333" lon="4.83777">
        <ele>277</ele>
      </trkpt>
      <trkpt lat="46.50333" lon="4.83784">
        <ele>276.5</ele>
      </trkpt>
      <trkpt lat="46.50333" lon="4.83791">
        <ele>276.1</ele>
      </trkpt>
      <trkpt lat="46.50336" lon="4.83805">
        <ele>275.4</ele>
      </trkpt>
      <trkpt lat="46.50338" lon="4.8382">
        <ele>274.7</ele>
      </trkpt>
      <trkpt lat="46.50341" lon="4.83842">
        <ele>273.8</ele>
      </trkpt>
      <trkpt lat="46.50342" lon="4.83849">
        <ele>273.6</ele>
      </trkpt>
      <trkpt lat="46.50342" lon="4.83856">
        <ele>273.4</ele>
      </trkpt>
      <trkpt lat="46.50342" lon="4.83863">
        <ele>273.1</ele>
      </trkpt>
      <trkpt lat="46.50342" lon="4.83877">
        <ele>272.1</ele>
      </trkpt>
      <trkpt lat="46.50342" lon="4.83884">
        <ele>271.6</ele>
      </trkpt>
      <trkpt lat="46.50341" lon="4.83897">
        <ele>270.8</ele>
      </trkpt>
      <trkpt lat="46.5034" lon="4.83909">
        <ele>270.4</ele>
      </trkpt>
      <trkpt lat="46.50339" lon="4.83915">
        <ele>270.1</ele>
      </trkpt>
      <trkpt lat="46.50339" lon="4.83928">
        <ele>269.9</ele>
      </trkpt>
      <trkpt lat="46.50339" lon="4.8394">
        <ele>269.8</ele>
      </trkpt>
      <trkpt lat="46.50339" lon="4.83952">
        <ele>269.8</ele>
      </trkpt>
      <trkpt lat="46.5034" lon="4.83963">
        <ele>269.9</ele>
      </trkpt>
      <trkpt lat="46.5034" lon="4.83972">
        <ele>270</ele>
      </trkpt>
      <trkpt lat="46.50341" lon="4.83983">
        <ele>270.1</ele>
      </trkpt>
      <trkpt lat="46.50341" lon="4.83994">
        <ele>270.1</ele>
      </trkpt>
      <trkpt lat="46.50341" lon="4.84005">
        <ele>270.1</ele>
      </trkpt>
      <trkpt lat="46.50341" lon="4.84017">
        <ele>270</ele>
      </trkpt>
      <trkpt lat="46.50341" lon="4.84022">
        <ele>270.1</ele>
      </trkpt>
      <trkpt lat="46.50342" lon="4.84028">
        <ele>270.2</ele>
      </trkpt>
      <trkpt lat="46.50343" lon="4.84034">
        <ele>270.2</ele>
      </trkpt>
      <trkpt lat="46.50344" lon="4.84041">
        <ele>270.2</ele>
      </trkpt>
      <trkpt lat="46.50344" lon="4.84047">
        <ele>270.1</ele>
      </trkpt>
      <trkpt lat="46.50344" lon="4.8406">
        <ele>270</ele>
      </trkpt>
      <trkpt lat="46.50345" lon="4.8407">
        <ele>270.1</ele>
      </trkpt>
      <trkpt lat="46.50346" lon="4.84078">
        <ele>270.3</ele>
      </trkpt>
      <trkpt lat="46.50343" lon="4.8409">
        <ele>269.7</ele>
      </trkpt>
      <trkpt lat="46.50338" lon="4.84103">
        <ele>268.8</ele>
      </trkpt>
      <trkpt lat="46.50334" lon="4.84112">
        <ele>268.1</ele>
      </trkpt>
      <trkpt lat="46.50325" lon="4.84127">
        <ele>268.1</ele>
      </trkpt>
      <trkpt lat="46.50316" lon="4.84143">
        <ele>267.7</ele>
      </trkpt>
      <trkpt lat="46.50306" lon="4.84155">
        <ele>267.2</ele>
      </trkpt>
      <trkpt lat="46.50296" lon="4.84165">
        <ele>266.8</ele>
      </trkpt>
      <trkpt lat="46.50285" lon="4.84174">
        <ele>265.8</ele>
      </trkpt>
      <trkpt lat="46.50248" lon="4.842">
        <ele>261.9</ele>
      </trkpt>
      <trkpt lat="46.50231" lon="4.84213">
        <ele>260.6</ele>
      </trkpt>
      <trkpt lat="46.50212" lon="4.84234">
        <ele>258.9</ele>
      </trkpt>
      <trkpt lat="46.50199" lon="4.84247">
        <ele>257.5</ele>
      </trkpt>
      <trkpt lat="46.50188" lon="4.84259">
        <ele>256.6</ele>
      </trkpt>
      <trkpt lat="46.50197" lon="4.84282">
        <ele>257.1</ele>
      </trkpt>
      <trkpt lat="46.50212" lon="4.84331">
        <ele>257.9</ele>
      </trkpt>
      <trkpt lat="46.50236" lon="4.84387">
        <ele>259</ele>
      </trkpt>
      <trkpt lat="46.50256" lon="4.84439">
        <ele>258.6</ele>
      </trkpt>
      <trkpt lat="46.50263" lon="4.84465">
        <ele>258.6</ele>
      </trkpt>
      <trkpt lat="46.50254" lon="4.84459">
        <ele>258.2</ele>
      </trkpt>
      <trkpt lat="46.50219" lon="4.84431">
        <ele>257.3</ele>
      </trkpt>
      <trkpt lat="46.50178" lon="4.84401">
        <ele>255.1</ele>
      </trkpt>
      <trkpt lat="46.50153" lon="4.84385">
        <ele>253.4</ele>
      </trkpt>
      <trkpt lat="46.50121" lon="4.8437">
        <ele>251.4</ele>
      </trkpt>
      <trkpt lat="46.50104" lon="4.84365">
        <ele>250.7</ele>
      </trkpt>
      <trkpt lat="46.50095" lon="4.84366">
        <ele>250.4</ele>
      </trkpt>
      <trkpt lat="46.50087" lon="4.8437">
        <ele>250.1</ele>
      </trkpt>
      <trkpt lat="46.50077" lon="4.84383">
        <ele>249.6</ele>
      </trkpt>
      <trkpt lat="46.50062" lon="4.84408">
        <ele>248.5</ele>
      </trkpt>
      <trkpt lat="46.50043" lon="4.84442">
        <ele>247.1</ele>
      </trkpt>
      <trkpt lat="46.50022" lon="4.84472">
        <ele>245.8</ele>
      </trkpt>
      <trkpt lat="46.50002" lon="4.84498">
        <ele>245.1</ele>
      </trkpt>
      <trkpt lat="46.49967" lon="4.84532">
        <ele>243.7</ele>
      </trkpt>
      <trkpt lat="46.49944" lon="4.84557">
        <ele>243</ele>
      </trkpt>
      <trkpt lat="46.49917" lon="4.84584">
        <ele>241</ele>
      </trkpt>
      <trkpt lat="46.49889" lon="4.84608">
        <ele>240</ele>
      </trkpt>
      <trkpt lat="46.49861" lon="4.84637">
        <ele>238.1</ele>
      </trkpt>
      <trkpt lat="46.4985" lon="4.84664">
        <ele>237.6</ele>
      </trkpt>
      <trkpt lat="46.49837" lon="4.8476">
        <ele>236.4</ele>
      </trkpt>
      <trkpt lat="46.49831" lon="4.84795">
        <ele>236</ele>
      </trkpt>
      <trkpt lat="46.49826" lon="4.8481">
        <ele>235.7</ele>
      </trkpt>
      <trkpt lat="46.49818" lon="4.84822">
        <ele>235.4</ele>
      </trkpt>
      <trkpt lat="46.49798" lon="4.84848">
        <ele>235</ele>
      </trkpt>
      <trkpt lat="46.4978" lon="4.84875">
        <ele>234.5</ele>
      </trkpt>
      <trkpt lat="46.49728" lon="4.84983">
        <ele>232.6</ele>
      </trkpt>
      <trkpt lat="46.49729" lon="4.84998">
        <ele>232.1</ele>
      </trkpt>
      <trkpt lat="46.49736" lon="4.85034">
        <ele>231.5</ele>
      </trkpt>
      <trkpt lat="46.49747" lon="4.8509">
        <ele>231.8</ele>
      </trkpt>
      <trkpt lat="46.49753" lon="4.85127">
        <ele>232.1</ele>
      </trkpt>
      <trkpt lat="46.49753" lon="4.8515">
        <ele>232.8</ele>
      </trkpt>
      <trkpt lat="46.49755" lon="4.8516">
        <ele>233.5</ele>
      </trkpt>
      <trkpt lat="46.49757" lon="4.85179">
        <ele>234.9</ele>
      </trkpt>
      <trkpt lat="46.49756" lon="4.8521">
        <ele>237.2</ele>
      </trkpt>
      <trkpt lat="46.49752" lon="4.85238">
        <ele>239.2</ele>
      </trkpt>
      <trkpt lat="46.49751" lon="4.85255">
        <ele>240.4</ele>
      </trkpt>
      <trkpt lat="46.49756" lon="4.85275">
        <ele>242.2</ele>
      </trkpt>
      <trkpt lat="46.4976" lon="4.85302">
        <ele>244.5</ele>
      </trkpt>
      <trkpt lat="46.49771" lon="4.85312">
        <ele>246</ele>
      </trkpt>
      <trkpt lat="46.49779" lon="4.85325">
        <ele>247.5</ele>
      </trkpt>
      <trkpt lat="46.49782" lon="4.85334">
        <ele>248.3</ele>
      </trkpt>
      <trkpt lat="46.49783" lon="4.85349">
        <ele>249.5</ele>
      </trkpt>
      <trkpt lat="46.49785" lon="4.85374">
        <ele>251.3</ele>
      </trkpt>
      <trkpt lat="46.49786" lon="4.85453">
        <ele>254.6</ele>
      </trkpt>
      <trkpt lat="46.49786" lon="4.8553">
        <ele>257.8</ele>
      </trkpt>
      <trkpt lat="46.49784" lon="4.85553">
        <ele>259.1</ele>
      </trkpt>
      <trkpt lat="46.49783" lon="4.85575">
        <ele>260.1</ele>
      </trkpt>
      <trkpt lat="46.49783" lon="4.85593">
        <ele>260.5</ele>
      </trkpt>
      <trkpt lat="46.49785" lon="4.85622">
        <ele>261.1</ele>
      </trkpt>
      <trkpt lat="46.49784" lon="4.85644">
        <ele>261.3</ele>
      </trkpt>
      <trkpt lat="46.49781" lon="4.85663">
        <ele>260.5</ele>
      </trkpt>
      <trkpt lat="46.4978" lon="4.8568">
        <ele>259.8</ele>
      </trkpt>
      <trkpt lat="46.49783" lon="4.85695">
        <ele>259.5</ele>
      </trkpt>
      <trkpt lat="46.4979" lon="4.85716">
        <ele>260.4</ele>
      </trkpt>
      <trkpt lat="46.49799" lon="4.85731">
        <ele>261</ele>
      </trkpt>
      <trkpt lat="46.49814" lon="4.85746">
        <ele>262</ele>
      </trkpt>
      <trkpt lat="46.49843" lon="4.85777">
        <ele>264</ele>
      </trkpt>
      <trkpt lat="46.49863" lon="4.85806">
        <ele>264.2</ele>
      </trkpt>
      <trkpt lat="46.49881" lon="4.85836">
        <ele>264.9</ele>
      </trkpt>
      <trkpt lat="46.49892" lon="4.85858">
        <ele>264.5</ele>
      </trkpt>
      <trkpt lat="46.49897" lon="4.85873">
        <ele>264.5</ele>
      </trkpt>
      <trkpt lat="46.49902" lon="4.85886">
        <ele>264.5</ele>
      </trkpt>
      <trkpt lat="46.49904" lon="4.85909">
        <ele>263.6</ele>
      </trkpt>
      <trkpt lat="46.49906" lon="4.85929">
        <ele>263</ele>
      </trkpt>
      <trkpt lat="46.49909" lon="4.85949">
        <ele>262.6</ele>
      </trkpt>
      <trkpt lat="46.49917" lon="4.85987">
        <ele>261</ele>
      </trkpt>
      <trkpt lat="46.49932" lon="4.86051">
        <ele>258.9</ele>
      </trkpt>
      <trkpt lat="46.49932" lon="4.86052">
        <ele>258.9</ele>
      </trkpt>
      <trkpt lat="46.49941" lon="4.86089">
        <ele>257.3</ele>
      </trkpt>
      <trkpt lat="46.49954" lon="4.86141">
        <ele>255.9</ele>
      </trkpt>
      <trkpt lat="46.4996" lon="4.86173">
        <ele>255.5</ele>
      </trkpt>
      <trkpt lat="46.49963" lon="4.86197">
        <ele>254.9</ele>
      </trkpt>
      <trkpt lat="46.49963" lon="4.86219">
        <ele>253.5</ele>
      </trkpt>
      <trkpt lat="46.49963" lon="4.86245">
        <ele>252.2</ele>
      </trkpt>
      <trkpt lat="46.49959" lon="4.86269">
        <ele>250.9</ele>
      </trkpt>
      <trkpt lat="46.49957" lon="4.86283">
        <ele>250.1</ele>
      </trkpt>
      <trkpt lat="46.49955" lon="4.8629">
        <ele>249.7</ele>
      </trkpt>
      <trkpt lat="46.49944" lon="4.86325">
        <ele>248</ele>
      </trkpt>
      <trkpt lat="46.49935" lon="4.86369">
        <ele>246.2</ele>
      </trkpt>
      <trkpt lat="46.49931" lon="4.86394">
        <ele>245.6</ele>
      </trkpt>
      <trkpt lat="46.4993" lon="4.86422">
        <ele>245.2</ele>
      </trkpt>
      <trkpt lat="46.4993" lon="4.86447">
        <ele>244.3</ele>
      </trkpt>
      <trkpt lat="46.49933" lon="4.86492">
        <ele>243.9</ele>
      </trkpt>
      <trkpt lat="46.49936" lon="4.86523">
        <ele>243.2</ele>
      </trkpt>
      <trkpt lat="46.49936" lon="4.86542">
        <ele>242.5</ele>
      </trkpt>
      <trkpt lat="46.49932" lon="4.8657">
        <ele>241.7</ele>
      </trkpt>
      <trkpt lat="46.49928" lon="4.86601">
        <ele>240.6</ele>
      </trkpt>
      <trkpt lat="46.49926" lon="4.86624">
        <ele>240.1</ele>
      </trkpt>
      <trkpt lat="46.49925" lon="4.86656">
        <ele>239.7</ele>
      </trkpt>
      <trkpt lat="46.49922" lon="4.86683">
        <ele>238.9</ele>
      </trkpt>
      <trkpt lat="46.49914" lon="4.86717">
        <ele>237.8</ele>
      </trkpt>
      <trkpt lat="46.49907" lon="4.86752">
        <ele>237.3</ele>
      </trkpt>
      <trkpt lat="46.499" lon="4.86777">
        <ele>236.8</ele>
      </trkpt>
      <trkpt lat="46.49897" lon="4.86799">
        <ele>236.9</ele>
      </trkpt>
      <trkpt lat="46.49896" lon="4.86821">
        <ele>236.6</ele>
      </trkpt>
      <trkpt lat="46.49896" lon="4.86846">
        <ele>236.2</ele>
      </trkpt>
      <trkpt lat="46.49899" lon="4.86863">
        <ele>236.3</ele>
      </trkpt>
      <trkpt lat="46.49905" lon="4.86886">
        <ele>236.1</ele>
      </trkpt>
      <trkpt lat="46.4991" lon="4.86902">
        <ele>235.7</ele>
      </trkpt>
      <trkpt lat="46.49916" lon="4.86904">
        <ele>235.5</ele>
      </trkpt>
      <trkpt lat="46.49925" lon="4.86908">
        <ele>235.6</ele>
      </trkpt>
      <trkpt lat="46.49934" lon="4.86913">
        <ele>235.8</ele>
      </trkpt>
      <trkpt lat="46.49936" lon="4.86913">
        <ele>235.8</ele>
      </trkpt>
      <trkpt lat="46.49939" lon="4.86912">
        <ele>236</ele>
      </trkpt>
      <trkpt lat="46.49941" lon="4.86911">
        <ele>236.1</ele>
      </trkpt>
      <trkpt lat="46.49944" lon="4.86908">
        <ele>236.3</ele>
      </trkpt>
      <trkpt lat="46.49957" lon="4.8689">
        <ele>237</ele>
      </trkpt>
      <trkpt lat="46.49978" lon="4.86857">
        <ele>238.1</ele>
      </trkpt>
      <trkpt lat="46.50001" lon="4.8682">
        <ele>240.5</ele>
      </trkpt>
      <trkpt lat="46.50015" lon="4.86799">
        <ele>242.3</ele>
      </trkpt>
      <trkpt lat="46.50035" lon="4.8677">
        <ele>245</ele>
      </trkpt>
      <trkpt lat="46.50049" lon="4.86754">
        <ele>246.6</ele>
      </trkpt>
      <trkpt lat="46.50052" lon="4.86752">
        <ele>246.8</ele>
      </trkpt>
      <trkpt lat="46.50059" lon="4.86749">
        <ele>247.2</ele>
      </trkpt>
      <trkpt lat="46.50095" lon="4.86743">
        <ele>247.9</ele>
      </trkpt>
      <trkpt lat="46.50107" lon="4.86741">
        <ele>247.8</ele>
      </trkpt>
      <trkpt lat="46.50118" lon="4.86737">
        <ele>247.8</ele>
      </trkpt>
      <trkpt lat="46.50149" lon="4.86726">
        <ele>248.3</ele>
      </trkpt>
      <trkpt lat="46.50175" lon="4.86716">
        <ele>248.6</ele>
      </trkpt>
      <trkpt lat="46.50204" lon="4.86705">
        <ele>248.9</ele>
      </trkpt>
      <trkpt lat="46.50219" lon="4.867">
        <ele>248.7</ele>
      </trkpt>
      <trkpt lat="46.50248" lon="4.86694">
        <ele>247.2</ele>
      </trkpt>
      <trkpt lat="46.50263" lon="4.86691">
        <ele>245.5</ele>
      </trkpt>
      <trkpt lat="46.50272" lon="4.86687">
        <ele>244.8</ele>
      </trkpt>
      <trkpt lat="46.50283" lon="4.86684">
        <ele>244.3</ele>
      </trkpt>
      <trkpt lat="46.50311" lon="4.8667">
        <ele>243.3</ele>
      </trkpt>
      <trkpt lat="46.50357" lon="4.86646">
        <ele>240.2</ele>
      </trkpt>
      <trkpt lat="46.50377" lon="4.86641">
        <ele>237.8</ele>
      </trkpt>
      <trkpt lat="46.50392" lon="4.86639">
        <ele>235.7</ele>
      </trkpt>
      <trkpt lat="46.50401" lon="4.86635">
        <ele>234.7</ele>
      </trkpt>
      <trkpt lat="46.50415" lon="4.86626">
        <ele>233.2</ele>
      </trkpt>
      <trkpt lat="46.50428" lon="4.86613">
        <ele>232.2</ele>
      </trkpt>
      <trkpt lat="46.50442" lon="4.86599">
        <ele>231.6</ele>
      </trkpt>
      <trkpt lat="46.50459" lon="4.86586">
        <ele>231.4</ele>
      </trkpt>
      <trkpt lat="46.5048" lon="4.86569">
        <ele>232.1</ele>
      </trkpt>
      <trkpt lat="46.50503" lon="4.86551">
        <ele>234.8</ele>
      </trkpt>
      <trkpt lat="46.50532" lon="4.86529">
        <ele>239</ele>
      </trkpt>
      <trkpt lat="46.50553" lon="4.86509">
        <ele>241.3</ele>
      </trkpt>
      <trkpt lat="46.50573" lon="4.86493">
        <ele>241.3</ele>
      </trkpt>
      <trkpt lat="46.50588" lon="4.8648">
        <ele>240.8</ele>
      </trkpt>
      <trkpt lat="46.50602" lon="4.86468">
        <ele>239.5</ele>
      </trkpt>
      <trkpt lat="46.50638" lon="4.8644">
        <ele>237.2</ele>
      </trkpt>
      <trkpt lat="46.50651" lon="4.86431">
        <ele>236.6</ele>
      </trkpt>
      <trkpt lat="46.50666" lon="4.86427">
        <ele>235.4</ele>
      </trkpt>
      <trkpt lat="46.50714" lon="4.86415">
        <ele>229.9</ele>
      </trkpt>
      <trkpt lat="46.5074" lon="4.86413">
        <ele>228.4</ele>
      </trkpt>
      <trkpt lat="46.50748" lon="4.86416">
        <ele>228.1</ele>
      </trkpt>
      <trkpt lat="46.50769" lon="4.86429">
        <ele>226.8</ele>
      </trkpt>
      <trkpt lat="46.50784" lon="4.86442">
        <ele>227.2</ele>
      </trkpt>
      <trkpt lat="46.50783" lon="4.86446">
        <ele>227.2</ele>
      </trkpt>
      <trkpt lat="46.50784" lon="4.86442">
        <ele>227.2</ele>
      </trkpt>
      <trkpt lat="46.50813" lon="4.86392">
        <ele>228.3</ele>
      </trkpt>
      <trkpt lat="46.50825" lon="4.86374">
        <ele>228.3</ele>
      </trkpt>
      <trkpt lat="46.50835" lon="4.8636">
        <ele>228.1</ele>
      </trkpt>
      <trkpt lat="46.50863" lon="4.86328">
        <ele>229.1</ele>
      </trkpt>
      <trkpt lat="46.50869" lon="4.86321">
        <ele>229.3</ele>
      </trkpt>
      <trkpt lat="46.50883" lon="4.86307">
        <ele>229.8</ele>
      </trkpt>
      <trkpt lat="46.50917" lon="4.86272">
        <ele>231</ele>
      </trkpt>
      <trkpt lat="46.50934" lon="4.86258">
        <ele>231.6</ele>
      </trkpt>
      <trkpt lat="46.50937" lon="4.86256">
        <ele>231.7</ele>
      </trkpt>
      <trkpt lat="46.50947" lon="4.86251">
        <ele>232.1</ele>
      </trkpt>
      <trkpt lat="46.50956" lon="4.86248">
        <ele>232.4</ele>
      </trkpt>
      <trkpt lat="46.50959" lon="4.86247">
        <ele>232.5</ele>
      </trkpt>
      <trkpt lat="46.50976" lon="4.86243">
        <ele>233.2</ele>
      </trkpt>
      <trkpt lat="46.50986" lon="4.86237">
        <ele>233.7</ele>
      </trkpt>
      <trkpt lat="46.5099" lon="4.86226">
        <ele>234.2</ele>
      </trkpt>
      <trkpt lat="46.50999" lon="4.86196">
        <ele>234.9</ele>
      </trkpt>
      <trkpt lat="46.51005" lon="4.8617">
        <ele>235.4</ele>
      </trkpt>
      <trkpt lat="46.51006" lon="4.86159">
        <ele>235.5</ele>
      </trkpt>
      <trkpt lat="46.51006" lon="4.8615">
        <ele>235.6</ele>
      </trkpt>
      <trkpt lat="46.51006" lon="4.86146">
        <ele>235.6</ele>
      </trkpt>
      <trkpt lat="46.51004" lon="4.86138">
        <ele>235.5</ele>
      </trkpt>
      <trkpt lat="46.50998" lon="4.86121">
        <ele>235.6</ele>
      </trkpt>
      <trkpt lat="46.50991" lon="4.86106">
        <ele>235.7</ele>
      </trkpt>
      <trkpt lat="46.5099" lon="4.86086">
        <ele>236</ele>
      </trkpt>
      <trkpt lat="46.5099" lon="4.8608">
        <ele>236.2</ele>
      </trkpt>
      <trkpt lat="46.5099" lon="4.86068">
        <ele>236.8</ele>
      </trkpt>
      <trkpt lat="46.5099" lon="4.86058">
        <ele>237.2</ele>
      </trkpt>
      <trkpt lat="46.50993" lon="4.86008">
        <ele>239.5</ele>
      </trkpt>
      <trkpt lat="46.50996" lon="4.85932">
        <ele>241.6</ele>
      </trkpt>
      <trkpt lat="46.50996" lon="4.8591">
        <ele>242.6</ele>
      </trkpt>
      <trkpt lat="46.51021" lon="4.85911">
        <ele>243.2</ele>
      </trkpt>
      <trkpt lat="46.51031" lon="4.85911">
        <ele>243.7</ele>
      </trkpt>
      <trkpt lat="46.51041" lon="4.85908">
        <ele>244.6</ele>
      </trkpt>
      <trkpt lat="46.51055" lon="4.85903">
        <ele>245.9</ele>
      </trkpt>
      <trkpt lat="46.51068" lon="4.85896">
        <ele>247.1</ele>
      </trkpt>
      <trkpt lat="46.51086" lon="4.85888">
        <ele>248.3</ele>
      </trkpt>
      <trkpt lat="46.51102" lon="4.85882">
        <ele>249.8</ele>
      </trkpt>
      <trkpt lat="46.51115" lon="4.85879">
        <ele>251</ele>
      </trkpt>
      <trkpt lat="46.51137" lon="4.85875">
        <ele>252.8</ele>
      </trkpt>
      <trkpt lat="46.51141" lon="4.85874">
        <ele>253.2</ele>
      </trkpt>
      <trkpt lat="46.51157" lon="4.8586">
        <ele>254.5</ele>
      </trkpt>
      <trkpt lat="46.51176" lon="4.85846">
        <ele>256.5</ele>
      </trkpt>
      <trkpt lat="46.51207" lon="4.85827">
        <ele>259.7</ele>
      </trkpt>
      <trkpt lat="46.51225" lon="4.85815">
        <ele>261.5</ele>
      </trkpt>
      <trkpt lat="46.51248" lon="4.85793">
        <ele>262.8</ele>
      </trkpt>
      <trkpt lat="46.5127" lon="4.85773">
        <ele>264.6</ele>
      </trkpt>
      <trkpt lat="46.51313" lon="4.85739">
        <ele>269.6</ele>
      </trkpt>
      <trkpt lat="46.51337" lon="4.85716">
        <ele>271.4</ele>
      </trkpt>
      <trkpt lat="46.51366" lon="4.85685">
        <ele>274.4</ele>
      </trkpt>
      <trkpt lat="46.51391" lon="4.85659">
        <ele>276.3</ele>
      </trkpt>
      <trkpt lat="46.51407" lon="4.85639">
        <ele>278</ele>
      </trkpt>
      <trkpt lat="46.51422" lon="4.85617">
        <ele>279.4</ele>
      </trkpt>
      <trkpt lat="46.51443" lon="4.85581">
        <ele>282.1</ele>
      </trkpt>
      <trkpt lat="46.5146" lon="4.85554">
        <ele>283.1</ele>
      </trkpt>
      <trkpt lat="46.51465" lon="4.85548">
        <ele>283.3</ele>
      </trkpt>
      <trkpt lat="46.5147" lon="4.85546">
        <ele>283.4</ele>
      </trkpt>
      <trkpt lat="46.51476" lon="4.85542">
        <ele>283.2</ele>
      </trkpt>
      <trkpt lat="46.51474" lon="4.85537">
        <ele>283.5</ele>
      </trkpt>
      <trkpt lat="46.51538" lon="4.85507">
        <ele>278.2</ele>
      </trkpt>
      <trkpt lat="46.51594" lon="4.85482">
        <ele>277</ele>
      </trkpt>
      <trkpt lat="46.51609" lon="4.85479">
        <ele>277.9</ele>
      </trkpt>
      <trkpt lat="46.51622" lon="4.85479">
        <ele>279.3</ele>
      </trkpt>
      <trkpt lat="46.51636" lon="4.8548">
        <ele>280.9</ele>
      </trkpt>
      <trkpt lat="46.51648" lon="4.85476">
        <ele>282.1</ele>
      </trkpt>
      <trkpt lat="46.51687" lon="4.85462">
        <ele>286.6</ele>
      </trkpt>
      <trkpt lat="46.51722" lon="4.8545">
        <ele>289.2</ele>
      </trkpt>
      <trkpt lat="46.51731" lon="4.85449">
        <ele>289.8</ele>
      </trkpt>
      <trkpt lat="46.51746" lon="4.85452">
        <ele>291</ele>
      </trkpt>
      <trkpt lat="46.51778" lon="4.85458">
        <ele>292.5</ele>
      </trkpt>
      <trkpt lat="46.51796" lon="4.85461">
        <ele>292.6</ele>
      </trkpt>
      <trkpt lat="46.51826" lon="4.85464">
        <ele>292</ele>
      </trkpt>
      <trkpt lat="46.51851" lon="4.85463">
        <ele>290.6</ele>
      </trkpt>
      <trkpt lat="46.51871" lon="4.85459">
        <ele>289.3</ele>
      </trkpt>
      <trkpt lat="46.51893" lon="4.85447">
        <ele>287.6</ele>
      </trkpt>
      <trkpt lat="46.51925" lon="4.85425">
        <ele>284.1</ele>
      </trkpt>
      <trkpt lat="46.51956" lon="4.85397">
        <ele>280.5</ele>
      </trkpt>
      <trkpt lat="46.51978" lon="4.85375">
        <ele>279.2</ele>
      </trkpt>
      <trkpt lat="46.51994" lon="4.85352">
        <ele>278.9</ele>
      </trkpt>
      <trkpt lat="46.52008" lon="4.8532">
        <ele>279.2</ele>
      </trkpt>
      <trkpt lat="46.52018" lon="4.85285">
        <ele>278.6</ele>
      </trkpt>
      <trkpt lat="46.5203" lon="4.85281">
        <ele>279.2</ele>
      </trkpt>
      <trkpt lat="46.5204" lon="4.85274">
        <ele>279.3</ele>
      </trkpt>
      <trkpt lat="46.52058" lon="4.85261">
        <ele>278.8</ele>
      </trkpt>
      <trkpt lat="46.52083" lon="4.8525">
        <ele>278</ele>
      </trkpt>
      <trkpt lat="46.52098" lon="4.85244">
        <ele>277.7</ele>
      </trkpt>
      <trkpt lat="46.52102" lon="4.8524">
        <ele>277.5</ele>
      </trkpt>
      <trkpt lat="46.5211" lon="4.8523">
        <ele>277.3</ele>
      </trkpt>
      <trkpt lat="46.52121" lon="4.85217">
        <ele>277.8</ele>
      </trkpt>
      <trkpt lat="46.52133" lon="4.85204">
        <ele>279.1</ele>
      </trkpt>
      <trkpt lat="46.52151" lon="4.85189">
        <ele>281.4</ele>
      </trkpt>
      <trkpt lat="46.52162" lon="4.85183">
        <ele>282.6</ele>
      </trkpt>
      <trkpt lat="46.52178" lon="4.85176">
        <ele>283.4</ele>
      </trkpt>
      <trkpt lat="46.52195" lon="4.85168">
        <ele>284</ele>
      </trkpt>
      <trkpt lat="46.52204" lon="4.85163">
        <ele>283.9</ele>
      </trkpt>
      <trkpt lat="46.52209" lon="4.85158">
        <ele>283.9</ele>
      </trkpt>
      <trkpt lat="46.52213" lon="4.85153">
        <ele>283.8</ele>
      </trkpt>
      <trkpt lat="46.52216" lon="4.85141">
        <ele>283.8</ele>
      </trkpt>
      <trkpt lat="46.5222" lon="4.85118">
        <ele>282.5</ele>
      </trkpt>
      <trkpt lat="46.52229" lon="4.85065">
        <ele>279.6</ele>
      </trkpt>
      <trkpt lat="46.52242" lon="4.85014">
        <ele>276.7</ele>
      </trkpt>
      <trkpt lat="46.52257" lon="4.84958">
        <ele>273.9</ele>
      </trkpt>
      <trkpt lat="46.52269" lon="4.84913">
        <ele>272.9</ele>
      </trkpt>
      <trkpt lat="46.52279" lon="4.84884">
        <ele>272.8</ele>
      </trkpt>
      <trkpt lat="46.52286" lon="4.84869">
        <ele>272.3</ele>
      </trkpt>
      <trkpt lat="46.52294" lon="4.84859">
        <ele>271.9</ele>
      </trkpt>
      <trkpt lat="46.52307" lon="4.84845">
        <ele>271.5</ele>
      </trkpt>
      <trkpt lat="46.52335" lon="4.84826">
        <ele>271.7</ele>
      </trkpt>
      <trkpt lat="46.52357" lon="4.84813">
        <ele>271.3</ele>
      </trkpt>
      <trkpt lat="46.52381" lon="4.84795">
        <ele>271.7</ele>
      </trkpt>
      <trkpt lat="46.52406" lon="4.84774">
        <ele>272.5</ele>
      </trkpt>
      <trkpt lat="46.5243" lon="4.84753">
        <ele>272.6</ele>
      </trkpt>
      <trkpt lat="46.52461" lon="4.84725">
        <ele>274.5</ele>
      </trkpt>
      <trkpt lat="46.52483" lon="4.84701">
        <ele>276.1</ele>
      </trkpt>
      <trkpt lat="46.52514" lon="4.84675">
        <ele>278.2</ele>
      </trkpt>
      <trkpt lat="46.52537" lon="4.84655">
        <ele>280.1</ele>
      </trkpt>
      <trkpt lat="46.5256" lon="4.84637">
        <ele>282.3</ele>
      </trkpt>
      <trkpt lat="46.52572" lon="4.84629">
        <ele>283.3</ele>
      </trkpt>
      <trkpt lat="46.52584" lon="4.84622">
        <ele>284.3</ele>
      </trkpt>
      <trkpt lat="46.52595" lon="4.84615">
        <ele>285.2</ele>
      </trkpt>
      <trkpt lat="46.52604" lon="4.84609">
        <ele>285.8</ele>
      </trkpt>
      <trkpt lat="46.52611" lon="4.846">
        <ele>286.4</ele>
      </trkpt>
      <trkpt lat="46.52635" lon="4.84564">
        <ele>289.4</ele>
      </trkpt>
      <trkpt lat="46.52643" lon="4.84551">
        <ele>290.5</ele>
      </trkpt>
      <trkpt lat="46.52648" lon="4.84538">
        <ele>291.3</ele>
      </trkpt>
      <trkpt lat="46.52657" lon="4.84515">
        <ele>292.5</ele>
      </trkpt>
      <trkpt lat="46.52668" lon="4.84483">
        <ele>293.6</ele>
      </trkpt>
      <trkpt lat="46.52675" lon="4.84457">
        <ele>294.1</ele>
      </trkpt>
      <trkpt lat="46.52684" lon="4.84426">
        <ele>293.6</ele>
      </trkpt>
      <trkpt lat="46.52676" lon="4.84422">
        <ele>293.7</ele>
      </trkpt>
      <trkpt lat="46.52667" lon="4.84414">
        <ele>294</ele>
      </trkpt>
      <trkpt lat="46.52655" lon="4.84402">
        <ele>294.2</ele>
      </trkpt>
      <trkpt lat="46.52644" lon="4.84384">
        <ele>294.6</ele>
      </trkpt>
      <trkpt lat="46.52638" lon="4.84372">
        <ele>294.4</ele>
      </trkpt>
      <trkpt lat="46.5263" lon="4.8436">
        <ele>294.5</ele>
      </trkpt>
      <trkpt lat="46.52622" lon="4.84352">
        <ele>294.3</ele>
      </trkpt>
      <trkpt lat="46.52612" lon="4.84345">
        <ele>294.8</ele>
      </trkpt>
      <trkpt lat="46.52599" lon="4.84339">
        <ele>295.4</ele>
      </trkpt>
      <trkpt lat="46.5257" lon="4.84325">
        <ele>295.7</ele>
      </trkpt>
      <trkpt lat="46.5254" lon="4.84309">
        <ele>296.8</ele>
      </trkpt>
      <trkpt lat="46.52523" lon="4.84298">
        <ele>296.9</ele>
      </trkpt>
      <trkpt lat="46.52507" lon="4.84289">
        <ele>296.8</ele>
      </trkpt>
      <trkpt lat="46.52492" lon="4.84279">
        <ele>297.6</ele>
      </trkpt>
      <trkpt lat="46.52465" lon="4.84263">
        <ele>298</ele>
      </trkpt>
      <trkpt lat="46.52441" lon="4.8425">
        <ele>300.1</ele>
      </trkpt>
      <trkpt lat="46.52423" lon="4.84239">
        <ele>299.6</ele>
      </trkpt>
      <trkpt lat="46.52414" lon="4.84232">
        <ele>299.9</ele>
      </trkpt>
      <trkpt lat="46.52403" lon="4.84228">
        <ele>300.6</ele>
      </trkpt>
      <trkpt lat="46.52391" lon="4.84221">
        <ele>301.6</ele>
      </trkpt>
      <trkpt lat="46.52381" lon="4.84214">
        <ele>301.2</ele>
      </trkpt>
      <trkpt lat="46.52367" lon="4.84198">
        <ele>302</ele>
      </trkpt>
      <trkpt lat="46.52355" lon="4.84187">
        <ele>302.1</ele>
      </trkpt>
      <trkpt lat="46.52343" lon="4.84179">
        <ele>302.3</ele>
      </trkpt>
      <trkpt lat="46.5233" lon="4.84172">
        <ele>303.4</ele>
      </trkpt>
      <trkpt lat="46.52336" lon="4.84168">
        <ele>302.6</ele>
      </trkpt>
      <trkpt lat="46.52338" lon="4.84165">
        <ele>302</ele>
      </trkpt>
      <trkpt lat="46.52337" lon="4.84161">
        <ele>301.4</ele>
      </trkpt>
      <trkpt lat="46.52335" lon="4.84158">
        <ele>301.1</ele>
      </trkpt>
      <trkpt lat="46.52325" lon="4.84149">
        <ele>300.7</ele>
      </trkpt>
      <trkpt lat="46.52322" lon="4.84143">
        <ele>300.2</ele>
      </trkpt>
      <trkpt lat="46.52322" lon="4.84135">
        <ele>299.2</ele>
      </trkpt>
      <trkpt lat="46.52324" lon="4.84108">
        <ele>296</ele>
      </trkpt>
      <trkpt lat="46.52328" lon="4.84083">
        <ele>293.7</ele>
      </trkpt>
      <trkpt lat="46.52338" lon="4.84043">
        <ele>289.6</ele>
      </trkpt>
      <trkpt lat="46.52357" lon="4.83977">
        <ele>282.3</ele>
      </trkpt>
      <trkpt lat="46.52354" lon="4.8397">
        <ele>282.1</ele>
      </trkpt>
      <trkpt lat="46.52347" lon="4.83947">
        <ele>281.7</ele>
      </trkpt>
      <trkpt lat="46.52346" lon="4.83935">
        <ele>281</ele>
      </trkpt>
      <trkpt lat="46.52345" lon="4.83921">
        <ele>280</ele>
      </trkpt>
      <trkpt lat="46.52346" lon="4.83905">
        <ele>278.9</ele>
      </trkpt>
      <trkpt lat="46.5235" lon="4.83886">
        <ele>277.1</ele>
      </trkpt>
      <trkpt lat="46.52356" lon="4.83865">
        <ele>276.4</ele>
      </trkpt>
      <trkpt lat="46.52363" lon="4.83853">
        <ele>275.9</ele>
      </trkpt>
      <trkpt lat="46.52374" lon="4.83829">
        <ele>275.6</ele>
      </trkpt>
      <trkpt lat="46.52393" lon="4.83787">
        <ele>277.5</ele>
      </trkpt>
      <trkpt lat="46.52407" lon="4.83757">
        <ele>280.6</ele>
      </trkpt>
      <trkpt lat="46.52411" lon="4.8375">
        <ele>281.6</ele>
      </trkpt>
      <trkpt lat="46.52413" lon="4.83748">
        <ele>282.3</ele>
      </trkpt>
      <trkpt lat="46.52417" lon="4.83746">
        <ele>283.1</ele>
      </trkpt>
      <trkpt lat="46.52432" lon="4.83743">
        <ele>285.1</ele>
      </trkpt>
      <trkpt lat="46.52445" lon="4.83739">
        <ele>287</ele>
      </trkpt>
      <trkpt lat="46.52452" lon="4.83733">
        <ele>287.9</ele>
      </trkpt>
      <trkpt lat="46.5246" lon="4.83722">
        <ele>289.4</ele>
      </trkpt>
      <trkpt lat="46.52471" lon="4.83703">
        <ele>290.4</ele>
      </trkpt>
      <trkpt lat="46.52474" lon="4.83695">
        <ele>290.7</ele>
      </trkpt>
      <trkpt lat="46.52475" lon="4.8369">
        <ele>290.5</ele>
      </trkpt>
      <trkpt lat="46.52475" lon="4.83689">
        <ele>290.5</ele>
      </trkpt>
      <trkpt lat="46.52473" lon="4.83684">
        <ele>290.5</ele>
      </trkpt>
      <trkpt lat="46.52468" lon="4.83678">
        <ele>290.8</ele>
      </trkpt>
      <trkpt lat="46.52449" lon="4.83665">
        <ele>292.4</ele>
      </trkpt>
      <trkpt lat="46.52426" lon="4.8365">
        <ele>293.3</ele>
      </trkpt>
      <trkpt lat="46.5242" lon="4.83645">
        <ele>293.7</ele>
      </trkpt>
      <trkpt lat="46.52418" lon="4.83639">
        <ele>293.8</ele>
      </trkpt>
      <trkpt lat="46.52418" lon="4.83634">
        <ele>293.7</ele>
      </trkpt>
      <trkpt lat="46.5242" lon="4.83627">
        <ele>293.2</ele>
      </trkpt>
      <trkpt lat="46.52429" lon="4.83598">
        <ele>291</ele>
      </trkpt>
      <trkpt lat="46.52441" lon="4.83559">
        <ele>290</ele>
      </trkpt>
      <trkpt lat="46.52448" lon="4.83532">
        <ele>290.8</ele>
      </trkpt>
      <trkpt lat="46.52455" lon="4.83503">
        <ele>293.7</ele>
      </trkpt>
      <trkpt lat="46.52463" lon="4.83463">
        <ele>298.5</ele>
      </trkpt>
      <trkpt lat="46.52469" lon="4.83428">
        <ele>302.5</ele>
      </trkpt>
      <trkpt lat="46.52471" lon="4.83412">
        <ele>304.6</ele>
      </trkpt>
      <trkpt lat="46.5247" lon="4.83398">
        <ele>306.3</ele>
      </trkpt>
      <trkpt lat="46.52467" lon="4.83375">
        <ele>308.8</ele>
      </trkpt>
      <trkpt lat="46.52466" lon="4.83358">
        <ele>310.1</ele>
      </trkpt>
      <trkpt lat="46.52466" lon="4.83349">
        <ele>310.8</ele>
      </trkpt>
      <trkpt lat="46.52463" lon="4.83342">
        <ele>311.5</ele>
      </trkpt>
      <trkpt lat="46.52461" lon="4.83339">
        <ele>311.9</ele>
      </trkpt>
      <trkpt lat="46.52451" lon="4.83338">
        <ele>313</ele>
      </trkpt>
      <trkpt lat="46.52443" lon="4.83334">
        <ele>314.2</ele>
      </trkpt>
      <trkpt lat="46.52435" lon="4.83329">
        <ele>315.6</ele>
      </trkpt>
      <trkpt lat="46.52426" lon="4.83318">
        <ele>317.4</ele>
      </trkpt>
      <trkpt lat="46.52417" lon="4.83304">
        <ele>319</ele>
      </trkpt>
      <trkpt lat="46.5241" lon="4.83295">
        <ele>320</ele>
      </trkpt>
      <trkpt lat="46.52378" lon="4.83265">
        <ele>326.3</ele>
      </trkpt>
      <trkpt lat="46.52361" lon="4.83253">
        <ele>327.9</ele>
      </trkpt>
      <trkpt lat="46.52321" lon="4.83219">
        <ele>332.5</ele>
      </trkpt>
      <trkpt lat="46.52277" lon="4.83188">
        <ele>336.5</ele>
      </trkpt>
      <trkpt lat="46.52245" lon="4.83164">
        <ele>340.6</ele>
      </trkpt>
      <trkpt lat="46.52221" lon="4.83142">
        <ele>343.9</ele>
      </trkpt>
      <trkpt lat="46.52189" lon="4.83109">
        <ele>349.5</ele>
      </trkpt>
      <trkpt lat="46.52175" lon="4.83097">
        <ele>351.3</ele>
      </trkpt>
      <trkpt lat="46.52146" lon="4.83075">
        <ele>355</ele>
      </trkpt>
      <trkpt lat="46.52116" lon="4.83054">
        <ele>358.7</ele>
      </trkpt>
      <trkpt lat="46.52069" lon="4.83017">
        <ele>363.9</ele>
      </trkpt>
      <trkpt lat="46.52043" lon="4.82989">
        <ele>367.5</ele>
      </trkpt>
      <trkpt lat="46.52022" lon="4.82967">
        <ele>370</ele>
      </trkpt>
      <trkpt lat="46.52001" lon="4.82953">
        <ele>372.6</ele>
      </trkpt>
      <trkpt lat="46.51979" lon="4.82942">
        <ele>374.6</ele>
      </trkpt>
      <trkpt lat="46.51962" lon="4.82938">
        <ele>376.3</ele>
      </trkpt>
      <trkpt lat="46.51945" lon="4.82929">
        <ele>378.1</ele>
      </trkpt>
      <trkpt lat="46.51932" lon="4.82918">
        <ele>379.8</ele>
      </trkpt>
      <trkpt lat="46.519" lon="4.82886">
        <ele>383.8</ele>
      </trkpt>
      <trkpt lat="46.51853" lon="4.82836">
        <ele>388.5</ele>
      </trkpt>
      <trkpt lat="46.51845" lon="4.82824">
        <ele>389.3</ele>
      </trkpt>
      <trkpt lat="46.51842" lon="4.82822">
        <ele>389.5</ele>
      </trkpt>
      <trkpt lat="46.51837" lon="4.82822">
        <ele>389.8</ele>
      </trkpt>
      <trkpt lat="46.51819" lon="4.82822">
        <ele>390.2</ele>
      </trkpt>
      <trkpt lat="46.51807" lon="4.82819">
        <ele>390.5</ele>
      </trkpt>
      <trkpt lat="46.51795" lon="4.82812">
        <ele>390.8</ele>
      </trkpt>
      <trkpt lat="46.51786" lon="4.828">
        <ele>391.2</ele>
      </trkpt>
      <trkpt lat="46.51782" lon="4.8279">
        <ele>391.6</ele>
      </trkpt>
      <trkpt lat="46.51776" lon="4.82761">
        <ele>392.6</ele>
      </trkpt>
      <trkpt lat="46.51769" lon="4.82733">
        <ele>393.6</ele>
      </trkpt>
      <trkpt lat="46.51763" lon="4.82706">
        <ele>394.9</ele>
      </trkpt>
      <trkpt lat="46.51757" lon="4.82696">
        <ele>395.2</ele>
      </trkpt>
      <trkpt lat="46.51741" lon="4.82687">
        <ele>394.8</ele>
      </trkpt>
      <trkpt lat="46.51693" lon="4.82665">
        <ele>393.9</ele>
      </trkpt>
      <trkpt lat="46.51652" lon="4.82651">
        <ele>392.5</ele>
      </trkpt>
      <trkpt lat="46.51632" lon="4.82647">
        <ele>392</ele>
      </trkpt>
      <trkpt lat="46.51605" lon="4.82645">
        <ele>391.9</ele>
      </trkpt>
      <trkpt lat="46.51605" lon="4.82639">
        <ele>392</ele>
      </trkpt>
      <trkpt lat="46.51605" lon="4.8263">
        <ele>391.7</ele>
      </trkpt>
      <trkpt lat="46.51598" lon="4.82579">
        <ele>390.5</ele>
      </trkpt>
      <trkpt lat="46.51592" lon="4.82539">
        <ele>390.3</ele>
      </trkpt>
      <trkpt lat="46.51589" lon="4.82487">
        <ele>389.4</ele>
      </trkpt>
      <trkpt lat="46.51588" lon="4.82414">
        <ele>389.8</ele>
      </trkpt>
      <trkpt lat="46.51589" lon="4.82363">
        <ele>394</ele>
      </trkpt>
      <trkpt lat="46.51588" lon="4.82309">
        <ele>395</ele>
      </trkpt>
      <trkpt lat="46.51588" lon="4.8228">
        <ele>393.9</ele>
      </trkpt>
      <trkpt lat="46.51586" lon="4.82264">
        <ele>392.5</ele>
      </trkpt>
      <trkpt lat="46.51581" lon="4.82253">
        <ele>391.6</ele>
      </trkpt>
      <trkpt lat="46.51575" lon="4.82245">
        <ele>390.9</ele>
      </trkpt>
      <trkpt lat="46.5156" lon="4.8223">
        <ele>389.9</ele>
      </trkpt>
      <trkpt lat="46.51532" lon="4.82203">
        <ele>388</ele>
      </trkpt>
      <trkpt lat="46.51522" lon="4.82192">
        <ele>387.2</ele>
      </trkpt>
      <trkpt lat="46.5152" lon="4.82186">
        <ele>386.1</ele>
      </trkpt>
      <trkpt lat="46.51521" lon="4.82182">
        <ele>385.2</ele>
      </trkpt>
      <trkpt lat="46.51524" lon="4.82179">
        <ele>384.2</ele>
      </trkpt>
      <trkpt lat="46.51528" lon="4.8218">
        <ele>383.7</ele>
      </trkpt>
      <trkpt lat="46.51535" lon="4.82183">
        <ele>383.5</ele>
      </trkpt>
      <trkpt lat="46.51541" lon="4.82185">
        <ele>383.2</ele>
      </trkpt>
      <trkpt lat="46.51548" lon="4.82186">
        <ele>382.5</ele>
      </trkpt>
      <trkpt lat="46.51587" lon="4.82177">
        <ele>378.3</ele>
      </trkpt>
      <trkpt lat="46.51592" lon="4.82173">
        <ele>377.6</ele>
      </trkpt>
      <trkpt lat="46.51593" lon="4.82166">
        <ele>376.6</ele>
      </trkpt>
      <trkpt lat="46.51598" lon="4.82123">
        <ele>371.5</ele>
      </trkpt>
      <trkpt lat="46.51598" lon="4.82108">
        <ele>369.5</ele>
      </trkpt>
      <trkpt lat="46.51597" lon="4.82101">
        <ele>368.7</ele>
      </trkpt>
      <trkpt lat="46.5159" lon="4.8208">
        <ele>366.4</ele>
      </trkpt>
      <trkpt lat="46.51565" lon="4.82024">
        <ele>361.9</ele>
      </trkpt>
      <trkpt lat="46.51541" lon="4.81969">
        <ele>357.7</ele>
      </trkpt>
      <trkpt lat="46.51531" lon="4.81947">
        <ele>356.9</ele>
      </trkpt>
      <trkpt lat="46.51546" lon="4.81953">
        <ele>356.4</ele>
      </trkpt>
      <trkpt lat="46.51576" lon="4.81959">
        <ele>355.8</ele>
      </trkpt>
      <trkpt lat="46.51588" lon="4.81961">
        <ele>355.6</ele>
      </trkpt>
      <trkpt lat="46.51596" lon="4.8196">
        <ele>355.2</ele>
      </trkpt>
      <trkpt lat="46.51602" lon="4.81957">
        <ele>354.7</ele>
      </trkpt>
      <trkpt lat="46.51607" lon="4.81952">
        <ele>354</ele>
      </trkpt>
      <trkpt lat="46.51616" lon="4.8194">
        <ele>352.6</ele>
      </trkpt>
      <trkpt lat="46.51623" lon="4.8192">
        <ele>350.8</ele>
      </trkpt>
      <trkpt lat="46.5163" lon="4.81897">
        <ele>349.7</ele>
      </trkpt>
      <trkpt lat="46.51637" lon="4.81842">
        <ele>347.4</ele>
      </trkpt>
      <trkpt lat="46.51646" lon="4.81758">
        <ele>344.6</ele>
      </trkpt>
      <trkpt lat="46.51656" lon="4.81662">
        <ele>342.2</ele>
      </trkpt>
      <trkpt lat="46.51662" lon="4.81603">
        <ele>342.7</ele>
      </trkpt>
      <trkpt lat="46.51667" lon="4.8156">
        <ele>342.2</ele>
      </trkpt>
      <trkpt lat="46.51667" lon="4.81538">
        <ele>342</ele>
      </trkpt>
      <trkpt lat="46.51668" lon="4.8152">
        <ele>341.7</ele>
      </trkpt>
      <trkpt lat="46.51664" lon="4.81509">
        <ele>341.3</ele>
      </trkpt>
      <trkpt lat="46.51657" lon="4.81473">
        <ele>338.8</ele>
      </trkpt>
      <trkpt lat="46.51647" lon="4.81403">
        <ele>338.9</ele>
      </trkpt>
      <trkpt lat="46.51646" lon="4.81395">
        <ele>339.3</ele>
      </trkpt>
      <trkpt lat="46.51643" lon="4.81361">
        <ele>340.6</ele>
      </trkpt>
      <trkpt lat="46.51638" lon="4.81306">
        <ele>342</ele>
      </trkpt>
      <trkpt lat="46.51636" lon="4.81289">
        <ele>342.6</ele>
      </trkpt>
      <trkpt lat="46.51629" lon="4.81263">
        <ele>344.2</ele>
      </trkpt>
      <trkpt lat="46.51619" lon="4.81233">
        <ele>345.6</ele>
      </trkpt>
      <trkpt lat="46.51616" lon="4.81222">
        <ele>346.2</ele>
      </trkpt>
      <trkpt lat="46.51614" lon="4.81201">
        <ele>346.1</ele>
      </trkpt>
      <trkpt lat="46.51612" lon="4.81186">
        <ele>346.3</ele>
      </trkpt>
      <trkpt lat="46.51609" lon="4.81171">
        <ele>346.6</ele>
      </trkpt>
      <trkpt lat="46.51596" lon="4.81122">
        <ele>346.5</ele>
      </trkpt>
      <trkpt lat="46.51581" lon="4.81065">
        <ele>348.4</ele>
      </trkpt>
      <trkpt lat="46.51568" lon="4.81026">
        <ele>348.5</ele>
      </trkpt>
      <trkpt lat="46.51567" lon="4.81024">
        <ele>348.5</ele>
      </trkpt>
      <trkpt lat="46.51566" lon="4.81021">
        <ele>348.6</ele>
      </trkpt>
      <trkpt lat="46.51564" lon="4.81018">
        <ele>348.6</ele>
      </trkpt>
      <trkpt lat="46.51562" lon="4.81014">
        <ele>348.7</ele>
      </trkpt>
      <trkpt lat="46.5156" lon="4.81011">
        <ele>348.7</ele>
      </trkpt>
      <trkpt lat="46.51558" lon="4.81007">
        <ele>348.8</ele>
      </trkpt>
      <trkpt lat="46.51548" lon="4.80989">
        <ele>349.2</ele>
      </trkpt>
      <trkpt lat="46.51543" lon="4.8098">
        <ele>349.2</ele>
      </trkpt>
      <trkpt lat="46.51537" lon="4.80967">
        <ele>349.4</ele>
      </trkpt>
      <trkpt lat="46.5153" lon="4.80947">
        <ele>350</ele>
      </trkpt>
      <trkpt lat="46.51521" lon="4.80916">
        <ele>351.5</ele>
      </trkpt>
      <trkpt lat="46.51513" lon="4.8089">
        <ele>352.4</ele>
      </trkpt>
      <trkpt lat="46.51507" lon="4.80874">
        <ele>353</ele>
      </trkpt>
      <trkpt lat="46.51504" lon="4.80866">
        <ele>353.1</ele>
      </trkpt>
      <trkpt lat="46.51499" lon="4.80856">
        <ele>353.1</ele>
      </trkpt>
      <trkpt lat="46.51493" lon="4.80847">
        <ele>353.1</ele>
      </trkpt>
      <trkpt lat="46.51487" lon="4.80841">
        <ele>353.1</ele>
      </trkpt>
      <trkpt lat="46.51476" lon="4.80833">
        <ele>353.2</ele>
      </trkpt>
      <trkpt lat="46.51467" lon="4.80828">
        <ele>353.2</ele>
      </trkpt>
      <trkpt lat="46.51454" lon="4.80824">
        <ele>353</ele>
      </trkpt>
      <trkpt lat="46.51427" lon="4.80814">
        <ele>353.2</ele>
      </trkpt>
      <trkpt lat="46.51419" lon="4.80811">
        <ele>353.4</ele>
      </trkpt>
      <trkpt lat="46.51411" lon="4.80806">
        <ele>353.5</ele>
      </trkpt>
      <trkpt lat="46.514" lon="4.80801">
        <ele>353.2</ele>
      </trkpt>
      <trkpt lat="46.51393" lon="4.80796">
        <ele>353.2</ele>
      </trkpt>
      <trkpt lat="46.51375" lon="4.80786">
        <ele>353.3</ele>
      </trkpt>
      <trkpt lat="46.51371" lon="4.80783">
        <ele>353.2</ele>
      </trkpt>
      <trkpt lat="46.51363" lon="4.8078">
        <ele>353</ele>
      </trkpt>
      <trkpt lat="46.51352" lon="4.80777">
        <ele>353.1</ele>
      </trkpt>
      <trkpt lat="46.51325" lon="4.80773">
        <ele>353.3</ele>
      </trkpt>
      <trkpt lat="46.51296" lon="4.80771">
        <ele>353.8</ele>
      </trkpt>
      <trkpt lat="46.51277" lon="4.8077">
        <ele>354.3</ele>
      </trkpt>
      <trkpt lat="46.5126" lon="4.80772">
        <ele>354.7</ele>
      </trkpt>
      <trkpt lat="46.51249" lon="4.80773">
        <ele>355</ele>
      </trkpt>
      <trkpt lat="46.51228" lon="4.8077">
        <ele>355</ele>
      </trkpt>
      <trkpt lat="46.51223" lon="4.80768">
        <ele>355</ele>
      </trkpt>
      <trkpt lat="46.51218" lon="4.80766">
        <ele>354.8</ele>
      </trkpt>
      <trkpt lat="46.5121" lon="4.80764">
        <ele>354.6</ele>
      </trkpt>
      <trkpt lat="46.51197" lon="4.80758">
        <ele>354.1</ele>
      </trkpt>
      <trkpt lat="46.51193" lon="4.80754">
        <ele>353.9</ele>
      </trkpt>
      <trkpt lat="46.51169" lon="4.80733">
        <ele>353.1</ele>
      </trkpt>
      <trkpt lat="46.51133" lon="4.80702">
        <ele>350.7</ele>
      </trkpt>
      <trkpt lat="46.51114" lon="4.80685">
        <ele>350.1</ele>
      </trkpt>
      <trkpt lat="46.51092" lon="4.80668">
        <ele>349.3</ele>
      </trkpt>
      <trkpt lat="46.51076" lon="4.80655">
        <ele>348.8</ele>
      </trkpt>
      <trkpt lat="46.51073" lon="4.80654">
        <ele>348.6</ele>
      </trkpt>
      <trkpt lat="46.51066" lon="4.8065">
        <ele>348.4</ele>
      </trkpt>
      <trkpt lat="46.51053" lon="4.80644">
        <ele>347.8</ele>
      </trkpt>
      <trkpt lat="46.5104" lon="4.80639">
        <ele>346.9</ele>
      </trkpt>
      <trkpt lat="46.5102" lon="4.80633">
        <ele>346.2</ele>
      </trkpt>
      <trkpt lat="46.51" lon="4.80629">
        <ele>346</ele>
      </trkpt>
      <trkpt lat="46.5098" lon="4.80623">
        <ele>345.3</ele>
      </trkpt>
      <trkpt lat="46.50953" lon="4.80612">
        <ele>345</ele>
      </trkpt>
      <trkpt lat="46.50935" lon="4.80602">
        <ele>344.9</ele>
      </trkpt>
      <trkpt lat="46.50919" lon="4.80592">
        <ele>344.4</ele>
      </trkpt>
      <trkpt lat="46.50908" lon="4.80585">
        <ele>344</ele>
      </trkpt>
      <trkpt lat="46.50894" lon="4.80571">
        <ele>343.6</ele>
      </trkpt>
      <trkpt lat="46.50885" lon="4.80562">
        <ele>343.2</ele>
      </trkpt>
      <trkpt lat="46.50879" lon="4.80557">
        <ele>343</ele>
      </trkpt>
      <trkpt lat="46.5087" lon="4.80553">
        <ele>342.9</ele>
      </trkpt>
      <trkpt lat="46.50846" lon="4.80541">
        <ele>341.9</ele>
      </trkpt>
      <trkpt lat="46.50828" lon="4.80533">
        <ele>341</ele>
      </trkpt>
      <trkpt lat="46.5082" lon="4.80527">
        <ele>340.5</ele>
      </trkpt>
      <trkpt lat="46.50816" lon="4.80521">
        <ele>340.3</ele>
      </trkpt>
      <trkpt lat="46.50816" lon="4.8053">
        <ele>340.4</ele>
      </trkpt>
      <trkpt lat="46.50816" lon="4.80521">
        <ele>340.3</ele>
      </trkpt>
      <trkpt lat="46.5081" lon="4.80514">
        <ele>340.1</ele>
      </trkpt>
      <trkpt lat="46.50804" lon="4.80503">
        <ele>339.9</ele>
      </trkpt>
      <trkpt lat="46.50799" lon="4.80491">
        <ele>339.5</ele>
      </trkpt>
      <trkpt lat="46.50794" lon="4.80479">
        <ele>339.1</ele>
      </trkpt>
      <trkpt lat="46.50789" lon="4.80464">
        <ele>338.8</ele>
      </trkpt>
      <trkpt lat="46.50782" lon="4.80446">
        <ele>338.2</ele>
      </trkpt>
      <trkpt lat="46.50774" lon="4.80428">
        <ele>338</ele>
      </trkpt>
      <trkpt lat="46.50764" lon="4.80412">
        <ele>337.9</ele>
      </trkpt>
      <trkpt lat="46.50755" lon="4.804">
        <ele>337.9</ele>
      </trkpt>
      <trkpt lat="46.50741" lon="4.80386">
        <ele>337.6</ele>
      </trkpt>
      <trkpt lat="46.5071" lon="4.80359">
        <ele>337.5</ele>
      </trkpt>
      <trkpt lat="46.50692" lon="4.80343">
        <ele>337.6</ele>
      </trkpt>
      <trkpt lat="46.5068" lon="4.8033">
        <ele>337.5</ele>
      </trkpt>
      <trkpt lat="46.5067" lon="4.80316">
        <ele>337.6</ele>
      </trkpt>
      <trkpt lat="46.50662" lon="4.80302">
        <ele>337.7</ele>
      </trkpt>
      <trkpt lat="46.50656" lon="4.80288">
        <ele>337.2</ele>
      </trkpt>
      <trkpt lat="46.50649" lon="4.80269">
        <ele>337.2</ele>
      </trkpt>
      <trkpt lat="46.50645" lon="4.8025">
        <ele>337.8</ele>
      </trkpt>
      <trkpt lat="46.50639" lon="4.80221">
        <ele>337</ele>
      </trkpt>
      <trkpt lat="46.50631" lon="4.80191">
        <ele>336.8</ele>
      </trkpt>
      <trkpt lat="46.50629" lon="4.80182">
        <ele>336.1</ele>
      </trkpt>
      <trkpt lat="46.50626" lon="4.80176">
        <ele>335.8</ele>
      </trkpt>
      <trkpt lat="46.50621" lon="4.80167">
        <ele>335.6</ele>
      </trkpt>
      <trkpt lat="46.50615" lon="4.80154">
        <ele>334.7</ele>
      </trkpt>
      <trkpt lat="46.50606" lon="4.80137">
        <ele>333.7</ele>
      </trkpt>
      <trkpt lat="46.50598" lon="4.8011">
        <ele>330.6</ele>
      </trkpt>
      <trkpt lat="46.50595" lon="4.80093">
        <ele>329.1</ele>
      </trkpt>
      <trkpt lat="46.50594" lon="4.80084">
        <ele>328</ele>
      </trkpt>
      <trkpt lat="46.50595" lon="4.80073">
        <ele>326.9</ele>
      </trkpt>
      <trkpt lat="46.50599" lon="4.80041">
        <ele>323.4</ele>
      </trkpt>
      <trkpt lat="46.50606" lon="4.79992">
        <ele>316.9</ele>
      </trkpt>
      <trkpt lat="46.50608" lon="4.79972">
        <ele>314.3</ele>
      </trkpt>
      <trkpt lat="46.50609" lon="4.79945">
        <ele>310.5</ele>
      </trkpt>
      <trkpt lat="46.50609" lon="4.79924">
        <ele>308.8</ele>
      </trkpt>
      <trkpt lat="46.50609" lon="4.79904">
        <ele>307.4</ele>
      </trkpt>
      <trkpt lat="46.50605" lon="4.79882">
        <ele>306</ele>
      </trkpt>
      <trkpt lat="46.50599" lon="4.7986">
        <ele>304.7</ele>
      </trkpt>
      <trkpt lat="46.50597" lon="4.79843">
        <ele>303.7</ele>
      </trkpt>
      <trkpt lat="46.50598" lon="4.79825">
        <ele>302.3</ele>
      </trkpt>
      <trkpt lat="46.506" lon="4.79814">
        <ele>301.3</ele>
      </trkpt>
      <trkpt lat="46.50606" lon="4.79793">
        <ele>299.9</ele>
      </trkpt>
      <trkpt lat="46.50614" lon="4.79774">
        <ele>298.8</ele>
      </trkpt>
      <trkpt lat="46.50619" lon="4.79756">
        <ele>298.1</ele>
      </trkpt>
      <trkpt lat="46.50615" lon="4.79757">
        <ele>298.2</ele>
      </trkpt>
      <trkpt lat="46.50611" lon="4.79756">
        <ele>298.2</ele>
      </trkpt>
      <trkpt lat="46.50592" lon="4.79748">
        <ele>298.8</ele>
      </trkpt>
      <trkpt lat="46.50574" lon="4.7974">
        <ele>300.9</ele>
      </trkpt>
      <trkpt lat="46.50555" lon="4.79732">
        <ele>303</ele>
      </trkpt>
      <trkpt lat="46.50542" lon="4.79728">
        <ele>304.5</ele>
      </trkpt>
      <trkpt lat="46.50546" lon="4.79692">
        <ele>304.6</ele>
      </trkpt>
      <trkpt lat="46.50546" lon="4.79673">
        <ele>303.9</ele>
      </trkpt>
      <trkpt lat="46.50545" lon="4.79654">
        <ele>304.2</ele>
      </trkpt>
      <trkpt lat="46.50531" lon="4.79643">
        <ele>304.2</ele>
      </trkpt>
      <trkpt lat="46.5053" lon="4.7961">
        <ele>305</ele>
      </trkpt>
      <trkpt lat="46.50529" lon="4.79599">
        <ele>305.4</ele>
      </trkpt>
      <trkpt lat="46.50525" lon="4.79574">
        <ele>305.9</ele>
      </trkpt>
      <trkpt lat="46.50523" lon="4.7955">
        <ele>306.1</ele>
      </trkpt>
      <trkpt lat="46.50523" lon="4.79542">
        <ele>305.9</ele>
      </trkpt>
      <trkpt lat="46.5052" lon="4.79534">
        <ele>305.8</ele>
      </trkpt>
      <trkpt lat="46.50519" lon="4.79529">
        <ele>305.7</ele>
      </trkpt>
      <trkpt lat="46.50514" lon="4.79504">
        <ele>303.8</ele>
      </trkpt>
      <trkpt lat="46.50513" lon="4.79487">
        <ele>303.4</ele>
      </trkpt>
      <trkpt lat="46.50509" lon="4.79461">
        <ele>303.3</ele>
      </trkpt>
      <trkpt lat="46.50506" lon="4.7942">
        <ele>301.3</ele>
      </trkpt>
      <trkpt lat="46.50503" lon="4.79386">
        <ele>302.1</ele>
      </trkpt>
      <trkpt lat="46.50504" lon="4.79383">
        <ele>302.1</ele>
      </trkpt>
      <trkpt lat="46.50507" lon="4.7938">
        <ele>302.2</ele>
      </trkpt>
      <trkpt lat="46.50517" lon="4.7938">
        <ele>301.6</ele>
      </trkpt>
      <trkpt lat="46.50515" lon="4.79386">
        <ele>301.2</ele>
      </trkpt>
      <trkpt lat="46.50515" lon="4.79394">
        <ele>300.7</ele>
      </trkpt>
      <trkpt lat="46.50516" lon="4.79408">
        <ele>300</ele>
      </trkpt>
      <trkpt lat="46.50518" lon="4.79417">
        <ele>299.4</ele>
      </trkpt>
      <trkpt lat="46.50523" lon="4.79426">
        <ele>299.1</ele>
      </trkpt>
      <trkpt lat="46.50532" lon="4.79437">
        <ele>298.1</ele>
      </trkpt>
      <trkpt lat="46.50549" lon="4.7945">
        <ele>296</ele>
      </trkpt>
      <trkpt lat="46.50563" lon="4.79457">
        <ele>294.6</ele>
      </trkpt>
      <trkpt lat="46.50571" lon="4.79459">
        <ele>294.2</ele>
      </trkpt>
      <trkpt lat="46.50585" lon="4.79458">
        <ele>293.5</ele>
      </trkpt>
      <trkpt lat="46.50602" lon="4.79454">
        <ele>293.9</ele>
      </trkpt>
      <trkpt lat="46.50613" lon="4.79452">
        <ele>294.2</ele>
      </trkpt>
      <trkpt lat="46.50612" lon="4.79436">
        <ele>294.2</ele>
      </trkpt>
      <trkpt lat="46.50611" lon="4.79425">
        <ele>294</ele>
      </trkpt>
      <trkpt lat="46.5061" lon="4.79405">
        <ele>293.5</ele>
      </trkpt>
      <trkpt lat="46.50608" lon="4.79382">
        <ele>293.1</ele>
      </trkpt>
      <trkpt lat="46.50606" lon="4.79368">
        <ele>293.5</ele>
      </trkpt>
      <trkpt lat="46.50603" lon="4.79351">
        <ele>293.8</ele>
      </trkpt>
      <trkpt lat="46.50599" lon="4.79329">
        <ele>294</ele>
      </trkpt>
      <trkpt lat="46.50597" lon="4.79317">
        <ele>293.9</ele>
      </trkpt>
      <trkpt lat="46.50595" lon="4.79303">
        <ele>293.9</ele>
      </trkpt>
      <trkpt lat="46.5059" lon="4.79286">
        <ele>293.6</ele>
      </trkpt>
      <trkpt lat="46.50585" lon="4.7926">
        <ele>292.2</ele>
      </trkpt>
      <trkpt lat="46.50577" lon="4.79223">
        <ele>291.1</ele>
      </trkpt>
      <trkpt lat="46.50573" lon="4.79195">
        <ele>290.1</ele>
      </trkpt>
      <trkpt lat="46.50568" lon="4.79164">
        <ele>291.6</ele>
      </trkpt>
      <trkpt lat="46.50566" lon="4.79145">
        <ele>289.4</ele>
      </trkpt>
      <trkpt lat="46.50565" lon="4.79126">
        <ele>289.8</ele>
      </trkpt>
      <trkpt lat="46.50562" lon="4.79115">
        <ele>290.2</ele>
      </trkpt>
      <trkpt lat="46.50555" lon="4.79102">
        <ele>288.6</ele>
      </trkpt>
      <trkpt lat="46.50548" lon="4.7909">
        <ele>287.7</ele>
      </trkpt>
      <trkpt lat="46.50545" lon="4.79082">
        <ele>287.3</ele>
      </trkpt>
      <trkpt lat="46.50538" lon="4.79063">
        <ele>287.7</ele>
      </trkpt>
      <trkpt lat="46.50536" lon="4.79056">
        <ele>288</ele>
      </trkpt>
      <trkpt lat="46.50534" lon="4.79046">
        <ele>288.4</ele>
      </trkpt>
      <trkpt lat="46.50534" lon="4.79034">
        <ele>288.8</ele>
      </trkpt>
      <trkpt lat="46.50535" lon="4.79019">
        <ele>290.5</ele>
      </trkpt>
      <trkpt lat="46.50536" lon="4.79013">
        <ele>291.5</ele>
      </trkpt>
      <trkpt lat="46.50504" lon="4.79037">
        <ele>288.1</ele>
      </trkpt>
      <trkpt lat="46.50492" lon="4.79046">
        <ele>287.2</ele>
      </trkpt>
      <trkpt lat="46.50488" lon="4.79049">
        <ele>286.9</ele>
      </trkpt>
      <trkpt lat="46.50413" lon="4.79077">
        <ele>285</ele>
      </trkpt>
      <trkpt lat="46.50325" lon="4.79174">
        <ele>282.3</ele>
      </trkpt>
      <trkpt lat="46.5029" lon="4.79213">
        <ele>283.2</ele>
      </trkpt>
      <trkpt lat="46.50249" lon="4.79225">
        <ele>285.4</ele>
      </trkpt>
      <trkpt lat="46.50214" lon="4.79187">
        <ele>290.1</ele>
      </trkpt>
      <trkpt lat="46.50195" lon="4.79206">
        <ele>288.7</ele>
      </trkpt>
      <trkpt lat="46.50181" lon="4.79223">
        <ele>287.9</ele>
      </trkpt>
      <trkpt lat="46.50173" lon="4.79231">
        <ele>286.9</ele>
      </trkpt>
      <trkpt lat="46.50164" lon="4.79236">
        <ele>286</ele>
      </trkpt>
      <trkpt lat="46.50156" lon="4.79236">
        <ele>285.3</ele>
      </trkpt>
      <trkpt lat="46.50144" lon="4.79234">
        <ele>284.7</ele>
      </trkpt>
      <trkpt lat="46.50133" lon="4.79231">
        <ele>284.1</ele>
      </trkpt>
      <trkpt lat="46.50123" lon="4.79228">
        <ele>283.5</ele>
      </trkpt>
      <trkpt lat="46.50109" lon="4.79226">
        <ele>282.1</ele>
      </trkpt>
      <trkpt lat="46.50092" lon="4.79224">
        <ele>280</ele>
      </trkpt>
      <trkpt lat="46.50073" lon="4.79219">
        <ele>278.4</ele>
      </trkpt>
      <trkpt lat="46.50049" lon="4.79215">
        <ele>276.6</ele>
      </trkpt>
      <trkpt lat="46.50042" lon="4.79215">
        <ele>276</ele>
      </trkpt>
      <trkpt lat="46.50033" lon="4.79207">
        <ele>276.6</ele>
      </trkpt>
      <trkpt lat="46.50019" lon="4.79192">
        <ele>277.2</ele>
      </trkpt>
      <trkpt lat="46.50014" lon="4.79185">
        <ele>277.2</ele>
      </trkpt>
      <trkpt lat="46.50009" lon="4.79177">
        <ele>277.3</ele>
      </trkpt>
      <trkpt lat="46.50006" lon="4.79173">
        <ele>277.2</ele>
      </trkpt>
      <trkpt lat="46.49994" lon="4.79168">
        <ele>276.1</ele>
      </trkpt>
      <trkpt lat="46.49991" lon="4.79165">
        <ele>275.8</ele>
      </trkpt>
      <trkpt lat="46.49985" lon="4.79161">
        <ele>275.5</ele>
      </trkpt>
      <trkpt lat="46.49978" lon="4.79155">
        <ele>275.4</ele>
      </trkpt>
      <trkpt lat="46.49971" lon="4.79149">
        <ele>275.5</ele>
      </trkpt>
      <trkpt lat="46.49962" lon="4.79139">
        <ele>277</ele>
      </trkpt>
      <trkpt lat="46.49954" lon="4.7913">
        <ele>277.6</ele>
      </trkpt>
      <trkpt lat="46.49945" lon="4.79122">
        <ele>277.6</ele>
      </trkpt>
      <trkpt lat="46.49939" lon="4.79118">
        <ele>277.4</ele>
      </trkpt>
      <trkpt lat="46.49939" lon="4.79105">
        <ele>279.6</ele>
      </trkpt>
      <trkpt lat="46.49938" lon="4.79099">
        <ele>281.2</ele>
      </trkpt>
      <trkpt lat="46.49921" lon="4.79083">
        <ele>284.3</ele>
      </trkpt>
      <trkpt lat="46.49907" lon="4.79073">
        <ele>285.5</ele>
      </trkpt>
      <trkpt lat="46.49895" lon="4.79061">
        <ele>287.4</ele>
      </trkpt>
      <trkpt lat="46.49867" lon="4.79031">
        <ele>291.9</ele>
      </trkpt>
      <trkpt lat="46.49849" lon="4.79011">
        <ele>295.1</ele>
      </trkpt>
      <trkpt lat="46.49836" lon="4.78993">
        <ele>297.6</ele>
      </trkpt>
      <trkpt lat="46.49826" lon="4.78979">
        <ele>300.3</ele>
      </trkpt>
      <trkpt lat="46.49818" lon="4.78963">
        <ele>302.9</ele>
      </trkpt>
      <trkpt lat="46.49813" lon="4.78956">
        <ele>303.8</ele>
      </trkpt>
      <trkpt lat="46.49807" lon="4.78951">
        <ele>304.1</ele>
      </trkpt>
      <trkpt lat="46.49782" lon="4.78931">
        <ele>307</ele>
      </trkpt>
      <trkpt lat="46.49747" lon="4.78904">
        <ele>310.2</ele>
      </trkpt>
      <trkpt lat="46.49729" lon="4.78892">
        <ele>311.1</ele>
      </trkpt>
      <trkpt lat="46.49715" lon="4.78881">
        <ele>311.6</ele>
      </trkpt>
      <trkpt lat="46.49695" lon="4.78863">
        <ele>312.8</ele>
      </trkpt>
      <trkpt lat="46.49677" lon="4.78848">
        <ele>313.5</ele>
      </trkpt>
      <trkpt lat="46.49668" lon="4.7884">
        <ele>314.2</ele>
      </trkpt>
      <trkpt lat="46.4965" lon="4.78829">
        <ele>315.1</ele>
      </trkpt>
      <trkpt lat="46.4964" lon="4.78825">
        <ele>315.6</ele>
      </trkpt>
      <trkpt lat="46.49636" lon="4.78822">
        <ele>315.9</ele>
      </trkpt>
      <trkpt lat="46.49632" lon="4.78818">
        <ele>316.5</ele>
      </trkpt>
      <trkpt lat="46.49631" lon="4.78814">
        <ele>317</ele>
      </trkpt>
      <trkpt lat="46.49628" lon="4.7881">
        <ele>317.4</ele>
      </trkpt>
      <trkpt lat="46.49623" lon="4.78807">
        <ele>317.7</ele>
      </trkpt>
      <trkpt lat="46.49603" lon="4.78796">
        <ele>318.5</ele>
      </trkpt>
      <trkpt lat="46.49581" lon="4.78783">
        <ele>319.9</ele>
      </trkpt>
      <trkpt lat="46.49561" lon="4.7877">
        <ele>320.8</ele>
      </trkpt>
      <trkpt lat="46.49556" lon="4.78766">
        <ele>321.2</ele>
      </trkpt>
      <trkpt lat="46.4954" lon="4.78754">
        <ele>322.2</ele>
      </trkpt>
      <trkpt lat="46.49519" lon="4.78738">
        <ele>324.1</ele>
      </trkpt>
      <trkpt lat="46.49503" lon="4.7872">
        <ele>326.7</ele>
      </trkpt>
      <trkpt lat="46.49493" lon="4.78709">
        <ele>327.9</ele>
      </trkpt>
      <trkpt lat="46.49476" lon="4.78692">
        <ele>329.8</ele>
      </trkpt>
      <trkpt lat="46.49469" lon="4.78689">
        <ele>329.8</ele>
      </trkpt>
      <trkpt lat="46.49462" lon="4.78684">
        <ele>330.6</ele>
      </trkpt>
      <trkpt lat="46.49436" lon="4.78664">
        <ele>332.5</ele>
      </trkpt>
      <trkpt lat="46.4943" lon="4.78662">
        <ele>332.3</ele>
      </trkpt>
      <trkpt lat="46.49421" lon="4.78662">
        <ele>331.3</ele>
      </trkpt>
      <trkpt lat="46.49408" lon="4.78666">
        <ele>329.7</ele>
      </trkpt>
      <trkpt lat="46.49398" lon="4.78665">
        <ele>329.6</ele>
      </trkpt>
      <trkpt lat="46.49379" lon="4.78659">
        <ele>329.9</ele>
      </trkpt>
      <trkpt lat="46.49358" lon="4.78648">
        <ele>330.5</ele>
      </trkpt>
      <trkpt lat="46.49339" lon="4.78639">
        <ele>330.4</ele>
      </trkpt>
      <trkpt lat="46.49328" lon="4.78636">
        <ele>330.4</ele>
      </trkpt>
      <trkpt lat="46.49307" lon="4.78626">
        <ele>331.4</ele>
      </trkpt>
      <trkpt lat="46.49299" lon="4.78626">
        <ele>331.1</ele>
      </trkpt>
      <trkpt lat="46.49292" lon="4.78624">
        <ele>330.9</ele>
      </trkpt>
      <trkpt lat="46.49272" lon="4.78613">
        <ele>330.6</ele>
      </trkpt>
      <trkpt lat="46.49247" lon="4.78599">
        <ele>331.6</ele>
      </trkpt>
      <trkpt lat="46.49237" lon="4.78591">
        <ele>332.2</ele>
      </trkpt>
      <trkpt lat="46.49233" lon="4.78584">
        <ele>332.7</ele>
      </trkpt>
      <trkpt lat="46.49225" lon="4.78578">
        <ele>332.9</ele>
      </trkpt>
      <trkpt lat="46.49205" lon="4.78567">
        <ele>332.7</ele>
      </trkpt>
      <trkpt lat="46.49178" lon="4.78548">
        <ele>333.1</ele>
      </trkpt>
      <trkpt lat="46.4915" lon="4.78532">
        <ele>332.6</ele>
      </trkpt>
      <trkpt lat="46.49125" lon="4.78518">
        <ele>332</ele>
      </trkpt>
      <trkpt lat="46.49112" lon="4.7851">
        <ele>332.3</ele>
      </trkpt>
      <trkpt lat="46.49101" lon="4.785">
        <ele>332.6</ele>
      </trkpt>
      <trkpt lat="46.49088" lon="4.78482">
        <ele>332.6</ele>
      </trkpt>
      <trkpt lat="46.49078" lon="4.78472">
        <ele>332.6</ele>
      </trkpt>
      <trkpt lat="46.49069" lon="4.78467">
        <ele>332.8</ele>
      </trkpt>
      <trkpt lat="46.49053" lon="4.78455">
        <ele>333.2</ele>
      </trkpt>
      <trkpt lat="46.4903" lon="4.78435">
        <ele>332.6</ele>
      </trkpt>
      <trkpt lat="46.49008" lon="4.78418">
        <ele>332.7</ele>
      </trkpt>
      <trkpt lat="46.48995" lon="4.7841">
        <ele>332.2</ele>
      </trkpt>
      <trkpt lat="46.48983" lon="4.78406">
        <ele>331.3</ele>
      </trkpt>
      <trkpt lat="46.48964" lon="4.78404">
        <ele>329.5</ele>
      </trkpt>
      <trkpt lat="46.48939" lon="4.78394">
        <ele>328.1</ele>
      </trkpt>
      <trkpt lat="46.48921" lon="4.78384">
        <ele>327.8</ele>
      </trkpt>
      <trkpt lat="46.48913" lon="4.7838">
        <ele>327.8</ele>
      </trkpt>
      <trkpt lat="46.489" lon="4.78374">
        <ele>328</ele>
      </trkpt>
      <trkpt lat="46.48886" lon="4.7837">
        <ele>328</ele>
      </trkpt>
      <trkpt lat="46.48863" lon="4.78368">
        <ele>328</ele>
      </trkpt>
      <trkpt lat="46.48856" lon="4.78369">
        <ele>327.7</ele>
      </trkpt>
      <trkpt lat="46.48846" lon="4.78371">
        <ele>327.2</ele>
      </trkpt>
      <trkpt lat="46.48839" lon="4.78374">
        <ele>326.7</ele>
      </trkpt>
      <trkpt lat="46.48823" lon="4.78396">
        <ele>324.3</ele>
      </trkpt>
      <trkpt lat="46.48804" lon="4.78419">
        <ele>321.6</ele>
      </trkpt>
      <trkpt lat="46.48796" lon="4.78429">
        <ele>319.9</ele>
      </trkpt>
      <trkpt lat="46.48777" lon="4.78446">
        <ele>316.8</ele>
      </trkpt>
      <trkpt lat="46.48769" lon="4.78449">
        <ele>315.7</ele>
      </trkpt>
      <trkpt lat="46.48758" lon="4.78457">
        <ele>314.1</ele>
      </trkpt>
      <trkpt lat="46.4874" lon="4.78474">
        <ele>313.2</ele>
      </trkpt>
      <trkpt lat="46.48711" lon="4.78507">
        <ele>311.3</ele>
      </trkpt>
      <trkpt lat="46.48687" lon="4.78527">
        <ele>310.7</ele>
      </trkpt>
      <trkpt lat="46.48664" lon="4.78545">
        <ele>309.8</ele>
      </trkpt>
      <trkpt lat="46.48648" lon="4.78554">
        <ele>310.1</ele>
      </trkpt>
      <trkpt lat="46.48622" lon="4.78572">
        <ele>309.6</ele>
      </trkpt>
      <trkpt lat="46.48608" lon="4.78581">
        <ele>309.3</ele>
      </trkpt>
      <trkpt lat="46.48599" lon="4.78589">
        <ele>309.2</ele>
      </trkpt>
      <trkpt lat="46.48591" lon="4.786">
        <ele>309.1</ele>
      </trkpt>
      <trkpt lat="46.48584" lon="4.78608">
        <ele>309.1</ele>
      </trkpt>
      <trkpt lat="46.48578" lon="4.78609">
        <ele>308.9</ele>
      </trkpt>
      <trkpt lat="46.48569" lon="4.78612">
        <ele>308.5</ele>
      </trkpt>
      <trkpt lat="46.48558" lon="4.78606">
        <ele>308.4</ele>
      </trkpt>
      <trkpt lat="46.48539" lon="4.78595">
        <ele>307.6</ele>
      </trkpt>
      <trkpt lat="46.48524" lon="4.78586">
        <ele>306.3</ele>
      </trkpt>
      <trkpt lat="46.48506" lon="4.78576">
        <ele>304.6</ele>
      </trkpt>
      <trkpt lat="46.48489" lon="4.78564">
        <ele>303.5</ele>
      </trkpt>
      <trkpt lat="46.48466" lon="4.78547">
        <ele>301.7</ele>
      </trkpt>
      <trkpt lat="46.48445" lon="4.78531">
        <ele>299.8</ele>
      </trkpt>
      <trkpt lat="46.48432" lon="4.78526">
        <ele>297.8</ele>
      </trkpt>
      <trkpt lat="46.4842" lon="4.78519">
        <ele>296.8</ele>
      </trkpt>
      <trkpt lat="46.48391" lon="4.785">
        <ele>293.5</ele>
      </trkpt>
      <trkpt lat="46.48376" lon="4.7849">
        <ele>291.9</ele>
      </trkpt>
      <trkpt lat="46.4836" lon="4.78482">
        <ele>290.8</ele>
      </trkpt>
      <trkpt lat="46.48344" lon="4.78475">
        <ele>290</ele>
      </trkpt>
      <trkpt lat="46.48328" lon="4.78468">
        <ele>288.5</ele>
      </trkpt>
      <trkpt lat="46.48321" lon="4.78463">
        <ele>287.9</ele>
      </trkpt>
      <trkpt lat="46.48315" lon="4.7846">
        <ele>287.3</ele>
      </trkpt>
      <trkpt lat="46.48311" lon="4.78459">
        <ele>286.7</ele>
      </trkpt>
      <trkpt lat="46.48305" lon="4.78459">
        <ele>286</ele>
      </trkpt>
      <trkpt lat="46.483" lon="4.7846">
        <ele>286.2</ele>
      </trkpt>
      <trkpt lat="46.48292" lon="4.78463">
        <ele>286.5</ele>
      </trkpt>
      <trkpt lat="46.48286" lon="4.78468">
        <ele>286.5</ele>
      </trkpt>
      <trkpt lat="46.48279" lon="4.78478">
        <ele>286</ele>
      </trkpt>
      <trkpt lat="46.48272" lon="4.78492">
        <ele>284.4</ele>
      </trkpt>
      <trkpt lat="46.48263" lon="4.78508">
        <ele>283.2</ele>
      </trkpt>
      <trkpt lat="46.48259" lon="4.78517">
        <ele>282.6</ele>
      </trkpt>
      <trkpt lat="46.48256" lon="4.78521">
        <ele>282.4</ele>
      </trkpt>
      <trkpt lat="46.48252" lon="4.78522">
        <ele>282.5</ele>
      </trkpt>
      <trkpt lat="46.48248" lon="4.78522">
        <ele>282.3</ele>
      </trkpt>
      <trkpt lat="46.48226" lon="4.78519">
        <ele>279.7</ele>
      </trkpt>
      <trkpt lat="46.48208" lon="4.78517">
        <ele>276.9</ele>
      </trkpt>
      <trkpt lat="46.482" lon="4.78514">
        <ele>275.9</ele>
      </trkpt>
      <trkpt lat="46.48186" lon="4.78507">
        <ele>274.5</ele>
      </trkpt>
      <trkpt lat="46.48174" lon="4.78499">
        <ele>273.5</ele>
      </trkpt>
      <trkpt lat="46.48164" lon="4.78494">
        <ele>272.7</ele>
      </trkpt>
      <trkpt lat="46.48156" lon="4.78491">
        <ele>272.1</ele>
      </trkpt>
      <trkpt lat="46.48148" lon="4.7849">
        <ele>271.3</ele>
      </trkpt>
      <trkpt lat="46.48138" lon="4.7849">
        <ele>270</ele>
      </trkpt>
      <trkpt lat="46.48133" lon="4.78491">
        <ele>269.5</ele>
      </trkpt>
      <trkpt lat="46.48125" lon="4.78495">
        <ele>268.5</ele>
      </trkpt>
      <trkpt lat="46.48122" lon="4.78498">
        <ele>268</ele>
      </trkpt>
      <trkpt lat="46.48121" lon="4.78487">
        <ele>268.9</ele>
      </trkpt>
      <trkpt lat="46.48121" lon="4.78475">
        <ele>269.9</ele>
      </trkpt>
      <trkpt lat="46.48121" lon="4.78467">
        <ele>270.9</ele>
      </trkpt>
      <trkpt lat="46.4812" lon="4.78454">
        <ele>272.4</ele>
      </trkpt>
      <trkpt lat="46.48118" lon="4.7844">
        <ele>273.7</ele>
      </trkpt>
      <trkpt lat="46.48112" lon="4.78423">
        <ele>274.6</ele>
      </trkpt>
      <trkpt lat="46.48109" lon="4.78406">
        <ele>275.9</ele>
      </trkpt>
      <trkpt lat="46.48107" lon="4.78393">
        <ele>277.1</ele>
      </trkpt>
      <trkpt lat="46.48104" lon="4.78371">
        <ele>279.2</ele>
      </trkpt>
      <trkpt lat="46.48102" lon="4.78353">
        <ele>281.1</ele>
      </trkpt>
      <trkpt lat="46.48101" lon="4.78339">
        <ele>282.4</ele>
      </trkpt>
      <trkpt lat="46.48101" lon="4.78332">
        <ele>283.3</ele>
      </trkpt>
      <trkpt lat="46.48103" lon="4.78326">
        <ele>284.1</ele>
      </trkpt>
      <trkpt lat="46.48105" lon="4.7832">
        <ele>285.1</ele>
      </trkpt>
      <trkpt lat="46.48107" lon="4.78311">
        <ele>286.1</ele>
      </trkpt>
      <trkpt lat="46.48107" lon="4.78302">
        <ele>286.9</ele>
      </trkpt>
      <trkpt lat="46.48107" lon="4.78292">
        <ele>288</ele>
      </trkpt>
      <trkpt lat="46.48105" lon="4.78276">
        <ele>289.3</ele>
      </trkpt>
      <trkpt lat="46.48099" lon="4.7825">
        <ele>291.7</ele>
      </trkpt>
      <trkpt lat="46.48092" lon="4.78223">
        <ele>293.2</ele>
      </trkpt>
      <trkpt lat="46.48088" lon="4.7821">
        <ele>294</ele>
      </trkpt>
      <trkpt lat="46.48084" lon="4.78192">
        <ele>295.3</ele>
      </trkpt>
      <trkpt lat="46.4808" lon="4.78177">
        <ele>296.4</ele>
      </trkpt>
      <trkpt lat="46.48074" lon="4.78159">
        <ele>297.7</ele>
      </trkpt>
      <trkpt lat="46.48069" lon="4.78142">
        <ele>299</ele>
      </trkpt>
      <trkpt lat="46.48065" lon="4.78132">
        <ele>299.6</ele>
      </trkpt>
      <trkpt lat="46.48061" lon="4.78126">
        <ele>299.8</ele>
      </trkpt>
      <trkpt lat="46.4805" lon="4.78111">
        <ele>300.2</ele>
      </trkpt>
      <trkpt lat="46.48038" lon="4.7809">
        <ele>300.7</ele>
      </trkpt>
      <trkpt lat="46.48029" lon="4.78076">
        <ele>301</ele>
      </trkpt>
      <trkpt lat="46.48022" lon="4.78063">
        <ele>301.6</ele>
      </trkpt>
      <trkpt lat="46.48017" lon="4.78053">
        <ele>302.2</ele>
      </trkpt>
      <trkpt lat="46.48011" lon="4.7804">
        <ele>303.1</ele>
      </trkpt>
      <trkpt lat="46.48005" lon="4.78029">
        <ele>303.5</ele>
      </trkpt>
      <trkpt lat="46.47992" lon="4.78013">
        <ele>303.8</ele>
      </trkpt>
      <trkpt lat="46.47981" lon="4.77998">
        <ele>304.1</ele>
      </trkpt>
      <trkpt lat="46.47973" lon="4.77988">
        <ele>304.4</ele>
      </trkpt>
      <trkpt lat="46.47971" lon="4.77985">
        <ele>304.4</ele>
      </trkpt>
      <trkpt lat="46.47967" lon="4.77982">
        <ele>304.3</ele>
      </trkpt>
      <trkpt lat="46.47962" lon="4.77979">
        <ele>304</ele>
      </trkpt>
      <trkpt lat="46.47957" lon="4.77978">
        <ele>303.6</ele>
      </trkpt>
      <trkpt lat="46.47951" lon="4.77977">
        <ele>303</ele>
      </trkpt>
      <trkpt lat="46.47936" lon="4.77978">
        <ele>301.2</ele>
      </trkpt>
      <trkpt lat="46.47928" lon="4.77979">
        <ele>300.2</ele>
      </trkpt>
      <trkpt lat="46.47923" lon="4.77979">
        <ele>299.7</ele>
      </trkpt>
      <trkpt lat="46.47919" lon="4.77979">
        <ele>299.3</ele>
      </trkpt>
      <trkpt lat="46.47912" lon="4.77976">
        <ele>298.9</ele>
      </trkpt>
      <trkpt lat="46.47899" lon="4.77971">
        <ele>298.2</ele>
      </trkpt>
      <trkpt lat="46.47878" lon="4.7796">
        <ele>297.4</ele>
      </trkpt>
      <trkpt lat="46.4784" lon="4.77934">
        <ele>296.8</ele>
      </trkpt>
      <trkpt lat="46.47827" lon="4.77925">
        <ele>296.8</ele>
      </trkpt>
      <trkpt lat="46.47814" lon="4.77918">
        <ele>297.2</ele>
      </trkpt>
      <trkpt lat="46.47793" lon="4.77907">
        <ele>297.1</ele>
      </trkpt>
      <trkpt lat="46.47771" lon="4.77894">
        <ele>297.4</ele>
      </trkpt>
      <trkpt lat="46.47758" lon="4.77884">
        <ele>297.6</ele>
      </trkpt>
      <trkpt lat="46.4771" lon="4.77851">
        <ele>298</ele>
      </trkpt>
      <trkpt lat="46.47677" lon="4.77824">
        <ele>298.4</ele>
      </trkpt>
      <trkpt lat="46.4766" lon="4.77812">
        <ele>298.3</ele>
      </trkpt>
      <trkpt lat="46.47645" lon="4.77803">
        <ele>298.5</ele>
      </trkpt>
      <trkpt lat="46.47629" lon="4.77793">
        <ele>298.2</ele>
      </trkpt>
      <trkpt lat="46.47621" lon="4.77787">
        <ele>298</ele>
      </trkpt>
      <trkpt lat="46.47617" lon="4.77786">
        <ele>297.8</ele>
      </trkpt>
      <trkpt lat="46.47615" lon="4.77786">
        <ele>297.7</ele>
      </trkpt>
      <trkpt lat="46.47611" lon="4.77786">
        <ele>297.4</ele>
      </trkpt>
      <trkpt lat="46.47608" lon="4.77791">
        <ele>296.8</ele>
      </trkpt>
      <trkpt lat="46.47596" lon="4.77818">
        <ele>294.3</ele>
      </trkpt>
      <trkpt lat="46.4758" lon="4.77855">
        <ele>291.3</ele>
      </trkpt>
      <trkpt lat="46.4757" lon="4.77882">
        <ele>289.8</ele>
      </trkpt>
      <trkpt lat="46.47557" lon="4.77925">
        <ele>287.5</ele>
      </trkpt>
      <trkpt lat="46.47546" lon="4.7796">
        <ele>285.1</ele>
      </trkpt>
      <trkpt lat="46.47534" lon="4.77999">
        <ele>284</ele>
      </trkpt>
      <trkpt lat="46.47524" lon="4.7803">
        <ele>282.5</ele>
      </trkpt>
      <trkpt lat="46.47501" lon="4.78025">
        <ele>281.4</ele>
      </trkpt>
      <trkpt lat="46.47492" lon="4.78024">
        <ele>280.7</ele>
      </trkpt>
      <trkpt lat="46.47482" lon="4.7802">
        <ele>280.2</ele>
      </trkpt>
      <trkpt lat="46.47474" lon="4.78017">
        <ele>280</ele>
      </trkpt>
      <trkpt lat="46.47466" lon="4.78017">
        <ele>279.3</ele>
      </trkpt>
      <trkpt lat="46.47477" lon="4.78036">
        <ele>277.6</ele>
      </trkpt>
      <trkpt lat="46.47479" lon="4.78045">
        <ele>276.9</ele>
      </trkpt>
      <trkpt lat="46.4748" lon="4.78052">
        <ele>276.3</ele>
      </trkpt>
      <trkpt lat="46.4748" lon="4.78058">
        <ele>275.8</ele>
      </trkpt>
      <trkpt lat="46.4748" lon="4.78062">
        <ele>275.5</ele>
      </trkpt>
      <trkpt lat="46.47479" lon="4.78071">
        <ele>275</ele>
      </trkpt>
      <trkpt lat="46.47476" lon="4.78084">
        <ele>274.2</ele>
      </trkpt>
      <trkpt lat="46.47472" lon="4.78101">
        <ele>273.3</ele>
      </trkpt>
      <trkpt lat="46.4746" lon="4.78141">
        <ele>271.1</ele>
      </trkpt>
      <trkpt lat="46.47456" lon="4.78157">
        <ele>270.6</ele>
      </trkpt>
      <trkpt lat="46.47451" lon="4.78174">
        <ele>269.9</ele>
      </trkpt>
      <trkpt lat="46.47446" lon="4.78188">
        <ele>269.2</ele>
      </trkpt>
      <trkpt lat="46.47441" lon="4.78201">
        <ele>268.2</ele>
      </trkpt>
      <trkpt lat="46.47436" lon="4.78212">
        <ele>267.2</ele>
      </trkpt>
      <trkpt lat="46.47432" lon="4.78219">
        <ele>266.7</ele>
      </trkpt>
      <trkpt lat="46.47429" lon="4.78225">
        <ele>266.4</ele>
      </trkpt>
      <trkpt lat="46.47428" lon="4.7823">
        <ele>266.1</ele>
      </trkpt>
      <trkpt lat="46.47428" lon="4.78237">
        <ele>265.9</ele>
      </trkpt>
      <trkpt lat="46.4743" lon="4.78244">
        <ele>265.7</ele>
      </trkpt>
      <trkpt lat="46.47433" lon="4.78253">
        <ele>265.6</ele>
      </trkpt>
      <trkpt lat="46.47437" lon="4.78262">
        <ele>265.7</ele>
      </trkpt>
      <trkpt lat="46.4744" lon="4.78269">
        <ele>265.8</ele>
      </trkpt>
      <trkpt lat="46.47442" lon="4.78276">
        <ele>265.9</ele>
      </trkpt>
      <trkpt lat="46.47442" lon="4.78283">
        <ele>265.9</ele>
      </trkpt>
      <trkpt lat="46.47442" lon="4.7829">
        <ele>265.9</ele>
      </trkpt>
      <trkpt lat="46.47441" lon="4.78298">
        <ele>265.8</ele>
      </trkpt>
      <trkpt lat="46.47439" lon="4.78307">
        <ele>265.6</ele>
      </trkpt>
      <trkpt lat="46.47436" lon="4.78318">
        <ele>265.1</ele>
      </trkpt>
      <trkpt lat="46.47429" lon="4.78333">
        <ele>264.4</ele>
      </trkpt>
      <trkpt lat="46.47412" lon="4.78364">
        <ele>263.8</ele>
      </trkpt>
      <trkpt lat="46.47407" lon="4.78374">
        <ele>263.4</ele>
      </trkpt>
      <trkpt lat="46.47384" lon="4.78414">
        <ele>263</ele>
      </trkpt>
      <trkpt lat="46.47348" lon="4.78477">
        <ele>262.6</ele>
      </trkpt>
      <trkpt lat="46.47332" lon="4.78504">
        <ele>264.1</ele>
      </trkpt>
      <trkpt lat="46.47327" lon="4.78514">
        <ele>264.5</ele>
      </trkpt>
      <trkpt lat="46.47317" lon="4.78532">
        <ele>266</ele>
      </trkpt>
      <trkpt lat="46.4731" lon="4.78545">
        <ele>267.6</ele>
      </trkpt>
      <trkpt lat="46.47308" lon="4.78552">
        <ele>268.4</ele>
      </trkpt>
      <trkpt lat="46.47307" lon="4.7856">
        <ele>268.9</ele>
      </trkpt>
      <trkpt lat="46.47307" lon="4.7857">
        <ele>269.3</ele>
      </trkpt>
      <trkpt lat="46.4731" lon="4.78584">
        <ele>269.6</ele>
      </trkpt>
      <trkpt lat="46.47328" lon="4.78643">
        <ele>273</ele>
      </trkpt>
      <trkpt lat="46.47354" lon="4.78729">
        <ele>278.5</ele>
      </trkpt>
      <trkpt lat="46.47363" lon="4.78755">
        <ele>280.1</ele>
      </trkpt>
      <trkpt lat="46.47365" lon="4.78764">
        <ele>280.6</ele>
      </trkpt>
      <trkpt lat="46.47365" lon="4.7877">
        <ele>281</ele>
      </trkpt>
      <trkpt lat="46.47364" lon="4.78773">
        <ele>281.4</ele>
      </trkpt>
      <trkpt lat="46.47363" lon="4.78777">
        <ele>281.8</ele>
      </trkpt>
      <trkpt lat="46.4736" lon="4.78778">
        <ele>282.2</ele>
      </trkpt>
      <trkpt lat="46.47358" lon="4.78778">
        <ele>282.5</ele>
      </trkpt>
      <trkpt lat="46.47355" lon="4.78777">
        <ele>282.8</ele>
      </trkpt>
      <trkpt lat="46.47347" lon="4.78769">
        <ele>283.5</ele>
      </trkpt>
      <trkpt lat="46.47323" lon="4.78746">
        <ele>284.3</ele>
      </trkpt>
      <trkpt lat="46.47307" lon="4.78729">
        <ele>285</ele>
      </trkpt>
      <trkpt lat="46.47303" lon="4.78726">
        <ele>285.3</ele>
      </trkpt>
      <trkpt lat="46.47299" lon="4.78724">
        <ele>285.5</ele>
      </trkpt>
      <trkpt lat="46.47295" lon="4.78721">
        <ele>285.7</ele>
      </trkpt>
      <trkpt lat="46.47291" lon="4.78719">
        <ele>285.8</ele>
      </trkpt>
      <trkpt lat="46.47287" lon="4.78719">
        <ele>286.1</ele>
      </trkpt>
      <trkpt lat="46.47283" lon="4.78719">
        <ele>286.5</ele>
      </trkpt>
      <trkpt lat="46.47277" lon="4.78721">
        <ele>287</ele>
      </trkpt>
      <trkpt lat="46.47273" lon="4.78723">
        <ele>287.4</ele>
      </trkpt>
      <trkpt lat="46.47267" lon="4.78729">
        <ele>288.1</ele>
      </trkpt>
      <trkpt lat="46.47261" lon="4.78738">
        <ele>288.8</ele>
      </trkpt>
      <trkpt lat="46.47253" lon="4.78754">
        <ele>289.8</ele>
      </trkpt>
      <trkpt lat="46.47246" lon="4.78771">
        <ele>290.1</ele>
      </trkpt>
      <trkpt lat="46.4724" lon="4.78781">
        <ele>290.5</ele>
      </trkpt>
      <trkpt lat="46.47233" lon="4.78796">
        <ele>291.3</ele>
      </trkpt>
      <trkpt lat="46.47214" lon="4.78834">
        <ele>293.3</ele>
      </trkpt>
      <trkpt lat="46.47205" lon="4.78852">
        <ele>294.3</ele>
      </trkpt>
      <trkpt lat="46.47198" lon="4.78864">
        <ele>294.8</ele>
      </trkpt>
      <trkpt lat="46.47181" lon="4.78889">
        <ele>294.5</ele>
      </trkpt>
      <trkpt lat="46.47171" lon="4.78903">
        <ele>294.9</ele>
      </trkpt>
      <trkpt lat="46.47143" lon="4.78947">
        <ele>294.8</ele>
      </trkpt>
      <trkpt lat="46.47135" lon="4.78955">
        <ele>294.5</ele>
      </trkpt>
      <trkpt lat="46.47134" lon="4.78957">
        <ele>294.5</ele>
      </trkpt>
      <trkpt lat="46.47119" lon="4.78976">
        <ele>293.9</ele>
      </trkpt>
      <trkpt lat="46.47105" lon="4.78997">
        <ele>292.9</ele>
      </trkpt>
      <trkpt lat="46.47097" lon="4.7901">
        <ele>292.5</ele>
      </trkpt>
      <trkpt lat="46.47091" lon="4.79021">
        <ele>292.3</ele>
      </trkpt>
      <trkpt lat="46.47086" lon="4.79037">
        <ele>291.7</ele>
      </trkpt>
      <trkpt lat="46.47079" lon="4.79059">
        <ele>290.4</ele>
      </trkpt>
      <trkpt lat="46.47073" lon="4.7908">
        <ele>289.3</ele>
      </trkpt>
      <trkpt lat="46.47067" lon="4.79103">
        <ele>288.2</ele>
      </trkpt>
      <trkpt lat="46.47061" lon="4.79127">
        <ele>288.9</ele>
      </trkpt>
      <trkpt lat="46.47058" lon="4.79129">
        <ele>289.2</ele>
      </trkpt>
      <trkpt lat="46.47056" lon="4.7913">
        <ele>289.3</ele>
      </trkpt>
      <trkpt lat="46.47054" lon="4.7913">
        <ele>289.4</ele>
      </trkpt>
      <trkpt lat="46.47048" lon="4.79136">
        <ele>289.8</ele>
      </trkpt>
      <trkpt lat="46.47019" lon="4.79162">
        <ele>292</ele>
      </trkpt>
      <trkpt lat="46.46998" lon="4.79183">
        <ele>294.2</ele>
      </trkpt>
      <trkpt lat="46.46958" lon="4.79221">
        <ele>297.4</ele>
      </trkpt>
      <trkpt lat="46.46954" lon="4.79227">
        <ele>297.9</ele>
      </trkpt>
      <trkpt lat="46.46945" lon="4.79238">
        <ele>298.6</ele>
      </trkpt>
      <trkpt lat="46.46939" lon="4.79249">
        <ele>299.1</ele>
      </trkpt>
      <trkpt lat="46.46925" lon="4.79268">
        <ele>300.6</ele>
      </trkpt>
      <trkpt lat="46.46895" lon="4.79329">
        <ele>303.8</ele>
      </trkpt>
      <trkpt lat="46.4688" lon="4.79364">
        <ele>304.8</ele>
      </trkpt>
      <trkpt lat="46.46865" lon="4.79388">
        <ele>305.1</ele>
      </trkpt>
      <trkpt lat="46.46852" lon="4.79404">
        <ele>304.9</ele>
      </trkpt>
      <trkpt lat="46.46841" lon="4.7942">
        <ele>304.6</ele>
      </trkpt>
      <trkpt lat="46.46831" lon="4.79442">
        <ele>304.8</ele>
      </trkpt>
      <trkpt lat="46.46815" lon="4.79482">
        <ele>305.7</ele>
      </trkpt>
      <trkpt lat="46.46796" lon="4.79535">
        <ele>306.8</ele>
      </trkpt>
      <trkpt lat="46.4678" lon="4.79579">
        <ele>307.8</ele>
      </trkpt>
      <trkpt lat="46.46771" lon="4.79605">
        <ele>309.6</ele>
      </trkpt>
      <trkpt lat="46.46752" lon="4.79659">
        <ele>311.7</ele>
      </trkpt>
      <trkpt lat="46.46726" lon="4.79728">
        <ele>314.2</ele>
      </trkpt>
      <trkpt lat="46.4671" lon="4.79769">
        <ele>315</ele>
      </trkpt>
      <trkpt lat="46.46701" lon="4.79789">
        <ele>315.1</ele>
      </trkpt>
      <trkpt lat="46.46679" lon="4.79855">
        <ele>314.5</ele>
      </trkpt>
      <trkpt lat="46.4667" lon="4.79886">
        <ele>313.2</ele>
      </trkpt>
      <trkpt lat="46.46665" lon="4.79905">
        <ele>312.9</ele>
      </trkpt>
      <trkpt lat="46.46663" lon="4.79922">
        <ele>312.9</ele>
      </trkpt>
      <trkpt lat="46.46663" lon="4.79937">
        <ele>312.9</ele>
      </trkpt>
      <trkpt lat="46.46663" lon="4.79952">
        <ele>312.8</ele>
      </trkpt>
      <trkpt lat="46.46663" lon="4.80008">
        <ele>313.2</ele>
      </trkpt>
      <trkpt lat="46.46661" lon="4.80074">
        <ele>314.5</ele>
      </trkpt>
      <trkpt lat="46.4666" lon="4.8014">
        <ele>315.8</ele>
      </trkpt>
      <trkpt lat="46.4666" lon="4.80154">
        <ele>315.9</ele>
      </trkpt>
      <trkpt lat="46.46656" lon="4.80161">
        <ele>315.9</ele>
      </trkpt>
      <trkpt lat="46.46655" lon="4.80167">
        <ele>316</ele>
      </trkpt>
      <trkpt lat="46.46654" lon="4.80174">
        <ele>316</ele>
      </trkpt>
      <trkpt lat="46.46652" lon="4.80206">
        <ele>316.2</ele>
      </trkpt>
      <trkpt lat="46.4665" lon="4.80231">
        <ele>316.6</ele>
      </trkpt>
      <trkpt lat="46.46647" lon="4.80252">
        <ele>316.7</ele>
      </trkpt>
      <trkpt lat="46.46641" lon="4.80285">
        <ele>316.9</ele>
      </trkpt>
      <trkpt lat="46.46638" lon="4.80308">
        <ele>317</ele>
      </trkpt>
      <trkpt lat="46.46638" lon="4.80321">
        <ele>317</ele>
      </trkpt>
      <trkpt lat="46.46638" lon="4.80327">
        <ele>317</ele>
      </trkpt>
      <trkpt lat="46.46637" lon="4.80343">
        <ele>317</ele>
      </trkpt>
      <trkpt lat="46.46636" lon="4.80364">
        <ele>317</ele>
      </trkpt>
      <trkpt lat="46.46632" lon="4.80499">
        <ele>316.3</ele>
      </trkpt>
      <trkpt lat="46.46631" lon="4.80508">
        <ele>316.3</ele>
      </trkpt>
      <trkpt lat="46.46629" lon="4.80577">
        <ele>315</ele>
      </trkpt>
      <trkpt lat="46.46627" lon="4.80598">
        <ele>314.6</ele>
      </trkpt>
      <trkpt lat="46.46625" lon="4.80608">
        <ele>314.6</ele>
      </trkpt>
      <trkpt lat="46.46623" lon="4.80613">
        <ele>314.5</ele>
      </trkpt>
      <trkpt lat="46.46621" lon="4.80617">
        <ele>314.4</ele>
      </trkpt>
      <trkpt lat="46.46618" lon="4.80621">
        <ele>314.3</ele>
      </trkpt>
      <trkpt lat="46.46691" lon="4.80664">
        <ele>304.7</ele>
      </trkpt>
      <trkpt lat="46.46809" lon="4.80738">
        <ele>286.2</ele>
      </trkpt>
      <trkpt lat="46.46825" lon="4.80747">
        <ele>284.7</ele>
      </trkpt>
      <trkpt lat="46.46835" lon="4.80754">
        <ele>283.6</ele>
      </trkpt>
      <trkpt lat="46.46843" lon="4.80758">
        <ele>282.9</ele>
      </trkpt>
      <trkpt lat="46.46848" lon="4.80774">
        <ele>281.7</ele>
      </trkpt>
      <trkpt lat="46.46857" lon="4.80788">
        <ele>280.4</ele>
      </trkpt>
      <trkpt lat="46.46871" lon="4.80799">
        <ele>278.1</ele>
      </trkpt>
      <trkpt lat="46.46881" lon="4.80806">
        <ele>276.1</ele>
      </trkpt>
      <trkpt lat="46.46893" lon="4.80819">
        <ele>273.4</ele>
      </trkpt>
      <trkpt lat="46.46903" lon="4.80834">
        <ele>270.4</ele>
      </trkpt>
      <trkpt lat="46.46914" lon="4.80845">
        <ele>268.4</ele>
      </trkpt>
      <trkpt lat="46.46924" lon="4.80852">
        <ele>266.7</ele>
      </trkpt>
      <trkpt lat="46.46935" lon="4.80857">
        <ele>264.9</ele>
      </trkpt>
      <trkpt lat="46.46943" lon="4.80863">
        <ele>263.1</ele>
      </trkpt>
      <trkpt lat="46.46975" lon="4.80859">
        <ele>255.3</ele>
      </trkpt>
      <trkpt lat="46.4698" lon="4.80842">
        <ele>254.7</ele>
      </trkpt>
      <trkpt lat="46.4699" lon="4.80829">
        <ele>251.7</ele>
      </trkpt>
      <trkpt lat="46.47001" lon="4.8083">
        <ele>247.9</ele>
      </trkpt>
      <trkpt lat="46.47047" lon="4.80858">
        <ele>238.9</ele>
      </trkpt>
      <trkpt lat="46.47061" lon="4.80865">
        <ele>236.5</ele>
      </trkpt>
      <trkpt lat="46.47073" lon="4.80871">
        <ele>235.4</ele>
      </trkpt>
      <trkpt lat="46.47081" lon="4.80871">
        <ele>234.8</ele>
      </trkpt>
      <trkpt lat="46.47087" lon="4.8087">
        <ele>234.3</ele>
      </trkpt>
      <trkpt lat="46.47095" lon="4.80868">
        <ele>233.5</ele>
      </trkpt>
      <trkpt lat="46.47103" lon="4.80863">
        <ele>232.8</ele>
      </trkpt>
      <trkpt lat="46.47113" lon="4.80858">
        <ele>231.8</ele>
      </trkpt>
      <trkpt lat="46.47126" lon="4.80853">
        <ele>230.6</ele>
      </trkpt>
      <trkpt lat="46.47134" lon="4.80844">
        <ele>230.1</ele>
      </trkpt>
      <trkpt lat="46.47152" lon="4.80832">
        <ele>229.6</ele>
      </trkpt>
      <trkpt lat="46.47158" lon="4.80829">
        <ele>229.4</ele>
      </trkpt>
    </trkseg>
  </trk>
  <trk>
    <name><![CDATA[17-GRAND_TOUR_DU_MACONNAIS - NOIR]]></name>
    <extensions>
      <line xmlns="http://www.topografix.com/GPX/gpx_style/0/2">
        <color>000000</color>
        <width>4</width>
      </line>
    </extensions>
    <trkseg>
      <trkpt lat="46.43107" lon="4.76177">
        <ele>244.3</ele>
      </trkpt>
      <trkpt lat="46.43107" lon="4.76182">
        <ele>244</ele>
      </trkpt>
      <trkpt lat="46.43109" lon="4.76196">
        <ele>243</ele>
      </trkpt>
      <trkpt lat="46.43111" lon="4.76218">
        <ele>242.2</ele>
      </trkpt>
      <trkpt lat="46.43112" lon="4.76234">
        <ele>241.1</ele>
      </trkpt>
      <trkpt lat="46.43113" lon="4.76246">
        <ele>240.3</ele>
      </trkpt>
      <trkpt lat="46.43112" lon="4.76256">
        <ele>239.8</ele>
      </trkpt>
      <trkpt lat="46.43111" lon="4.76265">
        <ele>239.5</ele>
      </trkpt>
      <trkpt lat="46.43108" lon="4.76273">
        <ele>239.1</ele>
      </trkpt>
      <trkpt lat="46.43103" lon="4.7628">
        <ele>238.7</ele>
      </trkpt>
      <trkpt lat="46.43093" lon="4.76287">
        <ele>238.3</ele>
      </trkpt>
      <trkpt lat="46.43075" lon="4.76297">
        <ele>238.1</ele>
      </trkpt>
      <trkpt lat="46.43071" lon="4.76298">
        <ele>238.2</ele>
      </trkpt>
      <trkpt lat="46.43064" lon="4.76301">
        <ele>238.5</ele>
      </trkpt>
      <trkpt lat="46.43057" lon="4.76304">
        <ele>238.8</ele>
      </trkpt>
      <trkpt lat="46.43054" lon="4.76308">
        <ele>238.8</ele>
      </trkpt>
      <trkpt lat="46.43052" lon="4.7631">
        <ele>238.6</ele>
      </trkpt>
      <trkpt lat="46.43043" lon="4.76322">
        <ele>238</ele>
      </trkpt>
      <trkpt lat="46.4304" lon="4.76327">
        <ele>238</ele>
      </trkpt>
      <trkpt lat="46.43034" lon="4.76337">
        <ele>238.1</ele>
      </trkpt>
      <trkpt lat="46.43029" lon="4.76351">
        <ele>238.6</ele>
      </trkpt>
      <trkpt lat="46.43026" lon="4.76366">
        <ele>238.9</ele>
      </trkpt>
      <trkpt lat="46.43025" lon="4.76381">
        <ele>238.8</ele>
      </trkpt>
      <trkpt lat="46.43024" lon="4.76401">
        <ele>238.8</ele>
      </trkpt>
      <trkpt lat="46.43024" lon="4.76415">
        <ele>238.8</ele>
      </trkpt>
      <trkpt lat="46.43023" lon="4.76432">
        <ele>238.9</ele>
      </trkpt>
      <trkpt lat="46.43021" lon="4.76455">
        <ele>239.4</ele>
      </trkpt>
      <trkpt lat="46.43016" lon="4.76479">
        <ele>240.5</ele>
      </trkpt>
      <trkpt lat="46.43012" lon="4.76495">
        <ele>241.7</ele>
      </trkpt>
      <trkpt lat="46.43007" lon="4.76509">
        <ele>242.6</ele>
      </trkpt>
      <trkpt lat="46.43004" lon="4.76514">
        <ele>243</ele>
      </trkpt>
      <trkpt lat="46.43001" lon="4.76522">
        <ele>243.6</ele>
      </trkpt>
      <trkpt lat="46.42994" lon="4.76533">
        <ele>244.5</ele>
      </trkpt>
      <trkpt lat="46.4299" lon="4.76538">
        <ele>244.9</ele>
      </trkpt>
      <trkpt lat="46.42978" lon="4.76544">
        <ele>245.3</ele>
      </trkpt>
      <trkpt lat="46.42958" lon="4.7655">
        <ele>246</ele>
      </trkpt>
      <trkpt lat="46.42941" lon="4.76555">
        <ele>246.8</ele>
      </trkpt>
      <trkpt lat="46.42927" lon="4.7656">
        <ele>246.8</ele>
      </trkpt>
      <trkpt lat="46.42916" lon="4.76563">
        <ele>246.8</ele>
      </trkpt>
      <trkpt lat="46.42902" lon="4.76568">
        <ele>247.4</ele>
      </trkpt>
      <trkpt lat="46.42889" lon="4.76572">
        <ele>247.8</ele>
      </trkpt>
      <trkpt lat="46.42884" lon="4.76573">
        <ele>247.9</ele>
      </trkpt>
      <trkpt lat="46.42879" lon="4.76574">
        <ele>248</ele>
      </trkpt>
      <trkpt lat="46.42872" lon="4.76575">
        <ele>248.1</ele>
      </trkpt>
      <trkpt lat="46.42864" lon="4.76575">
        <ele>248.1</ele>
      </trkpt>
      <trkpt lat="46.42856" lon="4.76575">
        <ele>248.2</ele>
      </trkpt>
      <trkpt lat="46.42816" lon="4.76573">
        <ele>249</ele>
      </trkpt>
      <trkpt lat="46.42775" lon="4.76571">
        <ele>248.7</ele>
      </trkpt>
      <trkpt lat="46.42761" lon="4.76571">
        <ele>248.6</ele>
      </trkpt>
      <trkpt lat="46.42742" lon="4.76571">
        <ele>248.8</ele>
      </trkpt>
      <trkpt lat="46.42731" lon="4.76571">
        <ele>248.9</ele>
      </trkpt>
      <trkpt lat="46.42727" lon="4.76571">
        <ele>249</ele>
      </trkpt>
      <trkpt lat="46.42721" lon="4.76573">
        <ele>249.2</ele>
      </trkpt>
      <trkpt lat="46.42716" lon="4.76575">
        <ele>249.5</ele>
      </trkpt>
      <trkpt lat="46.42707" lon="4.76583">
        <ele>250</ele>
      </trkpt>
      <trkpt lat="46.42698" lon="4.76589">
        <ele>250.4</ele>
      </trkpt>
      <trkpt lat="46.42692" lon="4.76593">
        <ele>250.7</ele>
      </trkpt>
      <trkpt lat="46.42671" lon="4.76609">
        <ele>251</ele>
      </trkpt>
      <trkpt lat="46.42661" lon="4.76614">
        <ele>251.2</ele>
      </trkpt>
      <trkpt lat="46.42646" lon="4.7662">
        <ele>251.6</ele>
      </trkpt>
      <trkpt lat="46.42635" lon="4.76625">
        <ele>251.8</ele>
      </trkpt>
      <trkpt lat="46.42623" lon="4.76632">
        <ele>251.8</ele>
      </trkpt>
      <trkpt lat="46.42614" lon="4.76639">
        <ele>252.1</ele>
      </trkpt>
      <trkpt lat="46.42601" lon="4.76651">
        <ele>251.9</ele>
      </trkpt>
      <trkpt lat="46.42582" lon="4.76665">
        <ele>251.8</ele>
      </trkpt>
      <trkpt lat="46.42573" lon="4.7667">
        <ele>251.8</ele>
      </trkpt>
      <trkpt lat="46.4256" lon="4.76679">
        <ele>251.6</ele>
      </trkpt>
      <trkpt lat="46.42548" lon="4.76685">
        <ele>251.3</ele>
      </trkpt>
      <trkpt lat="46.4254" lon="4.7669">
        <ele>251.2</ele>
      </trkpt>
      <trkpt lat="46.42523" lon="4.76698">
        <ele>250.8</ele>
      </trkpt>
      <trkpt lat="46.42501" lon="4.76709">
        <ele>249.6</ele>
      </trkpt>
      <trkpt lat="46.4248" lon="4.7672">
        <ele>249.1</ele>
      </trkpt>
      <trkpt lat="46.42464" lon="4.76727">
        <ele>248.8</ele>
      </trkpt>
      <trkpt lat="46.42459" lon="4.76729">
        <ele>248.8</ele>
      </trkpt>
      <trkpt lat="46.42453" lon="4.76731">
        <ele>248.6</ele>
      </trkpt>
      <trkpt lat="46.42431" lon="4.76742">
        <ele>248.2</ele>
      </trkpt>
      <trkpt lat="46.42393" lon="4.7676">
        <ele>247.5</ele>
      </trkpt>
      <trkpt lat="46.42385" lon="4.76764">
        <ele>247.3</ele>
      </trkpt>
      <trkpt lat="46.42349" lon="4.76782">
        <ele>245.7</ele>
      </trkpt>
      <trkpt lat="46.42326" lon="4.76795">
        <ele>244.8</ele>
      </trkpt>
      <trkpt lat="46.42302" lon="4.76811">
        <ele>243</ele>
      </trkpt>
      <trkpt lat="46.42295" lon="4.76816">
        <ele>242.6</ele>
      </trkpt>
      <trkpt lat="46.4229" lon="4.76819">
        <ele>242.4</ele>
      </trkpt>
      <trkpt lat="46.42284" lon="4.76821">
        <ele>242</ele>
      </trkpt>
      <trkpt lat="46.42274" lon="4.76823">
        <ele>241.4</ele>
      </trkpt>
      <trkpt lat="46.42268" lon="4.76824">
        <ele>240.9</ele>
      </trkpt>
      <trkpt lat="46.42266" lon="4.76824">
        <ele>240.8</ele>
      </trkpt>
      <trkpt lat="46.42255" lon="4.76823">
        <ele>240</ele>
      </trkpt>
      <trkpt lat="46.42238" lon="4.76818">
        <ele>239</ele>
      </trkpt>
      <trkpt lat="46.42218" lon="4.76809">
        <ele>237.8</ele>
      </trkpt>
      <trkpt lat="46.4219" lon="4.76798">
        <ele>235.3</ele>
      </trkpt>
      <trkpt lat="46.42182" lon="4.76814">
        <ele>235.5</ele>
      </trkpt>
      <trkpt lat="46.42168" lon="4.76807">
        <ele>234.2</ele>
      </trkpt>
      <trkpt lat="46.42135" lon="4.76794">
        <ele>231.3</ele>
      </trkpt>
      <trkpt lat="46.42093" lon="4.76773">
        <ele>228.6</ele>
      </trkpt>
      <trkpt lat="46.42069" lon="4.76761">
        <ele>227</ele>
      </trkpt>
      <trkpt lat="46.42068" lon="4.76761">
        <ele>227</ele>
      </trkpt>
      <trkpt lat="46.42056" lon="4.76756">
        <ele>226.8</ele>
      </trkpt>
      <trkpt lat="46.42048" lon="4.76755">
        <ele>226.6</ele>
      </trkpt>
      <trkpt lat="46.42048" lon="4.76749">
        <ele>226.7</ele>
      </trkpt>
      <trkpt lat="46.42048" lon="4.76739">
        <ele>226.3</ele>
      </trkpt>
      <trkpt lat="46.42049" lon="4.76731">
        <ele>226.1</ele>
      </trkpt>
      <trkpt lat="46.42051" lon="4.76721">
        <ele>225.8</ele>
      </trkpt>
      <trkpt lat="46.42055" lon="4.76707">
        <ele>226</ele>
      </trkpt>
      <trkpt lat="46.42062" lon="4.76687">
        <ele>226</ele>
      </trkpt>
      <trkpt lat="46.42072" lon="4.76658">
        <ele>226</ele>
      </trkpt>
      <trkpt lat="46.4208" lon="4.76643">
        <ele>226</ele>
      </trkpt>
      <trkpt lat="46.42085" lon="4.76637">
        <ele>226.1</ele>
      </trkpt>
      <trkpt lat="46.42094" lon="4.76624">
        <ele>226.4</ele>
      </trkpt>
      <trkpt lat="46.42102" lon="4.76609">
        <ele>226.7</ele>
      </trkpt>
      <trkpt lat="46.42114" lon="4.76582">
        <ele>227</ele>
      </trkpt>
      <trkpt lat="46.42116" lon="4.76576">
        <ele>227</ele>
      </trkpt>
      <trkpt lat="46.4212" lon="4.76561">
        <ele>227</ele>
      </trkpt>
      <trkpt lat="46.42122" lon="4.76551">
        <ele>227</ele>
      </trkpt>
      <trkpt lat="46.42128" lon="4.76529">
        <ele>227</ele>
      </trkpt>
      <trkpt lat="46.4213" lon="4.76517">
        <ele>227</ele>
      </trkpt>
      <trkpt lat="46.4213" lon="4.76506">
        <ele>227</ele>
      </trkpt>
      <trkpt lat="46.4213" lon="4.76499">
        <ele>227</ele>
      </trkpt>
      <trkpt lat="46.42128" lon="4.76489">
        <ele>226.8</ele>
      </trkpt>
      <trkpt lat="46.42123" lon="4.76474">
        <ele>226.5</ele>
      </trkpt>
      <trkpt lat="46.42119" lon="4.76463">
        <ele>226.4</ele>
      </trkpt>
      <trkpt lat="46.42116" lon="4.76459">
        <ele>226.5</ele>
      </trkpt>
      <trkpt lat="46.42115" lon="4.76456">
        <ele>226.6</ele>
      </trkpt>
      <trkpt lat="46.42113" lon="4.76453">
        <ele>226.7</ele>
      </trkpt>
      <trkpt lat="46.4211" lon="4.7645">
        <ele>226.8</ele>
      </trkpt>
      <trkpt lat="46.42102" lon="4.76441">
        <ele>226.7</ele>
      </trkpt>
      <trkpt lat="46.42089" lon="4.76429">
        <ele>226.7</ele>
      </trkpt>
      <trkpt lat="46.42085" lon="4.76425">
        <ele>226.7</ele>
      </trkpt>
      <trkpt lat="46.42084" lon="4.76424">
        <ele>226.8</ele>
      </trkpt>
      <trkpt lat="46.42075" lon="4.76413">
        <ele>229.7</ele>
      </trkpt>
      <trkpt lat="46.42069" lon="4.764">
        <ele>231.9</ele>
      </trkpt>
      <trkpt lat="46.42067" lon="4.76386">
        <ele>232.8</ele>
      </trkpt>
      <trkpt lat="46.42066" lon="4.76382">
        <ele>233.1</ele>
      </trkpt>
      <trkpt lat="46.42065" lon="4.76368">
        <ele>233.6</ele>
      </trkpt>
      <trkpt lat="46.42064" lon="4.76352">
        <ele>233.7</ele>
      </trkpt>
      <trkpt lat="46.42068" lon="4.76324">
        <ele>231.9</ele>
      </trkpt>
      <trkpt lat="46.42073" lon="4.76297">
        <ele>230.6</ele>
      </trkpt>
      <trkpt lat="46.42076" lon="4.76279">
        <ele>230.5</ele>
      </trkpt>
      <trkpt lat="46.42085" lon="4.76228">
        <ele>230.7</ele>
      </trkpt>
      <trkpt lat="46.42087" lon="4.76218">
        <ele>230.6</ele>
      </trkpt>
      <trkpt lat="46.42089" lon="4.76212">
        <ele>230.4</ele>
      </trkpt>
      <trkpt lat="46.42095" lon="4.76204">
        <ele>230</ele>
      </trkpt>
      <trkpt lat="46.42111" lon="4.76175">
        <ele>230</ele>
      </trkpt>
      <trkpt lat="46.42115" lon="4.76163">
        <ele>230</ele>
      </trkpt>
      <trkpt lat="46.42119" lon="4.76152">
        <ele>230</ele>
      </trkpt>
      <trkpt lat="46.42121" lon="4.76141">
        <ele>230</ele>
      </trkpt>
      <trkpt lat="46.42121" lon="4.76139">
        <ele>230</ele>
      </trkpt>
      <trkpt lat="46.42124" lon="4.7612">
        <ele>230.3</ele>
      </trkpt>
      <trkpt lat="46.42125" lon="4.76104">
        <ele>230.5</ele>
      </trkpt>
      <trkpt lat="46.42127" lon="4.76087">
        <ele>230.6</ele>
      </trkpt>
      <trkpt lat="46.42128" lon="4.76078">
        <ele>230.6</ele>
      </trkpt>
      <trkpt lat="46.42142" lon="4.76009">
        <ele>231.1</ele>
      </trkpt>
      <trkpt lat="46.42145" lon="4.76">
        <ele>231.2</ele>
      </trkpt>
      <trkpt lat="46.42147" lon="4.75993">
        <ele>231.3</ele>
      </trkpt>
      <trkpt lat="46.42148" lon="4.75986">
        <ele>231.3</ele>
      </trkpt>
      <trkpt lat="46.42148" lon="4.75978">
        <ele>231.3</ele>
      </trkpt>
      <trkpt lat="46.42151" lon="4.75959">
        <ele>231.4</ele>
      </trkpt>
      <trkpt lat="46.42151" lon="4.75954">
        <ele>231.4</ele>
      </trkpt>
      <trkpt lat="46.42152" lon="4.75936">
        <ele>231.5</ele>
      </trkpt>
      <trkpt lat="46.42152" lon="4.75911">
        <ele>231.5</ele>
      </trkpt>
      <trkpt lat="46.42152" lon="4.75886">
        <ele>231.5</ele>
      </trkpt>
      <trkpt lat="46.42152" lon="4.75871">
        <ele>231.5</ele>
      </trkpt>
      <trkpt lat="46.42154" lon="4.75845">
        <ele>231.8</ele>
      </trkpt>
      <trkpt lat="46.42163" lon="4.75807">
        <ele>232</ele>
      </trkpt>
      <trkpt lat="46.42169" lon="4.75793">
        <ele>232.1</ele>
      </trkpt>
      <trkpt lat="46.42172" lon="4.75788">
        <ele>232.2</ele>
      </trkpt>
      <trkpt lat="46.42175" lon="4.75781">
        <ele>232.3</ele>
      </trkpt>
      <trkpt lat="46.42182" lon="4.7577">
        <ele>232.6</ele>
      </trkpt>
      <trkpt lat="46.42187" lon="4.75763">
        <ele>232.7</ele>
      </trkpt>
      <trkpt lat="46.42219" lon="4.75719">
        <ele>232.9</ele>
      </trkpt>
      <trkpt lat="46.4223" lon="4.75698">
        <ele>233</ele>
      </trkpt>
      <trkpt lat="46.42256" lon="4.75625">
        <ele>234.7</ele>
      </trkpt>
      <trkpt lat="46.42264" lon="4.756">
        <ele>235.9</ele>
      </trkpt>
      <trkpt lat="46.42266" lon="4.75589">
        <ele>236.4</ele>
      </trkpt>
      <trkpt lat="46.42269" lon="4.75568">
        <ele>237.1</ele>
      </trkpt>
      <trkpt lat="46.4227" lon="4.75563">
        <ele>237.2</ele>
      </trkpt>
      <trkpt lat="46.42272" lon="4.75535">
        <ele>237.7</ele>
      </trkpt>
      <trkpt lat="46.42272" lon="4.75534">
        <ele>237.8</ele>
      </trkpt>
      <trkpt lat="46.42276" lon="4.75489">
        <ele>239.9</ele>
      </trkpt>
      <trkpt lat="46.42277" lon="4.75472">
        <ele>240</ele>
      </trkpt>
      <trkpt lat="46.42281" lon="4.75437">
        <ele>241.6</ele>
      </trkpt>
      <trkpt lat="46.42282" lon="4.75414">
        <ele>242.6</ele>
      </trkpt>
      <trkpt lat="46.42286" lon="4.75384">
        <ele>243.7</ele>
      </trkpt>
      <trkpt lat="46.42287" lon="4.75377">
        <ele>243.9</ele>
      </trkpt>
      <trkpt lat="46.42289" lon="4.7536">
        <ele>244.4</ele>
      </trkpt>
      <trkpt lat="46.42289" lon="4.7535">
        <ele>244.4</ele>
      </trkpt>
      <trkpt lat="46.42288" lon="4.7534">
        <ele>244.4</ele>
      </trkpt>
      <trkpt lat="46.42286" lon="4.7533">
        <ele>244.3</ele>
      </trkpt>
      <trkpt lat="46.42286" lon="4.75322">
        <ele>244.3</ele>
      </trkpt>
      <trkpt lat="46.42279" lon="4.75314">
        <ele>244.1</ele>
      </trkpt>
      <trkpt lat="46.42275" lon="4.75306">
        <ele>243.9</ele>
      </trkpt>
      <trkpt lat="46.42271" lon="4.753">
        <ele>243.7</ele>
      </trkpt>
      <trkpt lat="46.42264" lon="4.75301">
        <ele>243.4</ele>
      </trkpt>
      <trkpt lat="46.42258" lon="4.75302">
        <ele>243.2</ele>
      </trkpt>
      <trkpt lat="46.42245" lon="4.75303">
        <ele>242.5</ele>
      </trkpt>
      <trkpt lat="46.42219" lon="4.75307">
        <ele>240.8</ele>
      </trkpt>
      <trkpt lat="46.42195" lon="4.75311">
        <ele>238.9</ele>
      </trkpt>
      <trkpt lat="46.42173" lon="4.75314">
        <ele>237.9</ele>
      </trkpt>
      <trkpt lat="46.4214" lon="4.75317">
        <ele>236.1</ele>
      </trkpt>
      <trkpt lat="46.42112" lon="4.75321">
        <ele>236</ele>
      </trkpt>
      <trkpt lat="46.42095" lon="4.75323">
        <ele>236</ele>
      </trkpt>
      <trkpt lat="46.42057" lon="4.7533">
        <ele>236.1</ele>
      </trkpt>
      <trkpt lat="46.42035" lon="4.75333">
        <ele>236.8</ele>
      </trkpt>
      <trkpt lat="46.42023" lon="4.75334">
        <ele>237.2</ele>
      </trkpt>
      <trkpt lat="46.4202" lon="4.75335">
        <ele>237.2</ele>
      </trkpt>
      <trkpt lat="46.42015" lon="4.75337">
        <ele>237.3</ele>
      </trkpt>
      <trkpt lat="46.42013" lon="4.75338">
        <ele>237.4</ele>
      </trkpt>
      <trkpt lat="46.42002" lon="4.75346">
        <ele>237.5</ele>
      </trkpt>
      <trkpt lat="46.41993" lon="4.75357">
        <ele>237.4</ele>
      </trkpt>
      <trkpt lat="46.41986" lon="4.75365">
        <ele>237.5</ele>
      </trkpt>
      <trkpt lat="46.41983" lon="4.75373">
        <ele>237.6</ele>
      </trkpt>
      <trkpt lat="46.41979" lon="4.7538">
        <ele>237.8</ele>
      </trkpt>
      <trkpt lat="46.41976" lon="4.75387">
        <ele>237.9</ele>
      </trkpt>
      <trkpt lat="46.41974" lon="4.7539">
        <ele>237.9</ele>
      </trkpt>
      <trkpt lat="46.41973" lon="4.75395">
        <ele>237.8</ele>
      </trkpt>
      <trkpt lat="46.41968" lon="4.75401">
        <ele>237.8</ele>
      </trkpt>
      <trkpt lat="46.41962" lon="4.7541">
        <ele>237.9</ele>
      </trkpt>
      <trkpt lat="46.41955" lon="4.75419">
        <ele>238.2</ele>
      </trkpt>
      <trkpt lat="46.41947" lon="4.75431">
        <ele>238.4</ele>
      </trkpt>
      <trkpt lat="46.41941" lon="4.75437">
        <ele>238.4</ele>
      </trkpt>
      <trkpt lat="46.41911" lon="4.75494">
        <ele>236.4</ele>
      </trkpt>
      <trkpt lat="46.41897" lon="4.75523">
        <ele>236.6</ele>
      </trkpt>
      <trkpt lat="46.41888" lon="4.75541">
        <ele>236.5</ele>
      </trkpt>
      <trkpt lat="46.41886" lon="4.75545">
        <ele>236.4</ele>
      </trkpt>
      <trkpt lat="46.41884" lon="4.75549">
        <ele>236.4</ele>
      </trkpt>
      <trkpt lat="46.41869" lon="4.75579">
        <ele>236.5</ele>
      </trkpt>
      <trkpt lat="46.41859" lon="4.75598">
        <ele>236.5</ele>
      </trkpt>
      <trkpt lat="46.41852" lon="4.7561">
        <ele>236.4</ele>
      </trkpt>
      <trkpt lat="46.41846" lon="4.75624">
        <ele>236.3</ele>
      </trkpt>
      <trkpt lat="46.41845" lon="4.75629">
        <ele>236.3</ele>
      </trkpt>
      <trkpt lat="46.41837" lon="4.75659">
        <ele>236.8</ele>
      </trkpt>
      <trkpt lat="46.4183" lon="4.75683">
        <ele>237.1</ele>
      </trkpt>
      <trkpt lat="46.41829" lon="4.75687">
        <ele>237.2</ele>
      </trkpt>
      <trkpt lat="46.41827" lon="4.75691">
        <ele>237.2</ele>
      </trkpt>
      <trkpt lat="46.41812" lon="4.75724">
        <ele>237.6</ele>
      </trkpt>
      <trkpt lat="46.41801" lon="4.75749">
        <ele>239.3</ele>
      </trkpt>
      <trkpt lat="46.41798" lon="4.75756">
        <ele>239.5</ele>
      </trkpt>
      <trkpt lat="46.41796" lon="4.7576">
        <ele>239.7</ele>
      </trkpt>
      <trkpt lat="46.41796" lon="4.75765">
        <ele>239.7</ele>
      </trkpt>
      <trkpt lat="46.41795" lon="4.75774">
        <ele>239.8</ele>
      </trkpt>
      <trkpt lat="46.41793" lon="4.75786">
        <ele>239.9</ele>
      </trkpt>
      <trkpt lat="46.41784" lon="4.75827">
        <ele>241.1</ele>
      </trkpt>
      <trkpt lat="46.41779" lon="4.75852">
        <ele>241.9</ele>
      </trkpt>
      <trkpt lat="46.41773" lon="4.75871">
        <ele>242.7</ele>
      </trkpt>
      <trkpt lat="46.4177" lon="4.75884">
        <ele>243.1</ele>
      </trkpt>
      <trkpt lat="46.41767" lon="4.75893">
        <ele>243.7</ele>
      </trkpt>
      <trkpt lat="46.41762" lon="4.75917">
        <ele>245.4</ele>
      </trkpt>
      <trkpt lat="46.41755" lon="4.75941">
        <ele>247.3</ele>
      </trkpt>
      <trkpt lat="46.41751" lon="4.75952">
        <ele>247.9</ele>
      </trkpt>
      <trkpt lat="46.41746" lon="4.75964">
        <ele>248.4</ele>
      </trkpt>
      <trkpt lat="46.41744" lon="4.75969">
        <ele>248.6</ele>
      </trkpt>
      <trkpt lat="46.41736" lon="4.75989">
        <ele>249.2</ele>
      </trkpt>
      <trkpt lat="46.4172" lon="4.76028">
        <ele>250.1</ele>
      </trkpt>
      <trkpt lat="46.4171" lon="4.76048">
        <ele>250.5</ele>
      </trkpt>
      <trkpt lat="46.41693" lon="4.76075">
        <ele>252.1</ele>
      </trkpt>
      <trkpt lat="46.41668" lon="4.76114">
        <ele>254.8</ele>
      </trkpt>
      <trkpt lat="46.41661" lon="4.76128">
        <ele>255.6</ele>
      </trkpt>
      <trkpt lat="46.41655" lon="4.7614">
        <ele>256.2</ele>
      </trkpt>
      <trkpt lat="46.41648" lon="4.76163">
        <ele>256.5</ele>
      </trkpt>
      <trkpt lat="46.41635" lon="4.76192">
        <ele>257.2</ele>
      </trkpt>
      <trkpt lat="46.41616" lon="4.76233">
        <ele>257.3</ele>
      </trkpt>
      <trkpt lat="46.41611" lon="4.76245">
        <ele>257.2</ele>
      </trkpt>
      <trkpt lat="46.41609" lon="4.76249">
        <ele>257.2</ele>
      </trkpt>
      <trkpt lat="46.41586" lon="4.76289">
        <ele>257.8</ele>
      </trkpt>
      <trkpt lat="46.41578" lon="4.76305">
        <ele>258.2</ele>
      </trkpt>
      <trkpt lat="46.41572" lon="4.76315">
        <ele>258.1</ele>
      </trkpt>
      <trkpt lat="46.41568" lon="4.76327">
        <ele>257.8</ele>
      </trkpt>
      <trkpt lat="46.41559" lon="4.76362">
        <ele>257.8</ele>
      </trkpt>
      <trkpt lat="46.41557" lon="4.76369">
        <ele>257.6</ele>
      </trkpt>
      <trkpt lat="46.41554" lon="4.7638">
        <ele>257.4</ele>
      </trkpt>
      <trkpt lat="46.41544" lon="4.76419">
        <ele>256.4</ele>
      </trkpt>
      <trkpt lat="46.41536" lon="4.76447">
        <ele>256</ele>
      </trkpt>
      <trkpt lat="46.41527" lon="4.76478">
        <ele>256</ele>
      </trkpt>
      <trkpt lat="46.4152" lon="4.76499">
        <ele>256</ele>
      </trkpt>
      <trkpt lat="46.41508" lon="4.7653">
        <ele>255.6</ele>
      </trkpt>
      <trkpt lat="46.41493" lon="4.76567">
        <ele>255</ele>
      </trkpt>
      <trkpt lat="46.41482" lon="4.76595">
        <ele>255</ele>
      </trkpt>
      <trkpt lat="46.4148" lon="4.76604">
        <ele>255</ele>
      </trkpt>
      <trkpt lat="46.41477" lon="4.7661">
        <ele>255</ele>
      </trkpt>
      <trkpt lat="46.41475" lon="4.76614">
        <ele>254.9</ele>
      </trkpt>
      <trkpt lat="46.41475" lon="4.76619">
        <ele>254.7</ele>
      </trkpt>
      <trkpt lat="46.41475" lon="4.76626">
        <ele>254.5</ele>
      </trkpt>
      <trkpt lat="46.41478" lon="4.76637">
        <ele>254.3</ele>
      </trkpt>
      <trkpt lat="46.41479" lon="4.76647">
        <ele>254.2</ele>
      </trkpt>
      <trkpt lat="46.41479" lon="4.76654">
        <ele>254.2</ele>
      </trkpt>
      <trkpt lat="46.41477" lon="4.76663">
        <ele>254.2</ele>
      </trkpt>
      <trkpt lat="46.41467" lon="4.76698">
        <ele>253.8</ele>
      </trkpt>
      <trkpt lat="46.41464" lon="4.76707">
        <ele>253.7</ele>
      </trkpt>
      <trkpt lat="46.41447" lon="4.76756">
        <ele>253.2</ele>
      </trkpt>
      <trkpt lat="46.41431" lon="4.76806">
        <ele>253.5</ele>
      </trkpt>
      <trkpt lat="46.4142" lon="4.76842">
        <ele>253.1</ele>
      </trkpt>
      <trkpt lat="46.41415" lon="4.76864">
        <ele>253</ele>
      </trkpt>
      <trkpt lat="46.41413" lon="4.76869">
        <ele>252.9</ele>
      </trkpt>
      <trkpt lat="46.41405" lon="4.76883">
        <ele>252.6</ele>
      </trkpt>
      <trkpt lat="46.41394" lon="4.76907">
        <ele>252.3</ele>
      </trkpt>
      <trkpt lat="46.4138" lon="4.76943">
        <ele>252.6</ele>
      </trkpt>
      <trkpt lat="46.41374" lon="4.76955">
        <ele>252.7</ele>
      </trkpt>
      <trkpt lat="46.41369" lon="4.76965">
        <ele>252.7</ele>
      </trkpt>
      <trkpt lat="46.41364" lon="4.76983">
        <ele>252.4</ele>
      </trkpt>
      <trkpt lat="46.41359" lon="4.77005">
        <ele>251.9</ele>
      </trkpt>
      <trkpt lat="46.41351" lon="4.77031">
        <ele>251.4</ele>
      </trkpt>
      <trkpt lat="46.41349" lon="4.7704">
        <ele>251.5</ele>
      </trkpt>
      <trkpt lat="46.41346" lon="4.7705">
        <ele>251.5</ele>
      </trkpt>
      <trkpt lat="46.41342" lon="4.77069">
        <ele>250.9</ele>
      </trkpt>
      <trkpt lat="46.41338" lon="4.77091">
        <ele>249.7</ele>
      </trkpt>
      <trkpt lat="46.41334" lon="4.7712">
        <ele>248.7</ele>
      </trkpt>
      <trkpt lat="46.41329" lon="4.77147">
        <ele>248.1</ele>
      </trkpt>
      <trkpt lat="46.41323" lon="4.7717">
        <ele>247.8</ele>
      </trkpt>
      <trkpt lat="46.41319" lon="4.77185">
        <ele>247</ele>
      </trkpt>
      <trkpt lat="46.41314" lon="4.77198">
        <ele>246.2</ele>
      </trkpt>
      <trkpt lat="46.41306" lon="4.77218">
        <ele>246</ele>
      </trkpt>
      <trkpt lat="46.41303" lon="4.77225">
        <ele>245.8</ele>
      </trkpt>
      <trkpt lat="46.41291" lon="4.77252">
        <ele>244.4</ele>
      </trkpt>
      <trkpt lat="46.41277" lon="4.77284">
        <ele>243.8</ele>
      </trkpt>
      <trkpt lat="46.41267" lon="4.7731">
        <ele>242.6</ele>
      </trkpt>
      <trkpt lat="46.41258" lon="4.77336">
        <ele>242.3</ele>
      </trkpt>
      <trkpt lat="46.41246" lon="4.77379">
        <ele>241.8</ele>
      </trkpt>
      <trkpt lat="46.41234" lon="4.77417">
        <ele>241.5</ele>
      </trkpt>
      <trkpt lat="46.41222" lon="4.77456">
        <ele>242</ele>
      </trkpt>
      <trkpt lat="46.4121" lon="4.77493">
        <ele>242.3</ele>
      </trkpt>
      <trkpt lat="46.41203" lon="4.77515">
        <ele>242.3</ele>
      </trkpt>
      <trkpt lat="46.41199" lon="4.77532">
        <ele>242.3</ele>
      </trkpt>
      <trkpt lat="46.41193" lon="4.77553">
        <ele>242.9</ele>
      </trkpt>
      <trkpt lat="46.41183" lon="4.77604">
        <ele>242.6</ele>
      </trkpt>
      <trkpt lat="46.41179" lon="4.77626">
        <ele>242.4</ele>
      </trkpt>
      <trkpt lat="46.41175" lon="4.77638">
        <ele>242.3</ele>
      </trkpt>
      <trkpt lat="46.41167" lon="4.7766">
        <ele>242</ele>
      </trkpt>
      <trkpt lat="46.41163" lon="4.77676">
        <ele>241.9</ele>
      </trkpt>
      <trkpt lat="46.41157" lon="4.77697">
        <ele>241.6</ele>
      </trkpt>
      <trkpt lat="46.41149" lon="4.77726">
        <ele>241.3</ele>
      </trkpt>
      <trkpt lat="46.41146" lon="4.77739">
        <ele>241.1</ele>
      </trkpt>
      <trkpt lat="46.41138" lon="4.77776">
        <ele>240</ele>
      </trkpt>
      <trkpt lat="46.41137" lon="4.7778">
        <ele>239.9</ele>
      </trkpt>
      <trkpt lat="46.41131" lon="4.77801">
        <ele>239.7</ele>
      </trkpt>
      <trkpt lat="46.41125" lon="4.77821">
        <ele>239</ele>
      </trkpt>
      <trkpt lat="46.41121" lon="4.77838">
        <ele>238.3</ele>
      </trkpt>
      <trkpt lat="46.41116" lon="4.77887">
        <ele>236.9</ele>
      </trkpt>
      <trkpt lat="46.41115" lon="4.77894">
        <ele>236.7</ele>
      </trkpt>
      <trkpt lat="46.41114" lon="4.77915">
        <ele>236</ele>
      </trkpt>
      <trkpt lat="46.41112" lon="4.77956">
        <ele>233.1</ele>
      </trkpt>
      <trkpt lat="46.41112" lon="4.77962">
        <ele>232.7</ele>
      </trkpt>
      <trkpt lat="46.4111" lon="4.77989">
        <ele>230.9</ele>
      </trkpt>
      <trkpt lat="46.4111" lon="4.78016">
        <ele>228.9</ele>
      </trkpt>
      <trkpt lat="46.41111" lon="4.78048">
        <ele>225.8</ele>
      </trkpt>
      <trkpt lat="46.41114" lon="4.78087">
        <ele>223.6</ele>
      </trkpt>
      <trkpt lat="46.41117" lon="4.78112">
        <ele>221.5</ele>
      </trkpt>
      <trkpt lat="46.41118" lon="4.78123">
        <ele>220.3</ele>
      </trkpt>
      <trkpt lat="46.41122" lon="4.78137">
        <ele>218.8</ele>
      </trkpt>
      <trkpt lat="46.41128" lon="4.78154">
        <ele>217.5</ele>
      </trkpt>
      <trkpt lat="46.41131" lon="4.78164">
        <ele>216.7</ele>
      </trkpt>
      <trkpt lat="46.41135" lon="4.78174">
        <ele>216.3</ele>
      </trkpt>
      <trkpt lat="46.41138" lon="4.78184">
        <ele>216.1</ele>
      </trkpt>
      <trkpt lat="46.4114" lon="4.78194">
        <ele>215.9</ele>
      </trkpt>
      <trkpt lat="46.4114" lon="4.78208">
        <ele>215</ele>
      </trkpt>
      <trkpt lat="46.41137" lon="4.78223">
        <ele>214</ele>
      </trkpt>
      <trkpt lat="46.41128" lon="4.78261">
        <ele>213.4</ele>
      </trkpt>
      <trkpt lat="46.41123" lon="4.7828">
        <ele>213.5</ele>
      </trkpt>
      <trkpt lat="46.4112" lon="4.78294">
        <ele>213.1</ele>
      </trkpt>
      <trkpt lat="46.41114" lon="4.78321">
        <ele>212.4</ele>
      </trkpt>
      <trkpt lat="46.4111" lon="4.78345">
        <ele>212</ele>
      </trkpt>
      <trkpt lat="46.41106" lon="4.78369">
        <ele>211.9</ele>
      </trkpt>
      <trkpt lat="46.41104" lon="4.78392">
        <ele>211.7</ele>
      </trkpt>
      <trkpt lat="46.41103" lon="4.78406">
        <ele>211.7</ele>
      </trkpt>
      <trkpt lat="46.41112" lon="4.78416">
        <ele>212</ele>
      </trkpt>
      <trkpt lat="46.41122" lon="4.78424">
        <ele>211.8</ele>
      </trkpt>
      <trkpt lat="46.41132" lon="4.78435">
        <ele>211.8</ele>
      </trkpt>
      <trkpt lat="46.41135" lon="4.78439">
        <ele>211.9</ele>
      </trkpt>
      <trkpt lat="46.41142" lon="4.78446">
        <ele>211.9</ele>
      </trkpt>
      <trkpt lat="46.41144" lon="4.78449">
        <ele>211.7</ele>
      </trkpt>
      <trkpt lat="46.41147" lon="4.78452">
        <ele>211.6</ele>
      </trkpt>
      <trkpt lat="46.41191" lon="4.78501">
        <ele>211.9</ele>
      </trkpt>
      <trkpt lat="46.41205" lon="4.78516">
        <ele>212.2</ele>
      </trkpt>
      <trkpt lat="46.41212" lon="4.78527">
        <ele>212.6</ele>
      </trkpt>
      <trkpt lat="46.41223" lon="4.78539">
        <ele>213</ele>
      </trkpt>
      <trkpt lat="46.41267" lon="4.78574">
        <ele>214.6</ele>
      </trkpt>
      <trkpt lat="46.41323" lon="4.78613">
        <ele>218.3</ele>
      </trkpt>
      <trkpt lat="46.41327" lon="4.78624">
        <ele>218.3</ele>
      </trkpt>
      <trkpt lat="46.41339" lon="4.78645">
        <ele>218.4</ele>
      </trkpt>
      <trkpt lat="46.41352" lon="4.78666">
        <ele>219</ele>
      </trkpt>
      <trkpt lat="46.41373" lon="4.78698">
        <ele>219.4</ele>
      </trkpt>
      <trkpt lat="46.41382" lon="4.78711">
        <ele>219.3</ele>
      </trkpt>
      <trkpt lat="46.41404" lon="4.78745">
        <ele>219.9</ele>
      </trkpt>
      <trkpt lat="46.41413" lon="4.78761">
        <ele>220</ele>
      </trkpt>
      <trkpt lat="46.41419" lon="4.78779">
        <ele>220</ele>
      </trkpt>
      <trkpt lat="46.41427" lon="4.78799">
        <ele>220</ele>
      </trkpt>
      <trkpt lat="46.41436" lon="4.78828">
        <ele>220</ele>
      </trkpt>
      <trkpt lat="46.4144" lon="4.7885">
        <ele>220</ele>
      </trkpt>
      <trkpt lat="46.41442" lon="4.78863">
        <ele>220</ele>
      </trkpt>
      <trkpt lat="46.41442" lon="4.78872">
        <ele>220</ele>
      </trkpt>
      <trkpt lat="46.41443" lon="4.78881">
        <ele>220</ele>
      </trkpt>
      <trkpt lat="46.41444" lon="4.78892">
        <ele>220</ele>
      </trkpt>
      <trkpt lat="46.41446" lon="4.78925">
        <ele>220</ele>
      </trkpt>
      <trkpt lat="46.41449" lon="4.78976">
        <ele>220</ele>
      </trkpt>
      <trkpt lat="46.41457" lon="4.7907">
        <ele>221</ele>
      </trkpt>
      <trkpt lat="46.41457" lon="4.79073">
        <ele>221</ele>
      </trkpt>
      <trkpt lat="46.41464" lon="4.79139">
        <ele>221.7</ele>
      </trkpt>
      <trkpt lat="46.41465" lon="4.79158">
        <ele>221.8</ele>
      </trkpt>
      <trkpt lat="46.41467" lon="4.79175">
        <ele>221.5</ele>
      </trkpt>
      <trkpt lat="46.41467" lon="4.7919">
        <ele>221</ele>
      </trkpt>
      <trkpt lat="46.41467" lon="4.79209">
        <ele>220.8</ele>
      </trkpt>
      <trkpt lat="46.41467" lon="4.7922">
        <ele>220.8</ele>
      </trkpt>
      <trkpt lat="46.41465" lon="4.79239">
        <ele>220.1</ele>
      </trkpt>
      <trkpt lat="46.41463" lon="4.79257">
        <ele>219.6</ele>
      </trkpt>
      <trkpt lat="46.41471" lon="4.79268">
        <ele>219.9</ele>
      </trkpt>
      <trkpt lat="46.4148" lon="4.79274">
        <ele>220.3</ele>
      </trkpt>
      <trkpt lat="46.415" lon="4.79284">
        <ele>221.2</ele>
      </trkpt>
      <trkpt lat="46.41516" lon="4.79289">
        <ele>221.3</ele>
      </trkpt>
      <trkpt lat="46.41521" lon="4.79291">
        <ele>221.1</ele>
      </trkpt>
      <trkpt lat="46.41532" lon="4.79291">
        <ele>221.2</ele>
      </trkpt>
      <trkpt lat="46.41539" lon="4.79289">
        <ele>221.5</ele>
      </trkpt>
      <trkpt lat="46.41544" lon="4.79285">
        <ele>221.8</ele>
      </trkpt>
      <trkpt lat="46.41555" lon="4.79275">
        <ele>222.1</ele>
      </trkpt>
      <trkpt lat="46.41575" lon="4.79258">
        <ele>222.9</ele>
      </trkpt>
      <trkpt lat="46.41578" lon="4.79253">
        <ele>223</ele>
      </trkpt>
      <trkpt lat="46.41579" lon="4.79248">
        <ele>223</ele>
      </trkpt>
      <trkpt lat="46.41595" lon="4.79173">
        <ele>223.9</ele>
      </trkpt>
      <trkpt lat="46.41599" lon="4.79154">
        <ele>224</ele>
      </trkpt>
      <trkpt lat="46.41611" lon="4.79099">
        <ele>224</ele>
      </trkpt>
      <trkpt lat="46.41627" lon="4.79029">
        <ele>223.6</ele>
      </trkpt>
      <trkpt lat="46.41665" lon="4.79051">
        <ele>224</ele>
      </trkpt>
      <trkpt lat="46.41693" lon="4.79069">
        <ele>225</ele>
      </trkpt>
      <trkpt lat="46.41724" lon="4.79089">
        <ele>226.1</ele>
      </trkpt>
      <trkpt lat="46.41806" lon="4.79137">
        <ele>228</ele>
      </trkpt>
      <trkpt lat="46.41812" lon="4.79141">
        <ele>228.2</ele>
      </trkpt>
      <trkpt lat="46.41815" lon="4.79143">
        <ele>228.3</ele>
      </trkpt>
      <trkpt lat="46.41826" lon="4.79151">
        <ele>228.7</ele>
      </trkpt>
      <trkpt lat="46.41842" lon="4.79163">
        <ele>229</ele>
      </trkpt>
      <trkpt lat="46.41855" lon="4.79174">
        <ele>229</ele>
      </trkpt>
      <trkpt lat="46.41862" lon="4.7918">
        <ele>229</ele>
      </trkpt>
      <trkpt lat="46.4187" lon="4.79184">
        <ele>229</ele>
      </trkpt>
      <trkpt lat="46.41878" lon="4.79189">
        <ele>229</ele>
      </trkpt>
      <trkpt lat="46.41898" lon="4.79197">
        <ele>229</ele>
      </trkpt>
      <trkpt lat="46.41939" lon="4.7921">
        <ele>229.4</ele>
      </trkpt>
      <trkpt lat="46.41942" lon="4.79211">
        <ele>229.4</ele>
      </trkpt>
      <trkpt lat="46.41964" lon="4.7922">
        <ele>229.1</ele>
      </trkpt>
      <trkpt lat="46.41975" lon="4.79226">
        <ele>229</ele>
      </trkpt>
      <trkpt lat="46.41987" lon="4.79233">
        <ele>228.8</ele>
      </trkpt>
      <trkpt lat="46.41999" lon="4.79237">
        <ele>228.5</ele>
      </trkpt>
      <trkpt lat="46.42006" lon="4.79238">
        <ele>228.4</ele>
      </trkpt>
      <trkpt lat="46.42046" lon="4.79238">
        <ele>228.4</ele>
      </trkpt>
      <trkpt lat="46.42049" lon="4.79265">
        <ele>227.5</ele>
      </trkpt>
      <trkpt lat="46.42051" lon="4.79298">
        <ele>226.3</ele>
      </trkpt>
      <trkpt lat="46.42052" lon="4.79323">
        <ele>225.4</ele>
      </trkpt>
      <trkpt lat="46.42052" lon="4.79332">
        <ele>225.1</ele>
      </trkpt>
      <trkpt lat="46.42053" lon="4.79374">
        <ele>224</ele>
      </trkpt>
      <trkpt lat="46.42054" lon="4.79417">
        <ele>224</ele>
      </trkpt>
      <trkpt lat="46.42057" lon="4.79446">
        <ele>223.1</ele>
      </trkpt>
      <trkpt lat="46.42058" lon="4.79452">
        <ele>223.2</ele>
      </trkpt>
      <trkpt lat="46.42058" lon="4.79457">
        <ele>223.3</ele>
      </trkpt>
      <trkpt lat="46.42058" lon="4.79461">
        <ele>223.3</ele>
      </trkpt>
      <trkpt lat="46.42059" lon="4.79469">
        <ele>223.4</ele>
      </trkpt>
      <trkpt lat="46.42062" lon="4.79494">
        <ele>224.3</ele>
      </trkpt>
      <trkpt lat="46.42063" lon="4.79501">
        <ele>224.6</ele>
      </trkpt>
      <trkpt lat="46.42065" lon="4.79526">
        <ele>224.7</ele>
      </trkpt>
      <trkpt lat="46.42067" lon="4.79548">
        <ele>225.2</ele>
      </trkpt>
      <trkpt lat="46.42066" lon="4.79572">
        <ele>226</ele>
      </trkpt>
      <trkpt lat="46.42063" lon="4.79602">
        <ele>227.6</ele>
      </trkpt>
      <trkpt lat="46.42058" lon="4.79635">
        <ele>229</ele>
      </trkpt>
      <trkpt lat="46.42055" lon="4.79664">
        <ele>230.8</ele>
      </trkpt>
      <trkpt lat="46.42053" lon="4.79709">
        <ele>234</ele>
      </trkpt>
      <trkpt lat="46.42051" lon="4.7974">
        <ele>236.3</ele>
      </trkpt>
      <trkpt lat="46.4205" lon="4.79746">
        <ele>236.7</ele>
      </trkpt>
      <trkpt lat="46.42046" lon="4.79773">
        <ele>238.6</ele>
      </trkpt>
      <trkpt lat="46.4204" lon="4.79805">
        <ele>241</ele>
      </trkpt>
      <trkpt lat="46.42035" lon="4.79833">
        <ele>243</ele>
      </trkpt>
      <trkpt lat="46.42029" lon="4.79875">
        <ele>245.5</ele>
      </trkpt>
      <trkpt lat="46.42022" lon="4.79922">
        <ele>248.2</ele>
      </trkpt>
      <trkpt lat="46.42015" lon="4.79968">
        <ele>249.9</ele>
      </trkpt>
      <trkpt lat="46.42011" lon="4.8001">
        <ele>250</ele>
      </trkpt>
      <trkpt lat="46.42009" lon="4.80041">
        <ele>250</ele>
      </trkpt>
      <trkpt lat="46.42009" lon="4.80049">
        <ele>250</ele>
      </trkpt>
      <trkpt lat="46.4201" lon="4.8012">
        <ele>248</ele>
      </trkpt>
      <trkpt lat="46.4201" lon="4.80176">
        <ele>245.5</ele>
      </trkpt>
      <trkpt lat="46.4201" lon="4.80205">
        <ele>243.6</ele>
      </trkpt>
      <trkpt lat="46.4201" lon="4.80208">
        <ele>243.4</ele>
      </trkpt>
      <trkpt lat="46.42008" lon="4.80238">
        <ele>241.7</ele>
      </trkpt>
      <trkpt lat="46.42005" lon="4.80285">
        <ele>239.1</ele>
      </trkpt>
      <trkpt lat="46.42001" lon="4.80323">
        <ele>237.4</ele>
      </trkpt>
      <trkpt lat="46.41997" lon="4.80351">
        <ele>236.8</ele>
      </trkpt>
      <trkpt lat="46.41994" lon="4.80376">
        <ele>236.1</ele>
      </trkpt>
      <trkpt lat="46.41993" lon="4.80385">
        <ele>235.8</ele>
      </trkpt>
      <trkpt lat="46.4199" lon="4.80403">
        <ele>235.1</ele>
      </trkpt>
      <trkpt lat="46.41981" lon="4.80467">
        <ele>232.8</ele>
      </trkpt>
      <trkpt lat="46.41967" lon="4.80561">
        <ele>229.8</ele>
      </trkpt>
      <trkpt lat="46.41955" lon="4.80647">
        <ele>228.1</ele>
      </trkpt>
      <trkpt lat="46.41947" lon="4.8069">
        <ele>226.3</ele>
      </trkpt>
      <trkpt lat="46.41938" lon="4.80729">
        <ele>225.1</ele>
      </trkpt>
      <trkpt lat="46.41923" lon="4.80775">
        <ele>222.6</ele>
      </trkpt>
      <trkpt lat="46.41904" lon="4.80838">
        <ele>219.4</ele>
      </trkpt>
      <trkpt lat="46.419" lon="4.80851">
        <ele>218.8</ele>
      </trkpt>
      <trkpt lat="46.41897" lon="4.80861">
        <ele>218.3</ele>
      </trkpt>
      <trkpt lat="46.41895" lon="4.80867">
        <ele>218</ele>
      </trkpt>
      <trkpt lat="46.41887" lon="4.80904">
        <ele>217.5</ele>
      </trkpt>
      <trkpt lat="46.41885" lon="4.8091">
        <ele>217.7</ele>
      </trkpt>
      <trkpt lat="46.41885" lon="4.80913">
        <ele>217.7</ele>
      </trkpt>
      <trkpt lat="46.41883" lon="4.80918">
        <ele>217.8</ele>
      </trkpt>
      <trkpt lat="46.41882" lon="4.80924">
        <ele>217.6</ele>
      </trkpt>
      <trkpt lat="46.41871" lon="4.80959">
        <ele>217.8</ele>
      </trkpt>
      <trkpt lat="46.41867" lon="4.8097">
        <ele>218</ele>
      </trkpt>
      <trkpt lat="46.4186" lon="4.80988">
        <ele>218.6</ele>
      </trkpt>
      <trkpt lat="46.41854" lon="4.81011">
        <ele>219.4</ele>
      </trkpt>
      <trkpt lat="46.41846" lon="4.81054">
        <ele>220.9</ele>
      </trkpt>
      <trkpt lat="46.41841" lon="4.8107">
        <ele>221.2</ele>
      </trkpt>
      <trkpt lat="46.41834" lon="4.8108">
        <ele>221</ele>
      </trkpt>
      <trkpt lat="46.41825" lon="4.81088">
        <ele>221.3</ele>
      </trkpt>
      <trkpt lat="46.41818" lon="4.81095">
        <ele>221.6</ele>
      </trkpt>
      <trkpt lat="46.41815" lon="4.811">
        <ele>221.8</ele>
      </trkpt>
      <trkpt lat="46.41814" lon="4.81106">
        <ele>222.1</ele>
      </trkpt>
      <trkpt lat="46.41813" lon="4.81119">
        <ele>223</ele>
      </trkpt>
      <trkpt lat="46.41816" lon="4.81131">
        <ele>224.3</ele>
      </trkpt>
      <trkpt lat="46.41824" lon="4.81146">
        <ele>225.4</ele>
      </trkpt>
      <trkpt lat="46.41827" lon="4.81154">
        <ele>225.5</ele>
      </trkpt>
      <trkpt lat="46.41824" lon="4.81146">
        <ele>225.4</ele>
      </trkpt>
      <trkpt lat="46.41816" lon="4.81131">
        <ele>224.3</ele>
      </trkpt>
      <trkpt lat="46.41813" lon="4.81119">
        <ele>223</ele>
      </trkpt>
      <trkpt lat="46.41814" lon="4.81106">
        <ele>222.1</ele>
      </trkpt>
      <trkpt lat="46.41815" lon="4.811">
        <ele>221.8</ele>
      </trkpt>
      <trkpt lat="46.41818" lon="4.81095">
        <ele>221.6</ele>
      </trkpt>
      <trkpt lat="46.41825" lon="4.81088">
        <ele>221.3</ele>
      </trkpt>
      <trkpt lat="46.41834" lon="4.8108">
        <ele>221</ele>
      </trkpt>
      <trkpt lat="46.41841" lon="4.8107">
        <ele>221.2</ele>
      </trkpt>
      <trkpt lat="46.41846" lon="4.81054">
        <ele>220.9</ele>
      </trkpt>
      <trkpt lat="46.41854" lon="4.81011">
        <ele>219.4</ele>
      </trkpt>
      <trkpt lat="46.4186" lon="4.80988">
        <ele>218.6</ele>
      </trkpt>
      <trkpt lat="46.41854" lon="4.81011">
        <ele>219.4</ele>
      </trkpt>
      <trkpt lat="46.41846" lon="4.81054">
        <ele>220.9</ele>
      </trkpt>
      <trkpt lat="46.41841" lon="4.8107">
        <ele>221.2</ele>
      </trkpt>
      <trkpt lat="46.41834" lon="4.8108">
        <ele>221</ele>
      </trkpt>
      <trkpt lat="46.41825" lon="4.81088">
        <ele>221.3</ele>
      </trkpt>
      <trkpt lat="46.41818" lon="4.81095">
        <ele>221.6</ele>
      </trkpt>
      <trkpt lat="46.41815" lon="4.811">
        <ele>221.8</ele>
      </trkpt>
      <trkpt lat="46.41814" lon="4.81106">
        <ele>222.1</ele>
      </trkpt>
      <trkpt lat="46.41813" lon="4.81119">
        <ele>223</ele>
      </trkpt>
      <trkpt lat="46.41816" lon="4.81131">
        <ele>224.3</ele>
      </trkpt>
      <trkpt lat="46.41824" lon="4.81146">
        <ele>225.4</ele>
      </trkpt>
      <trkpt lat="46.41827" lon="4.81154">
        <ele>225.5</ele>
      </trkpt>
      <trkpt lat="46.41829" lon="4.81161">
        <ele>225.5</ele>
      </trkpt>
      <trkpt lat="46.41821" lon="4.8116">
        <ele>226.3</ele>
      </trkpt>
      <trkpt lat="46.41816" lon="4.81159">
        <ele>226.7</ele>
      </trkpt>
      <trkpt lat="46.4181" lon="4.81158">
        <ele>227.2</ele>
      </trkpt>
      <trkpt lat="46.41802" lon="4.81156">
        <ele>228.5</ele>
      </trkpt>
      <trkpt lat="46.41791" lon="4.81153">
        <ele>231.5</ele>
      </trkpt>
      <trkpt lat="46.41779" lon="4.81141">
        <ele>233.1</ele>
      </trkpt>
      <trkpt lat="46.41769" lon="4.81128">
        <ele>235.3</ele>
      </trkpt>
      <trkpt lat="46.41762" lon="4.81114">
        <ele>236.5</ele>
      </trkpt>
      <trkpt lat="46.41754" lon="4.81105">
        <ele>238.9</ele>
      </trkpt>
      <trkpt lat="46.4175" lon="4.81106">
        <ele>240.6</ele>
      </trkpt>
      <trkpt lat="46.41745" lon="4.81109">
        <ele>242.2</ele>
      </trkpt>
      <trkpt lat="46.41726" lon="4.81135">
        <ele>247.3</ele>
      </trkpt>
      <trkpt lat="46.4172" lon="4.81144">
        <ele>248.7</ele>
      </trkpt>
      <trkpt lat="46.41713" lon="4.81154">
        <ele>250.1</ele>
      </trkpt>
      <trkpt lat="46.41703" lon="4.81168">
        <ele>251.4</ele>
      </trkpt>
      <trkpt lat="46.41701" lon="4.81182">
        <ele>252.1</ele>
      </trkpt>
      <trkpt lat="46.41699" lon="4.81189">
        <ele>252.5</ele>
      </trkpt>
      <trkpt lat="46.41683" lon="4.81232">
        <ele>254.8</ele>
      </trkpt>
      <trkpt lat="46.41671" lon="4.81264">
        <ele>255.9</ele>
      </trkpt>
      <trkpt lat="46.4167" lon="4.81266">
        <ele>256</ele>
      </trkpt>
      <trkpt lat="46.41647" lon="4.81334">
        <ele>259</ele>
      </trkpt>
      <trkpt lat="46.41636" lon="4.81368">
        <ele>259.9</ele>
      </trkpt>
      <trkpt lat="46.41631" lon="4.81383">
        <ele>259.7</ele>
      </trkpt>
      <trkpt lat="46.41629" lon="4.81391">
        <ele>259.7</ele>
      </trkpt>
      <trkpt lat="46.41618" lon="4.81404">
        <ele>260.2</ele>
      </trkpt>
      <trkpt lat="46.41634" lon="4.81411">
        <ele>260.7</ele>
      </trkpt>
      <trkpt lat="46.41635" lon="4.81411">
        <ele>260.8</ele>
      </trkpt>
      <trkpt lat="46.41682" lon="4.81427">
        <ele>262.4</ele>
      </trkpt>
      <trkpt lat="46.41696" lon="4.81436">
        <ele>262.7</ele>
      </trkpt>
      <trkpt lat="46.41714" lon="4.81451">
        <ele>263</ele>
      </trkpt>
      <trkpt lat="46.41727" lon="4.81459">
        <ele>263</ele>
      </trkpt>
      <trkpt lat="46.41742" lon="4.81465">
        <ele>263.3</ele>
      </trkpt>
      <trkpt lat="46.41763" lon="4.81469">
        <ele>263.3</ele>
      </trkpt>
      <trkpt lat="46.41794" lon="4.81471">
        <ele>262.9</ele>
      </trkpt>
      <trkpt lat="46.41796" lon="4.81484">
        <ele>263.2</ele>
      </trkpt>
      <trkpt lat="46.41794" lon="4.81507">
        <ele>263.6</ele>
      </trkpt>
      <trkpt lat="46.4178" lon="4.81563">
        <ele>264.7</ele>
      </trkpt>
      <trkpt lat="46.41768" lon="4.81588">
        <ele>264</ele>
      </trkpt>
      <trkpt lat="46.41758" lon="4.81619">
        <ele>263.9</ele>
      </trkpt>
      <trkpt lat="46.41748" lon="4.81654">
        <ele>263.4</ele>
      </trkpt>
      <trkpt lat="46.41737" lon="4.81691">
        <ele>262.6</ele>
      </trkpt>
      <trkpt lat="46.41736" lon="4.81695">
        <ele>262.5</ele>
      </trkpt>
      <trkpt lat="46.41726" lon="4.81727">
        <ele>261.2</ele>
      </trkpt>
      <trkpt lat="46.4172" lon="4.81751">
        <ele>260.9</ele>
      </trkpt>
      <trkpt lat="46.41719" lon="4.81772">
        <ele>260.1</ele>
      </trkpt>
      <trkpt lat="46.41719" lon="4.81775">
        <ele>260</ele>
      </trkpt>
      <trkpt lat="46.4172" lon="4.81789">
        <ele>259.9</ele>
      </trkpt>
      <trkpt lat="46.4171" lon="4.81813">
        <ele>258.7</ele>
      </trkpt>
      <trkpt lat="46.41705" lon="4.81823">
        <ele>257.9</ele>
      </trkpt>
      <trkpt lat="46.4166" lon="4.81939">
        <ele>250.8</ele>
      </trkpt>
      <trkpt lat="46.41638" lon="4.82001">
        <ele>247.9</ele>
      </trkpt>
      <trkpt lat="46.41626" lon="4.82035">
        <ele>246.5</ele>
      </trkpt>
      <trkpt lat="46.41566" lon="4.82217">
        <ele>255.7</ele>
      </trkpt>
      <trkpt lat="46.41578" lon="4.82224">
        <ele>256</ele>
      </trkpt>
      <trkpt lat="46.416" lon="4.82235">
        <ele>256.7</ele>
      </trkpt>
      <trkpt lat="46.41611" lon="4.82241">
        <ele>257.3</ele>
      </trkpt>
      <trkpt lat="46.41631" lon="4.8225">
        <ele>258.7</ele>
      </trkpt>
      <trkpt lat="46.41642" lon="4.82253">
        <ele>259.1</ele>
      </trkpt>
      <trkpt lat="46.41655" lon="4.82256">
        <ele>259.4</ele>
      </trkpt>
      <trkpt lat="46.41666" lon="4.8226">
        <ele>259.7</ele>
      </trkpt>
      <trkpt lat="46.41676" lon="4.82265">
        <ele>260.1</ele>
      </trkpt>
      <trkpt lat="46.4168" lon="4.82267">
        <ele>260.2</ele>
      </trkpt>
      <trkpt lat="46.41676" lon="4.82295">
        <ele>261.2</ele>
      </trkpt>
      <trkpt lat="46.41672" lon="4.82315">
        <ele>261.2</ele>
      </trkpt>
      <trkpt lat="46.41665" lon="4.82339">
        <ele>260.7</ele>
      </trkpt>
      <trkpt lat="46.41653" lon="4.8238">
        <ele>259.2</ele>
      </trkpt>
      <trkpt lat="46.41648" lon="4.82395">
        <ele>258.5</ele>
      </trkpt>
      <trkpt lat="46.41644" lon="4.82408">
        <ele>257.7</ele>
      </trkpt>
      <trkpt lat="46.41601" lon="4.82516">
        <ele>250.1</ele>
      </trkpt>
      <trkpt lat="46.41566" lon="4.82605">
        <ele>243.6</ele>
      </trkpt>
      <trkpt lat="46.41547" lon="4.82651">
        <ele>239.8</ele>
      </trkpt>
      <trkpt lat="46.41543" lon="4.82661">
        <ele>239</ele>
      </trkpt>
      <trkpt lat="46.4154" lon="4.82666">
        <ele>238.5</ele>
      </trkpt>
      <trkpt lat="46.41569" lon="4.82692">
        <ele>237.6</ele>
      </trkpt>
      <trkpt lat="46.41571" lon="4.82694">
        <ele>237.6</ele>
      </trkpt>
      <trkpt lat="46.41627" lon="4.8274">
        <ele>237.7</ele>
      </trkpt>
      <trkpt lat="46.41663" lon="4.82767">
        <ele>238.2</ele>
      </trkpt>
      <trkpt lat="46.4167" lon="4.82774">
        <ele>238.2</ele>
      </trkpt>
      <trkpt lat="46.41674" lon="4.82781">
        <ele>238.2</ele>
      </trkpt>
      <trkpt lat="46.41678" lon="4.82793">
        <ele>237.9</ele>
      </trkpt>
      <trkpt lat="46.41684" lon="4.82812">
        <ele>237.2</ele>
      </trkpt>
      <trkpt lat="46.41684" lon="4.82813">
        <ele>237.1</ele>
      </trkpt>
      <trkpt lat="46.4169" lon="4.8282">
        <ele>236.8</ele>
      </trkpt>
      <trkpt lat="46.417" lon="4.82829">
        <ele>236.5</ele>
      </trkpt>
      <trkpt lat="46.41715" lon="4.82839">
        <ele>236.5</ele>
      </trkpt>
      <trkpt lat="46.41729" lon="4.82848">
        <ele>236.6</ele>
      </trkpt>
      <trkpt lat="46.41773" lon="4.82882">
        <ele>237.1</ele>
      </trkpt>
      <trkpt lat="46.41798" lon="4.82901">
        <ele>238.1</ele>
      </trkpt>
      <trkpt lat="46.41821" lon="4.82918">
        <ele>238.5</ele>
      </trkpt>
      <trkpt lat="46.41848" lon="4.82937">
        <ele>239.7</ele>
      </trkpt>
      <trkpt lat="46.4186" lon="4.82947">
        <ele>239.8</ele>
      </trkpt>
      <trkpt lat="46.41868" lon="4.82955">
        <ele>239.3</ele>
      </trkpt>
      <trkpt lat="46.41884" lon="4.82973">
        <ele>238.8</ele>
      </trkpt>
      <trkpt lat="46.41917" lon="4.83012">
        <ele>237.6</ele>
      </trkpt>
      <trkpt lat="46.41945" lon="4.83041">
        <ele>237</ele>
      </trkpt>
      <trkpt lat="46.41968" lon="4.83062">
        <ele>237.6</ele>
      </trkpt>
      <trkpt lat="46.4197" lon="4.83065">
        <ele>237.6</ele>
      </trkpt>
      <trkpt lat="46.41983" lon="4.83078">
        <ele>237.2</ele>
      </trkpt>
      <trkpt lat="46.42003" lon="4.83105">
        <ele>237</ele>
      </trkpt>
      <trkpt lat="46.42017" lon="4.83122">
        <ele>236.8</ele>
      </trkpt>
      <trkpt lat="46.42024" lon="4.83131">
        <ele>236.9</ele>
      </trkpt>
      <trkpt lat="46.42045" lon="4.83157">
        <ele>237.6</ele>
      </trkpt>
      <trkpt lat="46.42053" lon="4.83166">
        <ele>237.9</ele>
      </trkpt>
      <trkpt lat="46.42063" lon="4.83172">
        <ele>237.9</ele>
      </trkpt>
      <trkpt lat="46.42131" lon="4.83214">
        <ele>239</ele>
      </trkpt>
      <trkpt lat="46.42222" lon="4.83264">
        <ele>241</ele>
      </trkpt>
      <trkpt lat="46.42192" lon="4.83338">
        <ele>239.8</ele>
      </trkpt>
      <trkpt lat="46.42145" lon="4.83451">
        <ele>237.2</ele>
      </trkpt>
      <trkpt lat="46.42102" lon="4.83529">
        <ele>236.7</ele>
      </trkpt>
      <trkpt lat="46.42057" lon="4.83605">
        <ele>236</ele>
      </trkpt>
      <trkpt lat="46.42052" lon="4.83607">
        <ele>236</ele>
      </trkpt>
      <trkpt lat="46.42045" lon="4.83608">
        <ele>236</ele>
      </trkpt>
      <trkpt lat="46.4204" lon="4.83605">
        <ele>236</ele>
      </trkpt>
      <trkpt lat="46.42033" lon="4.83598">
        <ele>236</ele>
      </trkpt>
      <trkpt lat="46.42023" lon="4.83587">
        <ele>236</ele>
      </trkpt>
      <trkpt lat="46.42014" lon="4.83579">
        <ele>236</ele>
      </trkpt>
      <trkpt lat="46.42003" lon="4.83573">
        <ele>236</ele>
      </trkpt>
      <trkpt lat="46.41985" lon="4.83566">
        <ele>235.7</ele>
      </trkpt>
      <trkpt lat="46.41966" lon="4.8356">
        <ele>235.1</ele>
      </trkpt>
      <trkpt lat="46.41947" lon="4.83636">
        <ele>236</ele>
      </trkpt>
      <trkpt lat="46.41927" lon="4.83708">
        <ele>236.4</ele>
      </trkpt>
      <trkpt lat="46.41903" lon="4.83793">
        <ele>236.5</ele>
      </trkpt>
      <trkpt lat="46.41885" lon="4.83858">
        <ele>234.1</ele>
      </trkpt>
      <trkpt lat="46.41876" lon="4.8389">
        <ele>231.5</ele>
      </trkpt>
      <trkpt lat="46.41873" lon="4.83915">
        <ele>231.3</ele>
      </trkpt>
      <trkpt lat="46.41869" lon="4.83973">
        <ele>228.8</ele>
      </trkpt>
      <trkpt lat="46.41864" lon="4.84031">
        <ele>226.3</ele>
      </trkpt>
      <trkpt lat="46.4186" lon="4.84074">
        <ele>225.3</ele>
      </trkpt>
      <trkpt lat="46.41861" lon="4.84087">
        <ele>225</ele>
      </trkpt>
      <trkpt lat="46.41865" lon="4.84099">
        <ele>225.2</ele>
      </trkpt>
      <trkpt lat="46.41871" lon="4.84106">
        <ele>225.4</ele>
      </trkpt>
      <trkpt lat="46.41891" lon="4.84116">
        <ele>225.9</ele>
      </trkpt>
      <trkpt lat="46.41901" lon="4.84121">
        <ele>226.4</ele>
      </trkpt>
      <trkpt lat="46.4193" lon="4.84134">
        <ele>227.3</ele>
      </trkpt>
      <trkpt lat="46.4195" lon="4.84145">
        <ele>228.2</ele>
      </trkpt>
      <trkpt lat="46.41956" lon="4.84151">
        <ele>228.2</ele>
      </trkpt>
      <trkpt lat="46.41958" lon="4.84157">
        <ele>228</ele>
      </trkpt>
      <trkpt lat="46.41959" lon="4.84166">
        <ele>227.5</ele>
      </trkpt>
      <trkpt lat="46.41958" lon="4.84185">
        <ele>226.8</ele>
      </trkpt>
      <trkpt lat="46.41952" lon="4.84272">
        <ele>225.1</ele>
      </trkpt>
      <trkpt lat="46.41946" lon="4.84365">
        <ele>224.1</ele>
      </trkpt>
      <trkpt lat="46.41944" lon="4.84397">
        <ele>224</ele>
      </trkpt>
      <trkpt lat="46.41943" lon="4.84413">
        <ele>224</ele>
      </trkpt>
      <trkpt lat="46.41941" lon="4.84464">
        <ele>223.6</ele>
      </trkpt>
      <trkpt lat="46.41935" lon="4.84554">
        <ele>222</ele>
      </trkpt>
      <trkpt lat="46.41935" lon="4.84576">
        <ele>221.8</ele>
      </trkpt>
      <trkpt lat="46.41937" lon="4.84584">
        <ele>221.7</ele>
      </trkpt>
      <trkpt lat="46.41938" lon="4.84591">
        <ele>221.6</ele>
      </trkpt>
      <trkpt lat="46.41944" lon="4.84606">
        <ele>221.2</ele>
      </trkpt>
      <trkpt lat="46.41978" lon="4.84669">
        <ele>221</ele>
      </trkpt>
      <trkpt lat="46.41986" lon="4.84684">
        <ele>221</ele>
      </trkpt>
      <trkpt lat="46.41998" lon="4.84707">
        <ele>221.4</ele>
      </trkpt>
      <trkpt lat="46.42029" lon="4.84768">
        <ele>222</ele>
      </trkpt>
      <trkpt lat="46.42053" lon="4.84814">
        <ele>222</ele>
      </trkpt>
      <trkpt lat="46.4206" lon="4.84826">
        <ele>221.8</ele>
      </trkpt>
      <trkpt lat="46.4208" lon="4.84866">
        <ele>220</ele>
      </trkpt>
      <trkpt lat="46.42101" lon="4.84909">
        <ele>218.1</ele>
      </trkpt>
      <trkpt lat="46.42106" lon="4.84919">
        <ele>217.9</ele>
      </trkpt>
      <trkpt lat="46.42112" lon="4.84939">
        <ele>217.2</ele>
      </trkpt>
      <trkpt lat="46.42117" lon="4.84955">
        <ele>217</ele>
      </trkpt>
      <trkpt lat="46.42152" lon="4.85085">
        <ele>216</ele>
      </trkpt>
      <trkpt lat="46.42157" lon="4.85109">
        <ele>215.4</ele>
      </trkpt>
      <trkpt lat="46.42158" lon="4.85122">
        <ele>215.6</ele>
      </trkpt>
      <trkpt lat="46.42158" lon="4.8513">
        <ele>215.8</ele>
      </trkpt>
      <trkpt lat="46.42144" lon="4.8516">
        <ele>216</ele>
      </trkpt>
      <trkpt lat="46.42133" lon="4.85184">
        <ele>216</ele>
      </trkpt>
      <trkpt lat="46.42128" lon="4.85196">
        <ele>216</ele>
      </trkpt>
      <trkpt lat="46.42122" lon="4.85215">
        <ele>215.6</ele>
      </trkpt>
      <trkpt lat="46.42121" lon="4.85217">
        <ele>215.5</ele>
      </trkpt>
      <trkpt lat="46.42119" lon="4.85233">
        <ele>215.2</ele>
      </trkpt>
      <trkpt lat="46.4212" lon="4.85251">
        <ele>215</ele>
      </trkpt>
      <trkpt lat="46.42125" lon="4.85271">
        <ele>215</ele>
      </trkpt>
      <trkpt lat="46.42131" lon="4.85295">
        <ele>215</ele>
      </trkpt>
      <trkpt lat="46.42134" lon="4.85309">
        <ele>215</ele>
      </trkpt>
      <trkpt lat="46.42135" lon="4.85318">
        <ele>215</ele>
      </trkpt>
      <trkpt lat="46.42137" lon="4.85337">
        <ele>215</ele>
      </trkpt>
      <trkpt lat="46.42136" lon="4.85353">
        <ele>215</ele>
      </trkpt>
      <trkpt lat="46.42133" lon="4.85378">
        <ele>214.5</ele>
      </trkpt>
      <trkpt lat="46.4213" lon="4.85396">
        <ele>214.2</ele>
      </trkpt>
      <trkpt lat="46.42128" lon="4.85407">
        <ele>214.1</ele>
      </trkpt>
      <trkpt lat="46.42125" lon="4.85428">
        <ele>214</ele>
      </trkpt>
      <trkpt lat="46.42124" lon="4.85449">
        <ele>214</ele>
      </trkpt>
      <trkpt lat="46.42123" lon="4.85478">
        <ele>214</ele>
      </trkpt>
      <trkpt lat="46.42122" lon="4.85503">
        <ele>214</ele>
      </trkpt>
      <trkpt lat="46.42118" lon="4.85525">
        <ele>214</ele>
      </trkpt>
      <trkpt lat="46.42111" lon="4.85553">
        <ele>213.1</ele>
      </trkpt>
      <trkpt lat="46.42101" lon="4.85587">
        <ele>213.4</ele>
      </trkpt>
      <trkpt lat="46.42092" lon="4.85619">
        <ele>213.5</ele>
      </trkpt>
      <trkpt lat="46.4208" lon="4.85652">
        <ele>213.1</ele>
      </trkpt>
      <trkpt lat="46.42067" lon="4.85688">
        <ele>213.6</ele>
      </trkpt>
      <trkpt lat="46.42061" lon="4.85707">
        <ele>214.2</ele>
      </trkpt>
      <trkpt lat="46.42045" lon="4.85757">
        <ele>215.6</ele>
      </trkpt>
      <trkpt lat="46.42036" lon="4.85783">
        <ele>217.1</ele>
      </trkpt>
      <trkpt lat="46.42031" lon="4.85807">
        <ele>217.7</ele>
      </trkpt>
      <trkpt lat="46.42024" lon="4.85824">
        <ele>218.4</ele>
      </trkpt>
      <trkpt lat="46.42016" lon="4.85865">
        <ele>219.3</ele>
      </trkpt>
      <trkpt lat="46.42014" lon="4.85875">
        <ele>219.5</ele>
      </trkpt>
      <trkpt lat="46.42007" lon="4.85867">
        <ele>220.3</ele>
      </trkpt>
      <trkpt lat="46.42002" lon="4.85854">
        <ele>220.7</ele>
      </trkpt>
      <trkpt lat="46.42003" lon="4.85839">
        <ele>220.7</ele>
      </trkpt>
      <trkpt lat="46.42003" lon="4.85814">
        <ele>220.6</ele>
      </trkpt>
      <trkpt lat="46.41998" lon="4.85795">
        <ele>222</ele>
      </trkpt>
      <trkpt lat="46.41991" lon="4.85781">
        <ele>223.5</ele>
      </trkpt>
      <trkpt lat="46.41984" lon="4.85774">
        <ele>224</ele>
      </trkpt>
      <trkpt lat="46.41976" lon="4.85766">
        <ele>224.6</ele>
      </trkpt>
      <trkpt lat="46.41951" lon="4.85748">
        <ele>226.8</ele>
      </trkpt>
      <trkpt lat="46.41902" lon="4.85726">
        <ele>230.6</ele>
      </trkpt>
      <trkpt lat="46.41886" lon="4.85717">
        <ele>231.7</ele>
      </trkpt>
      <trkpt lat="46.4186" lon="4.85704">
        <ele>232.4</ele>
      </trkpt>
      <trkpt lat="46.41829" lon="4.8569">
        <ele>234.8</ele>
      </trkpt>
      <trkpt lat="46.41815" lon="4.85685">
        <ele>235.4</ele>
      </trkpt>
      <trkpt lat="46.41803" lon="4.85683">
        <ele>235.9</ele>
      </trkpt>
      <trkpt lat="46.41782" lon="4.8568">
        <ele>236.8</ele>
      </trkpt>
      <trkpt lat="46.41775" lon="4.85679">
        <ele>237.3</ele>
      </trkpt>
      <trkpt lat="46.41746" lon="4.85674">
        <ele>239.7</ele>
      </trkpt>
      <trkpt lat="46.41739" lon="4.85673">
        <ele>240.2</ele>
      </trkpt>
      <trkpt lat="46.41724" lon="4.8567">
        <ele>241.1</ele>
      </trkpt>
      <trkpt lat="46.41705" lon="4.85668">
        <ele>241</ele>
      </trkpt>
      <trkpt lat="46.41696" lon="4.85667">
        <ele>241</ele>
      </trkpt>
      <trkpt lat="46.41686" lon="4.85666">
        <ele>240.6</ele>
      </trkpt>
      <trkpt lat="46.41675" lon="4.85667">
        <ele>240.3</ele>
      </trkpt>
      <trkpt lat="46.4166" lon="4.85667">
        <ele>240</ele>
      </trkpt>
      <trkpt lat="46.41635" lon="4.85662">
        <ele>239.2</ele>
      </trkpt>
      <trkpt lat="46.41607" lon="4.85661">
        <ele>237.1</ele>
      </trkpt>
      <trkpt lat="46.41592" lon="4.85658">
        <ele>236.3</ele>
      </trkpt>
      <trkpt lat="46.41577" lon="4.85649">
        <ele>235.3</ele>
      </trkpt>
      <trkpt lat="46.41559" lon="4.85627">
        <ele>232.9</ele>
      </trkpt>
      <trkpt lat="46.41551" lon="4.85616">
        <ele>231.1</ele>
      </trkpt>
      <trkpt lat="46.41546" lon="4.8561">
        <ele>230.1</ele>
      </trkpt>
      <trkpt lat="46.41535" lon="4.8561">
        <ele>230.6</ele>
      </trkpt>
      <trkpt lat="46.41522" lon="4.85611">
        <ele>231.2</ele>
      </trkpt>
      <trkpt lat="46.41509" lon="4.85612">
        <ele>231.8</ele>
      </trkpt>
      <trkpt lat="46.41498" lon="4.85607">
        <ele>231.4</ele>
      </trkpt>
      <trkpt lat="46.41473" lon="4.85593">
        <ele>230.4</ele>
      </trkpt>
      <trkpt lat="46.41447" lon="4.85577">
        <ele>230.3</ele>
      </trkpt>
      <trkpt lat="46.41432" lon="4.85566">
        <ele>230.3</ele>
      </trkpt>
      <trkpt lat="46.41417" lon="4.85555">
        <ele>230.8</ele>
      </trkpt>
      <trkpt lat="46.41409" lon="4.85549">
        <ele>230.7</ele>
      </trkpt>
      <trkpt lat="46.41399" lon="4.85544">
        <ele>231.1</ele>
      </trkpt>
      <trkpt lat="46.41386" lon="4.85539">
        <ele>232.1</ele>
      </trkpt>
      <trkpt lat="46.41377" lon="4.85538">
        <ele>233.4</ele>
      </trkpt>
      <trkpt lat="46.4137" lon="4.85537">
        <ele>234.5</ele>
      </trkpt>
      <trkpt lat="46.41358" lon="4.85527">
        <ele>235.4</ele>
      </trkpt>
      <trkpt lat="46.41331" lon="4.855">
        <ele>235.3</ele>
      </trkpt>
      <trkpt lat="46.41314" lon="4.85482">
        <ele>235.9</ele>
      </trkpt>
      <trkpt lat="46.4128" lon="4.85456">
        <ele>237.3</ele>
      </trkpt>
      <trkpt lat="46.41255" lon="4.8544">
        <ele>238</ele>
      </trkpt>
      <trkpt lat="46.41247" lon="4.85436">
        <ele>238.3</ele>
      </trkpt>
      <trkpt lat="46.41236" lon="4.85431">
        <ele>238.3</ele>
      </trkpt>
      <trkpt lat="46.41218" lon="4.85428">
        <ele>239.1</ele>
      </trkpt>
      <trkpt lat="46.41199" lon="4.85428">
        <ele>240.5</ele>
      </trkpt>
      <trkpt lat="46.41178" lon="4.85432">
        <ele>242</ele>
      </trkpt>
      <trkpt lat="46.41166" lon="4.85438">
        <ele>243.4</ele>
      </trkpt>
      <trkpt lat="46.41152" lon="4.85454">
        <ele>245.2</ele>
      </trkpt>
      <trkpt lat="46.41153" lon="4.85458">
        <ele>245.3</ele>
      </trkpt>
      <trkpt lat="46.41158" lon="4.85477">
        <ele>245.8</ele>
      </trkpt>
      <trkpt lat="46.41162" lon="4.85491">
        <ele>246.3</ele>
      </trkpt>
      <trkpt lat="46.41164" lon="4.85525">
        <ele>246.7</ele>
      </trkpt>
      <trkpt lat="46.41164" lon="4.85547">
        <ele>248.7</ele>
      </trkpt>
      <trkpt lat="46.41164" lon="4.8556">
        <ele>249.1</ele>
      </trkpt>
      <trkpt lat="46.41163" lon="4.85565">
        <ele>248.7</ele>
      </trkpt>
      <trkpt lat="46.41161" lon="4.85583">
        <ele>247.8</ele>
      </trkpt>
      <trkpt lat="46.41162" lon="4.85591">
        <ele>248.5</ele>
      </trkpt>
      <trkpt lat="46.41163" lon="4.85597">
        <ele>249.2</ele>
      </trkpt>
      <trkpt lat="46.4117" lon="4.85612">
        <ele>251</ele>
      </trkpt>
      <trkpt lat="46.41177" lon="4.85621">
        <ele>250.7</ele>
      </trkpt>
      <trkpt lat="46.41196" lon="4.85631">
        <ele>250.4</ele>
      </trkpt>
      <trkpt lat="46.41205" lon="4.85633">
        <ele>249.3</ele>
      </trkpt>
      <trkpt lat="46.4121" lon="4.85634">
        <ele>248.8</ele>
      </trkpt>
      <trkpt lat="46.41221" lon="4.85635">
        <ele>248.5</ele>
      </trkpt>
      <trkpt lat="46.41255" lon="4.85645">
        <ele>249.7</ele>
      </trkpt>
      <trkpt lat="46.41279" lon="4.85657">
        <ele>248.5</ele>
      </trkpt>
      <trkpt lat="46.41291" lon="4.85671">
        <ele>249.6</ele>
      </trkpt>
      <trkpt lat="46.41296" lon="4.8568">
        <ele>249.8</ele>
      </trkpt>
      <trkpt lat="46.41301" lon="4.85694">
        <ele>250</ele>
      </trkpt>
      <trkpt lat="46.41292" lon="4.85705">
        <ele>249.6</ele>
      </trkpt>
      <trkpt lat="46.4128" lon="4.85732">
        <ele>247.5</ele>
      </trkpt>
      <trkpt lat="46.41267" lon="4.85769">
        <ele>244.5</ele>
      </trkpt>
      <trkpt lat="46.41256" lon="4.858">
        <ele>242</ele>
      </trkpt>
      <trkpt lat="46.41256" lon="4.85802">
        <ele>241.9</ele>
      </trkpt>
      <trkpt lat="46.41255" lon="4.85805">
        <ele>241.7</ele>
      </trkpt>
      <trkpt lat="46.41244" lon="4.85846">
        <ele>236.5</ele>
      </trkpt>
      <trkpt lat="46.41238" lon="4.85871">
        <ele>234.7</ele>
      </trkpt>
      <trkpt lat="46.41233" lon="4.85893">
        <ele>232.8</ele>
      </trkpt>
      <trkpt lat="46.41228" lon="4.85899">
        <ele>231.9</ele>
      </trkpt>
      <trkpt lat="46.4122" lon="4.859">
        <ele>231.1</ele>
      </trkpt>
      <trkpt lat="46.41214" lon="4.859">
        <ele>231</ele>
      </trkpt>
      <trkpt lat="46.41205" lon="4.85898">
        <ele>230.9</ele>
      </trkpt>
      <trkpt lat="46.41189" lon="4.85888">
        <ele>230.6</ele>
      </trkpt>
      <trkpt lat="46.41186" lon="4.85887">
        <ele>230.5</ele>
      </trkpt>
      <trkpt lat="46.41155" lon="4.85866">
        <ele>229.3</ele>
      </trkpt>
      <trkpt lat="46.41115" lon="4.85837">
        <ele>228.3</ele>
      </trkpt>
      <trkpt lat="46.41072" lon="4.85808">
        <ele>228</ele>
      </trkpt>
      <trkpt lat="46.41031" lon="4.85779">
        <ele>227.1</ele>
      </trkpt>
      <trkpt lat="46.41012" lon="4.8577">
        <ele>225.5</ele>
      </trkpt>
      <trkpt lat="46.40992" lon="4.85761">
        <ele>223</ele>
      </trkpt>
      <trkpt lat="46.40985" lon="4.8576">
        <ele>222.1</ele>
      </trkpt>
      <trkpt lat="46.40982" lon="4.85759">
        <ele>221.9</ele>
      </trkpt>
      <trkpt lat="46.40981" lon="4.85759">
        <ele>221.8</ele>
      </trkpt>
      <trkpt lat="46.40958" lon="4.85753">
        <ele>219.8</ele>
      </trkpt>
      <trkpt lat="46.40933" lon="4.8575">
        <ele>217.3</ele>
      </trkpt>
      <trkpt lat="46.40907" lon="4.85747">
        <ele>213.8</ele>
      </trkpt>
      <trkpt lat="46.40878" lon="4.8574">
        <ele>209.7</ele>
      </trkpt>
      <trkpt lat="46.40839" lon="4.85727">
        <ele>205.2</ele>
      </trkpt>
      <trkpt lat="46.40814" lon="4.85715">
        <ele>201.2</ele>
      </trkpt>
      <trkpt lat="46.40809" lon="4.85713">
        <ele>200.3</ele>
      </trkpt>
      <trkpt lat="46.40803" lon="4.8571">
        <ele>199.6</ele>
      </trkpt>
      <trkpt lat="46.40792" lon="4.85703">
        <ele>198.2</ele>
      </trkpt>
      <trkpt lat="46.4078" lon="4.85693">
        <ele>195.7</ele>
      </trkpt>
      <trkpt lat="46.40732" lon="4.85648">
        <ele>188.4</ele>
      </trkpt>
      <trkpt lat="46.40713" lon="4.85631">
        <ele>185.2</ele>
      </trkpt>
      <trkpt lat="46.40706" lon="4.85625">
        <ele>184.6</ele>
      </trkpt>
      <trkpt lat="46.4068" lon="4.85606">
        <ele>181.8</ele>
      </trkpt>
      <trkpt lat="46.40663" lon="4.85594">
        <ele>181.2</ele>
      </trkpt>
      <trkpt lat="46.40649" lon="4.85589">
        <ele>181.2</ele>
      </trkpt>
      <trkpt lat="46.40647" lon="4.85617">
        <ele>180.6</ele>
      </trkpt>
      <trkpt lat="46.40647" lon="4.85631">
        <ele>180.4</ele>
      </trkpt>
      <trkpt lat="46.40645" lon="4.85665">
        <ele>180.7</ele>
      </trkpt>
      <trkpt lat="46.40646" lon="4.85676">
        <ele>181.3</ele>
      </trkpt>
      <trkpt lat="46.40646" lon="4.85677">
        <ele>181.4</ele>
      </trkpt>
      <trkpt lat="46.40645" lon="4.85688">
        <ele>182</ele>
      </trkpt>
      <trkpt lat="46.40645" lon="4.8569">
        <ele>182.1</ele>
      </trkpt>
      <trkpt lat="46.40645" lon="4.85704">
        <ele>182.4</ele>
      </trkpt>
      <trkpt lat="46.40644" lon="4.85728">
        <ele>182.3</ele>
      </trkpt>
      <trkpt lat="46.40645" lon="4.85738">
        <ele>181.9</ele>
      </trkpt>
      <trkpt lat="46.40645" lon="4.85749">
        <ele>181.5</ele>
      </trkpt>
      <trkpt lat="46.40646" lon="4.85761">
        <ele>180.8</ele>
      </trkpt>
      <trkpt lat="46.40649" lon="4.85784">
        <ele>179.6</ele>
      </trkpt>
      <trkpt lat="46.40649" lon="4.85789">
        <ele>179.6</ele>
      </trkpt>
      <trkpt lat="46.40658" lon="4.85829">
        <ele>179.9</ele>
      </trkpt>
      <trkpt lat="46.40667" lon="4.85861">
        <ele>181</ele>
      </trkpt>
      <trkpt lat="46.40676" lon="4.85892">
        <ele>180.9</ele>
      </trkpt>
      <trkpt lat="46.4069" lon="4.85928">
        <ele>181.1</ele>
      </trkpt>
      <trkpt lat="46.40705" lon="4.85965">
        <ele>181.9</ele>
      </trkpt>
      <trkpt lat="46.40713" lon="4.85994">
        <ele>181.8</ele>
      </trkpt>
      <trkpt lat="46.40718" lon="4.86018">
        <ele>181.9</ele>
      </trkpt>
      <trkpt lat="46.40719" lon="4.86027">
        <ele>181.9</ele>
      </trkpt>
      <trkpt lat="46.4072" lon="4.86039">
        <ele>181.5</ele>
      </trkpt>
      <trkpt lat="46.40722" lon="4.86061">
        <ele>181</ele>
      </trkpt>
      <trkpt lat="46.40722" lon="4.86065">
        <ele>181</ele>
      </trkpt>
      <trkpt lat="46.40723" lon="4.86068">
        <ele>181</ele>
      </trkpt>
      <trkpt lat="46.40724" lon="4.86085">
        <ele>181.1</ele>
      </trkpt>
      <trkpt lat="46.40724" lon="4.86097">
        <ele>181.2</ele>
      </trkpt>
      <trkpt lat="46.40726" lon="4.86136">
        <ele>180.4</ele>
      </trkpt>
      <trkpt lat="46.40728" lon="4.86179">
        <ele>180.4</ele>
      </trkpt>
      <trkpt lat="46.40731" lon="4.86215">
        <ele>180.6</ele>
      </trkpt>
      <trkpt lat="46.40733" lon="4.86248">
        <ele>180.7</ele>
      </trkpt>
      <trkpt lat="46.40733" lon="4.86277">
        <ele>180.8</ele>
      </trkpt>
      <trkpt lat="46.40733" lon="4.86283">
        <ele>180.8</ele>
      </trkpt>
      <trkpt lat="46.40733" lon="4.86307">
        <ele>180.8</ele>
      </trkpt>
      <trkpt lat="46.40731" lon="4.8634">
        <ele>180.7</ele>
      </trkpt>
      <trkpt lat="46.40728" lon="4.86371">
        <ele>180.8</ele>
      </trkpt>
      <trkpt lat="46.40728" lon="4.86374">
        <ele>180.9</ele>
      </trkpt>
      <trkpt lat="46.40726" lon="4.86389">
        <ele>181.1</ele>
      </trkpt>
      <trkpt lat="46.40726" lon="4.86394">
        <ele>181.1</ele>
      </trkpt>
      <trkpt lat="46.40727" lon="4.86421">
        <ele>181.2</ele>
      </trkpt>
      <trkpt lat="46.40728" lon="4.86446">
        <ele>181.2</ele>
      </trkpt>
      <trkpt lat="46.40728" lon="4.86453">
        <ele>181.2</ele>
      </trkpt>
      <trkpt lat="46.40728" lon="4.86469">
        <ele>181.2</ele>
      </trkpt>
      <trkpt lat="46.40727" lon="4.865">
        <ele>181.2</ele>
      </trkpt>
      <trkpt lat="46.40726" lon="4.86506">
        <ele>181.1</ele>
      </trkpt>
      <trkpt lat="46.40724" lon="4.86516">
        <ele>181.1</ele>
      </trkpt>
      <trkpt lat="46.4072" lon="4.86532">
        <ele>180.9</ele>
      </trkpt>
      <trkpt lat="46.40715" lon="4.86543">
        <ele>180.7</ele>
      </trkpt>
      <trkpt lat="46.407" lon="4.86568">
        <ele>180.2</ele>
      </trkpt>
      <trkpt lat="46.40686" lon="4.86604">
        <ele>179.7</ele>
      </trkpt>
      <trkpt lat="46.40684" lon="4.86608">
        <ele>179.6</ele>
      </trkpt>
      <trkpt lat="46.40664" lon="4.8666">
        <ele>179.7</ele>
      </trkpt>
      <trkpt lat="46.40654" lon="4.8669">
        <ele>179.5</ele>
      </trkpt>
      <trkpt lat="46.40639" lon="4.86733">
        <ele>179</ele>
      </trkpt>
      <trkpt lat="46.40623" lon="4.86781">
        <ele>179.4</ele>
      </trkpt>
      <trkpt lat="46.40619" lon="4.86792">
        <ele>179.3</ele>
      </trkpt>
      <trkpt lat="46.406" lon="4.8685">
        <ele>178.6</ele>
      </trkpt>
      <trkpt lat="46.40583" lon="4.86901">
        <ele>179.4</ele>
      </trkpt>
      <trkpt lat="46.4058" lon="4.86906">
        <ele>179.4</ele>
      </trkpt>
      <trkpt lat="46.40575" lon="4.86913">
        <ele>179.3</ele>
      </trkpt>
      <trkpt lat="46.40581" lon="4.8692">
        <ele>179.9</ele>
      </trkpt>
      <trkpt lat="46.40599" lon="4.86931">
        <ele>182</ele>
      </trkpt>
      <trkpt lat="46.40635" lon="4.86946">
        <ele>185.8</ele>
      </trkpt>
      <trkpt lat="46.40666" lon="4.86957">
        <ele>188</ele>
      </trkpt>
      <trkpt lat="46.40681" lon="4.86963">
        <ele>189</ele>
      </trkpt>
      <trkpt lat="46.40723" lon="4.86978">
        <ele>191.1</ele>
      </trkpt>
      <trkpt lat="46.40753" lon="4.86987">
        <ele>193</ele>
      </trkpt>
      <trkpt lat="46.40774" lon="4.86993">
        <ele>193.2</ele>
      </trkpt>
      <trkpt lat="46.40785" lon="4.86996">
        <ele>193.4</ele>
      </trkpt>
      <trkpt lat="46.408" lon="4.87005">
        <ele>193.6</ele>
      </trkpt>
      <trkpt lat="46.4082" lon="4.87014">
        <ele>193</ele>
      </trkpt>
      <trkpt lat="46.40827" lon="4.87017">
        <ele>192.6</ele>
      </trkpt>
      <trkpt lat="46.40832" lon="4.87019">
        <ele>192.4</ele>
      </trkpt>
      <trkpt lat="46.40842" lon="4.87023">
        <ele>192.2</ele>
      </trkpt>
      <trkpt lat="46.40845" lon="4.87041">
        <ele>191.7</ele>
      </trkpt>
      <trkpt lat="46.40846" lon="4.87065">
        <ele>191.1</ele>
      </trkpt>
      <trkpt lat="46.40844" lon="4.87092">
        <ele>190</ele>
      </trkpt>
      <trkpt lat="46.40843" lon="4.87112">
        <ele>189</ele>
      </trkpt>
      <trkpt lat="46.40844" lon="4.87132">
        <ele>187.9</ele>
      </trkpt>
      <trkpt lat="46.40849" lon="4.87147">
        <ele>186.4</ele>
      </trkpt>
      <trkpt lat="46.40853" lon="4.87153">
        <ele>185.5</ele>
      </trkpt>
      <trkpt lat="46.40853" lon="4.87184">
        <ele>183</ele>
      </trkpt>
      <trkpt lat="46.40851" lon="4.87204">
        <ele>181.8</ele>
      </trkpt>
      <trkpt lat="46.40849" lon="4.87218">
        <ele>180.4</ele>
      </trkpt>
      <trkpt lat="46.40848" lon="4.87228">
        <ele>179.5</ele>
      </trkpt>
      <trkpt lat="46.40847" lon="4.87236">
        <ele>178.7</ele>
      </trkpt>
      <trkpt lat="46.40846" lon="4.87241">
        <ele>178.3</ele>
      </trkpt>
      <trkpt lat="46.40844" lon="4.87251">
        <ele>177.4</ele>
      </trkpt>
      <trkpt lat="46.4084" lon="4.87264">
        <ele>176.9</ele>
      </trkpt>
      <trkpt lat="46.40825" lon="4.87283">
        <ele>176.3</ele>
      </trkpt>
      <trkpt lat="46.40816" lon="4.87296">
        <ele>176</ele>
      </trkpt>
      <trkpt lat="46.40806" lon="4.87309">
        <ele>175.2</ele>
      </trkpt>
      <trkpt lat="46.40797" lon="4.87323">
        <ele>175.6</ele>
      </trkpt>
      <trkpt lat="46.40783" lon="4.87354">
        <ele>175.2</ele>
      </trkpt>
      <trkpt lat="46.40767" lon="4.87386">
        <ele>174.6</ele>
      </trkpt>
      <trkpt lat="46.40779" lon="4.8741">
        <ele>174.3</ele>
      </trkpt>
      <trkpt lat="46.40781" lon="4.87412">
        <ele>174.2</ele>
      </trkpt>
      <trkpt lat="46.40788" lon="4.87422">
        <ele>174.5</ele>
      </trkpt>
      <trkpt lat="46.40798" lon="4.8743">
        <ele>174.9</ele>
      </trkpt>
      <trkpt lat="46.40833" lon="4.87448">
        <ele>175</ele>
      </trkpt>
      <trkpt lat="46.40875" lon="4.87467">
        <ele>175.1</ele>
      </trkpt>
      <trkpt lat="46.40886" lon="4.87473">
        <ele>175</ele>
      </trkpt>
      <trkpt lat="46.40887" lon="4.87462">
        <ele>175</ele>
      </trkpt>
      <trkpt lat="46.40886" lon="4.87473">
        <ele>175</ele>
      </trkpt>
      <trkpt lat="46.4089" lon="4.87478">
        <ele>175</ele>
      </trkpt>
      <trkpt lat="46.40896" lon="4.87484">
        <ele>175</ele>
      </trkpt>
      <trkpt lat="46.40898" lon="4.87492">
        <ele>175</ele>
      </trkpt>
      <trkpt lat="46.40901" lon="4.87506">
        <ele>175</ele>
      </trkpt>
      <trkpt lat="46.40902" lon="4.87524">
        <ele>175</ele>
      </trkpt>
      <trkpt lat="46.40901" lon="4.87562">
        <ele>175</ele>
      </trkpt>
      <trkpt lat="46.40901" lon="4.87568">
        <ele>175</ele>
      </trkpt>
      <trkpt lat="46.40899" lon="4.87573">
        <ele>175</ele>
      </trkpt>
      <trkpt lat="46.40896" lon="4.87593">
        <ele>174.9</ele>
      </trkpt>
      <trkpt lat="46.40896" lon="4.87607">
        <ele>174.8</ele>
      </trkpt>
      <trkpt lat="46.40894" lon="4.8762">
        <ele>174.6</ele>
      </trkpt>
      <trkpt lat="46.40892" lon="4.87634">
        <ele>174.1</ele>
      </trkpt>
      <trkpt lat="46.40889" lon="4.87643">
        <ele>174</ele>
      </trkpt>
      <trkpt lat="46.40886" lon="4.87651">
        <ele>174.1</ele>
      </trkpt>
      <trkpt lat="46.40879" lon="4.87657">
        <ele>174.1</ele>
      </trkpt>
      <trkpt lat="46.40868" lon="4.87664">
        <ele>174.1</ele>
      </trkpt>
      <trkpt lat="46.40862" lon="4.8767">
        <ele>174</ele>
      </trkpt>
      <trkpt lat="46.40857" lon="4.87675">
        <ele>174.1</ele>
      </trkpt>
      <trkpt lat="46.40854" lon="4.87683">
        <ele>174.3</ele>
      </trkpt>
      <trkpt lat="46.40854" lon="4.87684">
        <ele>174.3</ele>
      </trkpt>
      <trkpt lat="46.4085" lon="4.8771">
        <ele>174.4</ele>
      </trkpt>
      <trkpt lat="46.4085" lon="4.87748">
        <ele>174.4</ele>
      </trkpt>
      <trkpt lat="46.40849" lon="4.87771">
        <ele>174.4</ele>
      </trkpt>
      <trkpt lat="46.40848" lon="4.87778">
        <ele>174.5</ele>
      </trkpt>
      <trkpt lat="46.40844" lon="4.87784">
        <ele>174.5</ele>
      </trkpt>
      <trkpt lat="46.40835" lon="4.87792">
        <ele>174.4</ele>
      </trkpt>
      <trkpt lat="46.40825" lon="4.87802">
        <ele>173.5</ele>
      </trkpt>
      <trkpt lat="46.40822" lon="4.87806">
        <ele>173.2</ele>
      </trkpt>
      <trkpt lat="46.40819" lon="4.87814">
        <ele>173</ele>
      </trkpt>
      <trkpt lat="46.40816" lon="4.87825">
        <ele>172.8</ele>
      </trkpt>
      <trkpt lat="46.4081" lon="4.87862">
        <ele>173.1</ele>
      </trkpt>
      <trkpt lat="46.40808" lon="4.87873">
        <ele>173.1</ele>
      </trkpt>
      <trkpt lat="46.40809" lon="4.87882">
        <ele>173.1</ele>
      </trkpt>
      <trkpt lat="46.40812" lon="4.87917">
        <ele>173.2</ele>
      </trkpt>
      <trkpt lat="46.40826" lon="4.87999">
        <ele>173.7</ele>
      </trkpt>
      <trkpt lat="46.40837" lon="4.88052">
        <ele>173</ele>
      </trkpt>
      <trkpt lat="46.40839" lon="4.88064">
        <ele>173</ele>
      </trkpt>
      <trkpt lat="46.40843" lon="4.88075">
        <ele>173</ele>
      </trkpt>
      <trkpt lat="46.40849" lon="4.88092">
        <ele>173</ele>
      </trkpt>
      <trkpt lat="46.40856" lon="4.88116">
        <ele>173</ele>
      </trkpt>
      <trkpt lat="46.40859" lon="4.88125">
        <ele>173</ele>
      </trkpt>
      <trkpt lat="46.4086" lon="4.88135">
        <ele>173</ele>
      </trkpt>
      <trkpt lat="46.40861" lon="4.88156">
        <ele>173</ele>
      </trkpt>
      <trkpt lat="46.40862" lon="4.88209">
        <ele>173</ele>
      </trkpt>
      <trkpt lat="46.40863" lon="4.88253">
        <ele>173</ele>
      </trkpt>
      <trkpt lat="46.40864" lon="4.88264">
        <ele>173</ele>
      </trkpt>
      <trkpt lat="46.40866" lon="4.88282">
        <ele>172.9</ele>
      </trkpt>
      <trkpt lat="46.4087" lon="4.88297">
        <ele>172.5</ele>
      </trkpt>
      <trkpt lat="46.40877" lon="4.8831">
        <ele>172.4</ele>
      </trkpt>
      <trkpt lat="46.40882" lon="4.8832">
        <ele>172.5</ele>
      </trkpt>
      <trkpt lat="46.40898" lon="4.8834">
        <ele>172.6</ele>
      </trkpt>
      <trkpt lat="46.40903" lon="4.88346">
        <ele>172.5</ele>
      </trkpt>
      <trkpt lat="46.40907" lon="4.88352">
        <ele>172.7</ele>
      </trkpt>
      <trkpt lat="46.4093" lon="4.88384">
        <ele>173.1</ele>
      </trkpt>
      <trkpt lat="46.40961" lon="4.88431">
        <ele>172.5</ele>
      </trkpt>
      <trkpt lat="46.40968" lon="4.88441">
        <ele>172.8</ele>
      </trkpt>
      <trkpt lat="46.40972" lon="4.88448">
        <ele>173</ele>
      </trkpt>
      <trkpt lat="46.40975" lon="4.88455">
        <ele>173</ele>
      </trkpt>
      <trkpt lat="46.4098" lon="4.8848">
        <ele>172.3</ele>
      </trkpt>
      <trkpt lat="46.40989" lon="4.88519">
        <ele>172</ele>
      </trkpt>
      <trkpt lat="46.40994" lon="4.88538">
        <ele>172.5</ele>
      </trkpt>
      <trkpt lat="46.40996" lon="4.8855">
        <ele>172.6</ele>
      </trkpt>
      <trkpt lat="46.40996" lon="4.88555">
        <ele>172.6</ele>
      </trkpt>
      <trkpt lat="46.41005" lon="4.88563">
        <ele>172.7</ele>
      </trkpt>
      <trkpt lat="46.41009" lon="4.88567">
        <ele>172.5</ele>
      </trkpt>
      <trkpt lat="46.41019" lon="4.88577">
        <ele>172.2</ele>
      </trkpt>
      <trkpt lat="46.41033" lon="4.88584">
        <ele>172.2</ele>
      </trkpt>
      <trkpt lat="46.41049" lon="4.88585">
        <ele>172.7</ele>
      </trkpt>
      <trkpt lat="46.41189" lon="4.88567">
        <ele>173.6</ele>
      </trkpt>
      <trkpt lat="46.41402" lon="4.88587">
        <ele>173</ele>
      </trkpt>
      <trkpt lat="46.41504" lon="4.8861">
        <ele>173</ele>
      </trkpt>
      <trkpt lat="46.4169" lon="4.88669">
        <ele>172.8</ele>
      </trkpt>
      <trkpt lat="46.41707" lon="4.88671">
        <ele>173.1</ele>
      </trkpt>
      <trkpt lat="46.41723" lon="4.88672">
        <ele>173.6</ele>
      </trkpt>
      <trkpt lat="46.41732" lon="4.88672">
        <ele>173.4</ele>
      </trkpt>
      <trkpt lat="46.41736" lon="4.88672">
        <ele>173.3</ele>
      </trkpt>
      <trkpt lat="46.41741" lon="4.88671">
        <ele>173.2</ele>
      </trkpt>
      <trkpt lat="46.41742" lon="4.88671">
        <ele>173.2</ele>
      </trkpt>
      <trkpt lat="46.41748" lon="4.88671">
        <ele>173.1</ele>
      </trkpt>
      <trkpt lat="46.41756" lon="4.88676">
        <ele>173</ele>
      </trkpt>
      <trkpt lat="46.41757" lon="4.88677">
        <ele>173</ele>
      </trkpt>
      <trkpt lat="46.41769" lon="4.88685">
        <ele>173</ele>
      </trkpt>
      <trkpt lat="46.41777" lon="4.88692">
        <ele>173</ele>
      </trkpt>
      <trkpt lat="46.41785" lon="4.88697">
        <ele>172.8</ele>
      </trkpt>
      <trkpt lat="46.41792" lon="4.88698">
        <ele>172.7</ele>
      </trkpt>
      <trkpt lat="46.41827" lon="4.88706">
        <ele>172.6</ele>
      </trkpt>
      <trkpt lat="46.4185" lon="4.88708">
        <ele>172.8</ele>
      </trkpt>
      <trkpt lat="46.41873" lon="4.88709">
        <ele>172.9</ele>
      </trkpt>
      <trkpt lat="46.41888" lon="4.88711">
        <ele>172.8</ele>
      </trkpt>
      <trkpt lat="46.41925" lon="4.88718">
        <ele>172.4</ele>
      </trkpt>
      <trkpt lat="46.41983" lon="4.88729">
        <ele>172.3</ele>
      </trkpt>
      <trkpt lat="46.42029" lon="4.88737">
        <ele>171.9</ele>
      </trkpt>
      <trkpt lat="46.42069" lon="4.88744">
        <ele>172.3</ele>
      </trkpt>
      <trkpt lat="46.42121" lon="4.88758">
        <ele>172.7</ele>
      </trkpt>
      <trkpt lat="46.422" lon="4.88775">
        <ele>171.7</ele>
      </trkpt>
      <trkpt lat="46.42311" lon="4.88797">
        <ele>171.7</ele>
      </trkpt>
      <trkpt lat="46.42409" lon="4.88815">
        <ele>172.5</ele>
      </trkpt>
      <trkpt lat="46.42466" lon="4.88825">
        <ele>172.3</ele>
      </trkpt>
      <trkpt lat="46.42518" lon="4.8883">
        <ele>173</ele>
      </trkpt>
      <trkpt lat="46.4253" lon="4.8883">
        <ele>173</ele>
      </trkpt>
      <trkpt lat="46.42629" lon="4.88836">
        <ele>172.7</ele>
      </trkpt>
      <trkpt lat="46.42787" lon="4.88846">
        <ele>172.1</ele>
      </trkpt>
      <trkpt lat="46.4284" lon="4.88848">
        <ele>172</ele>
      </trkpt>
      <trkpt lat="46.42871" lon="4.88845">
        <ele>172.2</ele>
      </trkpt>
      <trkpt lat="46.42876" lon="4.88844">
        <ele>172.4</ele>
      </trkpt>
      <trkpt lat="46.42909" lon="4.88831">
        <ele>173.3</ele>
      </trkpt>
      <trkpt lat="46.42938" lon="4.88821">
        <ele>173</ele>
      </trkpt>
      <trkpt lat="46.42956" lon="4.88815">
        <ele>173.3</ele>
      </trkpt>
      <trkpt lat="46.42961" lon="4.88817">
        <ele>173.2</ele>
      </trkpt>
      <trkpt lat="46.42962" lon="4.88817">
        <ele>173.1</ele>
      </trkpt>
      <trkpt lat="46.42965" lon="4.88818">
        <ele>173.1</ele>
      </trkpt>
      <trkpt lat="46.42969" lon="4.88818">
        <ele>173.1</ele>
      </trkpt>
      <trkpt lat="46.42972" lon="4.88817">
        <ele>173.1</ele>
      </trkpt>
      <trkpt lat="46.42977" lon="4.88817">
        <ele>173</ele>
      </trkpt>
      <trkpt lat="46.42982" lon="4.88815">
        <ele>173</ele>
      </trkpt>
      <trkpt lat="46.42986" lon="4.88813">
        <ele>172.9</ele>
      </trkpt>
      <trkpt lat="46.4299" lon="4.88811">
        <ele>173</ele>
      </trkpt>
      <trkpt lat="46.42994" lon="4.88808">
        <ele>173</ele>
      </trkpt>
      <trkpt lat="46.43" lon="4.88804">
        <ele>173</ele>
      </trkpt>
      <trkpt lat="46.43019" lon="4.88788">
        <ele>173.4</ele>
      </trkpt>
      <trkpt lat="46.43038" lon="4.88777">
        <ele>173.6</ele>
      </trkpt>
      <trkpt lat="46.43069" lon="4.88761">
        <ele>173.4</ele>
      </trkpt>
      <trkpt lat="46.43095" lon="4.88748">
        <ele>173.9</ele>
      </trkpt>
      <trkpt lat="46.43122" lon="4.88739">
        <ele>173.3</ele>
      </trkpt>
      <trkpt lat="46.43139" lon="4.88734">
        <ele>173.1</ele>
      </trkpt>
      <trkpt lat="46.43153" lon="4.88731">
        <ele>173.4</ele>
      </trkpt>
      <trkpt lat="46.43184" lon="4.88725">
        <ele>173.8</ele>
      </trkpt>
      <trkpt lat="46.43209" lon="4.88724">
        <ele>173.9</ele>
      </trkpt>
      <trkpt lat="46.43217" lon="4.88724">
        <ele>173.9</ele>
      </trkpt>
      <trkpt lat="46.43224" lon="4.88724">
        <ele>173.9</ele>
      </trkpt>
      <trkpt lat="46.43239" lon="4.88724">
        <ele>173.9</ele>
      </trkpt>
      <trkpt lat="46.43255" lon="4.88725">
        <ele>173.8</ele>
      </trkpt>
      <trkpt lat="46.43301" lon="4.88734">
        <ele>173</ele>
      </trkpt>
      <trkpt lat="46.43373" lon="4.88748">
        <ele>173.4</ele>
      </trkpt>
      <trkpt lat="46.43428" lon="4.88755">
        <ele>173.3</ele>
      </trkpt>
      <trkpt lat="46.43434" lon="4.88755">
        <ele>173.1</ele>
      </trkpt>
      <trkpt lat="46.43437" lon="4.88754">
        <ele>173.1</ele>
      </trkpt>
      <trkpt lat="46.43441" lon="4.88752">
        <ele>173</ele>
      </trkpt>
      <trkpt lat="46.43444" lon="4.8875">
        <ele>173</ele>
      </trkpt>
      <trkpt lat="46.43446" lon="4.88749">
        <ele>173.1</ele>
      </trkpt>
      <trkpt lat="46.43449" lon="4.88748">
        <ele>173.2</ele>
      </trkpt>
      <trkpt lat="46.43454" lon="4.88752">
        <ele>173.3</ele>
      </trkpt>
      <trkpt lat="46.43457" lon="4.88754">
        <ele>173.3</ele>
      </trkpt>
      <trkpt lat="46.43458" lon="4.88756">
        <ele>173.3</ele>
      </trkpt>
      <trkpt lat="46.4346" lon="4.88758">
        <ele>173.3</ele>
      </trkpt>
      <trkpt lat="46.43464" lon="4.88753">
        <ele>173.6</ele>
      </trkpt>
      <trkpt lat="46.43467" lon="4.88742">
        <ele>173.8</ele>
      </trkpt>
      <trkpt lat="46.43468" lon="4.88735">
        <ele>173.9</ele>
      </trkpt>
      <trkpt lat="46.4347" lon="4.88731">
        <ele>173.9</ele>
      </trkpt>
      <trkpt lat="46.43472" lon="4.88723">
        <ele>174</ele>
      </trkpt>
      <trkpt lat="46.43478" lon="4.88706">
        <ele>173.1</ele>
      </trkpt>
      <trkpt lat="46.43531" lon="4.88572">
        <ele>173</ele>
      </trkpt>
      <trkpt lat="46.43573" lon="4.88463">
        <ele>173.5</ele>
      </trkpt>
      <trkpt lat="46.43595" lon="4.88412">
        <ele>172.5</ele>
      </trkpt>
      <trkpt lat="46.43599" lon="4.88404">
        <ele>172.7</ele>
      </trkpt>
      <trkpt lat="46.43603" lon="4.88402">
        <ele>172.6</ele>
      </trkpt>
      <trkpt lat="46.43611" lon="4.88402">
        <ele>172.5</ele>
      </trkpt>
      <trkpt lat="46.43679" lon="4.88422">
        <ele>172.9</ele>
      </trkpt>
      <trkpt lat="46.43734" lon="4.88441">
        <ele>173.5</ele>
      </trkpt>
      <trkpt lat="46.43813" lon="4.88471">
        <ele>174</ele>
      </trkpt>
      <trkpt lat="46.43862" lon="4.88487">
        <ele>173.1</ele>
      </trkpt>
      <trkpt lat="46.43871" lon="4.88489">
        <ele>173.5</ele>
      </trkpt>
      <trkpt lat="46.43876" lon="4.88488">
        <ele>173.6</ele>
      </trkpt>
      <trkpt lat="46.4388" lon="4.88479">
        <ele>173.5</ele>
      </trkpt>
      <trkpt lat="46.43883" lon="4.88463">
        <ele>173.7</ele>
      </trkpt>
      <trkpt lat="46.43895" lon="4.88396">
        <ele>174.2</ele>
      </trkpt>
      <trkpt lat="46.43901" lon="4.88332">
        <ele>173.9</ele>
      </trkpt>
      <trkpt lat="46.43902" lon="4.8832">
        <ele>174</ele>
      </trkpt>
      <trkpt lat="46.4391" lon="4.88318">
        <ele>174.5</ele>
      </trkpt>
      <trkpt lat="46.43917" lon="4.88316">
        <ele>175</ele>
      </trkpt>
      <trkpt lat="46.43922" lon="4.88316">
        <ele>174.7</ele>
      </trkpt>
      <trkpt lat="46.43928" lon="4.88317">
        <ele>174.5</ele>
      </trkpt>
      <trkpt lat="46.43935" lon="4.8832">
        <ele>174.4</ele>
      </trkpt>
      <trkpt lat="46.43955" lon="4.88331">
        <ele>174.8</ele>
      </trkpt>
      <trkpt lat="46.43965" lon="4.88335">
        <ele>175</ele>
      </trkpt>
      <trkpt lat="46.43987" lon="4.88346">
        <ele>174.4</ele>
      </trkpt>
      <trkpt lat="46.44002" lon="4.88352">
        <ele>174.3</ele>
      </trkpt>
      <trkpt lat="46.44017" lon="4.88359">
        <ele>174.8</ele>
      </trkpt>
      <trkpt lat="46.44043" lon="4.88372">
        <ele>174.3</ele>
      </trkpt>
      <trkpt lat="46.44081" lon="4.88392">
        <ele>175</ele>
      </trkpt>
      <trkpt lat="46.44115" lon="4.88409">
        <ele>174</ele>
      </trkpt>
      <trkpt lat="46.44158" lon="4.8843">
        <ele>174.3</ele>
      </trkpt>
      <trkpt lat="46.44216" lon="4.88458">
        <ele>174.1</ele>
      </trkpt>
      <trkpt lat="46.44268" lon="4.88483">
        <ele>174.2</ele>
      </trkpt>
      <trkpt lat="46.44278" lon="4.88489">
        <ele>174.6</ele>
      </trkpt>
      <trkpt lat="46.44283" lon="4.88496">
        <ele>174.7</ele>
      </trkpt>
      <trkpt lat="46.44288" lon="4.88505">
        <ele>174.5</ele>
      </trkpt>
      <trkpt lat="46.44296" lon="4.88511">
        <ele>174.2</ele>
      </trkpt>
      <trkpt lat="46.44305" lon="4.88513">
        <ele>174</ele>
      </trkpt>
      <trkpt lat="46.44313" lon="4.88516">
        <ele>173.7</ele>
      </trkpt>
      <trkpt lat="46.44336" lon="4.88446">
        <ele>174</ele>
      </trkpt>
      <trkpt lat="46.44346" lon="4.88427">
        <ele>174</ele>
      </trkpt>
      <trkpt lat="46.44354" lon="4.88417">
        <ele>174</ele>
      </trkpt>
      <trkpt lat="46.44364" lon="4.88412">
        <ele>174</ele>
      </trkpt>
      <trkpt lat="46.4437" lon="4.88412">
        <ele>174</ele>
      </trkpt>
      <trkpt lat="46.44376" lon="4.8841">
        <ele>174.1</ele>
      </trkpt>
      <trkpt lat="46.44381" lon="4.88405">
        <ele>174.3</ele>
      </trkpt>
      <trkpt lat="46.44385" lon="4.88397">
        <ele>174.6</ele>
      </trkpt>
      <trkpt lat="46.44386" lon="4.88389">
        <ele>174.9</ele>
      </trkpt>
      <trkpt lat="46.44386" lon="4.8838">
        <ele>174.9</ele>
      </trkpt>
      <trkpt lat="46.44384" lon="4.88371">
        <ele>174.9</ele>
      </trkpt>
      <trkpt lat="46.44377" lon="4.88361">
        <ele>175</ele>
      </trkpt>
      <trkpt lat="46.44373" lon="4.88347">
        <ele>175</ele>
      </trkpt>
      <trkpt lat="46.44372" lon="4.88337">
        <ele>175</ele>
      </trkpt>
      <trkpt lat="46.44371" lon="4.88327">
        <ele>175</ele>
      </trkpt>
      <trkpt lat="46.44371" lon="4.88316">
        <ele>175</ele>
      </trkpt>
      <trkpt lat="46.44373" lon="4.883">
        <ele>175</ele>
      </trkpt>
      <trkpt lat="46.44375" lon="4.8828">
        <ele>175</ele>
      </trkpt>
      <trkpt lat="46.44384" lon="4.88239">
        <ele>175</ele>
      </trkpt>
      <trkpt lat="46.4439" lon="4.88212">
        <ele>175</ele>
      </trkpt>
      <trkpt lat="46.44393" lon="4.882">
        <ele>175</ele>
      </trkpt>
      <trkpt lat="46.44407" lon="4.88144">
        <ele>175</ele>
      </trkpt>
      <trkpt lat="46.44415" lon="4.88111">
        <ele>175</ele>
      </trkpt>
      <trkpt lat="46.44422" lon="4.88084">
        <ele>175</ele>
      </trkpt>
      <trkpt lat="46.44428" lon="4.88065">
        <ele>175</ele>
      </trkpt>
      <trkpt lat="46.4444" lon="4.88027">
        <ele>175</ele>
      </trkpt>
      <trkpt lat="46.44461" lon="4.87962">
        <ele>175.4</ele>
      </trkpt>
      <trkpt lat="46.44472" lon="4.87929">
        <ele>176</ele>
      </trkpt>
      <trkpt lat="46.44479" lon="4.8791">
        <ele>176.1</ele>
      </trkpt>
      <trkpt lat="46.44487" lon="4.87894">
        <ele>176.4</ele>
      </trkpt>
      <trkpt lat="46.44495" lon="4.8788">
        <ele>176.6</ele>
      </trkpt>
      <trkpt lat="46.44506" lon="4.87864">
        <ele>176.3</ele>
      </trkpt>
      <trkpt lat="46.44518" lon="4.87846">
        <ele>176.5</ele>
      </trkpt>
      <trkpt lat="46.44519" lon="4.87844">
        <ele>176.5</ele>
      </trkpt>
      <trkpt lat="46.44526" lon="4.87833">
        <ele>176.1</ele>
      </trkpt>
      <trkpt lat="46.44528" lon="4.8783">
        <ele>176.1</ele>
      </trkpt>
      <trkpt lat="46.44534" lon="4.87814">
        <ele>176.9</ele>
      </trkpt>
      <trkpt lat="46.4454" lon="4.87801">
        <ele>177.6</ele>
      </trkpt>
      <trkpt lat="46.44549" lon="4.87778">
        <ele>178.2</ele>
      </trkpt>
      <trkpt lat="46.44555" lon="4.87761">
        <ele>178.7</ele>
      </trkpt>
      <trkpt lat="46.44558" lon="4.87751">
        <ele>179</ele>
      </trkpt>
      <trkpt lat="46.44578" lon="4.87693">
        <ele>180.5</ele>
      </trkpt>
      <trkpt lat="46.44601" lon="4.87624">
        <ele>183.4</ele>
      </trkpt>
      <trkpt lat="46.44625" lon="4.8755">
        <ele>185.4</ele>
      </trkpt>
      <trkpt lat="46.44645" lon="4.87493">
        <ele>186.9</ele>
      </trkpt>
      <trkpt lat="46.44658" lon="4.87453">
        <ele>188.1</ele>
      </trkpt>
      <trkpt lat="46.44666" lon="4.87428">
        <ele>188.6</ele>
      </trkpt>
      <trkpt lat="46.44672" lon="4.87408">
        <ele>188</ele>
      </trkpt>
      <trkpt lat="46.44674" lon="4.87402">
        <ele>187.7</ele>
      </trkpt>
      <trkpt lat="46.44679" lon="4.8738">
        <ele>187</ele>
      </trkpt>
      <trkpt lat="46.44685" lon="4.87348">
        <ele>187.4</ele>
      </trkpt>
      <trkpt lat="46.44688" lon="4.87324">
        <ele>187.9</ele>
      </trkpt>
      <trkpt lat="46.44689" lon="4.87303">
        <ele>188.7</ele>
      </trkpt>
      <trkpt lat="46.4469" lon="4.87286">
        <ele>189.1</ele>
      </trkpt>
      <trkpt lat="46.44691" lon="4.87268">
        <ele>189.2</ele>
      </trkpt>
      <trkpt lat="46.44691" lon="4.87249">
        <ele>189</ele>
      </trkpt>
      <trkpt lat="46.4469" lon="4.87232">
        <ele>189.1</ele>
      </trkpt>
      <trkpt lat="46.44687" lon="4.87198">
        <ele>189.5</ele>
      </trkpt>
      <trkpt lat="46.44683" lon="4.87159">
        <ele>193.6</ele>
      </trkpt>
      <trkpt lat="46.44682" lon="4.87156">
        <ele>193.8</ele>
      </trkpt>
      <trkpt lat="46.44682" lon="4.87151">
        <ele>194.2</ele>
      </trkpt>
      <trkpt lat="46.44682" lon="4.8715">
        <ele>194.2</ele>
      </trkpt>
      <trkpt lat="46.44682" lon="4.87148">
        <ele>194.4</ele>
      </trkpt>
      <trkpt lat="46.44681" lon="4.87143">
        <ele>194.7</ele>
      </trkpt>
      <trkpt lat="46.44679" lon="4.87127">
        <ele>194.2</ele>
      </trkpt>
      <trkpt lat="46.44679" lon="4.87124">
        <ele>194</ele>
      </trkpt>
      <trkpt lat="46.44678" lon="4.87114">
        <ele>193.4</ele>
      </trkpt>
      <trkpt lat="46.44676" lon="4.87096">
        <ele>192.6</ele>
      </trkpt>
      <trkpt lat="46.44687" lon="4.87098">
        <ele>192.8</ele>
      </trkpt>
      <trkpt lat="46.44695" lon="4.871">
        <ele>192.8</ele>
      </trkpt>
      <trkpt lat="46.44704" lon="4.87102">
        <ele>192</ele>
      </trkpt>
      <trkpt lat="46.44719" lon="4.87105">
        <ele>190.7</ele>
      </trkpt>
      <trkpt lat="46.44738" lon="4.87107">
        <ele>189.1</ele>
      </trkpt>
      <trkpt lat="46.44754" lon="4.87108">
        <ele>188</ele>
      </trkpt>
      <trkpt lat="46.44762" lon="4.87109">
        <ele>187.6</ele>
      </trkpt>
      <trkpt lat="46.44769" lon="4.87109">
        <ele>187.3</ele>
      </trkpt>
      <trkpt lat="46.44775" lon="4.87109">
        <ele>187.1</ele>
      </trkpt>
      <trkpt lat="46.44782" lon="4.87108">
        <ele>187</ele>
      </trkpt>
      <trkpt lat="46.44789" lon="4.87107">
        <ele>187</ele>
      </trkpt>
      <trkpt lat="46.44795" lon="4.87107">
        <ele>187</ele>
      </trkpt>
      <trkpt lat="46.44803" lon="4.87108">
        <ele>187</ele>
      </trkpt>
      <trkpt lat="46.4481" lon="4.87109">
        <ele>187.3</ele>
      </trkpt>
      <trkpt lat="46.44946" lon="4.86959">
        <ele>190.6</ele>
      </trkpt>
      <trkpt lat="46.44982" lon="4.86926">
        <ele>192</ele>
      </trkpt>
      <trkpt lat="46.4499" lon="4.86909">
        <ele>192.1</ele>
      </trkpt>
      <trkpt lat="46.45007" lon="4.86873">
        <ele>192.6</ele>
      </trkpt>
      <trkpt lat="46.45019" lon="4.86842">
        <ele>192.9</ele>
      </trkpt>
      <trkpt lat="46.45025" lon="4.86822">
        <ele>192.9</ele>
      </trkpt>
      <trkpt lat="46.45024" lon="4.86815">
        <ele>192.9</ele>
      </trkpt>
      <trkpt lat="46.45018" lon="4.86809">
        <ele>193</ele>
      </trkpt>
      <trkpt lat="46.45004" lon="4.86794">
        <ele>193.1</ele>
      </trkpt>
      <trkpt lat="46.44981" lon="4.86776">
        <ele>193.1</ele>
      </trkpt>
      <trkpt lat="46.44953" lon="4.86756">
        <ele>195</ele>
      </trkpt>
      <trkpt lat="46.44911" lon="4.86732">
        <ele>196.9</ele>
      </trkpt>
      <trkpt lat="46.44901" lon="4.86726">
        <ele>197.5</ele>
      </trkpt>
      <trkpt lat="46.44894" lon="4.8672">
        <ele>197.9</ele>
      </trkpt>
      <trkpt lat="46.44887" lon="4.86712">
        <ele>198.5</ele>
      </trkpt>
      <trkpt lat="46.44881" lon="4.86702">
        <ele>199.1</ele>
      </trkpt>
      <trkpt lat="46.44864" lon="4.86684">
        <ele>200.3</ele>
      </trkpt>
      <trkpt lat="46.44849" lon="4.86673">
        <ele>201.6</ele>
      </trkpt>
      <trkpt lat="46.4484" lon="4.86666">
        <ele>202.6</ele>
      </trkpt>
      <trkpt lat="46.44838" lon="4.86654">
        <ele>203.2</ele>
      </trkpt>
      <trkpt lat="46.44837" lon="4.86642">
        <ele>203.7</ele>
      </trkpt>
      <trkpt lat="46.44839" lon="4.86638">
        <ele>203.8</ele>
      </trkpt>
      <trkpt lat="46.44898" lon="4.86562">
        <ele>205.3</ele>
      </trkpt>
      <trkpt lat="46.44906" lon="4.86551">
        <ele>205.7</ele>
      </trkpt>
      <trkpt lat="46.44909" lon="4.86544">
        <ele>205.8</ele>
      </trkpt>
      <trkpt lat="46.44911" lon="4.86533">
        <ele>206</ele>
      </trkpt>
      <trkpt lat="46.44914" lon="4.86519">
        <ele>206.3</ele>
      </trkpt>
      <trkpt lat="46.44929" lon="4.86432">
        <ele>207</ele>
      </trkpt>
      <trkpt lat="46.44947" lon="4.86328">
        <ele>208</ele>
      </trkpt>
      <trkpt lat="46.44953" lon="4.86287">
        <ele>207.9</ele>
      </trkpt>
      <trkpt lat="46.44954" lon="4.86274">
        <ele>208</ele>
      </trkpt>
      <trkpt lat="46.44953" lon="4.86266">
        <ele>208.1</ele>
      </trkpt>
      <trkpt lat="46.44952" lon="4.86258">
        <ele>208.2</ele>
      </trkpt>
      <trkpt lat="46.44951" lon="4.86254">
        <ele>208.2</ele>
      </trkpt>
      <trkpt lat="46.44948" lon="4.86242">
        <ele>208.4</ele>
      </trkpt>
      <trkpt lat="46.44945" lon="4.86222">
        <ele>209</ele>
      </trkpt>
      <trkpt lat="46.44944" lon="4.86194">
        <ele>209.1</ele>
      </trkpt>
      <trkpt lat="46.44942" lon="4.86166">
        <ele>210.1</ele>
      </trkpt>
      <trkpt lat="46.44941" lon="4.8613">
        <ele>211.7</ele>
      </trkpt>
      <trkpt lat="46.44941" lon="4.86121">
        <ele>211.4</ele>
      </trkpt>
      <trkpt lat="46.44952" lon="4.86118">
        <ele>211.4</ele>
      </trkpt>
      <trkpt lat="46.44986" lon="4.86102">
        <ele>212</ele>
      </trkpt>
      <trkpt lat="46.4503" lon="4.86081">
        <ele>211.8</ele>
      </trkpt>
      <trkpt lat="46.45056" lon="4.86069">
        <ele>211</ele>
      </trkpt>
      <trkpt lat="46.4507" lon="4.86063">
        <ele>211</ele>
      </trkpt>
      <trkpt lat="46.45081" lon="4.86059">
        <ele>211</ele>
      </trkpt>
      <trkpt lat="46.45099" lon="4.86058">
        <ele>211</ele>
      </trkpt>
      <trkpt lat="46.45117" lon="4.86055">
        <ele>211</ele>
      </trkpt>
      <trkpt lat="46.4513" lon="4.86053">
        <ele>211</ele>
      </trkpt>
      <trkpt lat="46.4514" lon="4.86049">
        <ele>211</ele>
      </trkpt>
      <trkpt lat="46.45161" lon="4.8604">
        <ele>211</ele>
      </trkpt>
      <trkpt lat="46.45208" lon="4.86017">
        <ele>211</ele>
      </trkpt>
      <trkpt lat="46.45241" lon="4.86002">
        <ele>211</ele>
      </trkpt>
      <trkpt lat="46.45253" lon="4.85997">
        <ele>211.2</ele>
      </trkpt>
      <trkpt lat="46.45274" lon="4.85989">
        <ele>211.9</ele>
      </trkpt>
      <trkpt lat="46.45284" lon="4.85986">
        <ele>212</ele>
      </trkpt>
      <trkpt lat="46.45294" lon="4.85984">
        <ele>212</ele>
      </trkpt>
      <trkpt lat="46.45303" lon="4.85981">
        <ele>212</ele>
      </trkpt>
      <trkpt lat="46.45336" lon="4.85968">
        <ele>212</ele>
      </trkpt>
      <trkpt lat="46.45381" lon="4.8595">
        <ele>212</ele>
      </trkpt>
      <trkpt lat="46.45412" lon="4.85938">
        <ele>212.9</ele>
      </trkpt>
      <trkpt lat="46.45421" lon="4.85936">
        <ele>213</ele>
      </trkpt>
      <trkpt lat="46.45457" lon="4.85926">
        <ele>213</ele>
      </trkpt>
      <trkpt lat="46.45493" lon="4.85917">
        <ele>213.7</ele>
      </trkpt>
      <trkpt lat="46.45506" lon="4.85913">
        <ele>214</ele>
      </trkpt>
      <trkpt lat="46.4552" lon="4.85911">
        <ele>214.1</ele>
      </trkpt>
      <trkpt lat="46.45545" lon="4.85908">
        <ele>214.3</ele>
      </trkpt>
      <trkpt lat="46.4558" lon="4.85903">
        <ele>214.5</ele>
      </trkpt>
      <trkpt lat="46.45602" lon="4.85901">
        <ele>214.6</ele>
      </trkpt>
      <trkpt lat="46.45614" lon="4.85898">
        <ele>214.6</ele>
      </trkpt>
      <trkpt lat="46.45624" lon="4.85896">
        <ele>214.4</ele>
      </trkpt>
      <trkpt lat="46.45629" lon="4.85894">
        <ele>214.3</ele>
      </trkpt>
      <trkpt lat="46.45635" lon="4.85892">
        <ele>214.1</ele>
      </trkpt>
      <trkpt lat="46.45642" lon="4.85889">
        <ele>214.1</ele>
      </trkpt>
      <trkpt lat="46.45647" lon="4.85889">
        <ele>214.3</ele>
      </trkpt>
      <trkpt lat="46.45652" lon="4.8589">
        <ele>214.5</ele>
      </trkpt>
      <trkpt lat="46.45663" lon="4.85893">
        <ele>214.7</ele>
      </trkpt>
      <trkpt lat="46.45678" lon="4.85899">
        <ele>214.6</ele>
      </trkpt>
      <trkpt lat="46.45686" lon="4.85903">
        <ele>214.5</ele>
      </trkpt>
      <trkpt lat="46.45701" lon="4.8591">
        <ele>214.2</ele>
      </trkpt>
      <trkpt lat="46.45716" lon="4.85922">
        <ele>214</ele>
      </trkpt>
      <trkpt lat="46.45732" lon="4.85939">
        <ele>214.1</ele>
      </trkpt>
      <trkpt lat="46.45754" lon="4.85964">
        <ele>214</ele>
      </trkpt>
      <trkpt lat="46.45773" lon="4.85981">
        <ele>213.7</ele>
      </trkpt>
      <trkpt lat="46.45789" lon="4.85994">
        <ele>213.5</ele>
      </trkpt>
      <trkpt lat="46.45792" lon="4.85965">
        <ele>214.3</ele>
      </trkpt>
      <trkpt lat="46.45797" lon="4.8592">
        <ele>215</ele>
      </trkpt>
      <trkpt lat="46.45801" lon="4.85877">
        <ele>216</ele>
      </trkpt>
      <trkpt lat="46.45803" lon="4.85834">
        <ele>217</ele>
      </trkpt>
      <trkpt lat="46.45805" lon="4.85787">
        <ele>219.4</ele>
      </trkpt>
      <trkpt lat="46.45805" lon="4.85779">
        <ele>220</ele>
      </trkpt>
      <trkpt lat="46.45805" lon="4.85767">
        <ele>220.8</ele>
      </trkpt>
      <trkpt lat="46.45805" lon="4.85756">
        <ele>221.6</ele>
      </trkpt>
      <trkpt lat="46.45802" lon="4.85747">
        <ele>222.2</ele>
      </trkpt>
      <trkpt lat="46.458" lon="4.85741">
        <ele>222.6</ele>
      </trkpt>
      <trkpt lat="46.45806" lon="4.85744">
        <ele>222.5</ele>
      </trkpt>
      <trkpt lat="46.45814" lon="4.85746">
        <ele>222.3</ele>
      </trkpt>
      <trkpt lat="46.45825" lon="4.85749">
        <ele>222.1</ele>
      </trkpt>
      <trkpt lat="46.45844" lon="4.85751">
        <ele>221.6</ele>
      </trkpt>
      <trkpt lat="46.45863" lon="4.85751">
        <ele>221</ele>
      </trkpt>
      <trkpt lat="46.45873" lon="4.85751">
        <ele>220.9</ele>
      </trkpt>
      <trkpt lat="46.45881" lon="4.85752">
        <ele>220.8</ele>
      </trkpt>
      <trkpt lat="46.45889" lon="4.85753">
        <ele>220.8</ele>
      </trkpt>
      <trkpt lat="46.45897" lon="4.85757">
        <ele>220.4</ele>
      </trkpt>
      <trkpt lat="46.45919" lon="4.85772">
        <ele>218.5</ele>
      </trkpt>
      <trkpt lat="46.45937" lon="4.85782">
        <ele>217.1</ele>
      </trkpt>
      <trkpt lat="46.4595" lon="4.85787">
        <ele>216.7</ele>
      </trkpt>
      <trkpt lat="46.45975" lon="4.85792">
        <ele>216.4</ele>
      </trkpt>
      <trkpt lat="46.46007" lon="4.85799">
        <ele>215.4</ele>
      </trkpt>
      <trkpt lat="46.4603" lon="4.85807">
        <ele>215</ele>
      </trkpt>
      <trkpt lat="46.46057" lon="4.85817">
        <ele>214.6</ele>
      </trkpt>
      <trkpt lat="46.46085" lon="4.85825">
        <ele>215</ele>
      </trkpt>
      <trkpt lat="46.46094" lon="4.85828">
        <ele>214.7</ele>
      </trkpt>
      <trkpt lat="46.46103" lon="4.85828">
        <ele>214.4</ele>
      </trkpt>
      <trkpt lat="46.46113" lon="4.85827">
        <ele>214.2</ele>
      </trkpt>
      <trkpt lat="46.46139" lon="4.85823">
        <ele>214</ele>
      </trkpt>
      <trkpt lat="46.46176" lon="4.85817">
        <ele>214</ele>
      </trkpt>
      <trkpt lat="46.46224" lon="4.85812">
        <ele>214</ele>
      </trkpt>
      <trkpt lat="46.46251" lon="4.8581">
        <ele>214</ele>
      </trkpt>
      <trkpt lat="46.46287" lon="4.85808">
        <ele>213.6</ele>
      </trkpt>
      <trkpt lat="46.463" lon="4.85807">
        <ele>213.2</ele>
      </trkpt>
      <trkpt lat="46.46308" lon="4.85807">
        <ele>213</ele>
      </trkpt>
      <trkpt lat="46.46318" lon="4.85808">
        <ele>213</ele>
      </trkpt>
      <trkpt lat="46.4633" lon="4.85812">
        <ele>213</ele>
      </trkpt>
      <trkpt lat="46.4636" lon="4.85827">
        <ele>213</ele>
      </trkpt>
      <trkpt lat="46.46406" lon="4.85849">
        <ele>214</ele>
      </trkpt>
      <trkpt lat="46.4645" lon="4.85869">
        <ele>212.9</ele>
      </trkpt>
      <trkpt lat="46.46467" lon="4.85879">
        <ele>212.5</ele>
      </trkpt>
      <trkpt lat="46.46464" lon="4.8588">
        <ele>212.5</ele>
      </trkpt>
      <trkpt lat="46.46467" lon="4.85879">
        <ele>212.5</ele>
      </trkpt>
      <trkpt lat="46.46469" lon="4.85879">
        <ele>212.4</ele>
      </trkpt>
      <trkpt lat="46.46479" lon="4.85884">
        <ele>212.4</ele>
      </trkpt>
      <trkpt lat="46.46508" lon="4.85897">
        <ele>213.3</ele>
      </trkpt>
      <trkpt lat="46.46524" lon="4.85904">
        <ele>213.9</ele>
      </trkpt>
      <trkpt lat="46.4655" lon="4.85916">
        <ele>214</ele>
      </trkpt>
      <trkpt lat="46.46584" lon="4.85932">
        <ele>214</ele>
      </trkpt>
      <trkpt lat="46.46607" lon="4.85944">
        <ele>214</ele>
      </trkpt>
      <trkpt lat="46.46639" lon="4.85966">
        <ele>214.2</ele>
      </trkpt>
      <trkpt lat="46.46672" lon="4.85988">
        <ele>214.7</ele>
      </trkpt>
      <trkpt lat="46.46688" lon="4.86001">
        <ele>215.5</ele>
      </trkpt>
      <trkpt lat="46.46692" lon="4.86008">
        <ele>215.5</ele>
      </trkpt>
      <trkpt lat="46.46699" lon="4.86013">
        <ele>215.7</ele>
      </trkpt>
      <trkpt lat="46.4675" lon="4.86044">
        <ele>217.4</ele>
      </trkpt>
      <trkpt lat="46.46779" lon="4.86059">
        <ele>217.1</ele>
      </trkpt>
      <trkpt lat="46.46784" lon="4.8606">
        <ele>217.2</ele>
      </trkpt>
      <trkpt lat="46.46788" lon="4.86059">
        <ele>217.1</ele>
      </trkpt>
      <trkpt lat="46.46793" lon="4.86054">
        <ele>217</ele>
      </trkpt>
      <trkpt lat="46.46795" lon="4.86048">
        <ele>217.1</ele>
      </trkpt>
      <trkpt lat="46.46798" lon="4.86034">
        <ele>217.2</ele>
      </trkpt>
      <trkpt lat="46.46807" lon="4.8599">
        <ele>216</ele>
      </trkpt>
      <trkpt lat="46.46812" lon="4.85971">
        <ele>215.8</ele>
      </trkpt>
      <trkpt lat="46.46821" lon="4.85946">
        <ele>215.5</ele>
      </trkpt>
      <trkpt lat="46.46833" lon="4.8592">
        <ele>215</ele>
      </trkpt>
      <trkpt lat="46.4686" lon="4.85865">
        <ele>215</ele>
      </trkpt>
      <trkpt lat="46.46883" lon="4.8582">
        <ele>215.6</ele>
      </trkpt>
      <trkpt lat="46.46907" lon="4.8578">
        <ele>216</ele>
      </trkpt>
      <trkpt lat="46.46923" lon="4.85757">
        <ele>216</ele>
      </trkpt>
      <trkpt lat="46.46929" lon="4.85751">
        <ele>216</ele>
      </trkpt>
      <trkpt lat="46.46931" lon="4.85749">
        <ele>216</ele>
      </trkpt>
      <trkpt lat="46.46935" lon="4.85747">
        <ele>216</ele>
      </trkpt>
      <trkpt lat="46.46939" lon="4.85747">
        <ele>216</ele>
      </trkpt>
      <trkpt lat="46.46944" lon="4.85749">
        <ele>216</ele>
      </trkpt>
      <trkpt lat="46.4695" lon="4.85752">
        <ele>216</ele>
      </trkpt>
      <trkpt lat="46.46955" lon="4.85763">
        <ele>216</ele>
      </trkpt>
      <trkpt lat="46.4696" lon="4.8577">
        <ele>216</ele>
      </trkpt>
      <trkpt lat="46.46977" lon="4.85786">
        <ele>215.9</ele>
      </trkpt>
      <trkpt lat="46.47022" lon="4.85815">
        <ele>215.5</ele>
      </trkpt>
      <trkpt lat="46.47045" lon="4.85831">
        <ele>215.3</ele>
      </trkpt>
      <trkpt lat="46.47063" lon="4.85841">
        <ele>215.2</ele>
      </trkpt>
      <trkpt lat="46.4708" lon="4.85847">
        <ele>215.1</ele>
      </trkpt>
      <trkpt lat="46.47109" lon="4.85855">
        <ele>214.8</ele>
      </trkpt>
      <trkpt lat="46.47132" lon="4.85861">
        <ele>212.7</ele>
      </trkpt>
      <trkpt lat="46.47164" lon="4.85867">
        <ele>210.6</ele>
      </trkpt>
      <trkpt lat="46.47194" lon="4.85875">
        <ele>208</ele>
      </trkpt>
      <trkpt lat="46.47213" lon="4.85881">
        <ele>207.3</ele>
      </trkpt>
      <trkpt lat="46.4724" lon="4.85891">
        <ele>205.2</ele>
      </trkpt>
      <trkpt lat="46.47257" lon="4.859">
        <ele>204</ele>
      </trkpt>
      <trkpt lat="46.4728" lon="4.85916">
        <ele>202.8</ele>
      </trkpt>
      <trkpt lat="46.47317" lon="4.85944">
        <ele>200.6</ele>
      </trkpt>
      <trkpt lat="46.47356" lon="4.85973">
        <ele>199.2</ele>
      </trkpt>
      <trkpt lat="46.47369" lon="4.85981">
        <ele>198.7</ele>
      </trkpt>
      <trkpt lat="46.47378" lon="4.85984">
        <ele>198.4</ele>
      </trkpt>
      <trkpt lat="46.47385" lon="4.85987">
        <ele>198.1</ele>
      </trkpt>
      <trkpt lat="46.474" lon="4.85989">
        <ele>197.8</ele>
      </trkpt>
      <trkpt lat="46.47411" lon="4.85991">
        <ele>197.5</ele>
      </trkpt>
      <trkpt lat="46.47406" lon="4.85978">
        <ele>197.9</ele>
      </trkpt>
      <trkpt lat="46.47403" lon="4.85969">
        <ele>198.1</ele>
      </trkpt>
      <trkpt lat="46.47399" lon="4.85953">
        <ele>198.7</ele>
      </trkpt>
      <trkpt lat="46.47393" lon="4.85917">
        <ele>199.1</ele>
      </trkpt>
      <trkpt lat="46.47386" lon="4.85877">
        <ele>201.9</ele>
      </trkpt>
      <trkpt lat="46.47385" lon="4.85869">
        <ele>202.5</ele>
      </trkpt>
      <trkpt lat="46.47385" lon="4.8586">
        <ele>203.3</ele>
      </trkpt>
      <trkpt lat="46.47386" lon="4.85854">
        <ele>203.6</ele>
      </trkpt>
      <trkpt lat="46.47388" lon="4.85848">
        <ele>204</ele>
      </trkpt>
      <trkpt lat="46.47392" lon="4.85841">
        <ele>204.4</ele>
      </trkpt>
      <trkpt lat="46.47395" lon="4.85837">
        <ele>204.6</ele>
      </trkpt>
      <trkpt lat="46.47397" lon="4.85829">
        <ele>205</ele>
      </trkpt>
      <trkpt lat="46.47397" lon="4.85823">
        <ele>205.4</ele>
      </trkpt>
      <trkpt lat="46.47396" lon="4.85814">
        <ele>206.1</ele>
      </trkpt>
      <trkpt lat="46.47395" lon="4.85808">
        <ele>206.6</ele>
      </trkpt>
      <trkpt lat="46.47389" lon="4.85777">
        <ele>208</ele>
      </trkpt>
      <trkpt lat="46.47378" lon="4.85726">
        <ele>209.9</ele>
      </trkpt>
      <trkpt lat="46.47365" lon="4.85667">
        <ele>211.1</ele>
      </trkpt>
      <trkpt lat="46.47352" lon="4.85622">
        <ele>212.6</ele>
      </trkpt>
      <trkpt lat="46.47348" lon="4.85598">
        <ele>213.5</ele>
      </trkpt>
      <trkpt lat="46.47345" lon="4.85575">
        <ele>214.3</ele>
      </trkpt>
      <trkpt lat="46.47343" lon="4.85547">
        <ele>214.9</ele>
      </trkpt>
      <trkpt lat="46.47342" lon="4.85523">
        <ele>215.4</ele>
      </trkpt>
      <trkpt lat="46.47341" lon="4.855">
        <ele>215.7</ele>
      </trkpt>
      <trkpt lat="46.47339" lon="4.85491">
        <ele>215.7</ele>
      </trkpt>
      <trkpt lat="46.47338" lon="4.85483">
        <ele>215.7</ele>
      </trkpt>
      <trkpt lat="46.47336" lon="4.85476">
        <ele>215.8</ele>
      </trkpt>
      <trkpt lat="46.47325" lon="4.85451">
        <ele>216.2</ele>
      </trkpt>
      <trkpt lat="46.47324" lon="4.85449">
        <ele>216.3</ele>
      </trkpt>
      <trkpt lat="46.47318" lon="4.85436">
        <ele>216.7</ele>
      </trkpt>
      <trkpt lat="46.47311" lon="4.85429">
        <ele>217.5</ele>
      </trkpt>
      <trkpt lat="46.473" lon="4.85418">
        <ele>219.1</ele>
      </trkpt>
      <trkpt lat="46.47268" lon="4.85392">
        <ele>222.1</ele>
      </trkpt>
      <trkpt lat="46.4725" lon="4.85376">
        <ele>223.9</ele>
      </trkpt>
      <trkpt lat="46.47245" lon="4.85368">
        <ele>224.6</ele>
      </trkpt>
      <trkpt lat="46.47239" lon="4.85352">
        <ele>225.7</ele>
      </trkpt>
      <trkpt lat="46.47235" lon="4.85344">
        <ele>226.1</ele>
      </trkpt>
      <trkpt lat="46.4723" lon="4.85337">
        <ele>226.6</ele>
      </trkpt>
      <trkpt lat="46.47213" lon="4.85321">
        <ele>227.6</ele>
      </trkpt>
      <trkpt lat="46.47199" lon="4.85309">
        <ele>228</ele>
      </trkpt>
      <trkpt lat="46.47191" lon="4.85297">
        <ele>228.5</ele>
      </trkpt>
      <trkpt lat="46.47189" lon="4.85292">
        <ele>228.8</ele>
      </trkpt>
      <trkpt lat="46.47188" lon="4.85286">
        <ele>229</ele>
      </trkpt>
      <trkpt lat="46.47187" lon="4.85279">
        <ele>229.2</ele>
      </trkpt>
      <trkpt lat="46.47187" lon="4.85272">
        <ele>229.5</ele>
      </trkpt>
      <trkpt lat="46.47188" lon="4.8526">
        <ele>229.9</ele>
      </trkpt>
      <trkpt lat="46.4719" lon="4.8523">
        <ele>230.2</ele>
      </trkpt>
      <trkpt lat="46.4719" lon="4.85215">
        <ele>230.2</ele>
      </trkpt>
      <trkpt lat="46.47189" lon="4.85199">
        <ele>230.4</ele>
      </trkpt>
      <trkpt lat="46.47187" lon="4.85184">
        <ele>230.8</ele>
      </trkpt>
      <trkpt lat="46.47184" lon="4.85176">
        <ele>231.2</ele>
      </trkpt>
      <trkpt lat="46.47182" lon="4.8517">
        <ele>231.4</ele>
      </trkpt>
      <trkpt lat="46.47179" lon="4.85165">
        <ele>231.6</ele>
      </trkpt>
      <trkpt lat="46.47175" lon="4.85159">
        <ele>231.9</ele>
      </trkpt>
      <trkpt lat="46.47173" lon="4.85162">
        <ele>231.9</ele>
      </trkpt>
      <trkpt lat="46.47171" lon="4.85164">
        <ele>231.9</ele>
      </trkpt>
      <trkpt lat="46.47167" lon="4.85164">
        <ele>232.1</ele>
      </trkpt>
      <trkpt lat="46.47145" lon="4.85162">
        <ele>232.8</ele>
      </trkpt>
      <trkpt lat="46.47118" lon="4.85154">
        <ele>233</ele>
      </trkpt>
      <trkpt lat="46.47104" lon="4.8515">
        <ele>233.2</ele>
      </trkpt>
      <trkpt lat="46.47092" lon="4.85144">
        <ele>233.6</ele>
      </trkpt>
      <trkpt lat="46.47072" lon="4.85135">
        <ele>233.7</ele>
      </trkpt>
      <trkpt lat="46.47054" lon="4.85126">
        <ele>233.4</ele>
      </trkpt>
      <trkpt lat="46.47044" lon="4.85121">
        <ele>233.4</ele>
      </trkpt>
      <trkpt lat="46.47034" lon="4.85119">
        <ele>233.2</ele>
      </trkpt>
      <trkpt lat="46.47022" lon="4.85116">
        <ele>232.8</ele>
      </trkpt>
      <trkpt lat="46.47015" lon="4.85116">
        <ele>232.5</ele>
      </trkpt>
      <trkpt lat="46.47009" lon="4.85116">
        <ele>232.3</ele>
      </trkpt>
      <trkpt lat="46.47009" lon="4.85106">
        <ele>232.5</ele>
      </trkpt>
      <trkpt lat="46.47008" lon="4.85094">
        <ele>232.9</ele>
      </trkpt>
      <trkpt lat="46.47006" lon="4.85071">
        <ele>233.6</ele>
      </trkpt>
      <trkpt lat="46.47005" lon="4.85048">
        <ele>234</ele>
      </trkpt>
      <trkpt lat="46.47003" lon="4.85027">
        <ele>234.1</ele>
      </trkpt>
      <trkpt lat="46.47001" lon="4.85009">
        <ele>234</ele>
      </trkpt>
      <trkpt lat="46.46997" lon="4.84999">
        <ele>234.2</ele>
      </trkpt>
      <trkpt lat="46.46995" lon="4.84992">
        <ele>234.5</ele>
      </trkpt>
      <trkpt lat="46.46994" lon="4.84985">
        <ele>234.7</ele>
      </trkpt>
      <trkpt lat="46.46988" lon="4.84969">
        <ele>235.5</ele>
      </trkpt>
      <trkpt lat="46.46986" lon="4.84961">
        <ele>235.7</ele>
      </trkpt>
      <trkpt lat="46.46985" lon="4.84947">
        <ele>236</ele>
      </trkpt>
      <trkpt lat="46.46985" lon="4.8494">
        <ele>236</ele>
      </trkpt>
      <trkpt lat="46.46984" lon="4.84934">
        <ele>236</ele>
      </trkpt>
      <trkpt lat="46.46985" lon="4.84924">
        <ele>236</ele>
      </trkpt>
      <trkpt lat="46.46988" lon="4.84912">
        <ele>236.1</ele>
      </trkpt>
      <trkpt lat="46.46994" lon="4.84894">
        <ele>236.4</ele>
      </trkpt>
      <trkpt lat="46.47008" lon="4.84861">
        <ele>237</ele>
      </trkpt>
      <trkpt lat="46.47022" lon="4.8483">
        <ele>238.3</ele>
      </trkpt>
      <trkpt lat="46.47034" lon="4.84811">
        <ele>238.6</ele>
      </trkpt>
      <trkpt lat="46.4705" lon="4.84793">
        <ele>238.6</ele>
      </trkpt>
      <trkpt lat="46.47065" lon="4.84782">
        <ele>238.9</ele>
      </trkpt>
      <trkpt lat="46.47084" lon="4.84772">
        <ele>239.2</ele>
      </trkpt>
      <trkpt lat="46.47123" lon="4.84755">
        <ele>240.8</ele>
      </trkpt>
      <trkpt lat="46.4716" lon="4.84738">
        <ele>242.3</ele>
      </trkpt>
      <trkpt lat="46.47169" lon="4.84731">
        <ele>242.7</ele>
      </trkpt>
      <trkpt lat="46.47175" lon="4.84725">
        <ele>242.9</ele>
      </trkpt>
      <trkpt lat="46.47181" lon="4.84713">
        <ele>243.7</ele>
      </trkpt>
      <trkpt lat="46.47187" lon="4.84694">
        <ele>245</ele>
      </trkpt>
      <trkpt lat="46.47193" lon="4.84663">
        <ele>245.2</ele>
      </trkpt>
      <trkpt lat="46.47198" lon="4.84638">
        <ele>246</ele>
      </trkpt>
      <trkpt lat="46.47199" lon="4.84627">
        <ele>246.3</ele>
      </trkpt>
      <trkpt lat="46.47199" lon="4.84619">
        <ele>246.6</ele>
      </trkpt>
      <trkpt lat="46.47198" lon="4.8461">
        <ele>246.9</ele>
      </trkpt>
      <trkpt lat="46.47197" lon="4.84605">
        <ele>246.9</ele>
      </trkpt>
      <trkpt lat="46.47194" lon="4.84597">
        <ele>247</ele>
      </trkpt>
      <trkpt lat="46.47184" lon="4.84574">
        <ele>246.3</ele>
      </trkpt>
      <trkpt lat="46.47174" lon="4.84555">
        <ele>245.2</ele>
      </trkpt>
      <trkpt lat="46.4716" lon="4.84515">
        <ele>243.5</ele>
      </trkpt>
      <trkpt lat="46.47145" lon="4.84462">
        <ele>241.3</ele>
      </trkpt>
      <trkpt lat="46.47138" lon="4.84429">
        <ele>240</ele>
      </trkpt>
      <trkpt lat="46.47131" lon="4.84384">
        <ele>238.4</ele>
      </trkpt>
      <trkpt lat="46.4713" lon="4.84372">
        <ele>238</ele>
      </trkpt>
      <trkpt lat="46.47129" lon="4.84365">
        <ele>237.8</ele>
      </trkpt>
      <trkpt lat="46.47129" lon="4.8435">
        <ele>238</ele>
      </trkpt>
      <trkpt lat="46.4713" lon="4.84338">
        <ele>238.2</ele>
      </trkpt>
      <trkpt lat="46.47133" lon="4.84327">
        <ele>238.2</ele>
      </trkpt>
      <trkpt lat="46.47138" lon="4.84313">
        <ele>238</ele>
      </trkpt>
      <trkpt lat="46.47157" lon="4.84279">
        <ele>238.5</ele>
      </trkpt>
      <trkpt lat="46.47176" lon="4.8425">
        <ele>240.7</ele>
      </trkpt>
      <trkpt lat="46.4719" lon="4.84227">
        <ele>241.9</ele>
      </trkpt>
      <trkpt lat="46.47204" lon="4.84204">
        <ele>242.7</ele>
      </trkpt>
      <trkpt lat="46.4721" lon="4.84188">
        <ele>243.4</ele>
      </trkpt>
      <trkpt lat="46.47214" lon="4.84176">
        <ele>244.1</ele>
      </trkpt>
      <trkpt lat="46.47216" lon="4.84167">
        <ele>244.7</ele>
      </trkpt>
      <trkpt lat="46.47217" lon="4.84154">
        <ele>245.5</ele>
      </trkpt>
      <trkpt lat="46.47217" lon="4.84142">
        <ele>246.3</ele>
      </trkpt>
      <trkpt lat="46.47217" lon="4.8413">
        <ele>246.9</ele>
      </trkpt>
      <trkpt lat="46.47217" lon="4.84118">
        <ele>247.4</ele>
      </trkpt>
      <trkpt lat="46.47215" lon="4.84105">
        <ele>247.6</ele>
      </trkpt>
      <trkpt lat="46.47213" lon="4.84095">
        <ele>247.6</ele>
      </trkpt>
      <trkpt lat="46.47211" lon="4.84082">
        <ele>247.6</ele>
      </trkpt>
      <trkpt lat="46.47208" lon="4.8407">
        <ele>247.5</ele>
      </trkpt>
      <trkpt lat="46.47207" lon="4.8406">
        <ele>247.4</ele>
      </trkpt>
      <trkpt lat="46.47204" lon="4.84048">
        <ele>247.3</ele>
      </trkpt>
      <trkpt lat="46.47204" lon="4.84042">
        <ele>247.2</ele>
      </trkpt>
      <trkpt lat="46.47203" lon="4.84032">
        <ele>246.9</ele>
      </trkpt>
      <trkpt lat="46.47203" lon="4.84015">
        <ele>246.5</ele>
      </trkpt>
      <trkpt lat="46.47207" lon="4.83974">
        <ele>246.6</ele>
      </trkpt>
      <trkpt lat="46.47211" lon="4.83923">
        <ele>248</ele>
      </trkpt>
      <trkpt lat="46.47213" lon="4.83889">
        <ele>249.7</ele>
      </trkpt>
      <trkpt lat="46.47214" lon="4.83864">
        <ele>250.5</ele>
      </trkpt>
      <trkpt lat="46.47214" lon="4.83841">
        <ele>251.5</ele>
      </trkpt>
      <trkpt lat="46.47214" lon="4.83803">
        <ele>253</ele>
      </trkpt>
      <trkpt lat="46.47213" lon="4.83759">
        <ele>255</ele>
      </trkpt>
      <trkpt lat="46.47213" lon="4.83746">
        <ele>255.5</ele>
      </trkpt>
      <trkpt lat="46.47211" lon="4.8373">
        <ele>256.3</ele>
      </trkpt>
      <trkpt lat="46.47209" lon="4.83712">
        <ele>257.1</ele>
      </trkpt>
      <trkpt lat="46.47206" lon="4.83696">
        <ele>257.7</ele>
      </trkpt>
      <trkpt lat="46.47194" lon="4.8364">
        <ele>259.1</ele>
      </trkpt>
      <trkpt lat="46.47176" lon="4.83573">
        <ele>262</ele>
      </trkpt>
      <trkpt lat="46.47167" lon="4.83577">
        <ele>263</ele>
      </trkpt>
      <trkpt lat="46.47152" lon="4.83579">
        <ele>264.9</ele>
      </trkpt>
      <trkpt lat="46.47106" lon="4.83529">
        <ele>269.8</ele>
      </trkpt>
      <trkpt lat="46.47066" lon="4.83503">
        <ele>273.9</ele>
      </trkpt>
      <trkpt lat="46.47069" lon="4.83499">
        <ele>273.5</ele>
      </trkpt>
      <trkpt lat="46.47069" lon="4.83492">
        <ele>273.1</ele>
      </trkpt>
      <trkpt lat="46.47063" lon="4.83483">
        <ele>273.4</ele>
      </trkpt>
      <trkpt lat="46.47048" lon="4.83465">
        <ele>274.5</ele>
      </trkpt>
      <trkpt lat="46.47031" lon="4.83445">
        <ele>275.5</ele>
      </trkpt>
      <trkpt lat="46.47019" lon="4.83429">
        <ele>276.5</ele>
      </trkpt>
      <trkpt lat="46.47006" lon="4.83416">
        <ele>277.9</ele>
      </trkpt>
      <trkpt lat="46.46992" lon="4.83405">
        <ele>277.9</ele>
      </trkpt>
      <trkpt lat="46.46973" lon="4.83393">
        <ele>278.5</ele>
      </trkpt>
      <trkpt lat="46.46957" lon="4.83379">
        <ele>278.6</ele>
      </trkpt>
      <trkpt lat="46.46939" lon="4.83363">
        <ele>278.2</ele>
      </trkpt>
      <trkpt lat="46.4693" lon="4.83355">
        <ele>277.8</ele>
      </trkpt>
      <trkpt lat="46.46926" lon="4.83351">
        <ele>277.7</ele>
      </trkpt>
      <trkpt lat="46.46918" lon="4.83347">
        <ele>277.8</ele>
      </trkpt>
      <trkpt lat="46.46908" lon="4.83341">
        <ele>276.8</ele>
      </trkpt>
      <trkpt lat="46.46899" lon="4.83334">
        <ele>275.8</ele>
      </trkpt>
      <trkpt lat="46.46893" lon="4.83329">
        <ele>275</ele>
      </trkpt>
      <trkpt lat="46.46849" lon="4.83329">
        <ele>276.7</ele>
      </trkpt>
      <trkpt lat="46.46844" lon="4.83329">
        <ele>276.9</ele>
      </trkpt>
      <trkpt lat="46.46775" lon="4.83328">
        <ele>280.7</ele>
      </trkpt>
      <trkpt lat="46.4675" lon="4.83327">
        <ele>282.5</ele>
      </trkpt>
      <trkpt lat="46.46742" lon="4.83326">
        <ele>283.6</ele>
      </trkpt>
      <trkpt lat="46.46733" lon="4.83324">
        <ele>284.7</ele>
      </trkpt>
      <trkpt lat="46.46723" lon="4.8332">
        <ele>286</ele>
      </trkpt>
      <trkpt lat="46.46702" lon="4.83308">
        <ele>286.6</ele>
      </trkpt>
      <trkpt lat="46.46698" lon="4.83306">
        <ele>286.8</ele>
      </trkpt>
      <trkpt lat="46.46698" lon="4.83317">
        <ele>287.6</ele>
      </trkpt>
      <trkpt lat="46.46697" lon="4.83324">
        <ele>288.1</ele>
      </trkpt>
      <trkpt lat="46.46697" lon="4.83331">
        <ele>288.6</ele>
      </trkpt>
      <trkpt lat="46.46696" lon="4.83341">
        <ele>289.4</ele>
      </trkpt>
      <trkpt lat="46.46695" lon="4.83348">
        <ele>290</ele>
      </trkpt>
      <trkpt lat="46.46693" lon="4.83359">
        <ele>291</ele>
      </trkpt>
      <trkpt lat="46.46689" lon="4.83372">
        <ele>292.2</ele>
      </trkpt>
      <trkpt lat="46.46684" lon="4.83389">
        <ele>293.8</ele>
      </trkpt>
      <trkpt lat="46.46678" lon="4.83407">
        <ele>296.4</ele>
      </trkpt>
      <trkpt lat="46.46672" lon="4.83414">
        <ele>297.9</ele>
      </trkpt>
      <trkpt lat="46.46667" lon="4.83419">
        <ele>299.2</ele>
      </trkpt>
      <trkpt lat="46.46665" lon="4.83424">
        <ele>300.4</ele>
      </trkpt>
      <trkpt lat="46.46663" lon="4.83431">
        <ele>301.7</ele>
      </trkpt>
      <trkpt lat="46.46662" lon="4.83437">
        <ele>302.7</ele>
      </trkpt>
      <trkpt lat="46.46663" lon="4.83443">
        <ele>303.7</ele>
      </trkpt>
      <trkpt lat="46.46664" lon="4.83449">
        <ele>304.3</ele>
      </trkpt>
      <trkpt lat="46.46665" lon="4.83461">
        <ele>305.7</ele>
      </trkpt>
      <trkpt lat="46.46668" lon="4.83482">
        <ele>308.6</ele>
      </trkpt>
      <trkpt lat="46.46669" lon="4.83492">
        <ele>310.2</ele>
      </trkpt>
      <trkpt lat="46.46672" lon="4.83502">
        <ele>311.6</ele>
      </trkpt>
      <trkpt lat="46.46673" lon="4.83512">
        <ele>312.8</ele>
      </trkpt>
      <trkpt lat="46.46675" lon="4.8352">
        <ele>313.7</ele>
      </trkpt>
      <trkpt lat="46.46682" lon="4.83541">
        <ele>316.8</ele>
      </trkpt>
      <trkpt lat="46.46694" lon="4.83568">
        <ele>321.5</ele>
      </trkpt>
      <trkpt lat="46.46704" lon="4.83584">
        <ele>324.1</ele>
      </trkpt>
      <trkpt lat="46.46724" lon="4.83608">
        <ele>327.4</ele>
      </trkpt>
      <trkpt lat="46.46739" lon="4.83628">
        <ele>329.9</ele>
      </trkpt>
      <trkpt lat="46.46748" lon="4.83641">
        <ele>331.7</ele>
      </trkpt>
      <trkpt lat="46.46751" lon="4.83648">
        <ele>332.1</ele>
      </trkpt>
      <trkpt lat="46.46754" lon="4.83657">
        <ele>332.8</ele>
      </trkpt>
      <trkpt lat="46.46754" lon="4.83667">
        <ele>334.1</ele>
      </trkpt>
      <trkpt lat="46.46753" lon="4.83677">
        <ele>335.2</ele>
      </trkpt>
      <trkpt lat="46.4675" lon="4.83687">
        <ele>336.4</ele>
      </trkpt>
      <trkpt lat="46.46747" lon="4.83694">
        <ele>337.5</ele>
      </trkpt>
      <trkpt lat="46.46741" lon="4.83702">
        <ele>338.5</ele>
      </trkpt>
      <trkpt lat="46.46739" lon="4.83712">
        <ele>338.5</ele>
      </trkpt>
      <trkpt lat="46.46728" lon="4.83701">
        <ele>340.6</ele>
      </trkpt>
      <trkpt lat="46.46718" lon="4.83689">
        <ele>342.2</ele>
      </trkpt>
      <trkpt lat="46.46705" lon="4.83673">
        <ele>344</ele>
      </trkpt>
      <trkpt lat="46.46694" lon="4.83662">
        <ele>345.5</ele>
      </trkpt>
      <trkpt lat="46.46685" lon="4.83654">
        <ele>345.8</ele>
      </trkpt>
      <trkpt lat="46.4667" lon="4.83644">
        <ele>347.4</ele>
      </trkpt>
      <trkpt lat="46.46655" lon="4.83634">
        <ele>348.3</ele>
      </trkpt>
      <trkpt lat="46.46644" lon="4.83627">
        <ele>349.3</ele>
      </trkpt>
      <trkpt lat="46.46627" lon="4.83615">
        <ele>351.3</ele>
      </trkpt>
      <trkpt lat="46.46609" lon="4.83599">
        <ele>350.2</ele>
      </trkpt>
      <trkpt lat="46.46599" lon="4.83589">
        <ele>350.4</ele>
      </trkpt>
      <trkpt lat="46.46587" lon="4.83582">
        <ele>352.6</ele>
      </trkpt>
      <trkpt lat="46.46576" lon="4.83577">
        <ele>353.4</ele>
      </trkpt>
      <trkpt lat="46.46558" lon="4.83569">
        <ele>354.6</ele>
      </trkpt>
      <trkpt lat="46.46545" lon="4.83563">
        <ele>355.4</ele>
      </trkpt>
      <trkpt lat="46.46542" lon="4.83562">
        <ele>355.8</ele>
      </trkpt>
      <trkpt lat="46.46535" lon="4.83559">
        <ele>356.3</ele>
      </trkpt>
      <trkpt lat="46.46523" lon="4.83551">
        <ele>356.6</ele>
      </trkpt>
      <trkpt lat="46.4651" lon="4.83543">
        <ele>356.3</ele>
      </trkpt>
      <trkpt lat="46.46498" lon="4.83537">
        <ele>356.5</ele>
      </trkpt>
      <trkpt lat="46.46489" lon="4.83535">
        <ele>357.3</ele>
      </trkpt>
      <trkpt lat="46.46477" lon="4.83535">
        <ele>358.7</ele>
      </trkpt>
      <trkpt lat="46.46467" lon="4.83537">
        <ele>359.9</ele>
      </trkpt>
      <trkpt lat="46.4646" lon="4.83538">
        <ele>360.5</ele>
      </trkpt>
      <trkpt lat="46.46458" lon="4.83527">
        <ele>360.4</ele>
      </trkpt>
      <trkpt lat="46.46452" lon="4.83513">
        <ele>359.2</ele>
      </trkpt>
      <trkpt lat="46.46447" lon="4.83507">
        <ele>359.4</ele>
      </trkpt>
      <trkpt lat="46.46438" lon="4.835">
        <ele>359.5</ele>
      </trkpt>
      <trkpt lat="46.46429" lon="4.83495">
        <ele>358.5</ele>
      </trkpt>
      <trkpt lat="46.46426" lon="4.83495">
        <ele>358.8</ele>
      </trkpt>
      <trkpt lat="46.46423" lon="4.83498">
        <ele>360</ele>
      </trkpt>
      <trkpt lat="46.46419" lon="4.8351">
        <ele>361.2</ele>
      </trkpt>
      <trkpt lat="46.46412" lon="4.83531">
        <ele>362.1</ele>
      </trkpt>
      <trkpt lat="46.46407" lon="4.83548">
        <ele>362.1</ele>
      </trkpt>
      <trkpt lat="46.46405" lon="4.83553">
        <ele>362</ele>
      </trkpt>
      <trkpt lat="46.46403" lon="4.83555">
        <ele>362</ele>
      </trkpt>
      <trkpt lat="46.46399" lon="4.83556">
        <ele>362</ele>
      </trkpt>
      <trkpt lat="46.46391" lon="4.83556">
        <ele>362</ele>
      </trkpt>
      <trkpt lat="46.46385" lon="4.83555">
        <ele>362.2</ele>
      </trkpt>
      <trkpt lat="46.46377" lon="4.83554">
        <ele>362.5</ele>
      </trkpt>
      <trkpt lat="46.46369" lon="4.8355">
        <ele>362.9</ele>
      </trkpt>
      <trkpt lat="46.46361" lon="4.83543">
        <ele>363.5</ele>
      </trkpt>
      <trkpt lat="46.46348" lon="4.83529">
        <ele>364.4</ele>
      </trkpt>
      <trkpt lat="46.46339" lon="4.83517">
        <ele>365.1</ele>
      </trkpt>
      <trkpt lat="46.46336" lon="4.83516">
        <ele>365.3</ele>
      </trkpt>
      <trkpt lat="46.46333" lon="4.83517">
        <ele>365.4</ele>
      </trkpt>
      <trkpt lat="46.4633" lon="4.8352">
        <ele>365.4</ele>
      </trkpt>
      <trkpt lat="46.46328" lon="4.83517">
        <ele>365.6</ele>
      </trkpt>
      <trkpt lat="46.46316" lon="4.83512">
        <ele>366.2</ele>
      </trkpt>
      <trkpt lat="46.46298" lon="4.83506">
        <ele>367.3</ele>
      </trkpt>
      <trkpt lat="46.46257" lon="4.83496">
        <ele>370.5</ele>
      </trkpt>
      <trkpt lat="46.46232" lon="4.83475">
        <ele>372.3</ele>
      </trkpt>
      <trkpt lat="46.46208" lon="4.83462">
        <ele>373.7</ele>
      </trkpt>
      <trkpt lat="46.46192" lon="4.83456">
        <ele>374.7</ele>
      </trkpt>
      <trkpt lat="46.46168" lon="4.83449">
        <ele>376.2</ele>
      </trkpt>
      <trkpt lat="46.46156" lon="4.83447">
        <ele>377.4</ele>
      </trkpt>
      <trkpt lat="46.46089" lon="4.8345">
        <ele>382.8</ele>
      </trkpt>
      <trkpt lat="46.46012" lon="4.83453">
        <ele>383.8</ele>
      </trkpt>
      <trkpt lat="46.45944" lon="4.83462">
        <ele>383.3</ele>
      </trkpt>
      <trkpt lat="46.45922" lon="4.83466">
        <ele>382.4</ele>
      </trkpt>
      <trkpt lat="46.45887" lon="4.83476">
        <ele>380.8</ele>
      </trkpt>
      <trkpt lat="46.45873" lon="4.83484">
        <ele>379.7</ele>
      </trkpt>
      <trkpt lat="46.45861" lon="4.83495">
        <ele>378.3</ele>
      </trkpt>
      <trkpt lat="46.45852" lon="4.83517">
        <ele>376.3</ele>
      </trkpt>
      <trkpt lat="46.4584" lon="4.83506">
        <ele>376.2</ele>
      </trkpt>
      <trkpt lat="46.45805" lon="4.83479">
        <ele>376.5</ele>
      </trkpt>
      <trkpt lat="46.45762" lon="4.83446">
        <ele>376.3</ele>
      </trkpt>
      <trkpt lat="46.45737" lon="4.83492">
        <ele>369.6</ele>
      </trkpt>
      <trkpt lat="46.45706" lon="4.83548">
        <ele>360.5</ele>
      </trkpt>
      <trkpt lat="46.45655" lon="4.83641">
        <ele>347</ele>
      </trkpt>
      <trkpt lat="46.45641" lon="4.83668">
        <ele>343.1</ele>
      </trkpt>
      <trkpt lat="46.4561" lon="4.83724">
        <ele>334.8</ele>
      </trkpt>
      <trkpt lat="46.45601" lon="4.8374">
        <ele>333</ele>
      </trkpt>
      <trkpt lat="46.45589" lon="4.8376">
        <ele>330.5</ele>
      </trkpt>
      <trkpt lat="46.45578" lon="4.83783">
        <ele>327.8</ele>
      </trkpt>
      <trkpt lat="46.45571" lon="4.83803">
        <ele>325.1</ele>
      </trkpt>
      <trkpt lat="46.45513" lon="4.83759">
        <ele>322.1</ele>
      </trkpt>
      <trkpt lat="46.45465" lon="4.8372">
        <ele>319.1</ele>
      </trkpt>
      <trkpt lat="46.45444" lon="4.83703">
        <ele>317.3</ele>
      </trkpt>
      <trkpt lat="46.45434" lon="4.83692">
        <ele>316.6</ele>
      </trkpt>
      <trkpt lat="46.45412" lon="4.8369">
        <ele>313.4</ele>
      </trkpt>
      <trkpt lat="46.45401" lon="4.83688">
        <ele>311.4</ele>
      </trkpt>
      <trkpt lat="46.45392" lon="4.83685">
        <ele>309.9</ele>
      </trkpt>
      <trkpt lat="46.45371" lon="4.83683">
        <ele>305.8</ele>
      </trkpt>
      <trkpt lat="46.45368" lon="4.83683">
        <ele>305.1</ele>
      </trkpt>
      <trkpt lat="46.45364" lon="4.83683">
        <ele>304.4</ele>
      </trkpt>
      <trkpt lat="46.45343" lon="4.83681">
        <ele>301.7</ele>
      </trkpt>
      <trkpt lat="46.45332" lon="4.83678">
        <ele>300.4</ele>
      </trkpt>
      <trkpt lat="46.45326" lon="4.83679">
        <ele>299.8</ele>
      </trkpt>
      <trkpt lat="46.45317" lon="4.83671">
        <ele>299.1</ele>
      </trkpt>
      <trkpt lat="46.45307" lon="4.83665">
        <ele>298.3</ele>
      </trkpt>
      <trkpt lat="46.45296" lon="4.83662">
        <ele>297.4</ele>
      </trkpt>
      <trkpt lat="46.45284" lon="4.83659">
        <ele>296.4</ele>
      </trkpt>
      <trkpt lat="46.45279" lon="4.83656">
        <ele>296.2</ele>
      </trkpt>
      <trkpt lat="46.45276" lon="4.83655">
        <ele>296.1</ele>
      </trkpt>
      <trkpt lat="46.45265" lon="4.83648">
        <ele>295.5</ele>
      </trkpt>
      <trkpt lat="46.45249" lon="4.83634">
        <ele>294.3</ele>
      </trkpt>
      <trkpt lat="46.45232" lon="4.83616">
        <ele>293.2</ele>
      </trkpt>
      <trkpt lat="46.45221" lon="4.83607">
        <ele>292.3</ele>
      </trkpt>
      <trkpt lat="46.45209" lon="4.83602">
        <ele>292.1</ele>
      </trkpt>
      <trkpt lat="46.452" lon="4.83599">
        <ele>291.7</ele>
      </trkpt>
      <trkpt lat="46.45193" lon="4.83598">
        <ele>291.4</ele>
      </trkpt>
      <trkpt lat="46.45187" lon="4.83597">
        <ele>291.1</ele>
      </trkpt>
      <trkpt lat="46.45159" lon="4.83599">
        <ele>289.3</ele>
      </trkpt>
      <trkpt lat="46.45132" lon="4.83602">
        <ele>287.4</ele>
      </trkpt>
      <trkpt lat="46.45109" lon="4.83604">
        <ele>286.3</ele>
      </trkpt>
      <trkpt lat="46.45104" lon="4.83607">
        <ele>285.8</ele>
      </trkpt>
      <trkpt lat="46.451" lon="4.83611">
        <ele>285.2</ele>
      </trkpt>
      <trkpt lat="46.45097" lon="4.83616">
        <ele>284.7</ele>
      </trkpt>
      <trkpt lat="46.45096" lon="4.83623">
        <ele>284.3</ele>
      </trkpt>
      <trkpt lat="46.45095" lon="4.8363">
        <ele>283.9</ele>
      </trkpt>
      <trkpt lat="46.45096" lon="4.83637">
        <ele>283.5</ele>
      </trkpt>
      <trkpt lat="46.45098" lon="4.83647">
        <ele>282.5</ele>
      </trkpt>
      <trkpt lat="46.45104" lon="4.83656">
        <ele>282</ele>
      </trkpt>
      <trkpt lat="46.45114" lon="4.83668">
        <ele>281.8</ele>
      </trkpt>
      <trkpt lat="46.45129" lon="4.83681">
        <ele>280.3</ele>
      </trkpt>
      <trkpt lat="46.45133" lon="4.83685">
        <ele>279.8</ele>
      </trkpt>
      <trkpt lat="46.45134" lon="4.8369">
        <ele>279.2</ele>
      </trkpt>
      <trkpt lat="46.45134" lon="4.83695">
        <ele>278.4</ele>
      </trkpt>
      <trkpt lat="46.45131" lon="4.83699">
        <ele>277.7</ele>
      </trkpt>
      <trkpt lat="46.45128" lon="4.83701">
        <ele>277.2</ele>
      </trkpt>
      <trkpt lat="46.45123" lon="4.83702">
        <ele>276.8</ele>
      </trkpt>
      <trkpt lat="46.45103" lon="4.837">
        <ele>275.3</ele>
      </trkpt>
      <trkpt lat="46.45077" lon="4.83697">
        <ele>273.2</ele>
      </trkpt>
      <trkpt lat="46.45066" lon="4.83693">
        <ele>272.9</ele>
      </trkpt>
      <trkpt lat="46.45057" lon="4.83689">
        <ele>272.5</ele>
      </trkpt>
      <trkpt lat="46.45052" lon="4.83684">
        <ele>272.2</ele>
      </trkpt>
      <trkpt lat="46.45046" lon="4.8368">
        <ele>271.7</ele>
      </trkpt>
      <trkpt lat="46.4504" lon="4.83675">
        <ele>271.2</ele>
      </trkpt>
      <trkpt lat="46.45043" lon="4.83667">
        <ele>272.2</ele>
      </trkpt>
      <trkpt lat="46.45044" lon="4.83663">
        <ele>272.8</ele>
      </trkpt>
      <trkpt lat="46.45044" lon="4.83656">
        <ele>273.6</ele>
      </trkpt>
      <trkpt lat="46.45043" lon="4.83648">
        <ele>274.5</ele>
      </trkpt>
      <trkpt lat="46.45042" lon="4.83641">
        <ele>275.2</ele>
      </trkpt>
      <trkpt lat="46.4504" lon="4.83633">
        <ele>275.9</ele>
      </trkpt>
      <trkpt lat="46.45039" lon="4.83623">
        <ele>276.8</ele>
      </trkpt>
      <trkpt lat="46.45038" lon="4.83613">
        <ele>277.7</ele>
      </trkpt>
      <trkpt lat="46.45038" lon="4.83604">
        <ele>278.2</ele>
      </trkpt>
      <trkpt lat="46.4504" lon="4.83592">
        <ele>278.9</ele>
      </trkpt>
      <trkpt lat="46.45042" lon="4.83577">
        <ele>279.9</ele>
      </trkpt>
      <trkpt lat="46.45049" lon="4.83541">
        <ele>282.5</ele>
      </trkpt>
      <trkpt lat="46.45058" lon="4.83493">
        <ele>286.9</ele>
      </trkpt>
      <trkpt lat="46.4506" lon="4.8348">
        <ele>288.6</ele>
      </trkpt>
      <trkpt lat="46.45062" lon="4.83471">
        <ele>289.6</ele>
      </trkpt>
      <trkpt lat="46.45062" lon="4.83465">
        <ele>290.3</ele>
      </trkpt>
      <trkpt lat="46.45061" lon="4.83461">
        <ele>290.6</ele>
      </trkpt>
      <trkpt lat="46.45059" lon="4.83459">
        <ele>290.6</ele>
      </trkpt>
      <trkpt lat="46.45028" lon="4.83448">
        <ele>289.7</ele>
      </trkpt>
      <trkpt lat="46.44988" lon="4.83433">
        <ele>290.4</ele>
      </trkpt>
      <trkpt lat="46.44967" lon="4.83425">
        <ele>291.8</ele>
      </trkpt>
      <trkpt lat="46.44957" lon="4.83418">
        <ele>292.9</ele>
      </trkpt>
      <trkpt lat="46.4493" lon="4.83398">
        <ele>296.1</ele>
      </trkpt>
      <trkpt lat="46.44906" lon="4.83378">
        <ele>298.3</ele>
      </trkpt>
      <trkpt lat="46.44858" lon="4.83337">
        <ele>303.3</ele>
      </trkpt>
      <trkpt lat="46.44836" lon="4.83318">
        <ele>305.8</ele>
      </trkpt>
      <trkpt lat="46.4483" lon="4.83308">
        <ele>306.7</ele>
      </trkpt>
      <trkpt lat="46.44825" lon="4.83314">
        <ele>305.8</ele>
      </trkpt>
      <trkpt lat="46.4482" lon="4.83322">
        <ele>304.4</ele>
      </trkpt>
      <trkpt lat="46.44815" lon="4.83331">
        <ele>302.5</ele>
      </trkpt>
      <trkpt lat="46.44811" lon="4.83338">
        <ele>300.6</ele>
      </trkpt>
      <trkpt lat="46.44807" lon="4.83346">
        <ele>298.5</ele>
      </trkpt>
      <trkpt lat="46.44803" lon="4.83353">
        <ele>296.6</ele>
      </trkpt>
      <trkpt lat="46.44801" lon="4.8336">
        <ele>295.1</ele>
      </trkpt>
      <trkpt lat="46.448" lon="4.83368">
        <ele>293.8</ele>
      </trkpt>
      <trkpt lat="46.44798" lon="4.83372">
        <ele>293</ele>
      </trkpt>
      <trkpt lat="46.44795" lon="4.8338">
        <ele>291.6</ele>
      </trkpt>
      <trkpt lat="46.44792" lon="4.8339">
        <ele>289.8</ele>
      </trkpt>
      <trkpt lat="46.44787" lon="4.83402">
        <ele>287.7</ele>
      </trkpt>
      <trkpt lat="46.44783" lon="4.83413">
        <ele>285.4</ele>
      </trkpt>
      <trkpt lat="46.44782" lon="4.83419">
        <ele>284.4</ele>
      </trkpt>
      <trkpt lat="46.44784" lon="4.83429">
        <ele>283.1</ele>
      </trkpt>
      <trkpt lat="46.44786" lon="4.83439">
        <ele>281.9</ele>
      </trkpt>
      <trkpt lat="46.44788" lon="4.8345">
        <ele>280.5</ele>
      </trkpt>
      <trkpt lat="46.44785" lon="4.83462">
        <ele>277.7</ele>
      </trkpt>
      <trkpt lat="46.44779" lon="4.83471">
        <ele>274.5</ele>
      </trkpt>
      <trkpt lat="46.44773" lon="4.83475">
        <ele>273.2</ele>
      </trkpt>
      <trkpt lat="46.44767" lon="4.83477">
        <ele>272.3</ele>
      </trkpt>
      <trkpt lat="46.4476" lon="4.83479">
        <ele>271.2</ele>
      </trkpt>
      <trkpt lat="46.44757" lon="4.83483">
        <ele>270.4</ele>
      </trkpt>
      <trkpt lat="46.44754" lon="4.83491">
        <ele>268.9</ele>
      </trkpt>
      <trkpt lat="46.44752" lon="4.83499">
        <ele>267.6</ele>
      </trkpt>
      <trkpt lat="46.44749" lon="4.8351">
        <ele>266.2</ele>
      </trkpt>
      <trkpt lat="46.44747" lon="4.83518">
        <ele>265.5</ele>
      </trkpt>
      <trkpt lat="46.44745" lon="4.83526">
        <ele>264.7</ele>
      </trkpt>
      <trkpt lat="46.44744" lon="4.83534">
        <ele>264</ele>
      </trkpt>
      <trkpt lat="46.44743" lon="4.83543">
        <ele>263.1</ele>
      </trkpt>
      <trkpt lat="46.44743" lon="4.83549">
        <ele>262.5</ele>
      </trkpt>
      <trkpt lat="46.44743" lon="4.83557">
        <ele>261.9</ele>
      </trkpt>
      <trkpt lat="46.44744" lon="4.83565">
        <ele>261.1</ele>
      </trkpt>
      <trkpt lat="46.44741" lon="4.83562">
        <ele>261.1</ele>
      </trkpt>
      <trkpt lat="46.44716" lon="4.83541">
        <ele>260.6</ele>
      </trkpt>
      <trkpt lat="46.44686" lon="4.83516">
        <ele>260.1</ele>
      </trkpt>
      <trkpt lat="46.44644" lon="4.8349">
        <ele>259.9</ele>
      </trkpt>
      <trkpt lat="46.44612" lon="4.83469">
        <ele>260.3</ele>
      </trkpt>
      <trkpt lat="46.44588" lon="4.83453">
        <ele>260</ele>
      </trkpt>
      <trkpt lat="46.44559" lon="4.83435">
        <ele>260.3</ele>
      </trkpt>
      <trkpt lat="46.44533" lon="4.83424">
        <ele>260.2</ele>
      </trkpt>
      <trkpt lat="46.44487" lon="4.83399">
        <ele>261.4</ele>
      </trkpt>
      <trkpt lat="46.44464" lon="4.83388">
        <ele>262.1</ele>
      </trkpt>
      <trkpt lat="46.44458" lon="4.83386">
        <ele>262.5</ele>
      </trkpt>
      <trkpt lat="46.4443" lon="4.83374">
        <ele>264.7</ele>
      </trkpt>
      <trkpt lat="46.44421" lon="4.8337">
        <ele>265.6</ele>
      </trkpt>
      <trkpt lat="46.44412" lon="4.83365">
        <ele>266.4</ele>
      </trkpt>
      <trkpt lat="46.44406" lon="4.83359">
        <ele>267.2</ele>
      </trkpt>
      <trkpt lat="46.44399" lon="4.83349">
        <ele>268.4</ele>
      </trkpt>
      <trkpt lat="46.44393" lon="4.83336">
        <ele>269.7</ele>
      </trkpt>
      <trkpt lat="46.4439" lon="4.83327">
        <ele>270.5</ele>
      </trkpt>
      <trkpt lat="46.44387" lon="4.83322">
        <ele>270.6</ele>
      </trkpt>
      <trkpt lat="46.44381" lon="4.8332">
        <ele>270.4</ele>
      </trkpt>
      <trkpt lat="46.44343" lon="4.83304">
        <ele>269.5</ele>
      </trkpt>
      <trkpt lat="46.44337" lon="4.83302">
        <ele>269.4</ele>
      </trkpt>
      <trkpt lat="46.44335" lon="4.83302">
        <ele>269.4</ele>
      </trkpt>
      <trkpt lat="46.44332" lon="4.83301">
        <ele>269.1</ele>
      </trkpt>
      <trkpt lat="46.44329" lon="4.83305">
        <ele>268.6</ele>
      </trkpt>
      <trkpt lat="46.44327" lon="4.83316">
        <ele>267.5</ele>
      </trkpt>
      <trkpt lat="46.4432" lon="4.83314">
        <ele>266.9</ele>
      </trkpt>
      <trkpt lat="46.44275" lon="4.83285">
        <ele>263.6</ele>
      </trkpt>
      <trkpt lat="46.44272" lon="4.83282">
        <ele>263.4</ele>
      </trkpt>
      <trkpt lat="46.44256" lon="4.83275">
        <ele>262.6</ele>
      </trkpt>
      <trkpt lat="46.4425" lon="4.83274">
        <ele>262.3</ele>
      </trkpt>
      <trkpt lat="46.44241" lon="4.83275">
        <ele>261.6</ele>
      </trkpt>
      <trkpt lat="46.44234" lon="4.83274">
        <ele>261.1</ele>
      </trkpt>
      <trkpt lat="46.44229" lon="4.83273">
        <ele>260.8</ele>
      </trkpt>
      <trkpt lat="46.44225" lon="4.83271">
        <ele>260.7</ele>
      </trkpt>
      <trkpt lat="46.44218" lon="4.83267">
        <ele>260.5</ele>
      </trkpt>
      <trkpt lat="46.44159" lon="4.83219">
        <ele>259.4</ele>
      </trkpt>
      <trkpt lat="46.44153" lon="4.83223">
        <ele>258.5</ele>
      </trkpt>
      <trkpt lat="46.4415" lon="4.83226">
        <ele>257.9</ele>
      </trkpt>
      <trkpt lat="46.44146" lon="4.83227">
        <ele>257.4</ele>
      </trkpt>
      <trkpt lat="46.44142" lon="4.83227">
        <ele>257</ele>
      </trkpt>
      <trkpt lat="46.44137" lon="4.83226">
        <ele>256.7</ele>
      </trkpt>
      <trkpt lat="46.44133" lon="4.83225">
        <ele>256.6</ele>
      </trkpt>
      <trkpt lat="46.44131" lon="4.83226">
        <ele>256.4</ele>
      </trkpt>
      <trkpt lat="46.4413" lon="4.83229">
        <ele>256.2</ele>
      </trkpt>
      <trkpt lat="46.44127" lon="4.83251">
        <ele>254.5</ele>
      </trkpt>
      <trkpt lat="46.44118" lon="4.83249">
        <ele>254.3</ele>
      </trkpt>
      <trkpt lat="46.44109" lon="4.8325">
        <ele>254.2</ele>
      </trkpt>
      <trkpt lat="46.441" lon="4.83275">
        <ele>253.5</ele>
      </trkpt>
      <trkpt lat="46.44095" lon="4.83298">
        <ele>252.4</ele>
      </trkpt>
      <trkpt lat="46.44091" lon="4.83311">
        <ele>251.9</ele>
      </trkpt>
      <trkpt lat="46.4409" lon="4.8331">
        <ele>252</ele>
      </trkpt>
      <trkpt lat="46.44079" lon="4.83306">
        <ele>252.3</ele>
      </trkpt>
      <trkpt lat="46.44068" lon="4.83302">
        <ele>253.3</ele>
      </trkpt>
      <trkpt lat="46.44056" lon="4.83295">
        <ele>254.4</ele>
      </trkpt>
      <trkpt lat="46.4405" lon="4.83292">
        <ele>255</ele>
      </trkpt>
      <trkpt lat="46.44051" lon="4.83282">
        <ele>255.2</ele>
      </trkpt>
      <trkpt lat="46.44055" lon="4.83262">
        <ele>256.2</ele>
      </trkpt>
      <trkpt lat="46.44056" lon="4.83247">
        <ele>257.3</ele>
      </trkpt>
      <trkpt lat="46.44061" lon="4.83211">
        <ele>260.9</ele>
      </trkpt>
      <trkpt lat="46.44068" lon="4.83174">
        <ele>265.5</ele>
      </trkpt>
      <trkpt lat="46.44075" lon="4.83143">
        <ele>270</ele>
      </trkpt>
      <trkpt lat="46.44078" lon="4.83122">
        <ele>273</ele>
      </trkpt>
      <trkpt lat="46.44078" lon="4.83104">
        <ele>275.5</ele>
      </trkpt>
      <trkpt lat="46.44081" lon="4.83081">
        <ele>278.1</ele>
      </trkpt>
      <trkpt lat="46.44086" lon="4.83045">
        <ele>285.2</ele>
      </trkpt>
      <trkpt lat="46.44082" lon="4.83045">
        <ele>286.4</ele>
      </trkpt>
      <trkpt lat="46.44073" lon="4.83049">
        <ele>286.6</ele>
      </trkpt>
      <trkpt lat="46.44067" lon="4.83049">
        <ele>287.5</ele>
      </trkpt>
      <trkpt lat="46.44062" lon="4.83045">
        <ele>289.4</ele>
      </trkpt>
      <trkpt lat="46.44052" lon="4.83029">
        <ele>293.5</ele>
      </trkpt>
      <trkpt lat="46.44039" lon="4.83006">
        <ele>297.8</ele>
      </trkpt>
      <trkpt lat="46.4403" lon="4.82983">
        <ele>302.5</ele>
      </trkpt>
      <trkpt lat="46.44025" lon="4.82974">
        <ele>304.1</ele>
      </trkpt>
      <trkpt lat="46.44019" lon="4.82969">
        <ele>304.8</ele>
      </trkpt>
      <trkpt lat="46.44016" lon="4.82963">
        <ele>305.7</ele>
      </trkpt>
      <trkpt lat="46.44011" lon="4.82954">
        <ele>307</ele>
      </trkpt>
      <trkpt lat="46.43996" lon="4.82929">
        <ele>310.6</ele>
      </trkpt>
      <trkpt lat="46.43993" lon="4.82924">
        <ele>311.3</ele>
      </trkpt>
      <trkpt lat="46.43991" lon="4.82917">
        <ele>312.4</ele>
      </trkpt>
      <trkpt lat="46.43991" lon="4.8291">
        <ele>313.1</ele>
      </trkpt>
      <trkpt lat="46.43991" lon="4.82903">
        <ele>314</ele>
      </trkpt>
      <trkpt lat="46.43992" lon="4.82896">
        <ele>314.8</ele>
      </trkpt>
      <trkpt lat="46.43992" lon="4.8289">
        <ele>315.6</ele>
      </trkpt>
      <trkpt lat="46.43993" lon="4.82882">
        <ele>316</ele>
      </trkpt>
      <trkpt lat="46.43994" lon="4.82873">
        <ele>316.5</ele>
      </trkpt>
      <trkpt lat="46.43995" lon="4.82865">
        <ele>316.8</ele>
      </trkpt>
      <trkpt lat="46.43995" lon="4.82859">
        <ele>317.2</ele>
      </trkpt>
      <trkpt lat="46.43994" lon="4.82853">
        <ele>317.8</ele>
      </trkpt>
      <trkpt lat="46.43992" lon="4.82843">
        <ele>318.8</ele>
      </trkpt>
      <trkpt lat="46.43991" lon="4.82838">
        <ele>319.2</ele>
      </trkpt>
      <trkpt lat="46.4399" lon="4.82836">
        <ele>319.4</ele>
      </trkpt>
      <trkpt lat="46.43988" lon="4.82828">
        <ele>319.9</ele>
      </trkpt>
      <trkpt lat="46.43984" lon="4.82817">
        <ele>320.2</ele>
      </trkpt>
      <trkpt lat="46.43975" lon="4.82816">
        <ele>319.8</ele>
      </trkpt>
      <trkpt lat="46.43967" lon="4.82814">
        <ele>319.2</ele>
      </trkpt>
      <trkpt lat="46.4396" lon="4.8281">
        <ele>318.7</ele>
      </trkpt>
      <trkpt lat="46.43954" lon="4.82807">
        <ele>318.5</ele>
      </trkpt>
      <trkpt lat="46.43949" lon="4.82807">
        <ele>318.1</ele>
      </trkpt>
      <trkpt lat="46.43941" lon="4.82805">
        <ele>317.8</ele>
      </trkpt>
      <trkpt lat="46.43935" lon="4.82801">
        <ele>317.6</ele>
      </trkpt>
      <trkpt lat="46.43929" lon="4.82796">
        <ele>317.6</ele>
      </trkpt>
      <trkpt lat="46.43922" lon="4.82788">
        <ele>317.6</ele>
      </trkpt>
      <trkpt lat="46.43912" lon="4.8278">
        <ele>317.5</ele>
      </trkpt>
      <trkpt lat="46.43899" lon="4.82775">
        <ele>316.8</ele>
      </trkpt>
      <trkpt lat="46.43891" lon="4.82772">
        <ele>316.3</ele>
      </trkpt>
      <trkpt lat="46.4388" lon="4.82771">
        <ele>315.9</ele>
      </trkpt>
      <trkpt lat="46.43875" lon="4.82768">
        <ele>315.8</ele>
      </trkpt>
      <trkpt lat="46.43864" lon="4.82762">
        <ele>315.7</ele>
      </trkpt>
      <trkpt lat="46.43847" lon="4.8275">
        <ele>315</ele>
      </trkpt>
      <trkpt lat="46.43834" lon="4.82742">
        <ele>314.4</ele>
      </trkpt>
      <trkpt lat="46.43827" lon="4.82739">
        <ele>313.9</ele>
      </trkpt>
      <trkpt lat="46.43818" lon="4.82735">
        <ele>313.5</ele>
      </trkpt>
      <trkpt lat="46.43808" lon="4.82727">
        <ele>313.7</ele>
      </trkpt>
      <trkpt lat="46.43803" lon="4.82717">
        <ele>314.1</ele>
      </trkpt>
      <trkpt lat="46.438" lon="4.82709">
        <ele>314.3</ele>
      </trkpt>
      <trkpt lat="46.43797" lon="4.82701">
        <ele>314.5</ele>
      </trkpt>
      <trkpt lat="46.43795" lon="4.82697">
        <ele>314.5</ele>
      </trkpt>
      <trkpt lat="46.43793" lon="4.82693">
        <ele>314.6</ele>
      </trkpt>
      <trkpt lat="46.43786" lon="4.82681">
        <ele>314.6</ele>
      </trkpt>
      <trkpt lat="46.43777" lon="4.82669">
        <ele>314.9</ele>
      </trkpt>
      <trkpt lat="46.4377" lon="4.82662">
        <ele>314.8</ele>
      </trkpt>
      <trkpt lat="46.43763" lon="4.82655">
        <ele>314.7</ele>
      </trkpt>
      <trkpt lat="46.43757" lon="4.82648">
        <ele>314.8</ele>
      </trkpt>
      <trkpt lat="46.43741" lon="4.82634">
        <ele>314.7</ele>
      </trkpt>
      <trkpt lat="46.43691" lon="4.82592">
        <ele>315</ele>
      </trkpt>
      <trkpt lat="46.43645" lon="4.82552">
        <ele>315</ele>
      </trkpt>
      <trkpt lat="46.43662" lon="4.82541">
        <ele>314.6</ele>
      </trkpt>
      <trkpt lat="46.43688" lon="4.8252">
        <ele>312.7</ele>
      </trkpt>
      <trkpt lat="46.43703" lon="4.82508">
        <ele>311.3</ele>
      </trkpt>
      <trkpt lat="46.43714" lon="4.82499">
        <ele>310.2</ele>
      </trkpt>
      <trkpt lat="46.43735" lon="4.82481">
        <ele>308.9</ele>
      </trkpt>
      <trkpt lat="46.43754" lon="4.82462">
        <ele>309</ele>
      </trkpt>
      <trkpt lat="46.4377" lon="4.82443">
        <ele>310.2</ele>
      </trkpt>
      <trkpt lat="46.43779" lon="4.82429">
        <ele>311.1</ele>
      </trkpt>
      <trkpt lat="46.43788" lon="4.82417">
        <ele>312.4</ele>
      </trkpt>
      <trkpt lat="46.43795" lon="4.82406">
        <ele>313.6</ele>
      </trkpt>
      <trkpt lat="46.43799" lon="4.82391">
        <ele>314.3</ele>
      </trkpt>
      <trkpt lat="46.43802" lon="4.82383">
        <ele>314.9</ele>
      </trkpt>
      <trkpt lat="46.43807" lon="4.8236">
        <ele>316.4</ele>
      </trkpt>
      <trkpt lat="46.43813" lon="4.82337">
        <ele>318.8</ele>
      </trkpt>
      <trkpt lat="46.43818" lon="4.8232">
        <ele>320.5</ele>
      </trkpt>
      <trkpt lat="46.43818" lon="4.8232">
        <ele>320.5</ele>
      </trkpt>
      <trkpt lat="46.43822" lon="4.82309">
        <ele>321.6</ele>
      </trkpt>
      <trkpt lat="46.43838" lon="4.82281">
        <ele>325.5</ele>
      </trkpt>
      <trkpt lat="46.43856" lon="4.8224">
        <ele>327.3</ele>
      </trkpt>
      <trkpt lat="46.43863" lon="4.82222">
        <ele>328.2</ele>
      </trkpt>
      <trkpt lat="46.43866" lon="4.82214">
        <ele>328.4</ele>
      </trkpt>
      <trkpt lat="46.43867" lon="4.82209">
        <ele>328.5</ele>
      </trkpt>
      <trkpt lat="46.43868" lon="4.82203">
        <ele>328.5</ele>
      </trkpt>
      <trkpt lat="46.43869" lon="4.82198">
        <ele>328.5</ele>
      </trkpt>
      <trkpt lat="46.43868" lon="4.82189">
        <ele>328.3</ele>
      </trkpt>
      <trkpt lat="46.43867" lon="4.82175">
        <ele>328</ele>
      </trkpt>
      <trkpt lat="46.43867" lon="4.82166">
        <ele>327.9</ele>
      </trkpt>
      <trkpt lat="46.43868" lon="4.82156">
        <ele>327.6</ele>
      </trkpt>
      <trkpt lat="46.4387" lon="4.82142">
        <ele>327.4</ele>
      </trkpt>
      <trkpt lat="46.43875" lon="4.82126">
        <ele>326.8</ele>
      </trkpt>
      <trkpt lat="46.43878" lon="4.82116">
        <ele>326.3</ele>
      </trkpt>
      <trkpt lat="46.43881" lon="4.82104">
        <ele>325.2</ele>
      </trkpt>
      <trkpt lat="46.43885" lon="4.82094">
        <ele>324.2</ele>
      </trkpt>
      <trkpt lat="46.4389" lon="4.82085">
        <ele>323.3</ele>
      </trkpt>
      <trkpt lat="46.43897" lon="4.82078">
        <ele>322.1</ele>
      </trkpt>
      <trkpt lat="46.43911" lon="4.82068">
        <ele>320.6</ele>
      </trkpt>
      <trkpt lat="46.43929" lon="4.82052">
        <ele>317.7</ele>
      </trkpt>
      <trkpt lat="46.43952" lon="4.82025">
        <ele>313.8</ele>
      </trkpt>
      <trkpt lat="46.43974" lon="4.82001">
        <ele>309.2</ele>
      </trkpt>
      <trkpt lat="46.43987" lon="4.81987">
        <ele>307.1</ele>
      </trkpt>
      <trkpt lat="46.43989" lon="4.81984">
        <ele>306.8</ele>
      </trkpt>
      <trkpt lat="46.43996" lon="4.81974">
        <ele>305.1</ele>
      </trkpt>
      <trkpt lat="46.44005" lon="4.8196">
        <ele>303.2</ele>
      </trkpt>
      <trkpt lat="46.44011" lon="4.81954">
        <ele>302.7</ele>
      </trkpt>
      <trkpt lat="46.44019" lon="4.81949">
        <ele>302.7</ele>
      </trkpt>
      <trkpt lat="46.44035" lon="4.81943">
        <ele>303.2</ele>
      </trkpt>
      <trkpt lat="46.44059" lon="4.81932">
        <ele>303</ele>
      </trkpt>
      <trkpt lat="46.44072" lon="4.81928">
        <ele>302.9</ele>
      </trkpt>
      <trkpt lat="46.44082" lon="4.81922">
        <ele>302.7</ele>
      </trkpt>
      <trkpt lat="46.44093" lon="4.81914">
        <ele>302.3</ele>
      </trkpt>
      <trkpt lat="46.44104" lon="4.81904">
        <ele>301.8</ele>
      </trkpt>
      <trkpt lat="46.4411" lon="4.81891">
        <ele>300.3</ele>
      </trkpt>
      <trkpt lat="46.44117" lon="4.81877">
        <ele>299.1</ele>
      </trkpt>
      <trkpt lat="46.44122" lon="4.81862">
        <ele>297.9</ele>
      </trkpt>
      <trkpt lat="46.44126" lon="4.81844">
        <ele>295.8</ele>
      </trkpt>
      <trkpt lat="46.44128" lon="4.81823">
        <ele>293.7</ele>
      </trkpt>
      <trkpt lat="46.44128" lon="4.818">
        <ele>291.7</ele>
      </trkpt>
      <trkpt lat="46.44128" lon="4.81771">
        <ele>288.9</ele>
      </trkpt>
      <trkpt lat="46.44126" lon="4.81756">
        <ele>288.3</ele>
      </trkpt>
      <trkpt lat="46.44125" lon="4.81743">
        <ele>287.7</ele>
      </trkpt>
      <trkpt lat="46.44124" lon="4.81734">
        <ele>287.3</ele>
      </trkpt>
      <trkpt lat="46.44122" lon="4.8171">
        <ele>287.1</ele>
      </trkpt>
      <trkpt lat="46.44119" lon="4.81675">
        <ele>288.7</ele>
      </trkpt>
      <trkpt lat="46.44115" lon="4.81642">
        <ele>290.9</ele>
      </trkpt>
      <trkpt lat="46.44111" lon="4.81613">
        <ele>292.8</ele>
      </trkpt>
      <trkpt lat="46.44109" lon="4.81594">
        <ele>292.3</ele>
      </trkpt>
      <trkpt lat="46.44109" lon="4.81572">
        <ele>291.8</ele>
      </trkpt>
      <trkpt lat="46.44108" lon="4.81545">
        <ele>291.2</ele>
      </trkpt>
      <trkpt lat="46.44107" lon="4.81488">
        <ele>291.7</ele>
      </trkpt>
      <trkpt lat="46.44106" lon="4.81462">
        <ele>292.9</ele>
      </trkpt>
      <trkpt lat="46.44107" lon="4.8145">
        <ele>294</ele>
      </trkpt>
      <trkpt lat="46.44108" lon="4.81438">
        <ele>294.8</ele>
      </trkpt>
      <trkpt lat="46.44112" lon="4.81414">
        <ele>296.6</ele>
      </trkpt>
      <trkpt lat="46.44115" lon="4.81398">
        <ele>298.9</ele>
      </trkpt>
      <trkpt lat="46.44117" lon="4.81376">
        <ele>300.5</ele>
      </trkpt>
      <trkpt lat="46.44117" lon="4.81363">
        <ele>300.9</ele>
      </trkpt>
      <trkpt lat="46.44116" lon="4.81353">
        <ele>301.3</ele>
      </trkpt>
      <trkpt lat="46.44115" lon="4.81339">
        <ele>302</ele>
      </trkpt>
      <trkpt lat="46.44113" lon="4.81321">
        <ele>302.6</ele>
      </trkpt>
      <trkpt lat="46.44107" lon="4.81298">
        <ele>302.9</ele>
      </trkpt>
      <trkpt lat="46.44102" lon="4.81276">
        <ele>303</ele>
      </trkpt>
      <trkpt lat="46.44093" lon="4.81239">
        <ele>303.1</ele>
      </trkpt>
      <trkpt lat="46.44087" lon="4.8121">
        <ele>302.8</ele>
      </trkpt>
      <trkpt lat="46.44085" lon="4.81193">
        <ele>302.1</ele>
      </trkpt>
      <trkpt lat="46.44084" lon="4.81184">
        <ele>302</ele>
      </trkpt>
      <trkpt lat="46.44083" lon="4.81173">
        <ele>302</ele>
      </trkpt>
      <trkpt lat="46.44083" lon="4.81167">
        <ele>302</ele>
      </trkpt>
      <trkpt lat="46.44051" lon="4.81156">
        <ele>301.2</ele>
      </trkpt>
      <trkpt lat="46.44042" lon="4.81153">
        <ele>300.8</ele>
      </trkpt>
      <trkpt lat="46.44036" lon="4.8115">
        <ele>300.5</ele>
      </trkpt>
      <trkpt lat="46.44033" lon="4.81147">
        <ele>300.3</ele>
      </trkpt>
      <trkpt lat="46.44032" lon="4.81143">
        <ele>300.3</ele>
      </trkpt>
      <trkpt lat="46.4403" lon="4.81137">
        <ele>300.1</ele>
      </trkpt>
      <trkpt lat="46.44026" lon="4.81119">
        <ele>299.9</ele>
      </trkpt>
      <trkpt lat="46.4402" lon="4.81084">
        <ele>299.7</ele>
      </trkpt>
      <trkpt lat="46.44013" lon="4.8103">
        <ele>298.5</ele>
      </trkpt>
      <trkpt lat="46.44019" lon="4.8103">
        <ele>298.7</ele>
      </trkpt>
      <trkpt lat="46.44027" lon="4.8103">
        <ele>299</ele>
      </trkpt>
      <trkpt lat="46.44037" lon="4.8103">
        <ele>299.4</ele>
      </trkpt>
      <trkpt lat="46.44059" lon="4.81034">
        <ele>300.2</ele>
      </trkpt>
      <trkpt lat="46.44091" lon="4.8104">
        <ele>300.6</ele>
      </trkpt>
      <trkpt lat="46.44128" lon="4.81048">
        <ele>301</ele>
      </trkpt>
      <trkpt lat="46.44167" lon="4.8106">
        <ele>300.3</ele>
      </trkpt>
      <trkpt lat="46.44212" lon="4.81073">
        <ele>299.7</ele>
      </trkpt>
      <trkpt lat="46.4423" lon="4.81078">
        <ele>299.4</ele>
      </trkpt>
      <trkpt lat="46.4424" lon="4.81081">
        <ele>299.2</ele>
      </trkpt>
      <trkpt lat="46.44251" lon="4.81086">
        <ele>299.2</ele>
      </trkpt>
      <trkpt lat="46.44263" lon="4.81094">
        <ele>299.3</ele>
      </trkpt>
      <trkpt lat="46.44274" lon="4.81103">
        <ele>299.5</ele>
      </trkpt>
      <trkpt lat="46.44279" lon="4.81107">
        <ele>299.6</ele>
      </trkpt>
      <trkpt lat="46.44283" lon="4.81109">
        <ele>299.5</ele>
      </trkpt>
      <trkpt lat="46.44285" lon="4.8111">
        <ele>299.4</ele>
      </trkpt>
      <trkpt lat="46.44291" lon="4.81111">
        <ele>299</ele>
      </trkpt>
      <trkpt lat="46.44299" lon="4.81111">
        <ele>298.5</ele>
      </trkpt>
      <trkpt lat="46.44307" lon="4.81113">
        <ele>298</ele>
      </trkpt>
      <trkpt lat="46.44327" lon="4.81116">
        <ele>296.8</ele>
      </trkpt>
      <trkpt lat="46.44342" lon="4.81117">
        <ele>295.8</ele>
      </trkpt>
      <trkpt lat="46.4435" lon="4.81116">
        <ele>295.2</ele>
      </trkpt>
      <trkpt lat="46.44362" lon="4.81111">
        <ele>293.9</ele>
      </trkpt>
      <trkpt lat="46.44378" lon="4.81102">
        <ele>292.3</ele>
      </trkpt>
      <trkpt lat="46.44389" lon="4.81099">
        <ele>291.1</ele>
      </trkpt>
      <trkpt lat="46.44417" lon="4.81094">
        <ele>288.4</ele>
      </trkpt>
      <trkpt lat="46.44439" lon="4.8109">
        <ele>286.8</ele>
      </trkpt>
      <trkpt lat="46.44456" lon="4.8109">
        <ele>285.7</ele>
      </trkpt>
      <trkpt lat="46.44473" lon="4.81093">
        <ele>284.7</ele>
      </trkpt>
      <trkpt lat="46.44483" lon="4.81096">
        <ele>284.8</ele>
      </trkpt>
      <trkpt lat="46.44493" lon="4.811">
        <ele>284.8</ele>
      </trkpt>
      <trkpt lat="46.44499" lon="4.811">
        <ele>284.6</ele>
      </trkpt>
      <trkpt lat="46.44507" lon="4.811">
        <ele>284.4</ele>
      </trkpt>
      <trkpt lat="46.44514" lon="4.81099">
        <ele>284.3</ele>
      </trkpt>
      <trkpt lat="46.44523" lon="4.81096">
        <ele>284.1</ele>
      </trkpt>
      <trkpt lat="46.44542" lon="4.81089">
        <ele>284.4</ele>
      </trkpt>
      <trkpt lat="46.44566" lon="4.81082">
        <ele>285</ele>
      </trkpt>
      <trkpt lat="46.44579" lon="4.81079">
        <ele>285</ele>
      </trkpt>
      <trkpt lat="46.44588" lon="4.81075">
        <ele>285.2</ele>
      </trkpt>
      <trkpt lat="46.44589" lon="4.81069">
        <ele>285.3</ele>
      </trkpt>
      <trkpt lat="46.4459" lon="4.81064">
        <ele>285.4</ele>
      </trkpt>
      <trkpt lat="46.44592" lon="4.81062">
        <ele>285.5</ele>
      </trkpt>
      <trkpt lat="46.44601" lon="4.81044">
        <ele>286.7</ele>
      </trkpt>
      <trkpt lat="46.44631" lon="4.80993">
        <ele>289.9</ele>
      </trkpt>
      <trkpt lat="46.44647" lon="4.80969">
        <ele>291.7</ele>
      </trkpt>
      <trkpt lat="46.44655" lon="4.80956">
        <ele>292.8</ele>
      </trkpt>
      <trkpt lat="46.44667" lon="4.8094">
        <ele>294.4</ele>
      </trkpt>
      <trkpt lat="46.44676" lon="4.80926">
        <ele>296.1</ele>
      </trkpt>
      <trkpt lat="46.4468" lon="4.80919">
        <ele>296.8</ele>
      </trkpt>
      <trkpt lat="46.44699" lon="4.8088">
        <ele>298.8</ele>
      </trkpt>
      <trkpt lat="46.44717" lon="4.80842">
        <ele>300.6</ele>
      </trkpt>
      <trkpt lat="46.44728" lon="4.80816">
        <ele>301.4</ele>
      </trkpt>
      <trkpt lat="46.44736" lon="4.8079">
        <ele>302</ele>
      </trkpt>
      <trkpt lat="46.44746" lon="4.80761">
        <ele>302.2</ele>
      </trkpt>
      <trkpt lat="46.44749" lon="4.8075">
        <ele>302</ele>
      </trkpt>
      <trkpt lat="46.44751" lon="4.80738">
        <ele>302</ele>
      </trkpt>
      <trkpt lat="46.44752" lon="4.80724">
        <ele>302.1</ele>
      </trkpt>
      <trkpt lat="46.44753" lon="4.80708">
        <ele>301.6</ele>
      </trkpt>
      <trkpt lat="46.44755" lon="4.80694">
        <ele>301.1</ele>
      </trkpt>
      <trkpt lat="46.44758" lon="4.80683">
        <ele>300.6</ele>
      </trkpt>
      <trkpt lat="46.44761" lon="4.80664">
        <ele>299.7</ele>
      </trkpt>
      <trkpt lat="46.44765" lon="4.80649">
        <ele>299.1</ele>
      </trkpt>
      <trkpt lat="46.44766" lon="4.80639">
        <ele>298.6</ele>
      </trkpt>
      <trkpt lat="46.44767" lon="4.80629">
        <ele>298.1</ele>
      </trkpt>
      <trkpt lat="46.44767" lon="4.80613">
        <ele>297.3</ele>
      </trkpt>
      <trkpt lat="46.44765" lon="4.80579">
        <ele>295.2</ele>
      </trkpt>
      <trkpt lat="46.44764" lon="4.80561">
        <ele>293.8</ele>
      </trkpt>
      <trkpt lat="46.44764" lon="4.80542">
        <ele>292.5</ele>
      </trkpt>
      <trkpt lat="46.44765" lon="4.80525">
        <ele>291.2</ele>
      </trkpt>
      <trkpt lat="46.44769" lon="4.8049">
        <ele>288.3</ele>
      </trkpt>
      <trkpt lat="46.44774" lon="4.80456">
        <ele>285.8</ele>
      </trkpt>
      <trkpt lat="46.44776" lon="4.80444">
        <ele>285</ele>
      </trkpt>
      <trkpt lat="46.44779" lon="4.80435">
        <ele>284.3</ele>
      </trkpt>
      <trkpt lat="46.44781" lon="4.80428">
        <ele>283.8</ele>
      </trkpt>
      <trkpt lat="46.44782" lon="4.80421">
        <ele>283.3</ele>
      </trkpt>
      <trkpt lat="46.44783" lon="4.80414">
        <ele>282.7</ele>
      </trkpt>
      <trkpt lat="46.44783" lon="4.80405">
        <ele>281.8</ele>
      </trkpt>
      <trkpt lat="46.44776" lon="4.80405">
        <ele>281.7</ele>
      </trkpt>
      <trkpt lat="46.44767" lon="4.80405">
        <ele>281.5</ele>
      </trkpt>
      <trkpt lat="46.44776" lon="4.804">
        <ele>281.2</ele>
      </trkpt>
      <trkpt lat="46.44784" lon="4.80396">
        <ele>280.9</ele>
      </trkpt>
      <trkpt lat="46.44793" lon="4.80389">
        <ele>280.5</ele>
      </trkpt>
      <trkpt lat="46.44801" lon="4.80382">
        <ele>280.1</ele>
      </trkpt>
      <trkpt lat="46.44809" lon="4.80369">
        <ele>278.8</ele>
      </trkpt>
      <trkpt lat="46.44822" lon="4.80343">
        <ele>276.7</ele>
      </trkpt>
      <trkpt lat="46.44832" lon="4.80326">
        <ele>275.2</ele>
      </trkpt>
      <trkpt lat="46.44846" lon="4.80309">
        <ele>273.7</ele>
      </trkpt>
      <trkpt lat="46.4487" lon="4.80287">
        <ele>272.2</ele>
      </trkpt>
      <trkpt lat="46.44895" lon="4.80262">
        <ele>270.7</ele>
      </trkpt>
      <trkpt lat="46.44901" lon="4.80257">
        <ele>270.5</ele>
      </trkpt>
      <trkpt lat="46.44916" lon="4.80242">
        <ele>270.4</ele>
      </trkpt>
      <trkpt lat="46.44924" lon="4.80232">
        <ele>270.4</ele>
      </trkpt>
      <trkpt lat="46.44932" lon="4.80216">
        <ele>270.3</ele>
      </trkpt>
      <trkpt lat="46.44943" lon="4.80194">
        <ele>270.8</ele>
      </trkpt>
      <trkpt lat="46.44951" lon="4.8018">
        <ele>270.5</ele>
      </trkpt>
      <trkpt lat="46.44963" lon="4.80162">
        <ele>270.1</ele>
      </trkpt>
      <trkpt lat="46.44981" lon="4.80137">
        <ele>270.5</ele>
      </trkpt>
      <trkpt lat="46.44989" lon="4.80121">
        <ele>269.7</ele>
      </trkpt>
      <trkpt lat="46.44999" lon="4.80097">
        <ele>268.4</ele>
      </trkpt>
      <trkpt lat="46.45008" lon="4.8008">
        <ele>267.6</ele>
      </trkpt>
      <trkpt lat="46.45012" lon="4.8007">
        <ele>267.1</ele>
      </trkpt>
      <trkpt lat="46.45019" lon="4.80058">
        <ele>266.5</ele>
      </trkpt>
      <trkpt lat="46.44999" lon="4.8">
        <ele>264.9</ele>
      </trkpt>
      <trkpt lat="46.45019" lon="4.80058">
        <ele>266.5</ele>
      </trkpt>
      <trkpt lat="46.44992" lon="4.7998">
        <ele>264.6</ele>
      </trkpt>
      <trkpt lat="46.44994" lon="4.79953">
        <ele>265.1</ele>
      </trkpt>
      <trkpt lat="46.45007" lon="4.79932">
        <ele>265.9</ele>
      </trkpt>
      <trkpt lat="46.45017" lon="4.79916">
        <ele>267</ele>
      </trkpt>
      <trkpt lat="46.45109" lon="4.79863">
        <ele>269.9</ele>
      </trkpt>
      <trkpt lat="46.45137" lon="4.79862">
        <ele>270.8</ele>
      </trkpt>
      <trkpt lat="46.45186" lon="4.79861">
        <ele>271</ele>
      </trkpt>
      <trkpt lat="46.45185" lon="4.79941">
        <ele>267.6</ele>
      </trkpt>
      <trkpt lat="46.45209" lon="4.7997">
        <ele>269.9</ele>
      </trkpt>
      <trkpt lat="46.45213" lon="4.80002">
        <ele>274.2</ele>
      </trkpt>
      <trkpt lat="46.45209" lon="4.80078">
        <ele>280.6</ele>
      </trkpt>
      <trkpt lat="46.45209" lon="4.80078">
        <ele>280.6</ele>
      </trkpt>
      <trkpt lat="46.45228" lon="4.80141">
        <ele>284.9</ele>
      </trkpt>
      <trkpt lat="46.45225" lon="4.80167">
        <ele>286</ele>
      </trkpt>
      <trkpt lat="46.45216" lon="4.80173">
        <ele>286.2</ele>
      </trkpt>
      <trkpt lat="46.4521" lon="4.80187">
        <ele>286.7</ele>
      </trkpt>
      <trkpt lat="46.45203" lon="4.8023">
        <ele>288.8</ele>
      </trkpt>
      <trkpt lat="46.45206" lon="4.80235">
        <ele>289.1</ele>
      </trkpt>
      <trkpt lat="46.45195" lon="4.80278">
        <ele>291</ele>
      </trkpt>
      <trkpt lat="46.45189" lon="4.80304">
        <ele>292.7</ele>
      </trkpt>
      <trkpt lat="46.4517" lon="4.80383">
        <ele>296.7</ele>
      </trkpt>
      <trkpt lat="46.45184" lon="4.8038">
        <ele>297</ele>
      </trkpt>
      <trkpt lat="46.45196" lon="4.80378">
        <ele>297.3</ele>
      </trkpt>
      <trkpt lat="46.4521" lon="4.80377">
        <ele>297.4</ele>
      </trkpt>
      <trkpt lat="46.45246" lon="4.80676">
        <ele>317.6</ele>
      </trkpt>
      <trkpt lat="46.45284" lon="4.80918">
        <ele>332.1</ele>
      </trkpt>
      <trkpt lat="46.45309" lon="4.81072">
        <ele>341.2</ele>
      </trkpt>
      <trkpt lat="46.4536" lon="4.814">
        <ele>358.7</ele>
      </trkpt>
      <trkpt lat="46.45386" lon="4.81396">
        <ele>360.3</ele>
      </trkpt>
      <trkpt lat="46.45384" lon="4.814">
        <ele>360.4</ele>
      </trkpt>
      <trkpt lat="46.45465" lon="4.81582">
        <ele>382.3</ele>
      </trkpt>
      <trkpt lat="46.45467" lon="4.81632">
        <ele>386.1</ele>
      </trkpt>
      <trkpt lat="46.45455" lon="4.81679">
        <ele>387.4</ele>
      </trkpt>
      <trkpt lat="46.45454" lon="4.81692">
        <ele>386.6</ele>
      </trkpt>
      <trkpt lat="46.45456" lon="4.81699">
        <ele>386.2</ele>
      </trkpt>
      <trkpt lat="46.45462" lon="4.81709">
        <ele>386.3</ele>
      </trkpt>
      <trkpt lat="46.45467" lon="4.8172">
        <ele>386.2</ele>
      </trkpt>
      <trkpt lat="46.45473" lon="4.81741">
        <ele>385.2</ele>
      </trkpt>
      <trkpt lat="46.4548" lon="4.81764">
        <ele>384.5</ele>
      </trkpt>
      <trkpt lat="46.45483" lon="4.81786">
        <ele>383.2</ele>
      </trkpt>
      <trkpt lat="46.45486" lon="4.81808">
        <ele>381.8</ele>
      </trkpt>
      <trkpt lat="46.45491" lon="4.81829">
        <ele>380.4</ele>
      </trkpt>
      <trkpt lat="46.45501" lon="4.81856">
        <ele>378.7</ele>
      </trkpt>
      <trkpt lat="46.45511" lon="4.81878">
        <ele>378</ele>
      </trkpt>
      <trkpt lat="46.45517" lon="4.81894">
        <ele>377.6</ele>
      </trkpt>
      <trkpt lat="46.45519" lon="4.81908">
        <ele>377.2</ele>
      </trkpt>
      <trkpt lat="46.4552" lon="4.81915">
        <ele>376.9</ele>
      </trkpt>
      <trkpt lat="46.45522" lon="4.81935">
        <ele>375.2</ele>
      </trkpt>
      <trkpt lat="46.45524" lon="4.81958">
        <ele>373.1</ele>
      </trkpt>
      <trkpt lat="46.45526" lon="4.81968">
        <ele>372.1</ele>
      </trkpt>
      <trkpt lat="46.45528" lon="4.81975">
        <ele>371.8</ele>
      </trkpt>
      <trkpt lat="46.45533" lon="4.81989">
        <ele>371.6</ele>
      </trkpt>
      <trkpt lat="46.45535" lon="4.82">
        <ele>371</ele>
      </trkpt>
      <trkpt lat="46.45542" lon="4.82025">
        <ele>370.7</ele>
      </trkpt>
      <trkpt lat="46.45551" lon="4.82052">
        <ele>370.9</ele>
      </trkpt>
      <trkpt lat="46.45554" lon="4.82069">
        <ele>371.4</ele>
      </trkpt>
      <trkpt lat="46.45548" lon="4.82071">
        <ele>371.3</ele>
      </trkpt>
      <trkpt lat="46.45541" lon="4.82077">
        <ele>371.2</ele>
      </trkpt>
      <trkpt lat="46.45486" lon="4.82129">
        <ele>372.8</ele>
      </trkpt>
      <trkpt lat="46.45414" lon="4.82202">
        <ele>375.5</ele>
      </trkpt>
      <trkpt lat="46.45387" lon="4.82224">
        <ele>376.1</ele>
      </trkpt>
      <trkpt lat="46.45391" lon="4.8223">
        <ele>376.6</ele>
      </trkpt>
      <trkpt lat="46.45396" lon="4.82234">
        <ele>377</ele>
      </trkpt>
      <trkpt lat="46.45403" lon="4.82236">
        <ele>377.2</ele>
      </trkpt>
      <trkpt lat="46.45413" lon="4.82237">
        <ele>377.5</ele>
      </trkpt>
      <trkpt lat="46.45422" lon="4.82238">
        <ele>377.6</ele>
      </trkpt>
      <trkpt lat="46.45428" lon="4.82239">
        <ele>377.6</ele>
      </trkpt>
      <trkpt lat="46.45434" lon="4.82241">
        <ele>377.7</ele>
      </trkpt>
      <trkpt lat="46.45442" lon="4.82249">
        <ele>378</ele>
      </trkpt>
      <trkpt lat="46.45451" lon="4.82259">
        <ele>378.2</ele>
      </trkpt>
      <trkpt lat="46.45464" lon="4.82277">
        <ele>378.3</ele>
      </trkpt>
      <trkpt lat="46.45476" lon="4.82289">
        <ele>378.2</ele>
      </trkpt>
      <trkpt lat="46.45478" lon="4.82291">
        <ele>378.2</ele>
      </trkpt>
      <trkpt lat="46.45498" lon="4.82308">
        <ele>377.2</ele>
      </trkpt>
      <trkpt lat="46.4554" lon="4.8234">
        <ele>375.2</ele>
      </trkpt>
      <trkpt lat="46.45546" lon="4.82344">
        <ele>374.7</ele>
      </trkpt>
      <trkpt lat="46.45538" lon="4.82387">
        <ele>375.8</ele>
      </trkpt>
      <trkpt lat="46.45535" lon="4.82404">
        <ele>376.7</ele>
      </trkpt>
      <trkpt lat="46.45533" lon="4.82412">
        <ele>377.3</ele>
      </trkpt>
      <trkpt lat="46.4553" lon="4.82417">
        <ele>377.8</ele>
      </trkpt>
      <trkpt lat="46.45526" lon="4.8242">
        <ele>378.4</ele>
      </trkpt>
      <trkpt lat="46.45522" lon="4.82423">
        <ele>378.9</ele>
      </trkpt>
      <trkpt lat="46.45518" lon="4.82431">
        <ele>379.6</ele>
      </trkpt>
      <trkpt lat="46.45515" lon="4.82442">
        <ele>380.3</ele>
      </trkpt>
      <trkpt lat="46.45513" lon="4.82458">
        <ele>381.4</ele>
      </trkpt>
      <trkpt lat="46.4551" lon="4.8249">
        <ele>383.2</ele>
      </trkpt>
      <trkpt lat="46.45505" lon="4.82541">
        <ele>385.7</ele>
      </trkpt>
      <trkpt lat="46.45503" lon="4.82589">
        <ele>388.9</ele>
      </trkpt>
      <trkpt lat="46.45502" lon="4.82624">
        <ele>391.6</ele>
      </trkpt>
      <trkpt lat="46.45506" lon="4.82657">
        <ele>392.6</ele>
      </trkpt>
      <trkpt lat="46.45541" lon="4.82719">
        <ele>389.5</ele>
      </trkpt>
      <trkpt lat="46.45605" lon="4.8282">
        <ele>379.3</ele>
      </trkpt>
      <trkpt lat="46.45609" lon="4.82875">
        <ele>383.3</ele>
      </trkpt>
      <trkpt lat="46.45656" lon="4.82928">
        <ele>378.6</ele>
      </trkpt>
      <trkpt lat="46.45774" lon="4.83072">
        <ele>365.4</ele>
      </trkpt>
      <trkpt lat="46.45918" lon="4.83213">
        <ele>363.9</ele>
      </trkpt>
      <trkpt lat="46.46044" lon="4.83263">
        <ele>353.1</ele>
      </trkpt>
      <trkpt lat="46.46279" lon="4.83376">
        <ele>346.6</ele>
      </trkpt>
      <trkpt lat="46.46326" lon="4.8339">
        <ele>342.7</ele>
      </trkpt>
      <trkpt lat="46.4636" lon="4.83396">
        <ele>339.9</ele>
      </trkpt>
      <trkpt lat="46.46364" lon="4.83388">
        <ele>336.3</ele>
      </trkpt>
      <trkpt lat="46.46361" lon="4.83385">
        <ele>335.9</ele>
      </trkpt>
      <trkpt lat="46.46335" lon="4.83362">
        <ele>334</ele>
      </trkpt>
      <trkpt lat="46.46332" lon="4.83354">
        <ele>332.3</ele>
      </trkpt>
      <trkpt lat="46.46327" lon="4.83343">
        <ele>330.2</ele>
      </trkpt>
      <trkpt lat="46.4632" lon="4.83332">
        <ele>328.8</ele>
      </trkpt>
      <trkpt lat="46.46315" lon="4.83322">
        <ele>327.3</ele>
      </trkpt>
      <trkpt lat="46.46313" lon="4.83313">
        <ele>325.6</ele>
      </trkpt>
      <trkpt lat="46.46312" lon="4.83298">
        <ele>323.1</ele>
      </trkpt>
      <trkpt lat="46.46311" lon="4.83287">
        <ele>321.2</ele>
      </trkpt>
      <trkpt lat="46.4631" lon="4.83279">
        <ele>319.9</ele>
      </trkpt>
      <trkpt lat="46.4631" lon="4.8327">
        <ele>318.7</ele>
      </trkpt>
      <trkpt lat="46.46312" lon="4.83262">
        <ele>317.7</ele>
      </trkpt>
      <trkpt lat="46.46315" lon="4.83249">
        <ele>315.9</ele>
      </trkpt>
      <trkpt lat="46.4632" lon="4.83236">
        <ele>313.5</ele>
      </trkpt>
      <trkpt lat="46.46323" lon="4.8323">
        <ele>312.3</ele>
      </trkpt>
      <trkpt lat="46.46326" lon="4.83225">
        <ele>311.2</ele>
      </trkpt>
      <trkpt lat="46.46331" lon="4.83215">
        <ele>309.4</ele>
      </trkpt>
      <trkpt lat="46.46334" lon="4.83205">
        <ele>308.1</ele>
      </trkpt>
      <trkpt lat="46.46342" lon="4.83191">
        <ele>306.5</ele>
      </trkpt>
      <trkpt lat="46.46337" lon="4.83188">
        <ele>306.6</ele>
      </trkpt>
      <trkpt lat="46.46326" lon="4.83177">
        <ele>306.8</ele>
      </trkpt>
      <trkpt lat="46.46317" lon="4.8317">
        <ele>306.8</ele>
      </trkpt>
      <trkpt lat="46.46321" lon="4.83163">
        <ele>306</ele>
      </trkpt>
      <trkpt lat="46.46324" lon="4.83155">
        <ele>304.9</ele>
      </trkpt>
      <trkpt lat="46.46326" lon="4.83146">
        <ele>303.7</ele>
      </trkpt>
      <trkpt lat="46.46327" lon="4.83136">
        <ele>302.4</ele>
      </trkpt>
      <trkpt lat="46.46328" lon="4.83127">
        <ele>301.6</ele>
      </trkpt>
      <trkpt lat="46.46329" lon="4.83117">
        <ele>300.8</ele>
      </trkpt>
      <trkpt lat="46.46329" lon="4.8311">
        <ele>300.2</ele>
      </trkpt>
      <trkpt lat="46.46328" lon="4.83103">
        <ele>299.3</ele>
      </trkpt>
      <trkpt lat="46.46327" lon="4.83096">
        <ele>298.4</ele>
      </trkpt>
      <trkpt lat="46.46325" lon="4.83091">
        <ele>297.8</ele>
      </trkpt>
      <trkpt lat="46.46319" lon="4.83083">
        <ele>297.4</ele>
      </trkpt>
      <trkpt lat="46.46313" lon="4.83077">
        <ele>296.2</ele>
      </trkpt>
      <trkpt lat="46.46292" lon="4.83057">
        <ele>293.5</ele>
      </trkpt>
      <trkpt lat="46.4627" lon="4.8304">
        <ele>292.7</ele>
      </trkpt>
      <trkpt lat="46.4625" lon="4.83024">
        <ele>292.1</ele>
      </trkpt>
      <trkpt lat="46.46232" lon="4.83011">
        <ele>291.9</ele>
      </trkpt>
      <trkpt lat="46.4621" lon="4.82996">
        <ele>292.2</ele>
      </trkpt>
      <trkpt lat="46.46189" lon="4.82982">
        <ele>291.6</ele>
      </trkpt>
      <trkpt lat="46.46168" lon="4.82968">
        <ele>291.8</ele>
      </trkpt>
      <trkpt lat="46.46154" lon="4.82953">
        <ele>290.5</ele>
      </trkpt>
      <trkpt lat="46.46146" lon="4.82942">
        <ele>289.7</ele>
      </trkpt>
      <trkpt lat="46.46142" lon="4.82937">
        <ele>289.7</ele>
      </trkpt>
      <trkpt lat="46.46123" lon="4.82916">
        <ele>290.2</ele>
      </trkpt>
      <trkpt lat="46.46104" lon="4.82897">
        <ele>291.9</ele>
      </trkpt>
      <trkpt lat="46.46089" lon="4.8288">
        <ele>293.2</ele>
      </trkpt>
      <trkpt lat="46.46078" lon="4.82866">
        <ele>293.4</ele>
      </trkpt>
      <trkpt lat="46.46065" lon="4.82844">
        <ele>293.7</ele>
      </trkpt>
      <trkpt lat="46.4605" lon="4.82819">
        <ele>293.2</ele>
      </trkpt>
      <trkpt lat="46.46039" lon="4.82797">
        <ele>292.5</ele>
      </trkpt>
      <trkpt lat="46.4603" lon="4.82779">
        <ele>291.8</ele>
      </trkpt>
      <trkpt lat="46.46025" lon="4.82767">
        <ele>291.4</ele>
      </trkpt>
      <trkpt lat="46.4602" lon="4.82754">
        <ele>291</ele>
      </trkpt>
      <trkpt lat="46.46017" lon="4.82742">
        <ele>290.9</ele>
      </trkpt>
      <trkpt lat="46.46014" lon="4.82733">
        <ele>290.7</ele>
      </trkpt>
      <trkpt lat="46.46011" lon="4.82719">
        <ele>290.5</ele>
      </trkpt>
      <trkpt lat="46.46005" lon="4.82701">
        <ele>290.2</ele>
      </trkpt>
      <trkpt lat="46.45999" lon="4.82678">
        <ele>289.3</ele>
      </trkpt>
      <trkpt lat="46.45993" lon="4.82659">
        <ele>289.3</ele>
      </trkpt>
      <trkpt lat="46.45989" lon="4.82647">
        <ele>289.5</ele>
      </trkpt>
      <trkpt lat="46.45986" lon="4.8264">
        <ele>289.5</ele>
      </trkpt>
      <trkpt lat="46.45984" lon="4.82631">
        <ele>289.8</ele>
      </trkpt>
      <trkpt lat="46.45983" lon="4.82623">
        <ele>290</ele>
      </trkpt>
      <trkpt lat="46.45983" lon="4.82616">
        <ele>290.1</ele>
      </trkpt>
      <trkpt lat="46.45983" lon="4.82604">
        <ele>290.8</ele>
      </trkpt>
      <trkpt lat="46.45985" lon="4.82595">
        <ele>291.5</ele>
      </trkpt>
      <trkpt lat="46.45997" lon="4.82533">
        <ele>297.9</ele>
      </trkpt>
      <trkpt lat="46.45991" lon="4.82482">
        <ele>299.5</ele>
      </trkpt>
      <trkpt lat="46.45973" lon="4.82373">
        <ele>299.5</ele>
      </trkpt>
      <trkpt lat="46.45989" lon="4.8238">
        <ele>299.4</ele>
      </trkpt>
      <trkpt lat="46.46025" lon="4.82419">
        <ele>295.7</ele>
      </trkpt>
      <trkpt lat="46.46102" lon="4.82479">
        <ele>288.1</ele>
      </trkpt>
      <trkpt lat="46.46148" lon="4.8252">
        <ele>280.9</ele>
      </trkpt>
      <trkpt lat="46.46192" lon="4.82573">
        <ele>269.7</ele>
      </trkpt>
      <trkpt lat="46.46244" lon="4.8262">
        <ele>265.2</ele>
      </trkpt>
      <trkpt lat="46.46303" lon="4.82637">
        <ele>262.6</ele>
      </trkpt>
      <trkpt lat="46.46369" lon="4.8265">
        <ele>262.8</ele>
      </trkpt>
      <trkpt lat="46.46407" lon="4.82691">
        <ele>256.9</ele>
      </trkpt>
      <trkpt lat="46.46437" lon="4.82689">
        <ele>255.9</ele>
      </trkpt>
      <trkpt lat="46.46446" lon="4.8269">
        <ele>255.5</ele>
      </trkpt>
      <trkpt lat="46.46456" lon="4.82689">
        <ele>255.6</ele>
      </trkpt>
      <trkpt lat="46.46463" lon="4.82687">
        <ele>255.8</ele>
      </trkpt>
      <trkpt lat="46.46472" lon="4.82687">
        <ele>255.9</ele>
      </trkpt>
      <trkpt lat="46.46479" lon="4.82687">
        <ele>256.2</ele>
      </trkpt>
      <trkpt lat="46.46487" lon="4.82689">
        <ele>256.3</ele>
      </trkpt>
      <trkpt lat="46.46497" lon="4.82694">
        <ele>256</ele>
      </trkpt>
      <trkpt lat="46.46507" lon="4.82698">
        <ele>256</ele>
      </trkpt>
      <trkpt lat="46.46516" lon="4.82701">
        <ele>256.1</ele>
      </trkpt>
      <trkpt lat="46.46523" lon="4.82703">
        <ele>256.2</ele>
      </trkpt>
      <trkpt lat="46.46534" lon="4.82706">
        <ele>255.8</ele>
      </trkpt>
      <trkpt lat="46.46543" lon="4.8271">
        <ele>255</ele>
      </trkpt>
      <trkpt lat="46.46553" lon="4.82713">
        <ele>254.4</ele>
      </trkpt>
      <trkpt lat="46.46561" lon="4.82713">
        <ele>253.9</ele>
      </trkpt>
      <trkpt lat="46.46571" lon="4.82712">
        <ele>253.1</ele>
      </trkpt>
      <trkpt lat="46.46579" lon="4.82711">
        <ele>252.6</ele>
      </trkpt>
      <trkpt lat="46.46588" lon="4.82709">
        <ele>251.9</ele>
      </trkpt>
      <trkpt lat="46.46596" lon="4.82707">
        <ele>251</ele>
      </trkpt>
      <trkpt lat="46.46602" lon="4.82704">
        <ele>250.5</ele>
      </trkpt>
      <trkpt lat="46.46609" lon="4.82703">
        <ele>249.7</ele>
      </trkpt>
      <trkpt lat="46.46616" lon="4.82702">
        <ele>249.8</ele>
      </trkpt>
      <trkpt lat="46.46623" lon="4.82702">
        <ele>250.2</ele>
      </trkpt>
      <trkpt lat="46.46629" lon="4.82705">
        <ele>250.2</ele>
      </trkpt>
      <trkpt lat="46.46635" lon="4.82709">
        <ele>249.7</ele>
      </trkpt>
      <trkpt lat="46.46649" lon="4.82721">
        <ele>247.8</ele>
      </trkpt>
      <trkpt lat="46.4666" lon="4.82728">
        <ele>246.6</ele>
      </trkpt>
      <trkpt lat="46.46674" lon="4.82734">
        <ele>245.7</ele>
      </trkpt>
      <trkpt lat="46.46685" lon="4.82739">
        <ele>245.2</ele>
      </trkpt>
      <trkpt lat="46.467" lon="4.8275">
        <ele>244.2</ele>
      </trkpt>
      <trkpt lat="46.46727" lon="4.82777">
        <ele>240.7</ele>
      </trkpt>
      <trkpt lat="46.46751" lon="4.82808">
        <ele>236.8</ele>
      </trkpt>
      <trkpt lat="46.46755" lon="4.82812">
        <ele>236.7</ele>
      </trkpt>
      <trkpt lat="46.46762" lon="4.82814">
        <ele>237.1</ele>
      </trkpt>
      <trkpt lat="46.46766" lon="4.82819">
        <ele>236.6</ele>
      </trkpt>
      <trkpt lat="46.46771" lon="4.82826">
        <ele>235.4</ele>
      </trkpt>
      <trkpt lat="46.46818" lon="4.82832">
        <ele>237</ele>
      </trkpt>
      <trkpt lat="46.46847" lon="4.82819">
        <ele>240.1</ele>
      </trkpt>
      <trkpt lat="46.46862" lon="4.82795">
        <ele>243.3</ele>
      </trkpt>
      <trkpt lat="46.4688" lon="4.82749">
        <ele>250.5</ele>
      </trkpt>
      <trkpt lat="46.46894" lon="4.8267">
        <ele>260.2</ele>
      </trkpt>
      <trkpt lat="46.46909" lon="4.82638">
        <ele>260.2</ele>
      </trkpt>
      <trkpt lat="46.46926" lon="4.82633">
        <ele>260</ele>
      </trkpt>
      <trkpt lat="46.46959" lon="4.82635">
        <ele>263.3</ele>
      </trkpt>
      <trkpt lat="46.46987" lon="4.82619">
        <ele>267.5</ele>
      </trkpt>
      <trkpt lat="46.47026" lon="4.82579">
        <ele>269.4</ele>
      </trkpt>
      <trkpt lat="46.47041" lon="4.82523">
        <ele>271.3</ele>
      </trkpt>
      <trkpt lat="46.46975" lon="4.82497">
        <ele>278.9</ele>
      </trkpt>
      <trkpt lat="46.46905" lon="4.8245">
        <ele>289.4</ele>
      </trkpt>
      <trkpt lat="46.46802" lon="4.82426">
        <ele>304.5</ele>
      </trkpt>
      <trkpt lat="46.46771" lon="4.82419">
        <ele>308.9</ele>
      </trkpt>
      <trkpt lat="46.4669" lon="4.82407">
        <ele>317.7</ele>
      </trkpt>
      <trkpt lat="46.46629" lon="4.82381">
        <ele>327.8</ele>
      </trkpt>
      <trkpt lat="46.46602" lon="4.82359">
        <ele>334.5</ele>
      </trkpt>
      <trkpt lat="46.46559" lon="4.82312">
        <ele>345.4</ele>
      </trkpt>
      <trkpt lat="46.46493" lon="4.82237">
        <ele>355.7</ele>
      </trkpt>
      <trkpt lat="46.46428" lon="4.82162">
        <ele>367.7</ele>
      </trkpt>
      <trkpt lat="46.46367" lon="4.82091">
        <ele>381.4</ele>
      </trkpt>
      <trkpt lat="46.46325" lon="4.82049">
        <ele>390.7</ele>
      </trkpt>
      <trkpt lat="46.46258" lon="4.82006">
        <ele>398.8</ele>
      </trkpt>
      <trkpt lat="46.46253" lon="4.82001">
        <ele>398.4</ele>
      </trkpt>
      <trkpt lat="46.4627" lon="4.8198">
        <ele>400.8</ele>
      </trkpt>
      <trkpt lat="46.46289" lon="4.81955">
        <ele>398</ele>
      </trkpt>
      <trkpt lat="46.46296" lon="4.81929">
        <ele>395.2</ele>
      </trkpt>
      <trkpt lat="46.46302" lon="4.81922">
        <ele>393.9</ele>
      </trkpt>
      <trkpt lat="46.46305" lon="4.81907">
        <ele>392</ele>
      </trkpt>
      <trkpt lat="46.46302" lon="4.8189">
        <ele>390.5</ele>
      </trkpt>
      <trkpt lat="46.46301" lon="4.81889">
        <ele>390.5</ele>
      </trkpt>
      <trkpt lat="46.46296" lon="4.81877">
        <ele>389.3</ele>
      </trkpt>
      <trkpt lat="46.46314" lon="4.81877">
        <ele>386.5</ele>
      </trkpt>
      <trkpt lat="46.46329" lon="4.81897">
        <ele>386</ele>
      </trkpt>
      <trkpt lat="46.46333" lon="4.81898">
        <ele>385.5</ele>
      </trkpt>
      <trkpt lat="46.46336" lon="4.81891">
        <ele>383.6</ele>
      </trkpt>
      <trkpt lat="46.46328" lon="4.81858">
        <ele>380.8</ele>
      </trkpt>
      <trkpt lat="46.46319" lon="4.81835">
        <ele>379.9</ele>
      </trkpt>
      <trkpt lat="46.4632" lon="4.81817">
        <ele>376.7</ele>
      </trkpt>
      <trkpt lat="46.46317" lon="4.81807">
        <ele>375.6</ele>
      </trkpt>
      <trkpt lat="46.46317" lon="4.81791">
        <ele>373.5</ele>
      </trkpt>
      <trkpt lat="46.46322" lon="4.81782">
        <ele>371.7</ele>
      </trkpt>
      <trkpt lat="46.46329" lon="4.81779">
        <ele>370.6</ele>
      </trkpt>
      <trkpt lat="46.46335" lon="4.81778">
        <ele>369.8</ele>
      </trkpt>
      <trkpt lat="46.46346" lon="4.81784">
        <ele>368.5</ele>
      </trkpt>
      <trkpt lat="46.46351" lon="4.81793">
        <ele>368.4</ele>
      </trkpt>
      <trkpt lat="46.46363" lon="4.81797">
        <ele>366.7</ele>
      </trkpt>
      <trkpt lat="46.46368" lon="4.81789">
        <ele>364.4</ele>
      </trkpt>
      <trkpt lat="46.46368" lon="4.8177">
        <ele>362.8</ele>
      </trkpt>
      <trkpt lat="46.46368" lon="4.81763">
        <ele>362.4</ele>
      </trkpt>
      <trkpt lat="46.46374" lon="4.81711">
        <ele>357.3</ele>
      </trkpt>
      <trkpt lat="46.46378" lon="4.81703">
        <ele>355.7</ele>
      </trkpt>
      <trkpt lat="46.46384" lon="4.81699">
        <ele>354.3</ele>
      </trkpt>
      <trkpt lat="46.46389" lon="4.81697">
        <ele>353.2</ele>
      </trkpt>
      <trkpt lat="46.464" lon="4.81703">
        <ele>350</ele>
      </trkpt>
      <trkpt lat="46.46404" lon="4.81691">
        <ele>347.4</ele>
      </trkpt>
      <trkpt lat="46.46415" lon="4.81692">
        <ele>344.2</ele>
      </trkpt>
      <trkpt lat="46.46425" lon="4.81701">
        <ele>341.7</ele>
      </trkpt>
      <trkpt lat="46.46432" lon="4.81704">
        <ele>339.4</ele>
      </trkpt>
      <trkpt lat="46.46433" lon="4.817">
        <ele>338.2</ele>
      </trkpt>
      <trkpt lat="46.46441" lon="4.81697">
        <ele>334.8</ele>
      </trkpt>
      <trkpt lat="46.46451" lon="4.81666">
        <ele>327.4</ele>
      </trkpt>
      <trkpt lat="46.46453" lon="4.81646">
        <ele>325.7</ele>
      </trkpt>
      <trkpt lat="46.46457" lon="4.81629">
        <ele>323.7</ele>
      </trkpt>
      <trkpt lat="46.4647" lon="4.81596">
        <ele>319.4</ele>
      </trkpt>
      <trkpt lat="46.46499" lon="4.81566">
        <ele>312.9</ele>
      </trkpt>
      <trkpt lat="46.46497" lon="4.8154">
        <ele>311.4</ele>
      </trkpt>
      <trkpt lat="46.46498" lon="4.81527">
        <ele>310.2</ele>
      </trkpt>
      <trkpt lat="46.46493" lon="4.81479">
        <ele>307.5</ele>
      </trkpt>
      <trkpt lat="46.46496" lon="4.81462">
        <ele>305.8</ele>
      </trkpt>
      <trkpt lat="46.46508" lon="4.81406">
        <ele>300.7</ele>
      </trkpt>
      <trkpt lat="46.4654" lon="4.81363">
        <ele>295.7</ele>
      </trkpt>
      <trkpt lat="46.46558" lon="4.81357">
        <ele>293.5</ele>
      </trkpt>
      <trkpt lat="46.46585" lon="4.81338">
        <ele>289.5</ele>
      </trkpt>
      <trkpt lat="46.46621" lon="4.8131">
        <ele>286</ele>
      </trkpt>
      <trkpt lat="46.46626" lon="4.81309">
        <ele>285.7</ele>
      </trkpt>
      <trkpt lat="46.4664" lon="4.81298">
        <ele>285</ele>
      </trkpt>
      <trkpt lat="46.46658" lon="4.8133">
        <ele>284</ele>
      </trkpt>
      <trkpt lat="46.46667" lon="4.81353">
        <ele>284</ele>
      </trkpt>
      <trkpt lat="46.46681" lon="4.81396">
        <ele>283</ele>
      </trkpt>
      <trkpt lat="46.46691" lon="4.81414">
        <ele>283</ele>
      </trkpt>
      <trkpt lat="46.46728" lon="4.81479">
        <ele>279.6</ele>
      </trkpt>
      <trkpt lat="46.46737" lon="4.81497">
        <ele>279</ele>
      </trkpt>
      <trkpt lat="46.46745" lon="4.81532">
        <ele>278.1</ele>
      </trkpt>
      <trkpt lat="46.46744" lon="4.81572">
        <ele>277</ele>
      </trkpt>
      <trkpt lat="46.46813" lon="4.81548">
        <ele>266.9</ele>
      </trkpt>
      <trkpt lat="46.46847" lon="4.81523">
        <ele>264</ele>
      </trkpt>
      <trkpt lat="46.46859" lon="4.81488">
        <ele>259.6</ele>
      </trkpt>
      <trkpt lat="46.46856" lon="4.81406">
        <ele>254.7</ele>
      </trkpt>
      <trkpt lat="46.46853" lon="4.81388">
        <ele>254.4</ele>
      </trkpt>
      <trkpt lat="46.46855" lon="4.81371">
        <ele>253.3</ele>
      </trkpt>
      <trkpt lat="46.4686" lon="4.81357">
        <ele>252.1</ele>
      </trkpt>
      <trkpt lat="46.46868" lon="4.81337">
        <ele>249.6</ele>
      </trkpt>
      <trkpt lat="46.46881" lon="4.81312">
        <ele>245.5</ele>
      </trkpt>
      <trkpt lat="46.4689" lon="4.81289">
        <ele>242.7</ele>
      </trkpt>
      <trkpt lat="46.46905" lon="4.81252">
        <ele>236.9</ele>
      </trkpt>
      <trkpt lat="46.46912" lon="4.81231">
        <ele>235.4</ele>
      </trkpt>
      <trkpt lat="46.46956" lon="4.81247">
        <ele>232.6</ele>
      </trkpt>
      <trkpt lat="46.47017" lon="4.81273">
        <ele>230.1</ele>
      </trkpt>
      <trkpt lat="46.47077" lon="4.81294">
        <ele>228.2</ele>
      </trkpt>
      <trkpt lat="46.47081" lon="4.81269">
        <ele>228.1</ele>
      </trkpt>
      <trkpt lat="46.47087" lon="4.8124">
        <ele>227.8</ele>
      </trkpt>
      <trkpt lat="46.47093" lon="4.81224">
        <ele>227.3</ele>
      </trkpt>
      <trkpt lat="46.47098" lon="4.81212">
        <ele>227.3</ele>
      </trkpt>
      <trkpt lat="46.47103" lon="4.81195">
        <ele>227.6</ele>
      </trkpt>
      <trkpt lat="46.47105" lon="4.8118">
        <ele>227.8</ele>
      </trkpt>
      <trkpt lat="46.47106" lon="4.81176">
        <ele>227.9</ele>
      </trkpt>
      <trkpt lat="46.47107" lon="4.81167">
        <ele>228.1</ele>
      </trkpt>
      <trkpt lat="46.47109" lon="4.81157">
        <ele>227.8</ele>
      </trkpt>
      <trkpt lat="46.4711" lon="4.81148">
        <ele>227.4</ele>
      </trkpt>
      <trkpt lat="46.47111" lon="4.81139">
        <ele>227</ele>
      </trkpt>
      <trkpt lat="46.47111" lon="4.81126">
        <ele>227</ele>
      </trkpt>
      <trkpt lat="46.47111" lon="4.81115">
        <ele>227</ele>
      </trkpt>
      <trkpt lat="46.47111" lon="4.81104">
        <ele>227.3</ele>
      </trkpt>
      <trkpt lat="46.47112" lon="4.8109">
        <ele>227.7</ele>
      </trkpt>
      <trkpt lat="46.47105" lon="4.81091">
        <ele>228.2</ele>
      </trkpt>
      <trkpt lat="46.47105" lon="4.81073">
        <ele>228.4</ele>
      </trkpt>
      <trkpt lat="46.47105" lon="4.81018">
        <ele>228.4</ele>
      </trkpt>
      <trkpt lat="46.47105" lon="4.81006">
        <ele>228.4</ele>
      </trkpt>
      <trkpt lat="46.47105" lon="4.80994">
        <ele>228.6</ele>
      </trkpt>
      <trkpt lat="46.47105" lon="4.80972">
        <ele>229.2</ele>
      </trkpt>
      <trkpt lat="46.47105" lon="4.80964">
        <ele>229.4</ele>
      </trkpt>
      <trkpt lat="46.47105" lon="4.80929">
        <ele>230.2</ele>
      </trkpt>
      <trkpt lat="46.47106" lon="4.80916">
        <ele>230.6</ele>
      </trkpt>
      <trkpt lat="46.47108" lon="4.80904">
        <ele>230.8</ele>
      </trkpt>
      <trkpt lat="46.47111" lon="4.80891">
        <ele>231</ele>
      </trkpt>
      <trkpt lat="46.47116" lon="4.80875">
        <ele>231</ele>
      </trkpt>
      <trkpt lat="46.47121" lon="4.80862">
        <ele>231</ele>
      </trkpt>
      <trkpt lat="46.47126" lon="4.80853">
        <ele>230.6</ele>
      </trkpt>
      <trkpt lat="46.47134" lon="4.80844">
        <ele>230.1</ele>
      </trkpt>
      <trkpt lat="46.47152" lon="4.80832">
        <ele>229.6</ele>
      </trkpt>
      <trkpt lat="46.47158" lon="4.80829">
        <ele>229.4</ele>
      </trkpt>
      <trkpt lat="46.47173" lon="4.80822">
        <ele>229</ele>
      </trkpt>
      <trkpt lat="46.47189" lon="4.80814">
        <ele>228.1</ele>
      </trkpt>
      <trkpt lat="46.47198" lon="4.80809">
        <ele>227.9</ele>
      </trkpt>
      <trkpt lat="46.47227" lon="4.80795">
        <ele>228.3</ele>
      </trkpt>
      <trkpt lat="46.47226" lon="4.80799">
        <ele>228.1</ele>
      </trkpt>
      <trkpt lat="46.47227" lon="4.80808">
        <ele>227.8</ele>
      </trkpt>
      <trkpt lat="46.47237" lon="4.80858">
        <ele>226.2</ele>
      </trkpt>
      <trkpt lat="46.47245" lon="4.80896">
        <ele>225.8</ele>
      </trkpt>
      <trkpt lat="46.47232" lon="4.80904">
        <ele>225.4</ele>
      </trkpt>
      <trkpt lat="46.47219" lon="4.80908">
        <ele>225.4</ele>
      </trkpt>
      <trkpt lat="46.47212" lon="4.80911">
        <ele>225.5</ele>
      </trkpt>
      <trkpt lat="46.47206" lon="4.80916">
        <ele>225.6</ele>
      </trkpt>
      <trkpt lat="46.47201" lon="4.80924">
        <ele>225.5</ele>
      </trkpt>
      <trkpt lat="46.47197" lon="4.80929">
        <ele>225.5</ele>
      </trkpt>
      <trkpt lat="46.47194" lon="4.80933">
        <ele>225.4</ele>
      </trkpt>
      <trkpt lat="46.47188" lon="4.80939">
        <ele>225.4</ele>
      </trkpt>
      <trkpt lat="46.47181" lon="4.80944">
        <ele>225.5</ele>
      </trkpt>
      <trkpt lat="46.47185" lon="4.80962">
        <ele>225.3</ele>
      </trkpt>
      <trkpt lat="46.47189" lon="4.80987">
        <ele>225.1</ele>
      </trkpt>
      <trkpt lat="46.47189" lon="4.80991">
        <ele>225.1</ele>
      </trkpt>
      <trkpt lat="46.47191" lon="4.81006">
        <ele>225</ele>
      </trkpt>
      <trkpt lat="46.47191" lon="4.81013">
        <ele>225</ele>
      </trkpt>
      <trkpt lat="46.47191" lon="4.81027">
        <ele>225</ele>
      </trkpt>
      <trkpt lat="46.47192" lon="4.81059">
        <ele>224.1</ele>
      </trkpt>
      <trkpt lat="46.47193" lon="4.81075">
        <ele>224</ele>
      </trkpt>
      <trkpt lat="46.47195" lon="4.81096">
        <ele>224</ele>
      </trkpt>
      <trkpt lat="46.47196" lon="4.81119">
        <ele>224</ele>
      </trkpt>
      <trkpt lat="46.47198" lon="4.81191">
        <ele>223.1</ele>
      </trkpt>
      <trkpt lat="46.472" lon="4.81242">
        <ele>223</ele>
      </trkpt>
      <trkpt lat="46.47202" lon="4.81294">
        <ele>222.8</ele>
      </trkpt>
      <trkpt lat="46.47203" lon="4.81329">
        <ele>222.7</ele>
      </trkpt>
      <trkpt lat="46.47204" lon="4.81357">
        <ele>222.6</ele>
      </trkpt>
      <trkpt lat="46.47205" lon="4.81381">
        <ele>221.9</ele>
      </trkpt>
      <trkpt lat="46.47205" lon="4.81403">
        <ele>221.6</ele>
      </trkpt>
      <trkpt lat="46.47204" lon="4.81442">
        <ele>221.7</ele>
      </trkpt>
      <trkpt lat="46.47201" lon="4.81508">
        <ele>221.1</ele>
      </trkpt>
      <trkpt lat="46.47199" lon="4.81563">
        <ele>221.1</ele>
      </trkpt>
      <trkpt lat="46.47198" lon="4.81578">
        <ele>221</ele>
      </trkpt>
      <trkpt lat="46.47197" lon="4.81646">
        <ele>220.7</ele>
      </trkpt>
      <trkpt lat="46.47202" lon="4.81646">
        <ele>220.5</ele>
      </trkpt>
      <trkpt lat="46.47207" lon="4.81645">
        <ele>220.4</ele>
      </trkpt>
      <trkpt lat="46.47215" lon="4.81641">
        <ele>220.3</ele>
      </trkpt>
      <trkpt lat="46.47244" lon="4.81607">
        <ele>221</ele>
      </trkpt>
      <trkpt lat="46.47291" lon="4.81552">
        <ele>221.1</ele>
      </trkpt>
      <trkpt lat="46.4732" lon="4.81521">
        <ele>220.6</ele>
      </trkpt>
      <trkpt lat="46.47326" lon="4.81514">
        <ele>220.9</ele>
      </trkpt>
      <trkpt lat="46.47334" lon="4.81503">
        <ele>221.8</ele>
      </trkpt>
      <trkpt lat="46.47338" lon="4.81492">
        <ele>221.6</ele>
      </trkpt>
      <trkpt lat="46.47339" lon="4.81486">
        <ele>221.4</ele>
      </trkpt>
      <trkpt lat="46.47343" lon="4.81493">
        <ele>221.5</ele>
      </trkpt>
      <trkpt lat="46.47347" lon="4.81504">
        <ele>221.3</ele>
      </trkpt>
      <trkpt lat="46.4735" lon="4.81517">
        <ele>220.5</ele>
      </trkpt>
      <trkpt lat="46.47358" lon="4.81574">
        <ele>221.2</ele>
      </trkpt>
      <trkpt lat="46.47361" lon="4.81594">
        <ele>222</ele>
      </trkpt>
      <trkpt lat="46.47375" lon="4.8168">
        <ele>221.2</ele>
      </trkpt>
      <trkpt lat="46.47386" lon="4.81751">
        <ele>226.8</ele>
      </trkpt>
      <trkpt lat="46.47394" lon="4.81798">
        <ele>229</ele>
      </trkpt>
      <trkpt lat="46.47408" lon="4.81781">
        <ele>228.9</ele>
      </trkpt>
      <trkpt lat="46.47419" lon="4.81765">
        <ele>228.7</ele>
      </trkpt>
      <trkpt lat="46.47427" lon="4.81753">
        <ele>228.5</ele>
      </trkpt>
      <trkpt lat="46.47431" lon="4.81743">
        <ele>227.8</ele>
      </trkpt>
      <trkpt lat="46.47436" lon="4.81732">
        <ele>226.8</ele>
      </trkpt>
      <trkpt lat="46.4744" lon="4.8171">
        <ele>224.5</ele>
      </trkpt>
      <trkpt lat="46.47442" lon="4.81691">
        <ele>222.9</ele>
      </trkpt>
      <trkpt lat="46.47442" lon="4.81656">
        <ele>221.9</ele>
      </trkpt>
      <trkpt lat="46.47442" lon="4.81631">
        <ele>221.7</ele>
      </trkpt>
      <trkpt lat="46.47442" lon="4.81606">
        <ele>221</ele>
      </trkpt>
      <trkpt lat="46.47493" lon="4.81601">
        <ele>221.5</ele>
      </trkpt>
      <trkpt lat="46.47499" lon="4.81601">
        <ele>221.6</ele>
      </trkpt>
      <trkpt lat="46.47504" lon="4.816">
        <ele>221.7</ele>
      </trkpt>
      <trkpt lat="46.47507" lon="4.81601">
        <ele>221.7</ele>
      </trkpt>
      <trkpt lat="46.4755" lon="4.81596">
        <ele>222</ele>
      </trkpt>
      <trkpt lat="46.47603" lon="4.81591">
        <ele>223</ele>
      </trkpt>
      <trkpt lat="46.47634" lon="4.81587">
        <ele>223.1</ele>
      </trkpt>
      <trkpt lat="46.47643" lon="4.81587">
        <ele>223.3</ele>
      </trkpt>
      <trkpt lat="46.47651" lon="4.81588">
        <ele>223.6</ele>
      </trkpt>
      <trkpt lat="46.47656" lon="4.8159">
        <ele>223.8</ele>
      </trkpt>
      <trkpt lat="46.47674" lon="4.81597">
        <ele>224.5</ele>
      </trkpt>
      <trkpt lat="46.47683" lon="4.816">
        <ele>224.6</ele>
      </trkpt>
      <trkpt lat="46.47692" lon="4.81601">
        <ele>224.6</ele>
      </trkpt>
      <trkpt lat="46.477" lon="4.81601">
        <ele>224.6</ele>
      </trkpt>
      <trkpt lat="46.47708" lon="4.81601">
        <ele>224.6</ele>
      </trkpt>
      <trkpt lat="46.47739" lon="4.81593">
        <ele>225</ele>
      </trkpt>
      <trkpt lat="46.47752" lon="4.81589">
        <ele>225.3</ele>
      </trkpt>
      <trkpt lat="46.47761" lon="4.81586">
        <ele>225.4</ele>
      </trkpt>
      <trkpt lat="46.47792" lon="4.81578">
        <ele>225.8</ele>
      </trkpt>
      <trkpt lat="46.47823" lon="4.81571">
        <ele>225.8</ele>
      </trkpt>
      <trkpt lat="46.47844" lon="4.81566">
        <ele>226</ele>
      </trkpt>
      <trkpt lat="46.47861" lon="4.81564">
        <ele>226</ele>
      </trkpt>
      <trkpt lat="46.47878" lon="4.81564">
        <ele>226.6</ele>
      </trkpt>
      <trkpt lat="46.47894" lon="4.81564">
        <ele>227</ele>
      </trkpt>
      <trkpt lat="46.4791" lon="4.81569">
        <ele>227</ele>
      </trkpt>
      <trkpt lat="46.47924" lon="4.81573">
        <ele>227.3</ele>
      </trkpt>
      <trkpt lat="46.47931" lon="4.81574">
        <ele>227.5</ele>
      </trkpt>
      <trkpt lat="46.47934" lon="4.81573">
        <ele>227.6</ele>
      </trkpt>
      <trkpt lat="46.47937" lon="4.8157">
        <ele>227.7</ele>
      </trkpt>
      <trkpt lat="46.4794" lon="4.81565">
        <ele>227.8</ele>
      </trkpt>
      <trkpt lat="46.47942" lon="4.81555">
        <ele>227.9</ele>
      </trkpt>
      <trkpt lat="46.47948" lon="4.81515">
        <ele>227.5</ele>
      </trkpt>
      <trkpt lat="46.47958" lon="4.8147">
        <ele>227.4</ele>
      </trkpt>
      <trkpt lat="46.4795" lon="4.81459">
        <ele>227.1</ele>
      </trkpt>
      <trkpt lat="46.47934" lon="4.81433">
        <ele>227</ele>
      </trkpt>
      <trkpt lat="46.47924" lon="4.81413">
        <ele>226.9</ele>
      </trkpt>
      <trkpt lat="46.47916" lon="4.81391">
        <ele>226.1</ele>
      </trkpt>
      <trkpt lat="46.4791" lon="4.81372">
        <ele>226.4</ele>
      </trkpt>
      <trkpt lat="46.47904" lon="4.81359">
        <ele>226.6</ele>
      </trkpt>
      <trkpt lat="46.47927" lon="4.81344">
        <ele>228</ele>
      </trkpt>
      <trkpt lat="46.47937" lon="4.81339">
        <ele>228.5</ele>
      </trkpt>
      <trkpt lat="46.47948" lon="4.81336">
        <ele>229</ele>
      </trkpt>
      <trkpt lat="46.47959" lon="4.81336">
        <ele>229.4</ele>
      </trkpt>
      <trkpt lat="46.47968" lon="4.81338">
        <ele>229.7</ele>
      </trkpt>
      <trkpt lat="46.47981" lon="4.81343">
        <ele>229.8</ele>
      </trkpt>
      <trkpt lat="46.48" lon="4.81348">
        <ele>230</ele>
      </trkpt>
      <trkpt lat="46.48018" lon="4.81349">
        <ele>229.6</ele>
      </trkpt>
      <trkpt lat="46.48038" lon="4.81346">
        <ele>229.5</ele>
      </trkpt>
      <trkpt lat="46.4806" lon="4.81343">
        <ele>229.6</ele>
      </trkpt>
      <trkpt lat="46.48064" lon="4.81344">
        <ele>229.6</ele>
      </trkpt>
      <trkpt lat="46.48069" lon="4.81346">
        <ele>229.6</ele>
      </trkpt>
      <trkpt lat="46.48073" lon="4.81328">
        <ele>230.2</ele>
      </trkpt>
      <trkpt lat="46.48073" lon="4.81316">
        <ele>230.6</ele>
      </trkpt>
      <trkpt lat="46.48073" lon="4.81306">
        <ele>231</ele>
      </trkpt>
      <trkpt lat="46.48071" lon="4.81298">
        <ele>231.7</ele>
      </trkpt>
      <trkpt lat="46.48067" lon="4.81295">
        <ele>232</ele>
      </trkpt>
      <trkpt lat="46.48063" lon="4.81293">
        <ele>232.2</ele>
      </trkpt>
      <trkpt lat="46.48049" lon="4.81293">
        <ele>232.6</ele>
      </trkpt>
      <trkpt lat="46.48027" lon="4.81292">
        <ele>233.4</ele>
      </trkpt>
      <trkpt lat="46.48016" lon="4.81288">
        <ele>234.1</ele>
      </trkpt>
      <trkpt lat="46.4801" lon="4.81284">
        <ele>234.9</ele>
      </trkpt>
      <trkpt lat="46.48005" lon="4.81276">
        <ele>236</ele>
      </trkpt>
      <trkpt lat="46.48" lon="4.81259">
        <ele>238</ele>
      </trkpt>
      <trkpt lat="46.47996" lon="4.81242">
        <ele>240.2</ele>
      </trkpt>
      <trkpt lat="46.47988" lon="4.81224">
        <ele>242.7</ele>
      </trkpt>
      <trkpt lat="46.4798" lon="4.8121">
        <ele>245.1</ele>
      </trkpt>
      <trkpt lat="46.47967" lon="4.81195">
        <ele>247.9</ele>
      </trkpt>
      <trkpt lat="46.47946" lon="4.81178">
        <ele>251.5</ele>
      </trkpt>
      <trkpt lat="46.47923" lon="4.81163">
        <ele>253.2</ele>
      </trkpt>
      <trkpt lat="46.47895" lon="4.81148">
        <ele>256.7</ele>
      </trkpt>
      <trkpt lat="46.47881" lon="4.81139">
        <ele>259.2</ele>
      </trkpt>
      <trkpt lat="46.47869" lon="4.81127">
        <ele>261.6</ele>
      </trkpt>
      <trkpt lat="46.47863" lon="4.81117">
        <ele>263.2</ele>
      </trkpt>
      <trkpt lat="46.47857" lon="4.81108">
        <ele>264.5</ele>
      </trkpt>
      <trkpt lat="46.47855" lon="4.81097">
        <ele>266</ele>
      </trkpt>
      <trkpt lat="46.47854" lon="4.81083">
        <ele>268</ele>
      </trkpt>
      <trkpt lat="46.47855" lon="4.81071">
        <ele>269.3</ele>
      </trkpt>
      <trkpt lat="46.47858" lon="4.81055">
        <ele>271.1</ele>
      </trkpt>
      <trkpt lat="46.47859" lon="4.81042">
        <ele>272.4</ele>
      </trkpt>
      <trkpt lat="46.47858" lon="4.81034">
        <ele>273.4</ele>
      </trkpt>
      <trkpt lat="46.47855" lon="4.81026">
        <ele>274.1</ele>
      </trkpt>
      <trkpt lat="46.47848" lon="4.81014">
        <ele>275.3</ele>
      </trkpt>
      <trkpt lat="46.47838" lon="4.81002">
        <ele>276</ele>
      </trkpt>
      <trkpt lat="46.47825" lon="4.80989">
        <ele>276.6</ele>
      </trkpt>
      <trkpt lat="46.4782" lon="4.80984">
        <ele>277</ele>
      </trkpt>
      <trkpt lat="46.47803" lon="4.8097">
        <ele>278.1</ele>
      </trkpt>
      <trkpt lat="46.47784" lon="4.80958">
        <ele>278.8</ele>
      </trkpt>
      <trkpt lat="46.47773" lon="4.80952">
        <ele>278.9</ele>
      </trkpt>
      <trkpt lat="46.47765" lon="4.80949">
        <ele>278.7</ele>
      </trkpt>
      <trkpt lat="46.4775" lon="4.80945">
        <ele>277.9</ele>
      </trkpt>
      <trkpt lat="46.47731" lon="4.80939">
        <ele>277.6</ele>
      </trkpt>
      <trkpt lat="46.4771" lon="4.80929">
        <ele>276.3</ele>
      </trkpt>
      <trkpt lat="46.47696" lon="4.80921">
        <ele>275.6</ele>
      </trkpt>
      <trkpt lat="46.47672" lon="4.80908">
        <ele>275</ele>
      </trkpt>
      <trkpt lat="46.47658" lon="4.80902">
        <ele>273.9</ele>
      </trkpt>
      <trkpt lat="46.47649" lon="4.80894">
        <ele>273.5</ele>
      </trkpt>
      <trkpt lat="46.47639" lon="4.80882">
        <ele>273.2</ele>
      </trkpt>
      <trkpt lat="46.47632" lon="4.80874">
        <ele>272.6</ele>
      </trkpt>
      <trkpt lat="46.47626" lon="4.80868">
        <ele>272.3</ele>
      </trkpt>
      <trkpt lat="46.47621" lon="4.80863">
        <ele>271.9</ele>
      </trkpt>
      <trkpt lat="46.4763" lon="4.80849">
        <ele>273</ele>
      </trkpt>
      <trkpt lat="46.4765" lon="4.80817">
        <ele>274.2</ele>
      </trkpt>
      <trkpt lat="46.47662" lon="4.80804">
        <ele>274.6</ele>
      </trkpt>
      <trkpt lat="46.47673" lon="4.80787">
        <ele>275.6</ele>
      </trkpt>
      <trkpt lat="46.47683" lon="4.80769">
        <ele>276.6</ele>
      </trkpt>
      <trkpt lat="46.47697" lon="4.80744">
        <ele>278.2</ele>
      </trkpt>
      <trkpt lat="46.47706" lon="4.80728">
        <ele>278.9</ele>
      </trkpt>
      <trkpt lat="46.47714" lon="4.8072">
        <ele>279.4</ele>
      </trkpt>
      <trkpt lat="46.47729" lon="4.80706">
        <ele>280.6</ele>
      </trkpt>
      <trkpt lat="46.47758" lon="4.80688">
        <ele>281.8</ele>
      </trkpt>
      <trkpt lat="46.47772" lon="4.80676">
        <ele>282.5</ele>
      </trkpt>
      <trkpt lat="46.47791" lon="4.80661">
        <ele>282.9</ele>
      </trkpt>
      <trkpt lat="46.47814" lon="4.80639">
        <ele>284.3</ele>
      </trkpt>
      <trkpt lat="46.47821" lon="4.80635">
        <ele>284.3</ele>
      </trkpt>
      <trkpt lat="46.47834" lon="4.80629">
        <ele>284.7</ele>
      </trkpt>
      <trkpt lat="46.47885" lon="4.80613">
        <ele>288.7</ele>
      </trkpt>
      <trkpt lat="46.47915" lon="4.80604">
        <ele>289.9</ele>
      </trkpt>
      <trkpt lat="46.47948" lon="4.80594">
        <ele>291.1</ele>
      </trkpt>
      <trkpt lat="46.47975" lon="4.80588">
        <ele>292.1</ele>
      </trkpt>
      <trkpt lat="46.47998" lon="4.80584">
        <ele>292.9</ele>
      </trkpt>
      <trkpt lat="46.48027" lon="4.80578">
        <ele>294</ele>
      </trkpt>
      <trkpt lat="46.4806" lon="4.80568">
        <ele>295.7</ele>
      </trkpt>
      <trkpt lat="46.48112" lon="4.80554">
        <ele>298.1</ele>
      </trkpt>
      <trkpt lat="46.48138" lon="4.80546">
        <ele>299.9</ele>
      </trkpt>
      <trkpt lat="46.48164" lon="4.80538">
        <ele>302.1</ele>
      </trkpt>
      <trkpt lat="46.48196" lon="4.80531">
        <ele>304.2</ele>
      </trkpt>
      <trkpt lat="46.48208" lon="4.8053">
        <ele>305</ele>
      </trkpt>
      <trkpt lat="46.48221" lon="4.8053">
        <ele>306</ele>
      </trkpt>
      <trkpt lat="46.4823" lon="4.80526">
        <ele>306.8</ele>
      </trkpt>
      <trkpt lat="46.48247" lon="4.80517">
        <ele>307.9</ele>
      </trkpt>
      <trkpt lat="46.48266" lon="4.80503">
        <ele>308.3</ele>
      </trkpt>
      <trkpt lat="46.48285" lon="4.80491">
        <ele>308.9</ele>
      </trkpt>
      <trkpt lat="46.48309" lon="4.80481">
        <ele>309.8</ele>
      </trkpt>
      <trkpt lat="46.48333" lon="4.80471">
        <ele>310.9</ele>
      </trkpt>
      <trkpt lat="46.48359" lon="4.80464">
        <ele>311.3</ele>
      </trkpt>
      <trkpt lat="46.48397" lon="4.80453">
        <ele>311.7</ele>
      </trkpt>
      <trkpt lat="46.4842" lon="4.8045">
        <ele>311.5</ele>
      </trkpt>
      <trkpt lat="46.4843" lon="4.80451">
        <ele>311.6</ele>
      </trkpt>
      <trkpt lat="46.48446" lon="4.80456">
        <ele>311.8</ele>
      </trkpt>
      <trkpt lat="46.48467" lon="4.80468">
        <ele>312.7</ele>
      </trkpt>
      <trkpt lat="46.48495" lon="4.80487">
        <ele>311.4</ele>
      </trkpt>
      <trkpt lat="46.48525" lon="4.80502">
        <ele>309.4</ele>
      </trkpt>
      <trkpt lat="46.4853" lon="4.80483">
        <ele>308.2</ele>
      </trkpt>
      <trkpt lat="46.48548" lon="4.80417">
        <ele>306.6</ele>
      </trkpt>
      <trkpt lat="46.48576" lon="4.80324">
        <ele>306.2</ele>
      </trkpt>
      <trkpt lat="46.48589" lon="4.80277">
        <ele>305.8</ele>
      </trkpt>
      <trkpt lat="46.48601" lon="4.80238">
        <ele>305</ele>
      </trkpt>
      <trkpt lat="46.48608" lon="4.80221">
        <ele>305</ele>
      </trkpt>
      <trkpt lat="46.48616" lon="4.80206">
        <ele>304.3</ele>
      </trkpt>
      <trkpt lat="46.48625" lon="4.80191">
        <ele>304</ele>
      </trkpt>
      <trkpt lat="46.48642" lon="4.80168">
        <ele>303.9</ele>
      </trkpt>
      <trkpt lat="46.4866" lon="4.80143">
        <ele>303</ele>
      </trkpt>
      <trkpt lat="46.48674" lon="4.80118">
        <ele>302.9</ele>
      </trkpt>
      <trkpt lat="46.48687" lon="4.80095">
        <ele>303</ele>
      </trkpt>
      <trkpt lat="46.48699" lon="4.80075">
        <ele>302.9</ele>
      </trkpt>
      <trkpt lat="46.48714" lon="4.80054">
        <ele>303</ele>
      </trkpt>
      <trkpt lat="46.48724" lon="4.80035">
        <ele>303.7</ele>
      </trkpt>
      <trkpt lat="46.48729" lon="4.80023">
        <ele>303.8</ele>
      </trkpt>
      <trkpt lat="46.48734" lon="4.80006">
        <ele>303.6</ele>
      </trkpt>
      <trkpt lat="46.48744" lon="4.79975">
        <ele>304.6</ele>
      </trkpt>
      <trkpt lat="46.48753" lon="4.79948">
        <ele>305</ele>
      </trkpt>
      <trkpt lat="46.48763" lon="4.79916">
        <ele>306</ele>
      </trkpt>
      <trkpt lat="46.48772" lon="4.79881">
        <ele>306.3</ele>
      </trkpt>
      <trkpt lat="46.4878" lon="4.79852">
        <ele>307.3</ele>
      </trkpt>
      <trkpt lat="46.4879" lon="4.79817">
        <ele>307.8</ele>
      </trkpt>
      <trkpt lat="46.48794" lon="4.79799">
        <ele>308.3</ele>
      </trkpt>
      <trkpt lat="46.48798" lon="4.79777">
        <ele>309</ele>
      </trkpt>
      <trkpt lat="46.48803" lon="4.79743">
        <ele>310.2</ele>
      </trkpt>
      <trkpt lat="46.48807" lon="4.79712">
        <ele>311.3</ele>
      </trkpt>
      <trkpt lat="46.4881" lon="4.79696">
        <ele>311.8</ele>
      </trkpt>
      <trkpt lat="46.48815" lon="4.79675">
        <ele>311.7</ele>
      </trkpt>
      <trkpt lat="46.48821" lon="4.7964">
        <ele>312</ele>
      </trkpt>
      <trkpt lat="46.48828" lon="4.79604">
        <ele>313</ele>
      </trkpt>
      <trkpt lat="46.48841" lon="4.79543">
        <ele>313.9</ele>
      </trkpt>
      <trkpt lat="46.48848" lon="4.79503">
        <ele>312.7</ele>
      </trkpt>
      <trkpt lat="46.48829" lon="4.79497">
        <ele>311.4</ele>
      </trkpt>
      <trkpt lat="46.48817" lon="4.79495">
        <ele>310.4</ele>
      </trkpt>
      <trkpt lat="46.48804" lon="4.79495">
        <ele>309.5</ele>
      </trkpt>
      <trkpt lat="46.48797" lon="4.79494">
        <ele>309.2</ele>
      </trkpt>
      <trkpt lat="46.48773" lon="4.79487">
        <ele>308</ele>
      </trkpt>
      <trkpt lat="46.48748" lon="4.79482">
        <ele>307</ele>
      </trkpt>
      <trkpt lat="46.48724" lon="4.79476">
        <ele>305.5</ele>
      </trkpt>
      <trkpt lat="46.48685" lon="4.79465">
        <ele>304.3</ele>
      </trkpt>
      <trkpt lat="46.48635" lon="4.79454">
        <ele>303.1</ele>
      </trkpt>
      <trkpt lat="46.4859" lon="4.79442">
        <ele>303.5</ele>
      </trkpt>
      <trkpt lat="46.48581" lon="4.79434">
        <ele>303.1</ele>
      </trkpt>
      <trkpt lat="46.48569" lon="4.79422">
        <ele>303</ele>
      </trkpt>
      <trkpt lat="46.48555" lon="4.79411">
        <ele>303</ele>
      </trkpt>
      <trkpt lat="46.48537" lon="4.79403">
        <ele>302.4</ele>
      </trkpt>
      <trkpt lat="46.48518" lon="4.79397">
        <ele>302.4</ele>
      </trkpt>
      <trkpt lat="46.48492" lon="4.79391">
        <ele>302.6</ele>
      </trkpt>
      <trkpt lat="46.48466" lon="4.79385">
        <ele>302.5</ele>
      </trkpt>
      <trkpt lat="46.48452" lon="4.79384">
        <ele>302.7</ele>
      </trkpt>
      <trkpt lat="46.48433" lon="4.79381">
        <ele>302.7</ele>
      </trkpt>
      <trkpt lat="46.48423" lon="4.79381">
        <ele>302.9</ele>
      </trkpt>
      <trkpt lat="46.48419" lon="4.79383">
        <ele>303.1</ele>
      </trkpt>
      <trkpt lat="46.48415" lon="4.79404">
        <ele>305.1</ele>
      </trkpt>
      <trkpt lat="46.4841" lon="4.79433">
        <ele>306.4</ele>
      </trkpt>
      <trkpt lat="46.484" lon="4.79492">
        <ele>305.1</ele>
      </trkpt>
      <trkpt lat="46.48391" lon="4.7953">
        <ele>303.9</ele>
      </trkpt>
      <trkpt lat="46.48382" lon="4.79574">
        <ele>302.6</ele>
      </trkpt>
      <trkpt lat="46.48375" lon="4.79574">
        <ele>302.8</ele>
      </trkpt>
      <trkpt lat="46.48365" lon="4.79578">
        <ele>303.1</ele>
      </trkpt>
      <trkpt lat="46.48354" lon="4.79583">
        <ele>303.3</ele>
      </trkpt>
      <trkpt lat="46.48344" lon="4.79585">
        <ele>303.6</ele>
      </trkpt>
      <trkpt lat="46.48333" lon="4.79587">
        <ele>303.9</ele>
      </trkpt>
      <trkpt lat="46.48318" lon="4.79589">
        <ele>303.8</ele>
      </trkpt>
      <trkpt lat="46.48304" lon="4.79594">
        <ele>303.6</ele>
      </trkpt>
      <trkpt lat="46.4828" lon="4.79598">
        <ele>303.5</ele>
      </trkpt>
      <trkpt lat="46.4826" lon="4.79606">
        <ele>303.2</ele>
      </trkpt>
      <trkpt lat="46.48252" lon="4.79606">
        <ele>303.2</ele>
      </trkpt>
      <trkpt lat="46.48234" lon="4.79608">
        <ele>302.5</ele>
      </trkpt>
      <trkpt lat="46.48216" lon="4.79612">
        <ele>302</ele>
      </trkpt>
      <trkpt lat="46.48208" lon="4.79613">
        <ele>301.9</ele>
      </trkpt>
      <trkpt lat="46.48186" lon="4.79616">
        <ele>301.4</ele>
      </trkpt>
      <trkpt lat="46.48179" lon="4.79614">
        <ele>301.3</ele>
      </trkpt>
      <trkpt lat="46.48175" lon="4.79611">
        <ele>301.3</ele>
      </trkpt>
      <trkpt lat="46.48171" lon="4.79606">
        <ele>301.2</ele>
      </trkpt>
      <trkpt lat="46.4817" lon="4.796">
        <ele>301.1</ele>
      </trkpt>
      <trkpt lat="46.48171" lon="4.79589">
        <ele>301.1</ele>
      </trkpt>
      <trkpt lat="46.48171" lon="4.79574">
        <ele>301.2</ele>
      </trkpt>
      <trkpt lat="46.4817" lon="4.7956">
        <ele>301.2</ele>
      </trkpt>
      <trkpt lat="46.48165" lon="4.79536">
        <ele>300.9</ele>
      </trkpt>
      <trkpt lat="46.48159" lon="4.79512">
        <ele>300.6</ele>
      </trkpt>
      <trkpt lat="46.48151" lon="4.79478">
        <ele>298.7</ele>
      </trkpt>
      <trkpt lat="46.48145" lon="4.79462">
        <ele>297.8</ele>
      </trkpt>
      <trkpt lat="46.48141" lon="4.79445">
        <ele>297.1</ele>
      </trkpt>
      <trkpt lat="46.48136" lon="4.79431">
        <ele>295.4</ele>
      </trkpt>
      <trkpt lat="46.48129" lon="4.79424">
        <ele>294.3</ele>
      </trkpt>
      <trkpt lat="46.48123" lon="4.79421">
        <ele>293.8</ele>
      </trkpt>
      <trkpt lat="46.48116" lon="4.79416">
        <ele>293.1</ele>
      </trkpt>
      <trkpt lat="46.48105" lon="4.79411">
        <ele>292.1</ele>
      </trkpt>
      <trkpt lat="46.48097" lon="4.79408">
        <ele>291.4</ele>
      </trkpt>
      <trkpt lat="46.48096" lon="4.79408">
        <ele>291.3</ele>
      </trkpt>
      <trkpt lat="46.48093" lon="4.79407">
        <ele>291</ele>
      </trkpt>
      <trkpt lat="46.48081" lon="4.79403">
        <ele>289.9</ele>
      </trkpt>
      <trkpt lat="46.48073" lon="4.794">
        <ele>289.5</ele>
      </trkpt>
      <trkpt lat="46.48056" lon="4.7939">
        <ele>288.2</ele>
      </trkpt>
      <trkpt lat="46.48039" lon="4.79382">
        <ele>287.4</ele>
      </trkpt>
      <trkpt lat="46.4803" lon="4.79378">
        <ele>286.9</ele>
      </trkpt>
      <trkpt lat="46.48018" lon="4.79374">
        <ele>286.1</ele>
      </trkpt>
      <trkpt lat="46.47995" lon="4.79368">
        <ele>284.8</ele>
      </trkpt>
      <trkpt lat="46.47974" lon="4.79362">
        <ele>284.2</ele>
      </trkpt>
      <trkpt lat="46.47958" lon="4.7936">
        <ele>283.4</ele>
      </trkpt>
      <trkpt lat="46.4794" lon="4.79354">
        <ele>281.9</ele>
      </trkpt>
      <trkpt lat="46.47924" lon="4.79349">
        <ele>280.3</ele>
      </trkpt>
      <trkpt lat="46.47913" lon="4.79345">
        <ele>279</ele>
      </trkpt>
      <trkpt lat="46.47906" lon="4.79344">
        <ele>278.2</ele>
      </trkpt>
      <trkpt lat="46.47901" lon="4.79344">
        <ele>277.7</ele>
      </trkpt>
      <trkpt lat="46.47895" lon="4.79344">
        <ele>277.1</ele>
      </trkpt>
      <trkpt lat="46.47884" lon="4.79347">
        <ele>276.2</ele>
      </trkpt>
      <trkpt lat="46.47872" lon="4.7935">
        <ele>274.7</ele>
      </trkpt>
      <trkpt lat="46.47863" lon="4.79356">
        <ele>274.2</ele>
      </trkpt>
      <trkpt lat="46.47855" lon="4.79361">
        <ele>273.9</ele>
      </trkpt>
      <trkpt lat="46.47852" lon="4.79365">
        <ele>274.2</ele>
      </trkpt>
      <trkpt lat="46.47849" lon="4.79365">
        <ele>273.8</ele>
      </trkpt>
      <trkpt lat="46.47847" lon="4.79365">
        <ele>273.4</ele>
      </trkpt>
      <trkpt lat="46.47845" lon="4.79364">
        <ele>272.7</ele>
      </trkpt>
      <trkpt lat="46.47844" lon="4.79361">
        <ele>271.8</ele>
      </trkpt>
      <trkpt lat="46.47843" lon="4.79357">
        <ele>271</ele>
      </trkpt>
      <trkpt lat="46.47844" lon="4.79353">
        <ele>270.2</ele>
      </trkpt>
      <trkpt lat="46.47846" lon="4.79346">
        <ele>269.3</ele>
      </trkpt>
      <trkpt lat="46.47856" lon="4.79322">
        <ele>267.6</ele>
      </trkpt>
      <trkpt lat="46.47869" lon="4.7929">
        <ele>266.1</ele>
      </trkpt>
      <trkpt lat="46.47882" lon="4.79263">
        <ele>265.8</ele>
      </trkpt>
      <trkpt lat="46.4789" lon="4.79244">
        <ele>265.3</ele>
      </trkpt>
      <trkpt lat="46.47896" lon="4.79232">
        <ele>264.3</ele>
      </trkpt>
      <trkpt lat="46.479" lon="4.79221">
        <ele>263.3</ele>
      </trkpt>
      <trkpt lat="46.47903" lon="4.7921">
        <ele>262.2</ele>
      </trkpt>
      <trkpt lat="46.47902" lon="4.79196">
        <ele>260.2</ele>
      </trkpt>
      <trkpt lat="46.47899" lon="4.79182">
        <ele>258.6</ele>
      </trkpt>
      <trkpt lat="46.47898" lon="4.79177">
        <ele>258.1</ele>
      </trkpt>
      <trkpt lat="46.47899" lon="4.79172">
        <ele>257.8</ele>
      </trkpt>
      <trkpt lat="46.479" lon="4.79165">
        <ele>257.4</ele>
      </trkpt>
      <trkpt lat="46.47901" lon="4.79154">
        <ele>256.8</ele>
      </trkpt>
      <trkpt lat="46.47901" lon="4.79141">
        <ele>255.8</ele>
      </trkpt>
      <trkpt lat="46.47903" lon="4.79136">
        <ele>256</ele>
      </trkpt>
      <trkpt lat="46.47913" lon="4.79113">
        <ele>256.8</ele>
      </trkpt>
      <trkpt lat="46.47928" lon="4.79076">
        <ele>255.6</ele>
      </trkpt>
      <trkpt lat="46.47943" lon="4.79037">
        <ele>255.5</ele>
      </trkpt>
      <trkpt lat="46.47957" lon="4.79006">
        <ele>254.7</ele>
      </trkpt>
      <trkpt lat="46.47982" lon="4.78957">
        <ele>254.3</ele>
      </trkpt>
      <trkpt lat="46.47985" lon="4.78951">
        <ele>254.2</ele>
      </trkpt>
      <trkpt lat="46.48007" lon="4.78909">
        <ele>254.8</ele>
      </trkpt>
      <trkpt lat="46.48024" lon="4.7887">
        <ele>254.8</ele>
      </trkpt>
      <trkpt lat="46.48033" lon="4.78847">
        <ele>255.2</ele>
      </trkpt>
      <trkpt lat="46.48046" lon="4.78813">
        <ele>255.4</ele>
      </trkpt>
      <trkpt lat="46.48056" lon="4.78786">
        <ele>256</ele>
      </trkpt>
      <trkpt lat="46.48066" lon="4.78763">
        <ele>256</ele>
      </trkpt>
      <trkpt lat="46.48073" lon="4.78744">
        <ele>256.2</ele>
      </trkpt>
      <trkpt lat="46.48073" lon="4.78742">
        <ele>256.3</ele>
      </trkpt>
      <trkpt lat="46.48078" lon="4.78725">
        <ele>256.6</ele>
      </trkpt>
      <trkpt lat="46.48079" lon="4.78721">
        <ele>256.6</ele>
      </trkpt>
      <trkpt lat="46.4808" lon="4.78713">
        <ele>256.5</ele>
      </trkpt>
      <trkpt lat="46.48081" lon="4.78701">
        <ele>256.2</ele>
      </trkpt>
      <trkpt lat="46.48081" lon="4.78692">
        <ele>255.9</ele>
      </trkpt>
      <trkpt lat="46.4808" lon="4.78686">
        <ele>255.9</ele>
      </trkpt>
      <trkpt lat="46.48079" lon="4.78678">
        <ele>255.8</ele>
      </trkpt>
      <trkpt lat="46.48075" lon="4.78669">
        <ele>255.7</ele>
      </trkpt>
      <trkpt lat="46.48077" lon="4.78657">
        <ele>256.2</ele>
      </trkpt>
      <trkpt lat="46.48078" lon="4.78652">
        <ele>256.4</ele>
      </trkpt>
      <trkpt lat="46.4808" lon="4.78628">
        <ele>257.3</ele>
      </trkpt>
      <trkpt lat="46.48085" lon="4.78592">
        <ele>258.6</ele>
      </trkpt>
      <trkpt lat="46.48092" lon="4.78557">
        <ele>260.9</ele>
      </trkpt>
      <trkpt lat="46.48093" lon="4.78549">
        <ele>261.5</ele>
      </trkpt>
      <trkpt lat="46.48096" lon="4.7854">
        <ele>262.4</ele>
      </trkpt>
      <trkpt lat="46.48106" lon="4.78521">
        <ele>264.6</ele>
      </trkpt>
      <trkpt lat="46.4811" lon="4.78513">
        <ele>265.6</ele>
      </trkpt>
      <trkpt lat="46.48118" lon="4.78502">
        <ele>267.2</ele>
      </trkpt>
      <trkpt lat="46.48122" lon="4.78498">
        <ele>268</ele>
      </trkpt>
      <trkpt lat="46.48121" lon="4.78487">
        <ele>268.9</ele>
      </trkpt>
      <trkpt lat="46.48121" lon="4.78475">
        <ele>269.9</ele>
      </trkpt>
      <trkpt lat="46.48121" lon="4.78467">
        <ele>270.9</ele>
      </trkpt>
      <trkpt lat="46.4812" lon="4.78454">
        <ele>272.4</ele>
      </trkpt>
      <trkpt lat="46.48118" lon="4.7844">
        <ele>273.7</ele>
      </trkpt>
      <trkpt lat="46.48112" lon="4.78423">
        <ele>274.6</ele>
      </trkpt>
      <trkpt lat="46.48109" lon="4.78406">
        <ele>275.9</ele>
      </trkpt>
      <trkpt lat="46.48107" lon="4.78393">
        <ele>277.1</ele>
      </trkpt>
      <trkpt lat="46.48104" lon="4.78371">
        <ele>279.2</ele>
      </trkpt>
      <trkpt lat="46.48102" lon="4.78353">
        <ele>281.1</ele>
      </trkpt>
      <trkpt lat="46.48101" lon="4.78339">
        <ele>282.4</ele>
      </trkpt>
      <trkpt lat="46.48101" lon="4.78332">
        <ele>283.3</ele>
      </trkpt>
      <trkpt lat="46.48103" lon="4.78326">
        <ele>284.1</ele>
      </trkpt>
      <trkpt lat="46.48105" lon="4.7832">
        <ele>285.1</ele>
      </trkpt>
      <trkpt lat="46.48107" lon="4.78311">
        <ele>286.1</ele>
      </trkpt>
      <trkpt lat="46.48107" lon="4.78302">
        <ele>286.9</ele>
      </trkpt>
      <trkpt lat="46.48107" lon="4.78292">
        <ele>288</ele>
      </trkpt>
      <trkpt lat="46.48105" lon="4.78276">
        <ele>289.3</ele>
      </trkpt>
      <trkpt lat="46.48099" lon="4.7825">
        <ele>291.7</ele>
      </trkpt>
      <trkpt lat="46.48092" lon="4.78223">
        <ele>293.2</ele>
      </trkpt>
      <trkpt lat="46.48088" lon="4.7821">
        <ele>294</ele>
      </trkpt>
      <trkpt lat="46.48084" lon="4.78192">
        <ele>295.3</ele>
      </trkpt>
      <trkpt lat="46.4808" lon="4.78177">
        <ele>296.4</ele>
      </trkpt>
      <trkpt lat="46.48074" lon="4.78159">
        <ele>297.7</ele>
      </trkpt>
      <trkpt lat="46.48069" lon="4.78142">
        <ele>299</ele>
      </trkpt>
      <trkpt lat="46.48065" lon="4.78132">
        <ele>299.6</ele>
      </trkpt>
      <trkpt lat="46.48061" lon="4.78126">
        <ele>299.8</ele>
      </trkpt>
      <trkpt lat="46.4805" lon="4.78111">
        <ele>300.2</ele>
      </trkpt>
      <trkpt lat="46.48038" lon="4.7809">
        <ele>300.7</ele>
      </trkpt>
      <trkpt lat="46.48029" lon="4.78076">
        <ele>301</ele>
      </trkpt>
      <trkpt lat="46.48022" lon="4.78063">
        <ele>301.6</ele>
      </trkpt>
      <trkpt lat="46.48017" lon="4.78053">
        <ele>302.2</ele>
      </trkpt>
      <trkpt lat="46.48011" lon="4.7804">
        <ele>303.1</ele>
      </trkpt>
      <trkpt lat="46.48005" lon="4.78029">
        <ele>303.5</ele>
      </trkpt>
      <trkpt lat="46.47992" lon="4.78013">
        <ele>303.8</ele>
      </trkpt>
      <trkpt lat="46.47981" lon="4.77998">
        <ele>304.1</ele>
      </trkpt>
      <trkpt lat="46.47973" lon="4.77988">
        <ele>304.4</ele>
      </trkpt>
      <trkpt lat="46.47971" lon="4.77985">
        <ele>304.4</ele>
      </trkpt>
      <trkpt lat="46.47967" lon="4.77982">
        <ele>304.3</ele>
      </trkpt>
      <trkpt lat="46.47962" lon="4.77979">
        <ele>304</ele>
      </trkpt>
      <trkpt lat="46.47957" lon="4.77978">
        <ele>303.6</ele>
      </trkpt>
      <trkpt lat="46.47951" lon="4.77977">
        <ele>303</ele>
      </trkpt>
      <trkpt lat="46.47936" lon="4.77978">
        <ele>301.2</ele>
      </trkpt>
      <trkpt lat="46.47928" lon="4.77979">
        <ele>300.2</ele>
      </trkpt>
      <trkpt lat="46.47923" lon="4.77979">
        <ele>299.7</ele>
      </trkpt>
      <trkpt lat="46.47919" lon="4.77979">
        <ele>299.3</ele>
      </trkpt>
      <trkpt lat="46.47912" lon="4.77976">
        <ele>298.9</ele>
      </trkpt>
      <trkpt lat="46.47899" lon="4.77971">
        <ele>298.2</ele>
      </trkpt>
      <trkpt lat="46.47878" lon="4.7796">
        <ele>297.4</ele>
      </trkpt>
      <trkpt lat="46.4784" lon="4.77934">
        <ele>296.8</ele>
      </trkpt>
      <trkpt lat="46.47827" lon="4.77925">
        <ele>296.8</ele>
      </trkpt>
      <trkpt lat="46.47814" lon="4.77918">
        <ele>297.2</ele>
      </trkpt>
      <trkpt lat="46.47793" lon="4.77907">
        <ele>297.1</ele>
      </trkpt>
      <trkpt lat="46.47771" lon="4.77894">
        <ele>297.4</ele>
      </trkpt>
      <trkpt lat="46.47758" lon="4.77884">
        <ele>297.6</ele>
      </trkpt>
      <trkpt lat="46.4771" lon="4.77851">
        <ele>298</ele>
      </trkpt>
      <trkpt lat="46.47677" lon="4.77824">
        <ele>298.4</ele>
      </trkpt>
      <trkpt lat="46.4766" lon="4.77812">
        <ele>298.3</ele>
      </trkpt>
      <trkpt lat="46.47645" lon="4.77803">
        <ele>298.5</ele>
      </trkpt>
      <trkpt lat="46.47629" lon="4.77793">
        <ele>298.2</ele>
      </trkpt>
      <trkpt lat="46.47621" lon="4.77787">
        <ele>298</ele>
      </trkpt>
      <trkpt lat="46.47617" lon="4.77786">
        <ele>297.8</ele>
      </trkpt>
      <trkpt lat="46.47615" lon="4.77786">
        <ele>297.7</ele>
      </trkpt>
      <trkpt lat="46.47611" lon="4.77786">
        <ele>297.4</ele>
      </trkpt>
      <trkpt lat="46.47608" lon="4.77791">
        <ele>296.8</ele>
      </trkpt>
      <trkpt lat="46.47596" lon="4.77818">
        <ele>294.3</ele>
      </trkpt>
      <trkpt lat="46.4758" lon="4.77855">
        <ele>291.3</ele>
      </trkpt>
      <trkpt lat="46.4757" lon="4.77882">
        <ele>289.8</ele>
      </trkpt>
      <trkpt lat="46.47557" lon="4.77925">
        <ele>287.5</ele>
      </trkpt>
      <trkpt lat="46.47546" lon="4.7796">
        <ele>285.1</ele>
      </trkpt>
      <trkpt lat="46.47534" lon="4.77999">
        <ele>284</ele>
      </trkpt>
      <trkpt lat="46.47524" lon="4.7803">
        <ele>282.5</ele>
      </trkpt>
      <trkpt lat="46.47501" lon="4.78025">
        <ele>281.4</ele>
      </trkpt>
      <trkpt lat="46.47492" lon="4.78024">
        <ele>280.7</ele>
      </trkpt>
      <trkpt lat="46.47482" lon="4.7802">
        <ele>280.2</ele>
      </trkpt>
      <trkpt lat="46.47474" lon="4.78017">
        <ele>280</ele>
      </trkpt>
      <trkpt lat="46.47466" lon="4.78017">
        <ele>279.3</ele>
      </trkpt>
      <trkpt lat="46.47477" lon="4.78036">
        <ele>277.6</ele>
      </trkpt>
      <trkpt lat="46.47479" lon="4.78045">
        <ele>276.9</ele>
      </trkpt>
      <trkpt lat="46.4748" lon="4.78052">
        <ele>276.3</ele>
      </trkpt>
      <trkpt lat="46.4748" lon="4.78058">
        <ele>275.8</ele>
      </trkpt>
      <trkpt lat="46.4748" lon="4.78062">
        <ele>275.5</ele>
      </trkpt>
      <trkpt lat="46.47479" lon="4.78071">
        <ele>275</ele>
      </trkpt>
      <trkpt lat="46.47476" lon="4.78084">
        <ele>274.2</ele>
      </trkpt>
      <trkpt lat="46.47472" lon="4.78101">
        <ele>273.3</ele>
      </trkpt>
      <trkpt lat="46.4746" lon="4.78141">
        <ele>271.1</ele>
      </trkpt>
      <trkpt lat="46.47456" lon="4.78157">
        <ele>270.6</ele>
      </trkpt>
      <trkpt lat="46.47451" lon="4.78174">
        <ele>269.9</ele>
      </trkpt>
      <trkpt lat="46.47446" lon="4.78188">
        <ele>269.2</ele>
      </trkpt>
      <trkpt lat="46.47441" lon="4.78201">
        <ele>268.2</ele>
      </trkpt>
      <trkpt lat="46.47436" lon="4.78212">
        <ele>267.2</ele>
      </trkpt>
      <trkpt lat="46.47432" lon="4.78219">
        <ele>266.7</ele>
      </trkpt>
      <trkpt lat="46.47429" lon="4.78225">
        <ele>266.4</ele>
      </trkpt>
      <trkpt lat="46.47428" lon="4.7823">
        <ele>266.1</ele>
      </trkpt>
      <trkpt lat="46.47428" lon="4.78237">
        <ele>265.9</ele>
      </trkpt>
      <trkpt lat="46.4743" lon="4.78244">
        <ele>265.7</ele>
      </trkpt>
      <trkpt lat="46.47433" lon="4.78253">
        <ele>265.6</ele>
      </trkpt>
      <trkpt lat="46.47437" lon="4.78262">
        <ele>265.7</ele>
      </trkpt>
      <trkpt lat="46.4744" lon="4.78269">
        <ele>265.8</ele>
      </trkpt>
      <trkpt lat="46.47442" lon="4.78276">
        <ele>265.9</ele>
      </trkpt>
      <trkpt lat="46.47442" lon="4.78283">
        <ele>265.9</ele>
      </trkpt>
      <trkpt lat="46.47442" lon="4.7829">
        <ele>265.9</ele>
      </trkpt>
      <trkpt lat="46.47441" lon="4.78298">
        <ele>265.8</ele>
      </trkpt>
      <trkpt lat="46.47439" lon="4.78307">
        <ele>265.6</ele>
      </trkpt>
      <trkpt lat="46.47436" lon="4.78318">
        <ele>265.1</ele>
      </trkpt>
      <trkpt lat="46.47429" lon="4.78333">
        <ele>264.4</ele>
      </trkpt>
      <trkpt lat="46.47412" lon="4.78364">
        <ele>263.8</ele>
      </trkpt>
      <trkpt lat="46.47407" lon="4.78374">
        <ele>263.4</ele>
      </trkpt>
      <trkpt lat="46.47384" lon="4.78414">
        <ele>263</ele>
      </trkpt>
      <trkpt lat="46.47348" lon="4.78477">
        <ele>262.6</ele>
      </trkpt>
      <trkpt lat="46.47332" lon="4.78504">
        <ele>264.1</ele>
      </trkpt>
      <trkpt lat="46.47327" lon="4.78514">
        <ele>264.5</ele>
      </trkpt>
      <trkpt lat="46.47317" lon="4.78532">
        <ele>266</ele>
      </trkpt>
      <trkpt lat="46.4731" lon="4.78545">
        <ele>267.6</ele>
      </trkpt>
      <trkpt lat="46.47308" lon="4.78552">
        <ele>268.4</ele>
      </trkpt>
      <trkpt lat="46.47307" lon="4.7856">
        <ele>268.9</ele>
      </trkpt>
      <trkpt lat="46.47307" lon="4.7857">
        <ele>269.3</ele>
      </trkpt>
      <trkpt lat="46.4731" lon="4.78584">
        <ele>269.6</ele>
      </trkpt>
      <trkpt lat="46.47328" lon="4.78643">
        <ele>273</ele>
      </trkpt>
      <trkpt lat="46.47354" lon="4.78729">
        <ele>278.5</ele>
      </trkpt>
      <trkpt lat="46.47363" lon="4.78755">
        <ele>280.1</ele>
      </trkpt>
      <trkpt lat="46.47365" lon="4.78764">
        <ele>280.6</ele>
      </trkpt>
      <trkpt lat="46.47365" lon="4.7877">
        <ele>281</ele>
      </trkpt>
      <trkpt lat="46.47364" lon="4.78773">
        <ele>281.4</ele>
      </trkpt>
      <trkpt lat="46.47363" lon="4.78777">
        <ele>281.8</ele>
      </trkpt>
      <trkpt lat="46.4736" lon="4.78778">
        <ele>282.2</ele>
      </trkpt>
      <trkpt lat="46.47358" lon="4.78778">
        <ele>282.5</ele>
      </trkpt>
      <trkpt lat="46.47355" lon="4.78777">
        <ele>282.8</ele>
      </trkpt>
      <trkpt lat="46.47347" lon="4.78769">
        <ele>283.5</ele>
      </trkpt>
      <trkpt lat="46.47323" lon="4.78746">
        <ele>284.3</ele>
      </trkpt>
      <trkpt lat="46.47307" lon="4.78729">
        <ele>285</ele>
      </trkpt>
      <trkpt lat="46.47303" lon="4.78726">
        <ele>285.3</ele>
      </trkpt>
      <trkpt lat="46.47299" lon="4.78724">
        <ele>285.5</ele>
      </trkpt>
      <trkpt lat="46.47295" lon="4.78721">
        <ele>285.7</ele>
      </trkpt>
      <trkpt lat="46.47291" lon="4.78719">
        <ele>285.8</ele>
      </trkpt>
      <trkpt lat="46.47287" lon="4.78719">
        <ele>286.1</ele>
      </trkpt>
      <trkpt lat="46.47283" lon="4.78719">
        <ele>286.5</ele>
      </trkpt>
      <trkpt lat="46.47277" lon="4.78721">
        <ele>287</ele>
      </trkpt>
      <trkpt lat="46.47273" lon="4.78723">
        <ele>287.4</ele>
      </trkpt>
      <trkpt lat="46.47267" lon="4.78729">
        <ele>288.1</ele>
      </trkpt>
      <trkpt lat="46.47261" lon="4.78738">
        <ele>288.8</ele>
      </trkpt>
      <trkpt lat="46.47253" lon="4.78754">
        <ele>289.8</ele>
      </trkpt>
      <trkpt lat="46.47246" lon="4.78771">
        <ele>290.1</ele>
      </trkpt>
      <trkpt lat="46.4724" lon="4.78781">
        <ele>290.5</ele>
      </trkpt>
      <trkpt lat="46.47233" lon="4.78796">
        <ele>291.3</ele>
      </trkpt>
      <trkpt lat="46.47214" lon="4.78834">
        <ele>293.3</ele>
      </trkpt>
      <trkpt lat="46.47205" lon="4.78852">
        <ele>294.3</ele>
      </trkpt>
      <trkpt lat="46.47198" lon="4.78864">
        <ele>294.8</ele>
      </trkpt>
      <trkpt lat="46.47181" lon="4.78889">
        <ele>294.5</ele>
      </trkpt>
      <trkpt lat="46.47171" lon="4.78903">
        <ele>294.9</ele>
      </trkpt>
      <trkpt lat="46.47143" lon="4.78947">
        <ele>294.8</ele>
      </trkpt>
      <trkpt lat="46.47135" lon="4.78955">
        <ele>294.5</ele>
      </trkpt>
      <trkpt lat="46.47134" lon="4.78957">
        <ele>294.5</ele>
      </trkpt>
      <trkpt lat="46.47119" lon="4.78976">
        <ele>293.9</ele>
      </trkpt>
      <trkpt lat="46.47105" lon="4.78997">
        <ele>292.9</ele>
      </trkpt>
      <trkpt lat="46.47097" lon="4.7901">
        <ele>292.5</ele>
      </trkpt>
      <trkpt lat="46.47091" lon="4.79021">
        <ele>292.3</ele>
      </trkpt>
      <trkpt lat="46.47086" lon="4.79037">
        <ele>291.7</ele>
      </trkpt>
      <trkpt lat="46.47079" lon="4.79059">
        <ele>290.4</ele>
      </trkpt>
      <trkpt lat="46.47073" lon="4.7908">
        <ele>289.3</ele>
      </trkpt>
      <trkpt lat="46.47067" lon="4.79103">
        <ele>288.2</ele>
      </trkpt>
      <trkpt lat="46.47061" lon="4.79127">
        <ele>288.9</ele>
      </trkpt>
      <trkpt lat="46.47058" lon="4.79129">
        <ele>289.2</ele>
      </trkpt>
      <trkpt lat="46.47056" lon="4.7913">
        <ele>289.3</ele>
      </trkpt>
      <trkpt lat="46.47054" lon="4.7913">
        <ele>289.4</ele>
      </trkpt>
      <trkpt lat="46.47048" lon="4.79136">
        <ele>289.8</ele>
      </trkpt>
      <trkpt lat="46.47019" lon="4.79162">
        <ele>292</ele>
      </trkpt>
      <trkpt lat="46.47004" lon="4.79146">
        <ele>291.4</ele>
      </trkpt>
      <trkpt lat="46.46998" lon="4.79137">
        <ele>290.9</ele>
      </trkpt>
      <trkpt lat="46.46992" lon="4.79127">
        <ele>290.5</ele>
      </trkpt>
      <trkpt lat="46.4698" lon="4.79106">
        <ele>290.1</ele>
      </trkpt>
      <trkpt lat="46.46975" lon="4.791">
        <ele>290.1</ele>
      </trkpt>
      <trkpt lat="46.4697" lon="4.79092">
        <ele>289.6</ele>
      </trkpt>
      <trkpt lat="46.46965" lon="4.79083">
        <ele>289.2</ele>
      </trkpt>
      <trkpt lat="46.46953" lon="4.79057">
        <ele>288.7</ele>
      </trkpt>
      <trkpt lat="46.46948" lon="4.79048">
        <ele>288.6</ele>
      </trkpt>
      <trkpt lat="46.46942" lon="4.79032">
        <ele>288.4</ele>
      </trkpt>
      <trkpt lat="46.46935" lon="4.79014">
        <ele>289.2</ele>
      </trkpt>
      <trkpt lat="46.4693" lon="4.79">
        <ele>290.1</ele>
      </trkpt>
      <trkpt lat="46.46926" lon="4.78986">
        <ele>290.8</ele>
      </trkpt>
      <trkpt lat="46.46916" lon="4.78948">
        <ele>292.1</ele>
      </trkpt>
      <trkpt lat="46.46903" lon="4.78911">
        <ele>293</ele>
      </trkpt>
      <trkpt lat="46.46887" lon="4.78869">
        <ele>294.7</ele>
      </trkpt>
      <trkpt lat="46.4688" lon="4.78841">
        <ele>296.1</ele>
      </trkpt>
      <trkpt lat="46.46874" lon="4.78824">
        <ele>297.2</ele>
      </trkpt>
      <trkpt lat="46.46864" lon="4.78805">
        <ele>298.6</ele>
      </trkpt>
      <trkpt lat="46.46851" lon="4.78783">
        <ele>300.4</ele>
      </trkpt>
      <trkpt lat="46.46845" lon="4.78775">
        <ele>301.3</ele>
      </trkpt>
      <trkpt lat="46.4683" lon="4.78756">
        <ele>302.4</ele>
      </trkpt>
      <trkpt lat="46.46814" lon="4.78738">
        <ele>302.9</ele>
      </trkpt>
      <trkpt lat="46.46796" lon="4.7872">
        <ele>302.8</ele>
      </trkpt>
      <trkpt lat="46.4678" lon="4.78707">
        <ele>302.4</ele>
      </trkpt>
      <trkpt lat="46.46767" lon="4.78696">
        <ele>302.4</ele>
      </trkpt>
      <trkpt lat="46.46757" lon="4.78688">
        <ele>302.5</ele>
      </trkpt>
      <trkpt lat="46.46743" lon="4.78671">
        <ele>302.4</ele>
      </trkpt>
      <trkpt lat="46.46734" lon="4.78657">
        <ele>302.2</ele>
      </trkpt>
      <trkpt lat="46.46724" lon="4.78637">
        <ele>301.8</ele>
      </trkpt>
      <trkpt lat="46.4672" lon="4.7863">
        <ele>301.4</ele>
      </trkpt>
      <trkpt lat="46.46713" lon="4.7862">
        <ele>300.8</ele>
      </trkpt>
      <trkpt lat="46.46704" lon="4.78611">
        <ele>300.6</ele>
      </trkpt>
      <trkpt lat="46.46691" lon="4.78601">
        <ele>299.7</ele>
      </trkpt>
      <trkpt lat="46.46678" lon="4.78589">
        <ele>299.4</ele>
      </trkpt>
      <trkpt lat="46.46666" lon="4.78577">
        <ele>299.4</ele>
      </trkpt>
      <trkpt lat="46.46654" lon="4.78563">
        <ele>299.1</ele>
      </trkpt>
      <trkpt lat="46.46646" lon="4.78552">
        <ele>299.1</ele>
      </trkpt>
      <trkpt lat="46.46643" lon="4.78547">
        <ele>299</ele>
      </trkpt>
      <trkpt lat="46.46643" lon="4.78541">
        <ele>298.7</ele>
      </trkpt>
      <trkpt lat="46.46643" lon="4.78535">
        <ele>298.3</ele>
      </trkpt>
      <trkpt lat="46.46645" lon="4.78523">
        <ele>297.7</ele>
      </trkpt>
      <trkpt lat="46.46676" lon="4.7844">
        <ele>300</ele>
      </trkpt>
      <trkpt lat="46.46714" lon="4.78332">
        <ele>301</ele>
      </trkpt>
      <trkpt lat="46.46753" lon="4.7822">
        <ele>298.9</ele>
      </trkpt>
      <trkpt lat="46.4676" lon="4.78201">
        <ele>298.5</ele>
      </trkpt>
      <trkpt lat="46.46763" lon="4.78187">
        <ele>298.3</ele>
      </trkpt>
      <trkpt lat="46.46744" lon="4.78173">
        <ele>298</ele>
      </trkpt>
      <trkpt lat="46.46667" lon="4.78111">
        <ele>297</ele>
      </trkpt>
      <trkpt lat="46.46604" lon="4.7806">
        <ele>296.2</ele>
      </trkpt>
      <trkpt lat="46.46587" lon="4.78045">
        <ele>295.9</ele>
      </trkpt>
      <trkpt lat="46.46583" lon="4.78041">
        <ele>296</ele>
      </trkpt>
      <trkpt lat="46.46579" lon="4.78034">
        <ele>296</ele>
      </trkpt>
      <trkpt lat="46.46573" lon="4.78023">
        <ele>295.8</ele>
      </trkpt>
      <trkpt lat="46.46566" lon="4.78034">
        <ele>296.1</ele>
      </trkpt>
      <trkpt lat="46.46552" lon="4.78058">
        <ele>296.9</ele>
      </trkpt>
      <trkpt lat="46.46543" lon="4.78077">
        <ele>296.9</ele>
      </trkpt>
      <trkpt lat="46.46532" lon="4.78097">
        <ele>297</ele>
      </trkpt>
      <trkpt lat="46.46497" lon="4.78161">
        <ele>297.7</ele>
      </trkpt>
      <trkpt lat="46.46474" lon="4.78202">
        <ele>298</ele>
      </trkpt>
      <trkpt lat="46.46467" lon="4.78213">
        <ele>298</ele>
      </trkpt>
      <trkpt lat="46.46454" lon="4.78231">
        <ele>297.8</ele>
      </trkpt>
      <trkpt lat="46.46427" lon="4.78267">
        <ele>296.6</ele>
      </trkpt>
      <trkpt lat="46.46397" lon="4.78307">
        <ele>295</ele>
      </trkpt>
      <trkpt lat="46.46389" lon="4.78317">
        <ele>294.6</ele>
      </trkpt>
      <trkpt lat="46.46375" lon="4.78334">
        <ele>293.5</ele>
      </trkpt>
      <trkpt lat="46.4636" lon="4.78351">
        <ele>293</ele>
      </trkpt>
      <trkpt lat="46.46353" lon="4.78358">
        <ele>292.7</ele>
      </trkpt>
      <trkpt lat="46.46345" lon="4.78365">
        <ele>292.5</ele>
      </trkpt>
      <trkpt lat="46.4632" lon="4.78385">
        <ele>292.4</ele>
      </trkpt>
      <trkpt lat="46.46304" lon="4.784">
        <ele>292.8</ele>
      </trkpt>
      <trkpt lat="46.46299" lon="4.78403">
        <ele>292.9</ele>
      </trkpt>
      <trkpt lat="46.46284" lon="4.78416">
        <ele>293.2</ele>
      </trkpt>
      <trkpt lat="46.46255" lon="4.78439">
        <ele>294.7</ele>
      </trkpt>
      <trkpt lat="46.46237" lon="4.78456">
        <ele>294.9</ele>
      </trkpt>
      <trkpt lat="46.4622" lon="4.78473">
        <ele>295.9</ele>
      </trkpt>
      <trkpt lat="46.46209" lon="4.78485">
        <ele>295.7</ele>
      </trkpt>
      <trkpt lat="46.462" lon="4.78499">
        <ele>296.2</ele>
      </trkpt>
      <trkpt lat="46.46196" lon="4.78506">
        <ele>296.5</ele>
      </trkpt>
      <trkpt lat="46.4619" lon="4.78525">
        <ele>297.6</ele>
      </trkpt>
      <trkpt lat="46.46186" lon="4.78544">
        <ele>298.7</ele>
      </trkpt>
      <trkpt lat="46.46181" lon="4.78571">
        <ele>299.8</ele>
      </trkpt>
      <trkpt lat="46.4617" lon="4.7857">
        <ele>299.2</ele>
      </trkpt>
      <trkpt lat="46.46159" lon="4.78568">
        <ele>298.5</ele>
      </trkpt>
      <trkpt lat="46.46149" lon="4.78562">
        <ele>297.3</ele>
      </trkpt>
      <trkpt lat="46.46139" lon="4.78557">
        <ele>296.1</ele>
      </trkpt>
      <trkpt lat="46.46127" lon="4.78545">
        <ele>295.2</ele>
      </trkpt>
      <trkpt lat="46.46125" lon="4.78542">
        <ele>295</ele>
      </trkpt>
      <trkpt lat="46.4612" lon="4.78535">
        <ele>294.6</ele>
      </trkpt>
      <trkpt lat="46.46118" lon="4.78527">
        <ele>294.2</ele>
      </trkpt>
      <trkpt lat="46.46118" lon="4.7852">
        <ele>293.7</ele>
      </trkpt>
      <trkpt lat="46.46119" lon="4.78499">
        <ele>292.5</ele>
      </trkpt>
      <trkpt lat="46.46125" lon="4.78468">
        <ele>290.9</ele>
      </trkpt>
      <trkpt lat="46.46132" lon="4.78413">
        <ele>288.6</ele>
      </trkpt>
      <trkpt lat="46.46135" lon="4.78387">
        <ele>287.8</ele>
      </trkpt>
      <trkpt lat="46.4614" lon="4.78362">
        <ele>287</ele>
      </trkpt>
      <trkpt lat="46.46148" lon="4.78325">
        <ele>286.1</ele>
      </trkpt>
      <trkpt lat="46.46138" lon="4.78318">
        <ele>285.4</ele>
      </trkpt>
      <trkpt lat="46.46119" lon="4.78309">
        <ele>285</ele>
      </trkpt>
      <trkpt lat="46.46096" lon="4.78296">
        <ele>285.6</ele>
      </trkpt>
      <trkpt lat="46.46068" lon="4.7828">
        <ele>286.6</ele>
      </trkpt>
      <trkpt lat="46.46056" lon="4.78273">
        <ele>286.8</ele>
      </trkpt>
      <trkpt lat="46.46047" lon="4.78267">
        <ele>287.5</ele>
      </trkpt>
      <trkpt lat="46.46035" lon="4.78257">
        <ele>288.4</ele>
      </trkpt>
      <trkpt lat="46.46017" lon="4.78231">
        <ele>289.2</ele>
      </trkpt>
      <trkpt lat="46.46012" lon="4.78224">
        <ele>289.3</ele>
      </trkpt>
      <trkpt lat="46.46001" lon="4.78203">
        <ele>289.5</ele>
      </trkpt>
      <trkpt lat="46.45997" lon="4.78192">
        <ele>289.1</ele>
      </trkpt>
      <trkpt lat="46.45992" lon="4.78176">
        <ele>288.6</ele>
      </trkpt>
      <trkpt lat="46.45984" lon="4.78165">
        <ele>288.6</ele>
      </trkpt>
      <trkpt lat="46.45965" lon="4.78147">
        <ele>288.5</ele>
      </trkpt>
      <trkpt lat="46.45946" lon="4.78128">
        <ele>288.6</ele>
      </trkpt>
      <trkpt lat="46.4593" lon="4.78116">
        <ele>288.4</ele>
      </trkpt>
      <trkpt lat="46.45908" lon="4.78096">
        <ele>287.6</ele>
      </trkpt>
      <trkpt lat="46.45885" lon="4.78079">
        <ele>286.7</ele>
      </trkpt>
      <trkpt lat="46.45864" lon="4.78062">
        <ele>285.6</ele>
      </trkpt>
      <trkpt lat="46.45853" lon="4.7805">
        <ele>284.5</ele>
      </trkpt>
      <trkpt lat="46.45851" lon="4.78043">
        <ele>283.9</ele>
      </trkpt>
      <trkpt lat="46.45851" lon="4.78035">
        <ele>283.2</ele>
      </trkpt>
      <trkpt lat="46.45853" lon="4.78025">
        <ele>282.6</ele>
      </trkpt>
      <trkpt lat="46.45856" lon="4.78007">
        <ele>282.1</ele>
      </trkpt>
      <trkpt lat="46.45859" lon="4.77989">
        <ele>281.9</ele>
      </trkpt>
      <trkpt lat="46.4586" lon="4.77979">
        <ele>282</ele>
      </trkpt>
      <trkpt lat="46.45858" lon="4.77973">
        <ele>281.9</ele>
      </trkpt>
      <trkpt lat="46.45854" lon="4.7797">
        <ele>281.9</ele>
      </trkpt>
      <trkpt lat="46.45839" lon="4.77967">
        <ele>281.7</ele>
      </trkpt>
      <trkpt lat="46.45814" lon="4.77962">
        <ele>281.4</ele>
      </trkpt>
      <trkpt lat="46.45796" lon="4.77958">
        <ele>281.4</ele>
      </trkpt>
      <trkpt lat="46.45785" lon="4.77953">
        <ele>281.6</ele>
      </trkpt>
      <trkpt lat="46.45771" lon="4.77941">
        <ele>282</ele>
      </trkpt>
      <trkpt lat="46.45757" lon="4.7793">
        <ele>281.9</ele>
      </trkpt>
      <trkpt lat="46.45747" lon="4.77922">
        <ele>281.7</ele>
      </trkpt>
      <trkpt lat="46.45736" lon="4.77923">
        <ele>281.1</ele>
      </trkpt>
      <trkpt lat="46.45723" lon="4.77921">
        <ele>280.6</ele>
      </trkpt>
      <trkpt lat="46.45704" lon="4.7792">
        <ele>279.5</ele>
      </trkpt>
      <trkpt lat="46.4569" lon="4.77924">
        <ele>278.6</ele>
      </trkpt>
      <trkpt lat="46.45679" lon="4.77929">
        <ele>278.3</ele>
      </trkpt>
      <trkpt lat="46.45651" lon="4.77937">
        <ele>277.4</ele>
      </trkpt>
      <trkpt lat="46.45642" lon="4.77938">
        <ele>277.1</ele>
      </trkpt>
      <trkpt lat="46.45626" lon="4.7794">
        <ele>276.5</ele>
      </trkpt>
      <trkpt lat="46.45608" lon="4.77937">
        <ele>275.9</ele>
      </trkpt>
      <trkpt lat="46.45595" lon="4.77935">
        <ele>275.8</ele>
      </trkpt>
      <trkpt lat="46.4558" lon="4.77931">
        <ele>276.1</ele>
      </trkpt>
      <trkpt lat="46.45562" lon="4.77925">
        <ele>276.6</ele>
      </trkpt>
      <trkpt lat="46.4555" lon="4.77922">
        <ele>276.9</ele>
      </trkpt>
      <trkpt lat="46.45557" lon="4.77912">
        <ele>277.2</ele>
      </trkpt>
      <trkpt lat="46.4557" lon="4.77891">
        <ele>277.9</ele>
      </trkpt>
      <trkpt lat="46.45581" lon="4.77869">
        <ele>278.1</ele>
      </trkpt>
      <trkpt lat="46.45592" lon="4.77846">
        <ele>278.5</ele>
      </trkpt>
      <trkpt lat="46.45601" lon="4.77829">
        <ele>279.2</ele>
      </trkpt>
      <trkpt lat="46.45615" lon="4.77797">
        <ele>280.2</ele>
      </trkpt>
      <trkpt lat="46.4563" lon="4.77767">
        <ele>280.9</ele>
      </trkpt>
      <trkpt lat="46.45646" lon="4.77745">
        <ele>281.8</ele>
      </trkpt>
      <trkpt lat="46.45656" lon="4.77735">
        <ele>281.7</ele>
      </trkpt>
      <trkpt lat="46.45665" lon="4.77726">
        <ele>281.9</ele>
      </trkpt>
      <trkpt lat="46.45679" lon="4.77718">
        <ele>281.6</ele>
      </trkpt>
      <trkpt lat="46.45696" lon="4.77708">
        <ele>281.5</ele>
      </trkpt>
      <trkpt lat="46.45721" lon="4.77694">
        <ele>281</ele>
      </trkpt>
      <trkpt lat="46.45731" lon="4.77688">
        <ele>281</ele>
      </trkpt>
      <trkpt lat="46.45737" lon="4.77683">
        <ele>281</ele>
      </trkpt>
      <trkpt lat="46.45742" lon="4.77678">
        <ele>281</ele>
      </trkpt>
      <trkpt lat="46.45753" lon="4.77666">
        <ele>281</ele>
      </trkpt>
      <trkpt lat="46.45756" lon="4.77662">
        <ele>281</ele>
      </trkpt>
      <trkpt lat="46.45769" lon="4.77646">
        <ele>280.5</ele>
      </trkpt>
      <trkpt lat="46.45768" lon="4.77628">
        <ele>280</ele>
      </trkpt>
      <trkpt lat="46.45767" lon="4.77608">
        <ele>279.4</ele>
      </trkpt>
      <trkpt lat="46.45767" lon="4.7757">
        <ele>278.9</ele>
      </trkpt>
      <trkpt lat="46.45767" lon="4.77528">
        <ele>277</ele>
      </trkpt>
      <trkpt lat="46.45766" lon="4.77492">
        <ele>274.6</ele>
      </trkpt>
      <trkpt lat="46.45765" lon="4.77461">
        <ele>272.9</ele>
      </trkpt>
      <trkpt lat="46.45765" lon="4.77435">
        <ele>271.8</ele>
      </trkpt>
      <trkpt lat="46.45766" lon="4.7741">
        <ele>271.4</ele>
      </trkpt>
      <trkpt lat="46.45769" lon="4.77381">
        <ele>271.3</ele>
      </trkpt>
      <trkpt lat="46.45774" lon="4.77348">
        <ele>272.9</ele>
      </trkpt>
      <trkpt lat="46.4578" lon="4.7731">
        <ele>274.9</ele>
      </trkpt>
      <trkpt lat="46.45781" lon="4.77301">
        <ele>275.2</ele>
      </trkpt>
      <trkpt lat="46.45783" lon="4.77291">
        <ele>275.5</ele>
      </trkpt>
      <trkpt lat="46.45784" lon="4.7728">
        <ele>275.9</ele>
      </trkpt>
      <trkpt lat="46.45785" lon="4.77256">
        <ele>276.8</ele>
      </trkpt>
      <trkpt lat="46.45786" lon="4.77233">
        <ele>277.6</ele>
      </trkpt>
      <trkpt lat="46.45789" lon="4.77203">
        <ele>278.7</ele>
      </trkpt>
      <trkpt lat="46.4579" lon="4.77191">
        <ele>279.1</ele>
      </trkpt>
      <trkpt lat="46.45793" lon="4.77153">
        <ele>280</ele>
      </trkpt>
      <trkpt lat="46.45786" lon="4.77141">
        <ele>280</ele>
      </trkpt>
      <trkpt lat="46.4578" lon="4.77124">
        <ele>280.5</ele>
      </trkpt>
      <trkpt lat="46.45779" lon="4.77119">
        <ele>280.7</ele>
      </trkpt>
      <trkpt lat="46.45779" lon="4.77108">
        <ele>281</ele>
      </trkpt>
      <trkpt lat="46.45782" lon="4.77086">
        <ele>281</ele>
      </trkpt>
      <trkpt lat="46.45787" lon="4.7706">
        <ele>281.8</ele>
      </trkpt>
      <trkpt lat="46.45789" lon="4.77048">
        <ele>281.8</ele>
      </trkpt>
      <trkpt lat="46.4579" lon="4.77042">
        <ele>281.7</ele>
      </trkpt>
      <trkpt lat="46.45796" lon="4.77027">
        <ele>281.6</ele>
      </trkpt>
      <trkpt lat="46.45806" lon="4.76998">
        <ele>282</ele>
      </trkpt>
      <trkpt lat="46.45814" lon="4.76975">
        <ele>282.3</ele>
      </trkpt>
      <trkpt lat="46.4582" lon="4.76954">
        <ele>282.9</ele>
      </trkpt>
      <trkpt lat="46.45826" lon="4.76929">
        <ele>284</ele>
      </trkpt>
      <trkpt lat="46.45834" lon="4.76897">
        <ele>285</ele>
      </trkpt>
      <trkpt lat="46.4584" lon="4.7688">
        <ele>285.5</ele>
      </trkpt>
      <trkpt lat="46.45845" lon="4.76864">
        <ele>286.3</ele>
      </trkpt>
      <trkpt lat="46.45847" lon="4.76858">
        <ele>286.7</ele>
      </trkpt>
      <trkpt lat="46.45849" lon="4.76852">
        <ele>287.1</ele>
      </trkpt>
      <trkpt lat="46.45872" lon="4.76789">
        <ele>291.9</ele>
      </trkpt>
      <trkpt lat="46.4589" lon="4.76743">
        <ele>296.8</ele>
      </trkpt>
      <trkpt lat="46.45899" lon="4.76718">
        <ele>300.3</ele>
      </trkpt>
      <trkpt lat="46.45904" lon="4.76708">
        <ele>301.6</ele>
      </trkpt>
      <trkpt lat="46.45911" lon="4.767">
        <ele>302.6</ele>
      </trkpt>
      <trkpt lat="46.45933" lon="4.76682">
        <ele>307</ele>
      </trkpt>
      <trkpt lat="46.45947" lon="4.76673">
        <ele>309.3</ele>
      </trkpt>
      <trkpt lat="46.45955" lon="4.7667">
        <ele>310.6</ele>
      </trkpt>
      <trkpt lat="46.45964" lon="4.7667">
        <ele>311.6</ele>
      </trkpt>
      <trkpt lat="46.45972" lon="4.7667">
        <ele>312.3</ele>
      </trkpt>
      <trkpt lat="46.45988" lon="4.76673">
        <ele>313.9</ele>
      </trkpt>
      <trkpt lat="46.45995" lon="4.76674">
        <ele>314.8</ele>
      </trkpt>
      <trkpt lat="46.46004" lon="4.76673">
        <ele>316.1</ele>
      </trkpt>
      <trkpt lat="46.46017" lon="4.7667">
        <ele>318.2</ele>
      </trkpt>
      <trkpt lat="46.46024" lon="4.76668">
        <ele>319.4</ele>
      </trkpt>
      <trkpt lat="46.46038" lon="4.76661">
        <ele>321.9</ele>
      </trkpt>
      <trkpt lat="46.46011" lon="4.76638">
        <ele>322.9</ele>
      </trkpt>
      <trkpt lat="46.45998" lon="4.76631">
        <ele>323.3</ele>
      </trkpt>
      <trkpt lat="46.45971" lon="4.76616">
        <ele>324</ele>
      </trkpt>
      <trkpt lat="46.45927" lon="4.76592">
        <ele>324.5</ele>
      </trkpt>
      <trkpt lat="46.45925" lon="4.76591">
        <ele>324.5</ele>
      </trkpt>
      <trkpt lat="46.45861" lon="4.76563">
        <ele>323.4</ele>
      </trkpt>
      <trkpt lat="46.45814" lon="4.76545">
        <ele>323</ele>
      </trkpt>
      <trkpt lat="46.4575" lon="4.76517">
        <ele>322.4</ele>
      </trkpt>
      <trkpt lat="46.4573" lon="4.7651">
        <ele>322.1</ele>
      </trkpt>
      <trkpt lat="46.45716" lon="4.76509">
        <ele>321.7</ele>
      </trkpt>
      <trkpt lat="46.45708" lon="4.76509">
        <ele>321.6</ele>
      </trkpt>
      <trkpt lat="46.45697" lon="4.76509">
        <ele>321.6</ele>
      </trkpt>
      <trkpt lat="46.4569" lon="4.76507">
        <ele>321.4</ele>
      </trkpt>
      <trkpt lat="46.45683" lon="4.76503">
        <ele>321.5</ele>
      </trkpt>
      <trkpt lat="46.45676" lon="4.765">
        <ele>321.4</ele>
      </trkpt>
      <trkpt lat="46.45648" lon="4.76485">
        <ele>322.3</ele>
      </trkpt>
      <trkpt lat="46.45618" lon="4.76474">
        <ele>323.1</ele>
      </trkpt>
      <trkpt lat="46.45582" lon="4.76458">
        <ele>324.9</ele>
      </trkpt>
      <trkpt lat="46.45562" lon="4.76449">
        <ele>326.4</ele>
      </trkpt>
      <trkpt lat="46.45546" lon="4.7644">
        <ele>326.7</ele>
      </trkpt>
      <trkpt lat="46.45517" lon="4.76423">
        <ele>327.4</ele>
      </trkpt>
      <trkpt lat="46.45512" lon="4.76418">
        <ele>328.1</ele>
      </trkpt>
      <trkpt lat="46.45532" lon="4.76418">
        <ele>329</ele>
      </trkpt>
      <trkpt lat="46.45522" lon="4.76408">
        <ele>330</ele>
      </trkpt>
      <trkpt lat="46.45514" lon="4.76408">
        <ele>330</ele>
      </trkpt>
      <trkpt lat="46.45508" lon="4.76407">
        <ele>330</ele>
      </trkpt>
      <trkpt lat="46.45495" lon="4.76401">
        <ele>330.4</ele>
      </trkpt>
      <trkpt lat="46.45483" lon="4.76396">
        <ele>330.7</ele>
      </trkpt>
      <trkpt lat="46.45469" lon="4.76391">
        <ele>331.1</ele>
      </trkpt>
      <trkpt lat="46.45458" lon="4.76388">
        <ele>330.7</ele>
      </trkpt>
      <trkpt lat="46.45427" lon="4.76381">
        <ele>329.2</ele>
      </trkpt>
      <trkpt lat="46.45395" lon="4.76375">
        <ele>327.6</ele>
      </trkpt>
      <trkpt lat="46.45378" lon="4.76371">
        <ele>327.5</ele>
      </trkpt>
      <trkpt lat="46.45359" lon="4.76367">
        <ele>327.9</ele>
      </trkpt>
      <trkpt lat="46.45343" lon="4.76365">
        <ele>328.9</ele>
      </trkpt>
      <trkpt lat="46.45335" lon="4.76362">
        <ele>329.7</ele>
      </trkpt>
      <trkpt lat="46.45324" lon="4.76356">
        <ele>330.3</ele>
      </trkpt>
      <trkpt lat="46.45308" lon="4.76347">
        <ele>331.1</ele>
      </trkpt>
      <trkpt lat="46.45297" lon="4.76342">
        <ele>332</ele>
      </trkpt>
      <trkpt lat="46.45288" lon="4.76339">
        <ele>332.4</ele>
      </trkpt>
      <trkpt lat="46.45269" lon="4.76335">
        <ele>332.4</ele>
      </trkpt>
      <trkpt lat="46.45249" lon="4.76332">
        <ele>332.3</ele>
      </trkpt>
      <trkpt lat="46.45239" lon="4.76329">
        <ele>332.7</ele>
      </trkpt>
      <trkpt lat="46.45219" lon="4.76321">
        <ele>333.7</ele>
      </trkpt>
      <trkpt lat="46.45205" lon="4.76315">
        <ele>334.6</ele>
      </trkpt>
      <trkpt lat="46.45173" lon="4.76306">
        <ele>336</ele>
      </trkpt>
      <trkpt lat="46.45147" lon="4.763">
        <ele>337</ele>
      </trkpt>
      <trkpt lat="46.45139" lon="4.763">
        <ele>337</ele>
      </trkpt>
      <trkpt lat="46.45121" lon="4.76299">
        <ele>336.5</ele>
      </trkpt>
      <trkpt lat="46.45093" lon="4.76299">
        <ele>335.6</ele>
      </trkpt>
      <trkpt lat="46.45074" lon="4.76297">
        <ele>335</ele>
      </trkpt>
      <trkpt lat="46.45062" lon="4.76296">
        <ele>334.5</ele>
      </trkpt>
      <trkpt lat="46.45055" lon="4.76294">
        <ele>334.5</ele>
      </trkpt>
      <trkpt lat="46.45041" lon="4.7629">
        <ele>334.6</ele>
      </trkpt>
      <trkpt lat="46.44986" lon="4.76249">
        <ele>337.1</ele>
      </trkpt>
      <trkpt lat="46.44944" lon="4.76227">
        <ele>336.9</ele>
      </trkpt>
      <trkpt lat="46.44899" lon="4.76205">
        <ele>334</ele>
      </trkpt>
      <trkpt lat="46.4486" lon="4.76185">
        <ele>330.7</ele>
      </trkpt>
      <trkpt lat="46.44844" lon="4.76178">
        <ele>330.6</ele>
      </trkpt>
      <trkpt lat="46.44831" lon="4.7619">
        <ele>328.9</ele>
      </trkpt>
      <trkpt lat="46.44827" lon="4.76214">
        <ele>326.5</ele>
      </trkpt>
      <trkpt lat="46.44851" lon="4.76249">
        <ele>321.8</ele>
      </trkpt>
      <trkpt lat="46.44882" lon="4.76304">
        <ele>316.3</ele>
      </trkpt>
      <trkpt lat="46.44898" lon="4.76349">
        <ele>312.4</ele>
      </trkpt>
      <trkpt lat="46.44903" lon="4.76406">
        <ele>306.9</ele>
      </trkpt>
      <trkpt lat="46.44913" lon="4.76445">
        <ele>304.3</ele>
      </trkpt>
      <trkpt lat="46.44913" lon="4.76454">
        <ele>303.8</ele>
      </trkpt>
      <trkpt lat="46.44914" lon="4.76465">
        <ele>302.9</ele>
      </trkpt>
      <trkpt lat="46.44916" lon="4.76476">
        <ele>302.2</ele>
      </trkpt>
      <trkpt lat="46.4492" lon="4.76487">
        <ele>302.2</ele>
      </trkpt>
      <trkpt lat="46.44925" lon="4.76495">
        <ele>301.8</ele>
      </trkpt>
      <trkpt lat="46.44932" lon="4.76513">
        <ele>300.1</ele>
      </trkpt>
      <trkpt lat="46.44938" lon="4.76527">
        <ele>298.2</ele>
      </trkpt>
      <trkpt lat="46.44944" lon="4.76541">
        <ele>297.1</ele>
      </trkpt>
      <trkpt lat="46.44952" lon="4.7656">
        <ele>296.2</ele>
      </trkpt>
      <trkpt lat="46.44959" lon="4.76575">
        <ele>294.9</ele>
      </trkpt>
      <trkpt lat="46.44964" lon="4.76587">
        <ele>294</ele>
      </trkpt>
      <trkpt lat="46.44968" lon="4.766">
        <ele>293</ele>
      </trkpt>
      <trkpt lat="46.44974" lon="4.76623">
        <ele>290.9</ele>
      </trkpt>
      <trkpt lat="46.44978" lon="4.76633">
        <ele>289.9</ele>
      </trkpt>
      <trkpt lat="46.44984" lon="4.76643">
        <ele>288.7</ele>
      </trkpt>
      <trkpt lat="46.44989" lon="4.76663">
        <ele>286.4</ele>
      </trkpt>
      <trkpt lat="46.44991" lon="4.76671">
        <ele>285.7</ele>
      </trkpt>
      <trkpt lat="46.44984" lon="4.76668">
        <ele>285.9</ele>
      </trkpt>
      <trkpt lat="46.44977" lon="4.76661">
        <ele>286.8</ele>
      </trkpt>
      <trkpt lat="46.44965" lon="4.76651">
        <ele>288.1</ele>
      </trkpt>
      <trkpt lat="46.44959" lon="4.76644">
        <ele>289.1</ele>
      </trkpt>
      <trkpt lat="46.44954" lon="4.76634">
        <ele>290.5</ele>
      </trkpt>
      <trkpt lat="46.44942" lon="4.76611">
        <ele>293</ele>
      </trkpt>
      <trkpt lat="46.44937" lon="4.76602">
        <ele>293.8</ele>
      </trkpt>
      <trkpt lat="46.44932" lon="4.76586">
        <ele>295.2</ele>
      </trkpt>
      <trkpt lat="46.4493" lon="4.76566">
        <ele>297.1</ele>
      </trkpt>
      <trkpt lat="46.44927" lon="4.76554">
        <ele>298.4</ele>
      </trkpt>
      <trkpt lat="46.44924" lon="4.76546">
        <ele>299.3</ele>
      </trkpt>
      <trkpt lat="46.44916" lon="4.76538">
        <ele>300.9</ele>
      </trkpt>
      <trkpt lat="46.44908" lon="4.76529">
        <ele>302.5</ele>
      </trkpt>
      <trkpt lat="46.44903" lon="4.76525">
        <ele>303.2</ele>
      </trkpt>
      <trkpt lat="46.44899" lon="4.76517">
        <ele>303.9</ele>
      </trkpt>
      <trkpt lat="46.44892" lon="4.7651">
        <ele>305</ele>
      </trkpt>
      <trkpt lat="46.44884" lon="4.76507">
        <ele>306</ele>
      </trkpt>
      <trkpt lat="46.44875" lon="4.76506">
        <ele>306.9</ele>
      </trkpt>
      <trkpt lat="46.44863" lon="4.76503">
        <ele>308.4</ele>
      </trkpt>
      <trkpt lat="46.44857" lon="4.76503">
        <ele>308.9</ele>
      </trkpt>
      <trkpt lat="46.44838" lon="4.76496">
        <ele>311.2</ele>
      </trkpt>
      <trkpt lat="46.44828" lon="4.76495">
        <ele>311.8</ele>
      </trkpt>
      <trkpt lat="46.44817" lon="4.7649">
        <ele>312.7</ele>
      </trkpt>
      <trkpt lat="46.44791" lon="4.76477">
        <ele>314.6</ele>
      </trkpt>
      <trkpt lat="46.44773" lon="4.7647">
        <ele>315.6</ele>
      </trkpt>
      <trkpt lat="46.44757" lon="4.76461">
        <ele>317.5</ele>
      </trkpt>
      <trkpt lat="46.44753" lon="4.76458">
        <ele>318.1</ele>
      </trkpt>
      <trkpt lat="46.44722" lon="4.76435">
        <ele>322.3</ele>
      </trkpt>
      <trkpt lat="46.4467" lon="4.76391">
        <ele>327.1</ele>
      </trkpt>
      <trkpt lat="46.44616" lon="4.76353">
        <ele>331.1</ele>
      </trkpt>
      <trkpt lat="46.4459" lon="4.76335">
        <ele>332.6</ele>
      </trkpt>
      <trkpt lat="46.4457" lon="4.76322">
        <ele>333.4</ele>
      </trkpt>
      <trkpt lat="46.44532" lon="4.7631">
        <ele>331.6</ele>
      </trkpt>
      <trkpt lat="46.44523" lon="4.76313">
        <ele>329.9</ele>
      </trkpt>
      <trkpt lat="46.44513" lon="4.76317">
        <ele>328</ele>
      </trkpt>
      <trkpt lat="46.44505" lon="4.76314">
        <ele>327.7</ele>
      </trkpt>
      <trkpt lat="46.44498" lon="4.76307">
        <ele>328.6</ele>
      </trkpt>
      <trkpt lat="46.44486" lon="4.76297">
        <ele>329</ele>
      </trkpt>
      <trkpt lat="46.44475" lon="4.76295">
        <ele>328.1</ele>
      </trkpt>
      <trkpt lat="46.44471" lon="4.76288">
        <ele>329.2</ele>
      </trkpt>
      <trkpt lat="46.44429" lon="4.76284">
        <ele>325.9</ele>
      </trkpt>
      <trkpt lat="46.44417" lon="4.76276">
        <ele>326.3</ele>
      </trkpt>
      <trkpt lat="46.44384" lon="4.76265">
        <ele>323.6</ele>
      </trkpt>
      <trkpt lat="46.44337" lon="4.76252">
        <ele>319.2</ele>
      </trkpt>
      <trkpt lat="46.44316" lon="4.76245">
        <ele>318.1</ele>
      </trkpt>
      <trkpt lat="46.44301" lon="4.76239">
        <ele>317.4</ele>
      </trkpt>
      <trkpt lat="46.44295" lon="4.76237">
        <ele>317.1</ele>
      </trkpt>
      <trkpt lat="46.44285" lon="4.76238">
        <ele>315.5</ele>
      </trkpt>
      <trkpt lat="46.44274" lon="4.7624">
        <ele>313.7</ele>
      </trkpt>
      <trkpt lat="46.44229" lon="4.76229">
        <ele>310.8</ele>
      </trkpt>
      <trkpt lat="46.44223" lon="4.76232">
        <ele>309.5</ele>
      </trkpt>
      <trkpt lat="46.44217" lon="4.76233">
        <ele>308.4</ele>
      </trkpt>
      <trkpt lat="46.44211" lon="4.76233">
        <ele>307.8</ele>
      </trkpt>
      <trkpt lat="46.44203" lon="4.76232">
        <ele>307.2</ele>
      </trkpt>
      <trkpt lat="46.44181" lon="4.76226">
        <ele>305.3</ele>
      </trkpt>
      <trkpt lat="46.44157" lon="4.76216">
        <ele>302.8</ele>
      </trkpt>
      <trkpt lat="46.44142" lon="4.76211">
        <ele>300.8</ele>
      </trkpt>
      <trkpt lat="46.44131" lon="4.76205">
        <ele>299.6</ele>
      </trkpt>
      <trkpt lat="46.44125" lon="4.76203">
        <ele>299</ele>
      </trkpt>
      <trkpt lat="46.44122" lon="4.76206">
        <ele>298.4</ele>
      </trkpt>
      <trkpt lat="46.4412" lon="4.7621">
        <ele>297.6</ele>
      </trkpt>
      <trkpt lat="46.44122" lon="4.76217">
        <ele>297</ele>
      </trkpt>
      <trkpt lat="46.44129" lon="4.76235">
        <ele>295.7</ele>
      </trkpt>
      <trkpt lat="46.44141" lon="4.7626">
        <ele>293.9</ele>
      </trkpt>
      <trkpt lat="46.44158" lon="4.76297">
        <ele>291.1</ele>
      </trkpt>
      <trkpt lat="46.44169" lon="4.76322">
        <ele>289</ele>
      </trkpt>
      <trkpt lat="46.44184" lon="4.7635">
        <ele>285.8</ele>
      </trkpt>
      <trkpt lat="46.44194" lon="4.7637">
        <ele>283.6</ele>
      </trkpt>
      <trkpt lat="46.44196" lon="4.76378">
        <ele>282.8</ele>
      </trkpt>
      <trkpt lat="46.44196" lon="4.76386">
        <ele>281.6</ele>
      </trkpt>
      <trkpt lat="46.44193" lon="4.76405">
        <ele>279.1</ele>
      </trkpt>
      <trkpt lat="46.44183" lon="4.7644">
        <ele>275.5</ele>
      </trkpt>
      <trkpt lat="46.44171" lon="4.76484">
        <ele>271.8</ele>
      </trkpt>
      <trkpt lat="46.44162" lon="4.76515">
        <ele>269.5</ele>
      </trkpt>
      <trkpt lat="46.44132" lon="4.76503">
        <ele>267.3</ele>
      </trkpt>
      <trkpt lat="46.44111" lon="4.76489">
        <ele>266.4</ele>
      </trkpt>
      <trkpt lat="46.44102" lon="4.76483">
        <ele>265.8</ele>
      </trkpt>
      <trkpt lat="46.44097" lon="4.76483">
        <ele>265.4</ele>
      </trkpt>
      <trkpt lat="46.4409" lon="4.76488">
        <ele>264.5</ele>
      </trkpt>
      <trkpt lat="46.44083" lon="4.76504">
        <ele>262.8</ele>
      </trkpt>
      <trkpt lat="46.44074" lon="4.76534">
        <ele>261.5</ele>
      </trkpt>
      <trkpt lat="46.44061" lon="4.76568">
        <ele>261.5</ele>
      </trkpt>
      <trkpt lat="46.44055" lon="4.76583">
        <ele>262</ele>
      </trkpt>
      <trkpt lat="46.44033" lon="4.76572">
        <ele>261.3</ele>
      </trkpt>
      <trkpt lat="46.44017" lon="4.76565">
        <ele>260.4</ele>
      </trkpt>
      <trkpt lat="46.44004" lon="4.76563">
        <ele>260.1</ele>
      </trkpt>
      <trkpt lat="46.43996" lon="4.76563">
        <ele>259.9</ele>
      </trkpt>
      <trkpt lat="46.4399" lon="4.76563">
        <ele>259.6</ele>
      </trkpt>
      <trkpt lat="46.43988" lon="4.76563">
        <ele>259.6</ele>
      </trkpt>
      <trkpt lat="46.43979" lon="4.76564">
        <ele>259.2</ele>
      </trkpt>
      <trkpt lat="46.43963" lon="4.76571">
        <ele>258.3</ele>
      </trkpt>
      <trkpt lat="46.4395" lon="4.76578">
        <ele>257.4</ele>
      </trkpt>
      <trkpt lat="46.43933" lon="4.7659">
        <ele>256.6</ele>
      </trkpt>
      <trkpt lat="46.43915" lon="4.76601">
        <ele>255.9</ele>
      </trkpt>
      <trkpt lat="46.43902" lon="4.76609">
        <ele>255.4</ele>
      </trkpt>
      <trkpt lat="46.43894" lon="4.76614">
        <ele>255.2</ele>
      </trkpt>
      <trkpt lat="46.43885" lon="4.76617">
        <ele>254.7</ele>
      </trkpt>
      <trkpt lat="46.43874" lon="4.7662">
        <ele>253.9</ele>
      </trkpt>
      <trkpt lat="46.43878" lon="4.7665">
        <ele>254.3</ele>
      </trkpt>
      <trkpt lat="46.43879" lon="4.76662">
        <ele>254.6</ele>
      </trkpt>
      <trkpt lat="46.43886" lon="4.76695">
        <ele>255</ele>
      </trkpt>
      <trkpt lat="46.4389" lon="4.76711">
        <ele>255.6</ele>
      </trkpt>
      <trkpt lat="46.43872" lon="4.76705">
        <ele>255.4</ele>
      </trkpt>
      <trkpt lat="46.43838" lon="4.76681">
        <ele>254.1</ele>
      </trkpt>
      <trkpt lat="46.43808" lon="4.76659">
        <ele>254.5</ele>
      </trkpt>
      <trkpt lat="46.43799" lon="4.76651">
        <ele>254.8</ele>
      </trkpt>
      <trkpt lat="46.43792" lon="4.76647">
        <ele>254.9</ele>
      </trkpt>
      <trkpt lat="46.43779" lon="4.76638">
        <ele>254.9</ele>
      </trkpt>
      <trkpt lat="46.43768" lon="4.76634">
        <ele>255</ele>
      </trkpt>
      <trkpt lat="46.43748" lon="4.76627">
        <ele>255.3</ele>
      </trkpt>
      <trkpt lat="46.43736" lon="4.76624">
        <ele>256</ele>
      </trkpt>
      <trkpt lat="46.43728" lon="4.76621">
        <ele>256.3</ele>
      </trkpt>
      <trkpt lat="46.43688" lon="4.76605">
        <ele>255.2</ele>
      </trkpt>
      <trkpt lat="46.43663" lon="4.76595">
        <ele>255.3</ele>
      </trkpt>
      <trkpt lat="46.4365" lon="4.76587">
        <ele>254.4</ele>
      </trkpt>
      <trkpt lat="46.4364" lon="4.76579">
        <ele>253.7</ele>
      </trkpt>
      <trkpt lat="46.43633" lon="4.76569">
        <ele>253.1</ele>
      </trkpt>
      <trkpt lat="46.43629" lon="4.76564">
        <ele>252.7</ele>
      </trkpt>
      <trkpt lat="46.43625" lon="4.76557">
        <ele>252.2</ele>
      </trkpt>
      <trkpt lat="46.4362" lon="4.7655">
        <ele>251.4</ele>
      </trkpt>
      <trkpt lat="46.43618" lon="4.76549">
        <ele>251.3</ele>
      </trkpt>
      <trkpt lat="46.43611" lon="4.76544">
        <ele>250.8</ele>
      </trkpt>
      <trkpt lat="46.43601" lon="4.76539">
        <ele>250.2</ele>
      </trkpt>
      <trkpt lat="46.43591" lon="4.76536">
        <ele>249.9</ele>
      </trkpt>
      <trkpt lat="46.4355" lon="4.76523">
        <ele>248.7</ele>
      </trkpt>
      <trkpt lat="46.43531" lon="4.76517">
        <ele>248.2</ele>
      </trkpt>
      <trkpt lat="46.43477" lon="4.76499">
        <ele>246.1</ele>
      </trkpt>
      <trkpt lat="46.43424" lon="4.76482">
        <ele>244.7</ele>
      </trkpt>
      <trkpt lat="46.43406" lon="4.76476">
        <ele>243.9</ele>
      </trkpt>
      <trkpt lat="46.43392" lon="4.76472">
        <ele>243.1</ele>
      </trkpt>
      <trkpt lat="46.43377" lon="4.76466">
        <ele>243.1</ele>
      </trkpt>
      <trkpt lat="46.43368" lon="4.76466">
        <ele>243.3</ele>
      </trkpt>
      <trkpt lat="46.43363" lon="4.76465">
        <ele>243.4</ele>
      </trkpt>
      <trkpt lat="46.43358" lon="4.76464">
        <ele>243.3</ele>
      </trkpt>
      <trkpt lat="46.43342" lon="4.76462">
        <ele>242.8</ele>
      </trkpt>
      <trkpt lat="46.43313" lon="4.76458">
        <ele>242.1</ele>
      </trkpt>
      <trkpt lat="46.43263" lon="4.7645">
        <ele>241.3</ele>
      </trkpt>
      <trkpt lat="46.43261" lon="4.7645">
        <ele>241.3</ele>
      </trkpt>
      <trkpt lat="46.43255" lon="4.7645">
        <ele>241.2</ele>
      </trkpt>
      <trkpt lat="46.43247" lon="4.76449">
        <ele>241.1</ele>
      </trkpt>
      <trkpt lat="46.4323" lon="4.76446">
        <ele>241.1</ele>
      </trkpt>
      <trkpt lat="46.43196" lon="4.76441">
        <ele>239.9</ele>
      </trkpt>
      <trkpt lat="46.43178" lon="4.76438">
        <ele>239.8</ele>
      </trkpt>
      <trkpt lat="46.43175" lon="4.76437">
        <ele>239.7</ele>
      </trkpt>
      <trkpt lat="46.43173" lon="4.76437">
        <ele>239.7</ele>
      </trkpt>
      <trkpt lat="46.43158" lon="4.76435">
        <ele>239.4</ele>
      </trkpt>
      <trkpt lat="46.43115" lon="4.76429">
        <ele>239</ele>
      </trkpt>
      <trkpt lat="46.43107" lon="4.76428">
        <ele>239</ele>
      </trkpt>
      <trkpt lat="46.43061" lon="4.76422">
        <ele>239</ele>
      </trkpt>
      <trkpt lat="46.43024" lon="4.76415">
        <ele>238.8</ele>
      </trkpt>
      <trkpt lat="46.43023" lon="4.76432">
        <ele>238.9</ele>
      </trkpt>
      <trkpt lat="46.43024" lon="4.76415">
        <ele>238.8</ele>
      </trkpt>
      <trkpt lat="46.43024" lon="4.76401">
        <ele>238.8</ele>
      </trkpt>
      <trkpt lat="46.43025" lon="4.76381">
        <ele>238.8</ele>
      </trkpt>
      <trkpt lat="46.43026" lon="4.76366">
        <ele>238.9</ele>
      </trkpt>
      <trkpt lat="46.43029" lon="4.76351">
        <ele>238.6</ele>
      </trkpt>
      <trkpt lat="46.43034" lon="4.76337">
        <ele>238.1</ele>
      </trkpt>
      <trkpt lat="46.4304" lon="4.76327">
        <ele>238</ele>
      </trkpt>
      <trkpt lat="46.43043" lon="4.76322">
        <ele>238</ele>
      </trkpt>
      <trkpt lat="46.43052" lon="4.7631">
        <ele>238.6</ele>
      </trkpt>
      <trkpt lat="46.43054" lon="4.76308">
        <ele>238.8</ele>
      </trkpt>
      <trkpt lat="46.43057" lon="4.76304">
        <ele>238.8</ele>
      </trkpt>
      <trkpt lat="46.43064" lon="4.76301">
        <ele>238.5</ele>
      </trkpt>
      <trkpt lat="46.43071" lon="4.76298">
        <ele>238.2</ele>
      </trkpt>
      <trkpt lat="46.43075" lon="4.76297">
        <ele>238.1</ele>
      </trkpt>
      <trkpt lat="46.43093" lon="4.76287">
        <ele>238.3</ele>
      </trkpt>
      <trkpt lat="46.43103" lon="4.7628">
        <ele>238.7</ele>
      </trkpt>
      <trkpt lat="46.43108" lon="4.76273">
        <ele>239.1</ele>
      </trkpt>
      <trkpt lat="46.43111" lon="4.76265">
        <ele>239.5</ele>
      </trkpt>
      <trkpt lat="46.43112" lon="4.76256">
        <ele>239.8</ele>
      </trkpt>
      <trkpt lat="46.43113" lon="4.76246">
        <ele>240.3</ele>
      </trkpt>
      <trkpt lat="46.43112" lon="4.76234">
        <ele>241.1</ele>
      </trkpt>
      <trkpt lat="46.43111" lon="4.76218">
        <ele>242.2</ele>
      </trkpt>
      <trkpt lat="46.43109" lon="4.76196">
        <ele>243</ele>
      </trkpt>
      <trkpt lat="46.43107" lon="4.76182">
        <ele>244</ele>
      </trkpt>
    </trkseg>
  </trk>
  <trk>
    <name><![CDATA[18-LA_GRAVIERE -VERT]]></name>
    <extensions>
      <line xmlns="http://www.topografix.com/GPX/gpx_style/0/2">
        <color>00ff11</color>
        <width>4</width>
      </line>
    </extensions>
    <trkseg>
      <trkpt lat="46.44767" lon="4.88669">
        <ele>173</ele>
      </trkpt>
      <trkpt lat="46.44755" lon="4.88727">
        <ele>172.8</ele>
      </trkpt>
      <trkpt lat="46.44746" lon="4.8877">
        <ele>172.9</ele>
      </trkpt>
      <trkpt lat="46.44725" lon="4.88851">
        <ele>172.9</ele>
      </trkpt>
      <trkpt lat="46.44694" lon="4.88953">
        <ele>173</ele>
      </trkpt>
      <trkpt lat="46.44655" lon="4.89094">
        <ele>172.3</ele>
      </trkpt>
      <trkpt lat="46.44632" lon="4.89172">
        <ele>172.8</ele>
      </trkpt>
      <trkpt lat="46.44599" lon="4.89287">
        <ele>173</ele>
      </trkpt>
      <trkpt lat="46.44625" lon="4.89302">
        <ele>172.6</ele>
      </trkpt>
      <trkpt lat="46.44646" lon="4.89319">
        <ele>172.9</ele>
      </trkpt>
      <trkpt lat="46.4467" lon="4.8934">
        <ele>173.5</ele>
      </trkpt>
      <trkpt lat="46.44676" lon="4.89346">
        <ele>173.3</ele>
      </trkpt>
      <trkpt lat="46.44715" lon="4.8938">
        <ele>173.1</ele>
      </trkpt>
      <trkpt lat="46.44747" lon="4.89411">
        <ele>173.3</ele>
      </trkpt>
      <trkpt lat="46.44755" lon="4.89442">
        <ele>172.6</ele>
      </trkpt>
      <trkpt lat="46.44761" lon="4.89454">
        <ele>172.9</ele>
      </trkpt>
      <trkpt lat="46.44769" lon="4.89472">
        <ele>172.7</ele>
      </trkpt>
      <trkpt lat="46.44778" lon="4.89483">
        <ele>172.7</ele>
      </trkpt>
      <trkpt lat="46.44786" lon="4.89492">
        <ele>172.9</ele>
      </trkpt>
      <trkpt lat="46.44791" lon="4.89496">
        <ele>172.8</ele>
      </trkpt>
      <trkpt lat="46.44793" lon="4.89496">
        <ele>172.9</ele>
      </trkpt>
      <trkpt lat="46.44797" lon="4.89497">
        <ele>173</ele>
      </trkpt>
      <trkpt lat="46.44803" lon="4.89498">
        <ele>173.2</ele>
      </trkpt>
      <trkpt lat="46.44818" lon="4.89497">
        <ele>173.2</ele>
      </trkpt>
      <trkpt lat="46.4483" lon="4.89495">
        <ele>173.1</ele>
      </trkpt>
      <trkpt lat="46.44833" lon="4.89492">
        <ele>173</ele>
      </trkpt>
      <trkpt lat="46.44838" lon="4.89489">
        <ele>173</ele>
      </trkpt>
      <trkpt lat="46.44853" lon="4.895">
        <ele>173</ele>
      </trkpt>
      <trkpt lat="46.44879" lon="4.89524">
        <ele>172.7</ele>
      </trkpt>
      <trkpt lat="46.44924" lon="4.89559">
        <ele>172.9</ele>
      </trkpt>
      <trkpt lat="46.4496" lon="4.89593">
        <ele>172.9</ele>
      </trkpt>
      <trkpt lat="46.44994" lon="4.89624">
        <ele>172.1</ele>
      </trkpt>
      <trkpt lat="46.45019" lon="4.89654">
        <ele>172.4</ele>
      </trkpt>
      <trkpt lat="46.45024" lon="4.8966">
        <ele>172.6</ele>
      </trkpt>
      <trkpt lat="46.45029" lon="4.89665">
        <ele>173</ele>
      </trkpt>
      <trkpt lat="46.45032" lon="4.89654">
        <ele>172.7</ele>
      </trkpt>
      <trkpt lat="46.45036" lon="4.89642">
        <ele>172.4</ele>
      </trkpt>
      <trkpt lat="46.45047" lon="4.8962">
        <ele>173.2</ele>
      </trkpt>
      <trkpt lat="46.45065" lon="4.89588">
        <ele>173.1</ele>
      </trkpt>
      <trkpt lat="46.45071" lon="4.89578">
        <ele>172.8</ele>
      </trkpt>
      <trkpt lat="46.45083" lon="4.89559">
        <ele>172.1</ele>
      </trkpt>
      <trkpt lat="46.45145" lon="4.89484">
        <ele>172</ele>
      </trkpt>
      <trkpt lat="46.4521" lon="4.89406">
        <ele>172</ele>
      </trkpt>
      <trkpt lat="46.45229" lon="4.89383">
        <ele>172</ele>
      </trkpt>
      <trkpt lat="46.45231" lon="4.89382">
        <ele>172</ele>
      </trkpt>
      <trkpt lat="46.45235" lon="4.89378">
        <ele>172</ele>
      </trkpt>
      <trkpt lat="46.4524" lon="4.89386">
        <ele>172</ele>
      </trkpt>
      <trkpt lat="46.45245" lon="4.89391">
        <ele>172</ele>
      </trkpt>
      <trkpt lat="46.45362" lon="4.89542">
        <ele>172</ele>
      </trkpt>
      <trkpt lat="46.45407" lon="4.89602">
        <ele>172</ele>
      </trkpt>
      <trkpt lat="46.45437" lon="4.89642">
        <ele>172</ele>
      </trkpt>
      <trkpt lat="46.45467" lon="4.89682">
        <ele>172</ele>
      </trkpt>
      <trkpt lat="46.45476" lon="4.89694">
        <ele>172</ele>
      </trkpt>
      <trkpt lat="46.45486" lon="4.89703">
        <ele>172</ele>
      </trkpt>
      <trkpt lat="46.45498" lon="4.89716">
        <ele>172</ele>
      </trkpt>
      <trkpt lat="46.45509" lon="4.89723">
        <ele>172</ele>
      </trkpt>
      <trkpt lat="46.45521" lon="4.89732">
        <ele>172</ele>
      </trkpt>
      <trkpt lat="46.45536" lon="4.8974">
        <ele>172.3</ele>
      </trkpt>
      <trkpt lat="46.45545" lon="4.89746">
        <ele>172.6</ele>
      </trkpt>
      <trkpt lat="46.45554" lon="4.89756">
        <ele>172.7</ele>
      </trkpt>
      <trkpt lat="46.45564" lon="4.89773">
        <ele>172.4</ele>
      </trkpt>
      <trkpt lat="46.45574" lon="4.89784">
        <ele>172.7</ele>
      </trkpt>
      <trkpt lat="46.45577" lon="4.89786">
        <ele>172.8</ele>
      </trkpt>
      <trkpt lat="46.45584" lon="4.89788">
        <ele>173</ele>
      </trkpt>
      <trkpt lat="46.45587" lon="4.89789">
        <ele>172.9</ele>
      </trkpt>
      <trkpt lat="46.45592" lon="4.89787">
        <ele>172.8</ele>
      </trkpt>
      <trkpt lat="46.45595" lon="4.89785">
        <ele>172.7</ele>
      </trkpt>
      <trkpt lat="46.45598" lon="4.8978">
        <ele>172.5</ele>
      </trkpt>
      <trkpt lat="46.45598" lon="4.89775">
        <ele>172.5</ele>
      </trkpt>
      <trkpt lat="46.45599" lon="4.89766">
        <ele>172.7</ele>
      </trkpt>
      <trkpt lat="46.45603" lon="4.89755">
        <ele>172.9</ele>
      </trkpt>
      <trkpt lat="46.45614" lon="4.89726">
        <ele>173.7</ele>
      </trkpt>
      <trkpt lat="46.45621" lon="4.89706">
        <ele>173.1</ele>
      </trkpt>
      <trkpt lat="46.45656" lon="4.89619">
        <ele>173.8</ele>
      </trkpt>
      <trkpt lat="46.45666" lon="4.89598">
        <ele>174</ele>
      </trkpt>
      <trkpt lat="46.45668" lon="4.89593">
        <ele>174</ele>
      </trkpt>
      <trkpt lat="46.45671" lon="4.8959">
        <ele>174</ele>
      </trkpt>
      <trkpt lat="46.45676" lon="4.89588">
        <ele>173.9</ele>
      </trkpt>
      <trkpt lat="46.45682" lon="4.89586">
        <ele>173.9</ele>
      </trkpt>
      <trkpt lat="46.45687" lon="4.89585">
        <ele>173.9</ele>
      </trkpt>
      <trkpt lat="46.45693" lon="4.89585">
        <ele>174</ele>
      </trkpt>
      <trkpt lat="46.45708" lon="4.89588">
        <ele>173.8</ele>
      </trkpt>
      <trkpt lat="46.45734" lon="4.89598">
        <ele>173.7</ele>
      </trkpt>
      <trkpt lat="46.45766" lon="4.8961">
        <ele>174</ele>
      </trkpt>
      <trkpt lat="46.45777" lon="4.89615">
        <ele>174.1</ele>
      </trkpt>
      <trkpt lat="46.45789" lon="4.89618">
        <ele>174</ele>
      </trkpt>
      <trkpt lat="46.4582" lon="4.89629">
        <ele>173.9</ele>
      </trkpt>
      <trkpt lat="46.45845" lon="4.8964">
        <ele>173.7</ele>
      </trkpt>
      <trkpt lat="46.45878" lon="4.89658">
        <ele>174.1</ele>
      </trkpt>
      <trkpt lat="46.45909" lon="4.89676">
        <ele>173.6</ele>
      </trkpt>
      <trkpt lat="46.45934" lon="4.89689">
        <ele>174.1</ele>
      </trkpt>
      <trkpt lat="46.4593" lon="4.89699">
        <ele>174</ele>
      </trkpt>
      <trkpt lat="46.45925" lon="4.89717">
        <ele>173.6</ele>
      </trkpt>
      <trkpt lat="46.45918" lon="4.89734">
        <ele>173.1</ele>
      </trkpt>
      <trkpt lat="46.45911" lon="4.89749">
        <ele>172.8</ele>
      </trkpt>
      <trkpt lat="46.45899" lon="4.89774">
        <ele>172.6</ele>
      </trkpt>
      <trkpt lat="46.45864" lon="4.89852">
        <ele>172.6</ele>
      </trkpt>
      <trkpt lat="46.45824" lon="4.89936">
        <ele>172.7</ele>
      </trkpt>
      <trkpt lat="46.45807" lon="4.89977">
        <ele>172.9</ele>
      </trkpt>
      <trkpt lat="46.45789" lon="4.90012">
        <ele>172.8</ele>
      </trkpt>
      <trkpt lat="46.45778" lon="4.90033">
        <ele>173.2</ele>
      </trkpt>
      <trkpt lat="46.45774" lon="4.90042">
        <ele>173.4</ele>
      </trkpt>
      <trkpt lat="46.45768" lon="4.90048">
        <ele>173.3</ele>
      </trkpt>
      <trkpt lat="46.45819" lon="4.90125">
        <ele>173</ele>
      </trkpt>
      <trkpt lat="46.45841" lon="4.90161">
        <ele>173.1</ele>
      </trkpt>
      <trkpt lat="46.45855" lon="4.90178">
        <ele>172.9</ele>
      </trkpt>
      <trkpt lat="46.45862" lon="4.90184">
        <ele>173</ele>
      </trkpt>
      <trkpt lat="46.45865" lon="4.90186">
        <ele>173</ele>
      </trkpt>
      <trkpt lat="46.45881" lon="4.902">
        <ele>172.9</ele>
      </trkpt>
      <trkpt lat="46.45954" lon="4.90261">
        <ele>173.1</ele>
      </trkpt>
      <trkpt lat="46.45991" lon="4.90297">
        <ele>173.1</ele>
      </trkpt>
      <trkpt lat="46.46028" lon="4.90346">
        <ele>174</ele>
      </trkpt>
      <trkpt lat="46.46064" lon="4.90393">
        <ele>173.4</ele>
      </trkpt>
      <trkpt lat="46.46097" lon="4.90439">
        <ele>173</ele>
      </trkpt>
      <trkpt lat="46.46117" lon="4.90468">
        <ele>173.7</ele>
      </trkpt>
      <trkpt lat="46.46137" lon="4.90502">
        <ele>173.9</ele>
      </trkpt>
      <trkpt lat="46.46171" lon="4.90562">
        <ele>173.9</ele>
      </trkpt>
      <trkpt lat="46.46179" lon="4.90577">
        <ele>174</ele>
      </trkpt>
      <trkpt lat="46.46184" lon="4.90583">
        <ele>174.3</ele>
      </trkpt>
      <trkpt lat="46.46192" lon="4.90587">
        <ele>174.6</ele>
      </trkpt>
      <trkpt lat="46.46199" lon="4.9059">
        <ele>174.5</ele>
      </trkpt>
      <trkpt lat="46.46253" lon="4.90602">
        <ele>174.3</ele>
      </trkpt>
      <trkpt lat="46.46261" lon="4.90602">
        <ele>174.2</ele>
      </trkpt>
      <trkpt lat="46.46269" lon="4.90601">
        <ele>174.1</ele>
      </trkpt>
      <trkpt lat="46.46275" lon="4.90598">
        <ele>174</ele>
      </trkpt>
      <trkpt lat="46.46281" lon="4.90593">
        <ele>173.9</ele>
      </trkpt>
      <trkpt lat="46.46287" lon="4.90582">
        <ele>173.7</ele>
      </trkpt>
      <trkpt lat="46.46296" lon="4.90557">
        <ele>174</ele>
      </trkpt>
      <trkpt lat="46.46316" lon="4.90474">
        <ele>173.6</ele>
      </trkpt>
      <trkpt lat="46.46328" lon="4.90418">
        <ele>174</ele>
      </trkpt>
      <trkpt lat="46.46341" lon="4.90364">
        <ele>174.6</ele>
      </trkpt>
      <trkpt lat="46.46353" lon="4.90296">
        <ele>174</ele>
      </trkpt>
      <trkpt lat="46.46362" lon="4.90252">
        <ele>174</ele>
      </trkpt>
      <trkpt lat="46.46382" lon="4.90259">
        <ele>174.2</ele>
      </trkpt>
      <trkpt lat="46.46393" lon="4.90263">
        <ele>174.4</ele>
      </trkpt>
      <trkpt lat="46.46411" lon="4.90269">
        <ele>174.1</ele>
      </trkpt>
      <trkpt lat="46.46443" lon="4.90281">
        <ele>174.9</ele>
      </trkpt>
      <trkpt lat="46.46465" lon="4.90292">
        <ele>174.6</ele>
      </trkpt>
      <trkpt lat="46.4648" lon="4.903">
        <ele>174.9</ele>
      </trkpt>
      <trkpt lat="46.46495" lon="4.9031">
        <ele>175</ele>
      </trkpt>
      <trkpt lat="46.46514" lon="4.90318">
        <ele>175</ele>
      </trkpt>
      <trkpt lat="46.4655" lon="4.90335">
        <ele>175</ele>
      </trkpt>
      <trkpt lat="46.46587" lon="4.90353">
        <ele>175</ele>
      </trkpt>
      <trkpt lat="46.46605" lon="4.90362">
        <ele>175</ele>
      </trkpt>
      <trkpt lat="46.4661" lon="4.90363">
        <ele>175</ele>
      </trkpt>
      <trkpt lat="46.46615" lon="4.90363">
        <ele>175</ele>
      </trkpt>
      <trkpt lat="46.46614" lon="4.90376">
        <ele>175</ele>
      </trkpt>
      <trkpt lat="46.46608" lon="4.904">
        <ele>174.9</ele>
      </trkpt>
      <trkpt lat="46.46607" lon="4.90406">
        <ele>174.8</ele>
      </trkpt>
      <trkpt lat="46.46604" lon="4.90416">
        <ele>174.8</ele>
      </trkpt>
      <trkpt lat="46.466" lon="4.90442">
        <ele>175</ele>
      </trkpt>
      <trkpt lat="46.46595" lon="4.90468">
        <ele>175</ele>
      </trkpt>
      <trkpt lat="46.46589" lon="4.90507">
        <ele>175</ele>
      </trkpt>
      <trkpt lat="46.46586" lon="4.9053">
        <ele>175</ele>
      </trkpt>
      <trkpt lat="46.46581" lon="4.90573">
        <ele>174.9</ele>
      </trkpt>
      <trkpt lat="46.46574" lon="4.90605">
        <ele>174.7</ele>
      </trkpt>
      <trkpt lat="46.46569" lon="4.90636">
        <ele>174.5</ele>
      </trkpt>
      <trkpt lat="46.46565" lon="4.90656">
        <ele>174.3</ele>
      </trkpt>
      <trkpt lat="46.46557" lon="4.90712">
        <ele>174</ele>
      </trkpt>
      <trkpt lat="46.46549" lon="4.90775">
        <ele>174</ele>
      </trkpt>
      <trkpt lat="46.46543" lon="4.90821">
        <ele>174</ele>
      </trkpt>
      <trkpt lat="46.46539" lon="4.90854">
        <ele>174.4</ele>
      </trkpt>
      <trkpt lat="46.46537" lon="4.90874">
        <ele>174.7</ele>
      </trkpt>
      <trkpt lat="46.46535" lon="4.9089">
        <ele>174.7</ele>
      </trkpt>
      <trkpt lat="46.46534" lon="4.90902">
        <ele>174.4</ele>
      </trkpt>
      <trkpt lat="46.46528" lon="4.90936">
        <ele>174</ele>
      </trkpt>
      <trkpt lat="46.46523" lon="4.90961">
        <ele>174</ele>
      </trkpt>
      <trkpt lat="46.46521" lon="4.90973">
        <ele>174</ele>
      </trkpt>
      <trkpt lat="46.46513" lon="4.91017">
        <ele>174</ele>
      </trkpt>
      <trkpt lat="46.46505" lon="4.91056">
        <ele>174</ele>
      </trkpt>
      <trkpt lat="46.465" lon="4.91076">
        <ele>174</ele>
      </trkpt>
      <trkpt lat="46.46496" lon="4.91092">
        <ele>173.9</ele>
      </trkpt>
      <trkpt lat="46.46487" lon="4.91118">
        <ele>173.4</ele>
      </trkpt>
      <trkpt lat="46.46478" lon="4.91147">
        <ele>173.2</ele>
      </trkpt>
      <trkpt lat="46.46472" lon="4.91167">
        <ele>174</ele>
      </trkpt>
      <trkpt lat="46.46468" lon="4.91186">
        <ele>173.9</ele>
      </trkpt>
      <trkpt lat="46.46465" lon="4.91208">
        <ele>173.7</ele>
      </trkpt>
      <trkpt lat="46.46462" lon="4.91229">
        <ele>173.5</ele>
      </trkpt>
      <trkpt lat="46.46459" lon="4.91243">
        <ele>173.1</ele>
      </trkpt>
      <trkpt lat="46.46453" lon="4.91262">
        <ele>173.3</ele>
      </trkpt>
      <trkpt lat="46.46446" lon="4.9128">
        <ele>173.8</ele>
      </trkpt>
      <trkpt lat="46.46445" lon="4.91285">
        <ele>173.7</ele>
      </trkpt>
      <trkpt lat="46.46445" lon="4.9129">
        <ele>173.6</ele>
      </trkpt>
      <trkpt lat="46.46445" lon="4.91297">
        <ele>173.3</ele>
      </trkpt>
      <trkpt lat="46.46441" lon="4.913">
        <ele>173.2</ele>
      </trkpt>
      <trkpt lat="46.46437" lon="4.91302">
        <ele>173.1</ele>
      </trkpt>
      <trkpt lat="46.46432" lon="4.91303">
        <ele>173.1</ele>
      </trkpt>
      <trkpt lat="46.46415" lon="4.91302">
        <ele>173</ele>
      </trkpt>
      <trkpt lat="46.46388" lon="4.913">
        <ele>173</ele>
      </trkpt>
      <trkpt lat="46.46375" lon="4.91299">
        <ele>173</ele>
      </trkpt>
      <trkpt lat="46.46368" lon="4.91297">
        <ele>173</ele>
      </trkpt>
      <trkpt lat="46.4634" lon="4.91291">
        <ele>173</ele>
      </trkpt>
      <trkpt lat="46.46325" lon="4.91288">
        <ele>173.1</ele>
      </trkpt>
      <trkpt lat="46.46315" lon="4.91285">
        <ele>173</ele>
      </trkpt>
      <trkpt lat="46.46293" lon="4.91278">
        <ele>173</ele>
      </trkpt>
      <trkpt lat="46.46272" lon="4.91268">
        <ele>172.9</ele>
      </trkpt>
      <trkpt lat="46.46239" lon="4.91254">
        <ele>173.4</ele>
      </trkpt>
      <trkpt lat="46.46217" lon="4.91245">
        <ele>173</ele>
      </trkpt>
      <trkpt lat="46.46198" lon="4.91235">
        <ele>173.5</ele>
      </trkpt>
      <trkpt lat="46.46165" lon="4.91216">
        <ele>172.9</ele>
      </trkpt>
      <trkpt lat="46.46115" lon="4.91186">
        <ele>173.3</ele>
      </trkpt>
      <trkpt lat="46.46085" lon="4.91165">
        <ele>173.1</ele>
      </trkpt>
      <trkpt lat="46.46062" lon="4.91149">
        <ele>172.7</ele>
      </trkpt>
      <trkpt lat="46.46039" lon="4.91133">
        <ele>173.1</ele>
      </trkpt>
      <trkpt lat="46.4601" lon="4.91108">
        <ele>172.8</ele>
      </trkpt>
      <trkpt lat="46.45982" lon="4.91081">
        <ele>173.3</ele>
      </trkpt>
      <trkpt lat="46.45954" lon="4.91051">
        <ele>172.5</ele>
      </trkpt>
      <trkpt lat="46.45927" lon="4.91019">
        <ele>172.7</ele>
      </trkpt>
      <trkpt lat="46.45911" lon="4.91002">
        <ele>172.7</ele>
      </trkpt>
      <trkpt lat="46.459" lon="4.9099">
        <ele>172.8</ele>
      </trkpt>
      <trkpt lat="46.45891" lon="4.90974">
        <ele>173</ele>
      </trkpt>
      <trkpt lat="46.45881" lon="4.90957">
        <ele>173.1</ele>
      </trkpt>
      <trkpt lat="46.45869" lon="4.90934">
        <ele>172.7</ele>
      </trkpt>
      <trkpt lat="46.45857" lon="4.90913">
        <ele>172.9</ele>
      </trkpt>
      <trkpt lat="46.45843" lon="4.90896">
        <ele>172.8</ele>
      </trkpt>
      <trkpt lat="46.45819" lon="4.90867">
        <ele>172.9</ele>
      </trkpt>
      <trkpt lat="46.45783" lon="4.90828">
        <ele>173.2</ele>
      </trkpt>
      <trkpt lat="46.45767" lon="4.90808">
        <ele>173.5</ele>
      </trkpt>
      <trkpt lat="46.45745" lon="4.9078">
        <ele>173.5</ele>
      </trkpt>
      <trkpt lat="46.45727" lon="4.90754">
        <ele>173.6</ele>
      </trkpt>
      <trkpt lat="46.45705" lon="4.9072">
        <ele>172.5</ele>
      </trkpt>
      <trkpt lat="46.45681" lon="4.90678">
        <ele>172.7</ele>
      </trkpt>
      <trkpt lat="46.4565" lon="4.90616">
        <ele>173</ele>
      </trkpt>
      <trkpt lat="46.45618" lon="4.90556">
        <ele>173</ele>
      </trkpt>
      <trkpt lat="46.45577" lon="4.90477">
        <ele>173.4</ele>
      </trkpt>
      <trkpt lat="46.45555" lon="4.90439">
        <ele>173.2</ele>
      </trkpt>
      <trkpt lat="46.45533" lon="4.9039">
        <ele>173</ele>
      </trkpt>
      <trkpt lat="46.45483" lon="4.90304">
        <ele>173.4</ele>
      </trkpt>
      <trkpt lat="46.45457" lon="4.90265">
        <ele>173.2</ele>
      </trkpt>
      <trkpt lat="46.45435" lon="4.90239">
        <ele>173.3</ele>
      </trkpt>
      <trkpt lat="46.45384" lon="4.90169">
        <ele>173.6</ele>
      </trkpt>
      <trkpt lat="46.45369" lon="4.9014">
        <ele>173</ele>
      </trkpt>
      <trkpt lat="46.45309" lon="4.90062">
        <ele>173.4</ele>
      </trkpt>
      <trkpt lat="46.45284" lon="4.90023">
        <ele>173.1</ele>
      </trkpt>
      <trkpt lat="46.45232" lon="4.89954">
        <ele>172.9</ele>
      </trkpt>
      <trkpt lat="46.45211" lon="4.89917">
        <ele>172.6</ele>
      </trkpt>
      <trkpt lat="46.4519" lon="4.89881">
        <ele>173</ele>
      </trkpt>
      <trkpt lat="46.45173" lon="4.89849">
        <ele>172.6</ele>
      </trkpt>
      <trkpt lat="46.45159" lon="4.89827">
        <ele>172.7</ele>
      </trkpt>
      <trkpt lat="46.45144" lon="4.89805">
        <ele>172.2</ele>
      </trkpt>
      <trkpt lat="46.45135" lon="4.89793">
        <ele>172.4</ele>
      </trkpt>
      <trkpt lat="46.45126" lon="4.89781">
        <ele>172.5</ele>
      </trkpt>
      <trkpt lat="46.45118" lon="4.89772">
        <ele>172.4</ele>
      </trkpt>
      <trkpt lat="46.45111" lon="4.89761">
        <ele>172.6</ele>
      </trkpt>
      <trkpt lat="46.45104" lon="4.89751">
        <ele>172.7</ele>
      </trkpt>
      <trkpt lat="46.45101" lon="4.89747">
        <ele>172.7</ele>
      </trkpt>
      <trkpt lat="46.45089" lon="4.89732">
        <ele>172.7</ele>
      </trkpt>
      <trkpt lat="46.45076" lon="4.89716">
        <ele>172.8</ele>
      </trkpt>
      <trkpt lat="46.45055" lon="4.89692">
        <ele>173.1</ele>
      </trkpt>
      <trkpt lat="46.45038" lon="4.89676">
        <ele>173</ele>
      </trkpt>
      <trkpt lat="46.45029" lon="4.89665">
        <ele>173</ele>
      </trkpt>
      <trkpt lat="46.45024" lon="4.8966">
        <ele>172.6</ele>
      </trkpt>
      <trkpt lat="46.45019" lon="4.89654">
        <ele>172.4</ele>
      </trkpt>
      <trkpt lat="46.44994" lon="4.89624">
        <ele>172.1</ele>
      </trkpt>
      <trkpt lat="46.4496" lon="4.89593">
        <ele>172.9</ele>
      </trkpt>
      <trkpt lat="46.44924" lon="4.89559">
        <ele>172.9</ele>
      </trkpt>
      <trkpt lat="46.44879" lon="4.89524">
        <ele>172.7</ele>
      </trkpt>
      <trkpt lat="46.44853" lon="4.895">
        <ele>173</ele>
      </trkpt>
      <trkpt lat="46.44838" lon="4.89489">
        <ele>173</ele>
      </trkpt>
      <trkpt lat="46.44833" lon="4.89492">
        <ele>173</ele>
      </trkpt>
      <trkpt lat="46.4483" lon="4.89495">
        <ele>173.1</ele>
      </trkpt>
      <trkpt lat="46.44818" lon="4.89497">
        <ele>173.2</ele>
      </trkpt>
      <trkpt lat="46.44803" lon="4.89498">
        <ele>173.2</ele>
      </trkpt>
      <trkpt lat="46.44797" lon="4.89497">
        <ele>173</ele>
      </trkpt>
      <trkpt lat="46.44793" lon="4.89496">
        <ele>172.9</ele>
      </trkpt>
      <trkpt lat="46.44791" lon="4.89496">
        <ele>172.8</ele>
      </trkpt>
      <trkpt lat="46.44786" lon="4.89492">
        <ele>172.9</ele>
      </trkpt>
      <trkpt lat="46.44778" lon="4.89483">
        <ele>172.7</ele>
      </trkpt>
      <trkpt lat="46.44769" lon="4.89472">
        <ele>172.7</ele>
      </trkpt>
      <trkpt lat="46.44761" lon="4.89454">
        <ele>172.9</ele>
      </trkpt>
      <trkpt lat="46.44755" lon="4.89442">
        <ele>172.6</ele>
      </trkpt>
      <trkpt lat="46.44747" lon="4.89411">
        <ele>173.3</ele>
      </trkpt>
      <trkpt lat="46.44715" lon="4.8938">
        <ele>173.1</ele>
      </trkpt>
      <trkpt lat="46.44676" lon="4.89346">
        <ele>173.3</ele>
      </trkpt>
      <trkpt lat="46.4467" lon="4.8934">
        <ele>173.5</ele>
      </trkpt>
      <trkpt lat="46.44646" lon="4.89319">
        <ele>172.9</ele>
      </trkpt>
      <trkpt lat="46.44625" lon="4.89302">
        <ele>172.6</ele>
      </trkpt>
      <trkpt lat="46.44599" lon="4.89287">
        <ele>173</ele>
      </trkpt>
      <trkpt lat="46.44632" lon="4.89172">
        <ele>172.8</ele>
      </trkpt>
      <trkpt lat="46.44655" lon="4.89094">
        <ele>172.3</ele>
      </trkpt>
      <trkpt lat="46.44694" lon="4.88953">
        <ele>173</ele>
      </trkpt>
      <trkpt lat="46.44725" lon="4.88851">
        <ele>172.9</ele>
      </trkpt>
      <trkpt lat="46.44746" lon="4.8877">
        <ele>172.9</ele>
      </trkpt>
      <trkpt lat="46.44755" lon="4.88727">
        <ele>172.8</ele>
      </trkpt>
      <trkpt lat="46.44767" lon="4.88669">
        <ele>173</ele>
      </trkpt>
      <trkpt lat="46.44652" lon="4.88607">
        <ele>174.6</ele>
      </trkpt>
      <trkpt lat="46.44647" lon="4.88575">
        <ele>175</ele>
      </trkpt>
    </trkseg>
  </trk>
  <trk>
    <name><![CDATA[21 LIAISON_GIGNY_A_SENNECEY]]></name>
    <extensions>
      <line xmlns="http://www.topografix.com/GPX/gpx_style/0/2">
        <color>00ff33</color>
        <width>4</width>
      </line>
    </extensions>
    <trkseg>
      <trkpt lat="46.65373" lon="4.95306">
        <ele>174</ele>
      </trkpt>
      <trkpt lat="46.65363" lon="4.95311">
        <ele>173.8</ele>
      </trkpt>
      <trkpt lat="46.65355" lon="4.95316">
        <ele>173.6</ele>
      </trkpt>
      <trkpt lat="46.65346" lon="4.95316">
        <ele>173.6</ele>
      </trkpt>
      <trkpt lat="46.65332" lon="4.95317">
        <ele>173.6</ele>
      </trkpt>
      <trkpt lat="46.65322" lon="4.95317">
        <ele>173.6</ele>
      </trkpt>
      <trkpt lat="46.65307" lon="4.95316">
        <ele>173.6</ele>
      </trkpt>
      <trkpt lat="46.65287" lon="4.95314">
        <ele>173.7</ele>
      </trkpt>
      <trkpt lat="46.65257" lon="4.95308">
        <ele>173.9</ele>
      </trkpt>
      <trkpt lat="46.6523" lon="4.95302">
        <ele>173.4</ele>
      </trkpt>
      <trkpt lat="46.65202" lon="4.95294">
        <ele>173.4</ele>
      </trkpt>
      <trkpt lat="46.65187" lon="4.9529">
        <ele>173.5</ele>
      </trkpt>
      <trkpt lat="46.65184" lon="4.95291">
        <ele>173.5</ele>
      </trkpt>
      <trkpt lat="46.65164" lon="4.95292">
        <ele>173.6</ele>
      </trkpt>
      <trkpt lat="46.65158" lon="4.95292">
        <ele>173.9</ele>
      </trkpt>
      <trkpt lat="46.65154" lon="4.95293">
        <ele>174.1</ele>
      </trkpt>
      <trkpt lat="46.65137" lon="4.95294">
        <ele>174.8</ele>
      </trkpt>
      <trkpt lat="46.65109" lon="4.95301">
        <ele>174.4</ele>
      </trkpt>
      <trkpt lat="46.65095" lon="4.95307">
        <ele>174.5</ele>
      </trkpt>
      <trkpt lat="46.65068" lon="4.95318">
        <ele>174.4</ele>
      </trkpt>
      <trkpt lat="46.65044" lon="4.95322">
        <ele>174.3</ele>
      </trkpt>
      <trkpt lat="46.65044" lon="4.95299">
        <ele>176</ele>
      </trkpt>
      <trkpt lat="46.65045" lon="4.95284">
        <ele>176</ele>
      </trkpt>
      <trkpt lat="46.65043" lon="4.95226">
        <ele>175.5</ele>
      </trkpt>
      <trkpt lat="46.65045" lon="4.95198">
        <ele>174.2</ele>
      </trkpt>
      <trkpt lat="46.65046" lon="4.95184">
        <ele>173.9</ele>
      </trkpt>
      <trkpt lat="46.6507" lon="4.94982">
        <ele>173</ele>
      </trkpt>
      <trkpt lat="46.65071" lon="4.9497">
        <ele>173</ele>
      </trkpt>
      <trkpt lat="46.65072" lon="4.94962">
        <ele>173</ele>
      </trkpt>
      <trkpt lat="46.65073" lon="4.94951">
        <ele>173</ele>
      </trkpt>
      <trkpt lat="46.65079" lon="4.94907">
        <ele>174.1</ele>
      </trkpt>
      <trkpt lat="46.65081" lon="4.94889">
        <ele>174.8</ele>
      </trkpt>
      <trkpt lat="46.65084" lon="4.94873">
        <ele>175</ele>
      </trkpt>
      <trkpt lat="46.65084" lon="4.94867">
        <ele>174.9</ele>
      </trkpt>
      <trkpt lat="46.65085" lon="4.94862">
        <ele>174.9</ele>
      </trkpt>
      <trkpt lat="46.65087" lon="4.94854">
        <ele>174.6</ele>
      </trkpt>
      <trkpt lat="46.65157" lon="4.94511">
        <ele>174.1</ele>
      </trkpt>
      <trkpt lat="46.65158" lon="4.94506">
        <ele>174.4</ele>
      </trkpt>
      <trkpt lat="46.65182" lon="4.94398">
        <ele>176</ele>
      </trkpt>
      <trkpt lat="46.65184" lon="4.94383">
        <ele>176.2</ele>
      </trkpt>
      <trkpt lat="46.65192" lon="4.94377">
        <ele>176.4</ele>
      </trkpt>
      <trkpt lat="46.65208" lon="4.94376">
        <ele>176.5</ele>
      </trkpt>
      <trkpt lat="46.65213" lon="4.94375">
        <ele>176.5</ele>
      </trkpt>
      <trkpt lat="46.65278" lon="4.94382">
        <ele>176.5</ele>
      </trkpt>
      <trkpt lat="46.65292" lon="4.9438">
        <ele>176.5</ele>
      </trkpt>
      <trkpt lat="46.65298" lon="4.9438">
        <ele>176.4</ele>
      </trkpt>
      <trkpt lat="46.65301" lon="4.94379">
        <ele>176.4</ele>
      </trkpt>
      <trkpt lat="46.65309" lon="4.94376">
        <ele>176.5</ele>
      </trkpt>
      <trkpt lat="46.65327" lon="4.94364">
        <ele>177</ele>
      </trkpt>
      <trkpt lat="46.65335" lon="4.94355">
        <ele>177.1</ele>
      </trkpt>
      <trkpt lat="46.6534" lon="4.94345">
        <ele>177.3</ele>
      </trkpt>
      <trkpt lat="46.65342" lon="4.94337">
        <ele>177.3</ele>
      </trkpt>
      <trkpt lat="46.65342" lon="4.94336">
        <ele>177.3</ele>
      </trkpt>
      <trkpt lat="46.65356" lon="4.94174">
        <ele>178.8</ele>
      </trkpt>
      <trkpt lat="46.65362" lon="4.94102">
        <ele>179.3</ele>
      </trkpt>
      <trkpt lat="46.65364" lon="4.94069">
        <ele>180</ele>
      </trkpt>
      <trkpt lat="46.65368" lon="4.93977">
        <ele>180</ele>
      </trkpt>
      <trkpt lat="46.65362" lon="4.9389">
        <ele>179</ele>
      </trkpt>
      <trkpt lat="46.6536" lon="4.93865">
        <ele>179.8</ele>
      </trkpt>
      <trkpt lat="46.65352" lon="4.93768">
        <ele>179</ele>
      </trkpt>
      <trkpt lat="46.65349" lon="4.93736">
        <ele>179</ele>
      </trkpt>
      <trkpt lat="46.65349" lon="4.93666">
        <ele>179</ele>
      </trkpt>
      <trkpt lat="46.6535" lon="4.93643">
        <ele>179.9</ele>
      </trkpt>
      <trkpt lat="46.65353" lon="4.9361">
        <ele>180</ele>
      </trkpt>
      <trkpt lat="46.65367" lon="4.93529">
        <ele>181</ele>
      </trkpt>
      <trkpt lat="46.65368" lon="4.93519">
        <ele>180.8</ele>
      </trkpt>
      <trkpt lat="46.6537" lon="4.93485">
        <ele>180.3</ele>
      </trkpt>
      <trkpt lat="46.65374" lon="4.93289">
        <ele>180</ele>
      </trkpt>
      <trkpt lat="46.65372" lon="4.93224">
        <ele>180</ele>
      </trkpt>
      <trkpt lat="46.65365" lon="4.93167">
        <ele>180</ele>
      </trkpt>
      <trkpt lat="46.65352" lon="4.93093">
        <ele>180</ele>
      </trkpt>
      <trkpt lat="46.65339" lon="4.93038">
        <ele>180</ele>
      </trkpt>
      <trkpt lat="46.6533" lon="4.9299">
        <ele>180</ele>
      </trkpt>
      <trkpt lat="46.65327" lon="4.92964">
        <ele>180</ele>
      </trkpt>
      <trkpt lat="46.65329" lon="4.92944">
        <ele>180</ele>
      </trkpt>
      <trkpt lat="46.65335" lon="4.92925">
        <ele>180</ele>
      </trkpt>
      <trkpt lat="46.6534" lon="4.92918">
        <ele>180</ele>
      </trkpt>
      <trkpt lat="46.65351" lon="4.92905">
        <ele>180</ele>
      </trkpt>
      <trkpt lat="46.6536" lon="4.92897">
        <ele>180</ele>
      </trkpt>
      <trkpt lat="46.65431" lon="4.92845">
        <ele>180</ele>
      </trkpt>
      <trkpt lat="46.65521" lon="4.92791">
        <ele>180</ele>
      </trkpt>
      <trkpt lat="46.65631" lon="4.92731">
        <ele>180.5</ele>
      </trkpt>
      <trkpt lat="46.65669" lon="4.92706">
        <ele>180.6</ele>
      </trkpt>
      <trkpt lat="46.65679" lon="4.92691">
        <ele>180.9</ele>
      </trkpt>
      <trkpt lat="46.65681" lon="4.92685">
        <ele>180.8</ele>
      </trkpt>
      <trkpt lat="46.65682" lon="4.92678">
        <ele>180.7</ele>
      </trkpt>
      <trkpt lat="46.65683" lon="4.92661">
        <ele>180.5</ele>
      </trkpt>
      <trkpt lat="46.65683" lon="4.92638">
        <ele>180</ele>
      </trkpt>
      <trkpt lat="46.65677" lon="4.92612">
        <ele>180</ele>
      </trkpt>
      <trkpt lat="46.65671" lon="4.92546">
        <ele>179.1</ele>
      </trkpt>
      <trkpt lat="46.65665" lon="4.92511">
        <ele>179</ele>
      </trkpt>
      <trkpt lat="46.65664" lon="4.92505">
        <ele>179</ele>
      </trkpt>
      <trkpt lat="46.65635" lon="4.92373">
        <ele>178.6</ele>
      </trkpt>
      <trkpt lat="46.65633" lon="4.92365">
        <ele>178.9</ele>
      </trkpt>
      <trkpt lat="46.65632" lon="4.9236">
        <ele>179</ele>
      </trkpt>
      <trkpt lat="46.6563" lon="4.92355">
        <ele>178.9</ele>
      </trkpt>
      <trkpt lat="46.65626" lon="4.92344">
        <ele>178.7</ele>
      </trkpt>
      <trkpt lat="46.65623" lon="4.92336">
        <ele>178.6</ele>
      </trkpt>
      <trkpt lat="46.65621" lon="4.9233">
        <ele>178.6</ele>
      </trkpt>
      <trkpt lat="46.65618" lon="4.92323">
        <ele>178.7</ele>
      </trkpt>
      <trkpt lat="46.65617" lon="4.92319">
        <ele>178.8</ele>
      </trkpt>
      <trkpt lat="46.65599" lon="4.92289">
        <ele>179</ele>
      </trkpt>
      <trkpt lat="46.65596" lon="4.92283">
        <ele>179</ele>
      </trkpt>
      <trkpt lat="46.65566" lon="4.92225">
        <ele>180</ele>
      </trkpt>
      <trkpt lat="46.65515" lon="4.92133">
        <ele>180</ele>
      </trkpt>
      <trkpt lat="46.65509" lon="4.92123">
        <ele>180</ele>
      </trkpt>
      <trkpt lat="46.65502" lon="4.9211">
        <ele>180</ele>
      </trkpt>
      <trkpt lat="46.65493" lon="4.91697">
        <ele>181.1</ele>
      </trkpt>
      <trkpt lat="46.65489" lon="4.91519">
        <ele>180</ele>
      </trkpt>
      <trkpt lat="46.65476" lon="4.90881">
        <ele>186</ele>
      </trkpt>
      <trkpt lat="46.65475" lon="4.90849">
        <ele>186</ele>
      </trkpt>
      <trkpt lat="46.65469" lon="4.9059">
        <ele>187</ele>
      </trkpt>
      <trkpt lat="46.65468" lon="4.90559">
        <ele>187</ele>
      </trkpt>
      <trkpt lat="46.65467" lon="4.90536">
        <ele>187.7</ele>
      </trkpt>
      <trkpt lat="46.65467" lon="4.90526">
        <ele>188</ele>
      </trkpt>
      <trkpt lat="46.65463" lon="4.9035">
        <ele>188</ele>
      </trkpt>
      <trkpt lat="46.6546" lon="4.90245">
        <ele>188</ele>
      </trkpt>
      <trkpt lat="46.6546" lon="4.90228">
        <ele>188</ele>
      </trkpt>
      <trkpt lat="46.65458" lon="4.9013">
        <ele>188</ele>
      </trkpt>
      <trkpt lat="46.65454" lon="4.89932">
        <ele>189</ele>
      </trkpt>
      <trkpt lat="46.65453" lon="4.89914">
        <ele>189</ele>
      </trkpt>
      <trkpt lat="46.65452" lon="4.8989">
        <ele>189</ele>
      </trkpt>
      <trkpt lat="46.65449" lon="4.89758">
        <ele>189</ele>
      </trkpt>
      <trkpt lat="46.65445" lon="4.89628">
        <ele>189</ele>
      </trkpt>
      <trkpt lat="46.6544" lon="4.89422">
        <ele>189</ele>
      </trkpt>
      <trkpt lat="46.65438" lon="4.89352">
        <ele>189</ele>
      </trkpt>
      <trkpt lat="46.65436" lon="4.89264">
        <ele>189</ele>
      </trkpt>
      <trkpt lat="46.65433" lon="4.89144">
        <ele>189</ele>
      </trkpt>
      <trkpt lat="46.65432" lon="4.89092">
        <ele>189</ele>
      </trkpt>
      <trkpt lat="46.6543" lon="4.89013">
        <ele>189</ele>
      </trkpt>
      <trkpt lat="46.65428" lon="4.88937">
        <ele>189</ele>
      </trkpt>
      <trkpt lat="46.65427" lon="4.88909">
        <ele>189.1</ele>
      </trkpt>
      <trkpt lat="46.65426" lon="4.88876">
        <ele>189.5</ele>
      </trkpt>
      <trkpt lat="46.65425" lon="4.88839">
        <ele>189.1</ele>
      </trkpt>
      <trkpt lat="46.65425" lon="4.88834">
        <ele>189</ele>
      </trkpt>
      <trkpt lat="46.65425" lon="4.88774">
        <ele>189.9</ele>
      </trkpt>
      <trkpt lat="46.65424" lon="4.88759">
        <ele>189.3</ele>
      </trkpt>
      <trkpt lat="46.65425" lon="4.88757">
        <ele>189.2</ele>
      </trkpt>
      <trkpt lat="46.65424" lon="4.8875">
        <ele>189</ele>
      </trkpt>
      <trkpt lat="46.65423" lon="4.88745">
        <ele>189</ele>
      </trkpt>
      <trkpt lat="46.6542" lon="4.88734">
        <ele>189</ele>
      </trkpt>
      <trkpt lat="46.6541" lon="4.88713">
        <ele>189</ele>
      </trkpt>
      <trkpt lat="46.65409" lon="4.88711">
        <ele>189</ele>
      </trkpt>
      <trkpt lat="46.65384" lon="4.88675">
        <ele>189</ele>
      </trkpt>
      <trkpt lat="46.6533" lon="4.886">
        <ele>190</ele>
      </trkpt>
      <trkpt lat="46.65285" lon="4.8854">
        <ele>190</ele>
      </trkpt>
      <trkpt lat="46.65263" lon="4.88511">
        <ele>190.3</ele>
      </trkpt>
      <trkpt lat="46.65251" lon="4.88493">
        <ele>191</ele>
      </trkpt>
      <trkpt lat="46.65243" lon="4.88478">
        <ele>191</ele>
      </trkpt>
      <trkpt lat="46.65221" lon="4.88404">
        <ele>191</ele>
      </trkpt>
      <trkpt lat="46.65216" lon="4.88379">
        <ele>191</ele>
      </trkpt>
      <trkpt lat="46.65215" lon="4.88364">
        <ele>191</ele>
      </trkpt>
      <trkpt lat="46.65219" lon="4.88338">
        <ele>191</ele>
      </trkpt>
      <trkpt lat="46.65226" lon="4.88319">
        <ele>191</ele>
      </trkpt>
      <trkpt lat="46.65232" lon="4.88306">
        <ele>191</ele>
      </trkpt>
      <trkpt lat="46.65234" lon="4.88303">
        <ele>191</ele>
      </trkpt>
      <trkpt lat="46.65254" lon="4.88274">
        <ele>191</ele>
      </trkpt>
      <trkpt lat="46.65257" lon="4.88269">
        <ele>191</ele>
      </trkpt>
      <trkpt lat="46.65259" lon="4.88266">
        <ele>191</ele>
      </trkpt>
      <trkpt lat="46.65264" lon="4.88257">
        <ele>191</ele>
      </trkpt>
      <trkpt lat="46.65278" lon="4.88222">
        <ele>191</ele>
      </trkpt>
      <trkpt lat="46.65285" lon="4.88197">
        <ele>191</ele>
      </trkpt>
      <trkpt lat="46.6529" lon="4.88168">
        <ele>191</ele>
      </trkpt>
      <trkpt lat="46.65315" lon="4.87995">
        <ele>192</ele>
      </trkpt>
      <trkpt lat="46.65315" lon="4.87975">
        <ele>192</ele>
      </trkpt>
      <trkpt lat="46.65311" lon="4.87962">
        <ele>192</ele>
      </trkpt>
      <trkpt lat="46.6531" lon="4.87957">
        <ele>192</ele>
      </trkpt>
      <trkpt lat="46.65298" lon="4.87938">
        <ele>192</ele>
      </trkpt>
      <trkpt lat="46.65286" lon="4.87921">
        <ele>192</ele>
      </trkpt>
      <trkpt lat="46.65255" lon="4.87889">
        <ele>192</ele>
      </trkpt>
      <trkpt lat="46.65244" lon="4.87877">
        <ele>192.1</ele>
      </trkpt>
      <trkpt lat="46.65204" lon="4.87833">
        <ele>192.7</ele>
      </trkpt>
      <trkpt lat="46.65203" lon="4.87832">
        <ele>192.7</ele>
      </trkpt>
      <trkpt lat="46.65158" lon="4.87783">
        <ele>193</ele>
      </trkpt>
      <trkpt lat="46.65154" lon="4.87779">
        <ele>193</ele>
      </trkpt>
      <trkpt lat="46.65138" lon="4.87761">
        <ele>193</ele>
      </trkpt>
      <trkpt lat="46.65126" lon="4.87748">
        <ele>193.4</ele>
      </trkpt>
      <trkpt lat="46.65095" lon="4.87714">
        <ele>193.7</ele>
      </trkpt>
      <trkpt lat="46.65069" lon="4.87682">
        <ele>194</ele>
      </trkpt>
      <trkpt lat="46.65059" lon="4.87667">
        <ele>194</ele>
      </trkpt>
      <trkpt lat="46.65014" lon="4.87581">
        <ele>194</ele>
      </trkpt>
      <trkpt lat="46.65012" lon="4.87579">
        <ele>194</ele>
      </trkpt>
      <trkpt lat="46.65009" lon="4.87574">
        <ele>194</ele>
      </trkpt>
      <trkpt lat="46.64925" lon="4.87425">
        <ele>195</ele>
      </trkpt>
      <trkpt lat="46.64909" lon="4.87393">
        <ele>196.5</ele>
      </trkpt>
      <trkpt lat="46.64907" lon="4.8739">
        <ele>196.6</ele>
      </trkpt>
      <trkpt lat="46.64903" lon="4.87379">
        <ele>196.9</ele>
      </trkpt>
      <trkpt lat="46.64892" lon="4.87387">
        <ele>196.3</ele>
      </trkpt>
      <trkpt lat="46.64892" lon="4.87387">
        <ele>196.2</ele>
      </trkpt>
      <trkpt lat="46.64838" lon="4.87439">
        <ele>195.7</ele>
      </trkpt>
      <trkpt lat="46.64765" lon="4.87507">
        <ele>195.4</ele>
      </trkpt>
      <trkpt lat="46.64763" lon="4.87509">
        <ele>195.3</ele>
      </trkpt>
      <trkpt lat="46.64753" lon="4.87516">
        <ele>195</ele>
      </trkpt>
      <trkpt lat="46.64753" lon="4.87516">
        <ele>195</ele>
      </trkpt>
      <trkpt lat="46.64741" lon="4.87525">
        <ele>195</ele>
      </trkpt>
      <trkpt lat="46.64718" lon="4.87533">
        <ele>195.2</ele>
      </trkpt>
      <trkpt lat="46.64683" lon="4.87541">
        <ele>196</ele>
      </trkpt>
      <trkpt lat="46.64681" lon="4.87542">
        <ele>196</ele>
      </trkpt>
      <trkpt lat="46.64669" lon="4.87542">
        <ele>196</ele>
      </trkpt>
      <trkpt lat="46.64669" lon="4.87538">
        <ele>196</ele>
      </trkpt>
      <trkpt lat="46.64666" lon="4.87519">
        <ele>196</ele>
      </trkpt>
      <trkpt lat="46.64664" lon="4.87508">
        <ele>196</ele>
      </trkpt>
      <trkpt lat="46.64659" lon="4.87462">
        <ele>196</ele>
      </trkpt>
      <trkpt lat="46.64656" lon="4.87433">
        <ele>195.8</ele>
      </trkpt>
      <trkpt lat="46.64652" lon="4.87404">
        <ele>195.8</ele>
      </trkpt>
      <trkpt lat="46.64647" lon="4.87367">
        <ele>197.2</ele>
      </trkpt>
      <trkpt lat="46.64646" lon="4.8736">
        <ele>197.4</ele>
      </trkpt>
      <trkpt lat="46.64645" lon="4.87356">
        <ele>197</ele>
      </trkpt>
      <trkpt lat="46.64645" lon="4.87351">
        <ele>196.6</ele>
      </trkpt>
      <trkpt lat="46.6464" lon="4.87328">
        <ele>195.3</ele>
      </trkpt>
      <trkpt lat="46.64634" lon="4.87293">
        <ele>196</ele>
      </trkpt>
      <trkpt lat="46.64627" lon="4.87257">
        <ele>196.8</ele>
      </trkpt>
      <trkpt lat="46.64615" lon="4.87213">
        <ele>197.3</ele>
      </trkpt>
      <trkpt lat="46.64611" lon="4.87183">
        <ele>197.6</ele>
      </trkpt>
      <trkpt lat="46.64601" lon="4.8718">
        <ele>197.7</ele>
      </trkpt>
      <trkpt lat="46.64598" lon="4.87166">
        <ele>197.5</ele>
      </trkpt>
      <trkpt lat="46.64594" lon="4.8713">
        <ele>197</ele>
      </trkpt>
      <trkpt lat="46.64594" lon="4.87058">
        <ele>197</ele>
      </trkpt>
      <trkpt lat="46.64599" lon="4.86991">
        <ele>197.6</ele>
      </trkpt>
      <trkpt lat="46.64605" lon="4.86918">
        <ele>198</ele>
      </trkpt>
      <trkpt lat="46.64605" lon="4.86905">
        <ele>198.2</ele>
      </trkpt>
      <trkpt lat="46.64605" lon="4.86836">
        <ele>198.4</ele>
      </trkpt>
      <trkpt lat="46.64605" lon="4.86826">
        <ele>198.4</ele>
      </trkpt>
      <trkpt lat="46.64605" lon="4.86813">
        <ele>198.3</ele>
      </trkpt>
      <trkpt lat="46.64601" lon="4.86769">
        <ele>199</ele>
      </trkpt>
      <trkpt lat="46.64599" lon="4.86745">
        <ele>199.2</ele>
      </trkpt>
      <trkpt lat="46.64595" lon="4.86733">
        <ele>199.6</ele>
      </trkpt>
      <trkpt lat="46.64593" lon="4.86727">
        <ele>199.8</ele>
      </trkpt>
      <trkpt lat="46.64595" lon="4.86725">
        <ele>199.9</ele>
      </trkpt>
      <trkpt lat="46.64596" lon="4.86722">
        <ele>200</ele>
      </trkpt>
      <trkpt lat="46.64596" lon="4.86719">
        <ele>200.1</ele>
      </trkpt>
      <trkpt lat="46.64595" lon="4.86716">
        <ele>200.2</ele>
      </trkpt>
      <trkpt lat="46.64594" lon="4.86715">
        <ele>200.3</ele>
      </trkpt>
      <trkpt lat="46.64593" lon="4.86713">
        <ele>200.3</ele>
      </trkpt>
      <trkpt lat="46.64591" lon="4.86712">
        <ele>200.4</ele>
      </trkpt>
      <trkpt lat="46.64589" lon="4.86713">
        <ele>200.4</ele>
      </trkpt>
      <trkpt lat="46.64587" lon="4.86713">
        <ele>200.3</ele>
      </trkpt>
      <trkpt lat="46.64586" lon="4.86715">
        <ele>200.3</ele>
      </trkpt>
      <trkpt lat="46.64585" lon="4.86717">
        <ele>200.2</ele>
      </trkpt>
      <trkpt lat="46.64585" lon="4.86721">
        <ele>200</ele>
      </trkpt>
      <trkpt lat="46.64581" lon="4.86723">
        <ele>200.1</ele>
      </trkpt>
      <trkpt lat="46.64578" lon="4.86724">
        <ele>200.1</ele>
      </trkpt>
      <trkpt lat="46.64576" lon="4.86725">
        <ele>200.2</ele>
      </trkpt>
      <trkpt lat="46.64572" lon="4.86725">
        <ele>200.4</ele>
      </trkpt>
      <trkpt lat="46.64551" lon="4.86725">
        <ele>201.2</ele>
      </trkpt>
      <trkpt lat="46.6454" lon="4.86723">
        <ele>201.6</ele>
      </trkpt>
      <trkpt lat="46.64493" lon="4.86715">
        <ele>203.7</ele>
      </trkpt>
      <trkpt lat="46.64467" lon="4.86713">
        <ele>204.3</ele>
      </trkpt>
      <trkpt lat="46.64446" lon="4.86713">
        <ele>204.3</ele>
      </trkpt>
      <trkpt lat="46.64425" lon="4.86713">
        <ele>204.3</ele>
      </trkpt>
      <trkpt lat="46.644" lon="4.86712">
        <ele>205</ele>
      </trkpt>
      <trkpt lat="46.64391" lon="4.8671">
        <ele>205.4</ele>
      </trkpt>
      <trkpt lat="46.64385" lon="4.86706">
        <ele>205.6</ele>
      </trkpt>
      <trkpt lat="46.64374" lon="4.8673">
        <ele>204.9</ele>
      </trkpt>
      <trkpt lat="46.64361" lon="4.86719">
        <ele>205.1</ele>
      </trkpt>
      <trkpt lat="46.64344" lon="4.86714">
        <ele>205.3</ele>
      </trkpt>
      <trkpt lat="46.64299" lon="4.86706">
        <ele>205.7</ele>
      </trkpt>
      <trkpt lat="46.64276" lon="4.86702">
        <ele>206</ele>
      </trkpt>
      <trkpt lat="46.64232" lon="4.86695">
        <ele>206.6</ele>
      </trkpt>
      <trkpt lat="46.64216" lon="4.86692">
        <ele>207</ele>
      </trkpt>
      <trkpt lat="46.64205" lon="4.86688">
        <ele>207</ele>
      </trkpt>
      <trkpt lat="46.64203" lon="4.86688">
        <ele>207</ele>
      </trkpt>
      <trkpt lat="46.64175" lon="4.86678">
        <ele>207.7</ele>
      </trkpt>
      <trkpt lat="46.64168" lon="4.86675">
        <ele>207.9</ele>
      </trkpt>
      <trkpt lat="46.64128" lon="4.86656">
        <ele>208.2</ele>
      </trkpt>
      <trkpt lat="46.64107" lon="4.86647">
        <ele>208.8</ele>
      </trkpt>
      <trkpt lat="46.64075" lon="4.86633">
        <ele>209</ele>
      </trkpt>
      <trkpt lat="46.64065" lon="4.86629">
        <ele>209</ele>
      </trkpt>
      <trkpt lat="46.64056" lon="4.86625">
        <ele>209</ele>
      </trkpt>
      <trkpt lat="46.64048" lon="4.86621">
        <ele>209</ele>
      </trkpt>
      <trkpt lat="46.64046" lon="4.8662">
        <ele>209</ele>
      </trkpt>
      <trkpt lat="46.64044" lon="4.8662">
        <ele>209</ele>
      </trkpt>
      <trkpt lat="46.64024" lon="4.86612">
        <ele>209</ele>
      </trkpt>
      <trkpt lat="46.64016" lon="4.86612">
        <ele>209</ele>
      </trkpt>
      <trkpt lat="46.64008" lon="4.86614">
        <ele>209</ele>
      </trkpt>
      <trkpt lat="46.63977" lon="4.86633">
        <ele>209</ele>
      </trkpt>
      <trkpt lat="46.63956" lon="4.86649">
        <ele>209</ele>
      </trkpt>
      <trkpt lat="46.63955" lon="4.86638">
        <ele>209</ele>
      </trkpt>
      <trkpt lat="46.63954" lon="4.8663">
        <ele>209</ele>
      </trkpt>
      <trkpt lat="46.63952" lon="4.86591">
        <ele>209.7</ele>
      </trkpt>
      <trkpt lat="46.63951" lon="4.865">
        <ele>212</ele>
      </trkpt>
      <trkpt lat="46.63952" lon="4.86489">
        <ele>212</ele>
      </trkpt>
      <trkpt lat="46.6395" lon="4.86489">
        <ele>212</ele>
      </trkpt>
      <trkpt lat="46.63948" lon="4.86487">
        <ele>212</ele>
      </trkpt>
      <trkpt lat="46.63947" lon="4.86483">
        <ele>212</ele>
      </trkpt>
      <trkpt lat="46.63946" lon="4.86481">
        <ele>212</ele>
      </trkpt>
      <trkpt lat="46.63946" lon="4.86477">
        <ele>212</ele>
      </trkpt>
      <trkpt lat="46.63945" lon="4.86473">
        <ele>212</ele>
      </trkpt>
      <trkpt lat="46.63945" lon="4.86471">
        <ele>212</ele>
      </trkpt>
      <trkpt lat="46.63946" lon="4.86467">
        <ele>212.2</ele>
      </trkpt>
      <trkpt lat="46.63947" lon="4.86465">
        <ele>212.3</ele>
      </trkpt>
      <trkpt lat="46.63943" lon="4.8646">
        <ele>212.5</ele>
      </trkpt>
      <trkpt lat="46.63937" lon="4.86456">
        <ele>213</ele>
      </trkpt>
      <trkpt lat="46.63927" lon="4.86456">
        <ele>213.5</ele>
      </trkpt>
      <trkpt lat="46.63924" lon="4.86456">
        <ele>213.6</ele>
      </trkpt>
      <trkpt lat="46.63904" lon="4.86458">
        <ele>214.7</ele>
      </trkpt>
      <trkpt lat="46.63891" lon="4.86461">
        <ele>215.3</ele>
      </trkpt>
      <trkpt lat="46.63884" lon="4.86462">
        <ele>215.2</ele>
      </trkpt>
      <trkpt lat="46.63854" lon="4.86462">
        <ele>214</ele>
      </trkpt>
      <trkpt lat="46.63845" lon="4.86462">
        <ele>213.2</ele>
      </trkpt>
      <trkpt lat="46.63847" lon="4.86435">
        <ele>214.3</ele>
      </trkpt>
      <trkpt lat="46.63849" lon="4.86393">
        <ele>215.5</ele>
      </trkpt>
      <trkpt lat="46.63849" lon="4.86376">
        <ele>216</ele>
      </trkpt>
      <trkpt lat="46.63846" lon="4.86364">
        <ele>216.3</ele>
      </trkpt>
      <trkpt lat="46.63838" lon="4.86354">
        <ele>216.7</ele>
      </trkpt>
      <trkpt lat="46.63788" lon="4.86325">
        <ele>217.1</ele>
      </trkpt>
      <trkpt lat="46.63769" lon="4.86314">
        <ele>216.9</ele>
      </trkpt>
      <trkpt lat="46.63716" lon="4.8627">
        <ele>217.3</ele>
      </trkpt>
      <trkpt lat="46.63692" lon="4.86256">
        <ele>218.4</ele>
      </trkpt>
      <trkpt lat="46.63674" lon="4.86243">
        <ele>218.1</ele>
      </trkpt>
      <trkpt lat="46.63669" lon="4.86239">
        <ele>218.3</ele>
      </trkpt>
      <trkpt lat="46.63642" lon="4.86208">
        <ele>219.2</ele>
      </trkpt>
      <trkpt lat="46.63624" lon="4.86179">
        <ele>219.7</ele>
      </trkpt>
      <trkpt lat="46.63613" lon="4.86166">
        <ele>219.3</ele>
      </trkpt>
      <trkpt lat="46.63585" lon="4.86128">
        <ele>220.5</ele>
      </trkpt>
      <trkpt lat="46.63587" lon="4.86119">
        <ele>221</ele>
      </trkpt>
      <trkpt lat="46.63587" lon="4.86116">
        <ele>221.1</ele>
      </trkpt>
      <trkpt lat="46.63588" lon="4.86104">
        <ele>221.6</ele>
      </trkpt>
      <trkpt lat="46.63576" lon="4.86097">
        <ele>221.5</ele>
      </trkpt>
      <trkpt lat="46.63561" lon="4.86086">
        <ele>221.9</ele>
      </trkpt>
      <trkpt lat="46.63544" lon="4.86068">
        <ele>222.1</ele>
      </trkpt>
      <trkpt lat="46.63539" lon="4.86066">
        <ele>222</ele>
      </trkpt>
      <trkpt lat="46.63527" lon="4.86076">
        <ele>221.3</ele>
      </trkpt>
      <trkpt lat="46.63522" lon="4.86079">
        <ele>221.2</ele>
      </trkpt>
      <trkpt lat="46.63513" lon="4.8608">
        <ele>221.1</ele>
      </trkpt>
      <trkpt lat="46.63501" lon="4.8608">
        <ele>221.1</ele>
      </trkpt>
      <trkpt lat="46.63496" lon="4.86082">
        <ele>221.2</ele>
      </trkpt>
      <trkpt lat="46.63495" lon="4.86083">
        <ele>221.2</ele>
      </trkpt>
      <trkpt lat="46.6349" lon="4.86089">
        <ele>221.2</ele>
      </trkpt>
      <trkpt lat="46.63467" lon="4.86118">
        <ele>222</ele>
      </trkpt>
      <trkpt lat="46.63443" lon="4.86141">
        <ele>223.1</ele>
      </trkpt>
      <trkpt lat="46.63432" lon="4.86152">
        <ele>224.3</ele>
      </trkpt>
      <trkpt lat="46.6342" lon="4.86127">
        <ele>224.4</ele>
      </trkpt>
      <trkpt lat="46.63407" lon="4.86107">
        <ele>225.3</ele>
      </trkpt>
      <trkpt lat="46.63395" lon="4.86078">
        <ele>225.4</ele>
      </trkpt>
      <trkpt lat="46.63377" lon="4.86019">
        <ele>230.2</ele>
      </trkpt>
      <trkpt lat="46.63375" lon="4.86011">
        <ele>232.1</ele>
      </trkpt>
      <trkpt lat="46.63373" lon="4.86006">
        <ele>233.2</ele>
      </trkpt>
      <trkpt lat="46.63372" lon="4.86002">
        <ele>234.1</ele>
      </trkpt>
      <trkpt lat="46.63369" lon="4.85991">
        <ele>233.5</ele>
      </trkpt>
      <trkpt lat="46.63366" lon="4.8598">
        <ele>232.3</ele>
      </trkpt>
      <trkpt lat="46.63364" lon="4.85971">
        <ele>231.1</ele>
      </trkpt>
      <trkpt lat="46.63359" lon="4.85955">
        <ele>228.7</ele>
      </trkpt>
      <trkpt lat="46.63356" lon="4.85943">
        <ele>228</ele>
      </trkpt>
      <trkpt lat="46.63351" lon="4.85926">
        <ele>228.9</ele>
      </trkpt>
      <trkpt lat="46.63344" lon="4.859">
        <ele>229.3</ele>
      </trkpt>
      <trkpt lat="46.63334" lon="4.85866">
        <ele>229.1</ele>
      </trkpt>
      <trkpt lat="46.63323" lon="4.85842">
        <ele>229.6</ele>
      </trkpt>
      <trkpt lat="46.63315" lon="4.85832">
        <ele>229.9</ele>
      </trkpt>
      <trkpt lat="46.63308" lon="4.85813">
        <ele>230</ele>
      </trkpt>
      <trkpt lat="46.63284" lon="4.85773">
        <ele>231.2</ele>
      </trkpt>
      <trkpt lat="46.6327" lon="4.85751">
        <ele>232.1</ele>
      </trkpt>
      <trkpt lat="46.63257" lon="4.85719">
        <ele>231.4</ele>
      </trkpt>
      <trkpt lat="46.63247" lon="4.85694">
        <ele>231.2</ele>
      </trkpt>
      <trkpt lat="46.63243" lon="4.85684">
        <ele>231.1</ele>
      </trkpt>
      <trkpt lat="46.63234" lon="4.85663">
        <ele>231</ele>
      </trkpt>
      <trkpt lat="46.63215" lon="4.85616">
        <ele>230.5</ele>
      </trkpt>
      <trkpt lat="46.63203" lon="4.85575">
        <ele>230.7</ele>
      </trkpt>
    </trkseg>
  </trk>
  <trk>
    <name><![CDATA[22_LIAISON_LAIVES_RUFFEY_VERT]]></name>
    <extensions>
      <line xmlns="http://www.topografix.com/GPX/gpx_style/0/2">
        <color>308a00</color>
        <width>4</width>
      </line>
    </extensions>
    <trkseg>
      <trkpt lat="46.67169" lon="4.82994">
        <ele>185</ele>
        <time>2020-09-21T14:30:06Z</time>
      </trkpt>
      <trkpt lat="46.67153" lon="4.82954">
        <ele>186</ele>
        <time>2020-09-21T14:30:13Z</time>
      </trkpt>
      <trkpt lat="46.66986" lon="4.82576">
        <ele>185</ele>
        <time>2020-09-21T14:31:25Z</time>
      </trkpt>
      <trkpt lat="46.66964" lon="4.82527">
        <ele>184</ele>
        <time>2020-09-21T14:31:35Z</time>
      </trkpt>
      <trkpt lat="46.6688" lon="4.82333">
        <ele>184</ele>
        <time>2020-09-21T14:32:12Z</time>
      </trkpt>
      <trkpt lat="46.6684" lon="4.82242">
        <ele>186</ele>
        <time>2020-09-21T14:32:29Z</time>
      </trkpt>
      <trkpt lat="46.66785" lon="4.82111">
        <ele>184</ele>
        <time>2020-09-21T14:32:54Z</time>
      </trkpt>
      <trkpt lat="46.66761" lon="4.82036">
        <ele>181</ele>
        <time>2020-09-21T14:33:07Z</time>
      </trkpt>
      <trkpt lat="46.66741" lon="4.82046">
        <ele>180</ele>
        <time>2020-09-21T14:33:12Z</time>
      </trkpt>
      <trkpt lat="46.6668" lon="4.82078">
        <ele>179</ele>
        <time>2020-09-21T14:33:27Z</time>
      </trkpt>
      <trkpt lat="46.66664" lon="4.82084">
        <ele>179</ele>
        <time>2020-09-21T14:33:31Z</time>
      </trkpt>
      <trkpt lat="46.66604" lon="4.82111">
        <ele>180</ele>
        <time>2020-09-21T14:33:45Z</time>
      </trkpt>
      <trkpt lat="46.66405" lon="4.82192">
        <ele>178</ele>
        <time>2020-09-21T14:34:34Z</time>
      </trkpt>
      <trkpt lat="46.66294" lon="4.82237">
        <ele>179</ele>
        <time>2020-09-21T14:35:01Z</time>
      </trkpt>
      <trkpt lat="46.66255" lon="4.82255">
        <ele>181</ele>
        <time>2020-09-21T14:35:10Z</time>
      </trkpt>
      <trkpt lat="46.66241" lon="4.82264">
        <ele>181</ele>
        <time>2020-09-21T14:35:14Z</time>
      </trkpt>
      <trkpt lat="46.66068" lon="4.824">
        <ele>182</ele>
        <time>2020-09-21T14:36:00Z</time>
      </trkpt>
      <trkpt lat="46.66046" lon="4.8242">
        <ele>182</ele>
        <time>2020-09-21T14:36:06Z</time>
      </trkpt>
      <trkpt lat="46.66004" lon="4.82467">
        <ele>181</ele>
        <time>2020-09-21T14:36:18Z</time>
      </trkpt>
      <trkpt lat="46.65987" lon="4.82487">
        <ele>181</ele>
        <time>2020-09-21T14:36:23Z</time>
      </trkpt>
      <trkpt lat="46.6577" lon="4.82737">
        <ele>180</ele>
        <time>2020-09-21T14:37:28Z</time>
      </trkpt>
      <trkpt lat="46.65732" lon="4.82781">
        <ele>180</ele>
        <time>2020-09-21T14:37:39Z</time>
      </trkpt>
      <trkpt lat="46.65688" lon="4.8282">
        <ele>180</ele>
        <time>2020-09-21T14:37:51Z</time>
      </trkpt>
      <trkpt lat="46.6568" lon="4.82825">
        <ele>180</ele>
        <time>2020-09-21T14:37:53Z</time>
      </trkpt>
      <trkpt lat="46.65713" lon="4.82901">
        <ele>179</ele>
        <time>2020-09-21T14:38:08Z</time>
      </trkpt>
      <trkpt lat="46.65714" lon="4.82904">
        <ele>179</ele>
        <time>2020-09-21T14:38:08Z</time>
      </trkpt>
      <trkpt lat="46.65731" lon="4.82923">
        <ele>178</ele>
        <time>2020-09-21T14:38:13Z</time>
      </trkpt>
      <trkpt lat="46.65788" lon="4.82981">
        <ele>178</ele>
        <time>2020-09-21T14:38:29Z</time>
      </trkpt>
      <trkpt lat="46.65803" lon="4.83">
        <ele>178</ele>
        <time>2020-09-21T14:38:34Z</time>
      </trkpt>
      <trkpt lat="46.6581" lon="4.83013">
        <ele>178</ele>
        <time>2020-09-21T14:38:37Z</time>
      </trkpt>
      <trkpt lat="46.65817" lon="4.83035">
        <ele>179</ele>
        <time>2020-09-21T14:38:40Z</time>
      </trkpt>
      <trkpt lat="46.65832" lon="4.83123">
        <ele>179</ele>
        <time>2020-09-21T14:38:55Z</time>
      </trkpt>
      <trkpt lat="46.65835" lon="4.8313">
        <ele>180</ele>
        <time>2020-09-21T14:38:56Z</time>
      </trkpt>
      <trkpt lat="46.65876" lon="4.83169">
        <ele>179</ele>
        <time>2020-09-21T14:39:08Z</time>
      </trkpt>
      <trkpt lat="46.65951" lon="4.83228">
        <ele>179</ele>
        <time>2020-09-21T14:39:28Z</time>
      </trkpt>
      <trkpt lat="46.65979" lon="4.8325">
        <ele>179</ele>
        <time>2020-09-21T14:39:35Z</time>
      </trkpt>
      <trkpt lat="46.65987" lon="4.83247">
        <ele>179</ele>
        <time>2020-09-21T14:39:37Z</time>
      </trkpt>
      <trkpt lat="46.66089" lon="4.83113">
        <ele>178</ele>
        <time>2020-09-21T14:40:09Z</time>
      </trkpt>
      <trkpt lat="46.66092" lon="4.83108">
        <ele>178</ele>
        <time>2020-09-21T14:40:10Z</time>
      </trkpt>
      <trkpt lat="46.66096" lon="4.83101">
        <ele>178</ele>
        <time>2020-09-21T14:40:12Z</time>
      </trkpt>
      <trkpt lat="46.66162" lon="4.82997">
        <ele>178</ele>
        <time>2020-09-21T14:40:34Z</time>
      </trkpt>
      <trkpt lat="46.66201" lon="4.8293">
        <ele>180</ele>
        <time>2020-09-21T14:40:48Z</time>
      </trkpt>
      <trkpt lat="46.66208" lon="4.82921">
        <ele>181</ele>
        <time>2020-09-21T14:40:51Z</time>
      </trkpt>
      <trkpt lat="46.66211" lon="4.8292">
        <ele>181</ele>
        <time>2020-09-21T14:40:51Z</time>
      </trkpt>
      <trkpt lat="46.66218" lon="4.82923">
        <ele>181</ele>
        <time>2020-09-21T14:40:53Z</time>
      </trkpt>
      <trkpt lat="46.66225" lon="4.82938">
        <ele>181</ele>
        <time>2020-09-21T14:40:56Z</time>
      </trkpt>
      <trkpt lat="46.6624" lon="4.82977">
        <ele>181</ele>
        <time>2020-09-21T14:41:03Z</time>
      </trkpt>
      <trkpt lat="46.6625" lon="4.82996">
        <ele>181</ele>
        <time>2020-09-21T14:41:07Z</time>
      </trkpt>
      <trkpt lat="46.66263" lon="4.83013">
        <ele>181</ele>
        <time>2020-09-21T14:41:11Z</time>
      </trkpt>
      <trkpt lat="46.66363" lon="4.8313">
        <ele>181</ele>
        <time>2020-09-21T14:41:41Z</time>
      </trkpt>
      <trkpt lat="46.66374" lon="4.83135">
        <ele>181</ele>
        <time>2020-09-21T14:41:44Z</time>
      </trkpt>
      <trkpt lat="46.66433" lon="4.83147">
        <ele>180</ele>
        <time>2020-09-21T14:41:58Z</time>
      </trkpt>
      <trkpt lat="46.66443" lon="4.83151">
        <ele>180</ele>
        <time>2020-09-21T14:42:00Z</time>
      </trkpt>
      <trkpt lat="46.66447" lon="4.83157">
        <ele>180</ele>
        <time>2020-09-21T14:42:01Z</time>
      </trkpt>
      <trkpt lat="46.66449" lon="4.83166">
        <ele>179</ele>
        <time>2020-09-21T14:42:03Z</time>
      </trkpt>
      <trkpt lat="46.6646" lon="4.83308">
        <ele>178</ele>
        <time>2020-09-21T14:42:26Z</time>
      </trkpt>
      <trkpt lat="46.66471" lon="4.83389">
        <ele>178</ele>
        <time>2020-09-21T14:42:39Z</time>
      </trkpt>
      <trkpt lat="46.66555" lon="4.83916">
        <ele>176</ele>
        <time>2020-09-21T14:44:06Z</time>
      </trkpt>
      <trkpt lat="46.6656" lon="4.83954">
        <ele>177</ele>
        <time>2020-09-21T14:44:12Z</time>
      </trkpt>
      <trkpt lat="46.66564" lon="4.83962">
        <ele>177</ele>
        <time>2020-09-21T14:44:13Z</time>
      </trkpt>
      <trkpt lat="46.66568" lon="4.83967">
        <ele>177</ele>
        <time>2020-09-21T14:44:15Z</time>
      </trkpt>
      <trkpt lat="46.66562" lon="4.83995">
        <ele>177</ele>
        <time>2020-09-21T14:44:19Z</time>
      </trkpt>
      <trkpt lat="46.66558" lon="4.84035">
        <ele>177</ele>
        <time>2020-09-21T14:44:26Z</time>
      </trkpt>
      <trkpt lat="46.6655" lon="4.84099">
        <ele>177</ele>
        <time>2020-09-21T14:44:36Z</time>
      </trkpt>
      <trkpt lat="46.66542" lon="4.84132">
        <ele>178</ele>
        <time>2020-09-21T14:44:42Z</time>
      </trkpt>
      <trkpt lat="46.66542" lon="4.84133">
        <ele>178</ele>
        <time>2020-09-21T14:44:42Z</time>
      </trkpt>
      <trkpt lat="46.66535" lon="4.84146">
        <ele>178</ele>
        <time>2020-09-21T14:44:45Z</time>
      </trkpt>
      <trkpt lat="46.66505" lon="4.842">
        <ele>179</ele>
        <time>2020-09-21T14:44:56Z</time>
      </trkpt>
      <trkpt lat="46.66489" lon="4.84226">
        <ele>179</ele>
        <time>2020-09-21T14:45:01Z</time>
      </trkpt>
      <trkpt lat="46.66477" lon="4.84245">
        <ele>179</ele>
        <time>2020-09-21T14:45:06Z</time>
      </trkpt>
      <trkpt lat="46.6646" lon="4.84271">
        <ele>179</ele>
        <time>2020-09-21T14:45:11Z</time>
      </trkpt>
      <trkpt lat="46.66436" lon="4.843">
        <ele>179</ele>
        <time>2020-09-21T14:45:19Z</time>
      </trkpt>
      <trkpt lat="46.66419" lon="4.84323">
        <ele>179</ele>
        <time>2020-09-21T14:45:24Z</time>
      </trkpt>
      <trkpt lat="46.66389" lon="4.84367">
        <ele>179</ele>
        <time>2020-09-21T14:45:34Z</time>
      </trkpt>
      <trkpt lat="46.66367" lon="4.844">
        <ele>179</ele>
        <time>2020-09-21T14:45:41Z</time>
      </trkpt>
      <trkpt lat="46.66365" lon="4.84404">
        <ele>180</ele>
        <time>2020-09-21T14:45:42Z</time>
      </trkpt>
      <trkpt lat="46.66332" lon="4.84467">
        <ele>180</ele>
        <time>2020-09-21T14:45:55Z</time>
      </trkpt>
      <trkpt lat="46.66306" lon="4.84535">
        <ele>180</ele>
        <time>2020-09-21T14:46:07Z</time>
      </trkpt>
      <trkpt lat="46.66293" lon="4.84559">
        <ele>180</ele>
        <time>2020-09-21T14:46:12Z</time>
      </trkpt>
      <trkpt lat="46.66282" lon="4.84568">
        <ele>180</ele>
        <time>2020-09-21T14:46:15Z</time>
      </trkpt>
      <trkpt lat="46.66196" lon="4.84599">
        <ele>180</ele>
        <time>2020-09-21T14:46:36Z</time>
      </trkpt>
      <trkpt lat="46.66169" lon="4.84605">
        <ele>180</ele>
        <time>2020-09-21T14:46:42Z</time>
      </trkpt>
      <trkpt lat="46.66138" lon="4.8461">
        <ele>180</ele>
        <time>2020-09-21T14:46:50Z</time>
      </trkpt>
      <trkpt lat="46.66102" lon="4.8462">
        <ele>179</ele>
        <time>2020-09-21T14:46:58Z</time>
      </trkpt>
      <trkpt lat="46.66087" lon="4.84629">
        <ele>180</ele>
        <time>2020-09-21T14:47:02Z</time>
      </trkpt>
      <trkpt lat="46.66076" lon="4.84638">
        <ele>180</ele>
        <time>2020-09-21T14:47:05Z</time>
      </trkpt>
      <trkpt lat="46.66042" lon="4.84669">
        <ele>180</ele>
        <time>2020-09-21T14:47:14Z</time>
      </trkpt>
      <trkpt lat="46.66037" lon="4.84677">
        <ele>179</ele>
        <time>2020-09-21T14:47:16Z</time>
      </trkpt>
      <trkpt lat="46.65998" lon="4.84718">
        <ele>180</ele>
        <time>2020-09-21T14:47:27Z</time>
      </trkpt>
      <trkpt lat="46.65971" lon="4.84745">
        <ele>182</ele>
        <time>2020-09-21T14:47:35Z</time>
      </trkpt>
      <trkpt lat="46.65911" lon="4.84788">
        <ele>184</ele>
        <time>2020-09-21T14:47:50Z</time>
      </trkpt>
      <trkpt lat="46.65899" lon="4.84793">
        <ele>184</ele>
        <time>2020-09-21T14:47:53Z</time>
      </trkpt>
      <trkpt lat="46.65878" lon="4.84798">
        <ele>185</ele>
        <time>2020-09-21T14:47:58Z</time>
      </trkpt>
      <trkpt lat="46.65817" lon="4.84801">
        <ele>188</ele>
        <time>2020-09-21T14:48:13Z</time>
      </trkpt>
      <trkpt lat="46.65811" lon="4.84801">
        <ele>188</ele>
        <time>2020-09-21T14:48:14Z</time>
      </trkpt>
      <trkpt lat="46.65733" lon="4.84811">
        <ele>189</ele>
        <time>2020-09-21T14:48:32Z</time>
      </trkpt>
      <trkpt lat="46.65678" lon="4.84821">
        <ele>189</ele>
        <time>2020-09-21T14:48:45Z</time>
      </trkpt>
      <trkpt lat="46.65649" lon="4.84834">
        <ele>189</ele>
        <time>2020-09-21T14:48:52Z</time>
      </trkpt>
      <trkpt lat="46.65642" lon="4.8484">
        <ele>189</ele>
        <time>2020-09-21T14:48:54Z</time>
      </trkpt>
      <trkpt lat="46.65614" lon="4.84855">
        <ele>189</ele>
        <time>2020-09-21T14:49:01Z</time>
      </trkpt>
      <trkpt lat="46.65506" lon="4.84897">
        <ele>189</ele>
        <time>2020-09-21T14:49:27Z</time>
      </trkpt>
      <trkpt lat="46.65417" lon="4.84931">
        <ele>188</ele>
        <time>2020-09-21T14:49:49Z</time>
      </trkpt>
      <trkpt lat="46.65373" lon="4.84954">
        <ele>188</ele>
        <time>2020-09-21T14:50:00Z</time>
      </trkpt>
      <trkpt lat="46.65361" lon="4.84963">
        <ele>188</ele>
        <time>2020-09-21T14:50:03Z</time>
      </trkpt>
      <trkpt lat="46.65343" lon="4.84976">
        <ele>188</ele>
        <time>2020-09-21T14:50:07Z</time>
      </trkpt>
      <trkpt lat="46.65241" lon="4.8508">
        <ele>190</ele>
        <time>2020-09-21T14:50:37Z</time>
      </trkpt>
      <trkpt lat="46.65235" lon="4.85086">
        <ele>190</ele>
        <time>2020-09-21T14:50:38Z</time>
      </trkpt>
      <trkpt lat="46.65225" lon="4.85094">
        <ele>190</ele>
        <time>2020-09-21T14:50:41Z</time>
      </trkpt>
      <trkpt lat="46.65119" lon="4.8518">
        <ele>192</ele>
        <time>2020-09-21T14:51:09Z</time>
      </trkpt>
      <trkpt lat="46.65107" lon="4.85177">
        <ele>192</ele>
        <time>2020-09-21T14:51:12Z</time>
      </trkpt>
      <trkpt lat="46.65099" lon="4.85168">
        <ele>192</ele>
        <time>2020-09-21T14:51:14Z</time>
      </trkpt>
      <trkpt lat="46.65097" lon="4.85165">
        <ele>192</ele>
        <time>2020-09-21T14:51:15Z</time>
      </trkpt>
      <trkpt lat="46.6507" lon="4.8509">
        <ele>190</ele>
        <time>2020-09-21T14:51:29Z</time>
      </trkpt>
      <trkpt lat="46.65037" lon="4.8498">
        <ele>192</ele>
        <time>2020-09-21T14:51:48Z</time>
      </trkpt>
      <trkpt lat="46.65001" lon="4.84864">
        <ele>191</ele>
        <time>2020-09-21T14:52:08Z</time>
      </trkpt>
      <trkpt lat="46.64989" lon="4.84837">
        <ele>191</ele>
        <time>2020-09-21T14:52:14Z</time>
      </trkpt>
      <trkpt lat="46.64983" lon="4.84827">
        <ele>191</ele>
        <time>2020-09-21T14:52:16Z</time>
      </trkpt>
      <trkpt lat="46.64975" lon="4.84806">
        <ele>192</ele>
        <time>2020-09-21T14:52:19Z</time>
      </trkpt>
      <trkpt lat="46.64952" lon="4.84759">
        <ele>192</ele>
        <time>2020-09-21T14:52:29Z</time>
      </trkpt>
      <trkpt lat="46.64942" lon="4.84746">
        <ele>192</ele>
        <time>2020-09-21T14:52:32Z</time>
      </trkpt>
      <trkpt lat="46.64936" lon="4.84738">
        <ele>192</ele>
        <time>2020-09-21T14:52:34Z</time>
      </trkpt>
      <trkpt lat="46.64912" lon="4.8472">
        <ele>192</ele>
        <time>2020-09-21T14:52:40Z</time>
      </trkpt>
      <trkpt lat="46.64891" lon="4.84703">
        <ele>192</ele>
        <time>2020-09-21T14:52:46Z</time>
      </trkpt>
      <trkpt lat="46.64872" lon="4.8468">
        <ele>192</ele>
        <time>2020-09-21T14:52:51Z</time>
      </trkpt>
      <trkpt lat="46.6482" lon="4.84593">
        <ele>193</ele>
        <time>2020-09-21T14:53:10Z</time>
      </trkpt>
      <trkpt lat="46.64778" lon="4.84524">
        <ele>193</ele>
        <time>2020-09-21T14:53:25Z</time>
      </trkpt>
      <trkpt lat="46.64791" lon="4.84506">
        <ele>193</ele>
        <time>2020-09-21T14:53:29Z</time>
      </trkpt>
      <trkpt lat="46.64785" lon="4.84496">
        <ele>193</ele>
        <time>2020-09-21T14:53:31Z</time>
      </trkpt>
      <trkpt lat="46.64639" lon="4.84291">
        <ele>190</ele>
        <time>2020-09-21T14:54:18Z</time>
      </trkpt>
      <trkpt lat="46.6461" lon="4.8425">
        <ele>190</ele>
        <time>2020-09-21T14:54:28Z</time>
      </trkpt>
      <trkpt lat="46.64598" lon="4.84236">
        <ele>190</ele>
        <time>2020-09-21T14:54:31Z</time>
      </trkpt>
      <trkpt lat="46.64593" lon="4.84236">
        <ele>190</ele>
        <time>2020-09-21T14:54:33Z</time>
      </trkpt>
      <trkpt lat="46.64584" lon="4.84237">
        <ele>190</ele>
        <time>2020-09-21T14:54:35Z</time>
      </trkpt>
      <trkpt lat="46.64578" lon="4.84241">
        <ele>190</ele>
        <time>2020-09-21T14:54:36Z</time>
      </trkpt>
      <trkpt lat="46.6457" lon="4.84243">
        <ele>191</ele>
        <time>2020-09-21T14:54:38Z</time>
      </trkpt>
      <trkpt lat="46.64564" lon="4.84242">
        <ele>191</ele>
        <time>2020-09-21T14:54:40Z</time>
      </trkpt>
      <trkpt lat="46.64558" lon="4.8424">
        <ele>191</ele>
        <time>2020-09-21T14:54:41Z</time>
      </trkpt>
      <trkpt lat="46.6456" lon="4.84251">
        <ele>191</ele>
        <time>2020-09-21T14:54:43Z</time>
      </trkpt>
      <trkpt lat="46.64561" lon="4.84258">
        <ele>191</ele>
        <time>2020-09-21T14:54:44Z</time>
      </trkpt>
      <trkpt lat="46.6456" lon="4.84273">
        <ele>192</ele>
        <time>2020-09-21T14:54:46Z</time>
      </trkpt>
      <trkpt lat="46.64558" lon="4.84278">
        <ele>192</ele>
        <time>2020-09-21T14:54:47Z</time>
      </trkpt>
      <trkpt lat="46.64535" lon="4.84313">
        <ele>193</ele>
        <time>2020-09-21T14:54:55Z</time>
      </trkpt>
      <trkpt lat="46.64521" lon="4.84336">
        <ele>194</ele>
        <time>2020-09-21T14:55:00Z</time>
      </trkpt>
      <trkpt lat="46.64468" lon="4.84425">
        <ele>196</ele>
        <time>2020-09-21T14:55:19Z</time>
      </trkpt>
      <trkpt lat="46.64462" lon="4.84438">
        <ele>196</ele>
        <time>2020-09-21T14:55:21Z</time>
      </trkpt>
      <trkpt lat="46.64459" lon="4.84456">
        <ele>197</ele>
        <time>2020-09-21T14:55:24Z</time>
      </trkpt>
      <trkpt lat="46.64457" lon="4.84488">
        <ele>197</ele>
        <time>2020-09-21T14:55:30Z</time>
      </trkpt>
      <trkpt lat="46.64458" lon="4.84503">
        <ele>198</ele>
        <time>2020-09-21T14:55:32Z</time>
      </trkpt>
      <trkpt lat="46.6446" lon="4.84512">
        <ele>198</ele>
        <time>2020-09-21T14:55:33Z</time>
      </trkpt>
      <trkpt lat="46.64467" lon="4.84527">
        <ele>198</ele>
        <time>2020-09-21T14:55:36Z</time>
      </trkpt>
      <trkpt lat="46.64493" lon="4.84572">
        <ele>199</ele>
        <time>2020-09-21T14:55:46Z</time>
      </trkpt>
      <trkpt lat="46.64523" lon="4.84627">
        <ele>199</ele>
        <time>2020-09-21T14:55:57Z</time>
      </trkpt>
      <trkpt lat="46.64561" lon="4.8469">
        <ele>200</ele>
        <time>2020-09-21T14:56:11Z</time>
      </trkpt>
      <trkpt lat="46.64565" lon="4.84697">
        <ele>200</ele>
        <time>2020-09-21T14:56:12Z</time>
      </trkpt>
      <trkpt lat="46.64587" lon="4.84737">
        <ele>201</ele>
        <time>2020-09-21T14:56:20Z</time>
      </trkpt>
      <trkpt lat="46.64594" lon="4.8475">
        <ele>201</ele>
        <time>2020-09-21T14:56:23Z</time>
      </trkpt>
      <trkpt lat="46.64629" lon="4.84822">
        <ele>200</ele>
        <time>2020-09-21T14:56:37Z</time>
      </trkpt>
      <trkpt lat="46.6464" lon="4.84846">
        <ele>200</ele>
        <time>2020-09-21T14:56:42Z</time>
      </trkpt>
      <trkpt lat="46.64646" lon="4.84862">
        <ele>200</ele>
        <time>2020-09-21T14:56:45Z</time>
      </trkpt>
      <trkpt lat="46.64649" lon="4.84874">
        <ele>200</ele>
        <time>2020-09-21T14:56:47Z</time>
      </trkpt>
      <trkpt lat="46.64653" lon="4.84895">
        <ele>200</ele>
        <time>2020-09-21T14:56:50Z</time>
      </trkpt>
      <trkpt lat="46.64654" lon="4.84915">
        <ele>200</ele>
        <time>2020-09-21T14:56:53Z</time>
      </trkpt>
      <trkpt lat="46.64654" lon="4.84932">
        <ele>200</ele>
        <time>2020-09-21T14:56:56Z</time>
      </trkpt>
      <trkpt lat="46.64652" lon="4.84975">
        <ele>201</ele>
        <time>2020-09-21T14:57:03Z</time>
      </trkpt>
      <trkpt lat="46.64652" lon="4.85019">
        <ele>201</ele>
        <time>2020-09-21T14:57:10Z</time>
      </trkpt>
      <trkpt lat="46.64653" lon="4.85034">
        <ele>201</ele>
        <time>2020-09-21T14:57:12Z</time>
      </trkpt>
      <trkpt lat="46.64674" lon="4.85185">
        <ele>201</ele>
        <time>2020-09-21T14:57:37Z</time>
      </trkpt>
      <trkpt lat="46.64673" lon="4.85201">
        <ele>202</ele>
        <time>2020-09-21T14:57:40Z</time>
      </trkpt>
      <trkpt lat="46.64668" lon="4.8522">
        <ele>202</ele>
        <time>2020-09-21T14:57:43Z</time>
      </trkpt>
      <trkpt lat="46.64661" lon="4.85227">
        <ele>203</ele>
        <time>2020-09-21T14:57:45Z</time>
      </trkpt>
      <trkpt lat="46.64633" lon="4.85258">
        <ele>205</ele>
        <time>2020-09-21T14:57:53Z</time>
      </trkpt>
      <trkpt lat="46.64606" lon="4.85281">
        <ele>206</ele>
        <time>2020-09-21T14:58:00Z</time>
      </trkpt>
      <trkpt lat="46.64601" lon="4.85288">
        <ele>206</ele>
        <time>2020-09-21T14:58:02Z</time>
      </trkpt>
      <trkpt lat="46.64597" lon="4.853">
        <ele>206</ele>
        <time>2020-09-21T14:58:04Z</time>
      </trkpt>
      <trkpt lat="46.64594" lon="4.85312">
        <ele>206</ele>
        <time>2020-09-21T14:58:06Z</time>
      </trkpt>
      <trkpt lat="46.64593" lon="4.85332">
        <ele>207</ele>
        <time>2020-09-21T14:58:09Z</time>
      </trkpt>
      <trkpt lat="46.64593" lon="4.85369">
        <ele>207</ele>
        <time>2020-09-21T14:58:15Z</time>
      </trkpt>
      <trkpt lat="46.64594" lon="4.85382">
        <ele>206</ele>
        <time>2020-09-21T14:58:17Z</time>
      </trkpt>
      <trkpt lat="46.64595" lon="4.85386">
        <ele>206</ele>
        <time>2020-09-21T14:58:18Z</time>
      </trkpt>
      <trkpt lat="46.646" lon="4.85407">
        <ele>206</ele>
        <time>2020-09-21T14:58:22Z</time>
      </trkpt>
      <trkpt lat="46.64601" lon="4.85415">
        <ele>206</ele>
        <time>2020-09-21T14:58:23Z</time>
      </trkpt>
      <trkpt lat="46.64619" lon="4.85464">
        <ele>206</ele>
        <time>2020-09-21T14:58:32Z</time>
      </trkpt>
      <trkpt lat="46.64625" lon="4.85486">
        <ele>205</ele>
        <time>2020-09-21T14:58:36Z</time>
      </trkpt>
      <trkpt lat="46.64636" lon="4.85514">
        <ele>205</ele>
        <time>2020-09-21T14:58:41Z</time>
      </trkpt>
      <trkpt lat="46.64641" lon="4.85526">
        <ele>205</ele>
        <time>2020-09-21T14:58:43Z</time>
      </trkpt>
      <trkpt lat="46.64663" lon="4.8559">
        <ele>206</ele>
        <time>2020-09-21T14:58:55Z</time>
      </trkpt>
      <trkpt lat="46.64666" lon="4.856">
        <ele>207</ele>
        <time>2020-09-21T14:58:56Z</time>
      </trkpt>
      <trkpt lat="46.64678" lon="4.85645">
        <ele>208</ele>
        <time>2020-09-21T14:59:04Z</time>
      </trkpt>
      <trkpt lat="46.6468" lon="4.85656">
        <ele>208</ele>
        <time>2020-09-21T14:59:06Z</time>
      </trkpt>
      <trkpt lat="46.64693" lon="4.85719">
        <ele>210</ele>
        <time>2020-09-21T14:59:16Z</time>
      </trkpt>
      <trkpt lat="46.64694" lon="4.85735">
        <ele>210</ele>
        <time>2020-09-21T14:59:19Z</time>
      </trkpt>
      <trkpt lat="46.64698" lon="4.85766">
        <ele>211</ele>
        <time>2020-09-21T14:59:24Z</time>
      </trkpt>
      <trkpt lat="46.647" lon="4.85797">
        <ele>212</ele>
        <time>2020-09-21T14:59:29Z</time>
      </trkpt>
      <trkpt lat="46.647" lon="4.85815">
        <ele>212</ele>
        <time>2020-09-21T14:59:32Z</time>
      </trkpt>
      <trkpt lat="46.64699" lon="4.85837">
        <ele>213</ele>
        <time>2020-09-21T14:59:36Z</time>
      </trkpt>
      <trkpt lat="46.64695" lon="4.85911">
        <ele>215</ele>
        <time>2020-09-21T14:59:47Z</time>
      </trkpt>
      <trkpt lat="46.64674" lon="4.8591">
        <ele>216</ele>
        <time>2020-09-21T14:59:52Z</time>
      </trkpt>
      <trkpt lat="46.64535" lon="4.85911">
        <ele>227</ele>
        <time>2020-09-21T15:00:25Z</time>
      </trkpt>
      <trkpt lat="46.64534" lon="4.85911">
        <ele>227</ele>
        <time>2020-09-21T15:00:25Z</time>
      </trkpt>
      <trkpt lat="46.64509" lon="4.85908">
        <ele>230</ele>
        <time>2020-09-21T15:00:31Z</time>
      </trkpt>
      <trkpt lat="46.64478" lon="4.85897">
        <ele>233</ele>
        <time>2020-09-21T15:00:38Z</time>
      </trkpt>
      <trkpt lat="46.64471" lon="4.85896">
        <ele>234</ele>
        <time>2020-09-21T15:00:40Z</time>
      </trkpt>
      <trkpt lat="46.64457" lon="4.85895">
        <ele>235</ele>
        <time>2020-09-21T15:00:43Z</time>
      </trkpt>
      <trkpt lat="46.64431" lon="4.85894">
        <ele>238</ele>
        <time>2020-09-21T15:00:49Z</time>
      </trkpt>
      <trkpt lat="46.64425" lon="4.85891">
        <ele>239</ele>
        <time>2020-09-21T15:00:51Z</time>
      </trkpt>
      <trkpt lat="46.64418" lon="4.85881">
        <ele>241</ele>
        <time>2020-09-21T15:00:53Z</time>
      </trkpt>
      <trkpt lat="46.64417" lon="4.85833">
        <ele>246</ele>
        <time>2020-09-21T15:01:01Z</time>
      </trkpt>
      <trkpt lat="46.64417" lon="4.85828">
        <ele>246</ele>
        <time>2020-09-21T15:01:02Z</time>
      </trkpt>
      <trkpt lat="46.64414" lon="4.85811">
        <ele>247</ele>
        <time>2020-09-21T15:01:04Z</time>
      </trkpt>
      <trkpt lat="46.64408" lon="4.85801">
        <ele>248</ele>
        <time>2020-09-21T15:01:07Z</time>
      </trkpt>
      <trkpt lat="46.64397" lon="4.85795">
        <ele>249</ele>
        <time>2020-09-21T15:01:09Z</time>
      </trkpt>
      <trkpt lat="46.64387" lon="4.85791">
        <ele>251</ele>
        <time>2020-09-21T15:01:12Z</time>
      </trkpt>
      <trkpt lat="46.64374" lon="4.85784">
        <ele>253</ele>
        <time>2020-09-21T15:01:15Z</time>
      </trkpt>
      <trkpt lat="46.64352" lon="4.85759">
        <ele>257</ele>
        <time>2020-09-21T15:01:21Z</time>
      </trkpt>
      <trkpt lat="46.64337" lon="4.85745">
        <ele>259</ele>
        <time>2020-09-21T15:01:26Z</time>
      </trkpt>
      <trkpt lat="46.64326" lon="4.85738">
        <ele>260</ele>
        <time>2020-09-21T15:01:28Z</time>
      </trkpt>
      <trkpt lat="46.6432" lon="4.85738">
        <ele>261</ele>
        <time>2020-09-21T15:01:30Z</time>
      </trkpt>
      <trkpt lat="46.64305" lon="4.85751">
        <ele>262</ele>
        <time>2020-09-21T15:01:34Z</time>
      </trkpt>
      <trkpt lat="46.64297" lon="4.85754">
        <ele>263</ele>
        <time>2020-09-21T15:01:36Z</time>
      </trkpt>
      <trkpt lat="46.64292" lon="4.85753">
        <ele>263</ele>
        <time>2020-09-21T15:01:37Z</time>
      </trkpt>
      <trkpt lat="46.64281" lon="4.85746">
        <ele>264</ele>
        <time>2020-09-21T15:01:40Z</time>
      </trkpt>
      <trkpt lat="46.6427" lon="4.85734">
        <ele>266</ele>
        <time>2020-09-21T15:01:43Z</time>
      </trkpt>
      <trkpt lat="46.64245" lon="4.857">
        <ele>268</ele>
        <time>2020-09-21T15:01:51Z</time>
      </trkpt>
      <trkpt lat="46.64234" lon="4.8569">
        <ele>269</ele>
        <time>2020-09-21T15:01:54Z</time>
      </trkpt>
      <trkpt lat="46.64221" lon="4.85682">
        <ele>270</ele>
        <time>2020-09-21T15:01:57Z</time>
      </trkpt>
      <trkpt lat="46.642" lon="4.85663">
        <ele>272</ele>
        <time>2020-09-21T15:02:03Z</time>
      </trkpt>
      <trkpt lat="46.64193" lon="4.85657">
        <ele>273</ele>
        <time>2020-09-21T15:02:05Z</time>
      </trkpt>
      <trkpt lat="46.64165" lon="4.85636">
        <ele>275</ele>
        <time>2020-09-21T15:02:12Z</time>
      </trkpt>
      <trkpt lat="46.64149" lon="4.8562">
        <ele>276</ele>
        <time>2020-09-21T15:02:17Z</time>
      </trkpt>
      <trkpt lat="46.64133" lon="4.85608">
        <ele>278</ele>
        <time>2020-09-21T15:02:21Z</time>
      </trkpt>
      <trkpt lat="46.64092" lon="4.85586">
        <ele>281</ele>
        <time>2020-09-21T15:02:31Z</time>
      </trkpt>
      <trkpt lat="46.64086" lon="4.85579">
        <ele>282</ele>
        <time>2020-09-21T15:02:33Z</time>
      </trkpt>
      <trkpt lat="46.64077" lon="4.85565">
        <ele>283</ele>
        <time>2020-09-21T15:02:36Z</time>
      </trkpt>
      <trkpt lat="46.64058" lon="4.85558">
        <ele>284</ele>
        <time>2020-09-21T15:02:41Z</time>
      </trkpt>
      <trkpt lat="46.64024" lon="4.85545">
        <ele>286</ele>
        <time>2020-09-21T15:02:49Z</time>
      </trkpt>
      <trkpt lat="46.64006" lon="4.85537">
        <ele>287</ele>
        <time>2020-09-21T15:02:53Z</time>
      </trkpt>
      <trkpt lat="46.63984" lon="4.85525">
        <ele>288</ele>
        <time>2020-09-21T15:02:59Z</time>
      </trkpt>
      <trkpt lat="46.63974" lon="4.85517">
        <ele>289</ele>
        <time>2020-09-21T15:03:02Z</time>
      </trkpt>
      <trkpt lat="46.63954" lon="4.85488">
        <ele>291</ele>
        <time>2020-09-21T15:03:08Z</time>
      </trkpt>
      <trkpt lat="46.6394" lon="4.85474">
        <ele>292</ele>
        <time>2020-09-21T15:03:12Z</time>
      </trkpt>
      <trkpt lat="46.63921" lon="4.85462">
        <ele>293</ele>
        <time>2020-09-21T15:03:17Z</time>
      </trkpt>
      <trkpt lat="46.63909" lon="4.85454">
        <ele>293</ele>
        <time>2020-09-21T15:03:20Z</time>
      </trkpt>
      <trkpt lat="46.63889" lon="4.85446">
        <ele>293</ele>
        <time>2020-09-21T15:03:25Z</time>
      </trkpt>
      <trkpt lat="46.63877" lon="4.85439">
        <ele>293</ele>
        <time>2020-09-21T15:03:28Z</time>
      </trkpt>
      <trkpt lat="46.63864" lon="4.85426">
        <ele>294</ele>
        <time>2020-09-21T15:03:32Z</time>
      </trkpt>
      <trkpt lat="46.63858" lon="4.85416">
        <ele>294</ele>
        <time>2020-09-21T15:03:34Z</time>
      </trkpt>
      <trkpt lat="46.63856" lon="4.85411">
        <ele>294</ele>
        <time>2020-09-21T15:03:35Z</time>
      </trkpt>
      <trkpt lat="46.63835" lon="4.85399">
        <ele>294</ele>
        <time>2020-09-21T15:03:40Z</time>
      </trkpt>
      <trkpt lat="46.63824" lon="4.85396">
        <ele>294</ele>
        <time>2020-09-21T15:03:42Z</time>
      </trkpt>
      <trkpt lat="46.63812" lon="4.85402">
        <ele>293</ele>
        <time>2020-09-21T15:03:45Z</time>
      </trkpt>
      <trkpt lat="46.63799" lon="4.85409">
        <ele>291</ele>
        <time>2020-09-21T15:03:49Z</time>
      </trkpt>
      <trkpt lat="46.63787" lon="4.85423">
        <ele>289</ele>
        <time>2020-09-21T15:03:52Z</time>
      </trkpt>
      <trkpt lat="46.63771" lon="4.8545">
        <ele>285</ele>
        <time>2020-09-21T15:03:58Z</time>
      </trkpt>
      <trkpt lat="46.63765" lon="4.8545">
        <ele>285</ele>
        <time>2020-09-21T15:03:59Z</time>
      </trkpt>
      <trkpt lat="46.63759" lon="4.85455">
        <ele>284</ele>
        <time>2020-09-21T15:04:01Z</time>
      </trkpt>
      <trkpt lat="46.63759" lon="4.85461">
        <ele>283</ele>
        <time>2020-09-21T15:04:02Z</time>
      </trkpt>
      <trkpt lat="46.6376" lon="4.85469">
        <ele>282</ele>
        <time>2020-09-21T15:04:03Z</time>
      </trkpt>
      <trkpt lat="46.63758" lon="4.85478">
        <ele>281</ele>
        <time>2020-09-21T15:04:05Z</time>
      </trkpt>
      <trkpt lat="46.63747" lon="4.85496">
        <ele>278</ele>
        <time>2020-09-21T15:04:09Z</time>
      </trkpt>
      <trkpt lat="46.6373" lon="4.85512">
        <ele>273</ele>
        <time>2020-09-21T15:04:13Z</time>
      </trkpt>
      <trkpt lat="46.63721" lon="4.85521">
        <ele>271</ele>
        <time>2020-09-21T15:04:16Z</time>
      </trkpt>
      <trkpt lat="46.63706" lon="4.85529">
        <ele>267</ele>
        <time>2020-09-21T15:04:20Z</time>
      </trkpt>
      <trkpt lat="46.63691" lon="4.85536">
        <ele>264</ele>
        <time>2020-09-21T15:04:23Z</time>
      </trkpt>
      <trkpt lat="46.63668" lon="4.85548">
        <ele>260</ele>
        <time>2020-09-21T15:04:29Z</time>
      </trkpt>
      <trkpt lat="46.63656" lon="4.85558">
        <ele>257</ele>
        <time>2020-09-21T15:04:32Z</time>
      </trkpt>
      <trkpt lat="46.63647" lon="4.85563">
        <ele>256</ele>
        <time>2020-09-21T15:04:35Z</time>
      </trkpt>
      <trkpt lat="46.6363" lon="4.8557">
        <ele>253</ele>
        <time>2020-09-21T15:04:39Z</time>
      </trkpt>
      <trkpt lat="46.63594" lon="4.85583">
        <ele>246</ele>
        <time>2020-09-21T15:04:47Z</time>
      </trkpt>
      <trkpt lat="46.63582" lon="4.85592">
        <ele>244</ele>
        <time>2020-09-21T15:04:50Z</time>
      </trkpt>
      <trkpt lat="46.63583" lon="4.85586">
        <ele>245</ele>
        <time>2020-09-21T15:04:51Z</time>
      </trkpt>
      <trkpt lat="46.63582" lon="4.85597">
        <ele>243</ele>
        <time>2020-09-21T15:04:53Z</time>
      </trkpt>
      <trkpt lat="46.63577" lon="4.85607">
        <ele>242</ele>
        <time>2020-09-21T15:04:55Z</time>
      </trkpt>
      <trkpt lat="46.63532" lon="4.85683">
        <ele>234</ele>
        <time>2020-09-21T15:05:11Z</time>
      </trkpt>
      <trkpt lat="46.63504" lon="4.85725">
        <ele>232</ele>
        <time>2020-09-21T15:05:21Z</time>
      </trkpt>
      <trkpt lat="46.63489" lon="4.8575">
        <ele>230</ele>
        <time>2020-09-21T15:05:26Z</time>
      </trkpt>
      <trkpt lat="46.63485" lon="4.85765">
        <ele>230</ele>
        <time>2020-09-21T15:05:29Z</time>
      </trkpt>
      <trkpt lat="46.63476" lon="4.85752">
        <ele>230</ele>
        <time>2020-09-21T15:05:32Z</time>
      </trkpt>
      <trkpt lat="46.63456" lon="4.85728">
        <ele>230</ele>
        <time>2020-09-21T15:05:38Z</time>
      </trkpt>
      <trkpt lat="46.63442" lon="4.85713">
        <ele>229</ele>
        <time>2020-09-21T15:05:42Z</time>
      </trkpt>
      <trkpt lat="46.6336" lon="4.85641">
        <ele>229</ele>
        <time>2020-09-21T15:06:04Z</time>
      </trkpt>
      <trkpt lat="46.63338" lon="4.85619">
        <ele>229</ele>
        <time>2020-09-21T15:06:10Z</time>
      </trkpt>
      <trkpt lat="46.63312" lon="4.85597">
        <ele>230</ele>
        <time>2020-09-21T15:06:17Z</time>
      </trkpt>
      <trkpt lat="46.63294" lon="4.85583">
        <ele>230</ele>
        <time>2020-09-21T15:06:22Z</time>
      </trkpt>
      <trkpt lat="46.63235" lon="4.8553">
        <ele>232</ele>
        <time>2020-09-21T15:06:38Z</time>
      </trkpt>
      <trkpt lat="46.63218" lon="4.85516">
        <ele>233</ele>
        <time>2020-09-21T15:06:43Z</time>
      </trkpt>
      <trkpt lat="46.63196" lon="4.85498">
        <ele>233</ele>
        <time>2020-09-21T15:06:49Z</time>
      </trkpt>
      <trkpt lat="46.63181" lon="4.85487">
        <ele>234</ele>
        <time>2020-09-21T15:06:53Z</time>
      </trkpt>
      <trkpt lat="46.63184" lon="4.85494">
        <ele>234</ele>
        <time>2020-09-21T15:06:54Z</time>
      </trkpt>
      <trkpt lat="46.63187" lon="4.85503">
        <ele>234</ele>
        <time>2020-09-21T15:06:56Z</time>
      </trkpt>
      <trkpt lat="46.63192" lon="4.85522">
        <ele>234</ele>
        <time>2020-09-21T15:06:59Z</time>
      </trkpt>
      <trkpt lat="46.63199" lon="4.85564">
        <ele>234</ele>
        <time>2020-09-21T15:07:06Z</time>
      </trkpt>
      <trkpt lat="46.63203" lon="4.85575">
        <ele>234</ele>
        <time>2020-09-21T15:07:08Z</time>
      </trkpt>
    </trkseg>
  </trk>
  <trk>
    <name><![CDATA[23 - LES_FORETS_ET_VIGNOBLES_DE_MANCEY - Rouge]]></name>
    <extensions>
      <line xmlns="http://www.topografix.com/GPX/gpx_style/0/2">
        <color>ff0040</color>
        <width>4</width>
      </line>
    </extensions>
    <trkseg>
      <trkpt lat="46.57461" lon="4.84476">
        <ele>251.5</ele>
      </trkpt>
      <trkpt lat="46.57434" lon="4.84636">
        <ele>249.8</ele>
      </trkpt>
      <trkpt lat="46.57433" lon="4.84646">
        <ele>249.9</ele>
      </trkpt>
      <trkpt lat="46.57418" lon="4.84653">
        <ele>249.1</ele>
      </trkpt>
      <trkpt lat="46.57401" lon="4.84663">
        <ele>248.7</ele>
      </trkpt>
      <trkpt lat="46.57387" lon="4.84671">
        <ele>247.7</ele>
      </trkpt>
      <trkpt lat="46.5737" lon="4.84673">
        <ele>246.4</ele>
      </trkpt>
      <trkpt lat="46.57351" lon="4.84673">
        <ele>245.1</ele>
      </trkpt>
      <trkpt lat="46.57342" lon="4.8468">
        <ele>244.2</ele>
      </trkpt>
      <trkpt lat="46.57337" lon="4.84688">
        <ele>243.5</ele>
      </trkpt>
      <trkpt lat="46.57336" lon="4.84694">
        <ele>243.2</ele>
      </trkpt>
      <trkpt lat="46.57333" lon="4.84706">
        <ele>242.9</ele>
      </trkpt>
      <trkpt lat="46.57326" lon="4.84732">
        <ele>242.5</ele>
      </trkpt>
      <trkpt lat="46.57316" lon="4.84759">
        <ele>242.3</ele>
      </trkpt>
      <trkpt lat="46.57309" lon="4.84775">
        <ele>242.9</ele>
      </trkpt>
      <trkpt lat="46.57297" lon="4.84792">
        <ele>242.7</ele>
      </trkpt>
      <trkpt lat="46.57291" lon="4.84799">
        <ele>242.6</ele>
      </trkpt>
      <trkpt lat="46.57268" lon="4.84824">
        <ele>243.5</ele>
      </trkpt>
      <trkpt lat="46.57262" lon="4.84831">
        <ele>243.4</ele>
      </trkpt>
      <trkpt lat="46.57256" lon="4.84843">
        <ele>243</ele>
      </trkpt>
      <trkpt lat="46.57249" lon="4.84852">
        <ele>241.9</ele>
      </trkpt>
      <trkpt lat="46.57237" lon="4.84872">
        <ele>241.5</ele>
      </trkpt>
      <trkpt lat="46.57229" lon="4.84887">
        <ele>240.9</ele>
      </trkpt>
      <trkpt lat="46.57227" lon="4.84889">
        <ele>240.7</ele>
      </trkpt>
      <trkpt lat="46.57225" lon="4.84899">
        <ele>240.5</ele>
      </trkpt>
      <trkpt lat="46.57206" lon="4.84895">
        <ele>239.3</ele>
      </trkpt>
      <trkpt lat="46.57184" lon="4.84888">
        <ele>239</ele>
      </trkpt>
      <trkpt lat="46.57172" lon="4.84888">
        <ele>239</ele>
      </trkpt>
      <trkpt lat="46.57151" lon="4.84863">
        <ele>242.5</ele>
      </trkpt>
      <trkpt lat="46.57128" lon="4.84841">
        <ele>245.7</ele>
      </trkpt>
      <trkpt lat="46.57109" lon="4.84821">
        <ele>247.6</ele>
      </trkpt>
      <trkpt lat="46.5709" lon="4.84805">
        <ele>248.7</ele>
      </trkpt>
      <trkpt lat="46.57075" lon="4.84795">
        <ele>249.6</ele>
      </trkpt>
      <trkpt lat="46.5706" lon="4.84788">
        <ele>250.6</ele>
      </trkpt>
      <trkpt lat="46.57035" lon="4.84778">
        <ele>253.4</ele>
      </trkpt>
      <trkpt lat="46.56995" lon="4.84763">
        <ele>258.8</ele>
      </trkpt>
      <trkpt lat="46.56941" lon="4.84746">
        <ele>265</ele>
      </trkpt>
      <trkpt lat="46.56887" lon="4.84732">
        <ele>271.7</ele>
      </trkpt>
      <trkpt lat="46.56865" lon="4.84728">
        <ele>273.8</ele>
      </trkpt>
      <trkpt lat="46.56859" lon="4.84728">
        <ele>274.3</ele>
      </trkpt>
      <trkpt lat="46.56845" lon="4.84728">
        <ele>274.7</ele>
      </trkpt>
      <trkpt lat="46.56828" lon="4.8473">
        <ele>275.1</ele>
      </trkpt>
      <trkpt lat="46.56814" lon="4.84729">
        <ele>275.5</ele>
      </trkpt>
      <trkpt lat="46.56798" lon="4.84723">
        <ele>276.2</ele>
      </trkpt>
      <trkpt lat="46.56779" lon="4.84711">
        <ele>277</ele>
      </trkpt>
      <trkpt lat="46.5676" lon="4.84716">
        <ele>277.3</ele>
      </trkpt>
      <trkpt lat="46.56736" lon="4.8472">
        <ele>277.7</ele>
      </trkpt>
      <trkpt lat="46.56728" lon="4.84727">
        <ele>277.3</ele>
      </trkpt>
      <trkpt lat="46.56719" lon="4.8474">
        <ele>276.1</ele>
      </trkpt>
      <trkpt lat="46.56711" lon="4.84754">
        <ele>275</ele>
      </trkpt>
      <trkpt lat="46.56703" lon="4.84762">
        <ele>274.1</ele>
      </trkpt>
      <trkpt lat="46.56686" lon="4.84777">
        <ele>272.5</ele>
      </trkpt>
      <trkpt lat="46.56666" lon="4.84799">
        <ele>269.9</ele>
      </trkpt>
      <trkpt lat="46.56648" lon="4.84816">
        <ele>268.7</ele>
      </trkpt>
      <trkpt lat="46.56636" lon="4.84826">
        <ele>267.9</ele>
      </trkpt>
      <trkpt lat="46.56626" lon="4.84829">
        <ele>267.9</ele>
      </trkpt>
      <trkpt lat="46.56604" lon="4.84834">
        <ele>268</ele>
      </trkpt>
      <trkpt lat="46.56584" lon="4.84836">
        <ele>267.7</ele>
      </trkpt>
      <trkpt lat="46.56559" lon="4.84844">
        <ele>266.9</ele>
      </trkpt>
      <trkpt lat="46.5653" lon="4.84854">
        <ele>265.1</ele>
      </trkpt>
      <trkpt lat="46.56508" lon="4.84859">
        <ele>264.3</ele>
      </trkpt>
      <trkpt lat="46.56485" lon="4.84862">
        <ele>263.3</ele>
      </trkpt>
      <trkpt lat="46.5646" lon="4.84863">
        <ele>262.8</ele>
      </trkpt>
      <trkpt lat="46.56442" lon="4.84862">
        <ele>262.9</ele>
      </trkpt>
      <trkpt lat="46.56436" lon="4.84862">
        <ele>262.9</ele>
      </trkpt>
      <trkpt lat="46.56422" lon="4.84862">
        <ele>262.9</ele>
      </trkpt>
      <trkpt lat="46.56401" lon="4.84867">
        <ele>262.9</ele>
      </trkpt>
      <trkpt lat="46.56375" lon="4.84877">
        <ele>262.1</ele>
      </trkpt>
      <trkpt lat="46.56337" lon="4.84885">
        <ele>260.4</ele>
      </trkpt>
      <trkpt lat="46.56317" lon="4.84889">
        <ele>259.4</ele>
      </trkpt>
      <trkpt lat="46.56303" lon="4.8489">
        <ele>258.8</ele>
      </trkpt>
      <trkpt lat="46.5629" lon="4.84891">
        <ele>258.3</ele>
      </trkpt>
      <trkpt lat="46.56265" lon="4.84891">
        <ele>257.4</ele>
      </trkpt>
      <trkpt lat="46.56219" lon="4.84893">
        <ele>254.6</ele>
      </trkpt>
      <trkpt lat="46.56209" lon="4.84891">
        <ele>253.9</ele>
      </trkpt>
      <trkpt lat="46.56194" lon="4.84887">
        <ele>253.2</ele>
      </trkpt>
      <trkpt lat="46.5618" lon="4.8488">
        <ele>252.9</ele>
      </trkpt>
      <trkpt lat="46.56167" lon="4.84871">
        <ele>252.7</ele>
      </trkpt>
      <trkpt lat="46.56157" lon="4.84865">
        <ele>252.5</ele>
      </trkpt>
      <trkpt lat="46.56139" lon="4.8486">
        <ele>252</ele>
      </trkpt>
      <trkpt lat="46.56131" lon="4.84858">
        <ele>251.5</ele>
      </trkpt>
      <trkpt lat="46.56099" lon="4.84855">
        <ele>249.3</ele>
      </trkpt>
      <trkpt lat="46.5608" lon="4.84852">
        <ele>248.1</ele>
      </trkpt>
      <trkpt lat="46.56074" lon="4.84852">
        <ele>247.7</ele>
      </trkpt>
      <trkpt lat="46.56063" lon="4.84846">
        <ele>247.1</ele>
      </trkpt>
      <trkpt lat="46.56056" lon="4.84839">
        <ele>246.8</ele>
      </trkpt>
      <trkpt lat="46.56054" lon="4.84827">
        <ele>246.8</ele>
      </trkpt>
      <trkpt lat="46.56053" lon="4.84813">
        <ele>246.7</ele>
      </trkpt>
      <trkpt lat="46.56052" lon="4.84797">
        <ele>246.9</ele>
      </trkpt>
      <trkpt lat="46.5605" lon="4.84786">
        <ele>247.1</ele>
      </trkpt>
      <trkpt lat="46.56048" lon="4.84776">
        <ele>247.2</ele>
      </trkpt>
      <trkpt lat="46.56033" lon="4.84753">
        <ele>247.2</ele>
      </trkpt>
      <trkpt lat="46.56021" lon="4.84734">
        <ele>246.9</ele>
      </trkpt>
      <trkpt lat="46.56016" lon="4.84721">
        <ele>246.8</ele>
      </trkpt>
      <trkpt lat="46.56011" lon="4.84701">
        <ele>246.9</ele>
      </trkpt>
      <trkpt lat="46.56005" lon="4.84671">
        <ele>247.3</ele>
      </trkpt>
      <trkpt lat="46.56001" lon="4.84655">
        <ele>248.4</ele>
      </trkpt>
      <trkpt lat="46.55998" lon="4.84642">
        <ele>249.5</ele>
      </trkpt>
      <trkpt lat="46.55996" lon="4.84621">
        <ele>250.2</ele>
      </trkpt>
      <trkpt lat="46.55997" lon="4.84599">
        <ele>251.1</ele>
      </trkpt>
      <trkpt lat="46.56001" lon="4.84573">
        <ele>252.9</ele>
      </trkpt>
      <trkpt lat="46.56001" lon="4.84555">
        <ele>254.2</ele>
      </trkpt>
      <trkpt lat="46.56001" lon="4.84535">
        <ele>254.9</ele>
      </trkpt>
      <trkpt lat="46.55997" lon="4.84495">
        <ele>255.9</ele>
      </trkpt>
      <trkpt lat="46.55983" lon="4.84439">
        <ele>257</ele>
      </trkpt>
      <trkpt lat="46.55971" lon="4.844">
        <ele>256.9</ele>
      </trkpt>
      <trkpt lat="46.55965" lon="4.84378">
        <ele>256.9</ele>
      </trkpt>
      <trkpt lat="46.55961" lon="4.84351">
        <ele>257</ele>
      </trkpt>
      <trkpt lat="46.55959" lon="4.84328">
        <ele>256.2</ele>
      </trkpt>
      <trkpt lat="46.55954" lon="4.84297">
        <ele>253.9</ele>
      </trkpt>
      <trkpt lat="46.55956" lon="4.84265">
        <ele>250.4</ele>
      </trkpt>
      <trkpt lat="46.55955" lon="4.8424">
        <ele>248.4</ele>
      </trkpt>
      <trkpt lat="46.55952" lon="4.84219">
        <ele>247.5</ele>
      </trkpt>
      <trkpt lat="46.55944" lon="4.84192">
        <ele>246</ele>
      </trkpt>
      <trkpt lat="46.55926" lon="4.8418">
        <ele>244.9</ele>
      </trkpt>
      <trkpt lat="46.55912" lon="4.84167">
        <ele>243.3</ele>
      </trkpt>
      <trkpt lat="46.55905" lon="4.84144">
        <ele>242.9</ele>
      </trkpt>
      <trkpt lat="46.55901" lon="4.8412">
        <ele>243.1</ele>
      </trkpt>
      <trkpt lat="46.55893" lon="4.84099">
        <ele>241.8</ele>
      </trkpt>
      <trkpt lat="46.55879" lon="4.84069">
        <ele>240.3</ele>
      </trkpt>
      <trkpt lat="46.55869" lon="4.84049">
        <ele>240.2</ele>
      </trkpt>
      <trkpt lat="46.55861" lon="4.84036">
        <ele>240.7</ele>
      </trkpt>
      <trkpt lat="46.55842" lon="4.83997">
        <ele>241.4</ele>
      </trkpt>
      <trkpt lat="46.55834" lon="4.83987">
        <ele>242</ele>
      </trkpt>
      <trkpt lat="46.55831" lon="4.84032">
        <ele>242.7</ele>
      </trkpt>
      <trkpt lat="46.55799" lon="4.84076">
        <ele>248</ele>
      </trkpt>
      <trkpt lat="46.55798" lon="4.84042">
        <ele>250.5</ele>
      </trkpt>
      <trkpt lat="46.5579" lon="4.83955">
        <ele>254</ele>
      </trkpt>
      <trkpt lat="46.55788" lon="4.83898">
        <ele>255.7</ele>
      </trkpt>
      <trkpt lat="46.5579" lon="4.8385">
        <ele>258.9</ele>
      </trkpt>
      <trkpt lat="46.55795" lon="4.83784">
        <ele>259.7</ele>
      </trkpt>
      <trkpt lat="46.55794" lon="4.83762">
        <ele>260.1</ele>
      </trkpt>
      <trkpt lat="46.55792" lon="4.83745">
        <ele>260.7</ele>
      </trkpt>
      <trkpt lat="46.55785" lon="4.83729">
        <ele>262.1</ele>
      </trkpt>
      <trkpt lat="46.55767" lon="4.83693">
        <ele>264.9</ele>
      </trkpt>
      <trkpt lat="46.55722" lon="4.83622">
        <ele>269.6</ele>
      </trkpt>
      <trkpt lat="46.55692" lon="4.83559">
        <ele>269.2</ele>
      </trkpt>
      <trkpt lat="46.55693" lon="4.83549">
        <ele>267.7</ele>
      </trkpt>
      <trkpt lat="46.55694" lon="4.83536">
        <ele>265.8</ele>
      </trkpt>
      <trkpt lat="46.55699" lon="4.83508">
        <ele>262.7</ele>
      </trkpt>
      <trkpt lat="46.55711" lon="4.83456">
        <ele>256.6</ele>
      </trkpt>
      <trkpt lat="46.55725" lon="4.83402">
        <ele>252.6</ele>
      </trkpt>
      <trkpt lat="46.55731" lon="4.83384">
        <ele>251.2</ele>
      </trkpt>
      <trkpt lat="46.55736" lon="4.83374">
        <ele>250</ele>
      </trkpt>
      <trkpt lat="46.55741" lon="4.83368">
        <ele>248.9</ele>
      </trkpt>
      <trkpt lat="46.5575" lon="4.83366">
        <ele>247.3</ele>
      </trkpt>
      <trkpt lat="46.5575" lon="4.83347">
        <ele>247</ele>
      </trkpt>
      <trkpt lat="46.55752" lon="4.83327">
        <ele>246.9</ele>
      </trkpt>
      <trkpt lat="46.55759" lon="4.83301">
        <ele>246.8</ele>
      </trkpt>
      <trkpt lat="46.55763" lon="4.83282">
        <ele>247.3</ele>
      </trkpt>
      <trkpt lat="46.55764" lon="4.83269">
        <ele>247.9</ele>
      </trkpt>
      <trkpt lat="46.55762" lon="4.83252">
        <ele>248.7</ele>
      </trkpt>
      <trkpt lat="46.55757" lon="4.83232">
        <ele>250.7</ele>
      </trkpt>
      <trkpt lat="46.55748" lon="4.83198">
        <ele>252.6</ele>
      </trkpt>
      <trkpt lat="46.55737" lon="4.83158">
        <ele>255.4</ele>
      </trkpt>
      <trkpt lat="46.55734" lon="4.83142">
        <ele>255.7</ele>
      </trkpt>
      <trkpt lat="46.55734" lon="4.83133">
        <ele>256.1</ele>
      </trkpt>
      <trkpt lat="46.55736" lon="4.83123">
        <ele>256.8</ele>
      </trkpt>
      <trkpt lat="46.55745" lon="4.83152">
        <ele>256.2</ele>
      </trkpt>
      <trkpt lat="46.55752" lon="4.8317">
        <ele>255.7</ele>
      </trkpt>
      <trkpt lat="46.5576" lon="4.83185">
        <ele>254.9</ele>
      </trkpt>
      <trkpt lat="46.55771" lon="4.83199">
        <ele>254.9</ele>
      </trkpt>
      <trkpt lat="46.55782" lon="4.83212">
        <ele>255.1</ele>
      </trkpt>
      <trkpt lat="46.55796" lon="4.83223">
        <ele>255.9</ele>
      </trkpt>
      <trkpt lat="46.55819" lon="4.83234">
        <ele>256.7</ele>
      </trkpt>
      <trkpt lat="46.55831" lon="4.83239">
        <ele>257</ele>
      </trkpt>
      <trkpt lat="46.5584" lon="4.83245">
        <ele>257.5</ele>
      </trkpt>
      <trkpt lat="46.55849" lon="4.83253">
        <ele>257.9</ele>
      </trkpt>
      <trkpt lat="46.55857" lon="4.83264">
        <ele>257.5</ele>
      </trkpt>
      <trkpt lat="46.55867" lon="4.83281">
        <ele>256.1</ele>
      </trkpt>
      <trkpt lat="46.55876" lon="4.833">
        <ele>255.5</ele>
      </trkpt>
      <trkpt lat="46.55888" lon="4.83318">
        <ele>255</ele>
      </trkpt>
      <trkpt lat="46.55901" lon="4.83334">
        <ele>254</ele>
      </trkpt>
      <trkpt lat="46.55923" lon="4.83357">
        <ele>251.2</ele>
      </trkpt>
      <trkpt lat="46.55944" lon="4.8338">
        <ele>247.1</ele>
      </trkpt>
      <trkpt lat="46.55963" lon="4.83401">
        <ele>246</ele>
      </trkpt>
      <trkpt lat="46.55968" lon="4.83409">
        <ele>245.9</ele>
      </trkpt>
      <trkpt lat="46.55971" lon="4.83415">
        <ele>246</ele>
      </trkpt>
      <trkpt lat="46.55976" lon="4.83408">
        <ele>246</ele>
      </trkpt>
      <trkpt lat="46.55981" lon="4.83394">
        <ele>246</ele>
      </trkpt>
      <trkpt lat="46.55987" lon="4.83356">
        <ele>246.6</ele>
      </trkpt>
      <trkpt lat="46.55991" lon="4.83334">
        <ele>247</ele>
      </trkpt>
      <trkpt lat="46.55994" lon="4.8332">
        <ele>247</ele>
      </trkpt>
      <trkpt lat="46.55997" lon="4.83312">
        <ele>247</ele>
      </trkpt>
      <trkpt lat="46.56003" lon="4.83301">
        <ele>247.3</ele>
      </trkpt>
      <trkpt lat="46.56009" lon="4.83294">
        <ele>247.8</ele>
      </trkpt>
      <trkpt lat="46.56016" lon="4.83289">
        <ele>248.2</ele>
      </trkpt>
      <trkpt lat="46.56024" lon="4.83287">
        <ele>248.5</ele>
      </trkpt>
      <trkpt lat="46.56043" lon="4.83287">
        <ele>249.2</ele>
      </trkpt>
      <trkpt lat="46.56066" lon="4.8329">
        <ele>249.9</ele>
      </trkpt>
      <trkpt lat="46.56083" lon="4.83292">
        <ele>250.5</ele>
      </trkpt>
      <trkpt lat="46.56097" lon="4.83293">
        <ele>251.2</ele>
      </trkpt>
      <trkpt lat="46.56104" lon="4.83292">
        <ele>251.6</ele>
      </trkpt>
      <trkpt lat="46.56113" lon="4.83286">
        <ele>252.1</ele>
      </trkpt>
      <trkpt lat="46.56118" lon="4.83278">
        <ele>252.3</ele>
      </trkpt>
      <trkpt lat="46.56125" lon="4.83265">
        <ele>253.2</ele>
      </trkpt>
      <trkpt lat="46.5613" lon="4.83246">
        <ele>254.4</ele>
      </trkpt>
      <trkpt lat="46.56135" lon="4.83218">
        <ele>256.6</ele>
      </trkpt>
      <trkpt lat="46.56142" lon="4.83189">
        <ele>259.4</ele>
      </trkpt>
      <trkpt lat="46.56149" lon="4.83157">
        <ele>261.4</ele>
      </trkpt>
      <trkpt lat="46.56153" lon="4.83128">
        <ele>262.9</ele>
      </trkpt>
      <trkpt lat="46.56139" lon="4.83137">
        <ele>264.3</ele>
      </trkpt>
      <trkpt lat="46.5613" lon="4.83133">
        <ele>265.6</ele>
      </trkpt>
      <trkpt lat="46.5612" lon="4.83126">
        <ele>267.6</ele>
      </trkpt>
      <trkpt lat="46.56103" lon="4.83116">
        <ele>269.7</ele>
      </trkpt>
      <trkpt lat="46.56091" lon="4.83105">
        <ele>270.5</ele>
      </trkpt>
      <trkpt lat="46.56076" lon="4.83084">
        <ele>272.6</ele>
      </trkpt>
      <trkpt lat="46.56063" lon="4.83067">
        <ele>274.8</ele>
      </trkpt>
      <trkpt lat="46.56053" lon="4.83057">
        <ele>275.6</ele>
      </trkpt>
      <trkpt lat="46.56046" lon="4.83052">
        <ele>276</ele>
      </trkpt>
      <trkpt lat="46.56035" lon="4.8305">
        <ele>275.7</ele>
      </trkpt>
      <trkpt lat="46.56018" lon="4.83049">
        <ele>274.8</ele>
      </trkpt>
      <trkpt lat="46.56" lon="4.83048">
        <ele>274.1</ele>
      </trkpt>
      <trkpt lat="46.55985" lon="4.83043">
        <ele>273.2</ele>
      </trkpt>
      <trkpt lat="46.55965" lon="4.83031">
        <ele>272</ele>
      </trkpt>
      <trkpt lat="46.55944" lon="4.83017">
        <ele>271.5</ele>
      </trkpt>
      <trkpt lat="46.55929" lon="4.83009">
        <ele>271</ele>
      </trkpt>
      <trkpt lat="46.55911" lon="4.83003">
        <ele>269.4</ele>
      </trkpt>
      <trkpt lat="46.55896" lon="4.82997">
        <ele>269</ele>
      </trkpt>
      <trkpt lat="46.55883" lon="4.8299">
        <ele>268.9</ele>
      </trkpt>
      <trkpt lat="46.55872" lon="4.82979">
        <ele>268.8</ele>
      </trkpt>
      <trkpt lat="46.55856" lon="4.82963">
        <ele>268.9</ele>
      </trkpt>
      <trkpt lat="46.55834" lon="4.82941">
        <ele>269.4</ele>
      </trkpt>
      <trkpt lat="46.55814" lon="4.8292">
        <ele>269.6</ele>
      </trkpt>
      <trkpt lat="46.55798" lon="4.82905">
        <ele>270.2</ele>
      </trkpt>
      <trkpt lat="46.55796" lon="4.82896">
        <ele>271.1</ele>
      </trkpt>
      <trkpt lat="46.55794" lon="4.82888">
        <ele>271.8</ele>
      </trkpt>
      <trkpt lat="46.55779" lon="4.82861">
        <ele>273.3</ele>
      </trkpt>
      <trkpt lat="46.55808" lon="4.82856">
        <ele>277.8</ele>
      </trkpt>
      <trkpt lat="46.55832" lon="4.82851">
        <ele>280.9</ele>
      </trkpt>
      <trkpt lat="46.5584" lon="4.82835">
        <ele>284</ele>
      </trkpt>
      <trkpt lat="46.55837" lon="4.82818">
        <ele>286.9</ele>
      </trkpt>
      <trkpt lat="46.55848" lon="4.82745">
        <ele>299.8</ele>
      </trkpt>
      <trkpt lat="46.55822" lon="4.82704">
        <ele>303</ele>
      </trkpt>
      <trkpt lat="46.55793" lon="4.82643">
        <ele>307.6</ele>
      </trkpt>
      <trkpt lat="46.55803" lon="4.82602">
        <ele>311</ele>
      </trkpt>
      <trkpt lat="46.55803" lon="4.82505">
        <ele>301.2</ele>
      </trkpt>
      <trkpt lat="46.5581" lon="4.82501">
        <ele>299.8</ele>
      </trkpt>
      <trkpt lat="46.55814" lon="4.82496">
        <ele>299</ele>
      </trkpt>
      <trkpt lat="46.55815" lon="4.82484">
        <ele>297.8</ele>
      </trkpt>
      <trkpt lat="46.55815" lon="4.82471">
        <ele>296.6</ele>
      </trkpt>
      <trkpt lat="46.55823" lon="4.82457">
        <ele>296</ele>
      </trkpt>
      <trkpt lat="46.5584" lon="4.82417">
        <ele>293.8</ele>
      </trkpt>
      <trkpt lat="46.55867" lon="4.82354">
        <ele>293.8</ele>
      </trkpt>
      <trkpt lat="46.55877" lon="4.82331">
        <ele>294.1</ele>
      </trkpt>
      <trkpt lat="46.55883" lon="4.82313">
        <ele>294.6</ele>
      </trkpt>
      <trkpt lat="46.55898" lon="4.82269">
        <ele>297.1</ele>
      </trkpt>
      <trkpt lat="46.55905" lon="4.82258">
        <ele>297.6</ele>
      </trkpt>
      <trkpt lat="46.55912" lon="4.82235">
        <ele>299</ele>
      </trkpt>
      <trkpt lat="46.55928" lon="4.82184">
        <ele>304.3</ele>
      </trkpt>
      <trkpt lat="46.55931" lon="4.82178">
        <ele>305</ele>
      </trkpt>
      <trkpt lat="46.55936" lon="4.82174">
        <ele>305.4</ele>
      </trkpt>
      <trkpt lat="46.5594" lon="4.82171">
        <ele>305.7</ele>
      </trkpt>
      <trkpt lat="46.55949" lon="4.8217">
        <ele>306.1</ele>
      </trkpt>
      <trkpt lat="46.55984" lon="4.82177">
        <ele>307.3</ele>
      </trkpt>
      <trkpt lat="46.55995" lon="4.82179">
        <ele>307.9</ele>
      </trkpt>
      <trkpt lat="46.56004" lon="4.82178">
        <ele>308.3</ele>
      </trkpt>
      <trkpt lat="46.56012" lon="4.82176">
        <ele>308.6</ele>
      </trkpt>
      <trkpt lat="46.56018" lon="4.82171">
        <ele>309</ele>
      </trkpt>
      <trkpt lat="46.56026" lon="4.8216">
        <ele>310</ele>
      </trkpt>
      <trkpt lat="46.5604" lon="4.82141">
        <ele>311.9</ele>
      </trkpt>
      <trkpt lat="46.56053" lon="4.82123">
        <ele>313.4</ele>
      </trkpt>
      <trkpt lat="46.56062" lon="4.82112">
        <ele>314.7</ele>
      </trkpt>
      <trkpt lat="46.56068" lon="4.82106">
        <ele>315.5</ele>
      </trkpt>
      <trkpt lat="46.5608" lon="4.82103">
        <ele>315.8</ele>
      </trkpt>
      <trkpt lat="46.56201" lon="4.82158">
        <ele>320.6</ele>
      </trkpt>
      <trkpt lat="46.56263" lon="4.82174">
        <ele>324.5</ele>
      </trkpt>
      <trkpt lat="46.56306" lon="4.82191">
        <ele>322.2</ele>
      </trkpt>
      <trkpt lat="46.56325" lon="4.82202">
        <ele>320.3</ele>
      </trkpt>
      <trkpt lat="46.56349" lon="4.82221">
        <ele>320.2</ele>
      </trkpt>
      <trkpt lat="46.5637" lon="4.82241">
        <ele>323.7</ele>
      </trkpt>
      <trkpt lat="46.56384" lon="4.82251">
        <ele>326.6</ele>
      </trkpt>
      <trkpt lat="46.56407" lon="4.82264">
        <ele>329.5</ele>
      </trkpt>
      <trkpt lat="46.56416" lon="4.82268">
        <ele>330.8</ele>
      </trkpt>
      <trkpt lat="46.56429" lon="4.82268">
        <ele>333.3</ele>
      </trkpt>
      <trkpt lat="46.56445" lon="4.82268">
        <ele>336.4</ele>
      </trkpt>
      <trkpt lat="46.56472" lon="4.82265">
        <ele>340.8</ele>
      </trkpt>
      <trkpt lat="46.56487" lon="4.82263">
        <ele>342.9</ele>
      </trkpt>
      <trkpt lat="46.56496" lon="4.82259">
        <ele>344.5</ele>
      </trkpt>
      <trkpt lat="46.56505" lon="4.82252">
        <ele>346.5</ele>
      </trkpt>
      <trkpt lat="46.56514" lon="4.82246">
        <ele>348.5</ele>
      </trkpt>
      <trkpt lat="46.56534" lon="4.82239">
        <ele>351.8</ele>
      </trkpt>
      <trkpt lat="46.56565" lon="4.82229">
        <ele>355.9</ele>
      </trkpt>
      <trkpt lat="46.56571" lon="4.82228">
        <ele>356.6</ele>
      </trkpt>
      <trkpt lat="46.56574" lon="4.82225">
        <ele>357</ele>
      </trkpt>
      <trkpt lat="46.56576" lon="4.82222">
        <ele>357.5</ele>
      </trkpt>
      <trkpt lat="46.56581" lon="4.82213">
        <ele>358.8</ele>
      </trkpt>
      <trkpt lat="46.56584" lon="4.82204">
        <ele>359.9</ele>
      </trkpt>
      <trkpt lat="46.56587" lon="4.82186">
        <ele>362</ele>
      </trkpt>
      <trkpt lat="46.56587" lon="4.82171">
        <ele>363.7</ele>
      </trkpt>
      <trkpt lat="46.56586" lon="4.8215">
        <ele>365.9</ele>
      </trkpt>
      <trkpt lat="46.56585" lon="4.8213">
        <ele>367.7</ele>
      </trkpt>
      <trkpt lat="46.56585" lon="4.8211">
        <ele>369.1</ele>
      </trkpt>
      <trkpt lat="46.56584" lon="4.8209">
        <ele>371.4</ele>
      </trkpt>
      <trkpt lat="46.56581" lon="4.8207">
        <ele>373.4</ele>
      </trkpt>
      <trkpt lat="46.56577" lon="4.82047">
        <ele>375.4</ele>
      </trkpt>
      <trkpt lat="46.56576" lon="4.82028">
        <ele>376.7</ele>
      </trkpt>
      <trkpt lat="46.56578" lon="4.81992">
        <ele>377.6</ele>
      </trkpt>
      <trkpt lat="46.56578" lon="4.81968">
        <ele>377.9</ele>
      </trkpt>
      <trkpt lat="46.56575" lon="4.81949">
        <ele>378.5</ele>
      </trkpt>
      <trkpt lat="46.56571" lon="4.81932">
        <ele>379</ele>
      </trkpt>
      <trkpt lat="46.56569" lon="4.81917">
        <ele>379.5</ele>
      </trkpt>
      <trkpt lat="46.56563" lon="4.81877">
        <ele>381.7</ele>
      </trkpt>
      <trkpt lat="46.56554" lon="4.81818">
        <ele>387.8</ele>
      </trkpt>
      <trkpt lat="46.56548" lon="4.81791">
        <ele>390.6</ele>
      </trkpt>
      <trkpt lat="46.56544" lon="4.8177">
        <ele>392.9</ele>
      </trkpt>
      <trkpt lat="46.56543" lon="4.81756">
        <ele>394.3</ele>
      </trkpt>
      <trkpt lat="46.56544" lon="4.81741">
        <ele>396.3</ele>
      </trkpt>
      <trkpt lat="46.56548" lon="4.81723">
        <ele>398.4</ele>
      </trkpt>
      <trkpt lat="46.56558" lon="4.81701">
        <ele>401.5</ele>
      </trkpt>
      <trkpt lat="46.56569" lon="4.81685">
        <ele>403.6</ele>
      </trkpt>
      <trkpt lat="46.56576" lon="4.81671">
        <ele>405.1</ele>
      </trkpt>
      <trkpt lat="46.56583" lon="4.81649">
        <ele>407.3</ele>
      </trkpt>
      <trkpt lat="46.56589" lon="4.81625">
        <ele>408.9</ele>
      </trkpt>
      <trkpt lat="46.56593" lon="4.81612">
        <ele>409.6</ele>
      </trkpt>
      <trkpt lat="46.56599" lon="4.816">
        <ele>410.3</ele>
      </trkpt>
      <trkpt lat="46.56606" lon="4.81593">
        <ele>410.8</ele>
      </trkpt>
      <trkpt lat="46.56612" lon="4.81589">
        <ele>411</ele>
      </trkpt>
      <trkpt lat="46.56629" lon="4.81583">
        <ele>411.6</ele>
      </trkpt>
      <trkpt lat="46.56658" lon="4.81575">
        <ele>413</ele>
      </trkpt>
      <trkpt lat="46.5669" lon="4.81564">
        <ele>413.9</ele>
      </trkpt>
      <trkpt lat="46.56718" lon="4.81556">
        <ele>414</ele>
      </trkpt>
      <trkpt lat="46.56755" lon="4.81549">
        <ele>414.5</ele>
      </trkpt>
      <trkpt lat="46.56716" lon="4.81533">
        <ele>413.2</ele>
      </trkpt>
      <trkpt lat="46.5666" lon="4.81511">
        <ele>413</ele>
      </trkpt>
      <trkpt lat="46.56607" lon="4.8149">
        <ele>412</ele>
      </trkpt>
      <trkpt lat="46.56554" lon="4.8147">
        <ele>411</ele>
      </trkpt>
      <trkpt lat="46.56513" lon="4.81453">
        <ele>411</ele>
      </trkpt>
      <trkpt lat="46.56488" lon="4.81442">
        <ele>411.3</ele>
      </trkpt>
      <trkpt lat="46.56477" lon="4.81437">
        <ele>411.6</ele>
      </trkpt>
      <trkpt lat="46.56446" lon="4.81423">
        <ele>412</ele>
      </trkpt>
      <trkpt lat="46.56442" lon="4.81422">
        <ele>412.1</ele>
      </trkpt>
      <trkpt lat="46.56417" lon="4.81414">
        <ele>413</ele>
      </trkpt>
      <trkpt lat="46.56389" lon="4.81406">
        <ele>413</ele>
      </trkpt>
      <trkpt lat="46.56362" lon="4.814">
        <ele>413</ele>
      </trkpt>
      <trkpt lat="46.56344" lon="4.81398">
        <ele>412.8</ele>
      </trkpt>
      <trkpt lat="46.56338" lon="4.81397">
        <ele>412.8</ele>
      </trkpt>
      <trkpt lat="46.56301" lon="4.81389">
        <ele>411.9</ele>
      </trkpt>
      <trkpt lat="46.56259" lon="4.81378">
        <ele>410</ele>
      </trkpt>
      <trkpt lat="46.56238" lon="4.81374">
        <ele>409.1</ele>
      </trkpt>
      <trkpt lat="46.56231" lon="4.81372">
        <ele>408.9</ele>
      </trkpt>
      <trkpt lat="46.56216" lon="4.8137">
        <ele>408.3</ele>
      </trkpt>
      <trkpt lat="46.56213" lon="4.81369">
        <ele>408.1</ele>
      </trkpt>
      <trkpt lat="46.56177" lon="4.81374">
        <ele>406.4</ele>
      </trkpt>
      <trkpt lat="46.56151" lon="4.81378">
        <ele>406</ele>
      </trkpt>
      <trkpt lat="46.56131" lon="4.81381">
        <ele>406.5</ele>
      </trkpt>
      <trkpt lat="46.56108" lon="4.81382">
        <ele>407.9</ele>
      </trkpt>
      <trkpt lat="46.56093" lon="4.81379">
        <ele>409</ele>
      </trkpt>
      <trkpt lat="46.56074" lon="4.81369">
        <ele>410</ele>
      </trkpt>
      <trkpt lat="46.56059" lon="4.81362">
        <ele>410.8</ele>
      </trkpt>
      <trkpt lat="46.55996" lon="4.81328">
        <ele>411</ele>
      </trkpt>
      <trkpt lat="46.55988" lon="4.81325">
        <ele>411.1</ele>
      </trkpt>
      <trkpt lat="46.55923" lon="4.81294">
        <ele>410.1</ele>
      </trkpt>
      <trkpt lat="46.55872" lon="4.81244">
        <ele>408.3</ele>
      </trkpt>
      <trkpt lat="46.55848" lon="4.81237">
        <ele>407.7</ele>
      </trkpt>
      <trkpt lat="46.55821" lon="4.81218">
        <ele>407.1</ele>
      </trkpt>
      <trkpt lat="46.55776" lon="4.8115">
        <ele>406.5</ele>
      </trkpt>
      <trkpt lat="46.55752" lon="4.81131">
        <ele>406.1</ele>
      </trkpt>
      <trkpt lat="46.55722" lon="4.81116">
        <ele>404.8</ele>
      </trkpt>
      <trkpt lat="46.55702" lon="4.81108">
        <ele>403.8</ele>
      </trkpt>
      <trkpt lat="46.5568" lon="4.81094">
        <ele>403.4</ele>
      </trkpt>
      <trkpt lat="46.55658" lon="4.81082">
        <ele>402.8</ele>
      </trkpt>
      <trkpt lat="46.55662" lon="4.81074">
        <ele>403.2</ele>
      </trkpt>
      <trkpt lat="46.55665" lon="4.81066">
        <ele>403.6</ele>
      </trkpt>
      <trkpt lat="46.55668" lon="4.81043">
        <ele>404.5</ele>
      </trkpt>
      <trkpt lat="46.55672" lon="4.81007">
        <ele>405</ele>
      </trkpt>
      <trkpt lat="46.55677" lon="4.80986">
        <ele>404.5</ele>
      </trkpt>
      <trkpt lat="46.55685" lon="4.8096">
        <ele>402.5</ele>
      </trkpt>
      <trkpt lat="46.55689" lon="4.80938">
        <ele>399.9</ele>
      </trkpt>
      <trkpt lat="46.55694" lon="4.8088">
        <ele>394.1</ele>
      </trkpt>
      <trkpt lat="46.55702" lon="4.80844">
        <ele>390.2</ele>
      </trkpt>
      <trkpt lat="46.55726" lon="4.80795">
        <ele>386.7</ele>
      </trkpt>
      <trkpt lat="46.5574" lon="4.8075">
        <ele>385.4</ele>
      </trkpt>
      <trkpt lat="46.55748" lon="4.80722">
        <ele>384.1</ele>
      </trkpt>
      <trkpt lat="46.55761" lon="4.80674">
        <ele>381.2</ele>
      </trkpt>
      <trkpt lat="46.55772" lon="4.80653">
        <ele>378.6</ele>
      </trkpt>
      <trkpt lat="46.55824" lon="4.80615">
        <ele>368.7</ele>
      </trkpt>
      <trkpt lat="46.55865" lon="4.80612">
        <ele>361.2</ele>
      </trkpt>
      <trkpt lat="46.55874" lon="4.80617">
        <ele>359.7</ele>
      </trkpt>
      <trkpt lat="46.55888" lon="4.80626">
        <ele>356.7</ele>
      </trkpt>
      <trkpt lat="46.559" lon="4.80647">
        <ele>353.5</ele>
      </trkpt>
      <trkpt lat="46.55912" lon="4.80672">
        <ele>350.7</ele>
      </trkpt>
      <trkpt lat="46.55929" lon="4.80682">
        <ele>347.3</ele>
      </trkpt>
      <trkpt lat="46.55949" lon="4.80682">
        <ele>344.5</ele>
      </trkpt>
      <trkpt lat="46.5596" lon="4.80678">
        <ele>344.1</ele>
      </trkpt>
      <trkpt lat="46.55973" lon="4.80674">
        <ele>343.8</ele>
      </trkpt>
      <trkpt lat="46.55985" lon="4.80697">
        <ele>347.5</ele>
      </trkpt>
      <trkpt lat="46.56003" lon="4.80708">
        <ele>351.7</ele>
      </trkpt>
      <trkpt lat="46.56026" lon="4.80718">
        <ele>358.3</ele>
      </trkpt>
      <trkpt lat="46.56052" lon="4.80721">
        <ele>365.1</ele>
      </trkpt>
      <trkpt lat="46.56159" lon="4.80753">
        <ele>385.6</ele>
      </trkpt>
      <trkpt lat="46.56199" lon="4.80765">
        <ele>388.2</ele>
      </trkpt>
      <trkpt lat="46.56217" lon="4.80771">
        <ele>388.7</ele>
      </trkpt>
      <trkpt lat="46.56275" lon="4.80792">
        <ele>388.1</ele>
      </trkpt>
      <trkpt lat="46.56352" lon="4.80848">
        <ele>387.3</ele>
      </trkpt>
      <trkpt lat="46.5636" lon="4.80857">
        <ele>386.9</ele>
      </trkpt>
      <trkpt lat="46.56426" lon="4.80938">
        <ele>386.9</ele>
      </trkpt>
      <trkpt lat="46.56441" lon="4.80949">
        <ele>386.2</ele>
      </trkpt>
      <trkpt lat="46.56464" lon="4.80973">
        <ele>385.5</ele>
      </trkpt>
      <trkpt lat="46.56486" lon="4.80996">
        <ele>384.5</ele>
      </trkpt>
      <trkpt lat="46.56503" lon="4.81016">
        <ele>382.9</ele>
      </trkpt>
      <trkpt lat="46.56518" lon="4.81027">
        <ele>380.4</ele>
      </trkpt>
      <trkpt lat="46.5654" lon="4.81048">
        <ele>375.8</ele>
      </trkpt>
      <trkpt lat="46.56574" lon="4.81075">
        <ele>372.4</ele>
      </trkpt>
      <trkpt lat="46.56595" lon="4.81076">
        <ele>368.9</ele>
      </trkpt>
      <trkpt lat="46.56607" lon="4.81109">
        <ele>369.5</ele>
      </trkpt>
      <trkpt lat="46.56609" lon="4.81111">
        <ele>369.4</ele>
      </trkpt>
      <trkpt lat="46.5661" lon="4.81113">
        <ele>369.3</ele>
      </trkpt>
      <trkpt lat="46.56615" lon="4.8112">
        <ele>369.6</ele>
      </trkpt>
      <trkpt lat="46.56623" lon="4.81125">
        <ele>369.8</ele>
      </trkpt>
      <trkpt lat="46.56633" lon="4.81134">
        <ele>370.5</ele>
      </trkpt>
      <trkpt lat="46.5664" lon="4.81134">
        <ele>370.5</ele>
      </trkpt>
      <trkpt lat="46.56648" lon="4.81139">
        <ele>371.3</ele>
      </trkpt>
      <trkpt lat="46.5667" lon="4.8114">
        <ele>372.1</ele>
      </trkpt>
      <trkpt lat="46.56672" lon="4.8114">
        <ele>372.1</ele>
      </trkpt>
      <trkpt lat="46.56684" lon="4.81144">
        <ele>372.6</ele>
      </trkpt>
      <trkpt lat="46.56733" lon="4.81158">
        <ele>372.3</ele>
      </trkpt>
      <trkpt lat="46.56733" lon="4.81158">
        <ele>372.3</ele>
      </trkpt>
      <trkpt lat="46.56733" lon="4.81158">
        <ele>372.3</ele>
      </trkpt>
      <trkpt lat="46.56736" lon="4.81132">
        <ele>370.8</ele>
      </trkpt>
      <trkpt lat="46.56736" lon="4.81132">
        <ele>370.7</ele>
      </trkpt>
      <trkpt lat="46.56696" lon="4.81099">
        <ele>366.3</ele>
      </trkpt>
      <trkpt lat="46.56666" lon="4.81077">
        <ele>363</ele>
      </trkpt>
      <trkpt lat="46.56656" lon="4.8107">
        <ele>362.5</ele>
      </trkpt>
      <trkpt lat="46.56653" lon="4.81068">
        <ele>362.1</ele>
      </trkpt>
      <trkpt lat="46.56639" lon="4.81047">
        <ele>358.4</ele>
      </trkpt>
      <trkpt lat="46.56628" lon="4.81037">
        <ele>358.9</ele>
      </trkpt>
      <trkpt lat="46.56618" lon="4.81014">
        <ele>356.9</ele>
      </trkpt>
      <trkpt lat="46.56612" lon="4.8099">
        <ele>353.7</ele>
      </trkpt>
      <trkpt lat="46.5659" lon="4.80926">
        <ele>348.9</ele>
      </trkpt>
      <trkpt lat="46.56586" lon="4.80909">
        <ele>346.3</ele>
      </trkpt>
      <trkpt lat="46.56556" lon="4.80817">
        <ele>341.7</ele>
      </trkpt>
      <trkpt lat="46.56531" lon="4.80675">
        <ele>336.9</ele>
      </trkpt>
      <trkpt lat="46.56542" lon="4.80671">
        <ele>337.9</ele>
      </trkpt>
      <trkpt lat="46.56553" lon="4.80639">
        <ele>333.8</ele>
      </trkpt>
      <trkpt lat="46.56578" lon="4.80589">
        <ele>332.4</ele>
      </trkpt>
      <trkpt lat="46.56625" lon="4.80549">
        <ele>344.4</ele>
      </trkpt>
      <trkpt lat="46.56644" lon="4.80531">
        <ele>348</ele>
      </trkpt>
      <trkpt lat="46.56654" lon="4.80503">
        <ele>347.7</ele>
      </trkpt>
      <trkpt lat="46.56679" lon="4.80455">
        <ele>352</ele>
      </trkpt>
      <trkpt lat="46.56711" lon="4.80418">
        <ele>353.9</ele>
      </trkpt>
      <trkpt lat="46.56749" lon="4.80422">
        <ele>356.5</ele>
      </trkpt>
      <trkpt lat="46.56874" lon="4.8049">
        <ele>364.9</ele>
      </trkpt>
      <trkpt lat="46.56902" lon="4.80505">
        <ele>366.8</ele>
      </trkpt>
      <trkpt lat="46.56927" lon="4.8052">
        <ele>367.7</ele>
      </trkpt>
      <trkpt lat="46.56931" lon="4.80523">
        <ele>367.8</ele>
      </trkpt>
      <trkpt lat="46.56952" lon="4.80539">
        <ele>368.3</ele>
      </trkpt>
      <trkpt lat="46.56979" lon="4.80567">
        <ele>368.1</ele>
      </trkpt>
      <trkpt lat="46.5699" lon="4.80581">
        <ele>367.7</ele>
      </trkpt>
      <trkpt lat="46.5699" lon="4.80533">
        <ele>367.3</ele>
      </trkpt>
      <trkpt lat="46.56993" lon="4.80507">
        <ele>367.1</ele>
      </trkpt>
      <trkpt lat="46.56999" lon="4.80488">
        <ele>366.6</ele>
      </trkpt>
      <trkpt lat="46.57014" lon="4.80475">
        <ele>366.1</ele>
      </trkpt>
      <trkpt lat="46.57029" lon="4.80473">
        <ele>366</ele>
      </trkpt>
      <trkpt lat="46.57048" lon="4.80469">
        <ele>365</ele>
      </trkpt>
      <trkpt lat="46.5707" lon="4.80472">
        <ele>364.5</ele>
      </trkpt>
      <trkpt lat="46.57115" lon="4.80483">
        <ele>362.7</ele>
      </trkpt>
      <trkpt lat="46.5713" lon="4.80481">
        <ele>361.6</ele>
      </trkpt>
      <trkpt lat="46.57143" lon="4.80471">
        <ele>360.7</ele>
      </trkpt>
      <trkpt lat="46.57157" lon="4.80447">
        <ele>358.8</ele>
      </trkpt>
      <trkpt lat="46.5717" lon="4.80417">
        <ele>354.7</ele>
      </trkpt>
      <trkpt lat="46.57179" lon="4.80405">
        <ele>352.6</ele>
      </trkpt>
      <trkpt lat="46.57199" lon="4.80387">
        <ele>349.7</ele>
      </trkpt>
      <trkpt lat="46.57209" lon="4.80392">
        <ele>349.1</ele>
      </trkpt>
      <trkpt lat="46.57227" lon="4.80395">
        <ele>347.7</ele>
      </trkpt>
      <trkpt lat="46.57236" lon="4.80393">
        <ele>346.6</ele>
      </trkpt>
      <trkpt lat="46.57243" lon="4.80392">
        <ele>345.9</ele>
      </trkpt>
      <trkpt lat="46.5726" lon="4.8039">
        <ele>344.3</ele>
      </trkpt>
      <trkpt lat="46.57271" lon="4.8039">
        <ele>343.5</ele>
      </trkpt>
      <trkpt lat="46.57291" lon="4.80392">
        <ele>341.6</ele>
      </trkpt>
      <trkpt lat="46.57396" lon="4.80401">
        <ele>328.2</ele>
      </trkpt>
      <trkpt lat="46.57449" lon="4.80412">
        <ele>318.8</ele>
      </trkpt>
      <trkpt lat="46.57497" lon="4.80434">
        <ele>307.7</ele>
      </trkpt>
      <trkpt lat="46.57522" lon="4.80461">
        <ele>303.4</ele>
      </trkpt>
      <trkpt lat="46.57578" lon="4.80569">
        <ele>295.1</ele>
      </trkpt>
      <trkpt lat="46.57601" lon="4.80602">
        <ele>288.6</ele>
      </trkpt>
      <trkpt lat="46.57612" lon="4.80615">
        <ele>285.6</ele>
      </trkpt>
      <trkpt lat="46.57624" lon="4.80618">
        <ele>283.2</ele>
      </trkpt>
      <trkpt lat="46.57633" lon="4.80615">
        <ele>281.3</ele>
      </trkpt>
      <trkpt lat="46.57642" lon="4.80609">
        <ele>279.6</ele>
      </trkpt>
      <trkpt lat="46.57653" lon="4.80594">
        <ele>278.4</ele>
      </trkpt>
      <trkpt lat="46.57669" lon="4.80565">
        <ele>276.3</ele>
      </trkpt>
      <trkpt lat="46.57686" lon="4.80539">
        <ele>275.4</ele>
      </trkpt>
      <trkpt lat="46.57694" lon="4.80531">
        <ele>275.1</ele>
      </trkpt>
      <trkpt lat="46.57701" lon="4.80529">
        <ele>276.9</ele>
      </trkpt>
      <trkpt lat="46.57706" lon="4.80527">
        <ele>278.2</ele>
      </trkpt>
      <trkpt lat="46.57705" lon="4.80502">
        <ele>276.4</ele>
      </trkpt>
      <trkpt lat="46.57713" lon="4.80484">
        <ele>275.9</ele>
      </trkpt>
      <trkpt lat="46.57727" lon="4.80458">
        <ele>274.3</ele>
      </trkpt>
      <trkpt lat="46.57737" lon="4.80436">
        <ele>273.5</ele>
      </trkpt>
      <trkpt lat="46.57743" lon="4.80423">
        <ele>272.2</ele>
      </trkpt>
      <trkpt lat="46.57752" lon="4.80411">
        <ele>270.7</ele>
      </trkpt>
      <trkpt lat="46.57763" lon="4.804">
        <ele>270.6</ele>
      </trkpt>
      <trkpt lat="46.57767" lon="4.80394">
        <ele>270.1</ele>
      </trkpt>
      <trkpt lat="46.5777" lon="4.80388">
        <ele>269.4</ele>
      </trkpt>
      <trkpt lat="46.57775" lon="4.80371">
        <ele>267.4</ele>
      </trkpt>
      <trkpt lat="46.57784" lon="4.80345">
        <ele>265.8</ele>
      </trkpt>
      <trkpt lat="46.57794" lon="4.80317">
        <ele>264.6</ele>
      </trkpt>
      <trkpt lat="46.57802" lon="4.80294">
        <ele>263.6</ele>
      </trkpt>
      <trkpt lat="46.57811" lon="4.80273">
        <ele>263.2</ele>
      </trkpt>
      <trkpt lat="46.5782" lon="4.80253">
        <ele>263.1</ele>
      </trkpt>
      <trkpt lat="46.5783" lon="4.80235">
        <ele>262.5</ele>
      </trkpt>
      <trkpt lat="46.57839" lon="4.80224">
        <ele>262.1</ele>
      </trkpt>
      <trkpt lat="46.57859" lon="4.80196">
        <ele>261.1</ele>
      </trkpt>
      <trkpt lat="46.57872" lon="4.80182">
        <ele>260.2</ele>
      </trkpt>
      <trkpt lat="46.57879" lon="4.80173">
        <ele>259.6</ele>
      </trkpt>
      <trkpt lat="46.57886" lon="4.80159">
        <ele>258.8</ele>
      </trkpt>
      <trkpt lat="46.579" lon="4.80132">
        <ele>257.9</ele>
      </trkpt>
      <trkpt lat="46.57927" lon="4.80072">
        <ele>256.6</ele>
      </trkpt>
      <trkpt lat="46.57935" lon="4.80077">
        <ele>256.8</ele>
      </trkpt>
      <trkpt lat="46.57956" lon="4.80086">
        <ele>257.5</ele>
      </trkpt>
      <trkpt lat="46.57986" lon="4.80093">
        <ele>259.3</ele>
      </trkpt>
      <trkpt lat="46.58006" lon="4.80095">
        <ele>260.8</ele>
      </trkpt>
      <trkpt lat="46.58014" lon="4.80093">
        <ele>261.4</ele>
      </trkpt>
      <trkpt lat="46.58021" lon="4.8009">
        <ele>261.8</ele>
      </trkpt>
      <trkpt lat="46.58029" lon="4.80084">
        <ele>262.2</ele>
      </trkpt>
      <trkpt lat="46.58033" lon="4.80081">
        <ele>262.5</ele>
      </trkpt>
      <trkpt lat="46.58041" lon="4.80073">
        <ele>263.2</ele>
      </trkpt>
      <trkpt lat="46.58061" lon="4.80056">
        <ele>264.7</ele>
      </trkpt>
      <trkpt lat="46.58067" lon="4.8005">
        <ele>265.2</ele>
      </trkpt>
      <trkpt lat="46.58076" lon="4.80047">
        <ele>266.1</ele>
      </trkpt>
      <trkpt lat="46.58089" lon="4.80043">
        <ele>267.2</ele>
      </trkpt>
      <trkpt lat="46.58115" lon="4.80035">
        <ele>269.1</ele>
      </trkpt>
      <trkpt lat="46.58132" lon="4.80029">
        <ele>269.7</ele>
      </trkpt>
      <trkpt lat="46.58145" lon="4.80027">
        <ele>270.4</ele>
      </trkpt>
      <trkpt lat="46.58172" lon="4.80027">
        <ele>271.9</ele>
      </trkpt>
      <trkpt lat="46.58199" lon="4.80027">
        <ele>271.8</ele>
      </trkpt>
      <trkpt lat="46.58216" lon="4.80026">
        <ele>271.2</ele>
      </trkpt>
      <trkpt lat="46.58224" lon="4.80024">
        <ele>270.8</ele>
      </trkpt>
      <trkpt lat="46.58223" lon="4.80045">
        <ele>272.2</ele>
      </trkpt>
      <trkpt lat="46.58226" lon="4.80055">
        <ele>273</ele>
      </trkpt>
      <trkpt lat="46.58227" lon="4.8006">
        <ele>273.6</ele>
      </trkpt>
      <trkpt lat="46.58232" lon="4.80075">
        <ele>275.8</ele>
      </trkpt>
      <trkpt lat="46.58237" lon="4.80091">
        <ele>277.9</ele>
      </trkpt>
      <trkpt lat="46.5824" lon="4.80102">
        <ele>279.2</ele>
      </trkpt>
      <trkpt lat="46.5824" lon="4.80107">
        <ele>279.9</ele>
      </trkpt>
      <trkpt lat="46.58239" lon="4.80115">
        <ele>280.8</ele>
      </trkpt>
      <trkpt lat="46.58238" lon="4.80121">
        <ele>281.5</ele>
      </trkpt>
      <trkpt lat="46.58237" lon="4.80126">
        <ele>282.1</ele>
      </trkpt>
      <trkpt lat="46.58238" lon="4.80135">
        <ele>283</ele>
      </trkpt>
      <trkpt lat="46.58241" lon="4.80142">
        <ele>283.7</ele>
      </trkpt>
      <trkpt lat="46.58249" lon="4.80156">
        <ele>284.8</ele>
      </trkpt>
      <trkpt lat="46.58254" lon="4.80168">
        <ele>286</ele>
      </trkpt>
      <trkpt lat="46.58257" lon="4.80182">
        <ele>287.5</ele>
      </trkpt>
      <trkpt lat="46.58258" lon="4.8019">
        <ele>288.3</ele>
      </trkpt>
      <trkpt lat="46.58257" lon="4.80197">
        <ele>288.9</ele>
      </trkpt>
      <trkpt lat="46.58256" lon="4.802">
        <ele>289.2</ele>
      </trkpt>
      <trkpt lat="46.58253" lon="4.80203">
        <ele>289.4</ele>
      </trkpt>
      <trkpt lat="46.58249" lon="4.80205">
        <ele>289.8</ele>
      </trkpt>
      <trkpt lat="46.58244" lon="4.80204">
        <ele>290.1</ele>
      </trkpt>
      <trkpt lat="46.58208" lon="4.80195">
        <ele>292.5</ele>
      </trkpt>
      <trkpt lat="46.58201" lon="4.80196">
        <ele>293.4</ele>
      </trkpt>
      <trkpt lat="46.58191" lon="4.802">
        <ele>294.1</ele>
      </trkpt>
      <trkpt lat="46.58183" lon="4.80206">
        <ele>294.2</ele>
      </trkpt>
      <trkpt lat="46.58176" lon="4.80217">
        <ele>294.7</ele>
      </trkpt>
      <trkpt lat="46.5817" lon="4.8023">
        <ele>295</ele>
      </trkpt>
      <trkpt lat="46.58166" lon="4.80242">
        <ele>294.9</ele>
      </trkpt>
      <trkpt lat="46.58163" lon="4.80259">
        <ele>294.6</ele>
      </trkpt>
      <trkpt lat="46.58158" lon="4.80305">
        <ele>294.7</ele>
      </trkpt>
      <trkpt lat="46.58153" lon="4.80348">
        <ele>295.5</ele>
      </trkpt>
      <trkpt lat="46.58155" lon="4.80372">
        <ele>296.3</ele>
      </trkpt>
      <trkpt lat="46.58154" lon="4.80395">
        <ele>297.1</ele>
      </trkpt>
      <trkpt lat="46.58152" lon="4.80408">
        <ele>297.7</ele>
      </trkpt>
      <trkpt lat="46.58149" lon="4.80422">
        <ele>298.7</ele>
      </trkpt>
      <trkpt lat="46.58142" lon="4.80442">
        <ele>300.4</ele>
      </trkpt>
      <trkpt lat="46.58136" lon="4.80458">
        <ele>301.3</ele>
      </trkpt>
      <trkpt lat="46.58131" lon="4.80475">
        <ele>302.3</ele>
      </trkpt>
      <trkpt lat="46.58128" lon="4.80493">
        <ele>303.7</ele>
      </trkpt>
      <trkpt lat="46.58125" lon="4.80518">
        <ele>305.4</ele>
      </trkpt>
      <trkpt lat="46.58127" lon="4.80542">
        <ele>306.9</ele>
      </trkpt>
      <trkpt lat="46.58132" lon="4.80569">
        <ele>308.3</ele>
      </trkpt>
      <trkpt lat="46.58135" lon="4.80594">
        <ele>310.2</ele>
      </trkpt>
      <trkpt lat="46.58136" lon="4.80628">
        <ele>313.4</ele>
      </trkpt>
      <trkpt lat="46.58135" lon="4.80647">
        <ele>315.6</ele>
      </trkpt>
      <trkpt lat="46.58132" lon="4.80677">
        <ele>319.4</ele>
      </trkpt>
      <trkpt lat="46.5812" lon="4.80754">
        <ele>326.9</ele>
      </trkpt>
      <trkpt lat="46.58101" lon="4.80848">
        <ele>333.6</ele>
      </trkpt>
      <trkpt lat="46.58096" lon="4.80872">
        <ele>336.2</ele>
      </trkpt>
      <trkpt lat="46.58077" lon="4.80873">
        <ele>337.7</ele>
      </trkpt>
      <trkpt lat="46.58059" lon="4.8088">
        <ele>339.7</ele>
      </trkpt>
      <trkpt lat="46.58039" lon="4.80901">
        <ele>342.6</ele>
      </trkpt>
      <trkpt lat="46.58029" lon="4.80918">
        <ele>344.1</ele>
      </trkpt>
      <trkpt lat="46.58025" lon="4.80936">
        <ele>345.3</ele>
      </trkpt>
      <trkpt lat="46.58024" lon="4.80957">
        <ele>346.3</ele>
      </trkpt>
      <trkpt lat="46.58029" lon="4.80985">
        <ele>347.5</ele>
      </trkpt>
      <trkpt lat="46.58037" lon="4.81021">
        <ele>349.3</ele>
      </trkpt>
      <trkpt lat="46.58037" lon="4.81074">
        <ele>353.7</ele>
      </trkpt>
      <trkpt lat="46.58034" lon="4.81091">
        <ele>355</ele>
      </trkpt>
      <trkpt lat="46.57975" lon="4.81248">
        <ele>360.2</ele>
      </trkpt>
      <trkpt lat="46.57948" lon="4.8133">
        <ele>363.2</ele>
      </trkpt>
      <trkpt lat="46.57933" lon="4.81427">
        <ele>370.8</ele>
      </trkpt>
      <trkpt lat="46.5793" lon="4.81513">
        <ele>384.2</ele>
      </trkpt>
      <trkpt lat="46.57865" lon="4.81545">
        <ele>387.4</ele>
      </trkpt>
      <trkpt lat="46.57815" lon="4.81519">
        <ele>390.3</ele>
      </trkpt>
      <trkpt lat="46.57808" lon="4.81515">
        <ele>390.4</ele>
      </trkpt>
      <trkpt lat="46.57785" lon="4.81565">
        <ele>408.8</ele>
      </trkpt>
      <trkpt lat="46.57758" lon="4.81586">
        <ele>415.5</ele>
      </trkpt>
      <trkpt lat="46.57749" lon="4.81593">
        <ele>417.1</ele>
      </trkpt>
      <trkpt lat="46.57745" lon="4.81594">
        <ele>417.3</ele>
      </trkpt>
      <trkpt lat="46.5774" lon="4.81592">
        <ele>417.3</ele>
      </trkpt>
      <trkpt lat="46.57734" lon="4.81592">
        <ele>417.6</ele>
      </trkpt>
      <trkpt lat="46.57729" lon="4.81593">
        <ele>417.8</ele>
      </trkpt>
      <trkpt lat="46.57726" lon="4.81592">
        <ele>417.8</ele>
      </trkpt>
      <trkpt lat="46.57721" lon="4.81592">
        <ele>417.9</ele>
      </trkpt>
      <trkpt lat="46.57717" lon="4.81592">
        <ele>418.1</ele>
      </trkpt>
      <trkpt lat="46.57715" lon="4.81592">
        <ele>418.2</ele>
      </trkpt>
      <trkpt lat="46.57704" lon="4.81594">
        <ele>418.8</ele>
      </trkpt>
      <trkpt lat="46.57696" lon="4.81592">
        <ele>418.8</ele>
      </trkpt>
      <trkpt lat="46.57691" lon="4.8159">
        <ele>418.8</ele>
      </trkpt>
      <trkpt lat="46.57685" lon="4.8159">
        <ele>419</ele>
      </trkpt>
      <trkpt lat="46.57677" lon="4.81588">
        <ele>419.2</ele>
      </trkpt>
      <trkpt lat="46.57669" lon="4.81591">
        <ele>419.8</ele>
      </trkpt>
      <trkpt lat="46.57666" lon="4.81592">
        <ele>419.9</ele>
      </trkpt>
      <trkpt lat="46.5766" lon="4.81594">
        <ele>420.4</ele>
      </trkpt>
      <trkpt lat="46.57651" lon="4.81593">
        <ele>420.5</ele>
      </trkpt>
      <trkpt lat="46.57646" lon="4.81592">
        <ele>420.4</ele>
      </trkpt>
      <trkpt lat="46.57644" lon="4.81591">
        <ele>420.2</ele>
      </trkpt>
      <trkpt lat="46.57641" lon="4.8159">
        <ele>420.1</ele>
      </trkpt>
      <trkpt lat="46.57638" lon="4.81588">
        <ele>419.9</ele>
      </trkpt>
      <trkpt lat="46.57624" lon="4.81592">
        <ele>420.9</ele>
      </trkpt>
      <trkpt lat="46.57617" lon="4.81595">
        <ele>421.6</ele>
      </trkpt>
      <trkpt lat="46.57613" lon="4.81599">
        <ele>422.2</ele>
      </trkpt>
      <trkpt lat="46.57612" lon="4.81604">
        <ele>423</ele>
      </trkpt>
      <trkpt lat="46.57609" lon="4.81609">
        <ele>424</ele>
      </trkpt>
      <trkpt lat="46.57604" lon="4.81611">
        <ele>425.3</ele>
      </trkpt>
      <trkpt lat="46.57591" lon="4.81607">
        <ele>427.1</ele>
      </trkpt>
      <trkpt lat="46.5758" lon="4.81607">
        <ele>428.9</ele>
      </trkpt>
      <trkpt lat="46.57571" lon="4.81612">
        <ele>431</ele>
      </trkpt>
      <trkpt lat="46.5756" lon="4.81612">
        <ele>432.5</ele>
      </trkpt>
      <trkpt lat="46.57553" lon="4.81615">
        <ele>434.1</ele>
      </trkpt>
      <trkpt lat="46.57547" lon="4.81615">
        <ele>435</ele>
      </trkpt>
      <trkpt lat="46.57542" lon="4.81618">
        <ele>436.3</ele>
      </trkpt>
      <trkpt lat="46.57536" lon="4.81624">
        <ele>438.3</ele>
      </trkpt>
      <trkpt lat="46.57534" lon="4.81626">
        <ele>438.8</ele>
      </trkpt>
      <trkpt lat="46.5753" lon="4.81629">
        <ele>440</ele>
      </trkpt>
      <trkpt lat="46.57525" lon="4.81631">
        <ele>440.8</ele>
      </trkpt>
      <trkpt lat="46.57519" lon="4.81635">
        <ele>442.3</ele>
      </trkpt>
      <trkpt lat="46.57512" lon="4.81643">
        <ele>444.6</ele>
      </trkpt>
      <trkpt lat="46.5751" lon="4.81645">
        <ele>445.1</ele>
      </trkpt>
      <trkpt lat="46.57506" lon="4.81648">
        <ele>446.1</ele>
      </trkpt>
      <trkpt lat="46.57501" lon="4.81656">
        <ele>448</ele>
      </trkpt>
      <trkpt lat="46.57493" lon="4.81662">
        <ele>450</ele>
      </trkpt>
      <trkpt lat="46.57461" lon="4.81792">
        <ele>450.9</ele>
      </trkpt>
      <trkpt lat="46.5745" lon="4.81811">
        <ele>449.1</ele>
      </trkpt>
      <trkpt lat="46.57441" lon="4.81839">
        <ele>446.2</ele>
      </trkpt>
      <trkpt lat="46.57438" lon="4.81872">
        <ele>443.2</ele>
      </trkpt>
      <trkpt lat="46.57437" lon="4.81877">
        <ele>442.7</ele>
      </trkpt>
      <trkpt lat="46.57434" lon="4.81883">
        <ele>441.8</ele>
      </trkpt>
      <trkpt lat="46.57424" lon="4.81887">
        <ele>440.7</ele>
      </trkpt>
      <trkpt lat="46.57403" lon="4.81927">
        <ele>434.9</ele>
      </trkpt>
      <trkpt lat="46.57385" lon="4.81958">
        <ele>431.1</ele>
      </trkpt>
      <trkpt lat="46.5737" lon="4.81971">
        <ele>429</ele>
      </trkpt>
      <trkpt lat="46.57324" lon="4.81962">
        <ele>422.1</ele>
      </trkpt>
      <trkpt lat="46.57302" lon="4.81942">
        <ele>415.3</ele>
      </trkpt>
      <trkpt lat="46.57294" lon="4.81939">
        <ele>413.8</ele>
      </trkpt>
      <trkpt lat="46.57295" lon="4.82028">
        <ele>423.8</ele>
      </trkpt>
      <trkpt lat="46.57277" lon="4.8205">
        <ele>421.1</ele>
      </trkpt>
      <trkpt lat="46.57266" lon="4.82067">
        <ele>419</ele>
      </trkpt>
      <trkpt lat="46.57253" lon="4.8211">
        <ele>413.6</ele>
      </trkpt>
      <trkpt lat="46.57244" lon="4.82162">
        <ele>406.7</ele>
      </trkpt>
      <trkpt lat="46.57242" lon="4.82202">
        <ele>401.3</ele>
      </trkpt>
      <trkpt lat="46.57244" lon="4.82235">
        <ele>397.3</ele>
      </trkpt>
      <trkpt lat="46.57255" lon="4.82297">
        <ele>390.9</ele>
      </trkpt>
      <trkpt lat="46.57217" lon="4.82347">
        <ele>381</ele>
      </trkpt>
      <trkpt lat="46.57198" lon="4.8237">
        <ele>376.7</ele>
      </trkpt>
      <trkpt lat="46.57179" lon="4.82384">
        <ele>373.2</ele>
      </trkpt>
      <trkpt lat="46.57164" lon="4.82393">
        <ele>370.5</ele>
      </trkpt>
      <trkpt lat="46.57171" lon="4.82404">
        <ele>370.5</ele>
      </trkpt>
      <trkpt lat="46.57187" lon="4.82425">
        <ele>370.4</ele>
      </trkpt>
      <trkpt lat="46.57212" lon="4.82457">
        <ele>369.6</ele>
      </trkpt>
      <trkpt lat="46.57243" lon="4.82489">
        <ele>369.2</ele>
      </trkpt>
      <trkpt lat="46.57263" lon="4.82507">
        <ele>369.3</ele>
      </trkpt>
      <trkpt lat="46.57298" lon="4.82538">
        <ele>369.4</ele>
      </trkpt>
      <trkpt lat="46.57302" lon="4.82541">
        <ele>369.3</ele>
      </trkpt>
      <trkpt lat="46.57333" lon="4.82573">
        <ele>369.1</ele>
      </trkpt>
      <trkpt lat="46.57353" lon="4.82594">
        <ele>368.1</ele>
      </trkpt>
      <trkpt lat="46.57357" lon="4.82604">
        <ele>367.4</ele>
      </trkpt>
      <trkpt lat="46.57359" lon="4.82612">
        <ele>366.7</ele>
      </trkpt>
      <trkpt lat="46.57372" lon="4.82601">
        <ele>369.5</ele>
      </trkpt>
      <trkpt lat="46.57384" lon="4.82584">
        <ele>373.2</ele>
      </trkpt>
      <trkpt lat="46.57393" lon="4.82571">
        <ele>375.6</ele>
      </trkpt>
      <trkpt lat="46.57401" lon="4.82567">
        <ele>376.7</ele>
      </trkpt>
      <trkpt lat="46.57416" lon="4.8256">
        <ele>378.4</ele>
      </trkpt>
      <trkpt lat="46.57431" lon="4.82546">
        <ele>381.6</ele>
      </trkpt>
      <trkpt lat="46.57452" lon="4.82531">
        <ele>385.2</ele>
      </trkpt>
      <trkpt lat="46.57476" lon="4.82513">
        <ele>389.5</ele>
      </trkpt>
      <trkpt lat="46.57485" lon="4.82502">
        <ele>391.7</ele>
      </trkpt>
      <trkpt lat="46.57492" lon="4.82489">
        <ele>393.9</ele>
      </trkpt>
      <trkpt lat="46.57504" lon="4.82468">
        <ele>397.7</ele>
      </trkpt>
      <trkpt lat="46.57514" lon="4.82447">
        <ele>401.2</ele>
      </trkpt>
      <trkpt lat="46.57525" lon="4.82423">
        <ele>404.2</ele>
      </trkpt>
      <trkpt lat="46.57529" lon="4.82406">
        <ele>406.2</ele>
      </trkpt>
      <trkpt lat="46.57532" lon="4.82383">
        <ele>408.9</ele>
      </trkpt>
      <trkpt lat="46.57538" lon="4.82348">
        <ele>413.2</ele>
      </trkpt>
      <trkpt lat="46.5755" lon="4.82285">
        <ele>418.7</ele>
      </trkpt>
      <trkpt lat="46.57552" lon="4.82274">
        <ele>419.4</ele>
      </trkpt>
      <trkpt lat="46.57561" lon="4.82227">
        <ele>421.6</ele>
      </trkpt>
      <trkpt lat="46.57564" lon="4.82194">
        <ele>422.6</ele>
      </trkpt>
      <trkpt lat="46.57564" lon="4.8216">
        <ele>423.9</ele>
      </trkpt>
      <trkpt lat="46.57564" lon="4.82131">
        <ele>426.2</ele>
      </trkpt>
      <trkpt lat="46.5757" lon="4.82114">
        <ele>426.6</ele>
      </trkpt>
      <trkpt lat="46.57578" lon="4.82105">
        <ele>426.7</ele>
      </trkpt>
      <trkpt lat="46.57595" lon="4.82096">
        <ele>428.2</ele>
      </trkpt>
      <trkpt lat="46.57644" lon="4.82079">
        <ele>433</ele>
      </trkpt>
      <trkpt lat="46.57679" lon="4.82061">
        <ele>438.2</ele>
      </trkpt>
      <trkpt lat="46.577" lon="4.82048">
        <ele>441.1</ele>
      </trkpt>
      <trkpt lat="46.57715" lon="4.82032">
        <ele>443.3</ele>
      </trkpt>
      <trkpt lat="46.57723" lon="4.82023">
        <ele>444.6</ele>
      </trkpt>
      <trkpt lat="46.57731" lon="4.8202">
        <ele>445.1</ele>
      </trkpt>
      <trkpt lat="46.57739" lon="4.82001">
        <ele>447.5</ele>
      </trkpt>
      <trkpt lat="46.57771" lon="4.81941">
        <ele>451.9</ele>
      </trkpt>
      <trkpt lat="46.57802" lon="4.81876">
        <ele>454.9</ele>
      </trkpt>
      <trkpt lat="46.5783" lon="4.81825">
        <ele>454.5</ele>
      </trkpt>
      <trkpt lat="46.57852" lon="4.81835">
        <ele>457</ele>
      </trkpt>
      <trkpt lat="46.57882" lon="4.81827">
        <ele>460.8</ele>
      </trkpt>
      <trkpt lat="46.57915" lon="4.81837">
        <ele>466.6</ele>
      </trkpt>
      <trkpt lat="46.5793" lon="4.81843">
        <ele>469.1</ele>
      </trkpt>
      <trkpt lat="46.57938" lon="4.81849">
        <ele>470.5</ele>
      </trkpt>
      <trkpt lat="46.5794" lon="4.81851">
        <ele>470.9</ele>
      </trkpt>
      <trkpt lat="46.57952" lon="4.81861">
        <ele>473.1</ele>
      </trkpt>
      <trkpt lat="46.5796" lon="4.81867">
        <ele>473.9</ele>
      </trkpt>
      <trkpt lat="46.57967" lon="4.81868">
        <ele>474.7</ele>
      </trkpt>
      <trkpt lat="46.57973" lon="4.81867">
        <ele>475.6</ele>
      </trkpt>
      <trkpt lat="46.57975" lon="4.81867">
        <ele>475.7</ele>
      </trkpt>
      <trkpt lat="46.57982" lon="4.81867">
        <ele>476.1</ele>
      </trkpt>
      <trkpt lat="46.57994" lon="4.81869">
        <ele>476.7</ele>
      </trkpt>
      <trkpt lat="46.58065" lon="4.81876">
        <ele>481.3</ele>
      </trkpt>
      <trkpt lat="46.58128" lon="4.8193">
        <ele>482.7</ele>
      </trkpt>
      <trkpt lat="46.58232" lon="4.82092">
        <ele>480.3</ele>
      </trkpt>
      <trkpt lat="46.58246" lon="4.82119">
        <ele>479.3</ele>
      </trkpt>
      <trkpt lat="46.58328" lon="4.82272">
        <ele>482.4</ele>
      </trkpt>
      <trkpt lat="46.5848" lon="4.82439">
        <ele>494.9</ele>
      </trkpt>
      <trkpt lat="46.58633" lon="4.826">
        <ele>496.2</ele>
      </trkpt>
      <trkpt lat="46.58664" lon="4.82632">
        <ele>496.8</ele>
      </trkpt>
      <trkpt lat="46.58742" lon="4.82714">
        <ele>495.8</ele>
      </trkpt>
      <trkpt lat="46.58763" lon="4.82737">
        <ele>496.1</ele>
      </trkpt>
      <trkpt lat="46.58873" lon="4.8287">
        <ele>485.5</ele>
      </trkpt>
      <trkpt lat="46.58942" lon="4.8299">
        <ele>470.9</ele>
      </trkpt>
      <trkpt lat="46.58989" lon="4.83071">
        <ele>455.4</ele>
      </trkpt>
      <trkpt lat="46.5901" lon="4.83087">
        <ele>450.4</ele>
      </trkpt>
      <trkpt lat="46.59018" lon="4.83093">
        <ele>449.1</ele>
      </trkpt>
      <trkpt lat="46.59021" lon="4.83095">
        <ele>448.5</ele>
      </trkpt>
      <trkpt lat="46.59023" lon="4.83096">
        <ele>448.2</ele>
      </trkpt>
      <trkpt lat="46.59036" lon="4.83101">
        <ele>447</ele>
      </trkpt>
      <trkpt lat="46.5903" lon="4.83107">
        <ele>447.1</ele>
      </trkpt>
      <trkpt lat="46.59026" lon="4.83115">
        <ele>446.8</ele>
      </trkpt>
      <trkpt lat="46.58998" lon="4.83226">
        <ele>436.9</ele>
      </trkpt>
      <trkpt lat="46.58966" lon="4.83311">
        <ele>428.9</ele>
      </trkpt>
      <trkpt lat="46.58956" lon="4.83427">
        <ele>418.4</ele>
      </trkpt>
      <trkpt lat="46.58968" lon="4.8344">
        <ele>418.7</ele>
      </trkpt>
      <trkpt lat="46.5897" lon="4.83443">
        <ele>418.7</ele>
      </trkpt>
      <trkpt lat="46.58989" lon="4.83465">
        <ele>420.6</ele>
      </trkpt>
      <trkpt lat="46.58998" lon="4.83472">
        <ele>422.4</ele>
      </trkpt>
      <trkpt lat="46.59003" lon="4.83474">
        <ele>423.2</ele>
      </trkpt>
      <trkpt lat="46.58995" lon="4.835">
        <ele>417.6</ele>
      </trkpt>
      <trkpt lat="46.5901" lon="4.83566">
        <ele>412.2</ele>
      </trkpt>
      <trkpt lat="46.59024" lon="4.83605">
        <ele>409.2</ele>
      </trkpt>
      <trkpt lat="46.59021" lon="4.83648">
        <ele>403.5</ele>
      </trkpt>
      <trkpt lat="46.59016" lon="4.83733">
        <ele>394.7</ele>
      </trkpt>
      <trkpt lat="46.59015" lon="4.8381">
        <ele>386</ele>
      </trkpt>
      <trkpt lat="46.58996" lon="4.83859">
        <ele>377.8</ele>
      </trkpt>
      <trkpt lat="46.58995" lon="4.83905">
        <ele>371.9</ele>
      </trkpt>
      <trkpt lat="46.5901" lon="4.84008">
        <ele>360.6</ele>
      </trkpt>
      <trkpt lat="46.59029" lon="4.84129">
        <ele>351.3</ele>
      </trkpt>
      <trkpt lat="46.58982" lon="4.84112">
        <ele>347.7</ele>
      </trkpt>
      <trkpt lat="46.58967" lon="4.84104">
        <ele>346.5</ele>
      </trkpt>
      <trkpt lat="46.58947" lon="4.84092">
        <ele>344</ele>
      </trkpt>
      <trkpt lat="46.58935" lon="4.84084">
        <ele>342.4</ele>
      </trkpt>
      <trkpt lat="46.58922" lon="4.84073">
        <ele>340.1</ele>
      </trkpt>
      <trkpt lat="46.58904" lon="4.8405">
        <ele>335.3</ele>
      </trkpt>
      <trkpt lat="46.58887" lon="4.84022">
        <ele>331.2</ele>
      </trkpt>
      <trkpt lat="46.58878" lon="4.84011">
        <ele>330.8</ele>
      </trkpt>
      <trkpt lat="46.58866" lon="4.84">
        <ele>329</ele>
      </trkpt>
      <trkpt lat="46.58852" lon="4.83993">
        <ele>327.2</ele>
      </trkpt>
      <trkpt lat="46.58834" lon="4.83993">
        <ele>324</ele>
      </trkpt>
      <trkpt lat="46.58798" lon="4.84015">
        <ele>322</ele>
      </trkpt>
      <trkpt lat="46.58762" lon="4.84041">
        <ele>320.3</ele>
      </trkpt>
      <trkpt lat="46.58756" lon="4.84045">
        <ele>321</ele>
      </trkpt>
      <trkpt lat="46.58742" lon="4.84049">
        <ele>321.7</ele>
      </trkpt>
      <trkpt lat="46.58726" lon="4.84045">
        <ele>322.5</ele>
      </trkpt>
      <trkpt lat="46.58708" lon="4.84034">
        <ele>323.6</ele>
      </trkpt>
      <trkpt lat="46.58672" lon="4.84013">
        <ele>324.4</ele>
      </trkpt>
      <trkpt lat="46.5865" lon="4.84005">
        <ele>324.5</ele>
      </trkpt>
      <trkpt lat="46.58617" lon="4.84">
        <ele>323.4</ele>
      </trkpt>
      <trkpt lat="46.58573" lon="4.83986">
        <ele>324</ele>
      </trkpt>
      <trkpt lat="46.58545" lon="4.83975">
        <ele>324.6</ele>
      </trkpt>
      <trkpt lat="46.58535" lon="4.8397">
        <ele>325.2</ele>
      </trkpt>
      <trkpt lat="46.58521" lon="4.83956">
        <ele>326.2</ele>
      </trkpt>
      <trkpt lat="46.58506" lon="4.8394">
        <ele>326.3</ele>
      </trkpt>
      <trkpt lat="46.58494" lon="4.83931">
        <ele>326.7</ele>
      </trkpt>
      <trkpt lat="46.58478" lon="4.83924">
        <ele>326.6</ele>
      </trkpt>
      <trkpt lat="46.58454" lon="4.83913">
        <ele>326.2</ele>
      </trkpt>
      <trkpt lat="46.58422" lon="4.83894">
        <ele>326</ele>
      </trkpt>
      <trkpt lat="46.58391" lon="4.83875">
        <ele>325.7</ele>
      </trkpt>
      <trkpt lat="46.58377" lon="4.83864">
        <ele>325.8</ele>
      </trkpt>
      <trkpt lat="46.58379" lon="4.83872">
        <ele>325.2</ele>
      </trkpt>
      <trkpt lat="46.58379" lon="4.83882">
        <ele>324</ele>
      </trkpt>
      <trkpt lat="46.58377" lon="4.83895">
        <ele>322.7</ele>
      </trkpt>
      <trkpt lat="46.58371" lon="4.83913">
        <ele>321</ele>
      </trkpt>
      <trkpt lat="46.58329" lon="4.84004">
        <ele>321</ele>
      </trkpt>
      <trkpt lat="46.58307" lon="4.84046">
        <ele>320.4</ele>
      </trkpt>
      <trkpt lat="46.58304" lon="4.84053">
        <ele>320.1</ele>
      </trkpt>
      <trkpt lat="46.583" lon="4.84061">
        <ele>319.6</ele>
      </trkpt>
      <trkpt lat="46.58294" lon="4.84079">
        <ele>319.1</ele>
      </trkpt>
      <trkpt lat="46.58288" lon="4.84094">
        <ele>318.9</ele>
      </trkpt>
      <trkpt lat="46.58281" lon="4.84102">
        <ele>318.9</ele>
      </trkpt>
      <trkpt lat="46.58278" lon="4.84106">
        <ele>319</ele>
      </trkpt>
      <trkpt lat="46.58272" lon="4.8411">
        <ele>319.2</ele>
      </trkpt>
      <trkpt lat="46.58267" lon="4.84112">
        <ele>319.4</ele>
      </trkpt>
      <trkpt lat="46.58258" lon="4.84112">
        <ele>319.8</ele>
      </trkpt>
      <trkpt lat="46.58251" lon="4.84109">
        <ele>319.9</ele>
      </trkpt>
      <trkpt lat="46.5824" lon="4.84109">
        <ele>319.9</ele>
      </trkpt>
      <trkpt lat="46.58221" lon="4.8411">
        <ele>319.9</ele>
      </trkpt>
      <trkpt lat="46.58204" lon="4.84112">
        <ele>320</ele>
      </trkpt>
      <trkpt lat="46.5819" lon="4.84114">
        <ele>320.1</ele>
      </trkpt>
      <trkpt lat="46.58177" lon="4.84121">
        <ele>320.6</ele>
      </trkpt>
      <trkpt lat="46.58166" lon="4.84125">
        <ele>321</ele>
      </trkpt>
      <trkpt lat="46.58155" lon="4.84127">
        <ele>321.4</ele>
      </trkpt>
      <trkpt lat="46.58144" lon="4.84128">
        <ele>321.7</ele>
      </trkpt>
      <trkpt lat="46.58133" lon="4.84125">
        <ele>321.9</ele>
      </trkpt>
      <trkpt lat="46.58127" lon="4.84122">
        <ele>321.9</ele>
      </trkpt>
      <trkpt lat="46.58116" lon="4.84117">
        <ele>321.9</ele>
      </trkpt>
      <trkpt lat="46.58097" lon="4.84112">
        <ele>321.6</ele>
      </trkpt>
      <trkpt lat="46.58076" lon="4.84107">
        <ele>321.4</ele>
      </trkpt>
      <trkpt lat="46.58063" lon="4.84105">
        <ele>321.1</ele>
      </trkpt>
      <trkpt lat="46.58045" lon="4.84101">
        <ele>320.8</ele>
      </trkpt>
      <trkpt lat="46.58021" lon="4.8409">
        <ele>319.4</ele>
      </trkpt>
      <trkpt lat="46.57988" lon="4.84072">
        <ele>317.6</ele>
      </trkpt>
      <trkpt lat="46.57962" lon="4.84061">
        <ele>316</ele>
      </trkpt>
      <trkpt lat="46.57928" lon="4.84049">
        <ele>313.6</ele>
      </trkpt>
      <trkpt lat="46.57902" lon="4.84042">
        <ele>312</ele>
      </trkpt>
      <trkpt lat="46.57892" lon="4.84039">
        <ele>311.4</ele>
      </trkpt>
      <trkpt lat="46.57869" lon="4.84037">
        <ele>310.9</ele>
      </trkpt>
      <trkpt lat="46.5784" lon="4.84042">
        <ele>312</ele>
      </trkpt>
      <trkpt lat="46.57828" lon="4.84045">
        <ele>312.6</ele>
      </trkpt>
      <trkpt lat="46.57812" lon="4.84057">
        <ele>313.6</ele>
      </trkpt>
      <trkpt lat="46.57796" lon="4.84073">
        <ele>314.7</ele>
      </trkpt>
      <trkpt lat="46.57789" lon="4.84083">
        <ele>315.2</ele>
      </trkpt>
      <trkpt lat="46.5778" lon="4.84107">
        <ele>315.1</ele>
      </trkpt>
      <trkpt lat="46.57771" lon="4.8413">
        <ele>313.8</ele>
      </trkpt>
      <trkpt lat="46.57762" lon="4.84155">
        <ele>311.9</ele>
      </trkpt>
      <trkpt lat="46.57753" lon="4.8417">
        <ele>310.5</ele>
      </trkpt>
      <trkpt lat="46.57748" lon="4.84174">
        <ele>309.6</ele>
      </trkpt>
      <trkpt lat="46.57732" lon="4.84179">
        <ele>307.1</ele>
      </trkpt>
      <trkpt lat="46.57721" lon="4.84183">
        <ele>305.4</ele>
      </trkpt>
      <trkpt lat="46.57699" lon="4.84195">
        <ele>302.7</ele>
      </trkpt>
      <trkpt lat="46.57684" lon="4.84204">
        <ele>300.2</ele>
      </trkpt>
      <trkpt lat="46.5767" lon="4.84207">
        <ele>297.6</ele>
      </trkpt>
      <trkpt lat="46.57659" lon="4.84206">
        <ele>295.5</ele>
      </trkpt>
      <trkpt lat="46.57641" lon="4.84205">
        <ele>291.8</ele>
      </trkpt>
      <trkpt lat="46.57626" lon="4.84208">
        <ele>287.2</ele>
      </trkpt>
      <trkpt lat="46.57618" lon="4.84213">
        <ele>285</ele>
      </trkpt>
      <trkpt lat="46.5761" lon="4.84222">
        <ele>283.5</ele>
      </trkpt>
      <trkpt lat="46.57601" lon="4.84234">
        <ele>279.6</ele>
      </trkpt>
      <trkpt lat="46.57593" lon="4.84249">
        <ele>277.1</ele>
      </trkpt>
      <trkpt lat="46.57581" lon="4.84265">
        <ele>272.9</ele>
      </trkpt>
      <trkpt lat="46.57573" lon="4.84279">
        <ele>271.5</ele>
      </trkpt>
      <trkpt lat="46.57564" lon="4.84292">
        <ele>269.4</ele>
      </trkpt>
      <trkpt lat="46.57557" lon="4.84294">
        <ele>268</ele>
      </trkpt>
      <trkpt lat="46.57551" lon="4.84298">
        <ele>265.6</ele>
      </trkpt>
      <trkpt lat="46.57547" lon="4.84305">
        <ele>263.7</ele>
      </trkpt>
      <trkpt lat="46.57546" lon="4.84312">
        <ele>263</ele>
      </trkpt>
      <trkpt lat="46.57546" lon="4.8433">
        <ele>262.6</ele>
      </trkpt>
      <trkpt lat="46.57545" lon="4.84357">
        <ele>260.8</ele>
      </trkpt>
      <trkpt lat="46.57542" lon="4.84377">
        <ele>259.3</ele>
      </trkpt>
      <trkpt lat="46.57538" lon="4.84393">
        <ele>258.1</ele>
      </trkpt>
      <trkpt lat="46.57529" lon="4.84419">
        <ele>257.3</ele>
      </trkpt>
      <trkpt lat="46.57522" lon="4.84443">
        <ele>256.6</ele>
      </trkpt>
      <trkpt lat="46.57516" lon="4.84468">
        <ele>254.5</ele>
      </trkpt>
      <trkpt lat="46.57509" lon="4.84499">
        <ele>252.1</ele>
      </trkpt>
      <trkpt lat="46.57504" lon="4.84519">
        <ele>252</ele>
      </trkpt>
      <trkpt lat="46.575" lon="4.84547">
        <ele>252</ele>
      </trkpt>
      <trkpt lat="46.57496" lon="4.84569">
        <ele>251.9</ele>
      </trkpt>
      <trkpt lat="46.57492" lon="4.84585">
        <ele>251.6</ele>
      </trkpt>
      <trkpt lat="46.57485" lon="4.84596">
        <ele>251.7</ele>
      </trkpt>
      <trkpt lat="46.57477" lon="4.84606">
        <ele>251.8</ele>
      </trkpt>
      <trkpt lat="46.5747" lon="4.84613">
        <ele>251.9</ele>
      </trkpt>
      <trkpt lat="46.57457" lon="4.84622">
        <ele>251.5</ele>
      </trkpt>
      <trkpt lat="46.57434" lon="4.84636">
        <ele>249.8</ele>
      </trkpt>
      <trkpt lat="46.57462" lon="4.84477">
        <ele>251.3</ele>
      </trkpt>
    </trkseg>
  </trk>
  <trk>
    <name><![CDATA[24 - LE_CIRCUIT_DES_4_VERSANTS - Rouge]]></name>
    <extensions>
      <line xmlns="http://www.topografix.com/GPX/gpx_style/0/2">
        <color>ff0000</color>
        <width>4</width>
      </line>
    </extensions>
    <trkseg>
      <trkpt lat="46.58905" lon="4.80692">
        <ele>273.7</ele>
      </trkpt>
      <trkpt lat="46.58893" lon="4.80715">
        <ele>275.6</ele>
      </trkpt>
      <trkpt lat="46.58887" lon="4.80727">
        <ele>276.7</ele>
      </trkpt>
      <trkpt lat="46.5888" lon="4.8074">
        <ele>278.5</ele>
      </trkpt>
      <trkpt lat="46.58866" lon="4.80764">
        <ele>280.6</ele>
      </trkpt>
      <trkpt lat="46.58857" lon="4.80776">
        <ele>281.7</ele>
      </trkpt>
      <trkpt lat="46.58851" lon="4.80783">
        <ele>282.6</ele>
      </trkpt>
      <trkpt lat="46.58829" lon="4.80811">
        <ele>285.5</ele>
      </trkpt>
      <trkpt lat="46.58816" lon="4.80829">
        <ele>286.6</ele>
      </trkpt>
      <trkpt lat="46.58809" lon="4.80843">
        <ele>287.2</ele>
      </trkpt>
      <trkpt lat="46.58804" lon="4.80858">
        <ele>288</ele>
      </trkpt>
      <trkpt lat="46.58802" lon="4.80885">
        <ele>289</ele>
      </trkpt>
      <trkpt lat="46.58806" lon="4.8089">
        <ele>289</ele>
      </trkpt>
      <trkpt lat="46.5881" lon="4.80898">
        <ele>289.6</ele>
      </trkpt>
      <trkpt lat="46.58818" lon="4.80928">
        <ele>291.8</ele>
      </trkpt>
      <trkpt lat="46.58823" lon="4.80952">
        <ele>293.3</ele>
      </trkpt>
      <trkpt lat="46.58823" lon="4.80966">
        <ele>293.8</ele>
      </trkpt>
      <trkpt lat="46.58823" lon="4.8098">
        <ele>294.4</ele>
      </trkpt>
      <trkpt lat="46.58822" lon="4.80989">
        <ele>295</ele>
      </trkpt>
      <trkpt lat="46.58821" lon="4.80996">
        <ele>295.3</ele>
      </trkpt>
      <trkpt lat="46.58815" lon="4.8102">
        <ele>296.8</ele>
      </trkpt>
      <trkpt lat="46.58808" lon="4.81044">
        <ele>297.8</ele>
      </trkpt>
      <trkpt lat="46.58796" lon="4.81075">
        <ele>299.9</ele>
      </trkpt>
      <trkpt lat="46.58791" lon="4.81119">
        <ele>303.5</ele>
      </trkpt>
      <trkpt lat="46.58784" lon="4.81185">
        <ele>307.9</ele>
      </trkpt>
      <trkpt lat="46.58777" lon="4.81254">
        <ele>314.3</ele>
      </trkpt>
      <trkpt lat="46.58774" lon="4.81279">
        <ele>316.6</ele>
      </trkpt>
      <trkpt lat="46.58771" lon="4.81322">
        <ele>319.5</ele>
      </trkpt>
      <trkpt lat="46.58768" lon="4.81345">
        <ele>320.3</ele>
      </trkpt>
      <trkpt lat="46.58768" lon="4.81356">
        <ele>321</ele>
      </trkpt>
      <trkpt lat="46.58769" lon="4.81366">
        <ele>321.5</ele>
      </trkpt>
      <trkpt lat="46.58769" lon="4.81376">
        <ele>321.7</ele>
      </trkpt>
      <trkpt lat="46.58771" lon="4.81382">
        <ele>321.9</ele>
      </trkpt>
      <trkpt lat="46.58775" lon="4.81394">
        <ele>322.1</ele>
      </trkpt>
      <trkpt lat="46.58796" lon="4.81442">
        <ele>324.7</ele>
      </trkpt>
      <trkpt lat="46.58812" lon="4.8148">
        <ele>325.3</ele>
      </trkpt>
      <trkpt lat="46.58824" lon="4.81501">
        <ele>325.9</ele>
      </trkpt>
      <trkpt lat="46.58835" lon="4.81524">
        <ele>325.6</ele>
      </trkpt>
      <trkpt lat="46.5884" lon="4.81537">
        <ele>326.9</ele>
      </trkpt>
      <trkpt lat="46.58845" lon="4.81575">
        <ele>330.1</ele>
      </trkpt>
      <trkpt lat="46.58848" lon="4.81619">
        <ele>335.3</ele>
      </trkpt>
      <trkpt lat="46.58848" lon="4.81631">
        <ele>336.2</ele>
      </trkpt>
      <trkpt lat="46.58849" lon="4.81671">
        <ele>340.5</ele>
      </trkpt>
      <trkpt lat="46.58849" lon="4.81741">
        <ele>346.9</ele>
      </trkpt>
      <trkpt lat="46.5885" lon="4.81784">
        <ele>349.9</ele>
      </trkpt>
      <trkpt lat="46.58854" lon="4.81794">
        <ele>351.5</ele>
      </trkpt>
      <trkpt lat="46.58867" lon="4.81815">
        <ele>356.3</ele>
      </trkpt>
      <trkpt lat="46.58875" lon="4.81827">
        <ele>359.2</ele>
      </trkpt>
      <trkpt lat="46.58882" lon="4.81837">
        <ele>361.2</ele>
      </trkpt>
      <trkpt lat="46.58891" lon="4.81848">
        <ele>363.4</ele>
      </trkpt>
      <trkpt lat="46.58923" lon="4.81876">
        <ele>369.7</ele>
      </trkpt>
      <trkpt lat="46.58961" lon="4.81897">
        <ele>375.8</ele>
      </trkpt>
      <trkpt lat="46.58969" lon="4.81901">
        <ele>377</ele>
      </trkpt>
      <trkpt lat="46.59024" lon="4.8193">
        <ele>381.4</ele>
      </trkpt>
      <trkpt lat="46.59047" lon="4.81946">
        <ele>381.7</ele>
      </trkpt>
      <trkpt lat="46.59046" lon="4.81985">
        <ele>382.8</ele>
      </trkpt>
      <trkpt lat="46.59035" lon="4.82008">
        <ele>386.4</ele>
      </trkpt>
      <trkpt lat="46.59011" lon="4.82029">
        <ele>391.9</ele>
      </trkpt>
      <trkpt lat="46.58996" lon="4.82067">
        <ele>399.5</ele>
      </trkpt>
      <trkpt lat="46.58993" lon="4.82103">
        <ele>405</ele>
      </trkpt>
      <trkpt lat="46.58994" lon="4.82143">
        <ele>409.5</ele>
      </trkpt>
      <trkpt lat="46.58995" lon="4.82194">
        <ele>412.5</ele>
      </trkpt>
      <trkpt lat="46.59004" lon="4.82265">
        <ele>413.7</ele>
      </trkpt>
      <trkpt lat="46.59009" lon="4.82309">
        <ele>415</ele>
      </trkpt>
      <trkpt lat="46.59011" lon="4.82327">
        <ele>415.4</ele>
      </trkpt>
      <trkpt lat="46.59012" lon="4.82355">
        <ele>415.6</ele>
      </trkpt>
      <trkpt lat="46.59001" lon="4.82379">
        <ele>416.5</ele>
      </trkpt>
      <trkpt lat="46.59007" lon="4.82398">
        <ele>417</ele>
      </trkpt>
      <trkpt lat="46.5902" lon="4.82518">
        <ele>421.9</ele>
      </trkpt>
      <trkpt lat="46.59037" lon="4.8269">
        <ele>430</ele>
      </trkpt>
      <trkpt lat="46.5906" lon="4.82823">
        <ele>434</ele>
      </trkpt>
      <trkpt lat="46.59055" lon="4.82869">
        <ele>436.6</ele>
      </trkpt>
      <trkpt lat="46.59048" lon="4.82943">
        <ele>440.7</ele>
      </trkpt>
      <trkpt lat="46.59042" lon="4.83046">
        <ele>445.7</ele>
      </trkpt>
      <trkpt lat="46.59036" lon="4.83101">
        <ele>447</ele>
      </trkpt>
      <trkpt lat="46.59049" lon="4.83102">
        <ele>446.3</ele>
      </trkpt>
      <trkpt lat="46.59049" lon="4.83113">
        <ele>446.1</ele>
      </trkpt>
      <trkpt lat="46.59084" lon="4.8313">
        <ele>446</ele>
      </trkpt>
      <trkpt lat="46.59131" lon="4.83153">
        <ele>447.1</ele>
      </trkpt>
      <trkpt lat="46.59136" lon="4.83154">
        <ele>447.4</ele>
      </trkpt>
      <trkpt lat="46.59142" lon="4.83157">
        <ele>447.9</ele>
      </trkpt>
      <trkpt lat="46.59159" lon="4.83164">
        <ele>449.3</ele>
      </trkpt>
      <trkpt lat="46.59182" lon="4.83175">
        <ele>451.1</ele>
      </trkpt>
      <trkpt lat="46.59204" lon="4.83189">
        <ele>452.9</ele>
      </trkpt>
      <trkpt lat="46.59225" lon="4.83206">
        <ele>454.8</ele>
      </trkpt>
      <trkpt lat="46.59245" lon="4.83223">
        <ele>456.4</ele>
      </trkpt>
      <trkpt lat="46.59259" lon="4.8324">
        <ele>457.7</ele>
      </trkpt>
      <trkpt lat="46.59276" lon="4.83262">
        <ele>458.8</ele>
      </trkpt>
      <trkpt lat="46.59304" lon="4.83294">
        <ele>461.8</ele>
      </trkpt>
      <trkpt lat="46.59332" lon="4.83321">
        <ele>463.3</ele>
      </trkpt>
      <trkpt lat="46.59344" lon="4.83328">
        <ele>464.3</ele>
      </trkpt>
      <trkpt lat="46.59354" lon="4.83331">
        <ele>465.3</ele>
      </trkpt>
      <trkpt lat="46.59373" lon="4.83332">
        <ele>466.9</ele>
      </trkpt>
      <trkpt lat="46.59391" lon="4.83334">
        <ele>468.2</ele>
      </trkpt>
      <trkpt lat="46.5941" lon="4.8334">
        <ele>470.1</ele>
      </trkpt>
      <trkpt lat="46.59436" lon="4.83351">
        <ele>471</ele>
      </trkpt>
      <trkpt lat="46.59469" lon="4.83367">
        <ele>471.9</ele>
      </trkpt>
      <trkpt lat="46.59487" lon="4.83372">
        <ele>472.5</ele>
      </trkpt>
      <trkpt lat="46.5951" lon="4.83381">
        <ele>473.4</ele>
      </trkpt>
      <trkpt lat="46.5952" lon="4.83387">
        <ele>473.8</ele>
      </trkpt>
      <trkpt lat="46.59536" lon="4.83406">
        <ele>473.2</ele>
      </trkpt>
      <trkpt lat="46.59562" lon="4.83439">
        <ele>472.6</ele>
      </trkpt>
      <trkpt lat="46.59578" lon="4.83459">
        <ele>472.3</ele>
      </trkpt>
      <trkpt lat="46.59678" lon="4.83547">
        <ele>466.8</ele>
      </trkpt>
      <trkpt lat="46.59735" lon="4.83593">
        <ele>462.9</ele>
      </trkpt>
      <trkpt lat="46.5975" lon="4.83755">
        <ele>461.4</ele>
      </trkpt>
      <trkpt lat="46.59777" lon="4.83886">
        <ele>446.4</ele>
      </trkpt>
      <trkpt lat="46.59791" lon="4.83955">
        <ele>435.2</ele>
      </trkpt>
      <trkpt lat="46.59811" lon="4.84068">
        <ele>419</ele>
      </trkpt>
      <trkpt lat="46.59817" lon="4.84098">
        <ele>414.7</ele>
      </trkpt>
      <trkpt lat="46.59826" lon="4.84138">
        <ele>408.7</ele>
      </trkpt>
      <trkpt lat="46.59833" lon="4.84164">
        <ele>404.6</ele>
      </trkpt>
      <trkpt lat="46.59837" lon="4.84172">
        <ele>403.5</ele>
      </trkpt>
      <trkpt lat="46.59844" lon="4.84207">
        <ele>397.5</ele>
      </trkpt>
      <trkpt lat="46.59851" lon="4.84226">
        <ele>395</ele>
      </trkpt>
      <trkpt lat="46.59866" lon="4.84259">
        <ele>391.8</ele>
      </trkpt>
      <trkpt lat="46.59882" lon="4.84288">
        <ele>388.6</ele>
      </trkpt>
      <trkpt lat="46.5989" lon="4.84312">
        <ele>385.8</ele>
      </trkpt>
      <trkpt lat="46.59896" lon="4.8433">
        <ele>382.4</ele>
      </trkpt>
      <trkpt lat="46.59904" lon="4.84348">
        <ele>379.5</ele>
      </trkpt>
      <trkpt lat="46.59916" lon="4.84376">
        <ele>374.8</ele>
      </trkpt>
      <trkpt lat="46.5992" lon="4.84392">
        <ele>371.6</ele>
      </trkpt>
      <trkpt lat="46.59922" lon="4.84414">
        <ele>368.6</ele>
      </trkpt>
      <trkpt lat="46.59924" lon="4.84432">
        <ele>366.5</ele>
      </trkpt>
      <trkpt lat="46.59923" lon="4.84443">
        <ele>365.2</ele>
      </trkpt>
      <trkpt lat="46.59919" lon="4.84452">
        <ele>363.9</ele>
      </trkpt>
      <trkpt lat="46.59908" lon="4.8447">
        <ele>360.4</ele>
      </trkpt>
      <trkpt lat="46.599" lon="4.84485">
        <ele>357.3</ele>
      </trkpt>
      <trkpt lat="46.59891" lon="4.84505">
        <ele>353.6</ele>
      </trkpt>
      <trkpt lat="46.59887" lon="4.84518">
        <ele>351.9</ele>
      </trkpt>
      <trkpt lat="46.59887" lon="4.84535">
        <ele>350</ele>
      </trkpt>
      <trkpt lat="46.59887" lon="4.84552">
        <ele>348.3</ele>
      </trkpt>
      <trkpt lat="46.59884" lon="4.84564">
        <ele>347</ele>
      </trkpt>
      <trkpt lat="46.59872" lon="4.84608">
        <ele>342.5</ele>
      </trkpt>
      <trkpt lat="46.59855" lon="4.84662">
        <ele>337.3</ele>
      </trkpt>
      <trkpt lat="46.59843" lon="4.84706">
        <ele>333.9</ele>
      </trkpt>
      <trkpt lat="46.59827" lon="4.84786">
        <ele>332.4</ele>
      </trkpt>
      <trkpt lat="46.59815" lon="4.84814">
        <ele>332.2</ele>
      </trkpt>
      <trkpt lat="46.59806" lon="4.84824">
        <ele>332.4</ele>
      </trkpt>
      <trkpt lat="46.59786" lon="4.8483">
        <ele>332.1</ele>
      </trkpt>
      <trkpt lat="46.59764" lon="4.84839">
        <ele>331.7</ele>
      </trkpt>
      <trkpt lat="46.59756" lon="4.84846">
        <ele>332.2</ele>
      </trkpt>
      <trkpt lat="46.59749" lon="4.84863">
        <ele>334.1</ele>
      </trkpt>
      <trkpt lat="46.59732" lon="4.84902">
        <ele>337.1</ele>
      </trkpt>
      <trkpt lat="46.59711" lon="4.84935">
        <ele>338.5</ele>
      </trkpt>
      <trkpt lat="46.59699" lon="4.84947">
        <ele>338.4</ele>
      </trkpt>
      <trkpt lat="46.59687" lon="4.84953">
        <ele>337.6</ele>
      </trkpt>
      <trkpt lat="46.59667" lon="4.84961">
        <ele>335.6</ele>
      </trkpt>
      <trkpt lat="46.59646" lon="4.84969">
        <ele>334.5</ele>
      </trkpt>
      <trkpt lat="46.59646" lon="4.84969">
        <ele>334.5</ele>
      </trkpt>
      <trkpt lat="46.59641" lon="4.84971">
        <ele>334.1</ele>
      </trkpt>
      <trkpt lat="46.59632" lon="4.84984">
        <ele>333.6</ele>
      </trkpt>
      <trkpt lat="46.59619" lon="4.85008">
        <ele>332.2</ele>
      </trkpt>
      <trkpt lat="46.59604" lon="4.85043">
        <ele>329.2</ele>
      </trkpt>
      <trkpt lat="46.59595" lon="4.85065">
        <ele>326.8</ele>
      </trkpt>
      <trkpt lat="46.59592" lon="4.85081">
        <ele>325.3</ele>
      </trkpt>
      <trkpt lat="46.59587" lon="4.85109">
        <ele>322.8</ele>
      </trkpt>
      <trkpt lat="46.59581" lon="4.85141">
        <ele>319.4</ele>
      </trkpt>
      <trkpt lat="46.59576" lon="4.85164">
        <ele>317.1</ele>
      </trkpt>
      <trkpt lat="46.59568" lon="4.85203">
        <ele>312.8</ele>
      </trkpt>
      <trkpt lat="46.59551" lon="4.85268">
        <ele>307.2</ele>
      </trkpt>
      <trkpt lat="46.59538" lon="4.85318">
        <ele>302.8</ele>
      </trkpt>
      <trkpt lat="46.59535" lon="4.85329">
        <ele>302</ele>
      </trkpt>
      <trkpt lat="46.59535" lon="4.85335">
        <ele>301.6</ele>
      </trkpt>
      <trkpt lat="46.59536" lon="4.85351">
        <ele>300.4</ele>
      </trkpt>
      <trkpt lat="46.59538" lon="4.85372">
        <ele>298.6</ele>
      </trkpt>
      <trkpt lat="46.59537" lon="4.85384">
        <ele>297.5</ele>
      </trkpt>
      <trkpt lat="46.59535" lon="4.85391">
        <ele>296.8</ele>
      </trkpt>
      <trkpt lat="46.59526" lon="4.85407">
        <ele>295.6</ele>
      </trkpt>
      <trkpt lat="46.59517" lon="4.85424">
        <ele>294.2</ele>
      </trkpt>
      <trkpt lat="46.59517" lon="4.85425">
        <ele>294.1</ele>
      </trkpt>
      <trkpt lat="46.59514" lon="4.85434">
        <ele>293.6</ele>
      </trkpt>
      <trkpt lat="46.59512" lon="4.85448">
        <ele>292.8</ele>
      </trkpt>
      <trkpt lat="46.59509" lon="4.85503">
        <ele>288.8</ele>
      </trkpt>
      <trkpt lat="46.59509" lon="4.85584">
        <ele>282.9</ele>
      </trkpt>
      <trkpt lat="46.59506" lon="4.85638">
        <ele>278.3</ele>
      </trkpt>
      <trkpt lat="46.59506" lon="4.8566">
        <ele>276.7</ele>
      </trkpt>
      <trkpt lat="46.59509" lon="4.85678">
        <ele>275.2</ele>
      </trkpt>
      <trkpt lat="46.59512" lon="4.85689">
        <ele>274.4</ele>
      </trkpt>
      <trkpt lat="46.59521" lon="4.85709">
        <ele>273.5</ele>
      </trkpt>
      <trkpt lat="46.59523" lon="4.85713">
        <ele>273.4</ele>
      </trkpt>
      <trkpt lat="46.59526" lon="4.85717">
        <ele>273.3</ele>
      </trkpt>
      <trkpt lat="46.59536" lon="4.85729">
        <ele>273.1</ele>
      </trkpt>
      <trkpt lat="46.59554" lon="4.85741">
        <ele>273.3</ele>
      </trkpt>
      <trkpt lat="46.59585" lon="4.85759">
        <ele>272.6</ele>
      </trkpt>
      <trkpt lat="46.5961" lon="4.85775">
        <ele>271.2</ele>
      </trkpt>
      <trkpt lat="46.59632" lon="4.85782">
        <ele>269.9</ele>
      </trkpt>
      <trkpt lat="46.59653" lon="4.85785">
        <ele>268.4</ele>
      </trkpt>
      <trkpt lat="46.59667" lon="4.85783">
        <ele>267.4</ele>
      </trkpt>
      <trkpt lat="46.59723" lon="4.85764">
        <ele>264.5</ele>
      </trkpt>
      <trkpt lat="46.59745" lon="4.85766">
        <ele>264.4</ele>
      </trkpt>
      <trkpt lat="46.59759" lon="4.85771">
        <ele>264.5</ele>
      </trkpt>
      <trkpt lat="46.59779" lon="4.8578">
        <ele>264.7</ele>
      </trkpt>
      <trkpt lat="46.59808" lon="4.858">
        <ele>262.4</ele>
      </trkpt>
      <trkpt lat="46.59833" lon="4.85817">
        <ele>260.7</ele>
      </trkpt>
      <trkpt lat="46.59854" lon="4.85822">
        <ele>259.2</ele>
      </trkpt>
      <trkpt lat="46.59849" lon="4.85777">
        <ele>262.5</ele>
      </trkpt>
      <trkpt lat="46.59891" lon="4.85761">
        <ele>259.5</ele>
      </trkpt>
      <trkpt lat="46.59914" lon="4.85755">
        <ele>258</ele>
      </trkpt>
      <trkpt lat="46.59934" lon="4.85758">
        <ele>256.3</ele>
      </trkpt>
      <trkpt lat="46.60006" lon="4.85784">
        <ele>253.8</ele>
      </trkpt>
      <trkpt lat="46.60041" lon="4.85793">
        <ele>254.6</ele>
      </trkpt>
      <trkpt lat="46.60049" lon="4.85795">
        <ele>254.8</ele>
      </trkpt>
      <trkpt lat="46.60067" lon="4.858">
        <ele>255</ele>
      </trkpt>
      <trkpt lat="46.60089" lon="4.85802">
        <ele>255.6</ele>
      </trkpt>
      <trkpt lat="46.60117" lon="4.85809">
        <ele>255.8</ele>
      </trkpt>
      <trkpt lat="46.60157" lon="4.85824">
        <ele>254.8</ele>
      </trkpt>
      <trkpt lat="46.60193" lon="4.85842">
        <ele>254</ele>
      </trkpt>
      <trkpt lat="46.60209" lon="4.85851">
        <ele>253</ele>
      </trkpt>
      <trkpt lat="46.60218" lon="4.85858">
        <ele>252.4</ele>
      </trkpt>
      <trkpt lat="46.60227" lon="4.85868">
        <ele>251.6</ele>
      </trkpt>
      <trkpt lat="46.60238" lon="4.85881">
        <ele>250.7</ele>
      </trkpt>
      <trkpt lat="46.60247" lon="4.85889">
        <ele>249.9</ele>
      </trkpt>
      <trkpt lat="46.6026" lon="4.85895">
        <ele>249.7</ele>
      </trkpt>
      <trkpt lat="46.6027" lon="4.85899">
        <ele>249.6</ele>
      </trkpt>
      <trkpt lat="46.60299" lon="4.85918">
        <ele>248.7</ele>
      </trkpt>
      <trkpt lat="46.60317" lon="4.85929">
        <ele>248.1</ele>
      </trkpt>
      <trkpt lat="46.60338" lon="4.85938">
        <ele>247.9</ele>
      </trkpt>
      <trkpt lat="46.60366" lon="4.85946">
        <ele>248.4</ele>
      </trkpt>
      <trkpt lat="46.60394" lon="4.85959">
        <ele>249.3</ele>
      </trkpt>
      <trkpt lat="46.60417" lon="4.85976">
        <ele>248.6</ele>
      </trkpt>
      <trkpt lat="46.60452" lon="4.86007">
        <ele>247.6</ele>
      </trkpt>
      <trkpt lat="46.60467" lon="4.86019">
        <ele>247.4</ele>
      </trkpt>
      <trkpt lat="46.60477" lon="4.86022">
        <ele>248</ele>
      </trkpt>
      <trkpt lat="46.60491" lon="4.86022">
        <ele>248.9</ele>
      </trkpt>
      <trkpt lat="46.60501" lon="4.86024">
        <ele>249.5</ele>
      </trkpt>
      <trkpt lat="46.60508" lon="4.86029">
        <ele>249.5</ele>
      </trkpt>
      <trkpt lat="46.60527" lon="4.86046">
        <ele>249</ele>
      </trkpt>
      <trkpt lat="46.60548" lon="4.86059">
        <ele>248.3</ele>
      </trkpt>
      <trkpt lat="46.60565" lon="4.86065">
        <ele>248</ele>
      </trkpt>
      <trkpt lat="46.60569" lon="4.86074">
        <ele>247</ele>
      </trkpt>
      <trkpt lat="46.60588" lon="4.86123">
        <ele>242.2</ele>
      </trkpt>
      <trkpt lat="46.60595" lon="4.86121">
        <ele>242.3</ele>
      </trkpt>
      <trkpt lat="46.60612" lon="4.86115">
        <ele>242.7</ele>
      </trkpt>
      <trkpt lat="46.60634" lon="4.86107">
        <ele>243.6</ele>
      </trkpt>
      <trkpt lat="46.60644" lon="4.86107">
        <ele>243.8</ele>
      </trkpt>
      <trkpt lat="46.60649" lon="4.86107">
        <ele>243.9</ele>
      </trkpt>
      <trkpt lat="46.60654" lon="4.8611">
        <ele>243.7</ele>
      </trkpt>
      <trkpt lat="46.60661" lon="4.86112">
        <ele>243.7</ele>
      </trkpt>
      <trkpt lat="46.60678" lon="4.86131">
        <ele>242</ele>
      </trkpt>
      <trkpt lat="46.60708" lon="4.86168">
        <ele>238.4</ele>
      </trkpt>
      <trkpt lat="46.60742" lon="4.862">
        <ele>235.5</ele>
      </trkpt>
      <trkpt lat="46.60771" lon="4.86229">
        <ele>233.1</ele>
      </trkpt>
      <trkpt lat="46.60779" lon="4.86237">
        <ele>232.4</ele>
      </trkpt>
      <trkpt lat="46.60784" lon="4.86239">
        <ele>232.3</ele>
      </trkpt>
      <trkpt lat="46.6079" lon="4.86239">
        <ele>232.4</ele>
      </trkpt>
      <trkpt lat="46.60796" lon="4.86239">
        <ele>232.6</ele>
      </trkpt>
      <trkpt lat="46.6081" lon="4.86238">
        <ele>232.9</ele>
      </trkpt>
      <trkpt lat="46.6081" lon="4.86234">
        <ele>233.2</ele>
      </trkpt>
      <trkpt lat="46.60812" lon="4.86198">
        <ele>235.1</ele>
      </trkpt>
      <trkpt lat="46.60816" lon="4.8618">
        <ele>235.9</ele>
      </trkpt>
      <trkpt lat="46.6082" lon="4.86172">
        <ele>236.3</ele>
      </trkpt>
      <trkpt lat="46.60826" lon="4.86163">
        <ele>236.9</ele>
      </trkpt>
      <trkpt lat="46.60835" lon="4.86155">
        <ele>237.5</ele>
      </trkpt>
      <trkpt lat="46.60853" lon="4.86147">
        <ele>238.4</ele>
      </trkpt>
      <trkpt lat="46.6088" lon="4.86136">
        <ele>239.8</ele>
      </trkpt>
      <trkpt lat="46.60907" lon="4.86124">
        <ele>241.8</ele>
      </trkpt>
      <trkpt lat="46.60928" lon="4.86113">
        <ele>243.8</ele>
      </trkpt>
      <trkpt lat="46.60944" lon="4.86101">
        <ele>245.6</ele>
      </trkpt>
      <trkpt lat="46.60951" lon="4.86093">
        <ele>246.4</ele>
      </trkpt>
      <trkpt lat="46.60949" lon="4.86104">
        <ele>246.6</ele>
      </trkpt>
      <trkpt lat="46.60951" lon="4.86093">
        <ele>246.4</ele>
      </trkpt>
      <trkpt lat="46.60951" lon="4.86056">
        <ele>245.5</ele>
      </trkpt>
      <trkpt lat="46.60953" lon="4.86026">
        <ele>247.1</ele>
      </trkpt>
      <trkpt lat="46.60956" lon="4.86009">
        <ele>247.8</ele>
      </trkpt>
      <trkpt lat="46.60965" lon="4.85979">
        <ele>248.8</ele>
      </trkpt>
      <trkpt lat="46.60977" lon="4.85945">
        <ele>249.8</ele>
      </trkpt>
      <trkpt lat="46.60989" lon="4.85928">
        <ele>250.4</ele>
      </trkpt>
      <trkpt lat="46.60996" lon="4.85918">
        <ele>250.9</ele>
      </trkpt>
      <trkpt lat="46.61007" lon="4.85896">
        <ele>252.3</ele>
      </trkpt>
      <trkpt lat="46.61021" lon="4.85857">
        <ele>253.5</ele>
      </trkpt>
      <trkpt lat="46.61031" lon="4.85839">
        <ele>253</ele>
      </trkpt>
      <trkpt lat="46.61007" lon="4.85792">
        <ele>256.7</ele>
      </trkpt>
      <trkpt lat="46.60993" lon="4.85768">
        <ele>259</ele>
      </trkpt>
      <trkpt lat="46.60974" lon="4.85743">
        <ele>262.1</ele>
      </trkpt>
      <trkpt lat="46.6096" lon="4.85719">
        <ele>264.5</ele>
      </trkpt>
      <trkpt lat="46.60947" lon="4.8569">
        <ele>266.2</ele>
      </trkpt>
      <trkpt lat="46.60935" lon="4.85659">
        <ele>268.5</ele>
      </trkpt>
      <trkpt lat="46.60922" lon="4.85621">
        <ele>270.6</ele>
      </trkpt>
      <trkpt lat="46.60911" lon="4.85604">
        <ele>271.9</ele>
      </trkpt>
      <trkpt lat="46.60886" lon="4.85577">
        <ele>275</ele>
      </trkpt>
      <trkpt lat="46.60861" lon="4.85564">
        <ele>277.7</ele>
      </trkpt>
      <trkpt lat="46.60819" lon="4.85551">
        <ele>285</ele>
      </trkpt>
      <trkpt lat="46.60791" lon="4.85542">
        <ele>290</ele>
      </trkpt>
      <trkpt lat="46.60763" lon="4.85522">
        <ele>293.2</ele>
      </trkpt>
      <trkpt lat="46.60734" lon="4.85487">
        <ele>295.8</ele>
      </trkpt>
      <trkpt lat="46.60698" lon="4.85452">
        <ele>296.7</ele>
      </trkpt>
      <trkpt lat="46.607" lon="4.85435">
        <ele>298.4</ele>
      </trkpt>
      <trkpt lat="46.60692" lon="4.85405">
        <ele>302</ele>
      </trkpt>
      <trkpt lat="46.60726" lon="4.85361">
        <ele>313.4</ele>
      </trkpt>
      <trkpt lat="46.60754" lon="4.85327">
        <ele>324.6</ele>
      </trkpt>
      <trkpt lat="46.60791" lon="4.85288">
        <ele>334.1</ele>
      </trkpt>
      <trkpt lat="46.60814" lon="4.85263">
        <ele>340.1</ele>
      </trkpt>
      <trkpt lat="46.60848" lon="4.8524">
        <ele>347.2</ele>
      </trkpt>
      <trkpt lat="46.60913" lon="4.85205">
        <ele>358</ele>
      </trkpt>
      <trkpt lat="46.6095" lon="4.85174">
        <ele>364.2</ele>
      </trkpt>
      <trkpt lat="46.60963" lon="4.85157">
        <ele>366.8</ele>
      </trkpt>
      <trkpt lat="46.60971" lon="4.85139">
        <ele>369</ele>
      </trkpt>
      <trkpt lat="46.60977" lon="4.85119">
        <ele>371.2</ele>
      </trkpt>
      <trkpt lat="46.60978" lon="4.85097">
        <ele>373.6</ele>
      </trkpt>
      <trkpt lat="46.60977" lon="4.85071">
        <ele>375.4</ele>
      </trkpt>
      <trkpt lat="46.60973" lon="4.85045">
        <ele>376.4</ele>
      </trkpt>
      <trkpt lat="46.60962" lon="4.85011">
        <ele>377</ele>
      </trkpt>
      <trkpt lat="46.60945" lon="4.84967">
        <ele>377</ele>
      </trkpt>
      <trkpt lat="46.60904" lon="4.84867">
        <ele>383.9</ele>
      </trkpt>
      <trkpt lat="46.60892" lon="4.84865">
        <ele>383.7</ele>
      </trkpt>
      <trkpt lat="46.6088" lon="4.84804">
        <ele>389.9</ele>
      </trkpt>
      <trkpt lat="46.60861" lon="4.84723">
        <ele>397.9</ele>
      </trkpt>
      <trkpt lat="46.60856" lon="4.84705">
        <ele>399.7</ele>
      </trkpt>
      <trkpt lat="46.60845" lon="4.84664">
        <ele>402.7</ele>
      </trkpt>
      <trkpt lat="46.60837" lon="4.84635">
        <ele>405.5</ele>
      </trkpt>
      <trkpt lat="46.6083" lon="4.8461">
        <ele>408</ele>
      </trkpt>
      <trkpt lat="46.60823" lon="4.84596">
        <ele>409.3</ele>
      </trkpt>
      <trkpt lat="46.60798" lon="4.84566">
        <ele>412.1</ele>
      </trkpt>
      <trkpt lat="46.60763" lon="4.84524">
        <ele>416.4</ele>
      </trkpt>
      <trkpt lat="46.60725" lon="4.84452">
        <ele>423.3</ele>
      </trkpt>
      <trkpt lat="46.60708" lon="4.844">
        <ele>429.3</ele>
      </trkpt>
      <trkpt lat="46.60738" lon="4.84329">
        <ele>437.8</ele>
      </trkpt>
      <trkpt lat="46.60743" lon="4.84291">
        <ele>439.1</ele>
      </trkpt>
      <trkpt lat="46.60748" lon="4.84281">
        <ele>439.1</ele>
      </trkpt>
      <trkpt lat="46.60762" lon="4.84265">
        <ele>438.8</ele>
      </trkpt>
      <trkpt lat="46.60771" lon="4.84259">
        <ele>438.4</ele>
      </trkpt>
      <trkpt lat="46.6078" lon="4.84253">
        <ele>437.8</ele>
      </trkpt>
      <trkpt lat="46.60788" lon="4.84244">
        <ele>436.3</ele>
      </trkpt>
      <trkpt lat="46.60785" lon="4.84215">
        <ele>433.7</ele>
      </trkpt>
      <trkpt lat="46.60778" lon="4.84161">
        <ele>427.1</ele>
      </trkpt>
      <trkpt lat="46.60769" lon="4.8412">
        <ele>421.5</ele>
      </trkpt>
      <trkpt lat="46.60767" lon="4.84098">
        <ele>417.3</ele>
      </trkpt>
      <trkpt lat="46.60763" lon="4.84068">
        <ele>411.4</ele>
      </trkpt>
      <trkpt lat="46.60757" lon="4.84045">
        <ele>407.8</ele>
      </trkpt>
      <trkpt lat="46.60752" lon="4.84037">
        <ele>407.4</ele>
      </trkpt>
      <trkpt lat="46.60745" lon="4.84025">
        <ele>406.5</ele>
      </trkpt>
      <trkpt lat="46.60701" lon="4.83961">
        <ele>402.5</ele>
      </trkpt>
      <trkpt lat="46.60676" lon="4.83914">
        <ele>397.5</ele>
      </trkpt>
      <trkpt lat="46.60656" lon="4.83856">
        <ele>390.7</ele>
      </trkpt>
      <trkpt lat="46.60652" lon="4.83839">
        <ele>389</ele>
      </trkpt>
      <trkpt lat="46.60643" lon="4.83789">
        <ele>384.7</ele>
      </trkpt>
      <trkpt lat="46.60641" lon="4.83785">
        <ele>384.5</ele>
      </trkpt>
      <trkpt lat="46.60639" lon="4.83774">
        <ele>383.6</ele>
      </trkpt>
      <trkpt lat="46.60639" lon="4.8376">
        <ele>382.1</ele>
      </trkpt>
      <trkpt lat="46.60642" lon="4.83735">
        <ele>379.7</ele>
      </trkpt>
      <trkpt lat="46.60652" lon="4.83686">
        <ele>375.8</ele>
      </trkpt>
      <trkpt lat="46.60657" lon="4.83658">
        <ele>374.3</ele>
      </trkpt>
      <trkpt lat="46.60661" lon="4.83645">
        <ele>373.5</ele>
      </trkpt>
      <trkpt lat="46.60665" lon="4.8364">
        <ele>373.1</ele>
      </trkpt>
      <trkpt lat="46.60671" lon="4.83636">
        <ele>372.6</ele>
      </trkpt>
      <trkpt lat="46.60681" lon="4.83633">
        <ele>371.8</ele>
      </trkpt>
      <trkpt lat="46.60687" lon="4.83631">
        <ele>371.3</ele>
      </trkpt>
      <trkpt lat="46.60695" lon="4.83612">
        <ele>370</ele>
      </trkpt>
      <trkpt lat="46.60695" lon="4.83606">
        <ele>369.6</ele>
      </trkpt>
      <trkpt lat="46.60695" lon="4.83601">
        <ele>369.3</ele>
      </trkpt>
      <trkpt lat="46.60692" lon="4.83592">
        <ele>368.8</ele>
      </trkpt>
      <trkpt lat="46.60684" lon="4.8357">
        <ele>367.4</ele>
      </trkpt>
      <trkpt lat="46.60678" lon="4.83553">
        <ele>365.7</ele>
      </trkpt>
      <trkpt lat="46.60673" lon="4.83532">
        <ele>363.7</ele>
      </trkpt>
      <trkpt lat="46.6067" lon="4.83514">
        <ele>361.5</ele>
      </trkpt>
      <trkpt lat="46.60664" lon="4.83481">
        <ele>357.1</ele>
      </trkpt>
      <trkpt lat="46.60662" lon="4.83473">
        <ele>355.9</ele>
      </trkpt>
      <trkpt lat="46.6066" lon="4.83468">
        <ele>355</ele>
      </trkpt>
      <trkpt lat="46.60657" lon="4.83464">
        <ele>354</ele>
      </trkpt>
      <trkpt lat="46.60652" lon="4.83459">
        <ele>352.9</ele>
      </trkpt>
      <trkpt lat="46.60644" lon="4.83454">
        <ele>351.8</ele>
      </trkpt>
      <trkpt lat="46.60622" lon="4.83437">
        <ele>348.6</ele>
      </trkpt>
      <trkpt lat="46.60604" lon="4.83422">
        <ele>346.3</ele>
      </trkpt>
      <trkpt lat="46.60592" lon="4.83409">
        <ele>345.2</ele>
      </trkpt>
      <trkpt lat="46.6058" lon="4.83397">
        <ele>343.6</ele>
      </trkpt>
      <trkpt lat="46.60571" lon="4.83384">
        <ele>342.2</ele>
      </trkpt>
      <trkpt lat="46.60557" lon="4.83366">
        <ele>339.9</ele>
      </trkpt>
      <trkpt lat="46.60528" lon="4.83335">
        <ele>338.1</ele>
      </trkpt>
      <trkpt lat="46.60523" lon="4.83328">
        <ele>337.9</ele>
      </trkpt>
      <trkpt lat="46.6052" lon="4.83322">
        <ele>337.6</ele>
      </trkpt>
      <trkpt lat="46.60515" lon="4.83299">
        <ele>335.8</ele>
      </trkpt>
      <trkpt lat="46.60513" lon="4.83288">
        <ele>335</ele>
      </trkpt>
      <trkpt lat="46.60513" lon="4.83283">
        <ele>334.5</ele>
      </trkpt>
      <trkpt lat="46.60517" lon="4.8326">
        <ele>333.5</ele>
      </trkpt>
      <trkpt lat="46.60518" lon="4.83241">
        <ele>333.6</ele>
      </trkpt>
      <trkpt lat="46.60519" lon="4.83225">
        <ele>333.9</ele>
      </trkpt>
      <trkpt lat="46.60503" lon="4.83216">
        <ele>334.5</ele>
      </trkpt>
      <trkpt lat="46.60492" lon="4.83207">
        <ele>335</ele>
      </trkpt>
      <trkpt lat="46.60459" lon="4.83183">
        <ele>335.9</ele>
      </trkpt>
      <trkpt lat="46.60428" lon="4.83161">
        <ele>336.3</ele>
      </trkpt>
      <trkpt lat="46.6041" lon="4.83145">
        <ele>336.9</ele>
      </trkpt>
      <trkpt lat="46.60394" lon="4.83131">
        <ele>337.3</ele>
      </trkpt>
      <trkpt lat="46.60373" lon="4.83107">
        <ele>338.2</ele>
      </trkpt>
      <trkpt lat="46.60357" lon="4.83091">
        <ele>338.9</ele>
      </trkpt>
      <trkpt lat="46.60345" lon="4.83082">
        <ele>339.6</ele>
      </trkpt>
      <trkpt lat="46.60337" lon="4.83078">
        <ele>340.1</ele>
      </trkpt>
      <trkpt lat="46.60328" lon="4.83074">
        <ele>340.7</ele>
      </trkpt>
      <trkpt lat="46.60318" lon="4.83073">
        <ele>341.5</ele>
      </trkpt>
      <trkpt lat="46.60304" lon="4.83071">
        <ele>342.6</ele>
      </trkpt>
      <trkpt lat="46.60293" lon="4.83068">
        <ele>343.5</ele>
      </trkpt>
      <trkpt lat="46.60282" lon="4.83064">
        <ele>344.4</ele>
      </trkpt>
      <trkpt lat="46.60278" lon="4.83054">
        <ele>345.1</ele>
      </trkpt>
      <trkpt lat="46.60278" lon="4.83048">
        <ele>345.6</ele>
      </trkpt>
      <trkpt lat="46.60279" lon="4.83041">
        <ele>346</ele>
      </trkpt>
      <trkpt lat="46.60289" lon="4.83003">
        <ele>348</ele>
      </trkpt>
      <trkpt lat="46.60296" lon="4.82974">
        <ele>348.7</ele>
      </trkpt>
      <trkpt lat="46.60302" lon="4.82957">
        <ele>347.6</ele>
      </trkpt>
      <trkpt lat="46.60309" lon="4.82937">
        <ele>346.9</ele>
      </trkpt>
      <trkpt lat="46.6032" lon="4.82913">
        <ele>346.4</ele>
      </trkpt>
      <trkpt lat="46.60333" lon="4.82885">
        <ele>345.1</ele>
      </trkpt>
      <trkpt lat="46.60341" lon="4.82862">
        <ele>344.4</ele>
      </trkpt>
      <trkpt lat="46.60349" lon="4.82832">
        <ele>342.9</ele>
      </trkpt>
      <trkpt lat="46.60357" lon="4.82796">
        <ele>342.1</ele>
      </trkpt>
      <trkpt lat="46.60362" lon="4.8277">
        <ele>342</ele>
      </trkpt>
      <trkpt lat="46.60363" lon="4.8276">
        <ele>342</ele>
      </trkpt>
      <trkpt lat="46.60374" lon="4.82751">
        <ele>342.4</ele>
      </trkpt>
      <trkpt lat="46.60382" lon="4.82748">
        <ele>342.9</ele>
      </trkpt>
      <trkpt lat="46.60392" lon="4.82747">
        <ele>343.7</ele>
      </trkpt>
      <trkpt lat="46.60407" lon="4.82749">
        <ele>345.1</ele>
      </trkpt>
      <trkpt lat="46.60418" lon="4.82752">
        <ele>345.9</ele>
      </trkpt>
      <trkpt lat="46.6042" lon="4.82753">
        <ele>346</ele>
      </trkpt>
      <trkpt lat="46.60434" lon="4.82754">
        <ele>347.3</ele>
      </trkpt>
      <trkpt lat="46.60447" lon="4.82754">
        <ele>348.5</ele>
      </trkpt>
      <trkpt lat="46.60455" lon="4.82754">
        <ele>348.8</ele>
      </trkpt>
      <trkpt lat="46.60459" lon="4.82753">
        <ele>349.2</ele>
      </trkpt>
      <trkpt lat="46.60463" lon="4.82747">
        <ele>350.1</ele>
      </trkpt>
      <trkpt lat="46.60471" lon="4.82733">
        <ele>352.5</ele>
      </trkpt>
      <trkpt lat="46.6048" lon="4.82719">
        <ele>354.1</ele>
      </trkpt>
      <trkpt lat="46.60489" lon="4.82708">
        <ele>355.4</ele>
      </trkpt>
      <trkpt lat="46.60498" lon="4.82691">
        <ele>357.4</ele>
      </trkpt>
      <trkpt lat="46.60508" lon="4.82674">
        <ele>358.1</ele>
      </trkpt>
      <trkpt lat="46.60519" lon="4.82665">
        <ele>358.5</ele>
      </trkpt>
      <trkpt lat="46.60533" lon="4.82657">
        <ele>358.8</ele>
      </trkpt>
      <trkpt lat="46.60548" lon="4.82653">
        <ele>359.3</ele>
      </trkpt>
      <trkpt lat="46.60561" lon="4.82651">
        <ele>359.9</ele>
      </trkpt>
      <trkpt lat="46.60575" lon="4.82649">
        <ele>360.6</ele>
      </trkpt>
      <trkpt lat="46.60583" lon="4.8265">
        <ele>360.8</ele>
      </trkpt>
      <trkpt lat="46.60595" lon="4.82656">
        <ele>361</ele>
      </trkpt>
      <trkpt lat="46.60617" lon="4.82671">
        <ele>360.7</ele>
      </trkpt>
      <trkpt lat="46.60639" lon="4.82681">
        <ele>360.9</ele>
      </trkpt>
      <trkpt lat="46.60647" lon="4.82685">
        <ele>361</ele>
      </trkpt>
      <trkpt lat="46.60658" lon="4.8269">
        <ele>361</ele>
      </trkpt>
      <trkpt lat="46.60679" lon="4.82696">
        <ele>361.3</ele>
      </trkpt>
      <trkpt lat="46.60699" lon="4.82701">
        <ele>361.6</ele>
      </trkpt>
      <trkpt lat="46.60722" lon="4.82705">
        <ele>362</ele>
      </trkpt>
      <trkpt lat="46.60737" lon="4.82707">
        <ele>361.5</ele>
      </trkpt>
      <trkpt lat="46.6075" lon="4.82712">
        <ele>361</ele>
      </trkpt>
      <trkpt lat="46.60766" lon="4.8272">
        <ele>361</ele>
      </trkpt>
      <trkpt lat="46.60791" lon="4.82736">
        <ele>360.5</ele>
      </trkpt>
      <trkpt lat="46.60827" lon="4.82763">
        <ele>360.1</ele>
      </trkpt>
      <trkpt lat="46.60859" lon="4.82788">
        <ele>360</ele>
      </trkpt>
      <trkpt lat="46.60879" lon="4.82804">
        <ele>359.4</ele>
      </trkpt>
      <trkpt lat="46.60891" lon="4.82814">
        <ele>359</ele>
      </trkpt>
      <trkpt lat="46.60902" lon="4.82838">
        <ele>358.4</ele>
      </trkpt>
      <trkpt lat="46.60918" lon="4.82876">
        <ele>356.9</ele>
      </trkpt>
      <trkpt lat="46.60935" lon="4.82914">
        <ele>355.1</ele>
      </trkpt>
      <trkpt lat="46.60948" lon="4.82936">
        <ele>354.3</ele>
      </trkpt>
      <trkpt lat="46.60956" lon="4.82944">
        <ele>354</ele>
      </trkpt>
      <trkpt lat="46.60962" lon="4.82947">
        <ele>353.9</ele>
      </trkpt>
      <trkpt lat="46.60968" lon="4.82947">
        <ele>353.9</ele>
      </trkpt>
      <trkpt lat="46.60975" lon="4.82946">
        <ele>353.8</ele>
      </trkpt>
      <trkpt lat="46.60996" lon="4.8295">
        <ele>353.1</ele>
      </trkpt>
      <trkpt lat="46.61025" lon="4.82951">
        <ele>352.3</ele>
      </trkpt>
      <trkpt lat="46.61042" lon="4.82958">
        <ele>352</ele>
      </trkpt>
      <trkpt lat="46.61057" lon="4.82967">
        <ele>351.7</ele>
      </trkpt>
      <trkpt lat="46.61073" lon="4.82975">
        <ele>351.5</ele>
      </trkpt>
      <trkpt lat="46.61109" lon="4.8299">
        <ele>351.7</ele>
      </trkpt>
      <trkpt lat="46.61136" lon="4.83">
        <ele>352</ele>
      </trkpt>
      <trkpt lat="46.61148" lon="4.83004">
        <ele>351.7</ele>
      </trkpt>
      <trkpt lat="46.61158" lon="4.83011">
        <ele>351.6</ele>
      </trkpt>
      <trkpt lat="46.61191" lon="4.83042">
        <ele>351.6</ele>
      </trkpt>
      <trkpt lat="46.6121" lon="4.83055">
        <ele>352</ele>
      </trkpt>
      <trkpt lat="46.61229" lon="4.83063">
        <ele>352</ele>
      </trkpt>
      <trkpt lat="46.61267" lon="4.8307">
        <ele>351.7</ele>
      </trkpt>
      <trkpt lat="46.61317" lon="4.83078">
        <ele>351.4</ele>
      </trkpt>
      <trkpt lat="46.61328" lon="4.83082">
        <ele>351.1</ele>
      </trkpt>
      <trkpt lat="46.61343" lon="4.8309">
        <ele>351.2</ele>
      </trkpt>
      <trkpt lat="46.61385" lon="4.83125">
        <ele>352.5</ele>
      </trkpt>
      <trkpt lat="46.61402" lon="4.83139">
        <ele>353</ele>
      </trkpt>
      <trkpt lat="46.61424" lon="4.83156">
        <ele>353.6</ele>
      </trkpt>
      <trkpt lat="46.61439" lon="4.83166">
        <ele>354</ele>
      </trkpt>
      <trkpt lat="46.61453" lon="4.83174">
        <ele>353.8</ele>
      </trkpt>
      <trkpt lat="46.6147" lon="4.8318">
        <ele>353.5</ele>
      </trkpt>
      <trkpt lat="46.61516" lon="4.83195">
        <ele>353.4</ele>
      </trkpt>
      <trkpt lat="46.61575" lon="4.83208">
        <ele>351.5</ele>
      </trkpt>
      <trkpt lat="46.61626" lon="4.83237">
        <ele>350</ele>
      </trkpt>
      <trkpt lat="46.6167" lon="4.83263">
        <ele>349.5</ele>
      </trkpt>
      <trkpt lat="46.61702" lon="4.83222">
        <ele>347.3</ele>
      </trkpt>
      <trkpt lat="46.61746" lon="4.83123">
        <ele>343.6</ele>
      </trkpt>
      <trkpt lat="46.61748" lon="4.83099">
        <ele>341.9</ele>
      </trkpt>
      <trkpt lat="46.61756" lon="4.83068">
        <ele>339.9</ele>
      </trkpt>
      <trkpt lat="46.61768" lon="4.83039">
        <ele>338.8</ele>
      </trkpt>
      <trkpt lat="46.61786" lon="4.83014">
        <ele>338.6</ele>
      </trkpt>
      <trkpt lat="46.61808" lon="4.82993">
        <ele>338.5</ele>
      </trkpt>
      <trkpt lat="46.61835" lon="4.82973">
        <ele>338</ele>
      </trkpt>
      <trkpt lat="46.61855" lon="4.82965">
        <ele>337.7</ele>
      </trkpt>
      <trkpt lat="46.61878" lon="4.82958">
        <ele>337.2</ele>
      </trkpt>
      <trkpt lat="46.61898" lon="4.82957">
        <ele>336.8</ele>
      </trkpt>
      <trkpt lat="46.61916" lon="4.82953">
        <ele>336.3</ele>
      </trkpt>
      <trkpt lat="46.61935" lon="4.82938">
        <ele>334.5</ele>
      </trkpt>
      <trkpt lat="46.61965" lon="4.82903">
        <ele>331.2</ele>
      </trkpt>
      <trkpt lat="46.61972" lon="4.8289">
        <ele>330.1</ele>
      </trkpt>
      <trkpt lat="46.61991" lon="4.82853">
        <ele>327.6</ele>
      </trkpt>
      <trkpt lat="46.61999" lon="4.82835">
        <ele>326.2</ele>
      </trkpt>
      <trkpt lat="46.62009" lon="4.82818">
        <ele>324.6</ele>
      </trkpt>
      <trkpt lat="46.62026" lon="4.8279">
        <ele>321.6</ele>
      </trkpt>
      <trkpt lat="46.62029" lon="4.82784">
        <ele>321.2</ele>
      </trkpt>
      <trkpt lat="46.62031" lon="4.82778">
        <ele>320.8</ele>
      </trkpt>
      <trkpt lat="46.62032" lon="4.82772">
        <ele>320.5</ele>
      </trkpt>
      <trkpt lat="46.62033" lon="4.82759">
        <ele>319.9</ele>
      </trkpt>
      <trkpt lat="46.62031" lon="4.82739">
        <ele>318.8</ele>
      </trkpt>
      <trkpt lat="46.62033" lon="4.82717">
        <ele>317</ele>
      </trkpt>
      <trkpt lat="46.62033" lon="4.82688">
        <ele>314.6</ele>
      </trkpt>
      <trkpt lat="46.62031" lon="4.82665">
        <ele>312.2</ele>
      </trkpt>
      <trkpt lat="46.62027" lon="4.82634">
        <ele>308.5</ele>
      </trkpt>
      <trkpt lat="46.62025" lon="4.82605">
        <ele>304.6</ele>
      </trkpt>
      <trkpt lat="46.62021" lon="4.82587">
        <ele>302.7</ele>
      </trkpt>
      <trkpt lat="46.62019" lon="4.82567">
        <ele>299.8</ele>
      </trkpt>
      <trkpt lat="46.62016" lon="4.82553">
        <ele>298.1</ele>
      </trkpt>
      <trkpt lat="46.6201" lon="4.82533">
        <ele>296.8</ele>
      </trkpt>
      <trkpt lat="46.62009" lon="4.8253">
        <ele>296.7</ele>
      </trkpt>
      <trkpt lat="46.62008" lon="4.82528">
        <ele>296.5</ele>
      </trkpt>
      <trkpt lat="46.62004" lon="4.82522">
        <ele>296.7</ele>
      </trkpt>
      <trkpt lat="46.61992" lon="4.82509">
        <ele>297.3</ele>
      </trkpt>
      <trkpt lat="46.61961" lon="4.82477">
        <ele>298.2</ele>
      </trkpt>
      <trkpt lat="46.61943" lon="4.82456">
        <ele>298.4</ele>
      </trkpt>
      <trkpt lat="46.61957" lon="4.82451">
        <ele>296.2</ele>
      </trkpt>
      <trkpt lat="46.61974" lon="4.82442">
        <ele>293.5</ele>
      </trkpt>
      <trkpt lat="46.61992" lon="4.82428">
        <ele>290.3</ele>
      </trkpt>
      <trkpt lat="46.61998" lon="4.82422">
        <ele>289.3</ele>
      </trkpt>
      <trkpt lat="46.62009" lon="4.82408">
        <ele>287</ele>
      </trkpt>
      <trkpt lat="46.62015" lon="4.824">
        <ele>285.7</ele>
      </trkpt>
      <trkpt lat="46.62017" lon="4.82397">
        <ele>285.1</ele>
      </trkpt>
      <trkpt lat="46.62023" lon="4.82392">
        <ele>283.8</ele>
      </trkpt>
      <trkpt lat="46.62036" lon="4.82375">
        <ele>281.2</ele>
      </trkpt>
      <trkpt lat="46.62042" lon="4.8237">
        <ele>279.9</ele>
      </trkpt>
      <trkpt lat="46.62053" lon="4.82365">
        <ele>277.7</ele>
      </trkpt>
      <trkpt lat="46.62075" lon="4.82358">
        <ele>273.3</ele>
      </trkpt>
      <trkpt lat="46.62079" lon="4.82356">
        <ele>272.5</ele>
      </trkpt>
      <trkpt lat="46.62085" lon="4.82351">
        <ele>271</ele>
      </trkpt>
      <trkpt lat="46.62093" lon="4.82338">
        <ele>268.9</ele>
      </trkpt>
      <trkpt lat="46.62112" lon="4.82308">
        <ele>264</ele>
      </trkpt>
      <trkpt lat="46.62119" lon="4.823">
        <ele>262.4</ele>
      </trkpt>
      <trkpt lat="46.62129" lon="4.82286">
        <ele>260.2</ele>
      </trkpt>
      <trkpt lat="46.62131" lon="4.82281">
        <ele>259.7</ele>
      </trkpt>
      <trkpt lat="46.62136" lon="4.82256">
        <ele>256.9</ele>
      </trkpt>
      <trkpt lat="46.62146" lon="4.82223">
        <ele>252.5</ele>
      </trkpt>
      <trkpt lat="46.62149" lon="4.82217">
        <ele>251.7</ele>
      </trkpt>
      <trkpt lat="46.62153" lon="4.82212">
        <ele>250.9</ele>
      </trkpt>
      <trkpt lat="46.62161" lon="4.82206">
        <ele>249.7</ele>
      </trkpt>
      <trkpt lat="46.62164" lon="4.82206">
        <ele>249.4</ele>
      </trkpt>
      <trkpt lat="46.62177" lon="4.82211">
        <ele>248.4</ele>
      </trkpt>
      <trkpt lat="46.62191" lon="4.82225">
        <ele>247.7</ele>
      </trkpt>
      <trkpt lat="46.622" lon="4.82233">
        <ele>247.2</ele>
      </trkpt>
      <trkpt lat="46.62215" lon="4.82248">
        <ele>246.6</ele>
      </trkpt>
      <trkpt lat="46.62218" lon="4.8225">
        <ele>246.4</ele>
      </trkpt>
      <trkpt lat="46.62235" lon="4.82259">
        <ele>244.9</ele>
      </trkpt>
      <trkpt lat="46.62237" lon="4.82261">
        <ele>244.7</ele>
      </trkpt>
      <trkpt lat="46.62263" lon="4.82283">
        <ele>243.5</ele>
      </trkpt>
      <trkpt lat="46.62287" lon="4.82295">
        <ele>242.9</ele>
      </trkpt>
      <trkpt lat="46.62301" lon="4.82302">
        <ele>242.9</ele>
      </trkpt>
      <trkpt lat="46.62301" lon="4.82299">
        <ele>242.7</ele>
      </trkpt>
      <trkpt lat="46.62302" lon="4.82286">
        <ele>241.7</ele>
      </trkpt>
      <trkpt lat="46.62303" lon="4.8228">
        <ele>241.2</ele>
      </trkpt>
      <trkpt lat="46.62314" lon="4.82243">
        <ele>238</ele>
      </trkpt>
      <trkpt lat="46.62337" lon="4.82177">
        <ele>232.3</ele>
      </trkpt>
      <trkpt lat="46.62339" lon="4.82167">
        <ele>231.8</ele>
      </trkpt>
      <trkpt lat="46.62344" lon="4.82142">
        <ele>229.8</ele>
      </trkpt>
      <trkpt lat="46.62343" lon="4.82088">
        <ele>226</ele>
      </trkpt>
      <trkpt lat="46.62344" lon="4.82072">
        <ele>224.9</ele>
      </trkpt>
      <trkpt lat="46.62347" lon="4.82053">
        <ele>223.8</ele>
      </trkpt>
      <trkpt lat="46.62355" lon="4.82027">
        <ele>221.2</ele>
      </trkpt>
      <trkpt lat="46.62346" lon="4.8202">
        <ele>221</ele>
      </trkpt>
      <trkpt lat="46.62338" lon="4.82017">
        <ele>221</ele>
      </trkpt>
      <trkpt lat="46.62279" lon="4.82003">
        <ele>222.2</ele>
      </trkpt>
      <trkpt lat="46.62255" lon="4.82003">
        <ele>223.1</ele>
      </trkpt>
      <trkpt lat="46.62244" lon="4.81999">
        <ele>223.4</ele>
      </trkpt>
      <trkpt lat="46.62227" lon="4.81993">
        <ele>224.1</ele>
      </trkpt>
      <trkpt lat="46.62196" lon="4.81972">
        <ele>224.9</ele>
      </trkpt>
      <trkpt lat="46.62169" lon="4.81956">
        <ele>225.7</ele>
      </trkpt>
      <trkpt lat="46.6216" lon="4.81951">
        <ele>225.9</ele>
      </trkpt>
      <trkpt lat="46.62141" lon="4.8194">
        <ele>226.3</ele>
      </trkpt>
      <trkpt lat="46.6212" lon="4.81924">
        <ele>226.2</ele>
      </trkpt>
      <trkpt lat="46.62076" lon="4.81893">
        <ele>226.8</ele>
      </trkpt>
      <trkpt lat="46.62068" lon="4.81888">
        <ele>226.5</ele>
      </trkpt>
      <trkpt lat="46.62055" lon="4.81884">
        <ele>226.5</ele>
      </trkpt>
      <trkpt lat="46.62027" lon="4.8188">
        <ele>227.1</ele>
      </trkpt>
      <trkpt lat="46.62009" lon="4.81872">
        <ele>227.2</ele>
      </trkpt>
      <trkpt lat="46.61998" lon="4.81867">
        <ele>226.9</ele>
      </trkpt>
      <trkpt lat="46.61992" lon="4.81866">
        <ele>226.7</ele>
      </trkpt>
      <trkpt lat="46.61952" lon="4.81847">
        <ele>224.6</ele>
      </trkpt>
      <trkpt lat="46.61941" lon="4.81842">
        <ele>223.8</ele>
      </trkpt>
      <trkpt lat="46.61926" lon="4.81836">
        <ele>222.6</ele>
      </trkpt>
      <trkpt lat="46.61909" lon="4.81826">
        <ele>221.2</ele>
      </trkpt>
      <trkpt lat="46.61899" lon="4.81817">
        <ele>220.5</ele>
      </trkpt>
      <trkpt lat="46.61893" lon="4.81809">
        <ele>220.1</ele>
      </trkpt>
      <trkpt lat="46.61892" lon="4.8181">
        <ele>220.2</ele>
      </trkpt>
      <trkpt lat="46.61887" lon="4.81812">
        <ele>220.3</ele>
      </trkpt>
      <trkpt lat="46.61868" lon="4.81815">
        <ele>220.6</ele>
      </trkpt>
      <trkpt lat="46.61853" lon="4.81817">
        <ele>220.7</ele>
      </trkpt>
      <trkpt lat="46.61847" lon="4.81817">
        <ele>220.6</ele>
      </trkpt>
      <trkpt lat="46.6184" lon="4.81817">
        <ele>220.5</ele>
      </trkpt>
      <trkpt lat="46.61831" lon="4.81814">
        <ele>220.3</ele>
      </trkpt>
      <trkpt lat="46.61817" lon="4.81805">
        <ele>220</ele>
      </trkpt>
      <trkpt lat="46.6181" lon="4.818">
        <ele>219.8</ele>
      </trkpt>
      <trkpt lat="46.61807" lon="4.81793">
        <ele>219.5</ele>
      </trkpt>
      <trkpt lat="46.61805" lon="4.81786">
        <ele>219.3</ele>
      </trkpt>
      <trkpt lat="46.61805" lon="4.81776">
        <ele>218.8</ele>
      </trkpt>
      <trkpt lat="46.61806" lon="4.81766">
        <ele>217.7</ele>
      </trkpt>
      <trkpt lat="46.61815" lon="4.81731">
        <ele>215.4</ele>
      </trkpt>
      <trkpt lat="46.61794" lon="4.81721">
        <ele>216.2</ele>
      </trkpt>
      <trkpt lat="46.61776" lon="4.81714">
        <ele>217.5</ele>
      </trkpt>
      <trkpt lat="46.61769" lon="4.81712">
        <ele>217.6</ele>
      </trkpt>
      <trkpt lat="46.61739" lon="4.81707">
        <ele>218.5</ele>
      </trkpt>
      <trkpt lat="46.61723" lon="4.81704">
        <ele>219</ele>
      </trkpt>
      <trkpt lat="46.6171" lon="4.81697">
        <ele>218.7</ele>
      </trkpt>
      <trkpt lat="46.6169" lon="4.81687">
        <ele>218.6</ele>
      </trkpt>
      <trkpt lat="46.61661" lon="4.81672">
        <ele>218.6</ele>
      </trkpt>
      <trkpt lat="46.61612" lon="4.81648">
        <ele>218.9</ele>
      </trkpt>
      <trkpt lat="46.61571" lon="4.81629">
        <ele>219.5</ele>
      </trkpt>
      <trkpt lat="46.61537" lon="4.81614">
        <ele>219.9</ele>
      </trkpt>
      <trkpt lat="46.61502" lon="4.81598">
        <ele>220.9</ele>
      </trkpt>
      <trkpt lat="46.6147" lon="4.81585">
        <ele>222.2</ele>
      </trkpt>
      <trkpt lat="46.61419" lon="4.81563">
        <ele>222.4</ele>
      </trkpt>
      <trkpt lat="46.61388" lon="4.81549">
        <ele>222.5</ele>
      </trkpt>
      <trkpt lat="46.61367" lon="4.81542">
        <ele>222</ele>
      </trkpt>
      <trkpt lat="46.61355" lon="4.8154">
        <ele>221.9</ele>
      </trkpt>
      <trkpt lat="46.61348" lon="4.81538">
        <ele>221.7</ele>
      </trkpt>
      <trkpt lat="46.61345" lon="4.81534">
        <ele>221.5</ele>
      </trkpt>
      <trkpt lat="46.61343" lon="4.8153">
        <ele>221.1</ele>
      </trkpt>
      <trkpt lat="46.61344" lon="4.8152">
        <ele>220.5</ele>
      </trkpt>
      <trkpt lat="46.61348" lon="4.81496">
        <ele>218.9</ele>
      </trkpt>
      <trkpt lat="46.61354" lon="4.81469">
        <ele>217.8</ele>
      </trkpt>
      <trkpt lat="46.61363" lon="4.81431">
        <ele>215.5</ele>
      </trkpt>
      <trkpt lat="46.61372" lon="4.81389">
        <ele>214</ele>
      </trkpt>
      <trkpt lat="46.61382" lon="4.81329">
        <ele>212.7</ele>
      </trkpt>
      <trkpt lat="46.61366" lon="4.81322">
        <ele>212.5</ele>
      </trkpt>
      <trkpt lat="46.61347" lon="4.81315">
        <ele>212.5</ele>
      </trkpt>
      <trkpt lat="46.61334" lon="4.81312">
        <ele>212.4</ele>
      </trkpt>
      <trkpt lat="46.6132" lon="4.8131">
        <ele>212.7</ele>
      </trkpt>
      <trkpt lat="46.61302" lon="4.8131">
        <ele>213.2</ele>
      </trkpt>
      <trkpt lat="46.61274" lon="4.81313">
        <ele>213.4</ele>
      </trkpt>
      <trkpt lat="46.61257" lon="4.81315">
        <ele>214.1</ele>
      </trkpt>
      <trkpt lat="46.61247" lon="4.81314">
        <ele>214.4</ele>
      </trkpt>
      <trkpt lat="46.61232" lon="4.8131">
        <ele>214.8</ele>
      </trkpt>
      <trkpt lat="46.61213" lon="4.81305">
        <ele>215.3</ele>
      </trkpt>
      <trkpt lat="46.61203" lon="4.81302">
        <ele>215.6</ele>
      </trkpt>
      <trkpt lat="46.61166" lon="4.81291">
        <ele>217</ele>
      </trkpt>
      <trkpt lat="46.61155" lon="4.81287">
        <ele>217.4</ele>
      </trkpt>
      <trkpt lat="46.61147" lon="4.81284">
        <ele>217.7</ele>
      </trkpt>
      <trkpt lat="46.61136" lon="4.81282">
        <ele>218.1</ele>
      </trkpt>
      <trkpt lat="46.6113" lon="4.81291">
        <ele>218.4</ele>
      </trkpt>
      <trkpt lat="46.61125" lon="4.81298">
        <ele>218.9</ele>
      </trkpt>
      <trkpt lat="46.61124" lon="4.81321">
        <ele>219.9</ele>
      </trkpt>
      <trkpt lat="46.61122" lon="4.81342">
        <ele>220.9</ele>
      </trkpt>
      <trkpt lat="46.6112" lon="4.81366">
        <ele>222</ele>
      </trkpt>
      <trkpt lat="46.61118" lon="4.81378">
        <ele>223</ele>
      </trkpt>
      <trkpt lat="46.61111" lon="4.81406">
        <ele>225.2</ele>
      </trkpt>
      <trkpt lat="46.61107" lon="4.81421">
        <ele>226.8</ele>
      </trkpt>
      <trkpt lat="46.61103" lon="4.81425">
        <ele>227.5</ele>
      </trkpt>
      <trkpt lat="46.611" lon="4.81433">
        <ele>228.6</ele>
      </trkpt>
      <trkpt lat="46.61085" lon="4.81485">
        <ele>233.7</ele>
      </trkpt>
      <trkpt lat="46.6108" lon="4.81504">
        <ele>235.5</ele>
      </trkpt>
      <trkpt lat="46.61069" lon="4.81547">
        <ele>239.8</ele>
      </trkpt>
      <trkpt lat="46.61055" lon="4.81594">
        <ele>244.9</ele>
      </trkpt>
      <trkpt lat="46.61044" lon="4.81629">
        <ele>248.7</ele>
      </trkpt>
      <trkpt lat="46.61037" lon="4.81647">
        <ele>250.5</ele>
      </trkpt>
      <trkpt lat="46.61025" lon="4.81665">
        <ele>253.3</ele>
      </trkpt>
      <trkpt lat="46.61006" lon="4.81677">
        <ele>256.6</ele>
      </trkpt>
      <trkpt lat="46.60991" lon="4.81684">
        <ele>258.6</ele>
      </trkpt>
      <trkpt lat="46.60983" lon="4.8169">
        <ele>259.6</ele>
      </trkpt>
      <trkpt lat="46.60973" lon="4.81706">
        <ele>261.3</ele>
      </trkpt>
      <trkpt lat="46.60965" lon="4.81727">
        <ele>263</ele>
      </trkpt>
      <trkpt lat="46.60957" lon="4.81754">
        <ele>264.8</ele>
      </trkpt>
      <trkpt lat="46.60941" lon="4.81793">
        <ele>267.2</ele>
      </trkpt>
      <trkpt lat="46.60919" lon="4.81774">
        <ele>268.7</ele>
      </trkpt>
      <trkpt lat="46.60898" lon="4.81763">
        <ele>270.5</ele>
      </trkpt>
      <trkpt lat="46.60877" lon="4.81755">
        <ele>272.1</ele>
      </trkpt>
      <trkpt lat="46.60853" lon="4.81753">
        <ele>273.9</ele>
      </trkpt>
      <trkpt lat="46.60827" lon="4.81748">
        <ele>275.3</ele>
      </trkpt>
      <trkpt lat="46.60805" lon="4.8175">
        <ele>277</ele>
      </trkpt>
      <trkpt lat="46.60783" lon="4.81752">
        <ele>278.2</ele>
      </trkpt>
      <trkpt lat="46.6077" lon="4.8175">
        <ele>277.7</ele>
      </trkpt>
      <trkpt lat="46.60756" lon="4.8175">
        <ele>277.2</ele>
      </trkpt>
      <trkpt lat="46.60738" lon="4.81757">
        <ele>276.6</ele>
      </trkpt>
      <trkpt lat="46.60723" lon="4.81767">
        <ele>276.2</ele>
      </trkpt>
      <trkpt lat="46.60707" lon="4.81782">
        <ele>275.5</ele>
      </trkpt>
      <trkpt lat="46.60695" lon="4.81796">
        <ele>274.6</ele>
      </trkpt>
      <trkpt lat="46.60681" lon="4.81811">
        <ele>273</ele>
      </trkpt>
      <trkpt lat="46.60675" lon="4.81819">
        <ele>271.9</ele>
      </trkpt>
      <trkpt lat="46.60668" lon="4.8183">
        <ele>270.2</ele>
      </trkpt>
      <trkpt lat="46.60663" lon="4.81839">
        <ele>270.7</ele>
      </trkpt>
      <trkpt lat="46.60656" lon="4.81847">
        <ele>271.4</ele>
      </trkpt>
      <trkpt lat="46.60649" lon="4.81852">
        <ele>271.1</ele>
      </trkpt>
      <trkpt lat="46.60644" lon="4.81868">
        <ele>271.6</ele>
      </trkpt>
      <trkpt lat="46.60629" lon="4.81902">
        <ele>274</ele>
      </trkpt>
      <trkpt lat="46.60618" lon="4.81924">
        <ele>275.8</ele>
      </trkpt>
      <trkpt lat="46.60604" lon="4.81947">
        <ele>277.6</ele>
      </trkpt>
      <trkpt lat="46.6059" lon="4.81967">
        <ele>278.3</ele>
      </trkpt>
      <trkpt lat="46.6058" lon="4.81979">
        <ele>278.9</ele>
      </trkpt>
      <trkpt lat="46.60565" lon="4.81996">
        <ele>281.8</ele>
      </trkpt>
      <trkpt lat="46.6054" lon="4.82022">
        <ele>285.8</ele>
      </trkpt>
      <trkpt lat="46.60538" lon="4.82023">
        <ele>285.8</ele>
      </trkpt>
      <trkpt lat="46.60527" lon="4.82034">
        <ele>286.6</ele>
      </trkpt>
      <trkpt lat="46.60518" lon="4.82041">
        <ele>287.5</ele>
      </trkpt>
      <trkpt lat="46.60508" lon="4.82045">
        <ele>287.1</ele>
      </trkpt>
      <trkpt lat="46.60496" lon="4.82047">
        <ele>286.5</ele>
      </trkpt>
      <trkpt lat="46.6049" lon="4.82048">
        <ele>286.6</ele>
      </trkpt>
      <trkpt lat="46.6048" lon="4.82049">
        <ele>286.9</ele>
      </trkpt>
      <trkpt lat="46.60467" lon="4.8205">
        <ele>287.3</ele>
      </trkpt>
      <trkpt lat="46.60455" lon="4.82053">
        <ele>287.8</ele>
      </trkpt>
      <trkpt lat="46.60443" lon="4.82056">
        <ele>288.2</ele>
      </trkpt>
      <trkpt lat="46.60432" lon="4.82061">
        <ele>290.1</ele>
      </trkpt>
      <trkpt lat="46.60413" lon="4.82072">
        <ele>291.8</ele>
      </trkpt>
      <trkpt lat="46.60388" lon="4.82089">
        <ele>292.9</ele>
      </trkpt>
      <trkpt lat="46.60369" lon="4.82104">
        <ele>294.3</ele>
      </trkpt>
      <trkpt lat="46.60351" lon="4.82117">
        <ele>295.6</ele>
      </trkpt>
      <trkpt lat="46.60335" lon="4.82129">
        <ele>296.7</ele>
      </trkpt>
      <trkpt lat="46.6032" lon="4.82144">
        <ele>298</ele>
      </trkpt>
      <trkpt lat="46.60312" lon="4.82156">
        <ele>298.6</ele>
      </trkpt>
      <trkpt lat="46.60306" lon="4.82167">
        <ele>298.1</ele>
      </trkpt>
      <trkpt lat="46.603" lon="4.82184">
        <ele>300.4</ele>
      </trkpt>
      <trkpt lat="46.60294" lon="4.82211">
        <ele>302.7</ele>
      </trkpt>
      <trkpt lat="46.60286" lon="4.82237">
        <ele>304.7</ele>
      </trkpt>
      <trkpt lat="46.60275" lon="4.82266">
        <ele>307.6</ele>
      </trkpt>
      <trkpt lat="46.60265" lon="4.82289">
        <ele>311.5</ele>
      </trkpt>
      <trkpt lat="46.60253" lon="4.82312">
        <ele>315.2</ele>
      </trkpt>
      <trkpt lat="46.60241" lon="4.8233">
        <ele>318.2</ele>
      </trkpt>
      <trkpt lat="46.60229" lon="4.82342">
        <ele>318.2</ele>
      </trkpt>
      <trkpt lat="46.60221" lon="4.82349">
        <ele>317.9</ele>
      </trkpt>
      <trkpt lat="46.60218" lon="4.82354">
        <ele>318.6</ele>
      </trkpt>
      <trkpt lat="46.60215" lon="4.82364">
        <ele>319.4</ele>
      </trkpt>
      <trkpt lat="46.60213" lon="4.82373">
        <ele>319.4</ele>
      </trkpt>
      <trkpt lat="46.60213" lon="4.82382">
        <ele>319.7</ele>
      </trkpt>
      <trkpt lat="46.60215" lon="4.82392">
        <ele>320.4</ele>
      </trkpt>
      <trkpt lat="46.60218" lon="4.82401">
        <ele>320.8</ele>
      </trkpt>
      <trkpt lat="46.60222" lon="4.82408">
        <ele>321.3</ele>
      </trkpt>
      <trkpt lat="46.60206" lon="4.82417">
        <ele>319.2</ele>
      </trkpt>
      <trkpt lat="46.60195" lon="4.82425">
        <ele>318.3</ele>
      </trkpt>
      <trkpt lat="46.60187" lon="4.82436">
        <ele>320.3</ele>
      </trkpt>
      <trkpt lat="46.60166" lon="4.82462">
        <ele>322.8</ele>
      </trkpt>
      <trkpt lat="46.60163" lon="4.82463">
        <ele>323.5</ele>
      </trkpt>
      <trkpt lat="46.60152" lon="4.8248">
        <ele>325.4</ele>
      </trkpt>
      <trkpt lat="46.60136" lon="4.82498">
        <ele>329.1</ele>
      </trkpt>
      <trkpt lat="46.60122" lon="4.82509">
        <ele>333.9</ele>
      </trkpt>
      <trkpt lat="46.60102" lon="4.8252">
        <ele>339.2</ele>
      </trkpt>
      <trkpt lat="46.60085" lon="4.82526">
        <ele>342.7</ele>
      </trkpt>
      <trkpt lat="46.60068" lon="4.82525">
        <ele>343.7</ele>
      </trkpt>
      <trkpt lat="46.60052" lon="4.8252">
        <ele>344.6</ele>
      </trkpt>
      <trkpt lat="46.60026" lon="4.82499">
        <ele>346.1</ele>
      </trkpt>
      <trkpt lat="46.59971" lon="4.82454">
        <ele>350.7</ele>
      </trkpt>
      <trkpt lat="46.59921" lon="4.82412">
        <ele>354.8</ele>
      </trkpt>
      <trkpt lat="46.59859" lon="4.82358">
        <ele>358.3</ele>
      </trkpt>
      <trkpt lat="46.59799" lon="4.82311">
        <ele>360</ele>
      </trkpt>
      <trkpt lat="46.59747" lon="4.82273">
        <ele>360.2</ele>
      </trkpt>
      <trkpt lat="46.59711" lon="4.82248">
        <ele>359.8</ele>
      </trkpt>
      <trkpt lat="46.59697" lon="4.8224">
        <ele>359.5</ele>
      </trkpt>
      <trkpt lat="46.59676" lon="4.82231">
        <ele>358.4</ele>
      </trkpt>
      <trkpt lat="46.59654" lon="4.82225">
        <ele>357.5</ele>
      </trkpt>
      <trkpt lat="46.59633" lon="4.8222">
        <ele>356.9</ele>
      </trkpt>
      <trkpt lat="46.59624" lon="4.82218">
        <ele>356.8</ele>
      </trkpt>
      <trkpt lat="46.59593" lon="4.82209">
        <ele>356.6</ele>
      </trkpt>
      <trkpt lat="46.59517" lon="4.82188">
        <ele>354.8</ele>
      </trkpt>
      <trkpt lat="46.59453" lon="4.82173">
        <ele>350.8</ele>
      </trkpt>
      <trkpt lat="46.59401" lon="4.82161">
        <ele>346.8</ele>
      </trkpt>
      <trkpt lat="46.59379" lon="4.82159">
        <ele>345.4</ele>
      </trkpt>
      <trkpt lat="46.59356" lon="4.82161">
        <ele>345</ele>
      </trkpt>
      <trkpt lat="46.59338" lon="4.82191">
        <ele>346.7</ele>
      </trkpt>
      <trkpt lat="46.59328" lon="4.8221">
        <ele>347.7</ele>
      </trkpt>
      <trkpt lat="46.59273" lon="4.82289">
        <ele>355.5</ele>
      </trkpt>
      <trkpt lat="46.59197" lon="4.82377">
        <ele>373.2</ele>
      </trkpt>
      <trkpt lat="46.59179" lon="4.82326">
        <ele>376.3</ele>
      </trkpt>
      <trkpt lat="46.59161" lon="4.8225">
        <ele>379.3</ele>
      </trkpt>
      <trkpt lat="46.59159" lon="4.82202">
        <ele>377.8</ele>
      </trkpt>
      <trkpt lat="46.59162" lon="4.8216">
        <ele>376.2</ele>
      </trkpt>
      <trkpt lat="46.5916" lon="4.82129">
        <ele>376.6</ele>
      </trkpt>
      <trkpt lat="46.59157" lon="4.82108">
        <ele>377.6</ele>
      </trkpt>
      <trkpt lat="46.59153" lon="4.82099">
        <ele>378.4</ele>
      </trkpt>
      <trkpt lat="46.59134" lon="4.82046">
        <ele>380.7</ele>
      </trkpt>
      <trkpt lat="46.59112" lon="4.82009">
        <ele>382</ele>
      </trkpt>
      <trkpt lat="46.59111" lon="4.82007">
        <ele>382</ele>
      </trkpt>
      <trkpt lat="46.59074" lon="4.81966">
        <ele>382.2</ele>
      </trkpt>
      <trkpt lat="46.59047" lon="4.81946">
        <ele>381.7</ele>
      </trkpt>
      <trkpt lat="46.59024" lon="4.8193">
        <ele>381.4</ele>
      </trkpt>
      <trkpt lat="46.58969" lon="4.81901">
        <ele>377</ele>
      </trkpt>
      <trkpt lat="46.58961" lon="4.81897">
        <ele>375.8</ele>
      </trkpt>
      <trkpt lat="46.58923" lon="4.81876">
        <ele>369.7</ele>
      </trkpt>
      <trkpt lat="46.58891" lon="4.81848">
        <ele>363.4</ele>
      </trkpt>
      <trkpt lat="46.58882" lon="4.81837">
        <ele>361.2</ele>
      </trkpt>
      <trkpt lat="46.58875" lon="4.81827">
        <ele>359.2</ele>
      </trkpt>
      <trkpt lat="46.58867" lon="4.81815">
        <ele>356.3</ele>
      </trkpt>
      <trkpt lat="46.58854" lon="4.81794">
        <ele>351.5</ele>
      </trkpt>
      <trkpt lat="46.5885" lon="4.81784">
        <ele>349.9</ele>
      </trkpt>
      <trkpt lat="46.58849" lon="4.81741">
        <ele>346.9</ele>
      </trkpt>
      <trkpt lat="46.58849" lon="4.81671">
        <ele>340.5</ele>
      </trkpt>
      <trkpt lat="46.58848" lon="4.81631">
        <ele>336.2</ele>
      </trkpt>
      <trkpt lat="46.58848" lon="4.81619">
        <ele>335.3</ele>
      </trkpt>
      <trkpt lat="46.58845" lon="4.81575">
        <ele>330.1</ele>
      </trkpt>
      <trkpt lat="46.5884" lon="4.81537">
        <ele>326.9</ele>
      </trkpt>
      <trkpt lat="46.58835" lon="4.81524">
        <ele>325.6</ele>
      </trkpt>
      <trkpt lat="46.58824" lon="4.81501">
        <ele>325.9</ele>
      </trkpt>
      <trkpt lat="46.58812" lon="4.8148">
        <ele>325.3</ele>
      </trkpt>
      <trkpt lat="46.58796" lon="4.81442">
        <ele>324.7</ele>
      </trkpt>
      <trkpt lat="46.58775" lon="4.81394">
        <ele>322.1</ele>
      </trkpt>
      <trkpt lat="46.58771" lon="4.81382">
        <ele>321.9</ele>
      </trkpt>
      <trkpt lat="46.58769" lon="4.81376">
        <ele>321.7</ele>
      </trkpt>
      <trkpt lat="46.58769" lon="4.81366">
        <ele>321.5</ele>
      </trkpt>
      <trkpt lat="46.58768" lon="4.81356">
        <ele>321</ele>
      </trkpt>
      <trkpt lat="46.58768" lon="4.81345">
        <ele>320.3</ele>
      </trkpt>
      <trkpt lat="46.58771" lon="4.81322">
        <ele>319.5</ele>
      </trkpt>
      <trkpt lat="46.58774" lon="4.81279">
        <ele>316.6</ele>
      </trkpt>
      <trkpt lat="46.58777" lon="4.81254">
        <ele>314.3</ele>
      </trkpt>
      <trkpt lat="46.58784" lon="4.81185">
        <ele>307.9</ele>
      </trkpt>
      <trkpt lat="46.58791" lon="4.81119">
        <ele>303.5</ele>
      </trkpt>
      <trkpt lat="46.58796" lon="4.81075">
        <ele>299.9</ele>
      </trkpt>
      <trkpt lat="46.58808" lon="4.81044">
        <ele>297.8</ele>
      </trkpt>
      <trkpt lat="46.58815" lon="4.8102">
        <ele>296.8</ele>
      </trkpt>
      <trkpt lat="46.58821" lon="4.80996">
        <ele>295.3</ele>
      </trkpt>
      <trkpt lat="46.58822" lon="4.80989">
        <ele>295</ele>
      </trkpt>
      <trkpt lat="46.58823" lon="4.8098">
        <ele>294.4</ele>
      </trkpt>
      <trkpt lat="46.58823" lon="4.80966">
        <ele>293.8</ele>
      </trkpt>
      <trkpt lat="46.58823" lon="4.80952">
        <ele>293.3</ele>
      </trkpt>
      <trkpt lat="46.58818" lon="4.80928">
        <ele>291.8</ele>
      </trkpt>
      <trkpt lat="46.5881" lon="4.80898">
        <ele>289.6</ele>
      </trkpt>
      <trkpt lat="46.58806" lon="4.8089">
        <ele>289</ele>
      </trkpt>
      <trkpt lat="46.58802" lon="4.80885">
        <ele>289</ele>
      </trkpt>
      <trkpt lat="46.58804" lon="4.80858">
        <ele>288</ele>
      </trkpt>
      <trkpt lat="46.58809" lon="4.80843">
        <ele>287.2</ele>
      </trkpt>
      <trkpt lat="46.58816" lon="4.80829">
        <ele>286.6</ele>
      </trkpt>
      <trkpt lat="46.58829" lon="4.80811">
        <ele>285.5</ele>
      </trkpt>
      <trkpt lat="46.58851" lon="4.80783">
        <ele>282.6</ele>
      </trkpt>
      <trkpt lat="46.58857" lon="4.80776">
        <ele>281.7</ele>
      </trkpt>
      <trkpt lat="46.58866" lon="4.80764">
        <ele>280.6</ele>
      </trkpt>
      <trkpt lat="46.5888" lon="4.8074">
        <ele>278.5</ele>
      </trkpt>
      <trkpt lat="46.58887" lon="4.80727">
        <ele>276.7</ele>
      </trkpt>
      <trkpt lat="46.58893" lon="4.80715">
        <ele>275.6</ele>
      </trkpt>
      <trkpt lat="46.58905" lon="4.80692">
        <ele>273.7</ele>
      </trkpt>
    </trkseg>
  </trk>
  <trk>
    <name><![CDATA[25 - LA_CRETE_DU_CHEMIN_DES_MOINES - Noir]]></name>
    <extensions>
      <line xmlns="http://www.topografix.com/GPX/gpx_style/0/2">
        <color>470023</color>
        <width>4</width>
      </line>
    </extensions>
    <trkseg>
      <trkpt lat="46.64331" lon="4.86176">
        <ele>222.7</ele>
      </trkpt>
      <trkpt lat="46.64297" lon="4.86169">
        <ele>222.6</ele>
      </trkpt>
      <trkpt lat="46.64251" lon="4.8616">
        <ele>221.3</ele>
      </trkpt>
      <trkpt lat="46.64215" lon="4.86154">
        <ele>221.3</ele>
      </trkpt>
      <trkpt lat="46.64198" lon="4.86152">
        <ele>221.1</ele>
      </trkpt>
      <trkpt lat="46.64181" lon="4.86149">
        <ele>220.8</ele>
      </trkpt>
      <trkpt lat="46.64123" lon="4.86145">
        <ele>220.8</ele>
      </trkpt>
      <trkpt lat="46.64081" lon="4.86148">
        <ele>220.7</ele>
      </trkpt>
      <trkpt lat="46.64066" lon="4.86149">
        <ele>220.6</ele>
      </trkpt>
      <trkpt lat="46.64038" lon="4.86151">
        <ele>220.6</ele>
      </trkpt>
      <trkpt lat="46.64035" lon="4.8615">
        <ele>220.6</ele>
      </trkpt>
      <trkpt lat="46.64014" lon="4.86148">
        <ele>220.7</ele>
      </trkpt>
      <trkpt lat="46.63997" lon="4.86144">
        <ele>220.8</ele>
      </trkpt>
      <trkpt lat="46.63985" lon="4.86139">
        <ele>221</ele>
      </trkpt>
      <trkpt lat="46.63978" lon="4.86135">
        <ele>221.3</ele>
      </trkpt>
      <trkpt lat="46.63946" lon="4.86115">
        <ele>221.9</ele>
      </trkpt>
      <trkpt lat="46.63892" lon="4.86082">
        <ele>223.2</ele>
      </trkpt>
      <trkpt lat="46.6384" lon="4.86067">
        <ele>224.7</ele>
      </trkpt>
      <trkpt lat="46.63791" lon="4.86057">
        <ele>225.4</ele>
      </trkpt>
      <trkpt lat="46.6378" lon="4.86058">
        <ele>225.8</ele>
      </trkpt>
      <trkpt lat="46.63769" lon="4.86061">
        <ele>226</ele>
      </trkpt>
      <trkpt lat="46.63739" lon="4.86074">
        <ele>226.3</ele>
      </trkpt>
      <trkpt lat="46.63728" lon="4.8608">
        <ele>226.1</ele>
      </trkpt>
      <trkpt lat="46.6372" lon="4.86085">
        <ele>226.1</ele>
      </trkpt>
      <trkpt lat="46.63711" lon="4.86088">
        <ele>226.4</ele>
      </trkpt>
      <trkpt lat="46.63698" lon="4.8609">
        <ele>226.7</ele>
      </trkpt>
      <trkpt lat="46.63679" lon="4.86089">
        <ele>226.7</ele>
      </trkpt>
      <trkpt lat="46.63668" lon="4.86086">
        <ele>226.8</ele>
      </trkpt>
      <trkpt lat="46.63664" lon="4.86085">
        <ele>226.7</ele>
      </trkpt>
      <trkpt lat="46.63637" lon="4.86074">
        <ele>225.3</ele>
      </trkpt>
      <trkpt lat="46.63621" lon="4.86069">
        <ele>224.9</ele>
      </trkpt>
      <trkpt lat="46.63615" lon="4.86069">
        <ele>224.7</ele>
      </trkpt>
      <trkpt lat="46.63612" lon="4.86069">
        <ele>224.6</ele>
      </trkpt>
      <trkpt lat="46.63608" lon="4.86068">
        <ele>224.4</ele>
      </trkpt>
      <trkpt lat="46.63588" lon="4.86049">
        <ele>224.4</ele>
      </trkpt>
      <trkpt lat="46.63588" lon="4.86072">
        <ele>223</ele>
      </trkpt>
      <trkpt lat="46.63588" lon="4.86104">
        <ele>221.6</ele>
      </trkpt>
      <trkpt lat="46.63576" lon="4.86097">
        <ele>221.5</ele>
      </trkpt>
      <trkpt lat="46.63561" lon="4.86086">
        <ele>221.9</ele>
      </trkpt>
      <trkpt lat="46.63544" lon="4.86068">
        <ele>222.1</ele>
      </trkpt>
      <trkpt lat="46.63539" lon="4.86066">
        <ele>222</ele>
      </trkpt>
      <trkpt lat="46.63527" lon="4.86076">
        <ele>221.3</ele>
      </trkpt>
      <trkpt lat="46.63522" lon="4.86079">
        <ele>221.2</ele>
      </trkpt>
      <trkpt lat="46.63513" lon="4.8608">
        <ele>221.1</ele>
      </trkpt>
      <trkpt lat="46.63501" lon="4.8608">
        <ele>221.1</ele>
      </trkpt>
      <trkpt lat="46.63496" lon="4.86082">
        <ele>221.2</ele>
      </trkpt>
      <trkpt lat="46.63495" lon="4.86083">
        <ele>221.2</ele>
      </trkpt>
      <trkpt lat="46.6349" lon="4.86089">
        <ele>221.2</ele>
      </trkpt>
      <trkpt lat="46.63467" lon="4.86118">
        <ele>222</ele>
      </trkpt>
      <trkpt lat="46.63443" lon="4.86141">
        <ele>223.1</ele>
      </trkpt>
      <trkpt lat="46.63432" lon="4.86152">
        <ele>224.3</ele>
      </trkpt>
      <trkpt lat="46.6342" lon="4.86127">
        <ele>224.4</ele>
      </trkpt>
      <trkpt lat="46.63407" lon="4.86107">
        <ele>225.3</ele>
      </trkpt>
      <trkpt lat="46.63395" lon="4.86078">
        <ele>225.4</ele>
      </trkpt>
      <trkpt lat="46.63377" lon="4.86019">
        <ele>230.2</ele>
      </trkpt>
      <trkpt lat="46.63375" lon="4.86011">
        <ele>232.1</ele>
      </trkpt>
      <trkpt lat="46.63373" lon="4.86006">
        <ele>233.2</ele>
      </trkpt>
      <trkpt lat="46.63372" lon="4.86002">
        <ele>234.1</ele>
      </trkpt>
      <trkpt lat="46.63369" lon="4.85991">
        <ele>233.5</ele>
      </trkpt>
      <trkpt lat="46.63366" lon="4.8598">
        <ele>232.3</ele>
      </trkpt>
      <trkpt lat="46.63364" lon="4.85971">
        <ele>231.1</ele>
      </trkpt>
      <trkpt lat="46.63359" lon="4.85955">
        <ele>228.7</ele>
      </trkpt>
      <trkpt lat="46.63356" lon="4.85943">
        <ele>228</ele>
      </trkpt>
      <trkpt lat="46.63351" lon="4.85926">
        <ele>228.9</ele>
      </trkpt>
      <trkpt lat="46.63344" lon="4.859">
        <ele>229.3</ele>
      </trkpt>
      <trkpt lat="46.63334" lon="4.85866">
        <ele>229.1</ele>
      </trkpt>
      <trkpt lat="46.63323" lon="4.85842">
        <ele>229.6</ele>
      </trkpt>
      <trkpt lat="46.63315" lon="4.85832">
        <ele>229.9</ele>
      </trkpt>
      <trkpt lat="46.63308" lon="4.85813">
        <ele>230</ele>
      </trkpt>
      <trkpt lat="46.63284" lon="4.85773">
        <ele>231.2</ele>
      </trkpt>
      <trkpt lat="46.6327" lon="4.85751">
        <ele>232.1</ele>
      </trkpt>
      <trkpt lat="46.63257" lon="4.85719">
        <ele>231.4</ele>
      </trkpt>
      <trkpt lat="46.63247" lon="4.85694">
        <ele>231.2</ele>
      </trkpt>
      <trkpt lat="46.63243" lon="4.85684">
        <ele>231.1</ele>
      </trkpt>
      <trkpt lat="46.63234" lon="4.85663">
        <ele>231</ele>
      </trkpt>
      <trkpt lat="46.63215" lon="4.85616">
        <ele>230.5</ele>
      </trkpt>
      <trkpt lat="46.63203" lon="4.85575">
        <ele>230.7</ele>
      </trkpt>
      <trkpt lat="46.63186" lon="4.85567">
        <ele>231.1</ele>
      </trkpt>
      <trkpt lat="46.63181" lon="4.85562">
        <ele>231.1</ele>
      </trkpt>
      <trkpt lat="46.63171" lon="4.8557">
        <ele>231.4</ele>
      </trkpt>
      <trkpt lat="46.63167" lon="4.85577">
        <ele>231.7</ele>
      </trkpt>
      <trkpt lat="46.63163" lon="4.85584">
        <ele>232.4</ele>
      </trkpt>
      <trkpt lat="46.63161" lon="4.85587">
        <ele>232.9</ele>
      </trkpt>
      <trkpt lat="46.63159" lon="4.85588">
        <ele>233.3</ele>
      </trkpt>
      <trkpt lat="46.63154" lon="4.85589">
        <ele>233.8</ele>
      </trkpt>
      <trkpt lat="46.63147" lon="4.85586">
        <ele>234.4</ele>
      </trkpt>
      <trkpt lat="46.63135" lon="4.85581">
        <ele>235.3</ele>
      </trkpt>
      <trkpt lat="46.63119" lon="4.85569">
        <ele>236</ele>
      </trkpt>
      <trkpt lat="46.63111" lon="4.85562">
        <ele>236.5</ele>
      </trkpt>
      <trkpt lat="46.63093" lon="4.85554">
        <ele>237.8</ele>
      </trkpt>
      <trkpt lat="46.63084" lon="4.8555">
        <ele>238.4</ele>
      </trkpt>
      <trkpt lat="46.63078" lon="4.8555">
        <ele>238.9</ele>
      </trkpt>
      <trkpt lat="46.63076" lon="4.8555">
        <ele>239.2</ele>
      </trkpt>
      <trkpt lat="46.63075" lon="4.85551">
        <ele>239.4</ele>
      </trkpt>
      <trkpt lat="46.63075" lon="4.85554">
        <ele>239.7</ele>
      </trkpt>
      <trkpt lat="46.63078" lon="4.85557">
        <ele>239.7</ele>
      </trkpt>
      <trkpt lat="46.63091" lon="4.85569">
        <ele>239.5</ele>
      </trkpt>
      <trkpt lat="46.63102" lon="4.85584">
        <ele>239.5</ele>
      </trkpt>
      <trkpt lat="46.63107" lon="4.85594">
        <ele>240.1</ele>
      </trkpt>
      <trkpt lat="46.63108" lon="4.85601">
        <ele>241</ele>
      </trkpt>
      <trkpt lat="46.63107" lon="4.85606">
        <ele>241.8</ele>
      </trkpt>
      <trkpt lat="46.63105" lon="4.85607">
        <ele>242.4</ele>
      </trkpt>
      <trkpt lat="46.63101" lon="4.85608">
        <ele>243</ele>
      </trkpt>
      <trkpt lat="46.63083" lon="4.85607">
        <ele>245.5</ele>
      </trkpt>
      <trkpt lat="46.63066" lon="4.85604">
        <ele>247.4</ele>
      </trkpt>
      <trkpt lat="46.63053" lon="4.85597">
        <ele>248.3</ele>
      </trkpt>
      <trkpt lat="46.63033" lon="4.85586">
        <ele>248.8</ele>
      </trkpt>
      <trkpt lat="46.63014" lon="4.85576">
        <ele>250.1</ele>
      </trkpt>
      <trkpt lat="46.63004" lon="4.85568">
        <ele>250.4</ele>
      </trkpt>
      <trkpt lat="46.6299" lon="4.8556">
        <ele>250.7</ele>
      </trkpt>
      <trkpt lat="46.62978" lon="4.85557">
        <ele>251.7</ele>
      </trkpt>
      <trkpt lat="46.62969" lon="4.8556">
        <ele>253.1</ele>
      </trkpt>
      <trkpt lat="46.62963" lon="4.85567">
        <ele>255</ele>
      </trkpt>
      <trkpt lat="46.62957" lon="4.8558">
        <ele>257.8</ele>
      </trkpt>
      <trkpt lat="46.62956" lon="4.85594">
        <ele>259.9</ele>
      </trkpt>
      <trkpt lat="46.62961" lon="4.85612">
        <ele>261.6</ele>
      </trkpt>
      <trkpt lat="46.62966" lon="4.85628">
        <ele>263.2</ele>
      </trkpt>
      <trkpt lat="46.62968" lon="4.85639">
        <ele>264.4</ele>
      </trkpt>
      <trkpt lat="46.62963" lon="4.85643">
        <ele>265.3</ele>
      </trkpt>
      <trkpt lat="46.62956" lon="4.85644">
        <ele>266.2</ele>
      </trkpt>
      <trkpt lat="46.62956" lon="4.85658">
        <ele>267.4</ele>
      </trkpt>
      <trkpt lat="46.62948" lon="4.85661">
        <ele>268.3</ele>
      </trkpt>
      <trkpt lat="46.62947" lon="4.85678">
        <ele>269.6</ele>
      </trkpt>
      <trkpt lat="46.62945" lon="4.85689">
        <ele>270.6</ele>
      </trkpt>
      <trkpt lat="46.62937" lon="4.85692">
        <ele>271.3</ele>
      </trkpt>
      <trkpt lat="46.6293" lon="4.85694">
        <ele>272</ele>
      </trkpt>
      <trkpt lat="46.62925" lon="4.85709">
        <ele>272.6</ele>
      </trkpt>
      <trkpt lat="46.62913" lon="4.85704">
        <ele>273</ele>
      </trkpt>
      <trkpt lat="46.62892" lon="4.85697">
        <ele>275</ele>
      </trkpt>
      <trkpt lat="46.62862" lon="4.85688">
        <ele>277.5</ele>
      </trkpt>
      <trkpt lat="46.62808" lon="4.85665">
        <ele>280.7</ele>
      </trkpt>
      <trkpt lat="46.62745" lon="4.85626">
        <ele>284.2</ele>
      </trkpt>
      <trkpt lat="46.62695" lon="4.85589">
        <ele>289.6</ele>
      </trkpt>
      <trkpt lat="46.62684" lon="4.85579">
        <ele>290.2</ele>
      </trkpt>
      <trkpt lat="46.62675" lon="4.85571">
        <ele>290.9</ele>
      </trkpt>
      <trkpt lat="46.62628" lon="4.85535">
        <ele>298</ele>
      </trkpt>
      <trkpt lat="46.62606" lon="4.85513">
        <ele>302.4</ele>
      </trkpt>
      <trkpt lat="46.62585" lon="4.85491">
        <ele>306.4</ele>
      </trkpt>
      <trkpt lat="46.62565" lon="4.85474">
        <ele>308.3</ele>
      </trkpt>
      <trkpt lat="46.62562" lon="4.8547">
        <ele>309</ele>
      </trkpt>
      <trkpt lat="46.62544" lon="4.85454">
        <ele>310.6</ele>
      </trkpt>
      <trkpt lat="46.62525" lon="4.85435">
        <ele>313.4</ele>
      </trkpt>
      <trkpt lat="46.62512" lon="4.85429">
        <ele>314.6</ele>
      </trkpt>
      <trkpt lat="46.62505" lon="4.85425">
        <ele>315.3</ele>
      </trkpt>
      <trkpt lat="46.62496" lon="4.85424">
        <ele>316.1</ele>
      </trkpt>
      <trkpt lat="46.6249" lon="4.85423">
        <ele>316.8</ele>
      </trkpt>
      <trkpt lat="46.62483" lon="4.85419">
        <ele>318.2</ele>
      </trkpt>
      <trkpt lat="46.6247" lon="4.85407">
        <ele>321.6</ele>
      </trkpt>
      <trkpt lat="46.62453" lon="4.85399">
        <ele>324.4</ele>
      </trkpt>
      <trkpt lat="46.62405" lon="4.85369">
        <ele>326.6</ele>
      </trkpt>
      <trkpt lat="46.62383" lon="4.85351">
        <ele>331</ele>
      </trkpt>
      <trkpt lat="46.62379" lon="4.85341">
        <ele>332.8</ele>
      </trkpt>
      <trkpt lat="46.62377" lon="4.85338">
        <ele>333.6</ele>
      </trkpt>
      <trkpt lat="46.62373" lon="4.85322">
        <ele>335.6</ele>
      </trkpt>
      <trkpt lat="46.62372" lon="4.85319">
        <ele>336</ele>
      </trkpt>
      <trkpt lat="46.62368" lon="4.85307">
        <ele>337.4</ele>
      </trkpt>
      <trkpt lat="46.62364" lon="4.853">
        <ele>337.8</ele>
      </trkpt>
      <trkpt lat="46.62359" lon="4.8529">
        <ele>338</ele>
      </trkpt>
      <trkpt lat="46.62352" lon="4.85283">
        <ele>338.3</ele>
      </trkpt>
      <trkpt lat="46.62344" lon="4.85283">
        <ele>338.5</ele>
      </trkpt>
      <trkpt lat="46.62335" lon="4.85286">
        <ele>338.7</ele>
      </trkpt>
      <trkpt lat="46.62325" lon="4.85287">
        <ele>338.1</ele>
      </trkpt>
      <trkpt lat="46.6232" lon="4.85286">
        <ele>337.8</ele>
      </trkpt>
      <trkpt lat="46.6231" lon="4.85282">
        <ele>337.7</ele>
      </trkpt>
      <trkpt lat="46.62299" lon="4.85274">
        <ele>338.1</ele>
      </trkpt>
      <trkpt lat="46.62279" lon="4.85259">
        <ele>339.7</ele>
      </trkpt>
      <trkpt lat="46.62255" lon="4.85248">
        <ele>341.1</ele>
      </trkpt>
      <trkpt lat="46.62222" lon="4.85243">
        <ele>341</ele>
      </trkpt>
      <trkpt lat="46.62163" lon="4.85222">
        <ele>346.9</ele>
      </trkpt>
      <trkpt lat="46.62135" lon="4.85216">
        <ele>346.7</ele>
      </trkpt>
      <trkpt lat="46.62107" lon="4.8521">
        <ele>347.9</ele>
      </trkpt>
      <trkpt lat="46.62094" lon="4.85209">
        <ele>348.8</ele>
      </trkpt>
      <trkpt lat="46.62076" lon="4.85212">
        <ele>349.5</ele>
      </trkpt>
      <trkpt lat="46.62032" lon="4.85223">
        <ele>350.4</ele>
      </trkpt>
      <trkpt lat="46.62015" lon="4.85226">
        <ele>351.1</ele>
      </trkpt>
      <trkpt lat="46.6201" lon="4.85227">
        <ele>351.3</ele>
      </trkpt>
      <trkpt lat="46.62004" lon="4.85228">
        <ele>351.5</ele>
      </trkpt>
      <trkpt lat="46.61996" lon="4.85227">
        <ele>353.4</ele>
      </trkpt>
      <trkpt lat="46.61983" lon="4.85225">
        <ele>356.9</ele>
      </trkpt>
      <trkpt lat="46.61948" lon="4.8522">
        <ele>363.5</ele>
      </trkpt>
      <trkpt lat="46.61907" lon="4.85208">
        <ele>365.9</ele>
      </trkpt>
      <trkpt lat="46.61879" lon="4.85195">
        <ele>367.7</ele>
      </trkpt>
      <trkpt lat="46.61863" lon="4.85184">
        <ele>368.8</ele>
      </trkpt>
      <trkpt lat="46.61852" lon="4.8517">
        <ele>369.3</ele>
      </trkpt>
      <trkpt lat="46.61843" lon="4.85163">
        <ele>369.5</ele>
      </trkpt>
      <trkpt lat="46.61828" lon="4.85157">
        <ele>369.9</ele>
      </trkpt>
      <trkpt lat="46.61792" lon="4.85142">
        <ele>370.6</ele>
      </trkpt>
      <trkpt lat="46.61744" lon="4.85123">
        <ele>371.1</ele>
      </trkpt>
      <trkpt lat="46.61735" lon="4.85122">
        <ele>371.3</ele>
      </trkpt>
      <trkpt lat="46.61726" lon="4.8512">
        <ele>371.5</ele>
      </trkpt>
      <trkpt lat="46.61723" lon="4.8512">
        <ele>371.6</ele>
      </trkpt>
      <trkpt lat="46.61701" lon="4.85119">
        <ele>372.9</ele>
      </trkpt>
      <trkpt lat="46.61675" lon="4.85122">
        <ele>374.1</ele>
      </trkpt>
      <trkpt lat="46.61651" lon="4.85127">
        <ele>374.8</ele>
      </trkpt>
      <trkpt lat="46.61631" lon="4.85129">
        <ele>374.8</ele>
      </trkpt>
      <trkpt lat="46.61624" lon="4.85128">
        <ele>374.7</ele>
      </trkpt>
      <trkpt lat="46.61618" lon="4.85127">
        <ele>374.6</ele>
      </trkpt>
      <trkpt lat="46.61602" lon="4.85123">
        <ele>374.3</ele>
      </trkpt>
      <trkpt lat="46.61591" lon="4.8512">
        <ele>374.3</ele>
      </trkpt>
      <trkpt lat="46.61587" lon="4.85118">
        <ele>374.3</ele>
      </trkpt>
      <trkpt lat="46.61552" lon="4.8509">
        <ele>374.7</ele>
      </trkpt>
      <trkpt lat="46.61526" lon="4.85072">
        <ele>375</ele>
      </trkpt>
      <trkpt lat="46.61499" lon="4.85054">
        <ele>376</ele>
      </trkpt>
      <trkpt lat="46.61481" lon="4.8504">
        <ele>376.5</ele>
      </trkpt>
      <trkpt lat="46.61449" lon="4.85019">
        <ele>378.5</ele>
      </trkpt>
      <trkpt lat="46.61424" lon="4.85008">
        <ele>380.2</ele>
      </trkpt>
      <trkpt lat="46.61405" lon="4.84987">
        <ele>382.1</ele>
      </trkpt>
      <trkpt lat="46.61399" lon="4.84983">
        <ele>382.6</ele>
      </trkpt>
      <trkpt lat="46.61371" lon="4.84965">
        <ele>384.5</ele>
      </trkpt>
      <trkpt lat="46.6137" lon="4.84965">
        <ele>384.6</ele>
      </trkpt>
      <trkpt lat="46.61345" lon="4.84953">
        <ele>384.8</ele>
      </trkpt>
      <trkpt lat="46.61331" lon="4.84949">
        <ele>384.7</ele>
      </trkpt>
      <trkpt lat="46.61329" lon="4.84948">
        <ele>384.6</ele>
      </trkpt>
      <trkpt lat="46.61315" lon="4.84949">
        <ele>383.6</ele>
      </trkpt>
      <trkpt lat="46.61306" lon="4.84955">
        <ele>383</ele>
      </trkpt>
      <trkpt lat="46.61289" lon="4.84978">
        <ele>382.2</ele>
      </trkpt>
      <trkpt lat="46.61281" lon="4.84987">
        <ele>381.6</ele>
      </trkpt>
      <trkpt lat="46.61266" lon="4.84992">
        <ele>380.9</ele>
      </trkpt>
      <trkpt lat="46.61244" lon="4.84986">
        <ele>380.3</ele>
      </trkpt>
      <trkpt lat="46.61224" lon="4.8498">
        <ele>379.8</ele>
      </trkpt>
      <trkpt lat="46.61218" lon="4.84979">
        <ele>379.8</ele>
      </trkpt>
      <trkpt lat="46.61197" lon="4.84967">
        <ele>380</ele>
      </trkpt>
      <trkpt lat="46.61174" lon="4.84942">
        <ele>379.2</ele>
      </trkpt>
      <trkpt lat="46.61161" lon="4.84929">
        <ele>378.3</ele>
      </trkpt>
      <trkpt lat="46.61151" lon="4.84915">
        <ele>377.3</ele>
      </trkpt>
      <trkpt lat="46.61148" lon="4.84909">
        <ele>376.6</ele>
      </trkpt>
      <trkpt lat="46.6114" lon="4.84902">
        <ele>376</ele>
      </trkpt>
      <trkpt lat="46.61097" lon="4.84868">
        <ele>376</ele>
      </trkpt>
      <trkpt lat="46.61053" lon="4.84827">
        <ele>381.6</ele>
      </trkpt>
      <trkpt lat="46.61044" lon="4.84821">
        <ele>383.2</ele>
      </trkpt>
      <trkpt lat="46.61037" lon="4.84815">
        <ele>384.4</ele>
      </trkpt>
      <trkpt lat="46.61022" lon="4.84802">
        <ele>386.8</ele>
      </trkpt>
      <trkpt lat="46.60977" lon="4.84753">
        <ele>394.3</ele>
      </trkpt>
      <trkpt lat="46.60925" lon="4.84697">
        <ele>401.5</ele>
      </trkpt>
      <trkpt lat="46.60922" lon="4.84694">
        <ele>401.8</ele>
      </trkpt>
      <trkpt lat="46.60919" lon="4.84689">
        <ele>402.3</ele>
      </trkpt>
      <trkpt lat="46.60916" lon="4.8468">
        <ele>403</ele>
      </trkpt>
      <trkpt lat="46.60916" lon="4.84675">
        <ele>403.4</ele>
      </trkpt>
      <trkpt lat="46.60872" lon="4.84673">
        <ele>402.9</ele>
      </trkpt>
      <trkpt lat="46.60845" lon="4.84664">
        <ele>402.7</ele>
      </trkpt>
      <trkpt lat="46.60837" lon="4.84635">
        <ele>405.5</ele>
      </trkpt>
      <trkpt lat="46.60823" lon="4.84596">
        <ele>409.3</ele>
      </trkpt>
      <trkpt lat="46.60798" lon="4.84566">
        <ele>412.1</ele>
      </trkpt>
      <trkpt lat="46.60763" lon="4.84524">
        <ele>416.4</ele>
      </trkpt>
      <trkpt lat="46.60743" lon="4.84486">
        <ele>420.5</ele>
      </trkpt>
      <trkpt lat="46.60725" lon="4.84452">
        <ele>423.3</ele>
      </trkpt>
      <trkpt lat="46.60691" lon="4.84342">
        <ele>435.9</ele>
      </trkpt>
      <trkpt lat="46.60681" lon="4.84326">
        <ele>437.2</ele>
      </trkpt>
      <trkpt lat="46.60654" lon="4.84294">
        <ele>439.5</ele>
      </trkpt>
      <trkpt lat="46.60595" lon="4.84252">
        <ele>442.1</ele>
      </trkpt>
      <trkpt lat="46.60599" lon="4.84189">
        <ele>450.1</ele>
      </trkpt>
      <trkpt lat="46.60517" lon="4.8409">
        <ele>454.9</ele>
      </trkpt>
      <trkpt lat="46.60508" lon="4.84069">
        <ele>455</ele>
      </trkpt>
      <trkpt lat="46.605" lon="4.84046">
        <ele>455</ele>
      </trkpt>
      <trkpt lat="46.60494" lon="4.84009">
        <ele>455.5</ele>
      </trkpt>
      <trkpt lat="46.60492" lon="4.83964">
        <ele>453.8</ele>
      </trkpt>
      <trkpt lat="46.60493" lon="4.83985">
        <ele>455.1</ele>
      </trkpt>
      <trkpt lat="46.60492" lon="4.83964">
        <ele>453.8</ele>
      </trkpt>
      <trkpt lat="46.60482" lon="4.83955">
        <ele>454.2</ele>
      </trkpt>
      <trkpt lat="46.6048" lon="4.83954">
        <ele>454.4</ele>
      </trkpt>
      <trkpt lat="46.6048" lon="4.83954">
        <ele>454.5</ele>
      </trkpt>
      <trkpt lat="46.60404" lon="4.83919">
        <ele>459.1</ele>
      </trkpt>
      <trkpt lat="46.60325" lon="4.83879">
        <ele>460.5</ele>
      </trkpt>
      <trkpt lat="46.6025" lon="4.83837">
        <ele>462</ele>
      </trkpt>
      <trkpt lat="46.6023" lon="4.83824">
        <ele>462.3</ele>
      </trkpt>
      <trkpt lat="46.60195" lon="4.83802">
        <ele>462.7</ele>
      </trkpt>
      <trkpt lat="46.60195" lon="4.83801">
        <ele>462.7</ele>
      </trkpt>
      <trkpt lat="46.60117" lon="4.83742">
        <ele>463.2</ele>
      </trkpt>
      <trkpt lat="46.60097" lon="4.83731">
        <ele>464.2</ele>
      </trkpt>
      <trkpt lat="46.60093" lon="4.83729">
        <ele>464.4</ele>
      </trkpt>
      <trkpt lat="46.60069" lon="4.83716">
        <ele>464.9</ele>
      </trkpt>
      <trkpt lat="46.60037" lon="4.83692">
        <ele>465</ele>
      </trkpt>
      <trkpt lat="46.60002" lon="4.83677">
        <ele>466.5</ele>
      </trkpt>
      <trkpt lat="46.59982" lon="4.83672">
        <ele>467.6</ele>
      </trkpt>
      <trkpt lat="46.59952" lon="4.83668">
        <ele>468</ele>
      </trkpt>
      <trkpt lat="46.59883" lon="4.83666">
        <ele>465.8</ele>
      </trkpt>
      <trkpt lat="46.59856" lon="4.8366">
        <ele>464.8</ele>
      </trkpt>
      <trkpt lat="46.59814" lon="4.83644">
        <ele>462.7</ele>
      </trkpt>
      <trkpt lat="46.59777" lon="4.83621">
        <ele>460.4</ele>
      </trkpt>
      <trkpt lat="46.59761" lon="4.8361">
        <ele>461.2</ele>
      </trkpt>
      <trkpt lat="46.59735" lon="4.83593">
        <ele>462.9</ele>
      </trkpt>
      <trkpt lat="46.59678" lon="4.83547">
        <ele>466.8</ele>
      </trkpt>
      <trkpt lat="46.59578" lon="4.83459">
        <ele>472.3</ele>
      </trkpt>
      <trkpt lat="46.59562" lon="4.83439">
        <ele>472.6</ele>
      </trkpt>
      <trkpt lat="46.59536" lon="4.83406">
        <ele>473.2</ele>
      </trkpt>
      <trkpt lat="46.5952" lon="4.83387">
        <ele>473.8</ele>
      </trkpt>
      <trkpt lat="46.5951" lon="4.83381">
        <ele>473.4</ele>
      </trkpt>
      <trkpt lat="46.59487" lon="4.83372">
        <ele>472.5</ele>
      </trkpt>
      <trkpt lat="46.59469" lon="4.83367">
        <ele>471.9</ele>
      </trkpt>
      <trkpt lat="46.59436" lon="4.83351">
        <ele>471</ele>
      </trkpt>
      <trkpt lat="46.5941" lon="4.8334">
        <ele>470.1</ele>
      </trkpt>
      <trkpt lat="46.59391" lon="4.83334">
        <ele>468.2</ele>
      </trkpt>
      <trkpt lat="46.59373" lon="4.83332">
        <ele>466.9</ele>
      </trkpt>
      <trkpt lat="46.59354" lon="4.83331">
        <ele>465.3</ele>
      </trkpt>
      <trkpt lat="46.59344" lon="4.83328">
        <ele>464.3</ele>
      </trkpt>
      <trkpt lat="46.59332" lon="4.83321">
        <ele>463.3</ele>
      </trkpt>
      <trkpt lat="46.59304" lon="4.83294">
        <ele>461.8</ele>
      </trkpt>
      <trkpt lat="46.59276" lon="4.83262">
        <ele>458.8</ele>
      </trkpt>
      <trkpt lat="46.59259" lon="4.8324">
        <ele>457.7</ele>
      </trkpt>
      <trkpt lat="46.59245" lon="4.83223">
        <ele>456.4</ele>
      </trkpt>
      <trkpt lat="46.59225" lon="4.83206">
        <ele>454.8</ele>
      </trkpt>
      <trkpt lat="46.59204" lon="4.83189">
        <ele>452.9</ele>
      </trkpt>
      <trkpt lat="46.59182" lon="4.83175">
        <ele>451.1</ele>
      </trkpt>
      <trkpt lat="46.59159" lon="4.83164">
        <ele>449.3</ele>
      </trkpt>
      <trkpt lat="46.59142" lon="4.83157">
        <ele>447.9</ele>
      </trkpt>
      <trkpt lat="46.59136" lon="4.83154">
        <ele>447.4</ele>
      </trkpt>
      <trkpt lat="46.59131" lon="4.83153">
        <ele>447.1</ele>
      </trkpt>
      <trkpt lat="46.59084" lon="4.8313">
        <ele>446</ele>
      </trkpt>
      <trkpt lat="46.59049" lon="4.83113">
        <ele>446.1</ele>
      </trkpt>
      <trkpt lat="46.59049" lon="4.83102">
        <ele>446.3</ele>
      </trkpt>
      <trkpt lat="46.59036" lon="4.83101">
        <ele>447</ele>
      </trkpt>
      <trkpt lat="46.59023" lon="4.83096">
        <ele>448.2</ele>
      </trkpt>
      <trkpt lat="46.59021" lon="4.83095">
        <ele>448.5</ele>
      </trkpt>
      <trkpt lat="46.59018" lon="4.83093">
        <ele>449.1</ele>
      </trkpt>
      <trkpt lat="46.5901" lon="4.83087">
        <ele>450.4</ele>
      </trkpt>
      <trkpt lat="46.58989" lon="4.83071">
        <ele>455.4</ele>
      </trkpt>
      <trkpt lat="46.58942" lon="4.8299">
        <ele>470.9</ele>
      </trkpt>
      <trkpt lat="46.58873" lon="4.8287">
        <ele>485.5</ele>
      </trkpt>
      <trkpt lat="46.58763" lon="4.82737">
        <ele>496.1</ele>
      </trkpt>
      <trkpt lat="46.58742" lon="4.82714">
        <ele>495.8</ele>
      </trkpt>
      <trkpt lat="46.58664" lon="4.82632">
        <ele>496.8</ele>
      </trkpt>
      <trkpt lat="46.58633" lon="4.826">
        <ele>496.2</ele>
      </trkpt>
      <trkpt lat="46.58593" lon="4.82559">
        <ele>495.1</ele>
      </trkpt>
      <trkpt lat="46.58415" lon="4.8237">
        <ele>490.2</ele>
      </trkpt>
      <trkpt lat="46.5841" lon="4.82363">
        <ele>489.6</ele>
      </trkpt>
      <trkpt lat="46.58328" lon="4.82272">
        <ele>482.4</ele>
      </trkpt>
      <trkpt lat="46.58246" lon="4.82119">
        <ele>479.3</ele>
      </trkpt>
      <trkpt lat="46.58232" lon="4.82092">
        <ele>480.3</ele>
      </trkpt>
      <trkpt lat="46.58128" lon="4.8193">
        <ele>482.7</ele>
      </trkpt>
      <trkpt lat="46.58065" lon="4.81876">
        <ele>481.3</ele>
      </trkpt>
      <trkpt lat="46.57994" lon="4.81869">
        <ele>476.7</ele>
      </trkpt>
      <trkpt lat="46.57982" lon="4.81867">
        <ele>476.1</ele>
      </trkpt>
      <trkpt lat="46.57975" lon="4.81867">
        <ele>475.7</ele>
      </trkpt>
      <trkpt lat="46.57973" lon="4.81867">
        <ele>475.6</ele>
      </trkpt>
      <trkpt lat="46.57967" lon="4.81868">
        <ele>474.7</ele>
      </trkpt>
      <trkpt lat="46.5796" lon="4.81867">
        <ele>473.9</ele>
      </trkpt>
      <trkpt lat="46.57952" lon="4.81861">
        <ele>473.1</ele>
      </trkpt>
      <trkpt lat="46.5794" lon="4.81851">
        <ele>470.9</ele>
      </trkpt>
      <trkpt lat="46.57938" lon="4.81849">
        <ele>470.5</ele>
      </trkpt>
      <trkpt lat="46.5793" lon="4.81843">
        <ele>469.1</ele>
      </trkpt>
      <trkpt lat="46.57915" lon="4.81837">
        <ele>466.6</ele>
      </trkpt>
      <trkpt lat="46.57923" lon="4.81793">
        <ele>462</ele>
      </trkpt>
      <trkpt lat="46.57923" lon="4.8179">
        <ele>461.3</ele>
      </trkpt>
      <trkpt lat="46.57813" lon="4.81782">
        <ele>450.9</ele>
      </trkpt>
      <trkpt lat="46.57695" lon="4.81749">
        <ele>448.9</ele>
      </trkpt>
      <trkpt lat="46.57584" lon="4.81695">
        <ele>448</ele>
      </trkpt>
      <trkpt lat="46.57543" lon="4.8168">
        <ele>449.1</ele>
      </trkpt>
      <trkpt lat="46.57493" lon="4.81662">
        <ele>450</ele>
      </trkpt>
      <trkpt lat="46.5745" lon="4.81647">
        <ele>452</ele>
      </trkpt>
      <trkpt lat="46.5736" lon="4.81583">
        <ele>450</ele>
      </trkpt>
      <trkpt lat="46.57311" lon="4.81559">
        <ele>449.1</ele>
      </trkpt>
      <trkpt lat="46.57254" lon="4.8153">
        <ele>447</ele>
      </trkpt>
      <trkpt lat="46.5715" lon="4.81448">
        <ele>438.4</ele>
      </trkpt>
      <trkpt lat="46.57088" lon="4.81395">
        <ele>436.5</ele>
      </trkpt>
      <trkpt lat="46.57036" lon="4.8138">
        <ele>438.1</ele>
      </trkpt>
      <trkpt lat="46.56997" lon="4.81377">
        <ele>436.9</ele>
      </trkpt>
      <trkpt lat="46.56986" lon="4.81375">
        <ele>435.7</ele>
      </trkpt>
      <trkpt lat="46.56955" lon="4.81375">
        <ele>431.5</ele>
      </trkpt>
      <trkpt lat="46.56952" lon="4.81375">
        <ele>430.9</ele>
      </trkpt>
      <trkpt lat="46.56918" lon="4.81393">
        <ele>427.3</ele>
      </trkpt>
      <trkpt lat="46.56893" lon="4.81406">
        <ele>424</ele>
      </trkpt>
      <trkpt lat="46.56885" lon="4.81411">
        <ele>422.8</ele>
      </trkpt>
      <trkpt lat="46.56877" lon="4.81416">
        <ele>421.3</ele>
      </trkpt>
      <trkpt lat="46.56872" lon="4.81421">
        <ele>420.3</ele>
      </trkpt>
      <trkpt lat="46.56867" lon="4.81429">
        <ele>419.1</ele>
      </trkpt>
      <trkpt lat="46.5686" lon="4.81446">
        <ele>417.7</ele>
      </trkpt>
      <trkpt lat="46.56855" lon="4.81457">
        <ele>415.9</ele>
      </trkpt>
      <trkpt lat="46.56854" lon="4.8148">
        <ele>413.9</ele>
      </trkpt>
      <trkpt lat="46.56855" lon="4.81491">
        <ele>412.7</ele>
      </trkpt>
      <trkpt lat="46.56856" lon="4.81504">
        <ele>411.7</ele>
      </trkpt>
      <trkpt lat="46.56857" lon="4.81518">
        <ele>411.2</ele>
      </trkpt>
      <trkpt lat="46.56861" lon="4.81535">
        <ele>411.2</ele>
      </trkpt>
      <trkpt lat="46.5686" lon="4.81542">
        <ele>411.5</ele>
      </trkpt>
      <trkpt lat="46.56858" lon="4.81549">
        <ele>411.7</ele>
      </trkpt>
      <trkpt lat="46.56855" lon="4.81561">
        <ele>412.4</ele>
      </trkpt>
      <trkpt lat="46.56851" lon="4.81566">
        <ele>412.9</ele>
      </trkpt>
      <trkpt lat="46.56816" lon="4.81538">
        <ele>410.9</ele>
      </trkpt>
      <trkpt lat="46.56815" lon="4.81538">
        <ele>411</ele>
      </trkpt>
      <trkpt lat="46.56782" lon="4.81543">
        <ele>413.1</ele>
      </trkpt>
      <trkpt lat="46.56755" lon="4.81549">
        <ele>414.5</ele>
      </trkpt>
      <trkpt lat="46.56716" lon="4.81533">
        <ele>413.2</ele>
      </trkpt>
      <trkpt lat="46.5666" lon="4.81511">
        <ele>413</ele>
      </trkpt>
      <trkpt lat="46.56607" lon="4.8149">
        <ele>412</ele>
      </trkpt>
      <trkpt lat="46.56554" lon="4.8147">
        <ele>411</ele>
      </trkpt>
      <trkpt lat="46.56513" lon="4.81453">
        <ele>411</ele>
      </trkpt>
      <trkpt lat="46.56488" lon="4.81442">
        <ele>411.3</ele>
      </trkpt>
      <trkpt lat="46.56477" lon="4.81437">
        <ele>411.6</ele>
      </trkpt>
      <trkpt lat="46.56446" lon="4.81423">
        <ele>412</ele>
      </trkpt>
      <trkpt lat="46.56442" lon="4.81422">
        <ele>412.1</ele>
      </trkpt>
      <trkpt lat="46.56417" lon="4.81414">
        <ele>413</ele>
      </trkpt>
      <trkpt lat="46.56389" lon="4.81406">
        <ele>413</ele>
      </trkpt>
      <trkpt lat="46.56362" lon="4.814">
        <ele>413</ele>
      </trkpt>
      <trkpt lat="46.56344" lon="4.81398">
        <ele>412.8</ele>
      </trkpt>
      <trkpt lat="46.56338" lon="4.81397">
        <ele>412.8</ele>
      </trkpt>
      <trkpt lat="46.56301" lon="4.81389">
        <ele>411.9</ele>
      </trkpt>
      <trkpt lat="46.56259" lon="4.81378">
        <ele>410</ele>
      </trkpt>
      <trkpt lat="46.56238" lon="4.81374">
        <ele>409.1</ele>
      </trkpt>
      <trkpt lat="46.56231" lon="4.81372">
        <ele>408.9</ele>
      </trkpt>
      <trkpt lat="46.56216" lon="4.8137">
        <ele>408.3</ele>
      </trkpt>
      <trkpt lat="46.56213" lon="4.81369">
        <ele>408.1</ele>
      </trkpt>
      <trkpt lat="46.56177" lon="4.81374">
        <ele>406.4</ele>
      </trkpt>
      <trkpt lat="46.56151" lon="4.81378">
        <ele>406</ele>
      </trkpt>
      <trkpt lat="46.56131" lon="4.81381">
        <ele>406.5</ele>
      </trkpt>
      <trkpt lat="46.56108" lon="4.81382">
        <ele>407.9</ele>
      </trkpt>
      <trkpt lat="46.56093" lon="4.81379">
        <ele>409</ele>
      </trkpt>
      <trkpt lat="46.56074" lon="4.81369">
        <ele>410</ele>
      </trkpt>
      <trkpt lat="46.56059" lon="4.81362">
        <ele>410.8</ele>
      </trkpt>
      <trkpt lat="46.55996" lon="4.81328">
        <ele>411</ele>
      </trkpt>
      <trkpt lat="46.55988" lon="4.81325">
        <ele>411.1</ele>
      </trkpt>
      <trkpt lat="46.55923" lon="4.81294">
        <ele>410.1</ele>
      </trkpt>
      <trkpt lat="46.55872" lon="4.81244">
        <ele>408.3</ele>
      </trkpt>
      <trkpt lat="46.55848" lon="4.81237">
        <ele>407.7</ele>
      </trkpt>
      <trkpt lat="46.55821" lon="4.81218">
        <ele>407.1</ele>
      </trkpt>
      <trkpt lat="46.55776" lon="4.8115">
        <ele>406.5</ele>
      </trkpt>
      <trkpt lat="46.55752" lon="4.81131">
        <ele>406.1</ele>
      </trkpt>
      <trkpt lat="46.55722" lon="4.81116">
        <ele>404.8</ele>
      </trkpt>
      <trkpt lat="46.55702" lon="4.81108">
        <ele>403.8</ele>
      </trkpt>
      <trkpt lat="46.5568" lon="4.81094">
        <ele>403.4</ele>
      </trkpt>
      <trkpt lat="46.55658" lon="4.81082">
        <ele>402.8</ele>
      </trkpt>
      <trkpt lat="46.55654" lon="4.81077">
        <ele>402.8</ele>
      </trkpt>
      <trkpt lat="46.55644" lon="4.81067">
        <ele>402.8</ele>
      </trkpt>
      <trkpt lat="46.55618" lon="4.81048">
        <ele>402.5</ele>
      </trkpt>
      <trkpt lat="46.5558" lon="4.81029">
        <ele>402.8</ele>
      </trkpt>
      <trkpt lat="46.55566" lon="4.81019">
        <ele>402.7</ele>
      </trkpt>
      <trkpt lat="46.5554" lon="4.80994">
        <ele>403.2</ele>
      </trkpt>
      <trkpt lat="46.555" lon="4.80958">
        <ele>404</ele>
      </trkpt>
      <trkpt lat="46.55478" lon="4.8094">
        <ele>404</ele>
      </trkpt>
      <trkpt lat="46.55455" lon="4.80928">
        <ele>404</ele>
      </trkpt>
      <trkpt lat="46.55433" lon="4.80921">
        <ele>404</ele>
      </trkpt>
      <trkpt lat="46.55419" lon="4.8092">
        <ele>404</ele>
      </trkpt>
      <trkpt lat="46.55386" lon="4.80903">
        <ele>404.1</ele>
      </trkpt>
      <trkpt lat="46.55285" lon="4.80845">
        <ele>407.4</ele>
      </trkpt>
      <trkpt lat="46.55267" lon="4.80837">
        <ele>408.5</ele>
      </trkpt>
      <trkpt lat="46.55241" lon="4.80829">
        <ele>409.7</ele>
      </trkpt>
      <trkpt lat="46.55212" lon="4.80823">
        <ele>409.3</ele>
      </trkpt>
      <trkpt lat="46.55172" lon="4.80815">
        <ele>408.1</ele>
      </trkpt>
      <trkpt lat="46.55138" lon="4.80793">
        <ele>406.9</ele>
      </trkpt>
      <trkpt lat="46.55107" lon="4.8077">
        <ele>404.5</ele>
      </trkpt>
      <trkpt lat="46.55093" lon="4.80759">
        <ele>403.4</ele>
      </trkpt>
      <trkpt lat="46.5505" lon="4.80728">
        <ele>399.8</ele>
      </trkpt>
      <trkpt lat="46.55015" lon="4.80705">
        <ele>397.5</ele>
      </trkpt>
      <trkpt lat="46.54991" lon="4.80686">
        <ele>396.8</ele>
      </trkpt>
      <trkpt lat="46.54975" lon="4.80674">
        <ele>396.9</ele>
      </trkpt>
      <trkpt lat="46.54973" lon="4.80673">
        <ele>397</ele>
      </trkpt>
      <trkpt lat="46.54956" lon="4.80661">
        <ele>396.8</ele>
      </trkpt>
      <trkpt lat="46.54942" lon="4.80651">
        <ele>396.9</ele>
      </trkpt>
      <trkpt lat="46.54905" lon="4.80625">
        <ele>395.3</ele>
      </trkpt>
      <trkpt lat="46.54868" lon="4.80599">
        <ele>394</ele>
      </trkpt>
      <trkpt lat="46.5482" lon="4.80566">
        <ele>392.2</ele>
      </trkpt>
      <trkpt lat="46.548" lon="4.8055">
        <ele>391.3</ele>
      </trkpt>
      <trkpt lat="46.54785" lon="4.80537">
        <ele>390.3</ele>
      </trkpt>
      <trkpt lat="46.54778" lon="4.80531">
        <ele>390.1</ele>
      </trkpt>
      <trkpt lat="46.5477" lon="4.80526">
        <ele>389.8</ele>
      </trkpt>
      <trkpt lat="46.54725" lon="4.80491">
        <ele>388.6</ele>
      </trkpt>
      <trkpt lat="46.5471" lon="4.8048">
        <ele>388.3</ele>
      </trkpt>
      <trkpt lat="46.54663" lon="4.80445">
        <ele>388</ele>
      </trkpt>
      <trkpt lat="46.54618" lon="4.80415">
        <ele>388</ele>
      </trkpt>
      <trkpt lat="46.54593" lon="4.80392">
        <ele>388.1</ele>
      </trkpt>
      <trkpt lat="46.54557" lon="4.80359">
        <ele>387.9</ele>
      </trkpt>
      <trkpt lat="46.54549" lon="4.80354">
        <ele>387.7</ele>
      </trkpt>
      <trkpt lat="46.54544" lon="4.80352">
        <ele>387.7</ele>
      </trkpt>
      <trkpt lat="46.54534" lon="4.80349">
        <ele>387.6</ele>
      </trkpt>
      <trkpt lat="46.54523" lon="4.80346">
        <ele>387.3</ele>
      </trkpt>
      <trkpt lat="46.5452" lon="4.80344">
        <ele>387.1</ele>
      </trkpt>
      <trkpt lat="46.54514" lon="4.80336">
        <ele>386.6</ele>
      </trkpt>
      <trkpt lat="46.54499" lon="4.80319">
        <ele>385.9</ele>
      </trkpt>
      <trkpt lat="46.54487" lon="4.80305">
        <ele>385.1</ele>
      </trkpt>
      <trkpt lat="46.54481" lon="4.80299">
        <ele>384.7</ele>
      </trkpt>
      <trkpt lat="46.54475" lon="4.80294">
        <ele>384.5</ele>
      </trkpt>
      <trkpt lat="46.54462" lon="4.80286">
        <ele>383.6</ele>
      </trkpt>
      <trkpt lat="46.54438" lon="4.80265">
        <ele>381.6</ele>
      </trkpt>
      <trkpt lat="46.54402" lon="4.80236">
        <ele>378.6</ele>
      </trkpt>
      <trkpt lat="46.54374" lon="4.80213">
        <ele>375.5</ele>
      </trkpt>
      <trkpt lat="46.54363" lon="4.80207">
        <ele>374.3</ele>
      </trkpt>
      <trkpt lat="46.54365" lon="4.8018">
        <ele>375</ele>
      </trkpt>
      <trkpt lat="46.54369" lon="4.80159">
        <ele>375.8</ele>
      </trkpt>
      <trkpt lat="46.54373" lon="4.80139">
        <ele>375.6</ele>
      </trkpt>
      <trkpt lat="46.54374" lon="4.80127">
        <ele>375.2</ele>
      </trkpt>
      <trkpt lat="46.54375" lon="4.80098">
        <ele>373.9</ele>
      </trkpt>
      <trkpt lat="46.54378" lon="4.80072">
        <ele>372</ele>
      </trkpt>
      <trkpt lat="46.54381" lon="4.8006">
        <ele>370.8</ele>
      </trkpt>
      <trkpt lat="46.54387" lon="4.80046">
        <ele>369.4</ele>
      </trkpt>
      <trkpt lat="46.54397" lon="4.80032">
        <ele>368.2</ele>
      </trkpt>
      <trkpt lat="46.544" lon="4.80029">
        <ele>368</ele>
      </trkpt>
      <trkpt lat="46.54411" lon="4.80016">
        <ele>365.9</ele>
      </trkpt>
      <trkpt lat="46.54425" lon="4.79997">
        <ele>363.4</ele>
      </trkpt>
      <trkpt lat="46.54431" lon="4.79987">
        <ele>363.1</ele>
      </trkpt>
      <trkpt lat="46.54431" lon="4.79984">
        <ele>362.8</ele>
      </trkpt>
      <trkpt lat="46.5443" lon="4.7998">
        <ele>362.5</ele>
      </trkpt>
      <trkpt lat="46.54488" lon="4.80022">
        <ele>366</ele>
      </trkpt>
      <trkpt lat="46.54524" lon="4.80042">
        <ele>366.7</ele>
      </trkpt>
      <trkpt lat="46.54554" lon="4.80054">
        <ele>365</ele>
      </trkpt>
      <trkpt lat="46.54589" lon="4.80073">
        <ele>360.1</ele>
      </trkpt>
      <trkpt lat="46.54638" lon="4.8011">
        <ele>351.2</ele>
      </trkpt>
      <trkpt lat="46.54657" lon="4.80127">
        <ele>347.4</ele>
      </trkpt>
      <trkpt lat="46.54671" lon="4.80139">
        <ele>344.9</ele>
      </trkpt>
      <trkpt lat="46.54685" lon="4.80142">
        <ele>341.1</ele>
      </trkpt>
      <trkpt lat="46.54699" lon="4.80129">
        <ele>336.5</ele>
      </trkpt>
      <trkpt lat="46.54708" lon="4.80109">
        <ele>333.6</ele>
      </trkpt>
      <trkpt lat="46.54714" lon="4.8005">
        <ele>331.4</ele>
      </trkpt>
      <trkpt lat="46.54732" lon="4.80024">
        <ele>326.1</ele>
      </trkpt>
      <trkpt lat="46.54777" lon="4.79986">
        <ele>313.7</ele>
      </trkpt>
      <trkpt lat="46.54786" lon="4.79979">
        <ele>312</ele>
      </trkpt>
      <trkpt lat="46.54841" lon="4.79941">
        <ele>304.9</ele>
      </trkpt>
      <trkpt lat="46.54905" lon="4.79851">
        <ele>300.4</ele>
      </trkpt>
      <trkpt lat="46.54948" lon="4.79828">
        <ele>292.3</ele>
      </trkpt>
      <trkpt lat="46.54965" lon="4.79836">
        <ele>289.6</ele>
      </trkpt>
      <trkpt lat="46.54971" lon="4.79834">
        <ele>288.5</ele>
      </trkpt>
      <trkpt lat="46.54974" lon="4.79832">
        <ele>288.2</ele>
      </trkpt>
      <trkpt lat="46.54986" lon="4.79821">
        <ele>288.2</ele>
      </trkpt>
      <trkpt lat="46.54993" lon="4.79828">
        <ele>289.4</ele>
      </trkpt>
      <trkpt lat="46.55001" lon="4.7983">
        <ele>290.4</ele>
      </trkpt>
      <trkpt lat="46.55008" lon="4.79829">
        <ele>292.3</ele>
      </trkpt>
      <trkpt lat="46.55014" lon="4.79825">
        <ele>292.8</ele>
      </trkpt>
      <trkpt lat="46.5502" lon="4.79819">
        <ele>292.8</ele>
      </trkpt>
      <trkpt lat="46.55028" lon="4.79806">
        <ele>291.2</ele>
      </trkpt>
      <trkpt lat="46.55033" lon="4.79798">
        <ele>291.4</ele>
      </trkpt>
      <trkpt lat="46.55035" lon="4.79796">
        <ele>291.3</ele>
      </trkpt>
      <trkpt lat="46.55044" lon="4.79781">
        <ele>290.5</ele>
      </trkpt>
      <trkpt lat="46.55053" lon="4.79766">
        <ele>290.3</ele>
      </trkpt>
      <trkpt lat="46.55059" lon="4.79756">
        <ele>290</ele>
      </trkpt>
      <trkpt lat="46.55066" lon="4.79745">
        <ele>289.3</ele>
      </trkpt>
      <trkpt lat="46.55071" lon="4.79742">
        <ele>290</ele>
      </trkpt>
      <trkpt lat="46.55136" lon="4.79679">
        <ele>293.3</ele>
      </trkpt>
      <trkpt lat="46.55175" lon="4.79656">
        <ele>296.5</ele>
      </trkpt>
      <trkpt lat="46.55211" lon="4.79642">
        <ele>298.1</ele>
      </trkpt>
      <trkpt lat="46.55276" lon="4.79639">
        <ele>305.8</ele>
      </trkpt>
      <trkpt lat="46.55375" lon="4.79647">
        <ele>305.8</ele>
      </trkpt>
      <trkpt lat="46.55453" lon="4.79657">
        <ele>301.9</ele>
      </trkpt>
      <trkpt lat="46.55497" lon="4.79671">
        <ele>300.7</ele>
      </trkpt>
      <trkpt lat="46.55522" lon="4.79682">
        <ele>300</ele>
      </trkpt>
      <trkpt lat="46.55539" lon="4.79687">
        <ele>299.4</ele>
      </trkpt>
      <trkpt lat="46.55555" lon="4.79692">
        <ele>298.8</ele>
      </trkpt>
      <trkpt lat="46.55577" lon="4.79699">
        <ele>297.9</ele>
      </trkpt>
      <trkpt lat="46.55587" lon="4.797">
        <ele>297.3</ele>
      </trkpt>
      <trkpt lat="46.55601" lon="4.79701">
        <ele>296.5</ele>
      </trkpt>
      <trkpt lat="46.55607" lon="4.79701">
        <ele>296</ele>
      </trkpt>
      <trkpt lat="46.55614" lon="4.797">
        <ele>295.4</ele>
      </trkpt>
      <trkpt lat="46.55624" lon="4.797">
        <ele>294.6</ele>
      </trkpt>
      <trkpt lat="46.55639" lon="4.79703">
        <ele>293.6</ele>
      </trkpt>
      <trkpt lat="46.55648" lon="4.79704">
        <ele>293.3</ele>
      </trkpt>
      <trkpt lat="46.55659" lon="4.79704">
        <ele>293</ele>
      </trkpt>
      <trkpt lat="46.55675" lon="4.79705">
        <ele>292.1</ele>
      </trkpt>
      <trkpt lat="46.55687" lon="4.79706">
        <ele>291.4</ele>
      </trkpt>
      <trkpt lat="46.55701" lon="4.79707">
        <ele>290.4</ele>
      </trkpt>
      <trkpt lat="46.55711" lon="4.79706">
        <ele>289.6</ele>
      </trkpt>
      <trkpt lat="46.55721" lon="4.79704">
        <ele>288.8</ele>
      </trkpt>
      <trkpt lat="46.55734" lon="4.79698">
        <ele>287.8</ele>
      </trkpt>
      <trkpt lat="46.5574" lon="4.79694">
        <ele>287.4</ele>
      </trkpt>
      <trkpt lat="46.55737" lon="4.79703">
        <ele>287.9</ele>
      </trkpt>
      <trkpt lat="46.55729" lon="4.79716">
        <ele>289.1</ele>
      </trkpt>
      <trkpt lat="46.55724" lon="4.79729">
        <ele>290.1</ele>
      </trkpt>
      <trkpt lat="46.55714" lon="4.7975">
        <ele>291.6</ele>
      </trkpt>
      <trkpt lat="46.55701" lon="4.79779">
        <ele>294.6</ele>
      </trkpt>
      <trkpt lat="46.55673" lon="4.7987">
        <ele>302.5</ele>
      </trkpt>
      <trkpt lat="46.55652" lon="4.79942">
        <ele>309.5</ele>
      </trkpt>
      <trkpt lat="46.55639" lon="4.80034">
        <ele>316</ele>
      </trkpt>
      <trkpt lat="46.55632" lon="4.80075">
        <ele>318.3</ele>
      </trkpt>
      <trkpt lat="46.55574" lon="4.80191">
        <ele>332.1</ele>
      </trkpt>
      <trkpt lat="46.55561" lon="4.80268">
        <ele>338.9</ele>
      </trkpt>
      <trkpt lat="46.55558" lon="4.80306">
        <ele>341.4</ele>
      </trkpt>
      <trkpt lat="46.55535" lon="4.80344">
        <ele>343.1</ele>
      </trkpt>
      <trkpt lat="46.55506" lon="4.80383">
        <ele>346.7</ele>
      </trkpt>
      <trkpt lat="46.5551" lon="4.80387">
        <ele>347.2</ele>
      </trkpt>
      <trkpt lat="46.55539" lon="4.80393">
        <ele>350.2</ele>
      </trkpt>
      <trkpt lat="46.55552" lon="4.80396">
        <ele>352.5</ele>
      </trkpt>
      <trkpt lat="46.5556" lon="4.80398">
        <ele>354.3</ele>
      </trkpt>
      <trkpt lat="46.55573" lon="4.80396">
        <ele>356.3</ele>
      </trkpt>
      <trkpt lat="46.55597" lon="4.80391">
        <ele>358.9</ele>
      </trkpt>
      <trkpt lat="46.55615" lon="4.80388">
        <ele>361.4</ele>
      </trkpt>
      <trkpt lat="46.5563" lon="4.8039">
        <ele>363.8</ele>
      </trkpt>
      <trkpt lat="46.55632" lon="4.8039">
        <ele>364.3</ele>
      </trkpt>
      <trkpt lat="46.55646" lon="4.80396">
        <ele>366.4</ele>
      </trkpt>
      <trkpt lat="46.55656" lon="4.80403">
        <ele>367.6</ele>
      </trkpt>
      <trkpt lat="46.55671" lon="4.80416">
        <ele>368.8</ele>
      </trkpt>
      <trkpt lat="46.55677" lon="4.80421">
        <ele>369</ele>
      </trkpt>
      <trkpt lat="46.55682" lon="4.80426">
        <ele>369.3</ele>
      </trkpt>
      <trkpt lat="46.55701" lon="4.80446">
        <ele>369.3</ele>
      </trkpt>
      <trkpt lat="46.55731" lon="4.80475">
        <ele>367.3</ele>
      </trkpt>
      <trkpt lat="46.55752" lon="4.80498">
        <ele>366.6</ele>
      </trkpt>
      <trkpt lat="46.55764" lon="4.8051">
        <ele>366.1</ele>
      </trkpt>
      <trkpt lat="46.55784" lon="4.80537">
        <ele>366</ele>
      </trkpt>
      <trkpt lat="46.55795" lon="4.80546">
        <ele>365.4</ele>
      </trkpt>
      <trkpt lat="46.55804" lon="4.8055">
        <ele>364.8</ele>
      </trkpt>
      <trkpt lat="46.55828" lon="4.80569">
        <ele>364</ele>
      </trkpt>
      <trkpt lat="46.55844" lon="4.80589">
        <ele>363.3</ele>
      </trkpt>
      <trkpt lat="46.55865" lon="4.80612">
        <ele>361.2</ele>
      </trkpt>
      <trkpt lat="46.55874" lon="4.80617">
        <ele>359.7</ele>
      </trkpt>
      <trkpt lat="46.55888" lon="4.80626">
        <ele>356.7</ele>
      </trkpt>
      <trkpt lat="46.559" lon="4.80647">
        <ele>353.5</ele>
      </trkpt>
      <trkpt lat="46.55912" lon="4.80672">
        <ele>350.7</ele>
      </trkpt>
      <trkpt lat="46.55929" lon="4.80682">
        <ele>347.3</ele>
      </trkpt>
      <trkpt lat="46.55949" lon="4.80682">
        <ele>344.5</ele>
      </trkpt>
      <trkpt lat="46.5596" lon="4.80678">
        <ele>344.1</ele>
      </trkpt>
      <trkpt lat="46.55973" lon="4.80674">
        <ele>343.8</ele>
      </trkpt>
      <trkpt lat="46.55985" lon="4.80697">
        <ele>347.5</ele>
      </trkpt>
      <trkpt lat="46.56003" lon="4.80708">
        <ele>351.7</ele>
      </trkpt>
      <trkpt lat="46.56026" lon="4.80718">
        <ele>358.3</ele>
      </trkpt>
      <trkpt lat="46.56052" lon="4.80721">
        <ele>365.1</ele>
      </trkpt>
      <trkpt lat="46.56159" lon="4.80753">
        <ele>385.6</ele>
      </trkpt>
      <trkpt lat="46.56199" lon="4.80765">
        <ele>388.2</ele>
      </trkpt>
      <trkpt lat="46.56217" lon="4.80771">
        <ele>388.7</ele>
      </trkpt>
      <trkpt lat="46.56275" lon="4.80792">
        <ele>388.1</ele>
      </trkpt>
      <trkpt lat="46.56352" lon="4.80848">
        <ele>387.3</ele>
      </trkpt>
      <trkpt lat="46.5636" lon="4.80857">
        <ele>386.9</ele>
      </trkpt>
      <trkpt lat="46.56426" lon="4.80938">
        <ele>386.9</ele>
      </trkpt>
      <trkpt lat="46.56441" lon="4.80949">
        <ele>386.2</ele>
      </trkpt>
      <trkpt lat="46.56464" lon="4.80973">
        <ele>385.5</ele>
      </trkpt>
      <trkpt lat="46.56486" lon="4.80996">
        <ele>384.5</ele>
      </trkpt>
      <trkpt lat="46.56503" lon="4.81016">
        <ele>382.9</ele>
      </trkpt>
      <trkpt lat="46.56518" lon="4.81027">
        <ele>380.4</ele>
      </trkpt>
      <trkpt lat="46.5654" lon="4.81048">
        <ele>375.8</ele>
      </trkpt>
      <trkpt lat="46.56574" lon="4.81075">
        <ele>372.4</ele>
      </trkpt>
      <trkpt lat="46.56595" lon="4.81076">
        <ele>368.8</ele>
      </trkpt>
      <trkpt lat="46.56607" lon="4.81109">
        <ele>369.5</ele>
      </trkpt>
      <trkpt lat="46.5661" lon="4.81113">
        <ele>369.3</ele>
      </trkpt>
      <trkpt lat="46.56615" lon="4.8112">
        <ele>369.5</ele>
      </trkpt>
      <trkpt lat="46.56623" lon="4.81125">
        <ele>369.8</ele>
      </trkpt>
      <trkpt lat="46.56633" lon="4.81134">
        <ele>370.5</ele>
      </trkpt>
      <trkpt lat="46.5664" lon="4.81134">
        <ele>370.5</ele>
      </trkpt>
      <trkpt lat="46.56648" lon="4.81139">
        <ele>371.3</ele>
      </trkpt>
      <trkpt lat="46.5667" lon="4.8114">
        <ele>372.1</ele>
      </trkpt>
      <trkpt lat="46.56672" lon="4.8114">
        <ele>372.1</ele>
      </trkpt>
      <trkpt lat="46.56684" lon="4.81144">
        <ele>372.6</ele>
      </trkpt>
      <trkpt lat="46.56733" lon="4.81158">
        <ele>372.3</ele>
      </trkpt>
      <trkpt lat="46.56733" lon="4.81158">
        <ele>372.3</ele>
      </trkpt>
      <trkpt lat="46.56733" lon="4.81158">
        <ele>372.3</ele>
      </trkpt>
      <trkpt lat="46.56736" lon="4.81132">
        <ele>370.8</ele>
      </trkpt>
      <trkpt lat="46.56736" lon="4.81132">
        <ele>370.8</ele>
      </trkpt>
      <trkpt lat="46.56692" lon="4.81096">
        <ele>365.9</ele>
      </trkpt>
      <trkpt lat="46.56663" lon="4.81075">
        <ele>362.9</ele>
      </trkpt>
      <trkpt lat="46.56656" lon="4.8107">
        <ele>362.5</ele>
      </trkpt>
      <trkpt lat="46.56653" lon="4.81068">
        <ele>362.1</ele>
      </trkpt>
      <trkpt lat="46.56648" lon="4.8106">
        <ele>360.8</ele>
      </trkpt>
      <trkpt lat="46.56639" lon="4.81047">
        <ele>358.5</ele>
      </trkpt>
      <trkpt lat="46.56628" lon="4.81037">
        <ele>358.8</ele>
      </trkpt>
      <trkpt lat="46.56618" lon="4.81014">
        <ele>356.9</ele>
      </trkpt>
      <trkpt lat="46.56612" lon="4.8099">
        <ele>353.7</ele>
      </trkpt>
      <trkpt lat="46.56597" lon="4.80946">
        <ele>352.1</ele>
      </trkpt>
      <trkpt lat="46.5659" lon="4.80926">
        <ele>348.9</ele>
      </trkpt>
      <trkpt lat="46.56586" lon="4.80909">
        <ele>346.3</ele>
      </trkpt>
      <trkpt lat="46.56555" lon="4.80811">
        <ele>341.9</ele>
      </trkpt>
      <trkpt lat="46.56531" lon="4.80675">
        <ele>336.9</ele>
      </trkpt>
      <trkpt lat="46.56542" lon="4.80671">
        <ele>337.9</ele>
      </trkpt>
      <trkpt lat="46.56553" lon="4.80639">
        <ele>333.8</ele>
      </trkpt>
      <trkpt lat="46.56578" lon="4.80589">
        <ele>332.4</ele>
      </trkpt>
      <trkpt lat="46.56625" lon="4.80549">
        <ele>344.4</ele>
      </trkpt>
      <trkpt lat="46.56644" lon="4.80531">
        <ele>348</ele>
      </trkpt>
      <trkpt lat="46.56654" lon="4.80503">
        <ele>347.7</ele>
      </trkpt>
      <trkpt lat="46.56679" lon="4.80455">
        <ele>352</ele>
      </trkpt>
      <trkpt lat="46.56711" lon="4.80418">
        <ele>353.9</ele>
      </trkpt>
      <trkpt lat="46.56749" lon="4.80422">
        <ele>356.5</ele>
      </trkpt>
      <trkpt lat="46.56874" lon="4.8049">
        <ele>364.9</ele>
      </trkpt>
      <trkpt lat="46.56902" lon="4.80505">
        <ele>366.8</ele>
      </trkpt>
      <trkpt lat="46.56927" lon="4.8052">
        <ele>367.7</ele>
      </trkpt>
      <trkpt lat="46.56931" lon="4.80523">
        <ele>367.8</ele>
      </trkpt>
      <trkpt lat="46.56952" lon="4.80539">
        <ele>368.3</ele>
      </trkpt>
      <trkpt lat="46.56979" lon="4.80567">
        <ele>368.1</ele>
      </trkpt>
      <trkpt lat="46.5699" lon="4.80581">
        <ele>367.7</ele>
      </trkpt>
      <trkpt lat="46.5699" lon="4.80533">
        <ele>367.3</ele>
      </trkpt>
      <trkpt lat="46.56993" lon="4.80507">
        <ele>367.1</ele>
      </trkpt>
      <trkpt lat="46.56999" lon="4.80488">
        <ele>366.6</ele>
      </trkpt>
      <trkpt lat="46.57014" lon="4.80475">
        <ele>366.1</ele>
      </trkpt>
      <trkpt lat="46.57029" lon="4.80473">
        <ele>366</ele>
      </trkpt>
      <trkpt lat="46.57048" lon="4.80469">
        <ele>365</ele>
      </trkpt>
      <trkpt lat="46.5707" lon="4.80472">
        <ele>364.5</ele>
      </trkpt>
      <trkpt lat="46.57115" lon="4.80483">
        <ele>362.7</ele>
      </trkpt>
      <trkpt lat="46.5713" lon="4.80481">
        <ele>361.6</ele>
      </trkpt>
      <trkpt lat="46.57143" lon="4.80471">
        <ele>360.7</ele>
      </trkpt>
      <trkpt lat="46.57157" lon="4.80447">
        <ele>358.8</ele>
      </trkpt>
      <trkpt lat="46.5717" lon="4.80417">
        <ele>354.7</ele>
      </trkpt>
      <trkpt lat="46.57179" lon="4.80405">
        <ele>352.6</ele>
      </trkpt>
      <trkpt lat="46.57199" lon="4.80387">
        <ele>349.7</ele>
      </trkpt>
      <trkpt lat="46.57209" lon="4.80392">
        <ele>349.1</ele>
      </trkpt>
      <trkpt lat="46.57227" lon="4.80395">
        <ele>347.7</ele>
      </trkpt>
      <trkpt lat="46.57236" lon="4.80393">
        <ele>346.6</ele>
      </trkpt>
      <trkpt lat="46.57243" lon="4.80392">
        <ele>345.9</ele>
      </trkpt>
      <trkpt lat="46.5726" lon="4.8039">
        <ele>344.3</ele>
      </trkpt>
      <trkpt lat="46.57271" lon="4.8039">
        <ele>343.5</ele>
      </trkpt>
      <trkpt lat="46.57291" lon="4.80392">
        <ele>341.6</ele>
      </trkpt>
      <trkpt lat="46.57396" lon="4.80401">
        <ele>328.2</ele>
      </trkpt>
      <trkpt lat="46.57449" lon="4.80412">
        <ele>318.8</ele>
      </trkpt>
      <trkpt lat="46.57497" lon="4.80434">
        <ele>307.7</ele>
      </trkpt>
      <trkpt lat="46.57522" lon="4.80461">
        <ele>303.4</ele>
      </trkpt>
      <trkpt lat="46.57578" lon="4.80569">
        <ele>295.1</ele>
      </trkpt>
      <trkpt lat="46.57601" lon="4.80602">
        <ele>288.6</ele>
      </trkpt>
      <trkpt lat="46.57612" lon="4.80615">
        <ele>285.6</ele>
      </trkpt>
      <trkpt lat="46.57624" lon="4.80618">
        <ele>283.2</ele>
      </trkpt>
      <trkpt lat="46.57633" lon="4.80615">
        <ele>281.3</ele>
      </trkpt>
      <trkpt lat="46.57642" lon="4.80609">
        <ele>279.6</ele>
      </trkpt>
      <trkpt lat="46.57653" lon="4.80594">
        <ele>278.4</ele>
      </trkpt>
      <trkpt lat="46.57669" lon="4.80565">
        <ele>276.3</ele>
      </trkpt>
      <trkpt lat="46.57686" lon="4.80539">
        <ele>275.4</ele>
      </trkpt>
      <trkpt lat="46.57694" lon="4.80531">
        <ele>275.1</ele>
      </trkpt>
      <trkpt lat="46.57701" lon="4.80529">
        <ele>276.9</ele>
      </trkpt>
      <trkpt lat="46.57706" lon="4.80527">
        <ele>278.2</ele>
      </trkpt>
      <trkpt lat="46.57705" lon="4.80502">
        <ele>276.4</ele>
      </trkpt>
      <trkpt lat="46.57713" lon="4.80484">
        <ele>275.9</ele>
      </trkpt>
      <trkpt lat="46.57727" lon="4.80458">
        <ele>274.3</ele>
      </trkpt>
      <trkpt lat="46.57737" lon="4.80436">
        <ele>273.5</ele>
      </trkpt>
      <trkpt lat="46.57743" lon="4.80423">
        <ele>272.2</ele>
      </trkpt>
      <trkpt lat="46.57752" lon="4.80411">
        <ele>270.7</ele>
      </trkpt>
      <trkpt lat="46.57763" lon="4.804">
        <ele>270.6</ele>
      </trkpt>
      <trkpt lat="46.57767" lon="4.80394">
        <ele>270.1</ele>
      </trkpt>
      <trkpt lat="46.5777" lon="4.80388">
        <ele>269.4</ele>
      </trkpt>
      <trkpt lat="46.57775" lon="4.80371">
        <ele>267.4</ele>
      </trkpt>
      <trkpt lat="46.57784" lon="4.80345">
        <ele>265.8</ele>
      </trkpt>
      <trkpt lat="46.57794" lon="4.80317">
        <ele>264.6</ele>
      </trkpt>
      <trkpt lat="46.57802" lon="4.80294">
        <ele>263.6</ele>
      </trkpt>
      <trkpt lat="46.57811" lon="4.80273">
        <ele>263.2</ele>
      </trkpt>
      <trkpt lat="46.5782" lon="4.80253">
        <ele>263.1</ele>
      </trkpt>
      <trkpt lat="46.5783" lon="4.80235">
        <ele>262.5</ele>
      </trkpt>
      <trkpt lat="46.57839" lon="4.80224">
        <ele>262.1</ele>
      </trkpt>
      <trkpt lat="46.57859" lon="4.80196">
        <ele>261.1</ele>
      </trkpt>
      <trkpt lat="46.57872" lon="4.80182">
        <ele>260.2</ele>
      </trkpt>
      <trkpt lat="46.57879" lon="4.80173">
        <ele>259.6</ele>
      </trkpt>
      <trkpt lat="46.57886" lon="4.80159">
        <ele>258.8</ele>
      </trkpt>
      <trkpt lat="46.579" lon="4.80132">
        <ele>257.9</ele>
      </trkpt>
      <trkpt lat="46.57927" lon="4.80072">
        <ele>256.6</ele>
      </trkpt>
      <trkpt lat="46.57935" lon="4.80077">
        <ele>256.8</ele>
      </trkpt>
      <trkpt lat="46.57956" lon="4.80086">
        <ele>257.5</ele>
      </trkpt>
      <trkpt lat="46.57986" lon="4.80093">
        <ele>259.3</ele>
      </trkpt>
      <trkpt lat="46.58006" lon="4.80095">
        <ele>260.8</ele>
      </trkpt>
      <trkpt lat="46.58014" lon="4.80093">
        <ele>261.4</ele>
      </trkpt>
      <trkpt lat="46.58021" lon="4.8009">
        <ele>261.8</ele>
      </trkpt>
      <trkpt lat="46.58029" lon="4.80084">
        <ele>262.2</ele>
      </trkpt>
      <trkpt lat="46.58033" lon="4.80081">
        <ele>262.5</ele>
      </trkpt>
      <trkpt lat="46.58041" lon="4.80073">
        <ele>263.2</ele>
      </trkpt>
      <trkpt lat="46.58061" lon="4.80056">
        <ele>264.7</ele>
      </trkpt>
      <trkpt lat="46.58067" lon="4.8005">
        <ele>265.2</ele>
      </trkpt>
      <trkpt lat="46.58076" lon="4.80047">
        <ele>266.1</ele>
      </trkpt>
      <trkpt lat="46.58089" lon="4.80043">
        <ele>267.2</ele>
      </trkpt>
      <trkpt lat="46.58115" lon="4.80035">
        <ele>269.1</ele>
      </trkpt>
      <trkpt lat="46.58132" lon="4.80029">
        <ele>269.7</ele>
      </trkpt>
      <trkpt lat="46.58145" lon="4.80027">
        <ele>270.4</ele>
      </trkpt>
      <trkpt lat="46.58172" lon="4.80027">
        <ele>271.9</ele>
      </trkpt>
      <trkpt lat="46.58199" lon="4.80027">
        <ele>271.8</ele>
      </trkpt>
      <trkpt lat="46.58216" lon="4.80026">
        <ele>271.2</ele>
      </trkpt>
      <trkpt lat="46.58224" lon="4.80024">
        <ele>270.8</ele>
      </trkpt>
      <trkpt lat="46.58223" lon="4.80045">
        <ele>272.2</ele>
      </trkpt>
      <trkpt lat="46.58226" lon="4.80055">
        <ele>273</ele>
      </trkpt>
      <trkpt lat="46.58227" lon="4.8006">
        <ele>273.6</ele>
      </trkpt>
      <trkpt lat="46.58232" lon="4.80075">
        <ele>275.8</ele>
      </trkpt>
      <trkpt lat="46.58237" lon="4.80091">
        <ele>277.9</ele>
      </trkpt>
      <trkpt lat="46.5824" lon="4.80102">
        <ele>279.2</ele>
      </trkpt>
      <trkpt lat="46.5824" lon="4.80107">
        <ele>279.9</ele>
      </trkpt>
      <trkpt lat="46.58239" lon="4.80115">
        <ele>280.8</ele>
      </trkpt>
      <trkpt lat="46.58238" lon="4.80121">
        <ele>281.5</ele>
      </trkpt>
      <trkpt lat="46.58237" lon="4.80126">
        <ele>282.1</ele>
      </trkpt>
      <trkpt lat="46.58238" lon="4.80135">
        <ele>283</ele>
      </trkpt>
      <trkpt lat="46.58241" lon="4.80142">
        <ele>283.7</ele>
      </trkpt>
      <trkpt lat="46.58249" lon="4.80156">
        <ele>284.8</ele>
      </trkpt>
      <trkpt lat="46.58254" lon="4.80168">
        <ele>286</ele>
      </trkpt>
      <trkpt lat="46.58257" lon="4.80182">
        <ele>287.5</ele>
      </trkpt>
      <trkpt lat="46.58258" lon="4.8019">
        <ele>288.3</ele>
      </trkpt>
      <trkpt lat="46.58257" lon="4.80197">
        <ele>288.9</ele>
      </trkpt>
      <trkpt lat="46.58256" lon="4.802">
        <ele>289.2</ele>
      </trkpt>
      <trkpt lat="46.58253" lon="4.80203">
        <ele>289.4</ele>
      </trkpt>
      <trkpt lat="46.58249" lon="4.80205">
        <ele>289.8</ele>
      </trkpt>
      <trkpt lat="46.58244" lon="4.80204">
        <ele>290.1</ele>
      </trkpt>
      <trkpt lat="46.58208" lon="4.80195">
        <ele>292.5</ele>
      </trkpt>
      <trkpt lat="46.58201" lon="4.80196">
        <ele>293.4</ele>
      </trkpt>
      <trkpt lat="46.58191" lon="4.802">
        <ele>294.1</ele>
      </trkpt>
      <trkpt lat="46.58183" lon="4.80206">
        <ele>294.2</ele>
      </trkpt>
      <trkpt lat="46.58176" lon="4.80217">
        <ele>294.7</ele>
      </trkpt>
      <trkpt lat="46.5817" lon="4.8023">
        <ele>295</ele>
      </trkpt>
      <trkpt lat="46.58166" lon="4.80242">
        <ele>294.9</ele>
      </trkpt>
      <trkpt lat="46.58163" lon="4.80259">
        <ele>294.6</ele>
      </trkpt>
      <trkpt lat="46.58158" lon="4.80305">
        <ele>294.7</ele>
      </trkpt>
      <trkpt lat="46.58153" lon="4.80348">
        <ele>295.5</ele>
      </trkpt>
      <trkpt lat="46.58155" lon="4.80372">
        <ele>296.3</ele>
      </trkpt>
      <trkpt lat="46.58154" lon="4.80395">
        <ele>297.1</ele>
      </trkpt>
      <trkpt lat="46.58152" lon="4.80408">
        <ele>297.7</ele>
      </trkpt>
      <trkpt lat="46.58149" lon="4.80422">
        <ele>298.7</ele>
      </trkpt>
      <trkpt lat="46.58142" lon="4.80442">
        <ele>300.4</ele>
      </trkpt>
      <trkpt lat="46.58136" lon="4.80458">
        <ele>301.3</ele>
      </trkpt>
      <trkpt lat="46.58131" lon="4.80475">
        <ele>302.3</ele>
      </trkpt>
      <trkpt lat="46.58128" lon="4.80493">
        <ele>303.7</ele>
      </trkpt>
      <trkpt lat="46.58125" lon="4.80518">
        <ele>305.4</ele>
      </trkpt>
      <trkpt lat="46.58127" lon="4.80542">
        <ele>306.9</ele>
      </trkpt>
      <trkpt lat="46.58132" lon="4.80569">
        <ele>308.3</ele>
      </trkpt>
      <trkpt lat="46.58135" lon="4.80594">
        <ele>310.2</ele>
      </trkpt>
      <trkpt lat="46.58136" lon="4.80628">
        <ele>313.4</ele>
      </trkpt>
      <trkpt lat="46.58135" lon="4.80647">
        <ele>315.6</ele>
      </trkpt>
      <trkpt lat="46.58132" lon="4.80677">
        <ele>319.4</ele>
      </trkpt>
      <trkpt lat="46.5812" lon="4.80754">
        <ele>326.9</ele>
      </trkpt>
      <trkpt lat="46.58101" lon="4.80848">
        <ele>333.6</ele>
      </trkpt>
      <trkpt lat="46.58096" lon="4.80872">
        <ele>336.2</ele>
      </trkpt>
      <trkpt lat="46.58139" lon="4.80891">
        <ele>333.3</ele>
      </trkpt>
      <trkpt lat="46.58172" lon="4.80906">
        <ele>329.5</ele>
      </trkpt>
      <trkpt lat="46.58194" lon="4.80924">
        <ele>326.3</ele>
      </trkpt>
      <trkpt lat="46.58213" lon="4.8094">
        <ele>324.2</ele>
      </trkpt>
      <trkpt lat="46.58229" lon="4.80955">
        <ele>322.8</ele>
      </trkpt>
      <trkpt lat="46.58253" lon="4.8098">
        <ele>322.5</ele>
      </trkpt>
      <trkpt lat="46.58268" lon="4.8099">
        <ele>322.6</ele>
      </trkpt>
      <trkpt lat="46.58278" lon="4.80992">
        <ele>322.4</ele>
      </trkpt>
      <trkpt lat="46.58294" lon="4.80994">
        <ele>322.5</ele>
      </trkpt>
      <trkpt lat="46.5833" lon="4.80997">
        <ele>320.1</ele>
      </trkpt>
      <trkpt lat="46.58363" lon="4.80999">
        <ele>316.5</ele>
      </trkpt>
      <trkpt lat="46.5839" lon="4.81003">
        <ele>310.7</ele>
      </trkpt>
      <trkpt lat="46.58402" lon="4.81007">
        <ele>307</ele>
      </trkpt>
      <trkpt lat="46.58421" lon="4.81018">
        <ele>301.5</ele>
      </trkpt>
      <trkpt lat="46.58434" lon="4.81035">
        <ele>299</ele>
      </trkpt>
      <trkpt lat="46.58443" lon="4.81055">
        <ele>297.3</ele>
      </trkpt>
      <trkpt lat="46.58452" lon="4.81072">
        <ele>299.3</ele>
      </trkpt>
      <trkpt lat="46.58476" lon="4.81054">
        <ele>300.7</ele>
      </trkpt>
      <trkpt lat="46.58497" lon="4.81035">
        <ele>303.3</ele>
      </trkpt>
      <trkpt lat="46.58522" lon="4.81008">
        <ele>303.6</ele>
      </trkpt>
      <trkpt lat="46.58536" lon="4.80991">
        <ele>302.6</ele>
      </trkpt>
      <trkpt lat="46.5855" lon="4.80979">
        <ele>301.7</ele>
      </trkpt>
      <trkpt lat="46.58563" lon="4.80972">
        <ele>301.2</ele>
      </trkpt>
      <trkpt lat="46.58577" lon="4.80969">
        <ele>301.4</ele>
      </trkpt>
      <trkpt lat="46.58593" lon="4.80968">
        <ele>301.8</ele>
      </trkpt>
      <trkpt lat="46.5862" lon="4.80966">
        <ele>302.2</ele>
      </trkpt>
      <trkpt lat="46.5864" lon="4.80963">
        <ele>301.7</ele>
      </trkpt>
      <trkpt lat="46.58655" lon="4.8096">
        <ele>301.2</ele>
      </trkpt>
      <trkpt lat="46.58664" lon="4.8096">
        <ele>301.1</ele>
      </trkpt>
      <trkpt lat="46.58674" lon="4.80961">
        <ele>300.9</ele>
      </trkpt>
      <trkpt lat="46.5868" lon="4.80961">
        <ele>300.7</ele>
      </trkpt>
      <trkpt lat="46.5869" lon="4.80965">
        <ele>300.6</ele>
      </trkpt>
      <trkpt lat="46.587" lon="4.80972">
        <ele>300.3</ele>
      </trkpt>
      <trkpt lat="46.5871" lon="4.8098">
        <ele>300</ele>
      </trkpt>
      <trkpt lat="46.58721" lon="4.80992">
        <ele>300.3</ele>
      </trkpt>
      <trkpt lat="46.58728" lon="4.81005">
        <ele>300.7</ele>
      </trkpt>
      <trkpt lat="46.58742" lon="4.81038">
        <ele>301.4</ele>
      </trkpt>
      <trkpt lat="46.58748" lon="4.81049">
        <ele>301.1</ele>
      </trkpt>
      <trkpt lat="46.58752" lon="4.81053">
        <ele>300.8</ele>
      </trkpt>
      <trkpt lat="46.58758" lon="4.81057">
        <ele>300.6</ele>
      </trkpt>
      <trkpt lat="46.58774" lon="4.81066">
        <ele>299.7</ele>
      </trkpt>
      <trkpt lat="46.58787" lon="4.81073">
        <ele>299.7</ele>
      </trkpt>
      <trkpt lat="46.58796" lon="4.81075">
        <ele>299.9</ele>
      </trkpt>
      <trkpt lat="46.58791" lon="4.81119">
        <ele>303.5</ele>
      </trkpt>
      <trkpt lat="46.58784" lon="4.81185">
        <ele>307.9</ele>
      </trkpt>
      <trkpt lat="46.58777" lon="4.81254">
        <ele>314.3</ele>
      </trkpt>
      <trkpt lat="46.58774" lon="4.81279">
        <ele>316.6</ele>
      </trkpt>
      <trkpt lat="46.58771" lon="4.81322">
        <ele>319.5</ele>
      </trkpt>
      <trkpt lat="46.58768" lon="4.81345">
        <ele>320.3</ele>
      </trkpt>
      <trkpt lat="46.58768" lon="4.81356">
        <ele>321</ele>
      </trkpt>
      <trkpt lat="46.58769" lon="4.81366">
        <ele>321.5</ele>
      </trkpt>
      <trkpt lat="46.58769" lon="4.81376">
        <ele>321.7</ele>
      </trkpt>
      <trkpt lat="46.58771" lon="4.81382">
        <ele>321.9</ele>
      </trkpt>
      <trkpt lat="46.58775" lon="4.81394">
        <ele>322.1</ele>
      </trkpt>
      <trkpt lat="46.58796" lon="4.81442">
        <ele>324.7</ele>
      </trkpt>
      <trkpt lat="46.58812" lon="4.8148">
        <ele>325.3</ele>
      </trkpt>
      <trkpt lat="46.58824" lon="4.81501">
        <ele>325.9</ele>
      </trkpt>
      <trkpt lat="46.58835" lon="4.81524">
        <ele>325.6</ele>
      </trkpt>
      <trkpt lat="46.5884" lon="4.81537">
        <ele>326.9</ele>
      </trkpt>
      <trkpt lat="46.58845" lon="4.81575">
        <ele>330.1</ele>
      </trkpt>
      <trkpt lat="46.58848" lon="4.81619">
        <ele>335.3</ele>
      </trkpt>
      <trkpt lat="46.58848" lon="4.81631">
        <ele>336.2</ele>
      </trkpt>
      <trkpt lat="46.58849" lon="4.81671">
        <ele>340.5</ele>
      </trkpt>
      <trkpt lat="46.58849" lon="4.81741">
        <ele>346.9</ele>
      </trkpt>
      <trkpt lat="46.5885" lon="4.81784">
        <ele>349.9</ele>
      </trkpt>
      <trkpt lat="46.58854" lon="4.81794">
        <ele>351.5</ele>
      </trkpt>
      <trkpt lat="46.58867" lon="4.81815">
        <ele>356.3</ele>
      </trkpt>
      <trkpt lat="46.58875" lon="4.81827">
        <ele>359.2</ele>
      </trkpt>
      <trkpt lat="46.58882" lon="4.81837">
        <ele>361.2</ele>
      </trkpt>
      <trkpt lat="46.58891" lon="4.81848">
        <ele>363.4</ele>
      </trkpt>
      <trkpt lat="46.58923" lon="4.81876">
        <ele>369.7</ele>
      </trkpt>
      <trkpt lat="46.58961" lon="4.81897">
        <ele>375.8</ele>
      </trkpt>
      <trkpt lat="46.58969" lon="4.81901">
        <ele>377</ele>
      </trkpt>
      <trkpt lat="46.59024" lon="4.8193">
        <ele>381.4</ele>
      </trkpt>
      <trkpt lat="46.59047" lon="4.81946">
        <ele>381.7</ele>
      </trkpt>
      <trkpt lat="46.59074" lon="4.81966">
        <ele>382.2</ele>
      </trkpt>
      <trkpt lat="46.59111" lon="4.82007">
        <ele>382</ele>
      </trkpt>
      <trkpt lat="46.59112" lon="4.82009">
        <ele>382</ele>
      </trkpt>
      <trkpt lat="46.59134" lon="4.82046">
        <ele>380.7</ele>
      </trkpt>
      <trkpt lat="46.59153" lon="4.82099">
        <ele>378.4</ele>
      </trkpt>
      <trkpt lat="46.59157" lon="4.82108">
        <ele>377.6</ele>
      </trkpt>
      <trkpt lat="46.5916" lon="4.82129">
        <ele>376.6</ele>
      </trkpt>
      <trkpt lat="46.59162" lon="4.8216">
        <ele>376.2</ele>
      </trkpt>
      <trkpt lat="46.59159" lon="4.82202">
        <ele>377.8</ele>
      </trkpt>
      <trkpt lat="46.59161" lon="4.8225">
        <ele>379.3</ele>
      </trkpt>
      <trkpt lat="46.59179" lon="4.82326">
        <ele>376.3</ele>
      </trkpt>
      <trkpt lat="46.59197" lon="4.82377">
        <ele>373.2</ele>
      </trkpt>
      <trkpt lat="46.59208" lon="4.82406">
        <ele>373.4</ele>
      </trkpt>
      <trkpt lat="46.59223" lon="4.82437">
        <ele>373.4</ele>
      </trkpt>
      <trkpt lat="46.59244" lon="4.82462">
        <ele>373</ele>
      </trkpt>
      <trkpt lat="46.59267" lon="4.82481">
        <ele>374.7</ele>
      </trkpt>
      <trkpt lat="46.59284" lon="4.82495">
        <ele>377</ele>
      </trkpt>
      <trkpt lat="46.59327" lon="4.82517">
        <ele>380.9</ele>
      </trkpt>
      <trkpt lat="46.59367" lon="4.82539">
        <ele>384.5</ele>
      </trkpt>
      <trkpt lat="46.59394" lon="4.82552">
        <ele>386.1</ele>
      </trkpt>
      <trkpt lat="46.59413" lon="4.82564">
        <ele>388.1</ele>
      </trkpt>
      <trkpt lat="46.59432" lon="4.82578">
        <ele>389.4</ele>
      </trkpt>
      <trkpt lat="46.5945" lon="4.82586">
        <ele>389.5</ele>
      </trkpt>
      <trkpt lat="46.59465" lon="4.82591">
        <ele>390</ele>
      </trkpt>
      <trkpt lat="46.59487" lon="4.82594">
        <ele>390.2</ele>
      </trkpt>
      <trkpt lat="46.595" lon="4.82594">
        <ele>390.3</ele>
      </trkpt>
      <trkpt lat="46.59512" lon="4.82593">
        <ele>390.1</ele>
      </trkpt>
      <trkpt lat="46.59535" lon="4.8259">
        <ele>389.5</ele>
      </trkpt>
      <trkpt lat="46.5956" lon="4.82589">
        <ele>389.1</ele>
      </trkpt>
      <trkpt lat="46.59594" lon="4.82593">
        <ele>388.1</ele>
      </trkpt>
      <trkpt lat="46.59623" lon="4.82594">
        <ele>385.8</ele>
      </trkpt>
      <trkpt lat="46.59664" lon="4.82602">
        <ele>383.2</ele>
      </trkpt>
      <trkpt lat="46.59697" lon="4.82608">
        <ele>381.5</ele>
      </trkpt>
      <trkpt lat="46.59711" lon="4.82611">
        <ele>380.8</ele>
      </trkpt>
      <trkpt lat="46.5972" lon="4.82614">
        <ele>380.6</ele>
      </trkpt>
      <trkpt lat="46.59737" lon="4.82622">
        <ele>380.5</ele>
      </trkpt>
      <trkpt lat="46.59772" lon="4.8264">
        <ele>379.7</ele>
      </trkpt>
      <trkpt lat="46.59803" lon="4.82654">
        <ele>379</ele>
      </trkpt>
      <trkpt lat="46.59821" lon="4.82664">
        <ele>377.9</ele>
      </trkpt>
      <trkpt lat="46.59847" lon="4.82681">
        <ele>376.6</ele>
      </trkpt>
      <trkpt lat="46.5988" lon="4.82704">
        <ele>374.8</ele>
      </trkpt>
      <trkpt lat="46.59917" lon="4.82728">
        <ele>372.4</ele>
      </trkpt>
      <trkpt lat="46.59949" lon="4.82747">
        <ele>371.3</ele>
      </trkpt>
      <trkpt lat="46.59965" lon="4.82758">
        <ele>370.3</ele>
      </trkpt>
      <trkpt lat="46.59982" lon="4.82773">
        <ele>369.9</ele>
      </trkpt>
      <trkpt lat="46.60006" lon="4.82794">
        <ele>368.8</ele>
      </trkpt>
      <trkpt lat="46.60029" lon="4.82813">
        <ele>367.1</ele>
      </trkpt>
      <trkpt lat="46.60048" lon="4.82827">
        <ele>366</ele>
      </trkpt>
      <trkpt lat="46.60068" lon="4.82838">
        <ele>365.1</ele>
      </trkpt>
      <trkpt lat="46.60089" lon="4.82848">
        <ele>364.1</ele>
      </trkpt>
      <trkpt lat="46.60109" lon="4.82857">
        <ele>363.7</ele>
      </trkpt>
      <trkpt lat="46.6013" lon="4.82868">
        <ele>363.6</ele>
      </trkpt>
      <trkpt lat="46.60148" lon="4.82874">
        <ele>363.6</ele>
      </trkpt>
      <trkpt lat="46.60159" lon="4.82876">
        <ele>363.3</ele>
      </trkpt>
      <trkpt lat="46.60167" lon="4.82876">
        <ele>362.6</ele>
      </trkpt>
      <trkpt lat="46.6018" lon="4.82874">
        <ele>361.1</ele>
      </trkpt>
      <trkpt lat="46.60194" lon="4.82874">
        <ele>360</ele>
      </trkpt>
      <trkpt lat="46.60205" lon="4.82876">
        <ele>358.9</ele>
      </trkpt>
      <trkpt lat="46.60212" lon="4.82878">
        <ele>358.4</ele>
      </trkpt>
      <trkpt lat="46.60217" lon="4.8288">
        <ele>357.9</ele>
      </trkpt>
      <trkpt lat="46.60232" lon="4.82889">
        <ele>356.9</ele>
      </trkpt>
      <trkpt lat="46.6025" lon="4.82906">
        <ele>356.2</ele>
      </trkpt>
      <trkpt lat="46.60266" lon="4.82926">
        <ele>354.5</ele>
      </trkpt>
      <trkpt lat="46.60275" lon="4.82939">
        <ele>352.6</ele>
      </trkpt>
      <trkpt lat="46.60284" lon="4.8295">
        <ele>350.9</ele>
      </trkpt>
      <trkpt lat="46.60289" lon="4.82961">
        <ele>350</ele>
      </trkpt>
      <trkpt lat="46.60292" lon="4.8297">
        <ele>349.5</ele>
      </trkpt>
      <trkpt lat="46.60296" lon="4.82974">
        <ele>348.7</ele>
      </trkpt>
      <trkpt lat="46.60302" lon="4.82957">
        <ele>347.6</ele>
      </trkpt>
      <trkpt lat="46.60309" lon="4.82937">
        <ele>346.9</ele>
      </trkpt>
      <trkpt lat="46.6032" lon="4.82913">
        <ele>346.4</ele>
      </trkpt>
      <trkpt lat="46.60333" lon="4.82885">
        <ele>345.1</ele>
      </trkpt>
      <trkpt lat="46.60341" lon="4.82862">
        <ele>344.4</ele>
      </trkpt>
      <trkpt lat="46.60349" lon="4.82832">
        <ele>342.9</ele>
      </trkpt>
      <trkpt lat="46.60357" lon="4.82796">
        <ele>342.1</ele>
      </trkpt>
      <trkpt lat="46.60362" lon="4.8277">
        <ele>342</ele>
      </trkpt>
      <trkpt lat="46.60363" lon="4.8276">
        <ele>342</ele>
      </trkpt>
      <trkpt lat="46.60374" lon="4.82751">
        <ele>342.4</ele>
      </trkpt>
      <trkpt lat="46.60382" lon="4.82748">
        <ele>342.9</ele>
      </trkpt>
      <trkpt lat="46.60392" lon="4.82747">
        <ele>343.7</ele>
      </trkpt>
      <trkpt lat="46.60407" lon="4.82749">
        <ele>345.1</ele>
      </trkpt>
      <trkpt lat="46.60418" lon="4.82752">
        <ele>345.9</ele>
      </trkpt>
      <trkpt lat="46.6042" lon="4.82753">
        <ele>346</ele>
      </trkpt>
      <trkpt lat="46.60434" lon="4.82754">
        <ele>347.3</ele>
      </trkpt>
      <trkpt lat="46.60447" lon="4.82754">
        <ele>348.5</ele>
      </trkpt>
      <trkpt lat="46.60455" lon="4.82754">
        <ele>348.8</ele>
      </trkpt>
      <trkpt lat="46.60459" lon="4.82753">
        <ele>349.2</ele>
      </trkpt>
      <trkpt lat="46.60463" lon="4.82747">
        <ele>350.1</ele>
      </trkpt>
      <trkpt lat="46.60471" lon="4.82733">
        <ele>352.5</ele>
      </trkpt>
      <trkpt lat="46.6048" lon="4.82719">
        <ele>354.1</ele>
      </trkpt>
      <trkpt lat="46.60489" lon="4.82708">
        <ele>355.4</ele>
      </trkpt>
      <trkpt lat="46.60498" lon="4.82691">
        <ele>357.4</ele>
      </trkpt>
      <trkpt lat="46.60508" lon="4.82674">
        <ele>358.1</ele>
      </trkpt>
      <trkpt lat="46.60519" lon="4.82665">
        <ele>358.5</ele>
      </trkpt>
      <trkpt lat="46.60533" lon="4.82657">
        <ele>358.8</ele>
      </trkpt>
      <trkpt lat="46.60548" lon="4.82653">
        <ele>359.3</ele>
      </trkpt>
      <trkpt lat="46.60561" lon="4.82651">
        <ele>359.9</ele>
      </trkpt>
      <trkpt lat="46.60575" lon="4.82649">
        <ele>360.6</ele>
      </trkpt>
      <trkpt lat="46.60583" lon="4.8265">
        <ele>360.8</ele>
      </trkpt>
      <trkpt lat="46.60595" lon="4.82656">
        <ele>361</ele>
      </trkpt>
      <trkpt lat="46.60617" lon="4.82671">
        <ele>360.7</ele>
      </trkpt>
      <trkpt lat="46.60639" lon="4.82681">
        <ele>360.9</ele>
      </trkpt>
      <trkpt lat="46.60647" lon="4.82685">
        <ele>361</ele>
      </trkpt>
      <trkpt lat="46.60658" lon="4.8269">
        <ele>361</ele>
      </trkpt>
      <trkpt lat="46.60679" lon="4.82696">
        <ele>361.3</ele>
      </trkpt>
      <trkpt lat="46.60699" lon="4.82701">
        <ele>361.6</ele>
      </trkpt>
      <trkpt lat="46.60722" lon="4.82705">
        <ele>362</ele>
      </trkpt>
      <trkpt lat="46.60737" lon="4.82707">
        <ele>361.5</ele>
      </trkpt>
      <trkpt lat="46.6075" lon="4.82712">
        <ele>361</ele>
      </trkpt>
      <trkpt lat="46.60766" lon="4.8272">
        <ele>361</ele>
      </trkpt>
      <trkpt lat="46.60791" lon="4.82736">
        <ele>360.5</ele>
      </trkpt>
      <trkpt lat="46.60827" lon="4.82763">
        <ele>360.1</ele>
      </trkpt>
      <trkpt lat="46.60859" lon="4.82788">
        <ele>360</ele>
      </trkpt>
      <trkpt lat="46.60879" lon="4.82804">
        <ele>359.4</ele>
      </trkpt>
      <trkpt lat="46.60891" lon="4.82814">
        <ele>359</ele>
      </trkpt>
      <trkpt lat="46.60902" lon="4.82838">
        <ele>358.4</ele>
      </trkpt>
      <trkpt lat="46.60918" lon="4.82876">
        <ele>356.9</ele>
      </trkpt>
      <trkpt lat="46.60935" lon="4.82914">
        <ele>355.1</ele>
      </trkpt>
      <trkpt lat="46.60948" lon="4.82936">
        <ele>354.3</ele>
      </trkpt>
      <trkpt lat="46.60956" lon="4.82944">
        <ele>354</ele>
      </trkpt>
      <trkpt lat="46.60962" lon="4.82947">
        <ele>353.9</ele>
      </trkpt>
      <trkpt lat="46.60968" lon="4.82947">
        <ele>353.9</ele>
      </trkpt>
      <trkpt lat="46.60975" lon="4.82946">
        <ele>353.8</ele>
      </trkpt>
      <trkpt lat="46.60996" lon="4.8295">
        <ele>353.1</ele>
      </trkpt>
      <trkpt lat="46.61025" lon="4.82951">
        <ele>352.3</ele>
      </trkpt>
      <trkpt lat="46.61042" lon="4.82958">
        <ele>352</ele>
      </trkpt>
      <trkpt lat="46.61057" lon="4.82967">
        <ele>351.7</ele>
      </trkpt>
      <trkpt lat="46.61073" lon="4.82975">
        <ele>351.5</ele>
      </trkpt>
      <trkpt lat="46.61109" lon="4.8299">
        <ele>351.7</ele>
      </trkpt>
      <trkpt lat="46.61136" lon="4.83">
        <ele>352</ele>
      </trkpt>
      <trkpt lat="46.61148" lon="4.83004">
        <ele>351.7</ele>
      </trkpt>
      <trkpt lat="46.61158" lon="4.83011">
        <ele>351.6</ele>
      </trkpt>
      <trkpt lat="46.61191" lon="4.83042">
        <ele>351.6</ele>
      </trkpt>
      <trkpt lat="46.6121" lon="4.83055">
        <ele>352</ele>
      </trkpt>
      <trkpt lat="46.61229" lon="4.83063">
        <ele>352</ele>
      </trkpt>
      <trkpt lat="46.61267" lon="4.8307">
        <ele>351.7</ele>
      </trkpt>
      <trkpt lat="46.61317" lon="4.83078">
        <ele>351.4</ele>
      </trkpt>
      <trkpt lat="46.61328" lon="4.83082">
        <ele>351.1</ele>
      </trkpt>
      <trkpt lat="46.61343" lon="4.8309">
        <ele>351.2</ele>
      </trkpt>
      <trkpt lat="46.61385" lon="4.83125">
        <ele>352.5</ele>
      </trkpt>
      <trkpt lat="46.61402" lon="4.83139">
        <ele>353</ele>
      </trkpt>
      <trkpt lat="46.61424" lon="4.83156">
        <ele>353.6</ele>
      </trkpt>
      <trkpt lat="46.61439" lon="4.83166">
        <ele>354</ele>
      </trkpt>
      <trkpt lat="46.61453" lon="4.83174">
        <ele>353.8</ele>
      </trkpt>
      <trkpt lat="46.6147" lon="4.8318">
        <ele>353.5</ele>
      </trkpt>
      <trkpt lat="46.61516" lon="4.83195">
        <ele>353.4</ele>
      </trkpt>
      <trkpt lat="46.61575" lon="4.83208">
        <ele>351.5</ele>
      </trkpt>
      <trkpt lat="46.61626" lon="4.83237">
        <ele>350</ele>
      </trkpt>
      <trkpt lat="46.6167" lon="4.83263">
        <ele>349.5</ele>
      </trkpt>
      <trkpt lat="46.61702" lon="4.83222">
        <ele>347.3</ele>
      </trkpt>
      <trkpt lat="46.61746" lon="4.83123">
        <ele>343.6</ele>
      </trkpt>
      <trkpt lat="46.61748" lon="4.83099">
        <ele>341.9</ele>
      </trkpt>
      <trkpt lat="46.61756" lon="4.83068">
        <ele>339.9</ele>
      </trkpt>
      <trkpt lat="46.61768" lon="4.83039">
        <ele>338.8</ele>
      </trkpt>
      <trkpt lat="46.61786" lon="4.83014">
        <ele>338.6</ele>
      </trkpt>
      <trkpt lat="46.61808" lon="4.82993">
        <ele>338.5</ele>
      </trkpt>
      <trkpt lat="46.61835" lon="4.82973">
        <ele>338</ele>
      </trkpt>
      <trkpt lat="46.61855" lon="4.82965">
        <ele>337.7</ele>
      </trkpt>
      <trkpt lat="46.61878" lon="4.82958">
        <ele>337.2</ele>
      </trkpt>
      <trkpt lat="46.61898" lon="4.82957">
        <ele>336.8</ele>
      </trkpt>
      <trkpt lat="46.61916" lon="4.82953">
        <ele>336.3</ele>
      </trkpt>
      <trkpt lat="46.61935" lon="4.82938">
        <ele>334.5</ele>
      </trkpt>
      <trkpt lat="46.61965" lon="4.82903">
        <ele>331.2</ele>
      </trkpt>
      <trkpt lat="46.61972" lon="4.8289">
        <ele>330.1</ele>
      </trkpt>
      <trkpt lat="46.61991" lon="4.82853">
        <ele>327.6</ele>
      </trkpt>
      <trkpt lat="46.61999" lon="4.82835">
        <ele>326.2</ele>
      </trkpt>
      <trkpt lat="46.62009" lon="4.82818">
        <ele>324.6</ele>
      </trkpt>
      <trkpt lat="46.62026" lon="4.8279">
        <ele>321.6</ele>
      </trkpt>
      <trkpt lat="46.62029" lon="4.82784">
        <ele>321.2</ele>
      </trkpt>
      <trkpt lat="46.62031" lon="4.82778">
        <ele>320.8</ele>
      </trkpt>
      <trkpt lat="46.62032" lon="4.82772">
        <ele>320.5</ele>
      </trkpt>
      <trkpt lat="46.62048" lon="4.82789">
        <ele>319.9</ele>
      </trkpt>
      <trkpt lat="46.62052" lon="4.82792">
        <ele>319.8</ele>
      </trkpt>
      <trkpt lat="46.62057" lon="4.82793">
        <ele>319.4</ele>
      </trkpt>
      <trkpt lat="46.62066" lon="4.82793">
        <ele>318.6</ele>
      </trkpt>
      <trkpt lat="46.62074" lon="4.82791">
        <ele>317.8</ele>
      </trkpt>
      <trkpt lat="46.62083" lon="4.82788">
        <ele>316.8</ele>
      </trkpt>
      <trkpt lat="46.62099" lon="4.82786">
        <ele>314.9</ele>
      </trkpt>
      <trkpt lat="46.6213" lon="4.82782">
        <ele>311.4</ele>
      </trkpt>
      <trkpt lat="46.62139" lon="4.82776">
        <ele>309.8</ele>
      </trkpt>
      <trkpt lat="46.6215" lon="4.82763">
        <ele>307.2</ele>
      </trkpt>
      <trkpt lat="46.62171" lon="4.82748">
        <ele>304.4</ele>
      </trkpt>
      <trkpt lat="46.62188" lon="4.82738">
        <ele>301.8</ele>
      </trkpt>
      <trkpt lat="46.62202" lon="4.82726">
        <ele>299.3</ele>
      </trkpt>
      <trkpt lat="46.62217" lon="4.82705">
        <ele>295.7</ele>
      </trkpt>
      <trkpt lat="46.62235" lon="4.82691">
        <ele>293.5</ele>
      </trkpt>
      <trkpt lat="46.62252" lon="4.82681">
        <ele>292.1</ele>
      </trkpt>
      <trkpt lat="46.62282" lon="4.82662">
        <ele>290.5</ele>
      </trkpt>
      <trkpt lat="46.62305" lon="4.82657">
        <ele>290.7</ele>
      </trkpt>
      <trkpt lat="46.62327" lon="4.82655">
        <ele>290.7</ele>
      </trkpt>
      <trkpt lat="46.62349" lon="4.82656">
        <ele>291.2</ele>
      </trkpt>
      <trkpt lat="46.62353" lon="4.82656">
        <ele>291.3</ele>
      </trkpt>
      <trkpt lat="46.62417" lon="4.82712">
        <ele>296.8</ele>
      </trkpt>
      <trkpt lat="46.62477" lon="4.82768">
        <ele>296.3</ele>
      </trkpt>
      <trkpt lat="46.6249" lon="4.8278">
        <ele>295.7</ele>
      </trkpt>
      <trkpt lat="46.62607" lon="4.82893">
        <ele>284.8</ele>
      </trkpt>
      <trkpt lat="46.62745" lon="4.83027">
        <ele>275.3</ele>
      </trkpt>
      <trkpt lat="46.62872" lon="4.83155">
        <ele>263.9</ele>
      </trkpt>
      <trkpt lat="46.62937" lon="4.83224">
        <ele>248.7</ele>
      </trkpt>
      <trkpt lat="46.63039" lon="4.83333">
        <ele>270.1</ele>
      </trkpt>
      <trkpt lat="46.63041" lon="4.83398">
        <ele>280</ele>
      </trkpt>
      <trkpt lat="46.63122" lon="4.8344">
        <ele>273.2</ele>
      </trkpt>
      <trkpt lat="46.63134" lon="4.83442">
        <ele>271.6</ele>
      </trkpt>
      <trkpt lat="46.63144" lon="4.8345">
        <ele>270.8</ele>
      </trkpt>
      <trkpt lat="46.63167" lon="4.83476">
        <ele>270.3</ele>
      </trkpt>
      <trkpt lat="46.63198" lon="4.83498">
        <ele>268.4</ele>
      </trkpt>
      <trkpt lat="46.63211" lon="4.83504">
        <ele>266.9</ele>
      </trkpt>
      <trkpt lat="46.63221" lon="4.83506">
        <ele>265.7</ele>
      </trkpt>
      <trkpt lat="46.63251" lon="4.83505">
        <ele>262.3</ele>
      </trkpt>
      <trkpt lat="46.6326" lon="4.83507">
        <ele>261.5</ele>
      </trkpt>
      <trkpt lat="46.63264" lon="4.83509">
        <ele>261.2</ele>
      </trkpt>
      <trkpt lat="46.63271" lon="4.83517">
        <ele>260.9</ele>
      </trkpt>
      <trkpt lat="46.63279" lon="4.83519">
        <ele>260.3</ele>
      </trkpt>
      <trkpt lat="46.63293" lon="4.83532">
        <ele>260.8</ele>
      </trkpt>
      <trkpt lat="46.63305" lon="4.8354">
        <ele>260.9</ele>
      </trkpt>
      <trkpt lat="46.63318" lon="4.83547">
        <ele>260.9</ele>
      </trkpt>
      <trkpt lat="46.63352" lon="4.8355">
        <ele>259.3</ele>
      </trkpt>
      <trkpt lat="46.63375" lon="4.83549">
        <ele>257.8</ele>
      </trkpt>
      <trkpt lat="46.63376" lon="4.83549">
        <ele>257.8</ele>
      </trkpt>
      <trkpt lat="46.63381" lon="4.83549">
        <ele>257.5</ele>
      </trkpt>
      <trkpt lat="46.63399" lon="4.83549">
        <ele>256.3</ele>
      </trkpt>
      <trkpt lat="46.63424" lon="4.83556">
        <ele>255.2</ele>
      </trkpt>
      <trkpt lat="46.63447" lon="4.83569">
        <ele>254.2</ele>
      </trkpt>
      <trkpt lat="46.63478" lon="4.83595">
        <ele>254</ele>
      </trkpt>
      <trkpt lat="46.63488" lon="4.83601">
        <ele>253.5</ele>
      </trkpt>
      <trkpt lat="46.63498" lon="4.83599">
        <ele>251.9</ele>
      </trkpt>
      <trkpt lat="46.63505" lon="4.83591">
        <ele>250.5</ele>
      </trkpt>
      <trkpt lat="46.63509" lon="4.83584">
        <ele>249.5</ele>
      </trkpt>
      <trkpt lat="46.63516" lon="4.83606">
        <ele>251.3</ele>
      </trkpt>
      <trkpt lat="46.63525" lon="4.83631">
        <ele>252.7</ele>
      </trkpt>
      <trkpt lat="46.63536" lon="4.83669">
        <ele>255.3</ele>
      </trkpt>
      <trkpt lat="46.63537" lon="4.83675">
        <ele>255.6</ele>
      </trkpt>
      <trkpt lat="46.63538" lon="4.83679">
        <ele>255.8</ele>
      </trkpt>
      <trkpt lat="46.63535" lon="4.83724">
        <ele>258.6</ele>
      </trkpt>
      <trkpt lat="46.63532" lon="4.83732">
        <ele>259.4</ele>
      </trkpt>
      <trkpt lat="46.6353" lon="4.83737">
        <ele>260</ele>
      </trkpt>
      <trkpt lat="46.63522" lon="4.83755">
        <ele>261.6</ele>
      </trkpt>
      <trkpt lat="46.63517" lon="4.83781">
        <ele>262.9</ele>
      </trkpt>
      <trkpt lat="46.63514" lon="4.83805">
        <ele>264.5</ele>
      </trkpt>
      <trkpt lat="46.63503" lon="4.8382">
        <ele>266.2</ele>
      </trkpt>
      <trkpt lat="46.63493" lon="4.83832">
        <ele>267.7</ele>
      </trkpt>
      <trkpt lat="46.63481" lon="4.83848">
        <ele>269.6</ele>
      </trkpt>
      <trkpt lat="46.63473" lon="4.83855">
        <ele>270.7</ele>
      </trkpt>
      <trkpt lat="46.63461" lon="4.83863">
        <ele>271.8</ele>
      </trkpt>
      <trkpt lat="46.63452" lon="4.83869">
        <ele>272.5</ele>
      </trkpt>
      <trkpt lat="46.6345" lon="4.83877">
        <ele>272.7</ele>
      </trkpt>
      <trkpt lat="46.63453" lon="4.83875">
        <ele>272.5</ele>
      </trkpt>
      <trkpt lat="46.63537" lon="4.83882">
        <ele>265.8</ele>
      </trkpt>
      <trkpt lat="46.63581" lon="4.83888">
        <ele>261.2</ele>
      </trkpt>
      <trkpt lat="46.63586" lon="4.83895">
        <ele>260.8</ele>
      </trkpt>
      <trkpt lat="46.63588" lon="4.839">
        <ele>260.5</ele>
      </trkpt>
      <trkpt lat="46.63591" lon="4.83905">
        <ele>260.3</ele>
      </trkpt>
      <trkpt lat="46.63594" lon="4.83913">
        <ele>260.2</ele>
      </trkpt>
      <trkpt lat="46.63595" lon="4.83923">
        <ele>260.4</ele>
      </trkpt>
      <trkpt lat="46.63596" lon="4.8394">
        <ele>260.9</ele>
      </trkpt>
      <trkpt lat="46.63596" lon="4.83941">
        <ele>261</ele>
      </trkpt>
      <trkpt lat="46.63593" lon="4.83949">
        <ele>261.3</ele>
      </trkpt>
      <trkpt lat="46.63592" lon="4.83951">
        <ele>261.3</ele>
      </trkpt>
      <trkpt lat="46.63591" lon="4.83956">
        <ele>261.3</ele>
      </trkpt>
      <trkpt lat="46.63591" lon="4.83957">
        <ele>261.3</ele>
      </trkpt>
      <trkpt lat="46.6359" lon="4.83962">
        <ele>261.4</ele>
      </trkpt>
      <trkpt lat="46.63589" lon="4.83967">
        <ele>261.4</ele>
      </trkpt>
      <trkpt lat="46.63584" lon="4.84004">
        <ele>260.8</ele>
      </trkpt>
      <trkpt lat="46.63583" lon="4.84029">
        <ele>260</ele>
      </trkpt>
      <trkpt lat="46.63582" lon="4.84032">
        <ele>259.9</ele>
      </trkpt>
      <trkpt lat="46.63582" lon="4.84036">
        <ele>259.8</ele>
      </trkpt>
      <trkpt lat="46.63577" lon="4.84063">
        <ele>259.2</ele>
      </trkpt>
      <trkpt lat="46.63571" lon="4.84091">
        <ele>259.5</ele>
      </trkpt>
      <trkpt lat="46.63568" lon="4.84115">
        <ele>260</ele>
      </trkpt>
      <trkpt lat="46.63564" lon="4.84163">
        <ele>260.9</ele>
      </trkpt>
      <trkpt lat="46.63563" lon="4.84201">
        <ele>262.5</ele>
      </trkpt>
      <trkpt lat="46.63555" lon="4.84235">
        <ele>264.1</ele>
      </trkpt>
      <trkpt lat="46.63549" lon="4.8427">
        <ele>265.8</ele>
      </trkpt>
      <trkpt lat="46.6354" lon="4.84308">
        <ele>268.2</ele>
      </trkpt>
      <trkpt lat="46.63536" lon="4.84333">
        <ele>269.1</ele>
      </trkpt>
      <trkpt lat="46.63535" lon="4.8434">
        <ele>269.4</ele>
      </trkpt>
      <trkpt lat="46.63532" lon="4.8436">
        <ele>270.5</ele>
      </trkpt>
      <trkpt lat="46.6353" lon="4.84368">
        <ele>270.8</ele>
      </trkpt>
      <trkpt lat="46.6352" lon="4.84408">
        <ele>272.8</ele>
      </trkpt>
      <trkpt lat="46.63517" lon="4.84425">
        <ele>273.6</ele>
      </trkpt>
      <trkpt lat="46.63516" lon="4.84436">
        <ele>273.8</ele>
      </trkpt>
      <trkpt lat="46.63513" lon="4.84462">
        <ele>273.8</ele>
      </trkpt>
      <trkpt lat="46.63509" lon="4.84483">
        <ele>274.2</ele>
      </trkpt>
      <trkpt lat="46.63507" lon="4.84504">
        <ele>274.4</ele>
      </trkpt>
      <trkpt lat="46.63508" lon="4.84551">
        <ele>273.9</ele>
      </trkpt>
      <trkpt lat="46.63508" lon="4.84563">
        <ele>273.9</ele>
      </trkpt>
      <trkpt lat="46.6351" lon="4.84592">
        <ele>273.7</ele>
      </trkpt>
      <trkpt lat="46.63516" lon="4.84629">
        <ele>272.5</ele>
      </trkpt>
      <trkpt lat="46.63518" lon="4.84651">
        <ele>271.6</ele>
      </trkpt>
      <trkpt lat="46.63516" lon="4.84685">
        <ele>270</ele>
      </trkpt>
      <trkpt lat="46.63509" lon="4.84712">
        <ele>269.2</ele>
      </trkpt>
      <trkpt lat="46.63496" lon="4.84743">
        <ele>269.1</ele>
      </trkpt>
      <trkpt lat="46.63491" lon="4.84758">
        <ele>268.8</ele>
      </trkpt>
      <trkpt lat="46.63486" lon="4.84769">
        <ele>268.6</ele>
      </trkpt>
      <trkpt lat="46.63483" lon="4.84779">
        <ele>268.4</ele>
      </trkpt>
      <trkpt lat="46.63475" lon="4.84798">
        <ele>268.2</ele>
      </trkpt>
      <trkpt lat="46.63471" lon="4.84811">
        <ele>267.8</ele>
      </trkpt>
      <trkpt lat="46.63468" lon="4.84816">
        <ele>267.5</ele>
      </trkpt>
      <trkpt lat="46.63467" lon="4.8482">
        <ele>267.3</ele>
      </trkpt>
      <trkpt lat="46.6346" lon="4.84848">
        <ele>265.8</ele>
      </trkpt>
      <trkpt lat="46.63457" lon="4.8486">
        <ele>265.2</ele>
      </trkpt>
      <trkpt lat="46.63455" lon="4.84872">
        <ele>264.9</ele>
      </trkpt>
      <trkpt lat="46.63453" lon="4.84899">
        <ele>264.1</ele>
      </trkpt>
      <trkpt lat="46.63452" lon="4.84926">
        <ele>264.1</ele>
      </trkpt>
      <trkpt lat="46.63438" lon="4.84953">
        <ele>265.9</ele>
      </trkpt>
      <trkpt lat="46.63431" lon="4.84972">
        <ele>267.5</ele>
      </trkpt>
      <trkpt lat="46.63424" lon="4.84992">
        <ele>269.7</ele>
      </trkpt>
      <trkpt lat="46.63418" lon="4.85015">
        <ele>272.5</ele>
      </trkpt>
      <trkpt lat="46.6341" lon="4.85039">
        <ele>275.4</ele>
      </trkpt>
      <trkpt lat="46.63405" lon="4.8506">
        <ele>277.7</ele>
      </trkpt>
      <trkpt lat="46.63402" lon="4.85074">
        <ele>278.9</ele>
      </trkpt>
      <trkpt lat="46.63399" lon="4.85081">
        <ele>279.5</ele>
      </trkpt>
      <trkpt lat="46.63399" lon="4.85086">
        <ele>279.7</ele>
      </trkpt>
      <trkpt lat="46.63401" lon="4.85094">
        <ele>279.9</ele>
      </trkpt>
      <trkpt lat="46.63402" lon="4.85101">
        <ele>280.1</ele>
      </trkpt>
      <trkpt lat="46.63404" lon="4.85109">
        <ele>280.5</ele>
      </trkpt>
      <trkpt lat="46.63406" lon="4.85113">
        <ele>280.5</ele>
      </trkpt>
      <trkpt lat="46.6341" lon="4.85114">
        <ele>280.6</ele>
      </trkpt>
      <trkpt lat="46.63421" lon="4.85114">
        <ele>280.8</ele>
      </trkpt>
      <trkpt lat="46.63437" lon="4.85116">
        <ele>280.4</ele>
      </trkpt>
      <trkpt lat="46.63458" lon="4.85125">
        <ele>280</ele>
      </trkpt>
      <trkpt lat="46.6348" lon="4.85141">
        <ele>279.7</ele>
      </trkpt>
      <trkpt lat="46.63485" lon="4.85142">
        <ele>279.5</ele>
      </trkpt>
      <trkpt lat="46.63497" lon="4.85135">
        <ele>279</ele>
      </trkpt>
      <trkpt lat="46.63525" lon="4.85137">
        <ele>278.9</ele>
      </trkpt>
      <trkpt lat="46.63528" lon="4.85141">
        <ele>279</ele>
      </trkpt>
      <trkpt lat="46.63527" lon="4.85145">
        <ele>279</ele>
      </trkpt>
      <trkpt lat="46.63528" lon="4.85158">
        <ele>279</ele>
      </trkpt>
      <trkpt lat="46.63532" lon="4.85162">
        <ele>279</ele>
      </trkpt>
      <trkpt lat="46.63542" lon="4.85165">
        <ele>279</ele>
      </trkpt>
      <trkpt lat="46.6356" lon="4.85164">
        <ele>278.9</ele>
      </trkpt>
      <trkpt lat="46.63597" lon="4.85185">
        <ele>279.4</ele>
      </trkpt>
      <trkpt lat="46.63616" lon="4.85191">
        <ele>279.3</ele>
      </trkpt>
      <trkpt lat="46.63629" lon="4.85201">
        <ele>279.2</ele>
      </trkpt>
      <trkpt lat="46.63651" lon="4.85214">
        <ele>279.5</ele>
      </trkpt>
      <trkpt lat="46.63655" lon="4.85225">
        <ele>280.5</ele>
      </trkpt>
      <trkpt lat="46.63661" lon="4.85224">
        <ele>280.3</ele>
      </trkpt>
      <trkpt lat="46.63689" lon="4.85241">
        <ele>283.2</ele>
      </trkpt>
      <trkpt lat="46.63706" lon="4.85244">
        <ele>284.4</ele>
      </trkpt>
      <trkpt lat="46.63758" lon="4.85246">
        <ele>287.2</ele>
      </trkpt>
      <trkpt lat="46.63783" lon="4.85251">
        <ele>287.8</ele>
      </trkpt>
      <trkpt lat="46.63786" lon="4.85252">
        <ele>287.8</ele>
      </trkpt>
      <trkpt lat="46.63792" lon="4.85257">
        <ele>288.2</ele>
      </trkpt>
      <trkpt lat="46.63815" lon="4.85278">
        <ele>290</ele>
      </trkpt>
      <trkpt lat="46.6382" lon="4.85284">
        <ele>290.1</ele>
      </trkpt>
      <trkpt lat="46.63833" lon="4.85303">
        <ele>291.6</ele>
      </trkpt>
      <trkpt lat="46.63835" lon="4.85306">
        <ele>292</ele>
      </trkpt>
      <trkpt lat="46.63856" lon="4.85327">
        <ele>293.4</ele>
      </trkpt>
      <trkpt lat="46.63859" lon="4.85332">
        <ele>293.8</ele>
      </trkpt>
      <trkpt lat="46.63862" lon="4.85338">
        <ele>294.1</ele>
      </trkpt>
      <trkpt lat="46.63863" lon="4.8535">
        <ele>294.6</ele>
      </trkpt>
      <trkpt lat="46.6386" lon="4.85368">
        <ele>295.2</ele>
      </trkpt>
      <trkpt lat="46.63858" lon="4.85372">
        <ele>295.2</ele>
      </trkpt>
      <trkpt lat="46.63856" lon="4.85379">
        <ele>295.3</ele>
      </trkpt>
      <trkpt lat="46.63855" lon="4.85385">
        <ele>295.5</ele>
      </trkpt>
      <trkpt lat="46.63854" lon="4.85398">
        <ele>295.1</ele>
      </trkpt>
      <trkpt lat="46.63856" lon="4.85411">
        <ele>294.6</ele>
      </trkpt>
      <trkpt lat="46.63835" lon="4.85399">
        <ele>293.4</ele>
      </trkpt>
      <trkpt lat="46.63824" lon="4.85396">
        <ele>292.5</ele>
      </trkpt>
      <trkpt lat="46.63812" lon="4.85403">
        <ele>290.7</ele>
      </trkpt>
      <trkpt lat="46.63799" lon="4.85409">
        <ele>288.7</ele>
      </trkpt>
      <trkpt lat="46.63787" lon="4.85423">
        <ele>285.9</ele>
      </trkpt>
      <trkpt lat="46.63771" lon="4.8545">
        <ele>281.2</ele>
      </trkpt>
      <trkpt lat="46.63765" lon="4.8545">
        <ele>280.1</ele>
      </trkpt>
      <trkpt lat="46.63759" lon="4.85455">
        <ele>278.5</ele>
      </trkpt>
      <trkpt lat="46.63759" lon="4.85461">
        <ele>277.7</ele>
      </trkpt>
      <trkpt lat="46.6376" lon="4.8547">
        <ele>277.1</ele>
      </trkpt>
      <trkpt lat="46.63758" lon="4.85478">
        <ele>275.6</ele>
      </trkpt>
      <trkpt lat="46.63747" lon="4.85497">
        <ele>271.1</ele>
      </trkpt>
      <trkpt lat="46.6373" lon="4.85512">
        <ele>266.5</ele>
      </trkpt>
      <trkpt lat="46.63721" lon="4.85521">
        <ele>263.8</ele>
      </trkpt>
      <trkpt lat="46.63706" lon="4.85529">
        <ele>260.5</ele>
      </trkpt>
      <trkpt lat="46.63691" lon="4.85536">
        <ele>257.7</ele>
      </trkpt>
      <trkpt lat="46.63668" lon="4.85548">
        <ele>253.3</ele>
      </trkpt>
      <trkpt lat="46.63656" lon="4.85558">
        <ele>250.9</ele>
      </trkpt>
      <trkpt lat="46.63647" lon="4.85563">
        <ele>249.6</ele>
      </trkpt>
      <trkpt lat="46.6363" lon="4.8557">
        <ele>247.1</ele>
      </trkpt>
      <trkpt lat="46.63594" lon="4.85583">
        <ele>242.8</ele>
      </trkpt>
      <trkpt lat="46.63582" lon="4.85592">
        <ele>241.3</ele>
      </trkpt>
      <trkpt lat="46.63582" lon="4.85597">
        <ele>240.9</ele>
      </trkpt>
      <trkpt lat="46.63577" lon="4.85607">
        <ele>240</ele>
      </trkpt>
      <trkpt lat="46.63532" lon="4.85683">
        <ele>234</ele>
      </trkpt>
      <trkpt lat="46.63504" lon="4.85725">
        <ele>231.1</ele>
      </trkpt>
      <trkpt lat="46.63489" lon="4.8575">
        <ele>229.2</ele>
      </trkpt>
      <trkpt lat="46.63485" lon="4.85765">
        <ele>228.9</ele>
      </trkpt>
      <trkpt lat="46.63476" lon="4.85752">
        <ele>228.3</ele>
      </trkpt>
      <trkpt lat="46.63456" lon="4.85728">
        <ele>228.5</ele>
      </trkpt>
      <trkpt lat="46.63442" lon="4.85713">
        <ele>228.1</ele>
      </trkpt>
      <trkpt lat="46.63429" lon="4.85702">
        <ele>227.6</ele>
      </trkpt>
      <trkpt lat="46.63411" lon="4.85686">
        <ele>227.4</ele>
      </trkpt>
      <trkpt lat="46.6336" lon="4.85641">
        <ele>227.8</ele>
      </trkpt>
      <trkpt lat="46.63338" lon="4.85619">
        <ele>227.7</ele>
      </trkpt>
      <trkpt lat="46.63312" lon="4.85597">
        <ele>227.7</ele>
      </trkpt>
      <trkpt lat="46.63294" lon="4.85583">
        <ele>228</ele>
      </trkpt>
      <trkpt lat="46.63235" lon="4.8553">
        <ele>229.5</ele>
      </trkpt>
      <trkpt lat="46.63218" lon="4.85516">
        <ele>230</ele>
      </trkpt>
      <trkpt lat="46.63212" lon="4.8551">
        <ele>230.5</ele>
      </trkpt>
      <trkpt lat="46.63196" lon="4.85498">
        <ele>231.1</ele>
      </trkpt>
      <trkpt lat="46.63181" lon="4.85487">
        <ele>231.7</ele>
      </trkpt>
      <trkpt lat="46.63184" lon="4.85494">
        <ele>231.4</ele>
      </trkpt>
      <trkpt lat="46.63187" lon="4.85503">
        <ele>231</ele>
      </trkpt>
      <trkpt lat="46.6319" lon="4.85512">
        <ele>231</ele>
      </trkpt>
      <trkpt lat="46.63192" lon="4.85522">
        <ele>231</ele>
      </trkpt>
      <trkpt lat="46.63199" lon="4.85564">
        <ele>230.8</ele>
      </trkpt>
      <trkpt lat="46.63203" lon="4.85575">
        <ele>230.7</ele>
      </trkpt>
      <trkpt lat="46.63215" lon="4.85616">
        <ele>230.5</ele>
      </trkpt>
      <trkpt lat="46.63234" lon="4.85663">
        <ele>231</ele>
      </trkpt>
      <trkpt lat="46.63243" lon="4.85684">
        <ele>231.1</ele>
      </trkpt>
      <trkpt lat="46.63247" lon="4.85694">
        <ele>231.2</ele>
      </trkpt>
      <trkpt lat="46.63257" lon="4.85719">
        <ele>231.4</ele>
      </trkpt>
      <trkpt lat="46.6327" lon="4.85751">
        <ele>232.1</ele>
      </trkpt>
      <trkpt lat="46.63284" lon="4.85773">
        <ele>231.2</ele>
      </trkpt>
      <trkpt lat="46.63308" lon="4.85813">
        <ele>230</ele>
      </trkpt>
      <trkpt lat="46.63315" lon="4.85832">
        <ele>229.9</ele>
      </trkpt>
      <trkpt lat="46.63323" lon="4.85842">
        <ele>229.6</ele>
      </trkpt>
      <trkpt lat="46.63334" lon="4.85866">
        <ele>229.1</ele>
      </trkpt>
      <trkpt lat="46.63344" lon="4.859">
        <ele>229.3</ele>
      </trkpt>
      <trkpt lat="46.63351" lon="4.85926">
        <ele>228.9</ele>
      </trkpt>
      <trkpt lat="46.63356" lon="4.85943">
        <ele>228</ele>
      </trkpt>
      <trkpt lat="46.63359" lon="4.85955">
        <ele>228.7</ele>
      </trkpt>
      <trkpt lat="46.63364" lon="4.85971">
        <ele>231.1</ele>
      </trkpt>
      <trkpt lat="46.63366" lon="4.8598">
        <ele>232.3</ele>
      </trkpt>
      <trkpt lat="46.63369" lon="4.85991">
        <ele>233.5</ele>
      </trkpt>
      <trkpt lat="46.63372" lon="4.86002">
        <ele>234.1</ele>
      </trkpt>
      <trkpt lat="46.63373" lon="4.86006">
        <ele>233.2</ele>
      </trkpt>
      <trkpt lat="46.63375" lon="4.86011">
        <ele>232.1</ele>
      </trkpt>
      <trkpt lat="46.63377" lon="4.86019">
        <ele>230.2</ele>
      </trkpt>
      <trkpt lat="46.63395" lon="4.86078">
        <ele>225.4</ele>
      </trkpt>
      <trkpt lat="46.63407" lon="4.86107">
        <ele>225.3</ele>
      </trkpt>
      <trkpt lat="46.6342" lon="4.86127">
        <ele>224.4</ele>
      </trkpt>
      <trkpt lat="46.63432" lon="4.86152">
        <ele>224.3</ele>
      </trkpt>
      <trkpt lat="46.63434" lon="4.86155">
        <ele>224.2</ele>
      </trkpt>
      <trkpt lat="46.63439" lon="4.86168">
        <ele>223.7</ele>
      </trkpt>
      <trkpt lat="46.63449" lon="4.86179">
        <ele>222.4</ele>
      </trkpt>
      <trkpt lat="46.63455" lon="4.86187">
        <ele>222.1</ele>
      </trkpt>
      <trkpt lat="46.63457" lon="4.86189">
        <ele>222</ele>
      </trkpt>
      <trkpt lat="46.6347" lon="4.86215">
        <ele>222.1</ele>
      </trkpt>
      <trkpt lat="46.6348" lon="4.86227">
        <ele>221.9</ele>
      </trkpt>
      <trkpt lat="46.63503" lon="4.86241">
        <ele>221.5</ele>
      </trkpt>
      <trkpt lat="46.63511" lon="4.86245">
        <ele>221.1</ele>
      </trkpt>
      <trkpt lat="46.63522" lon="4.86247">
        <ele>220.4</ele>
      </trkpt>
      <trkpt lat="46.63533" lon="4.8623">
        <ele>219.9</ele>
      </trkpt>
      <trkpt lat="46.63537" lon="4.86224">
        <ele>219.7</ele>
      </trkpt>
      <trkpt lat="46.63555" lon="4.86193">
        <ele>219.1</ele>
      </trkpt>
      <trkpt lat="46.63583" lon="4.86137">
        <ele>220.1</ele>
      </trkpt>
      <trkpt lat="46.63585" lon="4.86128">
        <ele>220.5</ele>
      </trkpt>
      <trkpt lat="46.63587" lon="4.86119">
        <ele>221</ele>
      </trkpt>
      <trkpt lat="46.63587" lon="4.86116">
        <ele>221.1</ele>
      </trkpt>
      <trkpt lat="46.63588" lon="4.86104">
        <ele>221.6</ele>
      </trkpt>
      <trkpt lat="46.63588" lon="4.86072">
        <ele>223</ele>
      </trkpt>
      <trkpt lat="46.63588" lon="4.86049">
        <ele>224.4</ele>
      </trkpt>
      <trkpt lat="46.63608" lon="4.86068">
        <ele>224.4</ele>
      </trkpt>
      <trkpt lat="46.63612" lon="4.86069">
        <ele>224.6</ele>
      </trkpt>
      <trkpt lat="46.63615" lon="4.86069">
        <ele>224.7</ele>
      </trkpt>
      <trkpt lat="46.63621" lon="4.86069">
        <ele>224.9</ele>
      </trkpt>
      <trkpt lat="46.63637" lon="4.86074">
        <ele>225.3</ele>
      </trkpt>
      <trkpt lat="46.63664" lon="4.86085">
        <ele>226.7</ele>
      </trkpt>
      <trkpt lat="46.63668" lon="4.86086">
        <ele>226.8</ele>
      </trkpt>
      <trkpt lat="46.63679" lon="4.86089">
        <ele>226.7</ele>
      </trkpt>
      <trkpt lat="46.63698" lon="4.8609">
        <ele>226.7</ele>
      </trkpt>
      <trkpt lat="46.63711" lon="4.86088">
        <ele>226.4</ele>
      </trkpt>
      <trkpt lat="46.6372" lon="4.86085">
        <ele>226.1</ele>
      </trkpt>
      <trkpt lat="46.63728" lon="4.8608">
        <ele>226.1</ele>
      </trkpt>
      <trkpt lat="46.63739" lon="4.86074">
        <ele>226.3</ele>
      </trkpt>
      <trkpt lat="46.63769" lon="4.86061">
        <ele>226</ele>
      </trkpt>
      <trkpt lat="46.6378" lon="4.86058">
        <ele>225.8</ele>
      </trkpt>
      <trkpt lat="46.63791" lon="4.86057">
        <ele>225.4</ele>
      </trkpt>
      <trkpt lat="46.6384" lon="4.86067">
        <ele>224.7</ele>
      </trkpt>
      <trkpt lat="46.63892" lon="4.86082">
        <ele>223.2</ele>
      </trkpt>
      <trkpt lat="46.63946" lon="4.86115">
        <ele>221.9</ele>
      </trkpt>
      <trkpt lat="46.63978" lon="4.86135">
        <ele>221.3</ele>
      </trkpt>
      <trkpt lat="46.63985" lon="4.86139">
        <ele>221</ele>
      </trkpt>
      <trkpt lat="46.63997" lon="4.86144">
        <ele>220.8</ele>
      </trkpt>
      <trkpt lat="46.64014" lon="4.86148">
        <ele>220.7</ele>
      </trkpt>
      <trkpt lat="46.64035" lon="4.8615">
        <ele>220.6</ele>
      </trkpt>
      <trkpt lat="46.64038" lon="4.86151">
        <ele>220.6</ele>
      </trkpt>
      <trkpt lat="46.64066" lon="4.86149">
        <ele>220.6</ele>
      </trkpt>
      <trkpt lat="46.64081" lon="4.86148">
        <ele>220.7</ele>
      </trkpt>
      <trkpt lat="46.64123" lon="4.86145">
        <ele>220.8</ele>
      </trkpt>
      <trkpt lat="46.64181" lon="4.86149">
        <ele>220.8</ele>
      </trkpt>
      <trkpt lat="46.64198" lon="4.86152">
        <ele>221.1</ele>
      </trkpt>
      <trkpt lat="46.64215" lon="4.86154">
        <ele>221.3</ele>
      </trkpt>
      <trkpt lat="46.64251" lon="4.8616">
        <ele>221.3</ele>
      </trkpt>
      <trkpt lat="46.64297" lon="4.86169">
        <ele>222.6</ele>
      </trkpt>
      <trkpt lat="46.64331" lon="4.86176">
        <ele>222.7</ele>
      </trkpt>
    </trkseg>
  </trk>
  <trk>
    <name><![CDATA[GTM-GRAND_TOUR_DU_MASSIF]]></name>
    <extensions>
      <line xmlns="http://www.topografix.com/GPX/gpx_style/0/2">
        <color>000000</color>
        <width>4</width>
      </line>
    </extensions>
    <trkseg>
      <trkpt lat="46.57057" lon="4.91205">
        <ele>173.6</ele>
      </trkpt>
      <trkpt lat="46.5703" lon="4.91198">
        <ele>173.1</ele>
      </trkpt>
      <trkpt lat="46.57027" lon="4.91197">
        <ele>173</ele>
      </trkpt>
      <trkpt lat="46.57015" lon="4.91193">
        <ele>173</ele>
      </trkpt>
      <trkpt lat="46.56989" lon="4.91185">
        <ele>173.3</ele>
      </trkpt>
      <trkpt lat="46.56921" lon="4.91161">
        <ele>173.7</ele>
      </trkpt>
      <trkpt lat="46.56875" lon="4.91147">
        <ele>173.7</ele>
      </trkpt>
      <trkpt lat="46.56834" lon="4.91135">
        <ele>173.3</ele>
      </trkpt>
      <trkpt lat="46.56813" lon="4.91129">
        <ele>173.7</ele>
      </trkpt>
      <trkpt lat="46.56791" lon="4.91123">
        <ele>173.9</ele>
      </trkpt>
      <trkpt lat="46.56786" lon="4.91121">
        <ele>173.8</ele>
      </trkpt>
      <trkpt lat="46.56782" lon="4.91121">
        <ele>173.8</ele>
      </trkpt>
      <trkpt lat="46.56771" lon="4.91118">
        <ele>174</ele>
      </trkpt>
      <trkpt lat="46.56739" lon="4.91113">
        <ele>174.8</ele>
      </trkpt>
      <trkpt lat="46.56729" lon="4.91112">
        <ele>175</ele>
      </trkpt>
      <trkpt lat="46.5672" lon="4.9111">
        <ele>175</ele>
      </trkpt>
      <trkpt lat="46.56709" lon="4.91109">
        <ele>175</ele>
      </trkpt>
      <trkpt lat="46.56698" lon="4.91107">
        <ele>175</ele>
      </trkpt>
      <trkpt lat="46.56693" lon="4.91104">
        <ele>175</ele>
      </trkpt>
      <trkpt lat="46.56689" lon="4.91094">
        <ele>175</ele>
      </trkpt>
      <trkpt lat="46.56687" lon="4.91087">
        <ele>175</ele>
      </trkpt>
      <trkpt lat="46.56666" lon="4.911">
        <ele>175</ele>
      </trkpt>
      <trkpt lat="46.56655" lon="4.91105">
        <ele>175</ele>
      </trkpt>
      <trkpt lat="46.5664" lon="4.9111">
        <ele>175</ele>
      </trkpt>
      <trkpt lat="46.56625" lon="4.91111">
        <ele>175</ele>
      </trkpt>
      <trkpt lat="46.56608" lon="4.91116">
        <ele>174.8</ele>
      </trkpt>
      <trkpt lat="46.56588" lon="4.91121">
        <ele>174.8</ele>
      </trkpt>
      <trkpt lat="46.56582" lon="4.91123">
        <ele>174.7</ele>
      </trkpt>
      <trkpt lat="46.56576" lon="4.91125">
        <ele>174.6</ele>
      </trkpt>
      <trkpt lat="46.56552" lon="4.91136">
        <ele>175</ele>
      </trkpt>
      <trkpt lat="46.56544" lon="4.91139">
        <ele>175</ele>
      </trkpt>
      <trkpt lat="46.56496" lon="4.91167">
        <ele>175.2</ele>
      </trkpt>
      <trkpt lat="46.56488" lon="4.91171">
        <ele>175.1</ele>
      </trkpt>
      <trkpt lat="46.56469" lon="4.91181">
        <ele>174.7</ele>
      </trkpt>
      <trkpt lat="46.5644" lon="4.91191">
        <ele>177.2</ele>
      </trkpt>
      <trkpt lat="46.56425" lon="4.91198">
        <ele>177.8</ele>
      </trkpt>
      <trkpt lat="46.56399" lon="4.91211">
        <ele>178.2</ele>
      </trkpt>
      <trkpt lat="46.56389" lon="4.91216">
        <ele>179.2</ele>
      </trkpt>
      <trkpt lat="46.56358" lon="4.91235">
        <ele>176.3</ele>
      </trkpt>
      <trkpt lat="46.56332" lon="4.91249">
        <ele>176</ele>
      </trkpt>
      <trkpt lat="46.56299" lon="4.91273">
        <ele>175</ele>
      </trkpt>
      <trkpt lat="46.56255" lon="4.91309">
        <ele>174.8</ele>
      </trkpt>
      <trkpt lat="46.56213" lon="4.91343">
        <ele>174.5</ele>
      </trkpt>
      <trkpt lat="46.56211" lon="4.91345">
        <ele>174.5</ele>
      </trkpt>
      <trkpt lat="46.56205" lon="4.9135">
        <ele>174.6</ele>
      </trkpt>
      <trkpt lat="46.56196" lon="4.91357">
        <ele>174.9</ele>
      </trkpt>
      <trkpt lat="46.56173" lon="4.91377">
        <ele>175.1</ele>
      </trkpt>
      <trkpt lat="46.56164" lon="4.91384">
        <ele>175.3</ele>
      </trkpt>
      <trkpt lat="46.56141" lon="4.91407">
        <ele>175.2</ele>
      </trkpt>
      <trkpt lat="46.56135" lon="4.91414">
        <ele>175.4</ele>
      </trkpt>
      <trkpt lat="46.561" lon="4.91451">
        <ele>174.7</ele>
      </trkpt>
      <trkpt lat="46.56085" lon="4.91466">
        <ele>174.9</ele>
      </trkpt>
      <trkpt lat="46.56067" lon="4.91484">
        <ele>174.9</ele>
      </trkpt>
      <trkpt lat="46.56033" lon="4.91521">
        <ele>174.9</ele>
      </trkpt>
      <trkpt lat="46.56024" lon="4.91529">
        <ele>175.1</ele>
      </trkpt>
      <trkpt lat="46.56021" lon="4.91533">
        <ele>175.1</ele>
      </trkpt>
      <trkpt lat="46.56017" lon="4.91537">
        <ele>175</ele>
      </trkpt>
      <trkpt lat="46.55986" lon="4.9156">
        <ele>174.9</ele>
      </trkpt>
      <trkpt lat="46.5596" lon="4.91578">
        <ele>175.1</ele>
      </trkpt>
      <trkpt lat="46.55957" lon="4.9158">
        <ele>175.1</ele>
      </trkpt>
      <trkpt lat="46.55942" lon="4.9159">
        <ele>175.1</ele>
      </trkpt>
      <trkpt lat="46.55925" lon="4.91602">
        <ele>175.2</ele>
      </trkpt>
      <trkpt lat="46.55871" lon="4.91637">
        <ele>175.1</ele>
      </trkpt>
      <trkpt lat="46.55835" lon="4.91656">
        <ele>175</ele>
      </trkpt>
      <trkpt lat="46.55811" lon="4.91669">
        <ele>174.9</ele>
      </trkpt>
      <trkpt lat="46.55783" lon="4.91687">
        <ele>175.1</ele>
      </trkpt>
      <trkpt lat="46.5576" lon="4.91702">
        <ele>175.5</ele>
      </trkpt>
      <trkpt lat="46.55734" lon="4.91715">
        <ele>175.3</ele>
      </trkpt>
      <trkpt lat="46.55731" lon="4.91718">
        <ele>175.2</ele>
      </trkpt>
      <trkpt lat="46.55702" lon="4.91731">
        <ele>174.6</ele>
      </trkpt>
      <trkpt lat="46.55673" lon="4.91741">
        <ele>174.3</ele>
      </trkpt>
      <trkpt lat="46.55642" lon="4.91749">
        <ele>174.9</ele>
      </trkpt>
      <trkpt lat="46.55638" lon="4.9175">
        <ele>175</ele>
      </trkpt>
      <trkpt lat="46.55603" lon="4.91758">
        <ele>174.8</ele>
      </trkpt>
      <trkpt lat="46.5559" lon="4.91762">
        <ele>175.2</ele>
      </trkpt>
      <trkpt lat="46.55587" lon="4.91749">
        <ele>175.9</ele>
      </trkpt>
      <trkpt lat="46.55574" lon="4.91709">
        <ele>176.9</ele>
      </trkpt>
      <trkpt lat="46.55571" lon="4.917">
        <ele>177</ele>
      </trkpt>
      <trkpt lat="46.55559" lon="4.9166">
        <ele>175.9</ele>
      </trkpt>
      <trkpt lat="46.55558" lon="4.91658">
        <ele>175.9</ele>
      </trkpt>
      <trkpt lat="46.55549" lon="4.91629">
        <ele>176</ele>
      </trkpt>
      <trkpt lat="46.55537" lon="4.91591">
        <ele>176.1</ele>
      </trkpt>
      <trkpt lat="46.55523" lon="4.91585">
        <ele>176</ele>
      </trkpt>
      <trkpt lat="46.55464" lon="4.91593">
        <ele>175.9</ele>
      </trkpt>
      <trkpt lat="46.5543" lon="4.91605">
        <ele>175.9</ele>
      </trkpt>
      <trkpt lat="46.55411" lon="4.91613">
        <ele>176.9</ele>
      </trkpt>
      <trkpt lat="46.55391" lon="4.91625">
        <ele>177</ele>
      </trkpt>
      <trkpt lat="46.55388" lon="4.91621">
        <ele>177</ele>
      </trkpt>
      <trkpt lat="46.55384" lon="4.91619">
        <ele>177</ele>
      </trkpt>
      <trkpt lat="46.55377" lon="4.9162">
        <ele>177</ele>
      </trkpt>
      <trkpt lat="46.55355" lon="4.91627">
        <ele>177.6</ele>
      </trkpt>
      <trkpt lat="46.5533" lon="4.91633">
        <ele>177.6</ele>
      </trkpt>
      <trkpt lat="46.55318" lon="4.91634">
        <ele>177.8</ele>
      </trkpt>
      <trkpt lat="46.55308" lon="4.91633">
        <ele>178</ele>
      </trkpt>
      <trkpt lat="46.55295" lon="4.91629">
        <ele>179.2</ele>
      </trkpt>
      <trkpt lat="46.5527" lon="4.91618">
        <ele>182.7</ele>
      </trkpt>
      <trkpt lat="46.55266" lon="4.91615">
        <ele>182.3</ele>
      </trkpt>
      <trkpt lat="46.55256" lon="4.91608">
        <ele>180.4</ele>
      </trkpt>
      <trkpt lat="46.55244" lon="4.91597">
        <ele>180.6</ele>
      </trkpt>
      <trkpt lat="46.55249" lon="4.91584">
        <ele>181.9</ele>
      </trkpt>
      <trkpt lat="46.55253" lon="4.91574">
        <ele>181.1</ele>
      </trkpt>
      <trkpt lat="46.55254" lon="4.91567">
        <ele>180.4</ele>
      </trkpt>
      <trkpt lat="46.55254" lon="4.91558">
        <ele>179.7</ele>
      </trkpt>
      <trkpt lat="46.55252" lon="4.91549">
        <ele>179.8</ele>
      </trkpt>
      <trkpt lat="46.55249" lon="4.91544">
        <ele>180.1</ele>
      </trkpt>
      <trkpt lat="46.55246" lon="4.91541">
        <ele>180.4</ele>
      </trkpt>
      <trkpt lat="46.55225" lon="4.9152">
        <ele>181.8</ele>
      </trkpt>
      <trkpt lat="46.552" lon="4.915">
        <ele>182.8</ele>
      </trkpt>
      <trkpt lat="46.55195" lon="4.91492">
        <ele>182.7</ele>
      </trkpt>
      <trkpt lat="46.55193" lon="4.91484">
        <ele>182.6</ele>
      </trkpt>
      <trkpt lat="46.55192" lon="4.91473">
        <ele>182.3</ele>
      </trkpt>
      <trkpt lat="46.55196" lon="4.91428">
        <ele>181.7</ele>
      </trkpt>
      <trkpt lat="46.55202" lon="4.91398">
        <ele>180.6</ele>
      </trkpt>
      <trkpt lat="46.5521" lon="4.91365">
        <ele>179.6</ele>
      </trkpt>
      <trkpt lat="46.55217" lon="4.91334">
        <ele>181.6</ele>
      </trkpt>
      <trkpt lat="46.55229" lon="4.91267">
        <ele>188.3</ele>
      </trkpt>
      <trkpt lat="46.55233" lon="4.91238">
        <ele>190.2</ele>
      </trkpt>
      <trkpt lat="46.55234" lon="4.91225">
        <ele>190.9</ele>
      </trkpt>
      <trkpt lat="46.55232" lon="4.91207">
        <ele>191</ele>
      </trkpt>
      <trkpt lat="46.5523" lon="4.912">
        <ele>191</ele>
      </trkpt>
      <trkpt lat="46.55228" lon="4.91194">
        <ele>191</ele>
      </trkpt>
      <trkpt lat="46.55227" lon="4.9119">
        <ele>190.8</ele>
      </trkpt>
      <trkpt lat="46.55224" lon="4.91185">
        <ele>190.7</ele>
      </trkpt>
      <trkpt lat="46.55223" lon="4.91178">
        <ele>190.4</ele>
      </trkpt>
      <trkpt lat="46.55223" lon="4.91163">
        <ele>190.2</ele>
      </trkpt>
      <trkpt lat="46.55229" lon="4.91076">
        <ele>193.6</ele>
      </trkpt>
      <trkpt lat="46.5523" lon="4.91067">
        <ele>193.6</ele>
      </trkpt>
      <trkpt lat="46.55234" lon="4.91014">
        <ele>194.5</ele>
      </trkpt>
      <trkpt lat="46.55241" lon="4.90982">
        <ele>195.2</ele>
      </trkpt>
      <trkpt lat="46.55249" lon="4.90952">
        <ele>195</ele>
      </trkpt>
      <trkpt lat="46.55254" lon="4.90934">
        <ele>194.9</ele>
      </trkpt>
      <trkpt lat="46.55255" lon="4.9093">
        <ele>194.8</ele>
      </trkpt>
      <trkpt lat="46.55269" lon="4.90889">
        <ele>194.3</ele>
      </trkpt>
      <trkpt lat="46.55288" lon="4.90828">
        <ele>192.9</ele>
      </trkpt>
      <trkpt lat="46.5529" lon="4.90822">
        <ele>192.8</ele>
      </trkpt>
      <trkpt lat="46.55305" lon="4.90776">
        <ele>190</ele>
      </trkpt>
      <trkpt lat="46.55313" lon="4.90752">
        <ele>189.3</ele>
      </trkpt>
      <trkpt lat="46.55316" lon="4.90743">
        <ele>188.8</ele>
      </trkpt>
      <trkpt lat="46.55317" lon="4.90739">
        <ele>188.7</ele>
      </trkpt>
      <trkpt lat="46.55336" lon="4.9074">
        <ele>187.3</ele>
      </trkpt>
      <trkpt lat="46.55381" lon="4.90739">
        <ele>186.6</ele>
      </trkpt>
      <trkpt lat="46.55409" lon="4.90739">
        <ele>186.1</ele>
      </trkpt>
      <trkpt lat="46.55425" lon="4.90738">
        <ele>185.8</ele>
      </trkpt>
      <trkpt lat="46.55467" lon="4.90734">
        <ele>185.1</ele>
      </trkpt>
      <trkpt lat="46.55513" lon="4.90727">
        <ele>185.6</ele>
      </trkpt>
      <trkpt lat="46.55545" lon="4.90721">
        <ele>186.1</ele>
      </trkpt>
      <trkpt lat="46.55565" lon="4.90718">
        <ele>186.8</ele>
      </trkpt>
      <trkpt lat="46.5556" lon="4.90734">
        <ele>187.5</ele>
      </trkpt>
      <trkpt lat="46.55554" lon="4.90753">
        <ele>189</ele>
      </trkpt>
      <trkpt lat="46.55545" lon="4.90768">
        <ele>188.9</ele>
      </trkpt>
      <trkpt lat="46.55525" lon="4.90816">
        <ele>188.2</ele>
      </trkpt>
      <trkpt lat="46.55512" lon="4.90867">
        <ele>188.3</ele>
      </trkpt>
      <trkpt lat="46.5551" lon="4.90876">
        <ele>188.1</ele>
      </trkpt>
      <trkpt lat="46.55501" lon="4.90915">
        <ele>188</ele>
      </trkpt>
      <trkpt lat="46.55492" lon="4.9096">
        <ele>188.3</ele>
      </trkpt>
      <trkpt lat="46.55487" lon="4.91006">
        <ele>187.5</ele>
      </trkpt>
      <trkpt lat="46.55484" lon="4.9105">
        <ele>186.7</ele>
      </trkpt>
      <trkpt lat="46.5548" lon="4.91107">
        <ele>187.1</ele>
      </trkpt>
      <trkpt lat="46.55479" lon="4.91147">
        <ele>187.8</ele>
      </trkpt>
      <trkpt lat="46.55481" lon="4.91204">
        <ele>187.4</ele>
      </trkpt>
      <trkpt lat="46.55482" lon="4.91232">
        <ele>186.7</ele>
      </trkpt>
      <trkpt lat="46.55482" lon="4.91238">
        <ele>186.5</ele>
      </trkpt>
      <trkpt lat="46.55484" lon="4.91242">
        <ele>186.5</ele>
      </trkpt>
      <trkpt lat="46.55485" lon="4.91244">
        <ele>186.6</ele>
      </trkpt>
      <trkpt lat="46.5549" lon="4.91245">
        <ele>187.1</ele>
      </trkpt>
      <trkpt lat="46.55502" lon="4.91245">
        <ele>188.2</ele>
      </trkpt>
      <trkpt lat="46.55517" lon="4.91245">
        <ele>188.7</ele>
      </trkpt>
      <trkpt lat="46.5557" lon="4.91242">
        <ele>189.1</ele>
      </trkpt>
      <trkpt lat="46.55635" lon="4.91238">
        <ele>188.5</ele>
      </trkpt>
      <trkpt lat="46.55655" lon="4.91236">
        <ele>187.9</ele>
      </trkpt>
      <trkpt lat="46.5566" lon="4.91234">
        <ele>187.8</ele>
      </trkpt>
      <trkpt lat="46.55664" lon="4.91231">
        <ele>187.8</ele>
      </trkpt>
      <trkpt lat="46.55715" lon="4.91186">
        <ele>187.3</ele>
      </trkpt>
      <trkpt lat="46.55724" lon="4.91177">
        <ele>187</ele>
      </trkpt>
      <trkpt lat="46.55727" lon="4.91173">
        <ele>187</ele>
      </trkpt>
      <trkpt lat="46.55736" lon="4.91153">
        <ele>186.7</ele>
      </trkpt>
      <trkpt lat="46.55738" lon="4.91149">
        <ele>186.6</ele>
      </trkpt>
      <trkpt lat="46.55749" lon="4.91121">
        <ele>186</ele>
      </trkpt>
      <trkpt lat="46.55749" lon="4.91116">
        <ele>186</ele>
      </trkpt>
      <trkpt lat="46.5575" lon="4.91107">
        <ele>186</ele>
      </trkpt>
      <trkpt lat="46.5575" lon="4.911">
        <ele>186</ele>
      </trkpt>
      <trkpt lat="46.55756" lon="4.91082">
        <ele>186.2</ele>
      </trkpt>
      <trkpt lat="46.55754" lon="4.91077">
        <ele>186.1</ele>
      </trkpt>
      <trkpt lat="46.55753" lon="4.91068">
        <ele>186.1</ele>
      </trkpt>
      <trkpt lat="46.5575" lon="4.91056">
        <ele>186</ele>
      </trkpt>
      <trkpt lat="46.55747" lon="4.91024">
        <ele>187.4</ele>
      </trkpt>
      <trkpt lat="46.55742" lon="4.90998">
        <ele>188.3</ele>
      </trkpt>
      <trkpt lat="46.55739" lon="4.90987">
        <ele>188.7</ele>
      </trkpt>
      <trkpt lat="46.55732" lon="4.90977">
        <ele>188.9</ele>
      </trkpt>
      <trkpt lat="46.55728" lon="4.90975">
        <ele>189</ele>
      </trkpt>
      <trkpt lat="46.55718" lon="4.90968">
        <ele>189.3</ele>
      </trkpt>
      <trkpt lat="46.55703" lon="4.90957">
        <ele>189.9</ele>
      </trkpt>
      <trkpt lat="46.55698" lon="4.9095">
        <ele>190</ele>
      </trkpt>
      <trkpt lat="46.55694" lon="4.90938">
        <ele>190</ele>
      </trkpt>
      <trkpt lat="46.55694" lon="4.90914">
        <ele>190</ele>
      </trkpt>
      <trkpt lat="46.55693" lon="4.90891">
        <ele>190</ele>
      </trkpt>
      <trkpt lat="46.55692" lon="4.9086">
        <ele>190.2</ele>
      </trkpt>
      <trkpt lat="46.55689" lon="4.90815">
        <ele>191.8</ele>
      </trkpt>
      <trkpt lat="46.55687" lon="4.90768">
        <ele>193.1</ele>
      </trkpt>
      <trkpt lat="46.55688" lon="4.90753">
        <ele>193.2</ele>
      </trkpt>
      <trkpt lat="46.55689" lon="4.90743">
        <ele>193.3</ele>
      </trkpt>
      <trkpt lat="46.55697" lon="4.90744">
        <ele>193.3</ele>
      </trkpt>
      <trkpt lat="46.55713" lon="4.90745">
        <ele>193.7</ele>
      </trkpt>
      <trkpt lat="46.5574" lon="4.90744">
        <ele>193.7</ele>
      </trkpt>
      <trkpt lat="46.55761" lon="4.9074">
        <ele>193.8</ele>
      </trkpt>
      <trkpt lat="46.55781" lon="4.9073">
        <ele>193.9</ele>
      </trkpt>
      <trkpt lat="46.55796" lon="4.90722">
        <ele>193.3</ele>
      </trkpt>
      <trkpt lat="46.55804" lon="4.90715">
        <ele>193.3</ele>
      </trkpt>
      <trkpt lat="46.55827" lon="4.90735">
        <ele>193.1</ele>
      </trkpt>
      <trkpt lat="46.55858" lon="4.90755">
        <ele>192.8</ele>
      </trkpt>
      <trkpt lat="46.55862" lon="4.90758">
        <ele>192.7</ele>
      </trkpt>
      <trkpt lat="46.55882" lon="4.90772">
        <ele>192.2</ele>
      </trkpt>
      <trkpt lat="46.55892" lon="4.90779">
        <ele>192.1</ele>
      </trkpt>
      <trkpt lat="46.55907" lon="4.90788">
        <ele>192.3</ele>
      </trkpt>
      <trkpt lat="46.55927" lon="4.908">
        <ele>192.2</ele>
      </trkpt>
      <trkpt lat="46.55951" lon="4.90811">
        <ele>192</ele>
      </trkpt>
      <trkpt lat="46.55974" lon="4.90821">
        <ele>191.4</ele>
      </trkpt>
      <trkpt lat="46.55996" lon="4.90834">
        <ele>191</ele>
      </trkpt>
      <trkpt lat="46.56011" lon="4.9084">
        <ele>191</ele>
      </trkpt>
      <trkpt lat="46.56019" lon="4.90841">
        <ele>191</ele>
      </trkpt>
      <trkpt lat="46.56023" lon="4.90841">
        <ele>191</ele>
      </trkpt>
      <trkpt lat="46.56025" lon="4.9081">
        <ele>191.1</ele>
      </trkpt>
      <trkpt lat="46.56027" lon="4.90794">
        <ele>191</ele>
      </trkpt>
      <trkpt lat="46.56032" lon="4.90738">
        <ele>192.6</ele>
      </trkpt>
      <trkpt lat="46.56034" lon="4.9071">
        <ele>193.2</ele>
      </trkpt>
      <trkpt lat="46.56035" lon="4.90659">
        <ele>194</ele>
      </trkpt>
      <trkpt lat="46.56036" lon="4.90613">
        <ele>194.3</ele>
      </trkpt>
      <trkpt lat="46.56034" lon="4.90576">
        <ele>194.7</ele>
      </trkpt>
      <trkpt lat="46.56022" lon="4.90488">
        <ele>196.6</ele>
      </trkpt>
      <trkpt lat="46.5601" lon="4.90394">
        <ele>198</ele>
      </trkpt>
      <trkpt lat="46.56008" lon="4.90378">
        <ele>197.8</ele>
      </trkpt>
      <trkpt lat="46.5601" lon="4.90334">
        <ele>198.4</ele>
      </trkpt>
      <trkpt lat="46.56011" lon="4.90325">
        <ele>198.6</ele>
      </trkpt>
      <trkpt lat="46.56014" lon="4.9025">
        <ele>200</ele>
      </trkpt>
      <trkpt lat="46.56017" lon="4.90158">
        <ele>201.6</ele>
      </trkpt>
      <trkpt lat="46.56019" lon="4.901">
        <ele>202.1</ele>
      </trkpt>
      <trkpt lat="46.56023" lon="4.89977">
        <ele>204.8</ele>
      </trkpt>
      <trkpt lat="46.56024" lon="4.89902">
        <ele>206.7</ele>
      </trkpt>
      <trkpt lat="46.56026" lon="4.89843">
        <ele>208.7</ele>
      </trkpt>
      <trkpt lat="46.56027" lon="4.89805">
        <ele>208.8</ele>
      </trkpt>
      <trkpt lat="46.56027" lon="4.89777">
        <ele>205</ele>
      </trkpt>
      <trkpt lat="46.56027" lon="4.89775">
        <ele>205.1</ele>
      </trkpt>
      <trkpt lat="46.56027" lon="4.89761">
        <ele>205.6</ele>
      </trkpt>
      <trkpt lat="46.56027" lon="4.89751">
        <ele>206</ele>
      </trkpt>
      <trkpt lat="46.56027" lon="4.89717">
        <ele>210.4</ele>
      </trkpt>
      <trkpt lat="46.56027" lon="4.89715">
        <ele>210.5</ele>
      </trkpt>
      <trkpt lat="46.56027" lon="4.89683">
        <ele>211.6</ele>
      </trkpt>
      <trkpt lat="46.56027" lon="4.89634">
        <ele>211</ele>
      </trkpt>
      <trkpt lat="46.56027" lon="4.89607">
        <ele>211</ele>
      </trkpt>
      <trkpt lat="46.56027" lon="4.89607">
        <ele>211</ele>
      </trkpt>
      <trkpt lat="46.56028" lon="4.89593">
        <ele>211</ele>
      </trkpt>
      <trkpt lat="46.56028" lon="4.89521">
        <ele>212</ele>
      </trkpt>
      <trkpt lat="46.56026" lon="4.89496">
        <ele>212.2</ele>
      </trkpt>
      <trkpt lat="46.5603" lon="4.89489">
        <ele>212.5</ele>
      </trkpt>
      <trkpt lat="46.56032" lon="4.89484">
        <ele>212.7</ele>
      </trkpt>
      <trkpt lat="46.56033" lon="4.89477">
        <ele>213</ele>
      </trkpt>
      <trkpt lat="46.56037" lon="4.89441">
        <ele>214.8</ele>
      </trkpt>
      <trkpt lat="46.56044" lon="4.89379">
        <ele>216.9</ele>
      </trkpt>
      <trkpt lat="46.56051" lon="4.89326">
        <ele>218.6</ele>
      </trkpt>
      <trkpt lat="46.56057" lon="4.89274">
        <ele>219.1</ele>
      </trkpt>
      <trkpt lat="46.56062" lon="4.89239">
        <ele>219.7</ele>
      </trkpt>
      <trkpt lat="46.56064" lon="4.89209">
        <ele>219.4</ele>
      </trkpt>
      <trkpt lat="46.56063" lon="4.89188">
        <ele>219.4</ele>
      </trkpt>
      <trkpt lat="46.56061" lon="4.89147">
        <ele>218.7</ele>
      </trkpt>
      <trkpt lat="46.56057" lon="4.89109">
        <ele>217.9</ele>
      </trkpt>
      <trkpt lat="46.56053" lon="4.89089">
        <ele>218.3</ele>
      </trkpt>
      <trkpt lat="46.56049" lon="4.89055">
        <ele>218</ele>
      </trkpt>
      <trkpt lat="46.56042" lon="4.89021">
        <ele>217</ele>
      </trkpt>
      <trkpt lat="46.56039" lon="4.89">
        <ele>216.6</ele>
      </trkpt>
      <trkpt lat="46.56038" lon="4.8898">
        <ele>215.1</ele>
      </trkpt>
      <trkpt lat="46.5604" lon="4.88951">
        <ele>213.2</ele>
      </trkpt>
      <trkpt lat="46.5604" lon="4.8894">
        <ele>212.8</ele>
      </trkpt>
      <trkpt lat="46.5604" lon="4.8893">
        <ele>212.4</ele>
      </trkpt>
      <trkpt lat="46.56039" lon="4.88921">
        <ele>212.1</ele>
      </trkpt>
      <trkpt lat="46.56036" lon="4.88876">
        <ele>211.4</ele>
      </trkpt>
      <trkpt lat="46.56032" lon="4.88832">
        <ele>210.5</ele>
      </trkpt>
      <trkpt lat="46.56028" lon="4.8879">
        <ele>210</ele>
      </trkpt>
      <trkpt lat="46.56025" lon="4.88748">
        <ele>209.1</ele>
      </trkpt>
      <trkpt lat="46.56025" lon="4.88735">
        <ele>209.1</ele>
      </trkpt>
      <trkpt lat="46.56025" lon="4.88725">
        <ele>209.1</ele>
      </trkpt>
      <trkpt lat="46.56026" lon="4.8871">
        <ele>209.1</ele>
      </trkpt>
      <trkpt lat="46.56032" lon="4.8866">
        <ele>209.2</ele>
      </trkpt>
      <trkpt lat="46.56039" lon="4.88631">
        <ele>210</ele>
      </trkpt>
      <trkpt lat="46.56043" lon="4.8862">
        <ele>210</ele>
      </trkpt>
      <trkpt lat="46.56036" lon="4.88613">
        <ele>210</ele>
      </trkpt>
      <trkpt lat="46.56029" lon="4.88609">
        <ele>210.1</ele>
      </trkpt>
      <trkpt lat="46.56018" lon="4.88604">
        <ele>210.5</ele>
      </trkpt>
      <trkpt lat="46.56008" lon="4.88601">
        <ele>210.8</ele>
      </trkpt>
      <trkpt lat="46.55996" lon="4.88603">
        <ele>211.5</ele>
      </trkpt>
      <trkpt lat="46.55983" lon="4.88608">
        <ele>212.9</ele>
      </trkpt>
      <trkpt lat="46.55974" lon="4.8861">
        <ele>213.8</ele>
      </trkpt>
      <trkpt lat="46.55963" lon="4.88612">
        <ele>214.6</ele>
      </trkpt>
      <trkpt lat="46.55952" lon="4.8861">
        <ele>215.5</ele>
      </trkpt>
      <trkpt lat="46.55942" lon="4.88606">
        <ele>216.5</ele>
      </trkpt>
      <trkpt lat="46.55929" lon="4.88602">
        <ele>218.4</ele>
      </trkpt>
      <trkpt lat="46.55918" lon="4.886">
        <ele>220</ele>
      </trkpt>
      <trkpt lat="46.55908" lon="4.886">
        <ele>221.5</ele>
      </trkpt>
      <trkpt lat="46.559" lon="4.88601">
        <ele>222.5</ele>
      </trkpt>
      <trkpt lat="46.55881" lon="4.88611">
        <ele>224.7</ele>
      </trkpt>
      <trkpt lat="46.55861" lon="4.88622">
        <ele>228.7</ele>
      </trkpt>
      <trkpt lat="46.55852" lon="4.88625">
        <ele>229.7</ele>
      </trkpt>
      <trkpt lat="46.55828" lon="4.88633">
        <ele>233</ele>
      </trkpt>
      <trkpt lat="46.55821" lon="4.88639">
        <ele>234.1</ele>
      </trkpt>
      <trkpt lat="46.55815" lon="4.88648">
        <ele>235</ele>
      </trkpt>
      <trkpt lat="46.5581" lon="4.88662">
        <ele>235.5</ele>
      </trkpt>
      <trkpt lat="46.55807" lon="4.88671">
        <ele>235.8</ele>
      </trkpt>
      <trkpt lat="46.55802" lon="4.88679">
        <ele>237</ele>
      </trkpt>
      <trkpt lat="46.55796" lon="4.88665">
        <ele>238.5</ele>
      </trkpt>
      <trkpt lat="46.55766" lon="4.88572">
        <ele>243.3</ele>
      </trkpt>
      <trkpt lat="46.55749" lon="4.88527">
        <ele>244.5</ele>
      </trkpt>
      <trkpt lat="46.55726" lon="4.88473">
        <ele>248.7</ele>
      </trkpt>
      <trkpt lat="46.55711" lon="4.8844">
        <ele>251.2</ele>
      </trkpt>
      <trkpt lat="46.55677" lon="4.88384">
        <ele>255.1</ele>
      </trkpt>
      <trkpt lat="46.5566" lon="4.8835">
        <ele>255.5</ele>
      </trkpt>
      <trkpt lat="46.55624" lon="4.88287">
        <ele>258.7</ele>
      </trkpt>
      <trkpt lat="46.5558" lon="4.88217">
        <ele>260.6</ele>
      </trkpt>
      <trkpt lat="46.55571" lon="4.88203">
        <ele>261.7</ele>
      </trkpt>
      <trkpt lat="46.55557" lon="4.88185">
        <ele>262.8</ele>
      </trkpt>
      <trkpt lat="46.55544" lon="4.88169">
        <ele>263.3</ele>
      </trkpt>
      <trkpt lat="46.55536" lon="4.88157">
        <ele>263.6</ele>
      </trkpt>
      <trkpt lat="46.55527" lon="4.88139">
        <ele>263.2</ele>
      </trkpt>
      <trkpt lat="46.55515" lon="4.88114">
        <ele>262.6</ele>
      </trkpt>
      <trkpt lat="46.55504" lon="4.8809">
        <ele>261.4</ele>
      </trkpt>
      <trkpt lat="46.55495" lon="4.88066">
        <ele>260.2</ele>
      </trkpt>
      <trkpt lat="46.55482" lon="4.88041">
        <ele>258.9</ele>
      </trkpt>
      <trkpt lat="46.55472" lon="4.88026">
        <ele>258</ele>
      </trkpt>
      <trkpt lat="46.55463" lon="4.88015">
        <ele>257.6</ele>
      </trkpt>
      <trkpt lat="46.55451" lon="4.88006">
        <ele>256.8</ele>
      </trkpt>
      <trkpt lat="46.55449" lon="4.88005">
        <ele>256.6</ele>
      </trkpt>
      <trkpt lat="46.55433" lon="4.87998">
        <ele>255.9</ele>
      </trkpt>
      <trkpt lat="46.55412" lon="4.8799">
        <ele>255.2</ele>
      </trkpt>
      <trkpt lat="46.554" lon="4.87984">
        <ele>254.5</ele>
      </trkpt>
      <trkpt lat="46.55389" lon="4.87977">
        <ele>253.5</ele>
      </trkpt>
      <trkpt lat="46.55377" lon="4.87964">
        <ele>252.8</ele>
      </trkpt>
      <trkpt lat="46.55357" lon="4.87941">
        <ele>252.8</ele>
      </trkpt>
      <trkpt lat="46.55354" lon="4.87938">
        <ele>252.7</ele>
      </trkpt>
      <trkpt lat="46.55346" lon="4.87946">
        <ele>253</ele>
      </trkpt>
      <trkpt lat="46.55336" lon="4.87949">
        <ele>253.2</ele>
      </trkpt>
      <trkpt lat="46.55314" lon="4.87954">
        <ele>253.4</ele>
      </trkpt>
      <trkpt lat="46.55293" lon="4.87955">
        <ele>253.4</ele>
      </trkpt>
      <trkpt lat="46.5528" lon="4.87953">
        <ele>253.3</ele>
      </trkpt>
      <trkpt lat="46.55263" lon="4.87948">
        <ele>253.7</ele>
      </trkpt>
      <trkpt lat="46.55217" lon="4.87919">
        <ele>256</ele>
      </trkpt>
      <trkpt lat="46.5521" lon="4.87906">
        <ele>256</ele>
      </trkpt>
      <trkpt lat="46.55201" lon="4.87901">
        <ele>256</ele>
      </trkpt>
      <trkpt lat="46.55192" lon="4.87895">
        <ele>256.1</ele>
      </trkpt>
      <trkpt lat="46.55174" lon="4.87879">
        <ele>257.2</ele>
      </trkpt>
      <trkpt lat="46.55158" lon="4.87862">
        <ele>258.3</ele>
      </trkpt>
      <trkpt lat="46.55144" lon="4.87847">
        <ele>259.3</ele>
      </trkpt>
      <trkpt lat="46.55114" lon="4.87818">
        <ele>261</ele>
      </trkpt>
      <trkpt lat="46.55075" lon="4.87782">
        <ele>263.3</ele>
      </trkpt>
      <trkpt lat="46.55046" lon="4.87757">
        <ele>265.5</ele>
      </trkpt>
      <trkpt lat="46.55011" lon="4.87724">
        <ele>267.7</ele>
      </trkpt>
      <trkpt lat="46.54991" lon="4.87706">
        <ele>270.7</ele>
      </trkpt>
      <trkpt lat="46.54967" lon="4.87688">
        <ele>272.7</ele>
      </trkpt>
      <trkpt lat="46.5494" lon="4.87669">
        <ele>275.6</ele>
      </trkpt>
      <trkpt lat="46.54911" lon="4.87648">
        <ele>278.1</ele>
      </trkpt>
      <trkpt lat="46.54895" lon="4.87635">
        <ele>279.2</ele>
      </trkpt>
      <trkpt lat="46.54924" lon="4.87637">
        <ele>280.9</ele>
      </trkpt>
      <trkpt lat="46.54945" lon="4.87634">
        <ele>283</ele>
      </trkpt>
      <trkpt lat="46.54968" lon="4.87631">
        <ele>284</ele>
      </trkpt>
      <trkpt lat="46.5498" lon="4.87626">
        <ele>284.7</ele>
      </trkpt>
      <trkpt lat="46.54985" lon="4.87612">
        <ele>286</ele>
      </trkpt>
      <trkpt lat="46.54984" lon="4.87597">
        <ele>286.6</ele>
      </trkpt>
      <trkpt lat="46.54971" lon="4.87578">
        <ele>291.1</ele>
      </trkpt>
      <trkpt lat="46.54954" lon="4.8756">
        <ele>293.9</ele>
      </trkpt>
      <trkpt lat="46.54946" lon="4.87539">
        <ele>297.3</ele>
      </trkpt>
      <trkpt lat="46.54941" lon="4.87526">
        <ele>299.2</ele>
      </trkpt>
      <trkpt lat="46.54927" lon="4.87506">
        <ele>301.5</ele>
      </trkpt>
      <trkpt lat="46.54911" lon="4.87488">
        <ele>305.1</ele>
      </trkpt>
      <trkpt lat="46.54895" lon="4.87464">
        <ele>309.4</ele>
      </trkpt>
      <trkpt lat="46.54878" lon="4.87436">
        <ele>313.3</ele>
      </trkpt>
      <trkpt lat="46.54867" lon="4.87413">
        <ele>316.4</ele>
      </trkpt>
      <trkpt lat="46.5487" lon="4.8741">
        <ele>316.1</ele>
      </trkpt>
      <trkpt lat="46.54867" lon="4.87413">
        <ele>316.4</ele>
      </trkpt>
      <trkpt lat="46.5485" lon="4.874">
        <ele>318.7</ele>
      </trkpt>
      <trkpt lat="46.54835" lon="4.87384">
        <ele>321.2</ele>
      </trkpt>
      <trkpt lat="46.54827" lon="4.87374">
        <ele>322.5</ele>
      </trkpt>
      <trkpt lat="46.54801" lon="4.87359">
        <ele>325.4</ele>
      </trkpt>
      <trkpt lat="46.54796" lon="4.87355">
        <ele>326</ele>
      </trkpt>
      <trkpt lat="46.54776" lon="4.8734">
        <ele>328.4</ele>
      </trkpt>
      <trkpt lat="46.54753" lon="4.87317">
        <ele>332.2</ele>
      </trkpt>
      <trkpt lat="46.54731" lon="4.87293">
        <ele>335.3</ele>
      </trkpt>
      <trkpt lat="46.5471" lon="4.87262">
        <ele>338.3</ele>
      </trkpt>
      <trkpt lat="46.54701" lon="4.87251">
        <ele>339.7</ele>
      </trkpt>
      <trkpt lat="46.5468" lon="4.87237">
        <ele>341</ele>
      </trkpt>
      <trkpt lat="46.54661" lon="4.87231">
        <ele>341.1</ele>
      </trkpt>
      <trkpt lat="46.54649" lon="4.87224">
        <ele>341.2</ele>
      </trkpt>
      <trkpt lat="46.5461" lon="4.87201">
        <ele>341.4</ele>
      </trkpt>
      <trkpt lat="46.54602" lon="4.87196">
        <ele>341.2</ele>
      </trkpt>
      <trkpt lat="46.5458" lon="4.87178">
        <ele>341.6</ele>
      </trkpt>
      <trkpt lat="46.54557" lon="4.87157">
        <ele>341.4</ele>
      </trkpt>
      <trkpt lat="46.54545" lon="4.87149">
        <ele>341.5</ele>
      </trkpt>
      <trkpt lat="46.54537" lon="4.87145">
        <ele>341.6</ele>
      </trkpt>
      <trkpt lat="46.54521" lon="4.87137">
        <ele>341.8</ele>
      </trkpt>
      <trkpt lat="46.5451" lon="4.87131">
        <ele>341.5</ele>
      </trkpt>
      <trkpt lat="46.54486" lon="4.87119">
        <ele>341.7</ele>
      </trkpt>
      <trkpt lat="46.54469" lon="4.87109">
        <ele>342</ele>
      </trkpt>
      <trkpt lat="46.5445" lon="4.87095">
        <ele>342.5</ele>
      </trkpt>
      <trkpt lat="46.54442" lon="4.8709">
        <ele>342.8</ele>
      </trkpt>
      <trkpt lat="46.54429" lon="4.87077">
        <ele>343.3</ele>
      </trkpt>
      <trkpt lat="46.54408" lon="4.87052">
        <ele>345.2</ele>
      </trkpt>
      <trkpt lat="46.54391" lon="4.87038">
        <ele>345.9</ele>
      </trkpt>
      <trkpt lat="46.54355" lon="4.87015">
        <ele>347.1</ele>
      </trkpt>
      <trkpt lat="46.54309" lon="4.86986">
        <ele>348.9</ele>
      </trkpt>
      <trkpt lat="46.54267" lon="4.86962">
        <ele>349</ele>
      </trkpt>
      <trkpt lat="46.54242" lon="4.86947">
        <ele>349</ele>
      </trkpt>
      <trkpt lat="46.54215" lon="4.86931">
        <ele>349</ele>
      </trkpt>
      <trkpt lat="46.542" lon="4.86919">
        <ele>349</ele>
      </trkpt>
      <trkpt lat="46.54173" lon="4.86898">
        <ele>348.9</ele>
      </trkpt>
      <trkpt lat="46.54146" lon="4.86886">
        <ele>348.2</ele>
      </trkpt>
      <trkpt lat="46.54111" lon="4.86875">
        <ele>348</ele>
      </trkpt>
      <trkpt lat="46.54088" lon="4.86871">
        <ele>347.2</ele>
      </trkpt>
      <trkpt lat="46.54079" lon="4.86869">
        <ele>346.9</ele>
      </trkpt>
      <trkpt lat="46.54069" lon="4.86865">
        <ele>346.9</ele>
      </trkpt>
      <trkpt lat="46.54056" lon="4.86854">
        <ele>347</ele>
      </trkpt>
      <trkpt lat="46.54053" lon="4.86852">
        <ele>346.9</ele>
      </trkpt>
      <trkpt lat="46.54049" lon="4.86852">
        <ele>346.8</ele>
      </trkpt>
      <trkpt lat="46.54046" lon="4.86852">
        <ele>346.8</ele>
      </trkpt>
      <trkpt lat="46.54043" lon="4.86857">
        <ele>346.6</ele>
      </trkpt>
      <trkpt lat="46.54042" lon="4.86864">
        <ele>346.2</ele>
      </trkpt>
      <trkpt lat="46.54037" lon="4.86859">
        <ele>346.4</ele>
      </trkpt>
      <trkpt lat="46.54026" lon="4.86844">
        <ele>346.6</ele>
      </trkpt>
      <trkpt lat="46.54009" lon="4.86823">
        <ele>347</ele>
      </trkpt>
      <trkpt lat="46.53998" lon="4.86812">
        <ele>347</ele>
      </trkpt>
      <trkpt lat="46.53978" lon="4.868">
        <ele>347</ele>
      </trkpt>
      <trkpt lat="46.53957" lon="4.8679">
        <ele>347.6</ele>
      </trkpt>
      <trkpt lat="46.53952" lon="4.86788">
        <ele>347.7</ele>
      </trkpt>
      <trkpt lat="46.53931" lon="4.86768">
        <ele>347.8</ele>
      </trkpt>
      <trkpt lat="46.53911" lon="4.86749">
        <ele>348.2</ele>
      </trkpt>
      <trkpt lat="46.53891" lon="4.86736">
        <ele>348.9</ele>
      </trkpt>
      <trkpt lat="46.53885" lon="4.86733">
        <ele>349.1</ele>
      </trkpt>
      <trkpt lat="46.53878" lon="4.86729">
        <ele>349.4</ele>
      </trkpt>
      <trkpt lat="46.53852" lon="4.86718">
        <ele>350.3</ele>
      </trkpt>
      <trkpt lat="46.53846" lon="4.86714">
        <ele>350.6</ele>
      </trkpt>
      <trkpt lat="46.5384" lon="4.8671">
        <ele>350.8</ele>
      </trkpt>
      <trkpt lat="46.53835" lon="4.86707">
        <ele>350.9</ele>
      </trkpt>
      <trkpt lat="46.53828" lon="4.86703">
        <ele>351</ele>
      </trkpt>
      <trkpt lat="46.53817" lon="4.86697">
        <ele>351</ele>
      </trkpt>
      <trkpt lat="46.538" lon="4.86692">
        <ele>350.8</ele>
      </trkpt>
      <trkpt lat="46.53782" lon="4.86688">
        <ele>350.3</ele>
      </trkpt>
      <trkpt lat="46.53741" lon="4.86685">
        <ele>349</ele>
      </trkpt>
      <trkpt lat="46.53704" lon="4.86684">
        <ele>347.7</ele>
      </trkpt>
      <trkpt lat="46.53673" lon="4.86688">
        <ele>346.5</ele>
      </trkpt>
      <trkpt lat="46.53658" lon="4.86689">
        <ele>346.2</ele>
      </trkpt>
      <trkpt lat="46.53654" lon="4.86688">
        <ele>346.2</ele>
      </trkpt>
      <trkpt lat="46.53651" lon="4.86688">
        <ele>346.2</ele>
      </trkpt>
      <trkpt lat="46.53648" lon="4.86687">
        <ele>346.3</ele>
      </trkpt>
      <trkpt lat="46.53644" lon="4.86686">
        <ele>346.3</ele>
      </trkpt>
      <trkpt lat="46.53637" lon="4.86684">
        <ele>346.3</ele>
      </trkpt>
      <trkpt lat="46.53595" lon="4.86675">
        <ele>346.4</ele>
      </trkpt>
      <trkpt lat="46.53565" lon="4.86667">
        <ele>346.3</ele>
      </trkpt>
      <trkpt lat="46.53527" lon="4.86652">
        <ele>346.5</ele>
      </trkpt>
      <trkpt lat="46.53513" lon="4.86644">
        <ele>346.4</ele>
      </trkpt>
      <trkpt lat="46.53482" lon="4.86628">
        <ele>346.1</ele>
      </trkpt>
      <trkpt lat="46.53472" lon="4.86623">
        <ele>346.1</ele>
      </trkpt>
      <trkpt lat="46.53464" lon="4.86621">
        <ele>346.1</ele>
      </trkpt>
      <trkpt lat="46.5346" lon="4.86619">
        <ele>346.1</ele>
      </trkpt>
      <trkpt lat="46.53453" lon="4.86617">
        <ele>346</ele>
      </trkpt>
      <trkpt lat="46.53428" lon="4.86607">
        <ele>346.2</ele>
      </trkpt>
      <trkpt lat="46.53416" lon="4.86604">
        <ele>346.3</ele>
      </trkpt>
      <trkpt lat="46.53398" lon="4.86599">
        <ele>346.4</ele>
      </trkpt>
      <trkpt lat="46.53383" lon="4.86596">
        <ele>346.5</ele>
      </trkpt>
      <trkpt lat="46.53343" lon="4.86589">
        <ele>345.6</ele>
      </trkpt>
      <trkpt lat="46.53307" lon="4.86583">
        <ele>344.2</ele>
      </trkpt>
      <trkpt lat="46.53293" lon="4.8658">
        <ele>344.2</ele>
      </trkpt>
      <trkpt lat="46.53285" lon="4.86578">
        <ele>344.3</ele>
      </trkpt>
      <trkpt lat="46.53252" lon="4.86565">
        <ele>344.1</ele>
      </trkpt>
      <trkpt lat="46.5323" lon="4.86558">
        <ele>344.8</ele>
      </trkpt>
      <trkpt lat="46.53215" lon="4.86557">
        <ele>345.1</ele>
      </trkpt>
      <trkpt lat="46.53192" lon="4.86557">
        <ele>345.8</ele>
      </trkpt>
      <trkpt lat="46.53179" lon="4.86559">
        <ele>345.7</ele>
      </trkpt>
      <trkpt lat="46.53156" lon="4.86568">
        <ele>345.3</ele>
      </trkpt>
      <trkpt lat="46.53135" lon="4.86576">
        <ele>344.9</ele>
      </trkpt>
      <trkpt lat="46.53119" lon="4.86575">
        <ele>345.4</ele>
      </trkpt>
      <trkpt lat="46.53109" lon="4.86575">
        <ele>345.7</ele>
      </trkpt>
      <trkpt lat="46.53093" lon="4.86572">
        <ele>346.2</ele>
      </trkpt>
      <trkpt lat="46.53061" lon="4.86565">
        <ele>346.4</ele>
      </trkpt>
      <trkpt lat="46.53045" lon="4.86561">
        <ele>346.6</ele>
      </trkpt>
      <trkpt lat="46.53019" lon="4.86559">
        <ele>346.5</ele>
      </trkpt>
      <trkpt lat="46.53006" lon="4.8656">
        <ele>345.9</ele>
      </trkpt>
      <trkpt lat="46.52998" lon="4.86562">
        <ele>345.5</ele>
      </trkpt>
      <trkpt lat="46.52967" lon="4.86574">
        <ele>344</ele>
      </trkpt>
      <trkpt lat="46.5296" lon="4.86577">
        <ele>343.4</ele>
      </trkpt>
      <trkpt lat="46.52952" lon="4.86577">
        <ele>343</ele>
      </trkpt>
      <trkpt lat="46.52929" lon="4.86576">
        <ele>342</ele>
      </trkpt>
      <trkpt lat="46.52915" lon="4.86577">
        <ele>341.3</ele>
      </trkpt>
      <trkpt lat="46.52895" lon="4.8658">
        <ele>339.8</ele>
      </trkpt>
      <trkpt lat="46.52881" lon="4.8658">
        <ele>339.1</ele>
      </trkpt>
      <trkpt lat="46.5286" lon="4.8658">
        <ele>338.3</ele>
      </trkpt>
      <trkpt lat="46.52836" lon="4.86583">
        <ele>337.2</ele>
      </trkpt>
      <trkpt lat="46.52821" lon="4.86587">
        <ele>336.4</ele>
      </trkpt>
      <trkpt lat="46.52812" lon="4.86587">
        <ele>336</ele>
      </trkpt>
      <trkpt lat="46.52787" lon="4.86586">
        <ele>335.1</ele>
      </trkpt>
      <trkpt lat="46.52766" lon="4.86588">
        <ele>333.8</ele>
      </trkpt>
      <trkpt lat="46.52752" lon="4.86589">
        <ele>332.7</ele>
      </trkpt>
      <trkpt lat="46.52726" lon="4.86591">
        <ele>331</ele>
      </trkpt>
      <trkpt lat="46.52697" lon="4.86595">
        <ele>329.3</ele>
      </trkpt>
      <trkpt lat="46.52688" lon="4.86595">
        <ele>328.6</ele>
      </trkpt>
      <trkpt lat="46.5268" lon="4.86595">
        <ele>328.1</ele>
      </trkpt>
      <trkpt lat="46.52659" lon="4.86595">
        <ele>326.9</ele>
      </trkpt>
      <trkpt lat="46.52615" lon="4.86593">
        <ele>324.6</ele>
      </trkpt>
      <trkpt lat="46.52609" lon="4.86592">
        <ele>324.2</ele>
      </trkpt>
      <trkpt lat="46.52599" lon="4.8659">
        <ele>323.3</ele>
      </trkpt>
      <trkpt lat="46.52578" lon="4.86585">
        <ele>321.7</ele>
      </trkpt>
      <trkpt lat="46.5256" lon="4.86585">
        <ele>321.1</ele>
      </trkpt>
      <trkpt lat="46.52511" lon="4.86584">
        <ele>319.4</ele>
      </trkpt>
      <trkpt lat="46.52504" lon="4.86585">
        <ele>319.1</ele>
      </trkpt>
      <trkpt lat="46.52496" lon="4.86586">
        <ele>318.9</ele>
      </trkpt>
      <trkpt lat="46.52505" lon="4.86602">
        <ele>319.2</ele>
      </trkpt>
      <trkpt lat="46.52529" lon="4.86642">
        <ele>319.8</ele>
      </trkpt>
      <trkpt lat="46.52536" lon="4.86652">
        <ele>319.2</ele>
      </trkpt>
      <trkpt lat="46.52551" lon="4.86669">
        <ele>318.6</ele>
      </trkpt>
      <trkpt lat="46.52566" lon="4.86682">
        <ele>318.1</ele>
      </trkpt>
      <trkpt lat="46.52582" lon="4.86726">
        <ele>313.6</ele>
      </trkpt>
      <trkpt lat="46.52591" lon="4.86754">
        <ele>311.1</ele>
      </trkpt>
      <trkpt lat="46.52595" lon="4.86778">
        <ele>308.8</ele>
      </trkpt>
      <trkpt lat="46.52598" lon="4.86842">
        <ele>299.7</ele>
      </trkpt>
      <trkpt lat="46.52606" lon="4.8686">
        <ele>297.2</ele>
      </trkpt>
      <trkpt lat="46.52609" lon="4.8687">
        <ele>295.7</ele>
      </trkpt>
      <trkpt lat="46.52607" lon="4.87012">
        <ele>278.3</ele>
      </trkpt>
      <trkpt lat="46.52605" lon="4.87055">
        <ele>273</ele>
      </trkpt>
      <trkpt lat="46.52602" lon="4.87109">
        <ele>266.9</ele>
      </trkpt>
      <trkpt lat="46.52604" lon="4.87126">
        <ele>264.7</ele>
      </trkpt>
      <trkpt lat="46.52611" lon="4.87138">
        <ele>263.1</ele>
      </trkpt>
      <trkpt lat="46.52626" lon="4.87181">
        <ele>259.3</ele>
      </trkpt>
      <trkpt lat="46.52622" lon="4.87199">
        <ele>257.6</ele>
      </trkpt>
      <trkpt lat="46.5262" lon="4.87204">
        <ele>257</ele>
      </trkpt>
      <trkpt lat="46.52607" lon="4.87222">
        <ele>255</ele>
      </trkpt>
      <trkpt lat="46.52612" lon="4.87231">
        <ele>254.7</ele>
      </trkpt>
      <trkpt lat="46.52615" lon="4.87238">
        <ele>254.6</ele>
      </trkpt>
      <trkpt lat="46.52614" lon="4.87245">
        <ele>254.3</ele>
      </trkpt>
      <trkpt lat="46.52608" lon="4.87266">
        <ele>253.4</ele>
      </trkpt>
      <trkpt lat="46.52603" lon="4.87279">
        <ele>253</ele>
      </trkpt>
      <trkpt lat="46.52607" lon="4.87285">
        <ele>252.8</ele>
      </trkpt>
      <trkpt lat="46.52621" lon="4.87303">
        <ele>252.1</ele>
      </trkpt>
      <trkpt lat="46.5265" lon="4.87344">
        <ele>250.2</ele>
      </trkpt>
      <trkpt lat="46.52673" lon="4.87382">
        <ele>248.3</ele>
      </trkpt>
      <trkpt lat="46.5268" lon="4.8739">
        <ele>248</ele>
      </trkpt>
      <trkpt lat="46.52696" lon="4.87401">
        <ele>248</ele>
      </trkpt>
      <trkpt lat="46.52716" lon="4.87412">
        <ele>248</ele>
      </trkpt>
      <trkpt lat="46.52734" lon="4.87421">
        <ele>247.9</ele>
      </trkpt>
      <trkpt lat="46.52745" lon="4.87432">
        <ele>247.9</ele>
      </trkpt>
      <trkpt lat="46.52742" lon="4.87436">
        <ele>247.8</ele>
      </trkpt>
      <trkpt lat="46.52737" lon="4.87451">
        <ele>247.5</ele>
      </trkpt>
      <trkpt lat="46.52726" lon="4.87489">
        <ele>247.1</ele>
      </trkpt>
      <trkpt lat="46.52716" lon="4.87524">
        <ele>246.8</ele>
      </trkpt>
      <trkpt lat="46.52715" lon="4.87532">
        <ele>246.6</ele>
      </trkpt>
      <trkpt lat="46.52707" lon="4.87575">
        <ele>246.3</ele>
      </trkpt>
      <trkpt lat="46.52704" lon="4.87593">
        <ele>246.4</ele>
      </trkpt>
      <trkpt lat="46.52694" lon="4.87637">
        <ele>246</ele>
      </trkpt>
      <trkpt lat="46.52682" lon="4.87705">
        <ele>246.6</ele>
      </trkpt>
      <trkpt lat="46.52676" lon="4.87744">
        <ele>246.5</ele>
      </trkpt>
      <trkpt lat="46.5267" lon="4.87783">
        <ele>246.4</ele>
      </trkpt>
      <trkpt lat="46.52666" lon="4.87804">
        <ele>246</ele>
      </trkpt>
      <trkpt lat="46.52658" lon="4.87829">
        <ele>246.5</ele>
      </trkpt>
      <trkpt lat="46.52647" lon="4.87853">
        <ele>246</ele>
      </trkpt>
      <trkpt lat="46.52638" lon="4.87847">
        <ele>245.5</ele>
      </trkpt>
      <trkpt lat="46.52611" lon="4.87825">
        <ele>245</ele>
      </trkpt>
      <trkpt lat="46.52587" lon="4.87808">
        <ele>247.4</ele>
      </trkpt>
      <trkpt lat="46.52556" lon="4.87795">
        <ele>252.1</ele>
      </trkpt>
      <trkpt lat="46.52512" lon="4.87778">
        <ele>260.8</ele>
      </trkpt>
      <trkpt lat="46.52479" lon="4.8777">
        <ele>267.8</ele>
      </trkpt>
      <trkpt lat="46.52465" lon="4.87766">
        <ele>270.8</ele>
      </trkpt>
      <trkpt lat="46.52459" lon="4.8777">
        <ele>271.8</ele>
      </trkpt>
      <trkpt lat="46.52456" lon="4.87773">
        <ele>272.3</ele>
      </trkpt>
      <trkpt lat="46.52453" lon="4.8778">
        <ele>272.4</ele>
      </trkpt>
      <trkpt lat="46.52448" lon="4.878">
        <ele>272.5</ele>
      </trkpt>
      <trkpt lat="46.52444" lon="4.87834">
        <ele>272.3</ele>
      </trkpt>
      <trkpt lat="46.52438" lon="4.87878">
        <ele>272.1</ele>
      </trkpt>
      <trkpt lat="46.52432" lon="4.87929">
        <ele>271.7</ele>
      </trkpt>
      <trkpt lat="46.5243" lon="4.87944">
        <ele>272.4</ele>
      </trkpt>
      <trkpt lat="46.52427" lon="4.87954">
        <ele>272.9</ele>
      </trkpt>
      <trkpt lat="46.52422" lon="4.87958">
        <ele>274.3</ele>
      </trkpt>
      <trkpt lat="46.52415" lon="4.87962">
        <ele>276.3</ele>
      </trkpt>
      <trkpt lat="46.52411" lon="4.87947">
        <ele>278.1</ele>
      </trkpt>
      <trkpt lat="46.52402" lon="4.87898">
        <ele>281.8</ele>
      </trkpt>
      <trkpt lat="46.52394" lon="4.8787">
        <ele>285.5</ele>
      </trkpt>
      <trkpt lat="46.52391" lon="4.87866">
        <ele>286.3</ele>
      </trkpt>
      <trkpt lat="46.52387" lon="4.87861">
        <ele>287</ele>
      </trkpt>
      <trkpt lat="46.52382" lon="4.87858">
        <ele>287.3</ele>
      </trkpt>
      <trkpt lat="46.52376" lon="4.87854">
        <ele>287.7</ele>
      </trkpt>
      <trkpt lat="46.5236" lon="4.87858">
        <ele>287.5</ele>
      </trkpt>
      <trkpt lat="46.52329" lon="4.87868">
        <ele>286</ele>
      </trkpt>
      <trkpt lat="46.52313" lon="4.87872">
        <ele>285</ele>
      </trkpt>
      <trkpt lat="46.52303" lon="4.87875">
        <ele>284.4</ele>
      </trkpt>
      <trkpt lat="46.5228" lon="4.87877">
        <ele>282.9</ele>
      </trkpt>
      <trkpt lat="46.52251" lon="4.87882">
        <ele>281.8</ele>
      </trkpt>
      <trkpt lat="46.52222" lon="4.87882">
        <ele>281</ele>
      </trkpt>
      <trkpt lat="46.522" lon="4.87885">
        <ele>279.6</ele>
      </trkpt>
      <trkpt lat="46.52178" lon="4.87892">
        <ele>278.7</ele>
      </trkpt>
      <trkpt lat="46.52155" lon="4.87901">
        <ele>277.5</ele>
      </trkpt>
      <trkpt lat="46.52139" lon="4.87905">
        <ele>276.6</ele>
      </trkpt>
      <trkpt lat="46.52108" lon="4.87908">
        <ele>275.9</ele>
      </trkpt>
      <trkpt lat="46.52074" lon="4.87911">
        <ele>275.1</ele>
      </trkpt>
      <trkpt lat="46.52034" lon="4.87918">
        <ele>273.2</ele>
      </trkpt>
      <trkpt lat="46.52014" lon="4.87923">
        <ele>272.1</ele>
      </trkpt>
      <trkpt lat="46.51977" lon="4.87932">
        <ele>269.7</ele>
      </trkpt>
      <trkpt lat="46.51964" lon="4.87937">
        <ele>268.7</ele>
      </trkpt>
      <trkpt lat="46.51947" lon="4.87956">
        <ele>266.8</ele>
      </trkpt>
      <trkpt lat="46.51925" lon="4.87979">
        <ele>264.5</ele>
      </trkpt>
      <trkpt lat="46.51876" lon="4.88032">
        <ele>260.9</ele>
      </trkpt>
      <trkpt lat="46.51828" lon="4.88087">
        <ele>259.1</ele>
      </trkpt>
      <trkpt lat="46.5181" lon="4.8811">
        <ele>258.9</ele>
      </trkpt>
      <trkpt lat="46.51786" lon="4.88148">
        <ele>260.9</ele>
      </trkpt>
      <trkpt lat="46.51771" lon="4.88169">
        <ele>263.7</ele>
      </trkpt>
      <trkpt lat="46.51744" lon="4.88155">
        <ele>264.8</ele>
      </trkpt>
      <trkpt lat="46.51713" lon="4.88138">
        <ele>266.9</ele>
      </trkpt>
      <trkpt lat="46.51683" lon="4.88117">
        <ele>268.3</ele>
      </trkpt>
      <trkpt lat="46.51652" lon="4.88096">
        <ele>270.8</ele>
      </trkpt>
      <trkpt lat="46.51629" lon="4.88084">
        <ele>272.7</ele>
      </trkpt>
      <trkpt lat="46.5161" lon="4.88076">
        <ele>273.8</ele>
      </trkpt>
      <trkpt lat="46.51584" lon="4.88073">
        <ele>275.2</ele>
      </trkpt>
      <trkpt lat="46.5154" lon="4.88072">
        <ele>276.5</ele>
      </trkpt>
      <trkpt lat="46.51504" lon="4.88068">
        <ele>279.1</ele>
      </trkpt>
      <trkpt lat="46.51478" lon="4.88065">
        <ele>280.4</ele>
      </trkpt>
      <trkpt lat="46.51472" lon="4.88064">
        <ele>280.7</ele>
      </trkpt>
      <trkpt lat="46.51477" lon="4.88054">
        <ele>279.7</ele>
      </trkpt>
      <trkpt lat="46.51481" lon="4.88025">
        <ele>277.9</ele>
      </trkpt>
      <trkpt lat="46.51481" lon="4.88013">
        <ele>277</ele>
      </trkpt>
      <trkpt lat="46.51479" lon="4.88">
        <ele>276.3</ele>
      </trkpt>
      <trkpt lat="46.51472" lon="4.87982">
        <ele>275.1</ele>
      </trkpt>
      <trkpt lat="46.51462" lon="4.87962">
        <ele>274</ele>
      </trkpt>
      <trkpt lat="46.5146" lon="4.87955">
        <ele>273.7</ele>
      </trkpt>
      <trkpt lat="46.51459" lon="4.8795">
        <ele>273.3</ele>
      </trkpt>
      <trkpt lat="46.5146" lon="4.87934">
        <ele>272.9</ele>
      </trkpt>
      <trkpt lat="46.51461" lon="4.87928">
        <ele>272.8</ele>
      </trkpt>
      <trkpt lat="46.51463" lon="4.87917">
        <ele>272.6</ele>
      </trkpt>
      <trkpt lat="46.51475" lon="4.87857">
        <ele>272.9</ele>
      </trkpt>
      <trkpt lat="46.51485" lon="4.8782">
        <ele>274</ele>
      </trkpt>
      <trkpt lat="46.51493" lon="4.878">
        <ele>275.4</ele>
      </trkpt>
      <trkpt lat="46.51508" lon="4.87775">
        <ele>277.3</ele>
      </trkpt>
      <trkpt lat="46.51519" lon="4.87752">
        <ele>279.8</ele>
      </trkpt>
      <trkpt lat="46.5153" lon="4.87722">
        <ele>281.9</ele>
      </trkpt>
      <trkpt lat="46.5154" lon="4.87689">
        <ele>284.3</ele>
      </trkpt>
      <trkpt lat="46.51547" lon="4.87655">
        <ele>286.3</ele>
      </trkpt>
      <trkpt lat="46.51551" lon="4.87632">
        <ele>287.7</ele>
      </trkpt>
      <trkpt lat="46.51555" lon="4.87597">
        <ele>289</ele>
      </trkpt>
      <trkpt lat="46.51559" lon="4.87547">
        <ele>290.7</ele>
      </trkpt>
      <trkpt lat="46.51564" lon="4.87515">
        <ele>291.3</ele>
      </trkpt>
      <trkpt lat="46.51567" lon="4.87495">
        <ele>291.5</ele>
      </trkpt>
      <trkpt lat="46.51573" lon="4.87476">
        <ele>291.3</ele>
      </trkpt>
      <trkpt lat="46.5158" lon="4.8746">
        <ele>291.2</ele>
      </trkpt>
      <trkpt lat="46.51594" lon="4.87435">
        <ele>291.4</ele>
      </trkpt>
      <trkpt lat="46.516" lon="4.87423">
        <ele>291.9</ele>
      </trkpt>
      <trkpt lat="46.51601" lon="4.87416">
        <ele>292.4</ele>
      </trkpt>
      <trkpt lat="46.51602" lon="4.87413">
        <ele>292.5</ele>
      </trkpt>
      <trkpt lat="46.51601" lon="4.87404">
        <ele>293</ele>
      </trkpt>
      <trkpt lat="46.51599" lon="4.87385">
        <ele>293.7</ele>
      </trkpt>
      <trkpt lat="46.51591" lon="4.873">
        <ele>291.9</ele>
      </trkpt>
      <trkpt lat="46.5159" lon="4.87274">
        <ele>291.2</ele>
      </trkpt>
      <trkpt lat="46.51582" lon="4.87285">
        <ele>290.1</ele>
      </trkpt>
      <trkpt lat="46.51574" lon="4.8729">
        <ele>289.9</ele>
      </trkpt>
      <trkpt lat="46.51561" lon="4.87301">
        <ele>289.9</ele>
      </trkpt>
      <trkpt lat="46.51553" lon="4.8731">
        <ele>290.5</ele>
      </trkpt>
      <trkpt lat="46.5155" lon="4.87313">
        <ele>290.9</ele>
      </trkpt>
      <trkpt lat="46.51547" lon="4.87315">
        <ele>291.3</ele>
      </trkpt>
      <trkpt lat="46.51526" lon="4.87416">
        <ele>297.2</ele>
      </trkpt>
      <trkpt lat="46.51508" lon="4.87437">
        <ele>300.3</ele>
      </trkpt>
      <trkpt lat="46.51497" lon="4.8745">
        <ele>302.9</ele>
      </trkpt>
      <trkpt lat="46.51491" lon="4.87457">
        <ele>304.3</ele>
      </trkpt>
      <trkpt lat="46.5149" lon="4.87457">
        <ele>304.4</ele>
      </trkpt>
      <trkpt lat="46.51491" lon="4.87457">
        <ele>304.3</ele>
      </trkpt>
      <trkpt lat="46.51466" lon="4.87429">
        <ele>308.9</ele>
      </trkpt>
      <trkpt lat="46.51464" lon="4.87427">
        <ele>309.1</ele>
      </trkpt>
      <trkpt lat="46.5146" lon="4.87422">
        <ele>309.7</ele>
      </trkpt>
      <trkpt lat="46.51453" lon="4.87415">
        <ele>310.9</ele>
      </trkpt>
      <trkpt lat="46.51442" lon="4.87401">
        <ele>312.2</ele>
      </trkpt>
      <trkpt lat="46.51409" lon="4.87363">
        <ele>317.2</ele>
      </trkpt>
      <trkpt lat="46.51406" lon="4.87348">
        <ele>316.9</ele>
      </trkpt>
      <trkpt lat="46.51404" lon="4.87341">
        <ele>317</ele>
      </trkpt>
      <trkpt lat="46.51395" lon="4.87325">
        <ele>317.8</ele>
      </trkpt>
      <trkpt lat="46.51387" lon="4.87317">
        <ele>319.1</ele>
      </trkpt>
      <trkpt lat="46.51366" lon="4.87305">
        <ele>321.2</ele>
      </trkpt>
      <trkpt lat="46.51341" lon="4.87294">
        <ele>321.5</ele>
      </trkpt>
      <trkpt lat="46.51312" lon="4.87281">
        <ele>322.6</ele>
      </trkpt>
      <trkpt lat="46.51288" lon="4.87262">
        <ele>321.4</ele>
      </trkpt>
      <trkpt lat="46.51268" lon="4.87258">
        <ele>321.3</ele>
      </trkpt>
      <trkpt lat="46.51254" lon="4.87254">
        <ele>321.6</ele>
      </trkpt>
      <trkpt lat="46.51248" lon="4.87252">
        <ele>321.7</ele>
      </trkpt>
      <trkpt lat="46.5122" lon="4.87226">
        <ele>320</ele>
      </trkpt>
      <trkpt lat="46.51198" lon="4.87216">
        <ele>318.8</ele>
      </trkpt>
      <trkpt lat="46.51171" lon="4.87206">
        <ele>318.2</ele>
      </trkpt>
      <trkpt lat="46.51145" lon="4.87199">
        <ele>318</ele>
      </trkpt>
      <trkpt lat="46.51116" lon="4.87198">
        <ele>317.1</ele>
      </trkpt>
      <trkpt lat="46.51095" lon="4.87192">
        <ele>315.1</ele>
      </trkpt>
      <trkpt lat="46.51079" lon="4.87192">
        <ele>314</ele>
      </trkpt>
      <trkpt lat="46.51048" lon="4.87186">
        <ele>311.3</ele>
      </trkpt>
      <trkpt lat="46.51028" lon="4.87175">
        <ele>310</ele>
      </trkpt>
      <trkpt lat="46.51001" lon="4.87163">
        <ele>308.4</ele>
      </trkpt>
      <trkpt lat="46.50986" lon="4.87154">
        <ele>305.3</ele>
      </trkpt>
      <trkpt lat="46.50966" lon="4.87137">
        <ele>303.2</ele>
      </trkpt>
      <trkpt lat="46.50944" lon="4.87128">
        <ele>301.6</ele>
      </trkpt>
      <trkpt lat="46.50929" lon="4.87125">
        <ele>300.9</ele>
      </trkpt>
      <trkpt lat="46.50909" lon="4.87119">
        <ele>299.7</ele>
      </trkpt>
      <trkpt lat="46.50892" lon="4.87117">
        <ele>298</ele>
      </trkpt>
      <trkpt lat="46.50877" lon="4.87113">
        <ele>297</ele>
      </trkpt>
      <trkpt lat="46.50859" lon="4.87106">
        <ele>295.4</ele>
      </trkpt>
      <trkpt lat="46.50831" lon="4.8712">
        <ele>291.5</ele>
      </trkpt>
      <trkpt lat="46.50799" lon="4.87116">
        <ele>288.9</ele>
      </trkpt>
      <trkpt lat="46.50765" lon="4.87118">
        <ele>285.7</ele>
      </trkpt>
      <trkpt lat="46.50735" lon="4.87114">
        <ele>283.2</ele>
      </trkpt>
      <trkpt lat="46.50714" lon="4.87096">
        <ele>277.8</ele>
      </trkpt>
      <trkpt lat="46.50712" lon="4.87102">
        <ele>278.4</ele>
      </trkpt>
      <trkpt lat="46.50709" lon="4.87113">
        <ele>279.7</ele>
      </trkpt>
      <trkpt lat="46.50709" lon="4.87122">
        <ele>279.8</ele>
      </trkpt>
      <trkpt lat="46.50709" lon="4.87133">
        <ele>280</ele>
      </trkpt>
      <trkpt lat="46.5071" lon="4.8715">
        <ele>279.5</ele>
      </trkpt>
      <trkpt lat="46.50712" lon="4.87185">
        <ele>277.8</ele>
      </trkpt>
      <trkpt lat="46.50713" lon="4.87221">
        <ele>276.1</ele>
      </trkpt>
      <trkpt lat="46.50716" lon="4.87273">
        <ele>272.9</ele>
      </trkpt>
      <trkpt lat="46.50718" lon="4.87314">
        <ele>270</ele>
      </trkpt>
      <trkpt lat="46.50721" lon="4.87347">
        <ele>267.9</ele>
      </trkpt>
      <trkpt lat="46.50724" lon="4.87386">
        <ele>266.4</ele>
      </trkpt>
      <trkpt lat="46.50725" lon="4.87397">
        <ele>266.3</ele>
      </trkpt>
      <trkpt lat="46.50724" lon="4.87407">
        <ele>266.1</ele>
      </trkpt>
      <trkpt lat="46.50723" lon="4.87414">
        <ele>266.1</ele>
      </trkpt>
      <trkpt lat="46.50721" lon="4.87421">
        <ele>266.3</ele>
      </trkpt>
      <trkpt lat="46.50717" lon="4.87432">
        <ele>267.4</ele>
      </trkpt>
      <trkpt lat="46.50709" lon="4.87449">
        <ele>268.6</ele>
      </trkpt>
      <trkpt lat="46.50698" lon="4.87476">
        <ele>270.9</ele>
      </trkpt>
      <trkpt lat="46.50691" lon="4.87508">
        <ele>273.2</ele>
      </trkpt>
      <trkpt lat="46.50688" lon="4.87531">
        <ele>274.2</ele>
      </trkpt>
      <trkpt lat="46.50688" lon="4.87547">
        <ele>274.6</ele>
      </trkpt>
      <trkpt lat="46.50689" lon="4.87558">
        <ele>274.9</ele>
      </trkpt>
      <trkpt lat="46.50686" lon="4.87581">
        <ele>274.1</ele>
      </trkpt>
      <trkpt lat="46.50682" lon="4.8763">
        <ele>272</ele>
      </trkpt>
      <trkpt lat="46.5068" lon="4.87675">
        <ele>270.7</ele>
      </trkpt>
      <trkpt lat="46.50681" lon="4.87754">
        <ele>268.5</ele>
      </trkpt>
      <trkpt lat="46.50683" lon="4.87802">
        <ele>267</ele>
      </trkpt>
      <trkpt lat="46.50682" lon="4.87829">
        <ele>266.2</ele>
      </trkpt>
      <trkpt lat="46.50679" lon="4.87861">
        <ele>265.3</ele>
      </trkpt>
      <trkpt lat="46.50678" lon="4.8787">
        <ele>264.8</ele>
      </trkpt>
      <trkpt lat="46.50676" lon="4.87889">
        <ele>263.4</ele>
      </trkpt>
      <trkpt lat="46.5067" lon="4.87933">
        <ele>261.8</ele>
      </trkpt>
      <trkpt lat="46.50665" lon="4.87965">
        <ele>261.7</ele>
      </trkpt>
      <trkpt lat="46.50658" lon="4.88001">
        <ele>260.3</ele>
      </trkpt>
      <trkpt lat="46.50652" lon="4.88029">
        <ele>258.3</ele>
      </trkpt>
      <trkpt lat="46.50645" lon="4.88044">
        <ele>256.6</ele>
      </trkpt>
      <trkpt lat="46.50627" lon="4.88086">
        <ele>253.6</ele>
      </trkpt>
      <trkpt lat="46.50609" lon="4.88131">
        <ele>250.8</ele>
      </trkpt>
      <trkpt lat="46.50594" lon="4.88167">
        <ele>248.1</ele>
      </trkpt>
      <trkpt lat="46.50579" lon="4.88206">
        <ele>246.1</ele>
      </trkpt>
      <trkpt lat="46.50572" lon="4.8822">
        <ele>245.3</ele>
      </trkpt>
      <trkpt lat="46.50566" lon="4.88233">
        <ele>244.5</ele>
      </trkpt>
      <trkpt lat="46.50551" lon="4.88272">
        <ele>242.7</ele>
      </trkpt>
      <trkpt lat="46.50549" lon="4.88278">
        <ele>242.5</ele>
      </trkpt>
      <trkpt lat="46.5054" lon="4.88297">
        <ele>241.2</ele>
      </trkpt>
      <trkpt lat="46.50532" lon="4.88314">
        <ele>240</ele>
      </trkpt>
      <trkpt lat="46.50528" lon="4.88322">
        <ele>239.5</ele>
      </trkpt>
      <trkpt lat="46.50514" lon="4.88351">
        <ele>237.7</ele>
      </trkpt>
      <trkpt lat="46.50498" lon="4.88375">
        <ele>235.5</ele>
      </trkpt>
      <trkpt lat="46.50485" lon="4.88394">
        <ele>234.3</ele>
      </trkpt>
      <trkpt lat="46.50467" lon="4.88426">
        <ele>232.6</ele>
      </trkpt>
      <trkpt lat="46.50449" lon="4.8846">
        <ele>230.7</ele>
      </trkpt>
      <trkpt lat="46.50433" lon="4.88493">
        <ele>229.6</ele>
      </trkpt>
      <trkpt lat="46.50425" lon="4.88505">
        <ele>229.1</ele>
      </trkpt>
      <trkpt lat="46.50421" lon="4.88508">
        <ele>228.9</ele>
      </trkpt>
      <trkpt lat="46.50413" lon="4.88514">
        <ele>228.3</ele>
      </trkpt>
      <trkpt lat="46.50412" lon="4.88522">
        <ele>228</ele>
      </trkpt>
      <trkpt lat="46.5041" lon="4.88531">
        <ele>227.8</ele>
      </trkpt>
      <trkpt lat="46.50401" lon="4.88528">
        <ele>227.4</ele>
      </trkpt>
      <trkpt lat="46.50385" lon="4.88549">
        <ele>226.7</ele>
      </trkpt>
      <trkpt lat="46.50375" lon="4.8856">
        <ele>226</ele>
      </trkpt>
      <trkpt lat="46.50372" lon="4.88563">
        <ele>225.8</ele>
      </trkpt>
      <trkpt lat="46.50337" lon="4.88611">
        <ele>223.3</ele>
      </trkpt>
      <trkpt lat="46.50325" lon="4.88622">
        <ele>223</ele>
      </trkpt>
      <trkpt lat="46.50309" lon="4.88626">
        <ele>223</ele>
      </trkpt>
      <trkpt lat="46.50303" lon="4.88625">
        <ele>222.9</ele>
      </trkpt>
      <trkpt lat="46.50298" lon="4.88623">
        <ele>222.6</ele>
      </trkpt>
      <trkpt lat="46.50294" lon="4.88619">
        <ele>222.5</ele>
      </trkpt>
      <trkpt lat="46.50291" lon="4.88617">
        <ele>222.4</ele>
      </trkpt>
      <trkpt lat="46.50274" lon="4.88599">
        <ele>221.9</ele>
      </trkpt>
      <trkpt lat="46.50264" lon="4.88593">
        <ele>221.7</ele>
      </trkpt>
      <trkpt lat="46.50247" lon="4.88583">
        <ele>221</ele>
      </trkpt>
      <trkpt lat="46.50238" lon="4.8858">
        <ele>221.2</ele>
      </trkpt>
      <trkpt lat="46.50229" lon="4.88576">
        <ele>221.4</ele>
      </trkpt>
      <trkpt lat="46.5019" lon="4.88573">
        <ele>221.6</ele>
      </trkpt>
      <trkpt lat="46.50178" lon="4.88572">
        <ele>221.3</ele>
      </trkpt>
      <trkpt lat="46.50169" lon="4.88569">
        <ele>221.1</ele>
      </trkpt>
      <trkpt lat="46.50163" lon="4.88562">
        <ele>221</ele>
      </trkpt>
      <trkpt lat="46.50157" lon="4.88551">
        <ele>221.1</ele>
      </trkpt>
      <trkpt lat="46.50146" lon="4.8854">
        <ele>221.2</ele>
      </trkpt>
      <trkpt lat="46.50119" lon="4.88506">
        <ele>221.2</ele>
      </trkpt>
      <trkpt lat="46.50107" lon="4.88491">
        <ele>221.3</ele>
      </trkpt>
      <trkpt lat="46.50104" lon="4.88485">
        <ele>221.5</ele>
      </trkpt>
      <trkpt lat="46.50104" lon="4.88481">
        <ele>221.7</ele>
      </trkpt>
      <trkpt lat="46.50104" lon="4.88474">
        <ele>222</ele>
      </trkpt>
      <trkpt lat="46.50106" lon="4.88465">
        <ele>222</ele>
      </trkpt>
      <trkpt lat="46.50111" lon="4.88445">
        <ele>222</ele>
      </trkpt>
      <trkpt lat="46.50112" lon="4.8844">
        <ele>222</ele>
      </trkpt>
      <trkpt lat="46.50112" lon="4.88437">
        <ele>222</ele>
      </trkpt>
      <trkpt lat="46.5011" lon="4.88432">
        <ele>222</ele>
      </trkpt>
      <trkpt lat="46.50107" lon="4.88427">
        <ele>222</ele>
      </trkpt>
      <trkpt lat="46.50091" lon="4.88408">
        <ele>222</ele>
      </trkpt>
      <trkpt lat="46.50075" lon="4.88389">
        <ele>221.7</ele>
      </trkpt>
      <trkpt lat="46.50054" lon="4.88367">
        <ele>221.7</ele>
      </trkpt>
      <trkpt lat="46.50033" lon="4.88346">
        <ele>221.2</ele>
      </trkpt>
      <trkpt lat="46.50031" lon="4.88343">
        <ele>221.1</ele>
      </trkpt>
      <trkpt lat="46.50019" lon="4.88328">
        <ele>220.7</ele>
      </trkpt>
      <trkpt lat="46.5001" lon="4.88314">
        <ele>220.4</ele>
      </trkpt>
      <trkpt lat="46.50001" lon="4.88299">
        <ele>220</ele>
      </trkpt>
      <trkpt lat="46.49991" lon="4.88284">
        <ele>219.4</ele>
      </trkpt>
      <trkpt lat="46.49978" lon="4.88267">
        <ele>218.1</ele>
      </trkpt>
      <trkpt lat="46.49957" lon="4.88247">
        <ele>216.4</ele>
      </trkpt>
      <trkpt lat="46.49949" lon="4.88237">
        <ele>215.9</ele>
      </trkpt>
      <trkpt lat="46.49945" lon="4.88237">
        <ele>215.5</ele>
      </trkpt>
      <trkpt lat="46.49942" lon="4.88237">
        <ele>215.4</ele>
      </trkpt>
      <trkpt lat="46.49937" lon="4.88238">
        <ele>215.3</ele>
      </trkpt>
      <trkpt lat="46.49933" lon="4.8824">
        <ele>215.1</ele>
      </trkpt>
      <trkpt lat="46.49918" lon="4.88258">
        <ele>214.4</ele>
      </trkpt>
      <trkpt lat="46.49902" lon="4.8828">
        <ele>214</ele>
      </trkpt>
      <trkpt lat="46.499" lon="4.88282">
        <ele>213.9</ele>
      </trkpt>
      <trkpt lat="46.49892" lon="4.88292">
        <ele>213.3</ele>
      </trkpt>
      <trkpt lat="46.49884" lon="4.88296">
        <ele>212.9</ele>
      </trkpt>
      <trkpt lat="46.49876" lon="4.88297">
        <ele>212.7</ele>
      </trkpt>
      <trkpt lat="46.49868" lon="4.88296">
        <ele>212.5</ele>
      </trkpt>
      <trkpt lat="46.49856" lon="4.88292">
        <ele>212.4</ele>
      </trkpt>
      <trkpt lat="46.49831" lon="4.88282">
        <ele>212</ele>
      </trkpt>
      <trkpt lat="46.49816" lon="4.88275">
        <ele>212</ele>
      </trkpt>
      <trkpt lat="46.49794" lon="4.88259">
        <ele>211.6</ele>
      </trkpt>
      <trkpt lat="46.49774" lon="4.88246">
        <ele>211.2</ele>
      </trkpt>
      <trkpt lat="46.49749" lon="4.88233">
        <ele>211.6</ele>
      </trkpt>
      <trkpt lat="46.49734" lon="4.88224">
        <ele>211.4</ele>
      </trkpt>
      <trkpt lat="46.49718" lon="4.88215">
        <ele>211.5</ele>
      </trkpt>
      <trkpt lat="46.49699" lon="4.88204">
        <ele>212.2</ele>
      </trkpt>
      <trkpt lat="46.49684" lon="4.88199">
        <ele>211.4</ele>
      </trkpt>
      <trkpt lat="46.49667" lon="4.88195">
        <ele>210</ele>
      </trkpt>
      <trkpt lat="46.49645" lon="4.88193">
        <ele>209.4</ele>
      </trkpt>
      <trkpt lat="46.49621" lon="4.88193">
        <ele>207.9</ele>
      </trkpt>
      <trkpt lat="46.49597" lon="4.88192">
        <ele>206.1</ele>
      </trkpt>
      <trkpt lat="46.49571" lon="4.88189">
        <ele>204.2</ele>
      </trkpt>
      <trkpt lat="46.49538" lon="4.88183">
        <ele>201.8</ele>
      </trkpt>
      <trkpt lat="46.495" lon="4.88176">
        <ele>200.7</ele>
      </trkpt>
      <trkpt lat="46.4947" lon="4.8817">
        <ele>200.1</ele>
      </trkpt>
      <trkpt lat="46.49457" lon="4.88166">
        <ele>200.6</ele>
      </trkpt>
      <trkpt lat="46.49445" lon="4.8816">
        <ele>201</ele>
      </trkpt>
      <trkpt lat="46.49413" lon="4.88135">
        <ele>203.7</ele>
      </trkpt>
      <trkpt lat="46.49383" lon="4.8811">
        <ele>205.8</ele>
      </trkpt>
      <trkpt lat="46.4937" lon="4.88103">
        <ele>208.1</ele>
      </trkpt>
      <trkpt lat="46.49357" lon="4.88101">
        <ele>209.1</ele>
      </trkpt>
      <trkpt lat="46.49337" lon="4.88103">
        <ele>208.6</ele>
      </trkpt>
      <trkpt lat="46.49315" lon="4.88112">
        <ele>208</ele>
      </trkpt>
      <trkpt lat="46.49293" lon="4.88123">
        <ele>207.4</ele>
      </trkpt>
      <trkpt lat="46.49277" lon="4.88134">
        <ele>206.4</ele>
      </trkpt>
      <trkpt lat="46.49256" lon="4.88149">
        <ele>206.2</ele>
      </trkpt>
      <trkpt lat="46.49241" lon="4.88161">
        <ele>205.1</ele>
      </trkpt>
      <trkpt lat="46.49228" lon="4.88176">
        <ele>203.8</ele>
      </trkpt>
      <trkpt lat="46.49214" lon="4.88196">
        <ele>202.4</ele>
      </trkpt>
      <trkpt lat="46.49201" lon="4.88216">
        <ele>200.7</ele>
      </trkpt>
      <trkpt lat="46.49196" lon="4.88222">
        <ele>200.1</ele>
      </trkpt>
      <trkpt lat="46.49189" lon="4.88226">
        <ele>199.7</ele>
      </trkpt>
      <trkpt lat="46.49181" lon="4.8823">
        <ele>199.2</ele>
      </trkpt>
      <trkpt lat="46.49167" lon="4.88231">
        <ele>198.7</ele>
      </trkpt>
      <trkpt lat="46.49134" lon="4.88229">
        <ele>200.2</ele>
      </trkpt>
      <trkpt lat="46.4909" lon="4.88225">
        <ele>201.8</ele>
      </trkpt>
      <trkpt lat="46.49063" lon="4.88223">
        <ele>202.7</ele>
      </trkpt>
      <trkpt lat="46.49026" lon="4.88218">
        <ele>203.4</ele>
      </trkpt>
      <trkpt lat="46.49007" lon="4.88215">
        <ele>204.1</ele>
      </trkpt>
      <trkpt lat="46.48989" lon="4.88209">
        <ele>204.5</ele>
      </trkpt>
      <trkpt lat="46.48977" lon="4.88202">
        <ele>204.4</ele>
      </trkpt>
      <trkpt lat="46.48961" lon="4.88196">
        <ele>204</ele>
      </trkpt>
      <trkpt lat="46.48942" lon="4.8819">
        <ele>204.2</ele>
      </trkpt>
      <trkpt lat="46.48909" lon="4.88185">
        <ele>205.3</ele>
      </trkpt>
      <trkpt lat="46.4889" lon="4.88182">
        <ele>205.5</ele>
      </trkpt>
      <trkpt lat="46.48872" lon="4.88177">
        <ele>205.6</ele>
      </trkpt>
      <trkpt lat="46.4885" lon="4.88168">
        <ele>206</ele>
      </trkpt>
      <trkpt lat="46.4883" lon="4.88159">
        <ele>206</ele>
      </trkpt>
      <trkpt lat="46.48808" lon="4.88146">
        <ele>206</ele>
      </trkpt>
      <trkpt lat="46.48783" lon="4.88131">
        <ele>206</ele>
      </trkpt>
      <trkpt lat="46.4876" lon="4.88113">
        <ele>205.4</ele>
      </trkpt>
      <trkpt lat="46.48743" lon="4.88094">
        <ele>204.9</ele>
      </trkpt>
      <trkpt lat="46.48729" lon="4.88076">
        <ele>204</ele>
      </trkpt>
      <trkpt lat="46.48722" lon="4.8806">
        <ele>203.1</ele>
      </trkpt>
      <trkpt lat="46.48713" lon="4.88043">
        <ele>202.4</ele>
      </trkpt>
      <trkpt lat="46.48707" lon="4.8803">
        <ele>202</ele>
      </trkpt>
      <trkpt lat="46.48702" lon="4.88021">
        <ele>201.8</ele>
      </trkpt>
      <trkpt lat="46.48694" lon="4.88006">
        <ele>201.2</ele>
      </trkpt>
      <trkpt lat="46.48687" lon="4.87998">
        <ele>201.1</ele>
      </trkpt>
      <trkpt lat="46.48679" lon="4.8799">
        <ele>201.2</ele>
      </trkpt>
      <trkpt lat="46.48668" lon="4.87982">
        <ele>201</ele>
      </trkpt>
      <trkpt lat="46.48658" lon="4.87975">
        <ele>201.3</ele>
      </trkpt>
      <trkpt lat="46.48645" lon="4.8797">
        <ele>201.9</ele>
      </trkpt>
      <trkpt lat="46.48634" lon="4.87967">
        <ele>202</ele>
      </trkpt>
      <trkpt lat="46.48624" lon="4.87965">
        <ele>201.7</ele>
      </trkpt>
      <trkpt lat="46.48592" lon="4.87961">
        <ele>201.4</ele>
      </trkpt>
      <trkpt lat="46.48589" lon="4.87961">
        <ele>201.4</ele>
      </trkpt>
      <trkpt lat="46.48561" lon="4.87959">
        <ele>200.7</ele>
      </trkpt>
      <trkpt lat="46.48554" lon="4.87959">
        <ele>200.5</ele>
      </trkpt>
      <trkpt lat="46.48532" lon="4.87955">
        <ele>200.6</ele>
      </trkpt>
      <trkpt lat="46.48504" lon="4.87949">
        <ele>200.1</ele>
      </trkpt>
      <trkpt lat="46.48478" lon="4.87945">
        <ele>200</ele>
      </trkpt>
      <trkpt lat="46.48445" lon="4.87939">
        <ele>199.8</ele>
      </trkpt>
      <trkpt lat="46.48411" lon="4.8793">
        <ele>198.7</ele>
      </trkpt>
      <trkpt lat="46.48372" lon="4.87921">
        <ele>196.5</ele>
      </trkpt>
      <trkpt lat="46.48334" lon="4.87911">
        <ele>195</ele>
      </trkpt>
      <trkpt lat="46.48289" lon="4.879">
        <ele>193.2</ele>
      </trkpt>
      <trkpt lat="46.48252" lon="4.8789">
        <ele>193</ele>
      </trkpt>
      <trkpt lat="46.48243" lon="4.87887">
        <ele>193.1</ele>
      </trkpt>
      <trkpt lat="46.48237" lon="4.87884">
        <ele>193.2</ele>
      </trkpt>
      <trkpt lat="46.48234" lon="4.87883">
        <ele>193.2</ele>
      </trkpt>
      <trkpt lat="46.48229" lon="4.87877">
        <ele>193.4</ele>
      </trkpt>
      <trkpt lat="46.48226" lon="4.87871">
        <ele>193.6</ele>
      </trkpt>
      <trkpt lat="46.48225" lon="4.87868">
        <ele>193.8</ele>
      </trkpt>
      <trkpt lat="46.48225" lon="4.87861">
        <ele>194</ele>
      </trkpt>
      <trkpt lat="46.48225" lon="4.87848">
        <ele>194</ele>
      </trkpt>
      <trkpt lat="46.48225" lon="4.87835">
        <ele>194.1</ele>
      </trkpt>
      <trkpt lat="46.48224" lon="4.87816">
        <ele>194.6</ele>
      </trkpt>
      <trkpt lat="46.48222" lon="4.87799">
        <ele>195.3</ele>
      </trkpt>
      <trkpt lat="46.48221" lon="4.8779">
        <ele>195.6</ele>
      </trkpt>
      <trkpt lat="46.48219" lon="4.87772">
        <ele>196</ele>
      </trkpt>
      <trkpt lat="46.48216" lon="4.87748">
        <ele>196.3</ele>
      </trkpt>
      <trkpt lat="46.48214" lon="4.87738">
        <ele>196.6</ele>
      </trkpt>
      <trkpt lat="46.48214" lon="4.87729">
        <ele>196.8</ele>
      </trkpt>
      <trkpt lat="46.48213" lon="4.87719">
        <ele>197.1</ele>
      </trkpt>
      <trkpt lat="46.48214" lon="4.87709">
        <ele>197.5</ele>
      </trkpt>
      <trkpt lat="46.48215" lon="4.87696">
        <ele>198</ele>
      </trkpt>
      <trkpt lat="46.48218" lon="4.87669">
        <ele>198.9</ele>
      </trkpt>
      <trkpt lat="46.48225" lon="4.87629">
        <ele>200.4</ele>
      </trkpt>
      <trkpt lat="46.48231" lon="4.87596">
        <ele>201.4</ele>
      </trkpt>
      <trkpt lat="46.48234" lon="4.87573">
        <ele>201.9</ele>
      </trkpt>
      <trkpt lat="46.48235" lon="4.87562">
        <ele>202.3</ele>
      </trkpt>
      <trkpt lat="46.48236" lon="4.87547">
        <ele>202.7</ele>
      </trkpt>
      <trkpt lat="46.48237" lon="4.87535">
        <ele>202.9</ele>
      </trkpt>
      <trkpt lat="46.48238" lon="4.87524">
        <ele>203</ele>
      </trkpt>
      <trkpt lat="46.48239" lon="4.87511">
        <ele>203</ele>
      </trkpt>
      <trkpt lat="46.48251" lon="4.87443">
        <ele>203</ele>
      </trkpt>
      <trkpt lat="46.48257" lon="4.87396">
        <ele>204</ele>
      </trkpt>
      <trkpt lat="46.48262" lon="4.87364">
        <ele>204.9</ele>
      </trkpt>
      <trkpt lat="46.48269" lon="4.87322">
        <ele>205.6</ele>
      </trkpt>
      <trkpt lat="46.48273" lon="4.87292">
        <ele>206.1</ele>
      </trkpt>
      <trkpt lat="46.48277" lon="4.87256">
        <ele>206.8</ele>
      </trkpt>
      <trkpt lat="46.4828" lon="4.87229">
        <ele>207.9</ele>
      </trkpt>
      <trkpt lat="46.48283" lon="4.8721">
        <ele>209</ele>
      </trkpt>
      <trkpt lat="46.48286" lon="4.8719">
        <ele>210</ele>
      </trkpt>
      <trkpt lat="46.48289" lon="4.87171">
        <ele>210.3</ele>
      </trkpt>
      <trkpt lat="46.48291" lon="4.87151">
        <ele>210.2</ele>
      </trkpt>
      <trkpt lat="46.48293" lon="4.87132">
        <ele>209.6</ele>
      </trkpt>
      <trkpt lat="46.48297" lon="4.87107">
        <ele>208.3</ele>
      </trkpt>
      <trkpt lat="46.48301" lon="4.8708">
        <ele>207.9</ele>
      </trkpt>
      <trkpt lat="46.48307" lon="4.8705">
        <ele>207.1</ele>
      </trkpt>
      <trkpt lat="46.48312" lon="4.87027">
        <ele>207.2</ele>
      </trkpt>
      <trkpt lat="46.48321" lon="4.86992">
        <ele>206.4</ele>
      </trkpt>
      <trkpt lat="46.48332" lon="4.86954">
        <ele>206.3</ele>
      </trkpt>
      <trkpt lat="46.48346" lon="4.86914">
        <ele>206.4</ele>
      </trkpt>
      <trkpt lat="46.48351" lon="4.86899">
        <ele>206.2</ele>
      </trkpt>
      <trkpt lat="46.48352" lon="4.86892">
        <ele>206.1</ele>
      </trkpt>
      <trkpt lat="46.48351" lon="4.86883">
        <ele>206.1</ele>
      </trkpt>
      <trkpt lat="46.48337" lon="4.86876">
        <ele>206.1</ele>
      </trkpt>
      <trkpt lat="46.48318" lon="4.86868">
        <ele>205.4</ele>
      </trkpt>
      <trkpt lat="46.48299" lon="4.86861">
        <ele>204.6</ele>
      </trkpt>
      <trkpt lat="46.48289" lon="4.86856">
        <ele>203.9</ele>
      </trkpt>
      <trkpt lat="46.48284" lon="4.86854">
        <ele>203.5</ele>
      </trkpt>
      <trkpt lat="46.4828" lon="4.86853">
        <ele>203.2</ele>
      </trkpt>
      <trkpt lat="46.48252" lon="4.86845">
        <ele>202.5</ele>
      </trkpt>
      <trkpt lat="46.48229" lon="4.8684">
        <ele>201.5</ele>
      </trkpt>
      <trkpt lat="46.48213" lon="4.86834">
        <ele>201</ele>
      </trkpt>
      <trkpt lat="46.482" lon="4.86829">
        <ele>201</ele>
      </trkpt>
      <trkpt lat="46.48192" lon="4.86825">
        <ele>201</ele>
      </trkpt>
      <trkpt lat="46.48184" lon="4.86821">
        <ele>201</ele>
      </trkpt>
      <trkpt lat="46.48175" lon="4.86815">
        <ele>201</ele>
      </trkpt>
      <trkpt lat="46.48163" lon="4.86813">
        <ele>201</ele>
      </trkpt>
      <trkpt lat="46.48152" lon="4.8681">
        <ele>201</ele>
      </trkpt>
      <trkpt lat="46.48145" lon="4.86808">
        <ele>201</ele>
      </trkpt>
      <trkpt lat="46.48136" lon="4.86807">
        <ele>201</ele>
      </trkpt>
      <trkpt lat="46.48134" lon="4.86809">
        <ele>201</ele>
      </trkpt>
      <trkpt lat="46.48124" lon="4.86814">
        <ele>201</ele>
      </trkpt>
      <trkpt lat="46.4811" lon="4.86814">
        <ele>201</ele>
      </trkpt>
      <trkpt lat="46.48106" lon="4.86815">
        <ele>201.1</ele>
      </trkpt>
      <trkpt lat="46.48097" lon="4.86813">
        <ele>201.4</ele>
      </trkpt>
      <trkpt lat="46.48078" lon="4.86816">
        <ele>201.9</ele>
      </trkpt>
      <trkpt lat="46.48073" lon="4.86817">
        <ele>202.1</ele>
      </trkpt>
      <trkpt lat="46.48069" lon="4.86817">
        <ele>202.3</ele>
      </trkpt>
      <trkpt lat="46.48052" lon="4.86819">
        <ele>203.3</ele>
      </trkpt>
      <trkpt lat="46.48038" lon="4.86819">
        <ele>204.6</ele>
      </trkpt>
      <trkpt lat="46.48027" lon="4.86815">
        <ele>205.8</ele>
      </trkpt>
      <trkpt lat="46.48013" lon="4.86805">
        <ele>207.1</ele>
      </trkpt>
      <trkpt lat="46.47988" lon="4.86782">
        <ele>209.8</ele>
      </trkpt>
      <trkpt lat="46.4797" lon="4.86767">
        <ele>210.4</ele>
      </trkpt>
      <trkpt lat="46.47955" lon="4.86756">
        <ele>210.9</ele>
      </trkpt>
      <trkpt lat="46.4793" lon="4.86741">
        <ele>211.7</ele>
      </trkpt>
      <trkpt lat="46.47881" lon="4.86712">
        <ele>212.2</ele>
      </trkpt>
      <trkpt lat="46.47866" lon="4.86704">
        <ele>212.3</ele>
      </trkpt>
      <trkpt lat="46.47832" lon="4.86683">
        <ele>212.6</ele>
      </trkpt>
      <trkpt lat="46.47776" lon="4.86652">
        <ele>212</ele>
      </trkpt>
      <trkpt lat="46.47707" lon="4.86611">
        <ele>209.5</ele>
      </trkpt>
      <trkpt lat="46.47685" lon="4.86601">
        <ele>208.7</ele>
      </trkpt>
      <trkpt lat="46.47679" lon="4.86599">
        <ele>208.1</ele>
      </trkpt>
      <trkpt lat="46.47688" lon="4.86536">
        <ele>206.6</ele>
      </trkpt>
      <trkpt lat="46.47702" lon="4.86465">
        <ele>206.1</ele>
      </trkpt>
      <trkpt lat="46.47718" lon="4.86391">
        <ele>206.4</ele>
      </trkpt>
      <trkpt lat="46.47733" lon="4.86314">
        <ele>208.2</ele>
      </trkpt>
      <trkpt lat="46.47746" lon="4.86252">
        <ele>209.7</ele>
      </trkpt>
      <trkpt lat="46.47761" lon="4.86192">
        <ele>209.7</ele>
      </trkpt>
      <trkpt lat="46.47771" lon="4.86157">
        <ele>209.2</ele>
      </trkpt>
      <trkpt lat="46.47762" lon="4.86152">
        <ele>208.3</ele>
      </trkpt>
      <trkpt lat="46.47749" lon="4.86144">
        <ele>207.1</ele>
      </trkpt>
      <trkpt lat="46.47735" lon="4.86139">
        <ele>205.3</ele>
      </trkpt>
      <trkpt lat="46.47723" lon="4.86133">
        <ele>204</ele>
      </trkpt>
      <trkpt lat="46.47707" lon="4.8613">
        <ele>202.2</ele>
      </trkpt>
      <trkpt lat="46.4769" lon="4.86125">
        <ele>200.1</ele>
      </trkpt>
      <trkpt lat="46.47679" lon="4.86121">
        <ele>199</ele>
      </trkpt>
      <trkpt lat="46.47666" lon="4.86118">
        <ele>198</ele>
      </trkpt>
      <trkpt lat="46.47655" lon="4.86113">
        <ele>197.6</ele>
      </trkpt>
      <trkpt lat="46.47652" lon="4.86111">
        <ele>197.5</ele>
      </trkpt>
      <trkpt lat="46.47651" lon="4.86107">
        <ele>197.3</ele>
      </trkpt>
      <trkpt lat="46.47651" lon="4.86103">
        <ele>197.1</ele>
      </trkpt>
      <trkpt lat="46.47652" lon="4.86097">
        <ele>197</ele>
      </trkpt>
      <trkpt lat="46.47658" lon="4.86079">
        <ele>196.7</ele>
      </trkpt>
      <trkpt lat="46.47663" lon="4.86052">
        <ele>196.9</ele>
      </trkpt>
      <trkpt lat="46.47665" lon="4.86039">
        <ele>197</ele>
      </trkpt>
      <trkpt lat="46.47667" lon="4.86028">
        <ele>197</ele>
      </trkpt>
      <trkpt lat="46.47668" lon="4.86017">
        <ele>197</ele>
      </trkpt>
      <trkpt lat="46.4767" lon="4.85997">
        <ele>197.1</ele>
      </trkpt>
      <trkpt lat="46.4767" lon="4.85981">
        <ele>197.2</ele>
      </trkpt>
      <trkpt lat="46.47624" lon="4.85975">
        <ele>195.5</ele>
      </trkpt>
      <trkpt lat="46.47598" lon="4.85973">
        <ele>195</ele>
      </trkpt>
      <trkpt lat="46.4759" lon="4.85974">
        <ele>195</ele>
      </trkpt>
      <trkpt lat="46.4758" lon="4.85976">
        <ele>195</ele>
      </trkpt>
      <trkpt lat="46.47569" lon="4.85981">
        <ele>194.8</ele>
      </trkpt>
      <trkpt lat="46.47557" lon="4.85988">
        <ele>194.5</ele>
      </trkpt>
      <trkpt lat="46.47534" lon="4.86006">
        <ele>194.6</ele>
      </trkpt>
      <trkpt lat="46.47527" lon="4.86011">
        <ele>194.6</ele>
      </trkpt>
      <trkpt lat="46.47522" lon="4.86014">
        <ele>194.5</ele>
      </trkpt>
      <trkpt lat="46.47516" lon="4.86016">
        <ele>194.4</ele>
      </trkpt>
      <trkpt lat="46.47507" lon="4.86015">
        <ele>194.4</ele>
      </trkpt>
      <trkpt lat="46.47494" lon="4.86014">
        <ele>194.9</ele>
      </trkpt>
      <trkpt lat="46.47485" lon="4.86013">
        <ele>195.3</ele>
      </trkpt>
      <trkpt lat="46.47478" lon="4.8601">
        <ele>195.7</ele>
      </trkpt>
      <trkpt lat="46.47462" lon="4.86003">
        <ele>196</ele>
      </trkpt>
      <trkpt lat="46.47447" lon="4.85998">
        <ele>196.1</ele>
      </trkpt>
      <trkpt lat="46.47424" lon="4.85992">
        <ele>197</ele>
      </trkpt>
      <trkpt lat="46.47417" lon="4.85991">
        <ele>197.3</ele>
      </trkpt>
      <trkpt lat="46.47411" lon="4.85991">
        <ele>197.5</ele>
      </trkpt>
      <trkpt lat="46.47406" lon="4.85978">
        <ele>197.9</ele>
      </trkpt>
      <trkpt lat="46.47403" lon="4.85969">
        <ele>198.1</ele>
      </trkpt>
      <trkpt lat="46.47399" lon="4.85953">
        <ele>198.7</ele>
      </trkpt>
      <trkpt lat="46.47393" lon="4.85917">
        <ele>199.1</ele>
      </trkpt>
      <trkpt lat="46.47386" lon="4.85877">
        <ele>201.9</ele>
      </trkpt>
      <trkpt lat="46.47385" lon="4.85869">
        <ele>202.5</ele>
      </trkpt>
      <trkpt lat="46.47385" lon="4.8586">
        <ele>203.3</ele>
      </trkpt>
      <trkpt lat="46.47386" lon="4.85854">
        <ele>203.6</ele>
      </trkpt>
      <trkpt lat="46.47388" lon="4.85848">
        <ele>204</ele>
      </trkpt>
      <trkpt lat="46.47392" lon="4.85841">
        <ele>204.4</ele>
      </trkpt>
      <trkpt lat="46.47395" lon="4.85837">
        <ele>204.6</ele>
      </trkpt>
      <trkpt lat="46.47397" lon="4.85829">
        <ele>205</ele>
      </trkpt>
      <trkpt lat="46.47397" lon="4.85823">
        <ele>205.4</ele>
      </trkpt>
      <trkpt lat="46.47396" lon="4.85814">
        <ele>206.1</ele>
      </trkpt>
      <trkpt lat="46.47395" lon="4.85808">
        <ele>206.6</ele>
      </trkpt>
      <trkpt lat="46.47389" lon="4.85777">
        <ele>208</ele>
      </trkpt>
      <trkpt lat="46.47378" lon="4.85726">
        <ele>209.9</ele>
      </trkpt>
      <trkpt lat="46.47365" lon="4.85667">
        <ele>211.1</ele>
      </trkpt>
      <trkpt lat="46.47352" lon="4.85622">
        <ele>212.6</ele>
      </trkpt>
      <trkpt lat="46.47348" lon="4.85598">
        <ele>213.5</ele>
      </trkpt>
      <trkpt lat="46.47345" lon="4.85575">
        <ele>214.3</ele>
      </trkpt>
      <trkpt lat="46.47343" lon="4.85547">
        <ele>214.9</ele>
      </trkpt>
      <trkpt lat="46.47342" lon="4.85523">
        <ele>215.4</ele>
      </trkpt>
      <trkpt lat="46.47341" lon="4.855">
        <ele>215.7</ele>
      </trkpt>
      <trkpt lat="46.47339" lon="4.85491">
        <ele>215.7</ele>
      </trkpt>
      <trkpt lat="46.47338" lon="4.85483">
        <ele>215.7</ele>
      </trkpt>
      <trkpt lat="46.47336" lon="4.85476">
        <ele>215.8</ele>
      </trkpt>
      <trkpt lat="46.47325" lon="4.85451">
        <ele>216.2</ele>
      </trkpt>
      <trkpt lat="46.47324" lon="4.85449">
        <ele>216.3</ele>
      </trkpt>
      <trkpt lat="46.47318" lon="4.85436">
        <ele>216.7</ele>
      </trkpt>
      <trkpt lat="46.47311" lon="4.85429">
        <ele>217.5</ele>
      </trkpt>
      <trkpt lat="46.473" lon="4.85418">
        <ele>219.1</ele>
      </trkpt>
      <trkpt lat="46.47268" lon="4.85392">
        <ele>222.1</ele>
      </trkpt>
      <trkpt lat="46.4725" lon="4.85376">
        <ele>223.9</ele>
      </trkpt>
      <trkpt lat="46.47245" lon="4.85368">
        <ele>224.6</ele>
      </trkpt>
      <trkpt lat="46.47239" lon="4.85352">
        <ele>225.7</ele>
      </trkpt>
      <trkpt lat="46.47235" lon="4.85344">
        <ele>226.1</ele>
      </trkpt>
      <trkpt lat="46.4723" lon="4.85337">
        <ele>226.6</ele>
      </trkpt>
      <trkpt lat="46.47213" lon="4.85321">
        <ele>227.6</ele>
      </trkpt>
      <trkpt lat="46.47199" lon="4.85309">
        <ele>228</ele>
      </trkpt>
      <trkpt lat="46.47191" lon="4.85297">
        <ele>228.5</ele>
      </trkpt>
      <trkpt lat="46.47189" lon="4.85292">
        <ele>228.8</ele>
      </trkpt>
      <trkpt lat="46.47188" lon="4.85286">
        <ele>229</ele>
      </trkpt>
      <trkpt lat="46.47187" lon="4.85279">
        <ele>229.2</ele>
      </trkpt>
      <trkpt lat="46.47187" lon="4.85272">
        <ele>229.5</ele>
      </trkpt>
      <trkpt lat="46.47188" lon="4.8526">
        <ele>229.9</ele>
      </trkpt>
      <trkpt lat="46.4719" lon="4.8523">
        <ele>230.2</ele>
      </trkpt>
      <trkpt lat="46.4719" lon="4.85215">
        <ele>230.2</ele>
      </trkpt>
      <trkpt lat="46.47189" lon="4.85199">
        <ele>230.4</ele>
      </trkpt>
      <trkpt lat="46.47187" lon="4.85184">
        <ele>230.8</ele>
      </trkpt>
      <trkpt lat="46.47184" lon="4.85176">
        <ele>231.2</ele>
      </trkpt>
      <trkpt lat="46.47182" lon="4.8517">
        <ele>231.4</ele>
      </trkpt>
      <trkpt lat="46.47179" lon="4.85165">
        <ele>231.6</ele>
      </trkpt>
      <trkpt lat="46.47175" lon="4.85159">
        <ele>231.9</ele>
      </trkpt>
      <trkpt lat="46.47173" lon="4.85162">
        <ele>231.9</ele>
      </trkpt>
      <trkpt lat="46.47171" lon="4.85164">
        <ele>231.9</ele>
      </trkpt>
      <trkpt lat="46.47167" lon="4.85164">
        <ele>232.1</ele>
      </trkpt>
      <trkpt lat="46.47145" lon="4.85162">
        <ele>232.8</ele>
      </trkpt>
      <trkpt lat="46.47118" lon="4.85154">
        <ele>233</ele>
      </trkpt>
      <trkpt lat="46.47104" lon="4.8515">
        <ele>233.2</ele>
      </trkpt>
      <trkpt lat="46.47092" lon="4.85144">
        <ele>233.6</ele>
      </trkpt>
      <trkpt lat="46.47072" lon="4.85135">
        <ele>233.7</ele>
      </trkpt>
      <trkpt lat="46.47054" lon="4.85126">
        <ele>233.4</ele>
      </trkpt>
      <trkpt lat="46.47044" lon="4.85121">
        <ele>233.4</ele>
      </trkpt>
      <trkpt lat="46.47034" lon="4.85119">
        <ele>233.2</ele>
      </trkpt>
      <trkpt lat="46.47022" lon="4.85116">
        <ele>232.8</ele>
      </trkpt>
      <trkpt lat="46.47015" lon="4.85116">
        <ele>232.5</ele>
      </trkpt>
      <trkpt lat="46.47009" lon="4.85116">
        <ele>232.3</ele>
      </trkpt>
      <trkpt lat="46.47009" lon="4.85106">
        <ele>232.5</ele>
      </trkpt>
      <trkpt lat="46.47008" lon="4.85094">
        <ele>232.9</ele>
      </trkpt>
      <trkpt lat="46.47006" lon="4.85071">
        <ele>233.6</ele>
      </trkpt>
      <trkpt lat="46.47005" lon="4.85048">
        <ele>234</ele>
      </trkpt>
      <trkpt lat="46.47003" lon="4.85027">
        <ele>234.1</ele>
      </trkpt>
      <trkpt lat="46.47001" lon="4.85009">
        <ele>234</ele>
      </trkpt>
      <trkpt lat="46.46997" lon="4.84999">
        <ele>234.2</ele>
      </trkpt>
      <trkpt lat="46.46995" lon="4.84992">
        <ele>234.5</ele>
      </trkpt>
      <trkpt lat="46.46994" lon="4.84985">
        <ele>234.7</ele>
      </trkpt>
      <trkpt lat="46.46988" lon="4.84969">
        <ele>235.5</ele>
      </trkpt>
      <trkpt lat="46.46986" lon="4.84961">
        <ele>235.7</ele>
      </trkpt>
      <trkpt lat="46.46985" lon="4.84947">
        <ele>236</ele>
      </trkpt>
      <trkpt lat="46.46985" lon="4.8494">
        <ele>236</ele>
      </trkpt>
      <trkpt lat="46.46984" lon="4.84934">
        <ele>236</ele>
      </trkpt>
      <trkpt lat="46.46985" lon="4.84924">
        <ele>236</ele>
      </trkpt>
      <trkpt lat="46.46988" lon="4.84912">
        <ele>236.1</ele>
      </trkpt>
      <trkpt lat="46.46994" lon="4.84894">
        <ele>236.4</ele>
      </trkpt>
      <trkpt lat="46.47008" lon="4.84861">
        <ele>237</ele>
      </trkpt>
      <trkpt lat="46.47022" lon="4.8483">
        <ele>238.3</ele>
      </trkpt>
      <trkpt lat="46.47034" lon="4.84811">
        <ele>238.6</ele>
      </trkpt>
      <trkpt lat="46.4705" lon="4.84793">
        <ele>238.6</ele>
      </trkpt>
      <trkpt lat="46.47065" lon="4.84782">
        <ele>238.9</ele>
      </trkpt>
      <trkpt lat="46.47084" lon="4.84772">
        <ele>239.2</ele>
      </trkpt>
      <trkpt lat="46.47123" lon="4.84755">
        <ele>240.8</ele>
      </trkpt>
      <trkpt lat="46.4716" lon="4.84738">
        <ele>242.3</ele>
      </trkpt>
      <trkpt lat="46.47169" lon="4.84731">
        <ele>242.7</ele>
      </trkpt>
      <trkpt lat="46.47175" lon="4.84725">
        <ele>242.9</ele>
      </trkpt>
      <trkpt lat="46.47181" lon="4.84713">
        <ele>243.7</ele>
      </trkpt>
      <trkpt lat="46.47187" lon="4.84694">
        <ele>245</ele>
      </trkpt>
      <trkpt lat="46.47193" lon="4.84663">
        <ele>245.2</ele>
      </trkpt>
      <trkpt lat="46.47198" lon="4.84638">
        <ele>246</ele>
      </trkpt>
      <trkpt lat="46.47199" lon="4.84627">
        <ele>246.3</ele>
      </trkpt>
      <trkpt lat="46.47199" lon="4.84619">
        <ele>246.6</ele>
      </trkpt>
      <trkpt lat="46.47198" lon="4.8461">
        <ele>246.9</ele>
      </trkpt>
      <trkpt lat="46.47197" lon="4.84605">
        <ele>246.9</ele>
      </trkpt>
      <trkpt lat="46.47194" lon="4.84597">
        <ele>247</ele>
      </trkpt>
      <trkpt lat="46.47184" lon="4.84574">
        <ele>246.3</ele>
      </trkpt>
      <trkpt lat="46.47174" lon="4.84555">
        <ele>245.2</ele>
      </trkpt>
      <trkpt lat="46.4716" lon="4.84515">
        <ele>243.5</ele>
      </trkpt>
      <trkpt lat="46.47145" lon="4.84462">
        <ele>241.3</ele>
      </trkpt>
      <trkpt lat="46.47138" lon="4.84429">
        <ele>240</ele>
      </trkpt>
      <trkpt lat="46.47131" lon="4.84384">
        <ele>238.4</ele>
      </trkpt>
      <trkpt lat="46.4713" lon="4.84372">
        <ele>238</ele>
      </trkpt>
      <trkpt lat="46.47129" lon="4.84365">
        <ele>237.8</ele>
      </trkpt>
      <trkpt lat="46.47129" lon="4.8435">
        <ele>238</ele>
      </trkpt>
      <trkpt lat="46.4713" lon="4.84338">
        <ele>238.2</ele>
      </trkpt>
      <trkpt lat="46.47133" lon="4.84327">
        <ele>238.2</ele>
      </trkpt>
      <trkpt lat="46.47138" lon="4.84313">
        <ele>238</ele>
      </trkpt>
      <trkpt lat="46.47157" lon="4.84279">
        <ele>238.5</ele>
      </trkpt>
      <trkpt lat="46.47176" lon="4.8425">
        <ele>240.7</ele>
      </trkpt>
      <trkpt lat="46.4719" lon="4.84227">
        <ele>241.9</ele>
      </trkpt>
      <trkpt lat="46.47204" lon="4.84204">
        <ele>242.7</ele>
      </trkpt>
      <trkpt lat="46.4721" lon="4.84188">
        <ele>243.4</ele>
      </trkpt>
      <trkpt lat="46.47214" lon="4.84176">
        <ele>244.1</ele>
      </trkpt>
      <trkpt lat="46.47216" lon="4.84167">
        <ele>244.7</ele>
      </trkpt>
      <trkpt lat="46.47217" lon="4.84154">
        <ele>245.5</ele>
      </trkpt>
      <trkpt lat="46.47217" lon="4.84142">
        <ele>246.3</ele>
      </trkpt>
      <trkpt lat="46.47217" lon="4.8413">
        <ele>246.9</ele>
      </trkpt>
      <trkpt lat="46.47217" lon="4.84118">
        <ele>247.4</ele>
      </trkpt>
      <trkpt lat="46.47215" lon="4.84105">
        <ele>247.6</ele>
      </trkpt>
      <trkpt lat="46.47213" lon="4.84095">
        <ele>247.6</ele>
      </trkpt>
      <trkpt lat="46.47211" lon="4.84082">
        <ele>247.6</ele>
      </trkpt>
      <trkpt lat="46.47208" lon="4.8407">
        <ele>247.5</ele>
      </trkpt>
      <trkpt lat="46.47207" lon="4.8406">
        <ele>247.4</ele>
      </trkpt>
      <trkpt lat="46.47204" lon="4.84048">
        <ele>247.3</ele>
      </trkpt>
      <trkpt lat="46.47204" lon="4.84042">
        <ele>247.2</ele>
      </trkpt>
      <trkpt lat="46.47203" lon="4.84032">
        <ele>246.9</ele>
      </trkpt>
      <trkpt lat="46.47203" lon="4.84015">
        <ele>246.5</ele>
      </trkpt>
      <trkpt lat="46.47207" lon="4.83974">
        <ele>246.6</ele>
      </trkpt>
      <trkpt lat="46.47211" lon="4.83923">
        <ele>248</ele>
      </trkpt>
      <trkpt lat="46.47213" lon="4.83889">
        <ele>249.7</ele>
      </trkpt>
      <trkpt lat="46.47214" lon="4.83864">
        <ele>250.5</ele>
      </trkpt>
      <trkpt lat="46.47214" lon="4.83841">
        <ele>251.5</ele>
      </trkpt>
      <trkpt lat="46.47214" lon="4.83803">
        <ele>253</ele>
      </trkpt>
      <trkpt lat="46.47213" lon="4.83759">
        <ele>255</ele>
      </trkpt>
      <trkpt lat="46.47213" lon="4.83746">
        <ele>255.5</ele>
      </trkpt>
      <trkpt lat="46.47211" lon="4.8373">
        <ele>256.3</ele>
      </trkpt>
      <trkpt lat="46.47209" lon="4.83712">
        <ele>257.1</ele>
      </trkpt>
      <trkpt lat="46.47206" lon="4.83696">
        <ele>257.7</ele>
      </trkpt>
      <trkpt lat="46.47194" lon="4.8364">
        <ele>259.1</ele>
      </trkpt>
      <trkpt lat="46.47176" lon="4.83573">
        <ele>262</ele>
      </trkpt>
      <trkpt lat="46.47167" lon="4.83577">
        <ele>263</ele>
      </trkpt>
      <trkpt lat="46.47152" lon="4.83579">
        <ele>264.9</ele>
      </trkpt>
      <trkpt lat="46.47106" lon="4.83529">
        <ele>269.8</ele>
      </trkpt>
      <trkpt lat="46.47066" lon="4.83503">
        <ele>273.9</ele>
      </trkpt>
      <trkpt lat="46.47069" lon="4.83499">
        <ele>273.5</ele>
      </trkpt>
      <trkpt lat="46.47069" lon="4.83492">
        <ele>273.1</ele>
      </trkpt>
      <trkpt lat="46.47063" lon="4.83483">
        <ele>273.4</ele>
      </trkpt>
      <trkpt lat="46.47048" lon="4.83465">
        <ele>274.5</ele>
      </trkpt>
      <trkpt lat="46.47031" lon="4.83445">
        <ele>275.5</ele>
      </trkpt>
      <trkpt lat="46.47019" lon="4.83429">
        <ele>276.5</ele>
      </trkpt>
      <trkpt lat="46.47006" lon="4.83416">
        <ele>277.9</ele>
      </trkpt>
      <trkpt lat="46.46992" lon="4.83405">
        <ele>277.9</ele>
      </trkpt>
      <trkpt lat="46.46973" lon="4.83393">
        <ele>278.5</ele>
      </trkpt>
      <trkpt lat="46.46957" lon="4.83379">
        <ele>278.6</ele>
      </trkpt>
      <trkpt lat="46.46939" lon="4.83363">
        <ele>278.2</ele>
      </trkpt>
      <trkpt lat="46.4693" lon="4.83355">
        <ele>277.8</ele>
      </trkpt>
      <trkpt lat="46.46926" lon="4.83351">
        <ele>277.7</ele>
      </trkpt>
      <trkpt lat="46.46918" lon="4.83347">
        <ele>277.8</ele>
      </trkpt>
      <trkpt lat="46.46908" lon="4.83341">
        <ele>276.8</ele>
      </trkpt>
      <trkpt lat="46.46899" lon="4.83334">
        <ele>275.8</ele>
      </trkpt>
      <trkpt lat="46.46893" lon="4.83329">
        <ele>275</ele>
      </trkpt>
      <trkpt lat="46.46849" lon="4.83329">
        <ele>276.7</ele>
      </trkpt>
      <trkpt lat="46.46844" lon="4.83329">
        <ele>276.9</ele>
      </trkpt>
      <trkpt lat="46.46775" lon="4.83328">
        <ele>280.7</ele>
      </trkpt>
      <trkpt lat="46.4675" lon="4.83327">
        <ele>282.5</ele>
      </trkpt>
      <trkpt lat="46.46742" lon="4.83326">
        <ele>283.6</ele>
      </trkpt>
      <trkpt lat="46.46733" lon="4.83324">
        <ele>284.7</ele>
      </trkpt>
      <trkpt lat="46.46723" lon="4.8332">
        <ele>286</ele>
      </trkpt>
      <trkpt lat="46.46702" lon="4.83308">
        <ele>286.6</ele>
      </trkpt>
      <trkpt lat="46.46698" lon="4.83306">
        <ele>286.8</ele>
      </trkpt>
      <trkpt lat="46.46698" lon="4.83317">
        <ele>287.6</ele>
      </trkpt>
      <trkpt lat="46.46697" lon="4.83324">
        <ele>288.1</ele>
      </trkpt>
      <trkpt lat="46.46697" lon="4.83331">
        <ele>288.6</ele>
      </trkpt>
      <trkpt lat="46.46696" lon="4.83341">
        <ele>289.4</ele>
      </trkpt>
      <trkpt lat="46.46695" lon="4.83348">
        <ele>290</ele>
      </trkpt>
      <trkpt lat="46.46693" lon="4.83359">
        <ele>291</ele>
      </trkpt>
      <trkpt lat="46.46689" lon="4.83372">
        <ele>292.2</ele>
      </trkpt>
      <trkpt lat="46.46684" lon="4.83389">
        <ele>293.8</ele>
      </trkpt>
      <trkpt lat="46.46678" lon="4.83407">
        <ele>296.4</ele>
      </trkpt>
      <trkpt lat="46.46672" lon="4.83414">
        <ele>297.9</ele>
      </trkpt>
      <trkpt lat="46.46667" lon="4.83419">
        <ele>299.2</ele>
      </trkpt>
      <trkpt lat="46.46665" lon="4.83424">
        <ele>300.4</ele>
      </trkpt>
      <trkpt lat="46.46663" lon="4.83431">
        <ele>301.7</ele>
      </trkpt>
      <trkpt lat="46.46662" lon="4.83437">
        <ele>302.7</ele>
      </trkpt>
      <trkpt lat="46.46663" lon="4.83443">
        <ele>303.7</ele>
      </trkpt>
      <trkpt lat="46.46664" lon="4.83449">
        <ele>304.3</ele>
      </trkpt>
      <trkpt lat="46.46665" lon="4.83461">
        <ele>305.7</ele>
      </trkpt>
      <trkpt lat="46.46668" lon="4.83482">
        <ele>308.6</ele>
      </trkpt>
      <trkpt lat="46.46669" lon="4.83492">
        <ele>310.2</ele>
      </trkpt>
      <trkpt lat="46.46672" lon="4.83502">
        <ele>311.6</ele>
      </trkpt>
      <trkpt lat="46.46673" lon="4.83512">
        <ele>312.8</ele>
      </trkpt>
      <trkpt lat="46.46675" lon="4.8352">
        <ele>313.7</ele>
      </trkpt>
      <trkpt lat="46.46682" lon="4.83541">
        <ele>316.8</ele>
      </trkpt>
      <trkpt lat="46.46694" lon="4.83568">
        <ele>321.5</ele>
      </trkpt>
      <trkpt lat="46.46704" lon="4.83584">
        <ele>324.1</ele>
      </trkpt>
      <trkpt lat="46.46724" lon="4.83608">
        <ele>327.4</ele>
      </trkpt>
      <trkpt lat="46.46739" lon="4.83628">
        <ele>329.9</ele>
      </trkpt>
      <trkpt lat="46.46748" lon="4.83641">
        <ele>331.7</ele>
      </trkpt>
      <trkpt lat="46.46751" lon="4.83648">
        <ele>332.1</ele>
      </trkpt>
      <trkpt lat="46.46754" lon="4.83657">
        <ele>332.8</ele>
      </trkpt>
      <trkpt lat="46.46754" lon="4.83667">
        <ele>334.1</ele>
      </trkpt>
      <trkpt lat="46.46753" lon="4.83677">
        <ele>335.2</ele>
      </trkpt>
      <trkpt lat="46.4675" lon="4.83687">
        <ele>336.4</ele>
      </trkpt>
      <trkpt lat="46.46747" lon="4.83694">
        <ele>337.5</ele>
      </trkpt>
      <trkpt lat="46.46741" lon="4.83702">
        <ele>338.5</ele>
      </trkpt>
      <trkpt lat="46.46739" lon="4.83712">
        <ele>338.5</ele>
      </trkpt>
      <trkpt lat="46.46728" lon="4.83701">
        <ele>340.6</ele>
      </trkpt>
      <trkpt lat="46.46718" lon="4.83689">
        <ele>342.2</ele>
      </trkpt>
      <trkpt lat="46.46705" lon="4.83673">
        <ele>344</ele>
      </trkpt>
      <trkpt lat="46.46694" lon="4.83662">
        <ele>345.5</ele>
      </trkpt>
      <trkpt lat="46.46685" lon="4.83654">
        <ele>345.8</ele>
      </trkpt>
      <trkpt lat="46.4667" lon="4.83644">
        <ele>347.4</ele>
      </trkpt>
      <trkpt lat="46.46655" lon="4.83634">
        <ele>348.3</ele>
      </trkpt>
      <trkpt lat="46.46644" lon="4.83627">
        <ele>349.3</ele>
      </trkpt>
      <trkpt lat="46.46627" lon="4.83615">
        <ele>351.3</ele>
      </trkpt>
      <trkpt lat="46.46609" lon="4.83599">
        <ele>350.2</ele>
      </trkpt>
      <trkpt lat="46.46599" lon="4.83589">
        <ele>350.4</ele>
      </trkpt>
      <trkpt lat="46.46587" lon="4.83582">
        <ele>352.6</ele>
      </trkpt>
      <trkpt lat="46.46576" lon="4.83577">
        <ele>353.4</ele>
      </trkpt>
      <trkpt lat="46.46558" lon="4.83569">
        <ele>354.6</ele>
      </trkpt>
      <trkpt lat="46.46545" lon="4.83563">
        <ele>355.4</ele>
      </trkpt>
      <trkpt lat="46.46542" lon="4.83562">
        <ele>355.8</ele>
      </trkpt>
      <trkpt lat="46.46535" lon="4.83559">
        <ele>356.3</ele>
      </trkpt>
      <trkpt lat="46.46523" lon="4.83551">
        <ele>356.6</ele>
      </trkpt>
      <trkpt lat="46.4651" lon="4.83543">
        <ele>356.3</ele>
      </trkpt>
      <trkpt lat="46.46498" lon="4.83537">
        <ele>356.5</ele>
      </trkpt>
      <trkpt lat="46.46489" lon="4.83535">
        <ele>357.3</ele>
      </trkpt>
      <trkpt lat="46.46477" lon="4.83535">
        <ele>358.7</ele>
      </trkpt>
      <trkpt lat="46.46467" lon="4.83537">
        <ele>359.9</ele>
      </trkpt>
      <trkpt lat="46.4646" lon="4.83538">
        <ele>360.5</ele>
      </trkpt>
      <trkpt lat="46.46458" lon="4.83527">
        <ele>360.4</ele>
      </trkpt>
      <trkpt lat="46.46452" lon="4.83513">
        <ele>359.2</ele>
      </trkpt>
      <trkpt lat="46.46447" lon="4.83507">
        <ele>359.4</ele>
      </trkpt>
      <trkpt lat="46.46438" lon="4.835">
        <ele>359.5</ele>
      </trkpt>
      <trkpt lat="46.46429" lon="4.83495">
        <ele>358.5</ele>
      </trkpt>
      <trkpt lat="46.46426" lon="4.83495">
        <ele>358.8</ele>
      </trkpt>
      <trkpt lat="46.46423" lon="4.83498">
        <ele>360</ele>
      </trkpt>
      <trkpt lat="46.46419" lon="4.8351">
        <ele>361.2</ele>
      </trkpt>
      <trkpt lat="46.46412" lon="4.83531">
        <ele>362.1</ele>
      </trkpt>
      <trkpt lat="46.46407" lon="4.83548">
        <ele>362.1</ele>
      </trkpt>
      <trkpt lat="46.46405" lon="4.83553">
        <ele>362</ele>
      </trkpt>
      <trkpt lat="46.46403" lon="4.83555">
        <ele>362</ele>
      </trkpt>
      <trkpt lat="46.46399" lon="4.83556">
        <ele>362</ele>
      </trkpt>
      <trkpt lat="46.46391" lon="4.83556">
        <ele>362</ele>
      </trkpt>
      <trkpt lat="46.46385" lon="4.83555">
        <ele>362.2</ele>
      </trkpt>
      <trkpt lat="46.46377" lon="4.83554">
        <ele>362.5</ele>
      </trkpt>
      <trkpt lat="46.46369" lon="4.8355">
        <ele>362.9</ele>
      </trkpt>
      <trkpt lat="46.46361" lon="4.83543">
        <ele>363.5</ele>
      </trkpt>
      <trkpt lat="46.46348" lon="4.83529">
        <ele>364.4</ele>
      </trkpt>
      <trkpt lat="46.46339" lon="4.83517">
        <ele>365.1</ele>
      </trkpt>
      <trkpt lat="46.46336" lon="4.83516">
        <ele>365.3</ele>
      </trkpt>
      <trkpt lat="46.46333" lon="4.83517">
        <ele>365.4</ele>
      </trkpt>
      <trkpt lat="46.4633" lon="4.8352">
        <ele>365.4</ele>
      </trkpt>
      <trkpt lat="46.46328" lon="4.83517">
        <ele>365.6</ele>
      </trkpt>
      <trkpt lat="46.46316" lon="4.83512">
        <ele>366.2</ele>
      </trkpt>
      <trkpt lat="46.46298" lon="4.83506">
        <ele>367.3</ele>
      </trkpt>
      <trkpt lat="46.46257" lon="4.83496">
        <ele>370.5</ele>
      </trkpt>
      <trkpt lat="46.46232" lon="4.83475">
        <ele>372.3</ele>
      </trkpt>
      <trkpt lat="46.46208" lon="4.83462">
        <ele>373.7</ele>
      </trkpt>
      <trkpt lat="46.46192" lon="4.83456">
        <ele>374.7</ele>
      </trkpt>
      <trkpt lat="46.46168" lon="4.83449">
        <ele>376.2</ele>
      </trkpt>
      <trkpt lat="46.46156" lon="4.83447">
        <ele>377.4</ele>
      </trkpt>
      <trkpt lat="46.46089" lon="4.8345">
        <ele>382.8</ele>
      </trkpt>
      <trkpt lat="46.46012" lon="4.83453">
        <ele>383.8</ele>
      </trkpt>
      <trkpt lat="46.45944" lon="4.83462">
        <ele>383.3</ele>
      </trkpt>
      <trkpt lat="46.45922" lon="4.83466">
        <ele>382.4</ele>
      </trkpt>
      <trkpt lat="46.45887" lon="4.83476">
        <ele>380.8</ele>
      </trkpt>
      <trkpt lat="46.45873" lon="4.83484">
        <ele>379.7</ele>
      </trkpt>
      <trkpt lat="46.45861" lon="4.83495">
        <ele>378.3</ele>
      </trkpt>
      <trkpt lat="46.45852" lon="4.83517">
        <ele>376.3</ele>
      </trkpt>
      <trkpt lat="46.4584" lon="4.83506">
        <ele>376.2</ele>
      </trkpt>
      <trkpt lat="46.45805" lon="4.83479">
        <ele>376.5</ele>
      </trkpt>
      <trkpt lat="46.45762" lon="4.83446">
        <ele>376.3</ele>
      </trkpt>
      <trkpt lat="46.45737" lon="4.83492">
        <ele>369.6</ele>
      </trkpt>
      <trkpt lat="46.45706" lon="4.83548">
        <ele>360.5</ele>
      </trkpt>
      <trkpt lat="46.45655" lon="4.83641">
        <ele>347</ele>
      </trkpt>
      <trkpt lat="46.45641" lon="4.83668">
        <ele>343.1</ele>
      </trkpt>
      <trkpt lat="46.4561" lon="4.83724">
        <ele>334.8</ele>
      </trkpt>
      <trkpt lat="46.45601" lon="4.8374">
        <ele>333</ele>
      </trkpt>
      <trkpt lat="46.45589" lon="4.8376">
        <ele>330.5</ele>
      </trkpt>
      <trkpt lat="46.45578" lon="4.83783">
        <ele>327.8</ele>
      </trkpt>
      <trkpt lat="46.45571" lon="4.83803">
        <ele>325.1</ele>
      </trkpt>
      <trkpt lat="46.45513" lon="4.83759">
        <ele>322.1</ele>
      </trkpt>
      <trkpt lat="46.45465" lon="4.8372">
        <ele>319.1</ele>
      </trkpt>
      <trkpt lat="46.45444" lon="4.83703">
        <ele>317.3</ele>
      </trkpt>
      <trkpt lat="46.45434" lon="4.83692">
        <ele>316.6</ele>
      </trkpt>
      <trkpt lat="46.45412" lon="4.8369">
        <ele>313.4</ele>
      </trkpt>
      <trkpt lat="46.45401" lon="4.83688">
        <ele>311.4</ele>
      </trkpt>
      <trkpt lat="46.45392" lon="4.83685">
        <ele>309.9</ele>
      </trkpt>
      <trkpt lat="46.45371" lon="4.83683">
        <ele>305.8</ele>
      </trkpt>
      <trkpt lat="46.45368" lon="4.83683">
        <ele>305.1</ele>
      </trkpt>
      <trkpt lat="46.45364" lon="4.83683">
        <ele>304.4</ele>
      </trkpt>
      <trkpt lat="46.45343" lon="4.83681">
        <ele>301.7</ele>
      </trkpt>
      <trkpt lat="46.45332" lon="4.83678">
        <ele>300.4</ele>
      </trkpt>
      <trkpt lat="46.45326" lon="4.83679">
        <ele>299.8</ele>
      </trkpt>
      <trkpt lat="46.45317" lon="4.83671">
        <ele>299.1</ele>
      </trkpt>
      <trkpt lat="46.45307" lon="4.83665">
        <ele>298.3</ele>
      </trkpt>
      <trkpt lat="46.45296" lon="4.83662">
        <ele>297.4</ele>
      </trkpt>
      <trkpt lat="46.45284" lon="4.83659">
        <ele>296.4</ele>
      </trkpt>
      <trkpt lat="46.45279" lon="4.83656">
        <ele>296.2</ele>
      </trkpt>
      <trkpt lat="46.45276" lon="4.83655">
        <ele>296.1</ele>
      </trkpt>
      <trkpt lat="46.45265" lon="4.83648">
        <ele>295.5</ele>
      </trkpt>
      <trkpt lat="46.45249" lon="4.83634">
        <ele>294.3</ele>
      </trkpt>
      <trkpt lat="46.45232" lon="4.83616">
        <ele>293.2</ele>
      </trkpt>
      <trkpt lat="46.45221" lon="4.83607">
        <ele>292.3</ele>
      </trkpt>
      <trkpt lat="46.45209" lon="4.83602">
        <ele>292.1</ele>
      </trkpt>
      <trkpt lat="46.452" lon="4.83599">
        <ele>291.7</ele>
      </trkpt>
      <trkpt lat="46.45193" lon="4.83598">
        <ele>291.4</ele>
      </trkpt>
      <trkpt lat="46.45187" lon="4.83597">
        <ele>291.1</ele>
      </trkpt>
      <trkpt lat="46.45159" lon="4.83599">
        <ele>289.3</ele>
      </trkpt>
      <trkpt lat="46.45132" lon="4.83602">
        <ele>287.4</ele>
      </trkpt>
      <trkpt lat="46.45109" lon="4.83604">
        <ele>286.3</ele>
      </trkpt>
      <trkpt lat="46.45104" lon="4.83607">
        <ele>285.8</ele>
      </trkpt>
      <trkpt lat="46.451" lon="4.83611">
        <ele>285.2</ele>
      </trkpt>
      <trkpt lat="46.45097" lon="4.83616">
        <ele>284.7</ele>
      </trkpt>
      <trkpt lat="46.45096" lon="4.83623">
        <ele>284.3</ele>
      </trkpt>
      <trkpt lat="46.45095" lon="4.8363">
        <ele>283.9</ele>
      </trkpt>
      <trkpt lat="46.45096" lon="4.83637">
        <ele>283.5</ele>
      </trkpt>
      <trkpt lat="46.45098" lon="4.83647">
        <ele>282.5</ele>
      </trkpt>
      <trkpt lat="46.45104" lon="4.83656">
        <ele>282</ele>
      </trkpt>
      <trkpt lat="46.45114" lon="4.83668">
        <ele>281.8</ele>
      </trkpt>
      <trkpt lat="46.45129" lon="4.83681">
        <ele>280.3</ele>
      </trkpt>
      <trkpt lat="46.45133" lon="4.83685">
        <ele>279.8</ele>
      </trkpt>
      <trkpt lat="46.45134" lon="4.8369">
        <ele>279.2</ele>
      </trkpt>
      <trkpt lat="46.45134" lon="4.83695">
        <ele>278.4</ele>
      </trkpt>
      <trkpt lat="46.45131" lon="4.83699">
        <ele>277.7</ele>
      </trkpt>
      <trkpt lat="46.45128" lon="4.83701">
        <ele>277.2</ele>
      </trkpt>
      <trkpt lat="46.45123" lon="4.83702">
        <ele>276.8</ele>
      </trkpt>
      <trkpt lat="46.45103" lon="4.837">
        <ele>275.3</ele>
      </trkpt>
      <trkpt lat="46.45077" lon="4.83697">
        <ele>273.2</ele>
      </trkpt>
      <trkpt lat="46.45066" lon="4.83693">
        <ele>272.9</ele>
      </trkpt>
      <trkpt lat="46.45057" lon="4.83689">
        <ele>272.5</ele>
      </trkpt>
      <trkpt lat="46.45052" lon="4.83684">
        <ele>272.2</ele>
      </trkpt>
      <trkpt lat="46.45046" lon="4.8368">
        <ele>271.7</ele>
      </trkpt>
      <trkpt lat="46.4504" lon="4.83675">
        <ele>271.2</ele>
      </trkpt>
      <trkpt lat="46.45043" lon="4.83667">
        <ele>272.2</ele>
      </trkpt>
      <trkpt lat="46.45044" lon="4.83663">
        <ele>272.8</ele>
      </trkpt>
      <trkpt lat="46.45044" lon="4.83656">
        <ele>273.6</ele>
      </trkpt>
      <trkpt lat="46.45043" lon="4.83648">
        <ele>274.5</ele>
      </trkpt>
      <trkpt lat="46.45042" lon="4.83641">
        <ele>275.2</ele>
      </trkpt>
      <trkpt lat="46.4504" lon="4.83633">
        <ele>275.9</ele>
      </trkpt>
      <trkpt lat="46.45039" lon="4.83623">
        <ele>276.8</ele>
      </trkpt>
      <trkpt lat="46.45038" lon="4.83613">
        <ele>277.7</ele>
      </trkpt>
      <trkpt lat="46.45038" lon="4.83604">
        <ele>278.2</ele>
      </trkpt>
      <trkpt lat="46.4504" lon="4.83592">
        <ele>278.9</ele>
      </trkpt>
      <trkpt lat="46.45042" lon="4.83577">
        <ele>279.9</ele>
      </trkpt>
      <trkpt lat="46.45049" lon="4.83541">
        <ele>282.5</ele>
      </trkpt>
      <trkpt lat="46.45058" lon="4.83493">
        <ele>286.9</ele>
      </trkpt>
      <trkpt lat="46.4506" lon="4.8348">
        <ele>288.6</ele>
      </trkpt>
      <trkpt lat="46.45062" lon="4.83471">
        <ele>289.6</ele>
      </trkpt>
      <trkpt lat="46.45062" lon="4.83465">
        <ele>290.3</ele>
      </trkpt>
      <trkpt lat="46.45061" lon="4.83461">
        <ele>290.6</ele>
      </trkpt>
      <trkpt lat="46.45059" lon="4.83459">
        <ele>290.6</ele>
      </trkpt>
      <trkpt lat="46.45028" lon="4.83448">
        <ele>289.7</ele>
      </trkpt>
      <trkpt lat="46.44988" lon="4.83433">
        <ele>290.4</ele>
      </trkpt>
      <trkpt lat="46.44967" lon="4.83425">
        <ele>291.8</ele>
      </trkpt>
      <trkpt lat="46.44957" lon="4.83418">
        <ele>292.9</ele>
      </trkpt>
      <trkpt lat="46.4493" lon="4.83398">
        <ele>296.1</ele>
      </trkpt>
      <trkpt lat="46.44906" lon="4.83378">
        <ele>298.3</ele>
      </trkpt>
      <trkpt lat="46.44858" lon="4.83337">
        <ele>303.3</ele>
      </trkpt>
      <trkpt lat="46.44836" lon="4.83318">
        <ele>305.8</ele>
      </trkpt>
      <trkpt lat="46.4483" lon="4.83308">
        <ele>306.7</ele>
      </trkpt>
      <trkpt lat="46.44825" lon="4.83314">
        <ele>305.8</ele>
      </trkpt>
      <trkpt lat="46.4482" lon="4.83322">
        <ele>304.4</ele>
      </trkpt>
      <trkpt lat="46.44815" lon="4.83331">
        <ele>302.5</ele>
      </trkpt>
      <trkpt lat="46.44811" lon="4.83338">
        <ele>300.6</ele>
      </trkpt>
      <trkpt lat="46.44807" lon="4.83346">
        <ele>298.5</ele>
      </trkpt>
      <trkpt lat="46.44803" lon="4.83353">
        <ele>296.6</ele>
      </trkpt>
      <trkpt lat="46.44801" lon="4.8336">
        <ele>295.1</ele>
      </trkpt>
      <trkpt lat="46.448" lon="4.83368">
        <ele>293.8</ele>
      </trkpt>
      <trkpt lat="46.44798" lon="4.83372">
        <ele>293</ele>
      </trkpt>
      <trkpt lat="46.44795" lon="4.8338">
        <ele>291.6</ele>
      </trkpt>
      <trkpt lat="46.44792" lon="4.8339">
        <ele>289.8</ele>
      </trkpt>
      <trkpt lat="46.44787" lon="4.83402">
        <ele>287.7</ele>
      </trkpt>
      <trkpt lat="46.44783" lon="4.83413">
        <ele>285.4</ele>
      </trkpt>
      <trkpt lat="46.44782" lon="4.83419">
        <ele>284.4</ele>
      </trkpt>
      <trkpt lat="46.44784" lon="4.83429">
        <ele>283.1</ele>
      </trkpt>
      <trkpt lat="46.44786" lon="4.83439">
        <ele>281.9</ele>
      </trkpt>
      <trkpt lat="46.44788" lon="4.8345">
        <ele>280.5</ele>
      </trkpt>
      <trkpt lat="46.44785" lon="4.83462">
        <ele>277.7</ele>
      </trkpt>
      <trkpt lat="46.44779" lon="4.83471">
        <ele>274.5</ele>
      </trkpt>
      <trkpt lat="46.44773" lon="4.83475">
        <ele>273.2</ele>
      </trkpt>
      <trkpt lat="46.44767" lon="4.83477">
        <ele>272.3</ele>
      </trkpt>
      <trkpt lat="46.4476" lon="4.83479">
        <ele>271.2</ele>
      </trkpt>
      <trkpt lat="46.44757" lon="4.83483">
        <ele>270.4</ele>
      </trkpt>
      <trkpt lat="46.44754" lon="4.83491">
        <ele>268.9</ele>
      </trkpt>
      <trkpt lat="46.44752" lon="4.83499">
        <ele>267.6</ele>
      </trkpt>
      <trkpt lat="46.44749" lon="4.8351">
        <ele>266.2</ele>
      </trkpt>
      <trkpt lat="46.44747" lon="4.83518">
        <ele>265.5</ele>
      </trkpt>
      <trkpt lat="46.44745" lon="4.83526">
        <ele>264.7</ele>
      </trkpt>
      <trkpt lat="46.44744" lon="4.83534">
        <ele>264</ele>
      </trkpt>
      <trkpt lat="46.44743" lon="4.83543">
        <ele>263.1</ele>
      </trkpt>
      <trkpt lat="46.44743" lon="4.83549">
        <ele>262.5</ele>
      </trkpt>
      <trkpt lat="46.44743" lon="4.83557">
        <ele>261.9</ele>
      </trkpt>
      <trkpt lat="46.44744" lon="4.83565">
        <ele>261.1</ele>
      </trkpt>
      <trkpt lat="46.44741" lon="4.83562">
        <ele>261.1</ele>
      </trkpt>
      <trkpt lat="46.44716" lon="4.83541">
        <ele>260.6</ele>
      </trkpt>
      <trkpt lat="46.44686" lon="4.83516">
        <ele>260.1</ele>
      </trkpt>
      <trkpt lat="46.44644" lon="4.8349">
        <ele>259.9</ele>
      </trkpt>
      <trkpt lat="46.44612" lon="4.83469">
        <ele>260.3</ele>
      </trkpt>
      <trkpt lat="46.44588" lon="4.83453">
        <ele>260</ele>
      </trkpt>
      <trkpt lat="46.44559" lon="4.83435">
        <ele>260.3</ele>
      </trkpt>
      <trkpt lat="46.44533" lon="4.83424">
        <ele>260.2</ele>
      </trkpt>
      <trkpt lat="46.44487" lon="4.83399">
        <ele>261.4</ele>
      </trkpt>
      <trkpt lat="46.44464" lon="4.83388">
        <ele>262.1</ele>
      </trkpt>
      <trkpt lat="46.44458" lon="4.83386">
        <ele>262.5</ele>
      </trkpt>
      <trkpt lat="46.4443" lon="4.83374">
        <ele>264.7</ele>
      </trkpt>
      <trkpt lat="46.44421" lon="4.8337">
        <ele>265.6</ele>
      </trkpt>
      <trkpt lat="46.44412" lon="4.83365">
        <ele>266.4</ele>
      </trkpt>
      <trkpt lat="46.44406" lon="4.83359">
        <ele>267.2</ele>
      </trkpt>
      <trkpt lat="46.44399" lon="4.83349">
        <ele>268.4</ele>
      </trkpt>
      <trkpt lat="46.44393" lon="4.83336">
        <ele>269.7</ele>
      </trkpt>
      <trkpt lat="46.4439" lon="4.83327">
        <ele>270.5</ele>
      </trkpt>
      <trkpt lat="46.44387" lon="4.83322">
        <ele>270.6</ele>
      </trkpt>
      <trkpt lat="46.44381" lon="4.8332">
        <ele>270.4</ele>
      </trkpt>
      <trkpt lat="46.44343" lon="4.83304">
        <ele>269.5</ele>
      </trkpt>
      <trkpt lat="46.44337" lon="4.83302">
        <ele>269.4</ele>
      </trkpt>
      <trkpt lat="46.44335" lon="4.83302">
        <ele>269.4</ele>
      </trkpt>
      <trkpt lat="46.44332" lon="4.83301">
        <ele>269.1</ele>
      </trkpt>
      <trkpt lat="46.44335" lon="4.83302">
        <ele>269.4</ele>
      </trkpt>
      <trkpt lat="46.44332" lon="4.83301">
        <ele>269.1</ele>
      </trkpt>
      <trkpt lat="46.44329" lon="4.83305">
        <ele>268.6</ele>
      </trkpt>
      <trkpt lat="46.44327" lon="4.83316">
        <ele>267.5</ele>
      </trkpt>
      <trkpt lat="46.4432" lon="4.83314">
        <ele>266.9</ele>
      </trkpt>
      <trkpt lat="46.44275" lon="4.83285">
        <ele>263.6</ele>
      </trkpt>
      <trkpt lat="46.44272" lon="4.83282">
        <ele>263.4</ele>
      </trkpt>
      <trkpt lat="46.44256" lon="4.83275">
        <ele>262.6</ele>
      </trkpt>
      <trkpt lat="46.4425" lon="4.83274">
        <ele>262.3</ele>
      </trkpt>
      <trkpt lat="46.44241" lon="4.83275">
        <ele>261.6</ele>
      </trkpt>
      <trkpt lat="46.44234" lon="4.83274">
        <ele>261.1</ele>
      </trkpt>
      <trkpt lat="46.44229" lon="4.83273">
        <ele>260.8</ele>
      </trkpt>
      <trkpt lat="46.44225" lon="4.83271">
        <ele>260.7</ele>
      </trkpt>
      <trkpt lat="46.44218" lon="4.83267">
        <ele>260.5</ele>
      </trkpt>
      <trkpt lat="46.44159" lon="4.83219">
        <ele>259.4</ele>
      </trkpt>
      <trkpt lat="46.44153" lon="4.83223">
        <ele>258.5</ele>
      </trkpt>
      <trkpt lat="46.4415" lon="4.83226">
        <ele>257.9</ele>
      </trkpt>
      <trkpt lat="46.44146" lon="4.83227">
        <ele>257.4</ele>
      </trkpt>
      <trkpt lat="46.44142" lon="4.83227">
        <ele>257</ele>
      </trkpt>
      <trkpt lat="46.44133" lon="4.83225">
        <ele>256.6</ele>
      </trkpt>
      <trkpt lat="46.44131" lon="4.83226">
        <ele>256.4</ele>
      </trkpt>
      <trkpt lat="46.4413" lon="4.83229">
        <ele>256.2</ele>
      </trkpt>
      <trkpt lat="46.44127" lon="4.83251">
        <ele>254.5</ele>
      </trkpt>
      <trkpt lat="46.44118" lon="4.83249">
        <ele>254.3</ele>
      </trkpt>
      <trkpt lat="46.44109" lon="4.8325">
        <ele>254.2</ele>
      </trkpt>
      <trkpt lat="46.441" lon="4.83275">
        <ele>253.5</ele>
      </trkpt>
      <trkpt lat="46.44095" lon="4.83298">
        <ele>252.4</ele>
      </trkpt>
      <trkpt lat="46.44091" lon="4.83311">
        <ele>251.9</ele>
      </trkpt>
      <trkpt lat="46.4409" lon="4.8331">
        <ele>252</ele>
      </trkpt>
      <trkpt lat="46.44079" lon="4.83306">
        <ele>252.3</ele>
      </trkpt>
      <trkpt lat="46.44068" lon="4.83302">
        <ele>253.3</ele>
      </trkpt>
      <trkpt lat="46.44056" lon="4.83295">
        <ele>254.4</ele>
      </trkpt>
      <trkpt lat="46.4405" lon="4.83292">
        <ele>255</ele>
      </trkpt>
      <trkpt lat="46.44051" lon="4.83282">
        <ele>255.2</ele>
      </trkpt>
      <trkpt lat="46.44055" lon="4.83262">
        <ele>256.2</ele>
      </trkpt>
      <trkpt lat="46.44056" lon="4.83247">
        <ele>257.3</ele>
      </trkpt>
      <trkpt lat="46.44061" lon="4.83211">
        <ele>260.9</ele>
      </trkpt>
      <trkpt lat="46.44068" lon="4.83174">
        <ele>265.5</ele>
      </trkpt>
      <trkpt lat="46.44075" lon="4.83143">
        <ele>270</ele>
      </trkpt>
      <trkpt lat="46.44078" lon="4.83122">
        <ele>273</ele>
      </trkpt>
      <trkpt lat="46.44078" lon="4.83104">
        <ele>275.5</ele>
      </trkpt>
      <trkpt lat="46.44081" lon="4.83081">
        <ele>278.1</ele>
      </trkpt>
      <trkpt lat="46.44086" lon="4.83045">
        <ele>285.2</ele>
      </trkpt>
      <trkpt lat="46.44082" lon="4.83045">
        <ele>286.4</ele>
      </trkpt>
      <trkpt lat="46.44073" lon="4.83049">
        <ele>286.6</ele>
      </trkpt>
      <trkpt lat="46.44067" lon="4.83049">
        <ele>287.5</ele>
      </trkpt>
      <trkpt lat="46.44062" lon="4.83045">
        <ele>289.4</ele>
      </trkpt>
      <trkpt lat="46.44052" lon="4.83029">
        <ele>293.5</ele>
      </trkpt>
      <trkpt lat="46.44039" lon="4.83006">
        <ele>297.8</ele>
      </trkpt>
      <trkpt lat="46.4403" lon="4.82983">
        <ele>302.5</ele>
      </trkpt>
      <trkpt lat="46.44025" lon="4.82974">
        <ele>304.1</ele>
      </trkpt>
      <trkpt lat="46.44019" lon="4.82969">
        <ele>304.8</ele>
      </trkpt>
      <trkpt lat="46.44016" lon="4.82963">
        <ele>305.7</ele>
      </trkpt>
      <trkpt lat="46.44011" lon="4.82954">
        <ele>307</ele>
      </trkpt>
      <trkpt lat="46.43996" lon="4.82929">
        <ele>310.6</ele>
      </trkpt>
      <trkpt lat="46.43993" lon="4.82924">
        <ele>311.3</ele>
      </trkpt>
      <trkpt lat="46.43991" lon="4.82917">
        <ele>312.4</ele>
      </trkpt>
      <trkpt lat="46.43991" lon="4.8291">
        <ele>313.1</ele>
      </trkpt>
      <trkpt lat="46.43991" lon="4.82903">
        <ele>314</ele>
      </trkpt>
      <trkpt lat="46.43992" lon="4.82896">
        <ele>314.8</ele>
      </trkpt>
      <trkpt lat="46.43992" lon="4.8289">
        <ele>315.6</ele>
      </trkpt>
      <trkpt lat="46.43993" lon="4.82882">
        <ele>316</ele>
      </trkpt>
      <trkpt lat="46.43994" lon="4.82873">
        <ele>316.5</ele>
      </trkpt>
      <trkpt lat="46.43995" lon="4.82865">
        <ele>316.8</ele>
      </trkpt>
      <trkpt lat="46.43995" lon="4.82859">
        <ele>317.2</ele>
      </trkpt>
      <trkpt lat="46.43994" lon="4.82853">
        <ele>317.8</ele>
      </trkpt>
      <trkpt lat="46.43992" lon="4.82843">
        <ele>318.8</ele>
      </trkpt>
      <trkpt lat="46.43991" lon="4.82838">
        <ele>319.2</ele>
      </trkpt>
      <trkpt lat="46.4399" lon="4.82836">
        <ele>319.4</ele>
      </trkpt>
      <trkpt lat="46.43988" lon="4.82828">
        <ele>319.9</ele>
      </trkpt>
      <trkpt lat="46.43984" lon="4.82817">
        <ele>320.2</ele>
      </trkpt>
      <trkpt lat="46.43975" lon="4.82816">
        <ele>319.8</ele>
      </trkpt>
      <trkpt lat="46.43967" lon="4.82814">
        <ele>319.2</ele>
      </trkpt>
      <trkpt lat="46.4396" lon="4.8281">
        <ele>318.7</ele>
      </trkpt>
      <trkpt lat="46.43954" lon="4.82807">
        <ele>318.5</ele>
      </trkpt>
      <trkpt lat="46.43949" lon="4.82807">
        <ele>318.1</ele>
      </trkpt>
      <trkpt lat="46.43941" lon="4.82805">
        <ele>317.8</ele>
      </trkpt>
      <trkpt lat="46.43935" lon="4.82801">
        <ele>317.6</ele>
      </trkpt>
      <trkpt lat="46.43929" lon="4.82796">
        <ele>317.6</ele>
      </trkpt>
      <trkpt lat="46.43922" lon="4.82788">
        <ele>317.6</ele>
      </trkpt>
      <trkpt lat="46.43912" lon="4.8278">
        <ele>317.5</ele>
      </trkpt>
      <trkpt lat="46.43899" lon="4.82775">
        <ele>316.8</ele>
      </trkpt>
      <trkpt lat="46.43891" lon="4.82772">
        <ele>316.3</ele>
      </trkpt>
      <trkpt lat="46.4388" lon="4.82771">
        <ele>315.9</ele>
      </trkpt>
      <trkpt lat="46.43875" lon="4.82768">
        <ele>315.8</ele>
      </trkpt>
      <trkpt lat="46.43864" lon="4.82762">
        <ele>315.7</ele>
      </trkpt>
      <trkpt lat="46.43847" lon="4.8275">
        <ele>315</ele>
      </trkpt>
      <trkpt lat="46.43834" lon="4.82742">
        <ele>314.4</ele>
      </trkpt>
      <trkpt lat="46.43827" lon="4.82739">
        <ele>313.9</ele>
      </trkpt>
      <trkpt lat="46.43818" lon="4.82735">
        <ele>313.5</ele>
      </trkpt>
      <trkpt lat="46.43808" lon="4.82727">
        <ele>313.7</ele>
      </trkpt>
      <trkpt lat="46.43803" lon="4.82717">
        <ele>314.1</ele>
      </trkpt>
      <trkpt lat="46.438" lon="4.82709">
        <ele>314.3</ele>
      </trkpt>
      <trkpt lat="46.43797" lon="4.82701">
        <ele>314.5</ele>
      </trkpt>
      <trkpt lat="46.43795" lon="4.82697">
        <ele>314.5</ele>
      </trkpt>
      <trkpt lat="46.43793" lon="4.82693">
        <ele>314.6</ele>
      </trkpt>
      <trkpt lat="46.43786" lon="4.82681">
        <ele>314.6</ele>
      </trkpt>
      <trkpt lat="46.43777" lon="4.82669">
        <ele>314.9</ele>
      </trkpt>
      <trkpt lat="46.4377" lon="4.82662">
        <ele>314.8</ele>
      </trkpt>
      <trkpt lat="46.43763" lon="4.82655">
        <ele>314.7</ele>
      </trkpt>
      <trkpt lat="46.43757" lon="4.82648">
        <ele>314.8</ele>
      </trkpt>
      <trkpt lat="46.43741" lon="4.82634">
        <ele>314.7</ele>
      </trkpt>
      <trkpt lat="46.43691" lon="4.82592">
        <ele>315</ele>
      </trkpt>
      <trkpt lat="46.43645" lon="4.82552">
        <ele>315</ele>
      </trkpt>
      <trkpt lat="46.43662" lon="4.82541">
        <ele>314.6</ele>
      </trkpt>
      <trkpt lat="46.43688" lon="4.8252">
        <ele>312.7</ele>
      </trkpt>
      <trkpt lat="46.43703" lon="4.82508">
        <ele>311.3</ele>
      </trkpt>
      <trkpt lat="46.43714" lon="4.82499">
        <ele>310.2</ele>
      </trkpt>
      <trkpt lat="46.43735" lon="4.82481">
        <ele>308.9</ele>
      </trkpt>
      <trkpt lat="46.43754" lon="4.82462">
        <ele>309</ele>
      </trkpt>
      <trkpt lat="46.4377" lon="4.82443">
        <ele>310.2</ele>
      </trkpt>
      <trkpt lat="46.43779" lon="4.82429">
        <ele>311.1</ele>
      </trkpt>
      <trkpt lat="46.43788" lon="4.82417">
        <ele>312.4</ele>
      </trkpt>
      <trkpt lat="46.43795" lon="4.82406">
        <ele>313.6</ele>
      </trkpt>
      <trkpt lat="46.43799" lon="4.82391">
        <ele>314.3</ele>
      </trkpt>
      <trkpt lat="46.43802" lon="4.82383">
        <ele>314.9</ele>
      </trkpt>
      <trkpt lat="46.43807" lon="4.8236">
        <ele>316.4</ele>
      </trkpt>
      <trkpt lat="46.43813" lon="4.82337">
        <ele>318.8</ele>
      </trkpt>
      <trkpt lat="46.43818" lon="4.8232">
        <ele>320.5</ele>
      </trkpt>
      <trkpt lat="46.43818" lon="4.8232">
        <ele>320.5</ele>
      </trkpt>
      <trkpt lat="46.43822" lon="4.82309">
        <ele>321.6</ele>
      </trkpt>
      <trkpt lat="46.43838" lon="4.82281">
        <ele>325.5</ele>
      </trkpt>
      <trkpt lat="46.43856" lon="4.8224">
        <ele>327.3</ele>
      </trkpt>
      <trkpt lat="46.43863" lon="4.82222">
        <ele>328.2</ele>
      </trkpt>
      <trkpt lat="46.43866" lon="4.82214">
        <ele>328.4</ele>
      </trkpt>
      <trkpt lat="46.43867" lon="4.82209">
        <ele>328.5</ele>
      </trkpt>
      <trkpt lat="46.43868" lon="4.82203">
        <ele>328.5</ele>
      </trkpt>
      <trkpt lat="46.43869" lon="4.82198">
        <ele>328.5</ele>
      </trkpt>
      <trkpt lat="46.43868" lon="4.82189">
        <ele>328.3</ele>
      </trkpt>
      <trkpt lat="46.43867" lon="4.82175">
        <ele>328</ele>
      </trkpt>
      <trkpt lat="46.43867" lon="4.82166">
        <ele>327.9</ele>
      </trkpt>
      <trkpt lat="46.43868" lon="4.82156">
        <ele>327.6</ele>
      </trkpt>
      <trkpt lat="46.4387" lon="4.82142">
        <ele>327.4</ele>
      </trkpt>
      <trkpt lat="46.43875" lon="4.82126">
        <ele>326.8</ele>
      </trkpt>
      <trkpt lat="46.43878" lon="4.82116">
        <ele>326.3</ele>
      </trkpt>
      <trkpt lat="46.43881" lon="4.82104">
        <ele>325.2</ele>
      </trkpt>
      <trkpt lat="46.43885" lon="4.82094">
        <ele>324.2</ele>
      </trkpt>
      <trkpt lat="46.4389" lon="4.82085">
        <ele>323.3</ele>
      </trkpt>
      <trkpt lat="46.43897" lon="4.82078">
        <ele>322.1</ele>
      </trkpt>
      <trkpt lat="46.43911" lon="4.82068">
        <ele>320.6</ele>
      </trkpt>
      <trkpt lat="46.43929" lon="4.82052">
        <ele>317.7</ele>
      </trkpt>
      <trkpt lat="46.43952" lon="4.82025">
        <ele>313.8</ele>
      </trkpt>
      <trkpt lat="46.43974" lon="4.82001">
        <ele>309.2</ele>
      </trkpt>
      <trkpt lat="46.43987" lon="4.81987">
        <ele>307.1</ele>
      </trkpt>
      <trkpt lat="46.43989" lon="4.81984">
        <ele>306.8</ele>
      </trkpt>
      <trkpt lat="46.43996" lon="4.81974">
        <ele>305.1</ele>
      </trkpt>
      <trkpt lat="46.44005" lon="4.8196">
        <ele>303.2</ele>
      </trkpt>
      <trkpt lat="46.44011" lon="4.81954">
        <ele>302.7</ele>
      </trkpt>
      <trkpt lat="46.44019" lon="4.81949">
        <ele>302.7</ele>
      </trkpt>
      <trkpt lat="46.44035" lon="4.81943">
        <ele>303.2</ele>
      </trkpt>
      <trkpt lat="46.44059" lon="4.81932">
        <ele>303</ele>
      </trkpt>
      <trkpt lat="46.44072" lon="4.81928">
        <ele>302.9</ele>
      </trkpt>
      <trkpt lat="46.44082" lon="4.81922">
        <ele>302.7</ele>
      </trkpt>
      <trkpt lat="46.44093" lon="4.81914">
        <ele>302.3</ele>
      </trkpt>
      <trkpt lat="46.44104" lon="4.81904">
        <ele>301.8</ele>
      </trkpt>
      <trkpt lat="46.4411" lon="4.81891">
        <ele>300.3</ele>
      </trkpt>
      <trkpt lat="46.44117" lon="4.81877">
        <ele>299.1</ele>
      </trkpt>
      <trkpt lat="46.44122" lon="4.81862">
        <ele>297.9</ele>
      </trkpt>
      <trkpt lat="46.44126" lon="4.81844">
        <ele>295.8</ele>
      </trkpt>
      <trkpt lat="46.44128" lon="4.81823">
        <ele>293.7</ele>
      </trkpt>
      <trkpt lat="46.44128" lon="4.818">
        <ele>291.7</ele>
      </trkpt>
      <trkpt lat="46.44128" lon="4.81771">
        <ele>288.9</ele>
      </trkpt>
      <trkpt lat="46.44126" lon="4.81756">
        <ele>288.3</ele>
      </trkpt>
      <trkpt lat="46.44125" lon="4.81743">
        <ele>287.7</ele>
      </trkpt>
      <trkpt lat="46.44124" lon="4.81734">
        <ele>287.3</ele>
      </trkpt>
      <trkpt lat="46.44122" lon="4.8171">
        <ele>287.1</ele>
      </trkpt>
      <trkpt lat="46.44119" lon="4.81675">
        <ele>288.7</ele>
      </trkpt>
      <trkpt lat="46.44115" lon="4.81642">
        <ele>290.9</ele>
      </trkpt>
      <trkpt lat="46.44111" lon="4.81613">
        <ele>292.8</ele>
      </trkpt>
      <trkpt lat="46.44109" lon="4.81594">
        <ele>292.3</ele>
      </trkpt>
      <trkpt lat="46.44109" lon="4.81572">
        <ele>291.8</ele>
      </trkpt>
      <trkpt lat="46.44108" lon="4.81545">
        <ele>291.2</ele>
      </trkpt>
      <trkpt lat="46.44107" lon="4.81488">
        <ele>291.7</ele>
      </trkpt>
      <trkpt lat="46.44106" lon="4.81462">
        <ele>292.9</ele>
      </trkpt>
      <trkpt lat="46.44107" lon="4.8145">
        <ele>294</ele>
      </trkpt>
      <trkpt lat="46.44108" lon="4.81438">
        <ele>294.8</ele>
      </trkpt>
      <trkpt lat="46.44112" lon="4.81414">
        <ele>296.6</ele>
      </trkpt>
      <trkpt lat="46.44115" lon="4.81398">
        <ele>298.9</ele>
      </trkpt>
      <trkpt lat="46.44117" lon="4.81376">
        <ele>300.5</ele>
      </trkpt>
      <trkpt lat="46.44117" lon="4.81363">
        <ele>300.9</ele>
      </trkpt>
      <trkpt lat="46.44116" lon="4.81353">
        <ele>301.3</ele>
      </trkpt>
      <trkpt lat="46.44115" lon="4.81339">
        <ele>302</ele>
      </trkpt>
      <trkpt lat="46.44113" lon="4.81321">
        <ele>302.6</ele>
      </trkpt>
      <trkpt lat="46.44107" lon="4.81298">
        <ele>302.9</ele>
      </trkpt>
      <trkpt lat="46.44102" lon="4.81276">
        <ele>303</ele>
      </trkpt>
      <trkpt lat="46.44093" lon="4.81239">
        <ele>303.1</ele>
      </trkpt>
      <trkpt lat="46.44087" lon="4.8121">
        <ele>302.8</ele>
      </trkpt>
      <trkpt lat="46.44085" lon="4.81193">
        <ele>302.1</ele>
      </trkpt>
      <trkpt lat="46.44084" lon="4.81184">
        <ele>302</ele>
      </trkpt>
      <trkpt lat="46.44083" lon="4.81173">
        <ele>302</ele>
      </trkpt>
      <trkpt lat="46.44083" lon="4.81167">
        <ele>302</ele>
      </trkpt>
      <trkpt lat="46.44051" lon="4.81156">
        <ele>301.2</ele>
      </trkpt>
      <trkpt lat="46.44042" lon="4.81153">
        <ele>300.8</ele>
      </trkpt>
      <trkpt lat="46.44036" lon="4.8115">
        <ele>300.5</ele>
      </trkpt>
      <trkpt lat="46.44033" lon="4.81147">
        <ele>300.3</ele>
      </trkpt>
      <trkpt lat="46.44032" lon="4.81143">
        <ele>300.3</ele>
      </trkpt>
      <trkpt lat="46.4403" lon="4.81137">
        <ele>300.1</ele>
      </trkpt>
      <trkpt lat="46.44026" lon="4.81119">
        <ele>299.9</ele>
      </trkpt>
      <trkpt lat="46.4402" lon="4.81084">
        <ele>299.7</ele>
      </trkpt>
      <trkpt lat="46.44013" lon="4.8103">
        <ele>298.5</ele>
      </trkpt>
      <trkpt lat="46.44019" lon="4.8103">
        <ele>298.7</ele>
      </trkpt>
      <trkpt lat="46.44027" lon="4.8103">
        <ele>299</ele>
      </trkpt>
      <trkpt lat="46.44037" lon="4.8103">
        <ele>299.4</ele>
      </trkpt>
      <trkpt lat="46.44059" lon="4.81034">
        <ele>300.2</ele>
      </trkpt>
      <trkpt lat="46.44091" lon="4.8104">
        <ele>300.6</ele>
      </trkpt>
      <trkpt lat="46.44128" lon="4.81048">
        <ele>301</ele>
      </trkpt>
      <trkpt lat="46.44167" lon="4.8106">
        <ele>300.3</ele>
      </trkpt>
      <trkpt lat="46.44212" lon="4.81073">
        <ele>299.7</ele>
      </trkpt>
      <trkpt lat="46.4423" lon="4.81078">
        <ele>299.4</ele>
      </trkpt>
      <trkpt lat="46.4424" lon="4.81081">
        <ele>299.2</ele>
      </trkpt>
      <trkpt lat="46.44251" lon="4.81086">
        <ele>299.2</ele>
      </trkpt>
      <trkpt lat="46.44263" lon="4.81094">
        <ele>299.3</ele>
      </trkpt>
      <trkpt lat="46.44274" lon="4.81103">
        <ele>299.5</ele>
      </trkpt>
      <trkpt lat="46.44279" lon="4.81107">
        <ele>299.6</ele>
      </trkpt>
      <trkpt lat="46.44283" lon="4.81109">
        <ele>299.5</ele>
      </trkpt>
      <trkpt lat="46.44285" lon="4.8111">
        <ele>299.4</ele>
      </trkpt>
      <trkpt lat="46.44291" lon="4.81111">
        <ele>299</ele>
      </trkpt>
      <trkpt lat="46.44299" lon="4.81111">
        <ele>298.5</ele>
      </trkpt>
      <trkpt lat="46.44307" lon="4.81113">
        <ele>298</ele>
      </trkpt>
      <trkpt lat="46.44327" lon="4.81116">
        <ele>296.8</ele>
      </trkpt>
      <trkpt lat="46.44342" lon="4.81117">
        <ele>295.8</ele>
      </trkpt>
      <trkpt lat="46.4435" lon="4.81116">
        <ele>295.2</ele>
      </trkpt>
      <trkpt lat="46.44362" lon="4.81111">
        <ele>293.9</ele>
      </trkpt>
      <trkpt lat="46.44378" lon="4.81102">
        <ele>292.3</ele>
      </trkpt>
      <trkpt lat="46.44389" lon="4.81099">
        <ele>291.1</ele>
      </trkpt>
      <trkpt lat="46.44417" lon="4.81094">
        <ele>288.4</ele>
      </trkpt>
      <trkpt lat="46.44439" lon="4.8109">
        <ele>286.8</ele>
      </trkpt>
      <trkpt lat="46.44456" lon="4.8109">
        <ele>285.7</ele>
      </trkpt>
      <trkpt lat="46.44473" lon="4.81093">
        <ele>284.7</ele>
      </trkpt>
      <trkpt lat="46.44483" lon="4.81096">
        <ele>284.8</ele>
      </trkpt>
      <trkpt lat="46.44493" lon="4.811">
        <ele>284.8</ele>
      </trkpt>
      <trkpt lat="46.44499" lon="4.811">
        <ele>284.6</ele>
      </trkpt>
      <trkpt lat="46.44507" lon="4.811">
        <ele>284.4</ele>
      </trkpt>
      <trkpt lat="46.44514" lon="4.81099">
        <ele>284.3</ele>
      </trkpt>
      <trkpt lat="46.44523" lon="4.81096">
        <ele>284.1</ele>
      </trkpt>
      <trkpt lat="46.44542" lon="4.81089">
        <ele>284.4</ele>
      </trkpt>
      <trkpt lat="46.44566" lon="4.81082">
        <ele>285</ele>
      </trkpt>
      <trkpt lat="46.44579" lon="4.81079">
        <ele>285</ele>
      </trkpt>
      <trkpt lat="46.44588" lon="4.81075">
        <ele>285.2</ele>
      </trkpt>
      <trkpt lat="46.44589" lon="4.81069">
        <ele>285.3</ele>
      </trkpt>
      <trkpt lat="46.4459" lon="4.81064">
        <ele>285.4</ele>
      </trkpt>
      <trkpt lat="46.44592" lon="4.81062">
        <ele>285.5</ele>
      </trkpt>
      <trkpt lat="46.44601" lon="4.81044">
        <ele>286.7</ele>
      </trkpt>
      <trkpt lat="46.44631" lon="4.80993">
        <ele>289.9</ele>
      </trkpt>
      <trkpt lat="46.44647" lon="4.80969">
        <ele>291.7</ele>
      </trkpt>
      <trkpt lat="46.44655" lon="4.80956">
        <ele>292.8</ele>
      </trkpt>
      <trkpt lat="46.44667" lon="4.8094">
        <ele>294.4</ele>
      </trkpt>
      <trkpt lat="46.44676" lon="4.80926">
        <ele>296.1</ele>
      </trkpt>
      <trkpt lat="46.4468" lon="4.80919">
        <ele>296.8</ele>
      </trkpt>
      <trkpt lat="46.44699" lon="4.8088">
        <ele>298.8</ele>
      </trkpt>
      <trkpt lat="46.44717" lon="4.80842">
        <ele>300.6</ele>
      </trkpt>
      <trkpt lat="46.44728" lon="4.80816">
        <ele>301.4</ele>
      </trkpt>
      <trkpt lat="46.44736" lon="4.8079">
        <ele>302</ele>
      </trkpt>
      <trkpt lat="46.44746" lon="4.80761">
        <ele>302.2</ele>
      </trkpt>
      <trkpt lat="46.44749" lon="4.8075">
        <ele>302</ele>
      </trkpt>
      <trkpt lat="46.44751" lon="4.80738">
        <ele>302</ele>
      </trkpt>
      <trkpt lat="46.44752" lon="4.80724">
        <ele>302.1</ele>
      </trkpt>
      <trkpt lat="46.44753" lon="4.80708">
        <ele>301.6</ele>
      </trkpt>
      <trkpt lat="46.44755" lon="4.80694">
        <ele>301.1</ele>
      </trkpt>
      <trkpt lat="46.44758" lon="4.80683">
        <ele>300.6</ele>
      </trkpt>
      <trkpt lat="46.44761" lon="4.80664">
        <ele>299.7</ele>
      </trkpt>
      <trkpt lat="46.44765" lon="4.80649">
        <ele>299.1</ele>
      </trkpt>
      <trkpt lat="46.44766" lon="4.80639">
        <ele>298.6</ele>
      </trkpt>
      <trkpt lat="46.44767" lon="4.80629">
        <ele>298.1</ele>
      </trkpt>
      <trkpt lat="46.44767" lon="4.80613">
        <ele>297.3</ele>
      </trkpt>
      <trkpt lat="46.44765" lon="4.80579">
        <ele>295.2</ele>
      </trkpt>
      <trkpt lat="46.44764" lon="4.80561">
        <ele>293.8</ele>
      </trkpt>
      <trkpt lat="46.44764" lon="4.80542">
        <ele>292.5</ele>
      </trkpt>
      <trkpt lat="46.44765" lon="4.80525">
        <ele>291.2</ele>
      </trkpt>
      <trkpt lat="46.44769" lon="4.8049">
        <ele>288.3</ele>
      </trkpt>
      <trkpt lat="46.44774" lon="4.80456">
        <ele>285.8</ele>
      </trkpt>
      <trkpt lat="46.44776" lon="4.80444">
        <ele>285</ele>
      </trkpt>
      <trkpt lat="46.44779" lon="4.80435">
        <ele>284.3</ele>
      </trkpt>
      <trkpt lat="46.44781" lon="4.80428">
        <ele>283.8</ele>
      </trkpt>
      <trkpt lat="46.44782" lon="4.80421">
        <ele>283.3</ele>
      </trkpt>
      <trkpt lat="46.44783" lon="4.80414">
        <ele>282.7</ele>
      </trkpt>
      <trkpt lat="46.44783" lon="4.80405">
        <ele>281.8</ele>
      </trkpt>
      <trkpt lat="46.44767" lon="4.80405">
        <ele>281.5</ele>
      </trkpt>
      <trkpt lat="46.44784" lon="4.80396">
        <ele>280.9</ele>
      </trkpt>
      <trkpt lat="46.44793" lon="4.80389">
        <ele>280.5</ele>
      </trkpt>
      <trkpt lat="46.44801" lon="4.80382">
        <ele>280.1</ele>
      </trkpt>
      <trkpt lat="46.44809" lon="4.80369">
        <ele>278.8</ele>
      </trkpt>
      <trkpt lat="46.44822" lon="4.80343">
        <ele>276.7</ele>
      </trkpt>
      <trkpt lat="46.44832" lon="4.80326">
        <ele>275.2</ele>
      </trkpt>
      <trkpt lat="46.44846" lon="4.80309">
        <ele>273.7</ele>
      </trkpt>
      <trkpt lat="46.44895" lon="4.80262">
        <ele>270.7</ele>
      </trkpt>
      <trkpt lat="46.44916" lon="4.80242">
        <ele>270.4</ele>
      </trkpt>
      <trkpt lat="46.44924" lon="4.80232">
        <ele>270.4</ele>
      </trkpt>
      <trkpt lat="46.44943" lon="4.80194">
        <ele>270.8</ele>
      </trkpt>
      <trkpt lat="46.44951" lon="4.8018">
        <ele>270.5</ele>
      </trkpt>
      <trkpt lat="46.44963" lon="4.80162">
        <ele>270.1</ele>
      </trkpt>
      <trkpt lat="46.44981" lon="4.80137">
        <ele>270.5</ele>
      </trkpt>
      <trkpt lat="46.44989" lon="4.80121">
        <ele>269.7</ele>
      </trkpt>
      <trkpt lat="46.44999" lon="4.80097">
        <ele>268.4</ele>
      </trkpt>
      <trkpt lat="46.45008" lon="4.8008">
        <ele>267.6</ele>
      </trkpt>
      <trkpt lat="46.45012" lon="4.8007">
        <ele>267.1</ele>
      </trkpt>
      <trkpt lat="46.45019" lon="4.80058">
        <ele>266.5</ele>
      </trkpt>
      <trkpt lat="46.44999" lon="4.8">
        <ele>264.9</ele>
      </trkpt>
      <trkpt lat="46.44992" lon="4.79979">
        <ele>264.6</ele>
      </trkpt>
      <trkpt lat="46.44994" lon="4.79953">
        <ele>265.1</ele>
      </trkpt>
      <trkpt lat="46.45007" lon="4.79932">
        <ele>265.9</ele>
      </trkpt>
      <trkpt lat="46.45017" lon="4.79916">
        <ele>267</ele>
      </trkpt>
      <trkpt lat="46.45109" lon="4.79863">
        <ele>269.9</ele>
      </trkpt>
      <trkpt lat="46.45137" lon="4.79862">
        <ele>270.8</ele>
      </trkpt>
      <trkpt lat="46.45186" lon="4.79861">
        <ele>271</ele>
      </trkpt>
      <trkpt lat="46.45186" lon="4.79836">
        <ele>272.6</ele>
      </trkpt>
      <trkpt lat="46.45187" lon="4.79821">
        <ele>273.6</ele>
      </trkpt>
      <trkpt lat="46.45191" lon="4.79787">
        <ele>276.2</ele>
      </trkpt>
      <trkpt lat="46.45193" lon="4.79775">
        <ele>277</ele>
      </trkpt>
      <trkpt lat="46.45199" lon="4.79765">
        <ele>277.5</ele>
      </trkpt>
      <trkpt lat="46.45204" lon="4.7975">
        <ele>278</ele>
      </trkpt>
      <trkpt lat="46.45213" lon="4.79737">
        <ele>278.5</ele>
      </trkpt>
      <trkpt lat="46.45234" lon="4.79703">
        <ele>280.5</ele>
      </trkpt>
      <trkpt lat="46.45246" lon="4.79663">
        <ele>281.9</ele>
      </trkpt>
      <trkpt lat="46.45256" lon="4.79633">
        <ele>282</ele>
      </trkpt>
      <trkpt lat="46.45264" lon="4.79609">
        <ele>282.5</ele>
      </trkpt>
      <trkpt lat="46.45264" lon="4.79607">
        <ele>282.4</ele>
      </trkpt>
      <trkpt lat="46.45265" lon="4.79605">
        <ele>282.4</ele>
      </trkpt>
      <trkpt lat="46.45285" lon="4.79532">
        <ele>281.4</ele>
      </trkpt>
      <trkpt lat="46.45284" lon="4.79455">
        <ele>277</ele>
      </trkpt>
      <trkpt lat="46.45273" lon="4.79452">
        <ele>276.6</ele>
      </trkpt>
      <trkpt lat="46.45273" lon="4.79452">
        <ele>276.6</ele>
      </trkpt>
      <trkpt lat="46.45273" lon="4.7945">
        <ele>276.4</ele>
      </trkpt>
      <trkpt lat="46.45272" lon="4.79437">
        <ele>275.4</ele>
      </trkpt>
      <trkpt lat="46.45269" lon="4.79358">
        <ele>266.8</ele>
      </trkpt>
      <trkpt lat="46.45235" lon="4.79341">
        <ele>262.6</ele>
      </trkpt>
      <trkpt lat="46.45186" lon="4.79327">
        <ele>260.5</ele>
      </trkpt>
      <trkpt lat="46.4515" lon="4.79321">
        <ele>260.3</ele>
      </trkpt>
      <trkpt lat="46.45118" lon="4.79321">
        <ele>259.9</ele>
      </trkpt>
      <trkpt lat="46.45052" lon="4.79332">
        <ele>259.7</ele>
      </trkpt>
      <trkpt lat="46.44995" lon="4.79319">
        <ele>256.8</ele>
      </trkpt>
      <trkpt lat="46.44951" lon="4.79309">
        <ele>254.5</ele>
      </trkpt>
      <trkpt lat="46.44938" lon="4.79304">
        <ele>253.6</ele>
      </trkpt>
      <trkpt lat="46.44929" lon="4.79294">
        <ele>252.9</ele>
      </trkpt>
      <trkpt lat="46.44924" lon="4.79288">
        <ele>252.5</ele>
      </trkpt>
      <trkpt lat="46.44918" lon="4.79277">
        <ele>252</ele>
      </trkpt>
      <trkpt lat="46.44913" lon="4.79267">
        <ele>251.5</ele>
      </trkpt>
      <trkpt lat="46.4491" lon="4.79257">
        <ele>251</ele>
      </trkpt>
      <trkpt lat="46.44912" lon="4.79231">
        <ele>250.1</ele>
      </trkpt>
      <trkpt lat="46.44908" lon="4.79223">
        <ele>249.7</ele>
      </trkpt>
      <trkpt lat="46.44899" lon="4.79221">
        <ele>249.3</ele>
      </trkpt>
      <trkpt lat="46.44841" lon="4.79214">
        <ele>248</ele>
      </trkpt>
      <trkpt lat="46.44816" lon="4.79212">
        <ele>247.6</ele>
      </trkpt>
      <trkpt lat="46.44803" lon="4.7921">
        <ele>247.6</ele>
      </trkpt>
      <trkpt lat="46.44769" lon="4.79205">
        <ele>247.3</ele>
      </trkpt>
      <trkpt lat="46.44739" lon="4.79199">
        <ele>247</ele>
      </trkpt>
      <trkpt lat="46.4472" lon="4.79193">
        <ele>246.9</ele>
      </trkpt>
      <trkpt lat="46.44696" lon="4.7919">
        <ele>246</ele>
      </trkpt>
      <trkpt lat="46.44665" lon="4.79187">
        <ele>245.7</ele>
      </trkpt>
      <trkpt lat="46.44619" lon="4.7919">
        <ele>245.2</ele>
      </trkpt>
      <trkpt lat="46.44604" lon="4.79184">
        <ele>245</ele>
      </trkpt>
      <trkpt lat="46.44597" lon="4.79176">
        <ele>245</ele>
      </trkpt>
      <trkpt lat="46.44587" lon="4.79158">
        <ele>244.7</ele>
      </trkpt>
      <trkpt lat="46.44574" lon="4.79137">
        <ele>244</ele>
      </trkpt>
      <trkpt lat="46.44569" lon="4.79125">
        <ele>244</ele>
      </trkpt>
      <trkpt lat="46.44568" lon="4.79114">
        <ele>244</ele>
      </trkpt>
      <trkpt lat="46.44569" lon="4.79098">
        <ele>243.7</ele>
      </trkpt>
      <trkpt lat="46.44572" lon="4.79068">
        <ele>243.6</ele>
      </trkpt>
      <trkpt lat="46.44574" lon="4.79049">
        <ele>243.8</ele>
      </trkpt>
      <trkpt lat="46.44574" lon="4.79035">
        <ele>244.1</ele>
      </trkpt>
      <trkpt lat="46.44572" lon="4.79009">
        <ele>244.5</ele>
      </trkpt>
      <trkpt lat="46.44569" lon="4.78977">
        <ele>244.8</ele>
      </trkpt>
      <trkpt lat="46.44566" lon="4.7895">
        <ele>244.7</ele>
      </trkpt>
      <trkpt lat="46.44565" lon="4.78922">
        <ele>244.7</ele>
      </trkpt>
      <trkpt lat="46.44567" lon="4.78886">
        <ele>244.8</ele>
      </trkpt>
      <trkpt lat="46.44568" lon="4.78871">
        <ele>244.6</ele>
      </trkpt>
      <trkpt lat="46.44566" lon="4.78865">
        <ele>244.4</ele>
      </trkpt>
      <trkpt lat="46.44579" lon="4.78871">
        <ele>245.1</ele>
      </trkpt>
      <trkpt lat="46.44586" lon="4.78875">
        <ele>245.7</ele>
      </trkpt>
      <trkpt lat="46.44592" lon="4.78884">
        <ele>246.5</ele>
      </trkpt>
      <trkpt lat="46.44598" lon="4.789">
        <ele>247</ele>
      </trkpt>
      <trkpt lat="46.44603" lon="4.78917">
        <ele>247.4</ele>
      </trkpt>
      <trkpt lat="46.44608" lon="4.78928">
        <ele>247.8</ele>
      </trkpt>
      <trkpt lat="46.44619" lon="4.78944">
        <ele>249.1</ele>
      </trkpt>
      <trkpt lat="46.44628" lon="4.78955">
        <ele>250.2</ele>
      </trkpt>
      <trkpt lat="46.44641" lon="4.7897">
        <ele>251.2</ele>
      </trkpt>
      <trkpt lat="46.44647" lon="4.78978">
        <ele>251.7</ele>
      </trkpt>
      <trkpt lat="46.44652" lon="4.78981">
        <ele>252.2</ele>
      </trkpt>
      <trkpt lat="46.44662" lon="4.78986">
        <ele>253</ele>
      </trkpt>
      <trkpt lat="46.44684" lon="4.78992">
        <ele>255.3</ele>
      </trkpt>
      <trkpt lat="46.44711" lon="4.78995">
        <ele>257.6</ele>
      </trkpt>
      <trkpt lat="46.44736" lon="4.78995">
        <ele>258.9</ele>
      </trkpt>
      <trkpt lat="46.44759" lon="4.78994">
        <ele>259.5</ele>
      </trkpt>
      <trkpt lat="46.4479" lon="4.78992">
        <ele>259.4</ele>
      </trkpt>
      <trkpt lat="46.44803" lon="4.78994">
        <ele>258.8</ele>
      </trkpt>
      <trkpt lat="46.44816" lon="4.78998">
        <ele>257.8</ele>
      </trkpt>
      <trkpt lat="46.4483" lon="4.79005">
        <ele>256.6</ele>
      </trkpt>
      <trkpt lat="46.44848" lon="4.79014">
        <ele>254.4</ele>
      </trkpt>
      <trkpt lat="46.44864" lon="4.79019">
        <ele>252.9</ele>
      </trkpt>
      <trkpt lat="46.44881" lon="4.79022">
        <ele>252.3</ele>
      </trkpt>
      <trkpt lat="46.44901" lon="4.79021">
        <ele>251.7</ele>
      </trkpt>
      <trkpt lat="46.44915" lon="4.79021">
        <ele>251.1</ele>
      </trkpt>
      <trkpt lat="46.44924" lon="4.79022">
        <ele>251</ele>
      </trkpt>
      <trkpt lat="46.44936" lon="4.79026">
        <ele>251</ele>
      </trkpt>
      <trkpt lat="46.44947" lon="4.79034">
        <ele>251.3</ele>
      </trkpt>
      <trkpt lat="46.44949" lon="4.79035">
        <ele>251.5</ele>
      </trkpt>
      <trkpt lat="46.44953" lon="4.79037">
        <ele>252</ele>
      </trkpt>
      <trkpt lat="46.44959" lon="4.79036">
        <ele>252.5</ele>
      </trkpt>
      <trkpt lat="46.44962" lon="4.79033">
        <ele>252.9</ele>
      </trkpt>
      <trkpt lat="46.44966" lon="4.79023">
        <ele>253.2</ele>
      </trkpt>
      <trkpt lat="46.44968" lon="4.79011">
        <ele>253</ele>
      </trkpt>
      <trkpt lat="46.4497" lon="4.78978">
        <ele>252.8</ele>
      </trkpt>
      <trkpt lat="46.44974" lon="4.78943">
        <ele>253.3</ele>
      </trkpt>
      <trkpt lat="46.44979" lon="4.78916">
        <ele>253.6</ele>
      </trkpt>
      <trkpt lat="46.44983" lon="4.78903">
        <ele>254.2</ele>
      </trkpt>
      <trkpt lat="46.44989" lon="4.78878">
        <ele>255.1</ele>
      </trkpt>
      <trkpt lat="46.44998" lon="4.78843">
        <ele>256</ele>
      </trkpt>
      <trkpt lat="46.45003" lon="4.78828">
        <ele>256</ele>
      </trkpt>
      <trkpt lat="46.45009" lon="4.78808">
        <ele>255.8</ele>
      </trkpt>
      <trkpt lat="46.45019" lon="4.78784">
        <ele>256.7</ele>
      </trkpt>
      <trkpt lat="46.45031" lon="4.78764">
        <ele>257.4</ele>
      </trkpt>
      <trkpt lat="46.45038" lon="4.78754">
        <ele>257.7</ele>
      </trkpt>
      <trkpt lat="46.45049" lon="4.78741">
        <ele>258.4</ele>
      </trkpt>
      <trkpt lat="46.45062" lon="4.78724">
        <ele>258.6</ele>
      </trkpt>
      <trkpt lat="46.45068" lon="4.78714">
        <ele>258.1</ele>
      </trkpt>
      <trkpt lat="46.45074" lon="4.78704">
        <ele>257.8</ele>
      </trkpt>
      <trkpt lat="46.45077" lon="4.78694">
        <ele>257.3</ele>
      </trkpt>
      <trkpt lat="46.45079" lon="4.78686">
        <ele>256.9</ele>
      </trkpt>
      <trkpt lat="46.45083" lon="4.78661">
        <ele>255.8</ele>
      </trkpt>
      <trkpt lat="46.45085" lon="4.78651">
        <ele>255.7</ele>
      </trkpt>
      <trkpt lat="46.45095" lon="4.78632">
        <ele>256.5</ele>
      </trkpt>
      <trkpt lat="46.45142" lon="4.78545">
        <ele>257.2</ele>
      </trkpt>
      <trkpt lat="46.45178" lon="4.7841">
        <ele>258.1</ele>
      </trkpt>
      <trkpt lat="46.45185" lon="4.78375">
        <ele>258</ele>
      </trkpt>
      <trkpt lat="46.45186" lon="4.78365">
        <ele>258.3</ele>
      </trkpt>
      <trkpt lat="46.45187" lon="4.78341">
        <ele>259</ele>
      </trkpt>
      <trkpt lat="46.45189" lon="4.7833">
        <ele>259.5</ele>
      </trkpt>
      <trkpt lat="46.45192" lon="4.78319">
        <ele>260.2</ele>
      </trkpt>
      <trkpt lat="46.45203" lon="4.78289">
        <ele>260.8</ele>
      </trkpt>
      <trkpt lat="46.45224" lon="4.78243">
        <ele>263.1</ele>
      </trkpt>
      <trkpt lat="46.45231" lon="4.78224">
        <ele>263.6</ele>
      </trkpt>
      <trkpt lat="46.45242" lon="4.7819">
        <ele>264.1</ele>
      </trkpt>
      <trkpt lat="46.45246" lon="4.78177">
        <ele>264.9</ele>
      </trkpt>
      <trkpt lat="46.4525" lon="4.78165">
        <ele>265.9</ele>
      </trkpt>
      <trkpt lat="46.45254" lon="4.78156">
        <ele>266.2</ele>
      </trkpt>
      <trkpt lat="46.45261" lon="4.78147">
        <ele>266.7</ele>
      </trkpt>
      <trkpt lat="46.4527" lon="4.78141">
        <ele>267.4</ele>
      </trkpt>
      <trkpt lat="46.45281" lon="4.78133">
        <ele>268.2</ele>
      </trkpt>
      <trkpt lat="46.45295" lon="4.78119">
        <ele>269.2</ele>
      </trkpt>
      <trkpt lat="46.45311" lon="4.78105">
        <ele>270.2</ele>
      </trkpt>
      <trkpt lat="46.45327" lon="4.78093">
        <ele>271.1</ele>
      </trkpt>
      <trkpt lat="46.45345" lon="4.78083">
        <ele>272.4</ele>
      </trkpt>
      <trkpt lat="46.45361" lon="4.78073">
        <ele>273</ele>
      </trkpt>
      <trkpt lat="46.45384" lon="4.78064">
        <ele>273.8</ele>
      </trkpt>
      <trkpt lat="46.45403" lon="4.78059">
        <ele>274.4</ele>
      </trkpt>
      <trkpt lat="46.45417" lon="4.78053">
        <ele>275</ele>
      </trkpt>
      <trkpt lat="46.45425" lon="4.78049">
        <ele>275</ele>
      </trkpt>
      <trkpt lat="46.45433" lon="4.78042">
        <ele>275</ele>
      </trkpt>
      <trkpt lat="46.4545" lon="4.78022">
        <ele>275</ele>
      </trkpt>
      <trkpt lat="46.45471" lon="4.77994">
        <ele>275.2</ele>
      </trkpt>
      <trkpt lat="46.45485" lon="4.77977">
        <ele>275.3</ele>
      </trkpt>
      <trkpt lat="46.45501" lon="4.77962">
        <ele>275.7</ele>
      </trkpt>
      <trkpt lat="46.45521" lon="4.77948">
        <ele>276.8</ele>
      </trkpt>
      <trkpt lat="46.45536" lon="4.77936">
        <ele>276.8</ele>
      </trkpt>
      <trkpt lat="46.45547" lon="4.77925">
        <ele>276.8</ele>
      </trkpt>
      <trkpt lat="46.4555" lon="4.77922">
        <ele>276.9</ele>
      </trkpt>
      <trkpt lat="46.4557" lon="4.77891">
        <ele>277.9</ele>
      </trkpt>
      <trkpt lat="46.45592" lon="4.77846">
        <ele>278.5</ele>
      </trkpt>
      <trkpt lat="46.45615" lon="4.77797">
        <ele>280.2</ele>
      </trkpt>
      <trkpt lat="46.4563" lon="4.77767">
        <ele>280.9</ele>
      </trkpt>
      <trkpt lat="46.45646" lon="4.77745">
        <ele>281.8</ele>
      </trkpt>
      <trkpt lat="46.45656" lon="4.77735">
        <ele>281.7</ele>
      </trkpt>
      <trkpt lat="46.45665" lon="4.77726">
        <ele>281.9</ele>
      </trkpt>
      <trkpt lat="46.45673" lon="4.77721">
        <ele>281.8</ele>
      </trkpt>
      <trkpt lat="46.45679" lon="4.77717">
        <ele>281.6</ele>
      </trkpt>
      <trkpt lat="46.45696" lon="4.77708">
        <ele>281.5</ele>
      </trkpt>
      <trkpt lat="46.45731" lon="4.77688">
        <ele>281</ele>
      </trkpt>
      <trkpt lat="46.45737" lon="4.77683">
        <ele>281</ele>
      </trkpt>
      <trkpt lat="46.45742" lon="4.77678">
        <ele>281</ele>
      </trkpt>
      <trkpt lat="46.45753" lon="4.77666">
        <ele>281</ele>
      </trkpt>
      <trkpt lat="46.45756" lon="4.77662">
        <ele>281</ele>
      </trkpt>
      <trkpt lat="46.45769" lon="4.77646">
        <ele>280.5</ele>
      </trkpt>
      <trkpt lat="46.45768" lon="4.77628">
        <ele>280</ele>
      </trkpt>
      <trkpt lat="46.45767" lon="4.77608">
        <ele>279.4</ele>
      </trkpt>
      <trkpt lat="46.45767" lon="4.7757">
        <ele>278.9</ele>
      </trkpt>
      <trkpt lat="46.45767" lon="4.77528">
        <ele>277</ele>
      </trkpt>
      <trkpt lat="46.45766" lon="4.77492">
        <ele>274.6</ele>
      </trkpt>
      <trkpt lat="46.45765" lon="4.77461">
        <ele>272.9</ele>
      </trkpt>
      <trkpt lat="46.45765" lon="4.77435">
        <ele>271.8</ele>
      </trkpt>
      <trkpt lat="46.45766" lon="4.7741">
        <ele>271.4</ele>
      </trkpt>
      <trkpt lat="46.45769" lon="4.77381">
        <ele>271.3</ele>
      </trkpt>
      <trkpt lat="46.45774" lon="4.77348">
        <ele>272.9</ele>
      </trkpt>
      <trkpt lat="46.4578" lon="4.7731">
        <ele>274.9</ele>
      </trkpt>
      <trkpt lat="46.45781" lon="4.77301">
        <ele>275.2</ele>
      </trkpt>
      <trkpt lat="46.45783" lon="4.77291">
        <ele>275.5</ele>
      </trkpt>
      <trkpt lat="46.45784" lon="4.7728">
        <ele>275.9</ele>
      </trkpt>
      <trkpt lat="46.45785" lon="4.77256">
        <ele>276.8</ele>
      </trkpt>
      <trkpt lat="46.45786" lon="4.77233">
        <ele>277.6</ele>
      </trkpt>
      <trkpt lat="46.45789" lon="4.77203">
        <ele>278.7</ele>
      </trkpt>
      <trkpt lat="46.4579" lon="4.77191">
        <ele>279.1</ele>
      </trkpt>
      <trkpt lat="46.45793" lon="4.77153">
        <ele>280</ele>
      </trkpt>
      <trkpt lat="46.45786" lon="4.77141">
        <ele>280</ele>
      </trkpt>
      <trkpt lat="46.4578" lon="4.77124">
        <ele>280.5</ele>
      </trkpt>
      <trkpt lat="46.45779" lon="4.77119">
        <ele>280.7</ele>
      </trkpt>
      <trkpt lat="46.45779" lon="4.77108">
        <ele>281</ele>
      </trkpt>
      <trkpt lat="46.45782" lon="4.77086">
        <ele>281</ele>
      </trkpt>
      <trkpt lat="46.45787" lon="4.7706">
        <ele>281.8</ele>
      </trkpt>
      <trkpt lat="46.45789" lon="4.77048">
        <ele>281.8</ele>
      </trkpt>
      <trkpt lat="46.4579" lon="4.77042">
        <ele>281.7</ele>
      </trkpt>
      <trkpt lat="46.45796" lon="4.77027">
        <ele>281.6</ele>
      </trkpt>
      <trkpt lat="46.45806" lon="4.76998">
        <ele>282</ele>
      </trkpt>
      <trkpt lat="46.45814" lon="4.76975">
        <ele>282.3</ele>
      </trkpt>
      <trkpt lat="46.4582" lon="4.76954">
        <ele>282.9</ele>
      </trkpt>
      <trkpt lat="46.45826" lon="4.76929">
        <ele>284</ele>
      </trkpt>
      <trkpt lat="46.45834" lon="4.76897">
        <ele>285</ele>
      </trkpt>
      <trkpt lat="46.4584" lon="4.7688">
        <ele>285.5</ele>
      </trkpt>
      <trkpt lat="46.45845" lon="4.76864">
        <ele>286.3</ele>
      </trkpt>
      <trkpt lat="46.45847" lon="4.76858">
        <ele>286.7</ele>
      </trkpt>
      <trkpt lat="46.45849" lon="4.76852">
        <ele>287.1</ele>
      </trkpt>
      <trkpt lat="46.45872" lon="4.76789">
        <ele>291.9</ele>
      </trkpt>
      <trkpt lat="46.4589" lon="4.76743">
        <ele>296.8</ele>
      </trkpt>
      <trkpt lat="46.45899" lon="4.76718">
        <ele>300.3</ele>
      </trkpt>
      <trkpt lat="46.45904" lon="4.76708">
        <ele>301.6</ele>
      </trkpt>
      <trkpt lat="46.45911" lon="4.767">
        <ele>302.6</ele>
      </trkpt>
      <trkpt lat="46.45933" lon="4.76682">
        <ele>307</ele>
      </trkpt>
      <trkpt lat="46.45947" lon="4.76673">
        <ele>309.3</ele>
      </trkpt>
      <trkpt lat="46.45955" lon="4.7667">
        <ele>310.6</ele>
      </trkpt>
      <trkpt lat="46.45964" lon="4.7667">
        <ele>311.6</ele>
      </trkpt>
      <trkpt lat="46.45972" lon="4.7667">
        <ele>312.3</ele>
      </trkpt>
      <trkpt lat="46.45988" lon="4.76673">
        <ele>313.9</ele>
      </trkpt>
      <trkpt lat="46.45995" lon="4.76674">
        <ele>314.8</ele>
      </trkpt>
      <trkpt lat="46.46004" lon="4.76673">
        <ele>316.1</ele>
      </trkpt>
      <trkpt lat="46.46017" lon="4.7667">
        <ele>318.2</ele>
      </trkpt>
      <trkpt lat="46.46024" lon="4.76668">
        <ele>319.4</ele>
      </trkpt>
      <trkpt lat="46.46038" lon="4.76661">
        <ele>321.9</ele>
      </trkpt>
      <trkpt lat="46.46011" lon="4.76638">
        <ele>322.9</ele>
      </trkpt>
      <trkpt lat="46.45998" lon="4.76631">
        <ele>323.3</ele>
      </trkpt>
      <trkpt lat="46.45971" lon="4.76616">
        <ele>324</ele>
      </trkpt>
      <trkpt lat="46.45927" lon="4.76592">
        <ele>324.5</ele>
      </trkpt>
      <trkpt lat="46.45925" lon="4.76591">
        <ele>324.5</ele>
      </trkpt>
      <trkpt lat="46.45861" lon="4.76563">
        <ele>323.4</ele>
      </trkpt>
      <trkpt lat="46.45814" lon="4.76545">
        <ele>323</ele>
      </trkpt>
      <trkpt lat="46.4575" lon="4.76517">
        <ele>322.4</ele>
      </trkpt>
      <trkpt lat="46.4573" lon="4.7651">
        <ele>322.1</ele>
      </trkpt>
      <trkpt lat="46.45716" lon="4.76509">
        <ele>321.7</ele>
      </trkpt>
      <trkpt lat="46.45708" lon="4.76509">
        <ele>321.6</ele>
      </trkpt>
      <trkpt lat="46.45697" lon="4.76509">
        <ele>321.6</ele>
      </trkpt>
      <trkpt lat="46.4569" lon="4.76507">
        <ele>321.4</ele>
      </trkpt>
      <trkpt lat="46.45683" lon="4.76503">
        <ele>321.5</ele>
      </trkpt>
      <trkpt lat="46.45676" lon="4.765">
        <ele>321.4</ele>
      </trkpt>
      <trkpt lat="46.45648" lon="4.76485">
        <ele>322.3</ele>
      </trkpt>
      <trkpt lat="46.45618" lon="4.76474">
        <ele>323.1</ele>
      </trkpt>
      <trkpt lat="46.45582" lon="4.76458">
        <ele>324.9</ele>
      </trkpt>
      <trkpt lat="46.45562" lon="4.76449">
        <ele>326.4</ele>
      </trkpt>
      <trkpt lat="46.45546" lon="4.7644">
        <ele>326.7</ele>
      </trkpt>
      <trkpt lat="46.45517" lon="4.76423">
        <ele>327.4</ele>
      </trkpt>
      <trkpt lat="46.45512" lon="4.76418">
        <ele>328.1</ele>
      </trkpt>
      <trkpt lat="46.45532" lon="4.76418">
        <ele>329</ele>
      </trkpt>
      <trkpt lat="46.45522" lon="4.76408">
        <ele>330</ele>
      </trkpt>
      <trkpt lat="46.45508" lon="4.76407">
        <ele>330</ele>
      </trkpt>
      <trkpt lat="46.45483" lon="4.76396">
        <ele>330.7</ele>
      </trkpt>
      <trkpt lat="46.45469" lon="4.76391">
        <ele>331.1</ele>
      </trkpt>
      <trkpt lat="46.45447" lon="4.76385">
        <ele>330</ele>
      </trkpt>
      <trkpt lat="46.45418" lon="4.76379">
        <ele>328.8</ele>
      </trkpt>
      <trkpt lat="46.45395" lon="4.76375">
        <ele>327.6</ele>
      </trkpt>
      <trkpt lat="46.45378" lon="4.76371">
        <ele>327.5</ele>
      </trkpt>
      <trkpt lat="46.45359" lon="4.76367">
        <ele>327.9</ele>
      </trkpt>
      <trkpt lat="46.45343" lon="4.76365">
        <ele>328.9</ele>
      </trkpt>
      <trkpt lat="46.45335" lon="4.76362">
        <ele>329.7</ele>
      </trkpt>
      <trkpt lat="46.45324" lon="4.76356">
        <ele>330.3</ele>
      </trkpt>
      <trkpt lat="46.45308" lon="4.76347">
        <ele>331.1</ele>
      </trkpt>
      <trkpt lat="46.45297" lon="4.76342">
        <ele>332</ele>
      </trkpt>
      <trkpt lat="46.45288" lon="4.76339">
        <ele>332.4</ele>
      </trkpt>
      <trkpt lat="46.45269" lon="4.76335">
        <ele>332.4</ele>
      </trkpt>
      <trkpt lat="46.45249" lon="4.76332">
        <ele>332.3</ele>
      </trkpt>
      <trkpt lat="46.45239" lon="4.76329">
        <ele>332.7</ele>
      </trkpt>
      <trkpt lat="46.45219" lon="4.76321">
        <ele>333.7</ele>
      </trkpt>
      <trkpt lat="46.45205" lon="4.76315">
        <ele>334.6</ele>
      </trkpt>
      <trkpt lat="46.45173" lon="4.76306">
        <ele>336</ele>
      </trkpt>
      <trkpt lat="46.45147" lon="4.763">
        <ele>337</ele>
      </trkpt>
      <trkpt lat="46.45139" lon="4.763">
        <ele>337</ele>
      </trkpt>
      <trkpt lat="46.45121" lon="4.76299">
        <ele>336.5</ele>
      </trkpt>
      <trkpt lat="46.45093" lon="4.76299">
        <ele>335.6</ele>
      </trkpt>
      <trkpt lat="46.45074" lon="4.76297">
        <ele>335</ele>
      </trkpt>
      <trkpt lat="46.45062" lon="4.76296">
        <ele>334.5</ele>
      </trkpt>
      <trkpt lat="46.45055" lon="4.76294">
        <ele>334.5</ele>
      </trkpt>
      <trkpt lat="46.45041" lon="4.7629">
        <ele>334.6</ele>
      </trkpt>
      <trkpt lat="46.44986" lon="4.76249">
        <ele>337.1</ele>
      </trkpt>
      <trkpt lat="46.44944" lon="4.76227">
        <ele>336.9</ele>
      </trkpt>
      <trkpt lat="46.44899" lon="4.76205">
        <ele>334</ele>
      </trkpt>
      <trkpt lat="46.4486" lon="4.76185">
        <ele>330.7</ele>
      </trkpt>
      <trkpt lat="46.44844" lon="4.76178">
        <ele>330.6</ele>
      </trkpt>
      <trkpt lat="46.44831" lon="4.7619">
        <ele>328.9</ele>
      </trkpt>
      <trkpt lat="46.44827" lon="4.76214">
        <ele>326.5</ele>
      </trkpt>
      <trkpt lat="46.44851" lon="4.76249">
        <ele>321.8</ele>
      </trkpt>
      <trkpt lat="46.44882" lon="4.76304">
        <ele>316.3</ele>
      </trkpt>
      <trkpt lat="46.44898" lon="4.76349">
        <ele>312.4</ele>
      </trkpt>
      <trkpt lat="46.44903" lon="4.76406">
        <ele>306.9</ele>
      </trkpt>
      <trkpt lat="46.44913" lon="4.76445">
        <ele>304.3</ele>
      </trkpt>
      <trkpt lat="46.44913" lon="4.76454">
        <ele>303.8</ele>
      </trkpt>
      <trkpt lat="46.44914" lon="4.76465">
        <ele>302.9</ele>
      </trkpt>
      <trkpt lat="46.44916" lon="4.76476">
        <ele>302.2</ele>
      </trkpt>
      <trkpt lat="46.4492" lon="4.76487">
        <ele>302.2</ele>
      </trkpt>
      <trkpt lat="46.44925" lon="4.76495">
        <ele>301.8</ele>
      </trkpt>
      <trkpt lat="46.44932" lon="4.76513">
        <ele>300.1</ele>
      </trkpt>
      <trkpt lat="46.44938" lon="4.76527">
        <ele>298.2</ele>
      </trkpt>
      <trkpt lat="46.44944" lon="4.76541">
        <ele>297.1</ele>
      </trkpt>
      <trkpt lat="46.44952" lon="4.7656">
        <ele>296.2</ele>
      </trkpt>
      <trkpt lat="46.44959" lon="4.76575">
        <ele>294.9</ele>
      </trkpt>
      <trkpt lat="46.44964" lon="4.76587">
        <ele>294</ele>
      </trkpt>
      <trkpt lat="46.44968" lon="4.766">
        <ele>293</ele>
      </trkpt>
      <trkpt lat="46.44974" lon="4.76623">
        <ele>290.9</ele>
      </trkpt>
      <trkpt lat="46.44978" lon="4.76633">
        <ele>289.9</ele>
      </trkpt>
      <trkpt lat="46.44984" lon="4.76643">
        <ele>288.7</ele>
      </trkpt>
      <trkpt lat="46.44989" lon="4.76663">
        <ele>286.4</ele>
      </trkpt>
      <trkpt lat="46.44991" lon="4.76671">
        <ele>285.7</ele>
      </trkpt>
      <trkpt lat="46.44984" lon="4.76668">
        <ele>285.9</ele>
      </trkpt>
      <trkpt lat="46.44977" lon="4.76661">
        <ele>286.8</ele>
      </trkpt>
      <trkpt lat="46.44965" lon="4.76651">
        <ele>288.1</ele>
      </trkpt>
      <trkpt lat="46.44959" lon="4.76644">
        <ele>289.1</ele>
      </trkpt>
      <trkpt lat="46.44954" lon="4.76634">
        <ele>290.5</ele>
      </trkpt>
      <trkpt lat="46.44942" lon="4.76611">
        <ele>293</ele>
      </trkpt>
      <trkpt lat="46.44937" lon="4.76602">
        <ele>293.8</ele>
      </trkpt>
      <trkpt lat="46.44932" lon="4.76586">
        <ele>295.2</ele>
      </trkpt>
      <trkpt lat="46.4493" lon="4.76566">
        <ele>297.1</ele>
      </trkpt>
      <trkpt lat="46.44927" lon="4.76554">
        <ele>298.4</ele>
      </trkpt>
      <trkpt lat="46.44924" lon="4.76546">
        <ele>299.3</ele>
      </trkpt>
      <trkpt lat="46.44916" lon="4.76538">
        <ele>300.9</ele>
      </trkpt>
      <trkpt lat="46.44908" lon="4.76529">
        <ele>302.5</ele>
      </trkpt>
      <trkpt lat="46.44903" lon="4.76525">
        <ele>303.2</ele>
      </trkpt>
      <trkpt lat="46.44899" lon="4.76517">
        <ele>303.9</ele>
      </trkpt>
      <trkpt lat="46.44892" lon="4.7651">
        <ele>305</ele>
      </trkpt>
      <trkpt lat="46.44884" lon="4.76507">
        <ele>306</ele>
      </trkpt>
      <trkpt lat="46.44875" lon="4.76506">
        <ele>306.9</ele>
      </trkpt>
      <trkpt lat="46.44863" lon="4.76503">
        <ele>308.4</ele>
      </trkpt>
      <trkpt lat="46.44857" lon="4.76503">
        <ele>308.9</ele>
      </trkpt>
      <trkpt lat="46.44838" lon="4.76496">
        <ele>311.2</ele>
      </trkpt>
      <trkpt lat="46.44828" lon="4.76495">
        <ele>311.8</ele>
      </trkpt>
      <trkpt lat="46.44817" lon="4.7649">
        <ele>312.7</ele>
      </trkpt>
      <trkpt lat="46.44791" lon="4.76477">
        <ele>314.6</ele>
      </trkpt>
      <trkpt lat="46.44773" lon="4.7647">
        <ele>315.6</ele>
      </trkpt>
      <trkpt lat="46.44757" lon="4.76461">
        <ele>317.5</ele>
      </trkpt>
      <trkpt lat="46.44753" lon="4.76458">
        <ele>318.1</ele>
      </trkpt>
      <trkpt lat="46.44722" lon="4.76435">
        <ele>322.3</ele>
      </trkpt>
      <trkpt lat="46.4467" lon="4.76391">
        <ele>327.1</ele>
      </trkpt>
      <trkpt lat="46.44616" lon="4.76353">
        <ele>331.1</ele>
      </trkpt>
      <trkpt lat="46.4459" lon="4.76335">
        <ele>332.6</ele>
      </trkpt>
      <trkpt lat="46.4457" lon="4.76322">
        <ele>333.4</ele>
      </trkpt>
      <trkpt lat="46.44532" lon="4.7631">
        <ele>331.6</ele>
      </trkpt>
      <trkpt lat="46.44523" lon="4.76313">
        <ele>329.9</ele>
      </trkpt>
      <trkpt lat="46.44513" lon="4.76317">
        <ele>328</ele>
      </trkpt>
      <trkpt lat="46.44505" lon="4.76314">
        <ele>327.7</ele>
      </trkpt>
      <trkpt lat="46.44498" lon="4.76307">
        <ele>328.6</ele>
      </trkpt>
      <trkpt lat="46.44486" lon="4.76297">
        <ele>329</ele>
      </trkpt>
      <trkpt lat="46.44475" lon="4.76295">
        <ele>328.1</ele>
      </trkpt>
      <trkpt lat="46.44471" lon="4.76288">
        <ele>329.2</ele>
      </trkpt>
      <trkpt lat="46.44429" lon="4.76284">
        <ele>325.9</ele>
      </trkpt>
      <trkpt lat="46.44417" lon="4.76276">
        <ele>326.3</ele>
      </trkpt>
      <trkpt lat="46.44384" lon="4.76265">
        <ele>323.6</ele>
      </trkpt>
      <trkpt lat="46.44337" lon="4.76252">
        <ele>319.2</ele>
      </trkpt>
      <trkpt lat="46.44316" lon="4.76245">
        <ele>318.1</ele>
      </trkpt>
      <trkpt lat="46.44301" lon="4.76239">
        <ele>317.4</ele>
      </trkpt>
      <trkpt lat="46.44295" lon="4.76237">
        <ele>317.1</ele>
      </trkpt>
      <trkpt lat="46.44285" lon="4.76238">
        <ele>315.5</ele>
      </trkpt>
      <trkpt lat="46.44274" lon="4.7624">
        <ele>313.7</ele>
      </trkpt>
      <trkpt lat="46.44229" lon="4.76229">
        <ele>310.8</ele>
      </trkpt>
      <trkpt lat="46.44223" lon="4.76232">
        <ele>309.5</ele>
      </trkpt>
      <trkpt lat="46.44217" lon="4.76233">
        <ele>308.4</ele>
      </trkpt>
      <trkpt lat="46.44211" lon="4.76233">
        <ele>307.8</ele>
      </trkpt>
      <trkpt lat="46.44203" lon="4.76232">
        <ele>307.2</ele>
      </trkpt>
      <trkpt lat="46.44181" lon="4.76226">
        <ele>305.3</ele>
      </trkpt>
      <trkpt lat="46.44157" lon="4.76216">
        <ele>302.8</ele>
      </trkpt>
      <trkpt lat="46.44142" lon="4.76211">
        <ele>300.8</ele>
      </trkpt>
      <trkpt lat="46.44131" lon="4.76205">
        <ele>299.6</ele>
      </trkpt>
      <trkpt lat="46.44125" lon="4.76203">
        <ele>299</ele>
      </trkpt>
      <trkpt lat="46.44122" lon="4.76206">
        <ele>298.4</ele>
      </trkpt>
      <trkpt lat="46.4412" lon="4.7621">
        <ele>297.6</ele>
      </trkpt>
      <trkpt lat="46.44122" lon="4.76217">
        <ele>297</ele>
      </trkpt>
      <trkpt lat="46.44129" lon="4.76235">
        <ele>295.7</ele>
      </trkpt>
      <trkpt lat="46.44141" lon="4.7626">
        <ele>293.9</ele>
      </trkpt>
      <trkpt lat="46.44158" lon="4.76297">
        <ele>291.1</ele>
      </trkpt>
      <trkpt lat="46.44169" lon="4.76322">
        <ele>289</ele>
      </trkpt>
      <trkpt lat="46.44184" lon="4.7635">
        <ele>285.8</ele>
      </trkpt>
      <trkpt lat="46.44194" lon="4.7637">
        <ele>283.6</ele>
      </trkpt>
      <trkpt lat="46.44196" lon="4.76378">
        <ele>282.8</ele>
      </trkpt>
      <trkpt lat="46.44196" lon="4.76386">
        <ele>281.6</ele>
      </trkpt>
      <trkpt lat="46.44193" lon="4.76405">
        <ele>279.1</ele>
      </trkpt>
      <trkpt lat="46.44183" lon="4.7644">
        <ele>275.5</ele>
      </trkpt>
      <trkpt lat="46.44171" lon="4.76484">
        <ele>271.8</ele>
      </trkpt>
      <trkpt lat="46.44162" lon="4.76515">
        <ele>269.5</ele>
      </trkpt>
      <trkpt lat="46.44132" lon="4.76503">
        <ele>267.3</ele>
      </trkpt>
      <trkpt lat="46.44111" lon="4.76489">
        <ele>266.4</ele>
      </trkpt>
      <trkpt lat="46.44102" lon="4.76483">
        <ele>265.8</ele>
      </trkpt>
      <trkpt lat="46.44097" lon="4.76483">
        <ele>265.4</ele>
      </trkpt>
      <trkpt lat="46.4409" lon="4.76488">
        <ele>264.5</ele>
      </trkpt>
      <trkpt lat="46.44083" lon="4.76504">
        <ele>262.8</ele>
      </trkpt>
      <trkpt lat="46.44074" lon="4.76534">
        <ele>261.5</ele>
      </trkpt>
      <trkpt lat="46.44061" lon="4.76568">
        <ele>261.5</ele>
      </trkpt>
      <trkpt lat="46.44055" lon="4.76583">
        <ele>262</ele>
      </trkpt>
      <trkpt lat="46.44033" lon="4.76572">
        <ele>261.3</ele>
      </trkpt>
      <trkpt lat="46.44017" lon="4.76565">
        <ele>260.4</ele>
      </trkpt>
      <trkpt lat="46.44004" lon="4.76563">
        <ele>260.1</ele>
      </trkpt>
      <trkpt lat="46.43996" lon="4.76563">
        <ele>259.9</ele>
      </trkpt>
      <trkpt lat="46.4399" lon="4.76563">
        <ele>259.6</ele>
      </trkpt>
      <trkpt lat="46.43988" lon="4.76563">
        <ele>259.6</ele>
      </trkpt>
      <trkpt lat="46.43979" lon="4.76564">
        <ele>259.2</ele>
      </trkpt>
      <trkpt lat="46.43963" lon="4.76571">
        <ele>258.3</ele>
      </trkpt>
      <trkpt lat="46.4395" lon="4.76578">
        <ele>257.4</ele>
      </trkpt>
      <trkpt lat="46.43933" lon="4.7659">
        <ele>256.6</ele>
      </trkpt>
      <trkpt lat="46.43915" lon="4.76601">
        <ele>255.9</ele>
      </trkpt>
      <trkpt lat="46.43902" lon="4.76609">
        <ele>255.4</ele>
      </trkpt>
      <trkpt lat="46.43894" lon="4.76614">
        <ele>255.2</ele>
      </trkpt>
      <trkpt lat="46.43885" lon="4.76617">
        <ele>254.7</ele>
      </trkpt>
      <trkpt lat="46.43874" lon="4.7662">
        <ele>253.9</ele>
      </trkpt>
      <trkpt lat="46.43878" lon="4.7665">
        <ele>254.3</ele>
      </trkpt>
      <trkpt lat="46.43879" lon="4.76662">
        <ele>254.6</ele>
      </trkpt>
      <trkpt lat="46.43886" lon="4.76695">
        <ele>255</ele>
      </trkpt>
      <trkpt lat="46.4389" lon="4.76711">
        <ele>255.6</ele>
      </trkpt>
      <trkpt lat="46.43872" lon="4.76705">
        <ele>255.4</ele>
      </trkpt>
      <trkpt lat="46.43838" lon="4.76681">
        <ele>254.1</ele>
      </trkpt>
      <trkpt lat="46.43808" lon="4.76659">
        <ele>254.5</ele>
      </trkpt>
      <trkpt lat="46.43799" lon="4.76651">
        <ele>254.8</ele>
      </trkpt>
      <trkpt lat="46.43792" lon="4.76647">
        <ele>254.9</ele>
      </trkpt>
      <trkpt lat="46.43779" lon="4.76638">
        <ele>254.9</ele>
      </trkpt>
      <trkpt lat="46.43768" lon="4.76634">
        <ele>255</ele>
      </trkpt>
      <trkpt lat="46.43748" lon="4.76627">
        <ele>255.3</ele>
      </trkpt>
      <trkpt lat="46.43736" lon="4.76624">
        <ele>256</ele>
      </trkpt>
      <trkpt lat="46.43728" lon="4.76621">
        <ele>256.3</ele>
      </trkpt>
      <trkpt lat="46.43688" lon="4.76605">
        <ele>255.2</ele>
      </trkpt>
      <trkpt lat="46.43663" lon="4.76595">
        <ele>255.3</ele>
      </trkpt>
      <trkpt lat="46.4365" lon="4.76587">
        <ele>254.4</ele>
      </trkpt>
      <trkpt lat="46.4364" lon="4.76579">
        <ele>253.7</ele>
      </trkpt>
      <trkpt lat="46.43633" lon="4.76569">
        <ele>253.1</ele>
      </trkpt>
      <trkpt lat="46.43629" lon="4.76564">
        <ele>252.7</ele>
      </trkpt>
      <trkpt lat="46.43625" lon="4.76557">
        <ele>252.2</ele>
      </trkpt>
      <trkpt lat="46.4362" lon="4.7655">
        <ele>251.4</ele>
      </trkpt>
      <trkpt lat="46.43618" lon="4.76549">
        <ele>251.3</ele>
      </trkpt>
      <trkpt lat="46.43611" lon="4.76544">
        <ele>250.8</ele>
      </trkpt>
      <trkpt lat="46.43601" lon="4.76539">
        <ele>250.2</ele>
      </trkpt>
      <trkpt lat="46.43591" lon="4.76536">
        <ele>249.9</ele>
      </trkpt>
      <trkpt lat="46.4355" lon="4.76523">
        <ele>248.7</ele>
      </trkpt>
      <trkpt lat="46.43531" lon="4.76517">
        <ele>248.2</ele>
      </trkpt>
      <trkpt lat="46.43477" lon="4.76499">
        <ele>246.1</ele>
      </trkpt>
      <trkpt lat="46.43424" lon="4.76482">
        <ele>244.7</ele>
      </trkpt>
      <trkpt lat="46.43406" lon="4.76476">
        <ele>243.9</ele>
      </trkpt>
      <trkpt lat="46.43392" lon="4.76472">
        <ele>243.1</ele>
      </trkpt>
      <trkpt lat="46.43377" lon="4.76466">
        <ele>243.1</ele>
      </trkpt>
      <trkpt lat="46.43368" lon="4.76466">
        <ele>243.3</ele>
      </trkpt>
      <trkpt lat="46.43363" lon="4.76465">
        <ele>243.4</ele>
      </trkpt>
      <trkpt lat="46.43358" lon="4.76464">
        <ele>243.3</ele>
      </trkpt>
      <trkpt lat="46.43342" lon="4.76462">
        <ele>242.8</ele>
      </trkpt>
      <trkpt lat="46.43313" lon="4.76458">
        <ele>242.1</ele>
      </trkpt>
      <trkpt lat="46.43261" lon="4.7645">
        <ele>241.3</ele>
      </trkpt>
      <trkpt lat="46.4323" lon="4.76446">
        <ele>241.1</ele>
      </trkpt>
      <trkpt lat="46.43219" lon="4.76445">
        <ele>240.9</ele>
      </trkpt>
      <trkpt lat="46.43178" lon="4.76438">
        <ele>239.8</ele>
      </trkpt>
      <trkpt lat="46.43173" lon="4.76437">
        <ele>239.7</ele>
      </trkpt>
      <trkpt lat="46.43158" lon="4.76435">
        <ele>239.4</ele>
      </trkpt>
      <trkpt lat="46.43061" lon="4.76422">
        <ele>239</ele>
      </trkpt>
      <trkpt lat="46.43024" lon="4.76415">
        <ele>238.8</ele>
      </trkpt>
      <trkpt lat="46.43024" lon="4.76401">
        <ele>238.8</ele>
      </trkpt>
      <trkpt lat="46.43025" lon="4.76381">
        <ele>238.8</ele>
      </trkpt>
      <trkpt lat="46.43026" lon="4.76366">
        <ele>238.9</ele>
      </trkpt>
      <trkpt lat="46.43029" lon="4.76351">
        <ele>238.6</ele>
      </trkpt>
      <trkpt lat="46.43034" lon="4.76337">
        <ele>238.1</ele>
      </trkpt>
      <trkpt lat="46.4304" lon="4.76327">
        <ele>238</ele>
      </trkpt>
      <trkpt lat="46.43043" lon="4.76322">
        <ele>238</ele>
      </trkpt>
      <trkpt lat="46.43052" lon="4.7631">
        <ele>238.6</ele>
      </trkpt>
      <trkpt lat="46.43054" lon="4.76308">
        <ele>238.8</ele>
      </trkpt>
      <trkpt lat="46.43057" lon="4.76304">
        <ele>238.8</ele>
      </trkpt>
      <trkpt lat="46.43064" lon="4.76301">
        <ele>238.5</ele>
      </trkpt>
      <trkpt lat="46.43071" lon="4.76298">
        <ele>238.2</ele>
      </trkpt>
      <trkpt lat="46.43075" lon="4.76297">
        <ele>238.1</ele>
      </trkpt>
      <trkpt lat="46.43093" lon="4.76287">
        <ele>238.3</ele>
      </trkpt>
      <trkpt lat="46.43103" lon="4.7628">
        <ele>238.7</ele>
      </trkpt>
      <trkpt lat="46.43108" lon="4.76273">
        <ele>239.1</ele>
      </trkpt>
      <trkpt lat="46.43111" lon="4.76265">
        <ele>239.5</ele>
      </trkpt>
      <trkpt lat="46.43112" lon="4.76256">
        <ele>239.8</ele>
      </trkpt>
      <trkpt lat="46.43113" lon="4.76246">
        <ele>240.3</ele>
      </trkpt>
      <trkpt lat="46.43112" lon="4.76234">
        <ele>241.1</ele>
      </trkpt>
      <trkpt lat="46.43111" lon="4.76218">
        <ele>242.2</ele>
      </trkpt>
      <trkpt lat="46.43109" lon="4.76196">
        <ele>243</ele>
      </trkpt>
      <trkpt lat="46.43107" lon="4.76182">
        <ele>244</ele>
      </trkpt>
      <trkpt lat="46.43107" lon="4.76177">
        <ele>244.3</ele>
      </trkpt>
      <trkpt lat="46.43107" lon="4.76163">
        <ele>245</ele>
      </trkpt>
      <trkpt lat="46.43107" lon="4.7615">
        <ele>244.9</ele>
      </trkpt>
      <trkpt lat="46.43114" lon="4.76153">
        <ele>245.1</ele>
      </trkpt>
      <trkpt lat="46.43121" lon="4.76155">
        <ele>245.1</ele>
      </trkpt>
      <trkpt lat="46.43127" lon="4.76156">
        <ele>245.2</ele>
      </trkpt>
      <trkpt lat="46.43131" lon="4.76156">
        <ele>245.3</ele>
      </trkpt>
      <trkpt lat="46.43138" lon="4.76154">
        <ele>245.5</ele>
      </trkpt>
      <trkpt lat="46.43143" lon="4.76149">
        <ele>245.6</ele>
      </trkpt>
      <trkpt lat="46.43146" lon="4.76144">
        <ele>245.8</ele>
      </trkpt>
      <trkpt lat="46.4315" lon="4.76135">
        <ele>246</ele>
      </trkpt>
      <trkpt lat="46.43155" lon="4.76122">
        <ele>246</ele>
      </trkpt>
      <trkpt lat="46.43161" lon="4.76108">
        <ele>246.1</ele>
      </trkpt>
      <trkpt lat="46.43166" lon="4.761">
        <ele>246.4</ele>
      </trkpt>
      <trkpt lat="46.4317" lon="4.76095">
        <ele>246.7</ele>
      </trkpt>
      <trkpt lat="46.43179" lon="4.76088">
        <ele>246.9</ele>
      </trkpt>
      <trkpt lat="46.43185" lon="4.76086">
        <ele>247</ele>
      </trkpt>
      <trkpt lat="46.432" lon="4.76084">
        <ele>247.2</ele>
      </trkpt>
      <trkpt lat="46.43221" lon="4.76085">
        <ele>247.9</ele>
      </trkpt>
      <trkpt lat="46.43232" lon="4.76089">
        <ele>248.2</ele>
      </trkpt>
      <trkpt lat="46.43238" lon="4.76091">
        <ele>248.3</ele>
      </trkpt>
      <trkpt lat="46.43238" lon="4.76089">
        <ele>248.4</ele>
      </trkpt>
      <trkpt lat="46.4324" lon="4.76086">
        <ele>248.5</ele>
      </trkpt>
      <trkpt lat="46.43242" lon="4.76085">
        <ele>248.7</ele>
      </trkpt>
      <trkpt lat="46.43244" lon="4.76086">
        <ele>248.7</ele>
      </trkpt>
      <trkpt lat="46.43255" lon="4.76045">
        <ele>249.2</ele>
      </trkpt>
      <trkpt lat="46.43272" lon="4.75991">
        <ele>250.1</ele>
      </trkpt>
      <trkpt lat="46.43281" lon="4.75952">
        <ele>250.8</ele>
      </trkpt>
      <trkpt lat="46.43282" lon="4.75949">
        <ele>251</ele>
      </trkpt>
      <trkpt lat="46.43306" lon="4.75858">
        <ele>254.1</ele>
      </trkpt>
      <trkpt lat="46.43312" lon="4.75837">
        <ele>255.1</ele>
      </trkpt>
      <trkpt lat="46.4332" lon="4.75823">
        <ele>256.1</ele>
      </trkpt>
      <trkpt lat="46.43336" lon="4.75798">
        <ele>257.7</ele>
      </trkpt>
      <trkpt lat="46.43341" lon="4.75789">
        <ele>258.6</ele>
      </trkpt>
      <trkpt lat="46.43344" lon="4.75782">
        <ele>259.1</ele>
      </trkpt>
      <trkpt lat="46.43343" lon="4.75773">
        <ele>259.7</ele>
      </trkpt>
      <trkpt lat="46.43352" lon="4.75763">
        <ele>260.7</ele>
      </trkpt>
      <trkpt lat="46.43366" lon="4.75749">
        <ele>262.5</ele>
      </trkpt>
      <trkpt lat="46.43388" lon="4.7573">
        <ele>265.7</ele>
      </trkpt>
      <trkpt lat="46.43395" lon="4.75721">
        <ele>266.5</ele>
      </trkpt>
      <trkpt lat="46.43408" lon="4.75704">
        <ele>268</ele>
      </trkpt>
      <trkpt lat="46.43414" lon="4.75696">
        <ele>268.7</ele>
      </trkpt>
      <trkpt lat="46.43434" lon="4.7567">
        <ele>272</ele>
      </trkpt>
      <trkpt lat="46.4344" lon="4.75664">
        <ele>272.9</ele>
      </trkpt>
      <trkpt lat="46.43445" lon="4.7566">
        <ele>273.5</ele>
      </trkpt>
      <trkpt lat="46.43452" lon="4.75659">
        <ele>273.8</ele>
      </trkpt>
      <trkpt lat="46.43458" lon="4.7566">
        <ele>274</ele>
      </trkpt>
      <trkpt lat="46.43463" lon="4.7566">
        <ele>274.2</ele>
      </trkpt>
      <trkpt lat="46.4347" lon="4.75659">
        <ele>274.4</ele>
      </trkpt>
      <trkpt lat="46.43474" lon="4.75659">
        <ele>274.5</ele>
      </trkpt>
      <trkpt lat="46.43478" lon="4.75658">
        <ele>274.6</ele>
      </trkpt>
      <trkpt lat="46.43482" lon="4.75658">
        <ele>274.8</ele>
      </trkpt>
      <trkpt lat="46.43485" lon="4.75656">
        <ele>275</ele>
      </trkpt>
      <trkpt lat="46.43492" lon="4.75655">
        <ele>275.4</ele>
      </trkpt>
      <trkpt lat="46.43503" lon="4.75653">
        <ele>276.1</ele>
      </trkpt>
      <trkpt lat="46.43523" lon="4.75649">
        <ele>277.1</ele>
      </trkpt>
      <trkpt lat="46.43537" lon="4.75643">
        <ele>277.7</ele>
      </trkpt>
      <trkpt lat="46.4355" lon="4.75638">
        <ele>278.1</ele>
      </trkpt>
      <trkpt lat="46.43558" lon="4.7563">
        <ele>278.9</ele>
      </trkpt>
      <trkpt lat="46.43569" lon="4.75619">
        <ele>280.1</ele>
      </trkpt>
      <trkpt lat="46.43582" lon="4.75607">
        <ele>281.5</ele>
      </trkpt>
      <trkpt lat="46.43595" lon="4.75594">
        <ele>282.6</ele>
      </trkpt>
      <trkpt lat="46.43607" lon="4.75585">
        <ele>283</ele>
      </trkpt>
      <trkpt lat="46.43613" lon="4.75581">
        <ele>283.2</ele>
      </trkpt>
      <trkpt lat="46.43626" lon="4.75567">
        <ele>283.9</ele>
      </trkpt>
      <trkpt lat="46.43637" lon="4.75553">
        <ele>283.7</ele>
      </trkpt>
      <trkpt lat="46.43647" lon="4.75536">
        <ele>284.6</ele>
      </trkpt>
      <trkpt lat="46.43654" lon="4.75525">
        <ele>284.6</ele>
      </trkpt>
      <trkpt lat="46.43662" lon="4.75512">
        <ele>284.6</ele>
      </trkpt>
      <trkpt lat="46.43674" lon="4.75488">
        <ele>286</ele>
      </trkpt>
      <trkpt lat="46.43681" lon="4.75477">
        <ele>286</ele>
      </trkpt>
      <trkpt lat="46.43689" lon="4.75462">
        <ele>286.1</ele>
      </trkpt>
      <trkpt lat="46.43696" lon="4.75445">
        <ele>286.8</ele>
      </trkpt>
      <trkpt lat="46.43705" lon="4.75422">
        <ele>289.5</ele>
      </trkpt>
      <trkpt lat="46.43711" lon="4.75404">
        <ele>290.3</ele>
      </trkpt>
      <trkpt lat="46.43716" lon="4.75385">
        <ele>290.7</ele>
      </trkpt>
      <trkpt lat="46.43718" lon="4.75373">
        <ele>291.6</ele>
      </trkpt>
      <trkpt lat="46.43718" lon="4.75363">
        <ele>292.8</ele>
      </trkpt>
      <trkpt lat="46.43717" lon="4.75346">
        <ele>293.8</ele>
      </trkpt>
      <trkpt lat="46.43716" lon="4.75325">
        <ele>295.8</ele>
      </trkpt>
      <trkpt lat="46.43716" lon="4.75309">
        <ele>297.8</ele>
      </trkpt>
      <trkpt lat="46.43716" lon="4.75291">
        <ele>299.6</ele>
      </trkpt>
      <trkpt lat="46.43717" lon="4.75273">
        <ele>300.8</ele>
      </trkpt>
      <trkpt lat="46.43719" lon="4.75262">
        <ele>300.9</ele>
      </trkpt>
      <trkpt lat="46.43721" lon="4.75247">
        <ele>301.7</ele>
      </trkpt>
      <trkpt lat="46.43721" lon="4.7523">
        <ele>302.2</ele>
      </trkpt>
      <trkpt lat="46.4372" lon="4.75223">
        <ele>302.8</ele>
      </trkpt>
      <trkpt lat="46.43718" lon="4.7521">
        <ele>303.3</ele>
      </trkpt>
      <trkpt lat="46.43717" lon="4.75195">
        <ele>303.6</ele>
      </trkpt>
      <trkpt lat="46.43716" lon="4.75181">
        <ele>303.5</ele>
      </trkpt>
      <trkpt lat="46.43713" lon="4.7516">
        <ele>303.7</ele>
      </trkpt>
      <trkpt lat="46.43711" lon="4.75142">
        <ele>303.9</ele>
      </trkpt>
      <trkpt lat="46.4371" lon="4.75124">
        <ele>304</ele>
      </trkpt>
      <trkpt lat="46.43709" lon="4.75102">
        <ele>304.3</ele>
      </trkpt>
      <trkpt lat="46.43706" lon="4.75084">
        <ele>304.6</ele>
      </trkpt>
      <trkpt lat="46.43701" lon="4.75061">
        <ele>305.4</ele>
      </trkpt>
      <trkpt lat="46.43697" lon="4.75046">
        <ele>306.1</ele>
      </trkpt>
      <trkpt lat="46.4369" lon="4.75028">
        <ele>307.1</ele>
      </trkpt>
      <trkpt lat="46.43685" lon="4.75016">
        <ele>307.7</ele>
      </trkpt>
      <trkpt lat="46.43682" lon="4.74999">
        <ele>307.7</ele>
      </trkpt>
      <trkpt lat="46.43677" lon="4.7497">
        <ele>308.5</ele>
      </trkpt>
      <trkpt lat="46.43673" lon="4.74941">
        <ele>309.2</ele>
      </trkpt>
      <trkpt lat="46.43669" lon="4.74916">
        <ele>309.4</ele>
      </trkpt>
      <trkpt lat="46.43663" lon="4.74895">
        <ele>309.9</ele>
      </trkpt>
      <trkpt lat="46.43659" lon="4.74885">
        <ele>310.3</ele>
      </trkpt>
      <trkpt lat="46.43655" lon="4.74876">
        <ele>310.7</ele>
      </trkpt>
      <trkpt lat="46.4365" lon="4.74868">
        <ele>311.2</ele>
      </trkpt>
      <trkpt lat="46.43639" lon="4.74854">
        <ele>312</ele>
      </trkpt>
      <trkpt lat="46.43629" lon="4.74839">
        <ele>312.5</ele>
      </trkpt>
      <trkpt lat="46.43622" lon="4.74823">
        <ele>313</ele>
      </trkpt>
      <trkpt lat="46.43613" lon="4.74808">
        <ele>313.9</ele>
      </trkpt>
      <trkpt lat="46.43604" lon="4.74793">
        <ele>314.9</ele>
      </trkpt>
      <trkpt lat="46.43596" lon="4.74779">
        <ele>316.1</ele>
      </trkpt>
      <trkpt lat="46.43587" lon="4.74768">
        <ele>317.6</ele>
      </trkpt>
      <trkpt lat="46.43578" lon="4.74754">
        <ele>319.2</ele>
      </trkpt>
      <trkpt lat="46.43569" lon="4.74741">
        <ele>320.3</ele>
      </trkpt>
      <trkpt lat="46.43558" lon="4.74731">
        <ele>321.9</ele>
      </trkpt>
      <trkpt lat="46.43545" lon="4.7472">
        <ele>323.7</ele>
      </trkpt>
      <trkpt lat="46.43537" lon="4.74709">
        <ele>324.9</ele>
      </trkpt>
      <trkpt lat="46.43526" lon="4.74698">
        <ele>327</ele>
      </trkpt>
      <trkpt lat="46.43514" lon="4.74686">
        <ele>329.6</ele>
      </trkpt>
      <trkpt lat="46.43503" lon="4.74674">
        <ele>331.6</ele>
      </trkpt>
      <trkpt lat="46.43491" lon="4.74661">
        <ele>333.4</ele>
      </trkpt>
      <trkpt lat="46.43481" lon="4.74651">
        <ele>334.2</ele>
      </trkpt>
      <trkpt lat="46.43469" lon="4.74643">
        <ele>335.8</ele>
      </trkpt>
      <trkpt lat="46.4346" lon="4.74636">
        <ele>337.6</ele>
      </trkpt>
      <trkpt lat="46.43451" lon="4.74629">
        <ele>339.7</ele>
      </trkpt>
      <trkpt lat="46.43441" lon="4.74624">
        <ele>341.8</ele>
      </trkpt>
      <trkpt lat="46.43427" lon="4.74615">
        <ele>345</ele>
      </trkpt>
      <trkpt lat="46.43416" lon="4.74607">
        <ele>347.6</ele>
      </trkpt>
      <trkpt lat="46.43406" lon="4.746">
        <ele>349.5</ele>
      </trkpt>
      <trkpt lat="46.43397" lon="4.74594">
        <ele>351.2</ele>
      </trkpt>
      <trkpt lat="46.43379" lon="4.74574">
        <ele>353.6</ele>
      </trkpt>
      <trkpt lat="46.4337" lon="4.74565">
        <ele>354.2</ele>
      </trkpt>
      <trkpt lat="46.4335" lon="4.74537">
        <ele>354.8</ele>
      </trkpt>
      <trkpt lat="46.43342" lon="4.74523">
        <ele>354.3</ele>
      </trkpt>
      <trkpt lat="46.43334" lon="4.74509">
        <ele>353.5</ele>
      </trkpt>
      <trkpt lat="46.43326" lon="4.74498">
        <ele>353.1</ele>
      </trkpt>
      <trkpt lat="46.43319" lon="4.7449">
        <ele>353.5</ele>
      </trkpt>
      <trkpt lat="46.43312" lon="4.74482">
        <ele>354</ele>
      </trkpt>
      <trkpt lat="46.43303" lon="4.74471">
        <ele>354.7</ele>
      </trkpt>
      <trkpt lat="46.43293" lon="4.74458">
        <ele>355.1</ele>
      </trkpt>
      <trkpt lat="46.43285" lon="4.74449">
        <ele>355.3</ele>
      </trkpt>
      <trkpt lat="46.43274" lon="4.74442">
        <ele>356.2</ele>
      </trkpt>
      <trkpt lat="46.43263" lon="4.74436">
        <ele>357.8</ele>
      </trkpt>
      <trkpt lat="46.43249" lon="4.74426">
        <ele>360</ele>
      </trkpt>
      <trkpt lat="46.43221" lon="4.74404">
        <ele>363.5</ele>
      </trkpt>
      <trkpt lat="46.43211" lon="4.74398">
        <ele>364.5</ele>
      </trkpt>
      <trkpt lat="46.432" lon="4.74392">
        <ele>365.7</ele>
      </trkpt>
      <trkpt lat="46.43188" lon="4.74385">
        <ele>366.4</ele>
      </trkpt>
      <trkpt lat="46.43171" lon="4.74371">
        <ele>366.7</ele>
      </trkpt>
      <trkpt lat="46.43145" lon="4.74355">
        <ele>367.8</ele>
      </trkpt>
      <trkpt lat="46.43116" lon="4.74342">
        <ele>369.3</ele>
      </trkpt>
      <trkpt lat="46.43087" lon="4.74326">
        <ele>369.8</ele>
      </trkpt>
      <trkpt lat="46.43068" lon="4.74318">
        <ele>370.9</ele>
      </trkpt>
      <trkpt lat="46.43048" lon="4.74313">
        <ele>372.2</ele>
      </trkpt>
      <trkpt lat="46.43025" lon="4.74306">
        <ele>372.3</ele>
      </trkpt>
      <trkpt lat="46.43001" lon="4.74302">
        <ele>372.6</ele>
      </trkpt>
      <trkpt lat="46.42966" lon="4.743">
        <ele>374.2</ele>
      </trkpt>
      <trkpt lat="46.42935" lon="4.74295">
        <ele>374.1</ele>
      </trkpt>
      <trkpt lat="46.42919" lon="4.74296">
        <ele>374.6</ele>
      </trkpt>
      <trkpt lat="46.42902" lon="4.74301">
        <ele>374.6</ele>
      </trkpt>
      <trkpt lat="46.42891" lon="4.74293">
        <ele>374.9</ele>
      </trkpt>
      <trkpt lat="46.42874" lon="4.74278">
        <ele>377</ele>
      </trkpt>
      <trkpt lat="46.4286" lon="4.74264">
        <ele>378.1</ele>
      </trkpt>
      <trkpt lat="46.42849" lon="4.74257">
        <ele>379.3</ele>
      </trkpt>
      <trkpt lat="46.42837" lon="4.74249">
        <ele>381.5</ele>
      </trkpt>
      <trkpt lat="46.42836" lon="4.74248">
        <ele>381.7</ele>
      </trkpt>
      <trkpt lat="46.42824" lon="4.74245">
        <ele>382.3</ele>
      </trkpt>
      <trkpt lat="46.42821" lon="4.74245">
        <ele>382.4</ele>
      </trkpt>
      <trkpt lat="46.42808" lon="4.7424">
        <ele>383.3</ele>
      </trkpt>
      <trkpt lat="46.42802" lon="4.74235">
        <ele>384.1</ele>
      </trkpt>
      <trkpt lat="46.42792" lon="4.74224">
        <ele>385.3</ele>
      </trkpt>
      <trkpt lat="46.42771" lon="4.74204">
        <ele>386.4</ele>
      </trkpt>
      <trkpt lat="46.4276" lon="4.74191">
        <ele>387.4</ele>
      </trkpt>
      <trkpt lat="46.42746" lon="4.74175">
        <ele>388</ele>
      </trkpt>
      <trkpt lat="46.42734" lon="4.74159">
        <ele>388.8</ele>
      </trkpt>
      <trkpt lat="46.4273" lon="4.74152">
        <ele>389.6</ele>
      </trkpt>
      <trkpt lat="46.42725" lon="4.74143">
        <ele>390.5</ele>
      </trkpt>
      <trkpt lat="46.42724" lon="4.74141">
        <ele>390.8</ele>
      </trkpt>
      <trkpt lat="46.42722" lon="4.74131">
        <ele>391.2</ele>
      </trkpt>
      <trkpt lat="46.42721" lon="4.74119">
        <ele>391.6</ele>
      </trkpt>
      <trkpt lat="46.42718" lon="4.74106">
        <ele>391.8</ele>
      </trkpt>
      <trkpt lat="46.42715" lon="4.74091">
        <ele>391.6</ele>
      </trkpt>
      <trkpt lat="46.42709" lon="4.74072">
        <ele>391.5</ele>
      </trkpt>
      <trkpt lat="46.42705" lon="4.74052">
        <ele>391.4</ele>
      </trkpt>
      <trkpt lat="46.42698" lon="4.74016">
        <ele>391.9</ele>
      </trkpt>
      <trkpt lat="46.42693" lon="4.73999">
        <ele>392</ele>
      </trkpt>
      <trkpt lat="46.42688" lon="4.73982">
        <ele>391.9</ele>
      </trkpt>
      <trkpt lat="46.42683" lon="4.73959">
        <ele>392.7</ele>
      </trkpt>
      <trkpt lat="46.4268" lon="4.73945">
        <ele>393.6</ele>
      </trkpt>
      <trkpt lat="46.4268" lon="4.73938">
        <ele>394.1</ele>
      </trkpt>
      <trkpt lat="46.42683" lon="4.73918">
        <ele>394.9</ele>
      </trkpt>
      <trkpt lat="46.42688" lon="4.7389">
        <ele>395.1</ele>
      </trkpt>
      <trkpt lat="46.4269" lon="4.73861">
        <ele>395.1</ele>
      </trkpt>
      <trkpt lat="46.42692" lon="4.7383">
        <ele>396.6</ele>
      </trkpt>
      <trkpt lat="46.42696" lon="4.73789">
        <ele>397.3</ele>
      </trkpt>
      <trkpt lat="46.42697" lon="4.73754">
        <ele>398.2</ele>
      </trkpt>
      <trkpt lat="46.42697" lon="4.73739">
        <ele>398.9</ele>
      </trkpt>
      <trkpt lat="46.42699" lon="4.73722">
        <ele>398.7</ele>
      </trkpt>
      <trkpt lat="46.42704" lon="4.73703">
        <ele>397.3</ele>
      </trkpt>
      <trkpt lat="46.42706" lon="4.73693">
        <ele>396.5</ele>
      </trkpt>
      <trkpt lat="46.42708" lon="4.73683">
        <ele>395.5</ele>
      </trkpt>
      <trkpt lat="46.42717" lon="4.73661">
        <ele>392.1</ele>
      </trkpt>
      <trkpt lat="46.42721" lon="4.73645">
        <ele>390.4</ele>
      </trkpt>
      <trkpt lat="46.42728" lon="4.73629">
        <ele>388.7</ele>
      </trkpt>
      <trkpt lat="46.42735" lon="4.73611">
        <ele>387.2</ele>
      </trkpt>
      <trkpt lat="46.42745" lon="4.73584">
        <ele>383.7</ele>
      </trkpt>
      <trkpt lat="46.42751" lon="4.73562">
        <ele>381.3</ele>
      </trkpt>
      <trkpt lat="46.42756" lon="4.73542">
        <ele>379.3</ele>
      </trkpt>
      <trkpt lat="46.42761" lon="4.73524">
        <ele>377.5</ele>
      </trkpt>
      <trkpt lat="46.42765" lon="4.73514">
        <ele>376.4</ele>
      </trkpt>
      <trkpt lat="46.4277" lon="4.73509">
        <ele>375.4</ele>
      </trkpt>
      <trkpt lat="46.42768" lon="4.73489">
        <ele>374.6</ele>
      </trkpt>
      <trkpt lat="46.42766" lon="4.73472">
        <ele>374.2</ele>
      </trkpt>
      <trkpt lat="46.42762" lon="4.73455">
        <ele>373.9</ele>
      </trkpt>
      <trkpt lat="46.42759" lon="4.73443">
        <ele>373.7</ele>
      </trkpt>
      <trkpt lat="46.42757" lon="4.7343">
        <ele>373.3</ele>
      </trkpt>
      <trkpt lat="46.42756" lon="4.73412">
        <ele>372.7</ele>
      </trkpt>
      <trkpt lat="46.42755" lon="4.73398">
        <ele>372.4</ele>
      </trkpt>
      <trkpt lat="46.42756" lon="4.73386">
        <ele>371.8</ele>
      </trkpt>
      <trkpt lat="46.42758" lon="4.73376">
        <ele>371.3</ele>
      </trkpt>
      <trkpt lat="46.4276" lon="4.73371">
        <ele>370.8</ele>
      </trkpt>
      <trkpt lat="46.42763" lon="4.73363">
        <ele>370.2</ele>
      </trkpt>
      <trkpt lat="46.4277" lon="4.73349">
        <ele>369.1</ele>
      </trkpt>
      <trkpt lat="46.42776" lon="4.73338">
        <ele>368.2</ele>
      </trkpt>
      <trkpt lat="46.42777" lon="4.73333">
        <ele>368.1</ele>
      </trkpt>
      <trkpt lat="46.42779" lon="4.73325">
        <ele>368.5</ele>
      </trkpt>
      <trkpt lat="46.42783" lon="4.73308">
        <ele>369.6</ele>
      </trkpt>
      <trkpt lat="46.42786" lon="4.73296">
        <ele>371</ele>
      </trkpt>
      <trkpt lat="46.42789" lon="4.7329">
        <ele>371.6</ele>
      </trkpt>
      <trkpt lat="46.42791" lon="4.73284">
        <ele>372.2</ele>
      </trkpt>
      <trkpt lat="46.42795" lon="4.73277">
        <ele>372.9</ele>
      </trkpt>
      <trkpt lat="46.428" lon="4.73269">
        <ele>373.8</ele>
      </trkpt>
      <trkpt lat="46.42804" lon="4.73262">
        <ele>375</ele>
      </trkpt>
      <trkpt lat="46.42811" lon="4.73254">
        <ele>376</ele>
      </trkpt>
      <trkpt lat="46.42816" lon="4.73249">
        <ele>376.5</ele>
      </trkpt>
      <trkpt lat="46.42824" lon="4.73244">
        <ele>377.2</ele>
      </trkpt>
      <trkpt lat="46.4283" lon="4.7324">
        <ele>377.9</ele>
      </trkpt>
      <trkpt lat="46.42839" lon="4.73239">
        <ele>378.7</ele>
      </trkpt>
      <trkpt lat="46.42846" lon="4.73237">
        <ele>379.8</ele>
      </trkpt>
      <trkpt lat="46.42854" lon="4.73236">
        <ele>381</ele>
      </trkpt>
      <trkpt lat="46.42861" lon="4.73233">
        <ele>382.4</ele>
      </trkpt>
      <trkpt lat="46.42871" lon="4.73229">
        <ele>383.9</ele>
      </trkpt>
      <trkpt lat="46.42879" lon="4.73226">
        <ele>385.3</ele>
      </trkpt>
      <trkpt lat="46.4289" lon="4.73221">
        <ele>387.2</ele>
      </trkpt>
      <trkpt lat="46.42899" lon="4.73218">
        <ele>387.7</ele>
      </trkpt>
      <trkpt lat="46.42907" lon="4.73214">
        <ele>388.2</ele>
      </trkpt>
      <trkpt lat="46.42914" lon="4.73212">
        <ele>388.5</ele>
      </trkpt>
      <trkpt lat="46.4292" lon="4.73209">
        <ele>388.7</ele>
      </trkpt>
      <trkpt lat="46.42926" lon="4.73204">
        <ele>388.9</ele>
      </trkpt>
      <trkpt lat="46.42931" lon="4.73198">
        <ele>389.1</ele>
      </trkpt>
      <trkpt lat="46.42936" lon="4.73188">
        <ele>389</ele>
      </trkpt>
      <trkpt lat="46.42939" lon="4.73181">
        <ele>388.7</ele>
      </trkpt>
      <trkpt lat="46.42941" lon="4.73175">
        <ele>388.6</ele>
      </trkpt>
      <trkpt lat="46.42942" lon="4.7317">
        <ele>388.5</ele>
      </trkpt>
      <trkpt lat="46.42942" lon="4.73166">
        <ele>388.4</ele>
      </trkpt>
      <trkpt lat="46.42942" lon="4.73158">
        <ele>388</ele>
      </trkpt>
      <trkpt lat="46.42941" lon="4.7315">
        <ele>387.8</ele>
      </trkpt>
      <trkpt lat="46.42939" lon="4.73137">
        <ele>387.7</ele>
      </trkpt>
      <trkpt lat="46.42936" lon="4.73127">
        <ele>388.2</ele>
      </trkpt>
      <trkpt lat="46.42933" lon="4.73111">
        <ele>389.5</ele>
      </trkpt>
      <trkpt lat="46.4293" lon="4.73096">
        <ele>389.4</ele>
      </trkpt>
      <trkpt lat="46.42928" lon="4.73082">
        <ele>389.4</ele>
      </trkpt>
      <trkpt lat="46.42927" lon="4.73072">
        <ele>390.1</ele>
      </trkpt>
      <trkpt lat="46.42926" lon="4.73059">
        <ele>390.8</ele>
      </trkpt>
      <trkpt lat="46.42925" lon="4.73048">
        <ele>391.4</ele>
      </trkpt>
      <trkpt lat="46.42924" lon="4.73037">
        <ele>392</ele>
      </trkpt>
      <trkpt lat="46.42923" lon="4.73024">
        <ele>392.5</ele>
      </trkpt>
      <trkpt lat="46.42922" lon="4.73016">
        <ele>392.6</ele>
      </trkpt>
      <trkpt lat="46.42921" lon="4.73008">
        <ele>393.2</ele>
      </trkpt>
      <trkpt lat="46.42918" lon="4.73001">
        <ele>394.3</ele>
      </trkpt>
      <trkpt lat="46.42915" lon="4.72993">
        <ele>393.8</ele>
      </trkpt>
      <trkpt lat="46.42908" lon="4.72984">
        <ele>393.3</ele>
      </trkpt>
      <trkpt lat="46.42899" lon="4.72973">
        <ele>393.2</ele>
      </trkpt>
      <trkpt lat="46.42891" lon="4.72966">
        <ele>393.9</ele>
      </trkpt>
      <trkpt lat="46.42883" lon="4.72958">
        <ele>393.7</ele>
      </trkpt>
      <trkpt lat="46.42873" lon="4.72952">
        <ele>393.8</ele>
      </trkpt>
      <trkpt lat="46.42863" lon="4.72947">
        <ele>394.4</ele>
      </trkpt>
      <trkpt lat="46.42853" lon="4.72942">
        <ele>394.7</ele>
      </trkpt>
      <trkpt lat="46.42843" lon="4.72938">
        <ele>395.4</ele>
      </trkpt>
      <trkpt lat="46.42839" lon="4.72933">
        <ele>395.3</ele>
      </trkpt>
      <trkpt lat="46.42832" lon="4.72927">
        <ele>395.2</ele>
      </trkpt>
      <trkpt lat="46.42826" lon="4.72923">
        <ele>395.3</ele>
      </trkpt>
      <trkpt lat="46.4282" lon="4.7292">
        <ele>395.4</ele>
      </trkpt>
      <trkpt lat="46.42815" lon="4.72919">
        <ele>395.6</ele>
      </trkpt>
      <trkpt lat="46.42811" lon="4.72916">
        <ele>395.7</ele>
      </trkpt>
      <trkpt lat="46.42808" lon="4.72914">
        <ele>396</ele>
      </trkpt>
      <trkpt lat="46.42805" lon="4.7291">
        <ele>396.2</ele>
      </trkpt>
      <trkpt lat="46.42805" lon="4.72907">
        <ele>396.4</ele>
      </trkpt>
      <trkpt lat="46.42804" lon="4.72903">
        <ele>396.6</ele>
      </trkpt>
      <trkpt lat="46.42804" lon="4.729">
        <ele>396.7</ele>
      </trkpt>
      <trkpt lat="46.42805" lon="4.72896">
        <ele>396.8</ele>
      </trkpt>
      <trkpt lat="46.42806" lon="4.72892">
        <ele>396.9</ele>
      </trkpt>
      <trkpt lat="46.42808" lon="4.72888">
        <ele>397.2</ele>
      </trkpt>
      <trkpt lat="46.42812" lon="4.72885">
        <ele>397.7</ele>
      </trkpt>
      <trkpt lat="46.42816" lon="4.72881">
        <ele>398.3</ele>
      </trkpt>
      <trkpt lat="46.42821" lon="4.72877">
        <ele>398.9</ele>
      </trkpt>
      <trkpt lat="46.42818" lon="4.72862">
        <ele>401.4</ele>
      </trkpt>
      <trkpt lat="46.42812" lon="4.72843">
        <ele>403.9</ele>
      </trkpt>
      <trkpt lat="46.42809" lon="4.7283">
        <ele>405.7</ele>
      </trkpt>
      <trkpt lat="46.42808" lon="4.72822">
        <ele>407.1</ele>
      </trkpt>
      <trkpt lat="46.42809" lon="4.72815">
        <ele>408.5</ele>
      </trkpt>
      <trkpt lat="46.4281" lon="4.72808">
        <ele>409.8</ele>
      </trkpt>
      <trkpt lat="46.42814" lon="4.72802">
        <ele>411.3</ele>
      </trkpt>
      <trkpt lat="46.42816" lon="4.72793">
        <ele>412.9</ele>
      </trkpt>
      <trkpt lat="46.42816" lon="4.72787">
        <ele>414.2</ele>
      </trkpt>
      <trkpt lat="46.42814" lon="4.72777">
        <ele>415.8</ele>
      </trkpt>
      <trkpt lat="46.42811" lon="4.72761">
        <ele>417.9</ele>
      </trkpt>
      <trkpt lat="46.42807" lon="4.7275">
        <ele>419.3</ele>
      </trkpt>
      <trkpt lat="46.42804" lon="4.72738">
        <ele>421.3</ele>
      </trkpt>
      <trkpt lat="46.42799" lon="4.72726">
        <ele>423.5</ele>
      </trkpt>
      <trkpt lat="46.42794" lon="4.72714">
        <ele>425.1</ele>
      </trkpt>
      <trkpt lat="46.42789" lon="4.72703">
        <ele>426.3</ele>
      </trkpt>
      <trkpt lat="46.42784" lon="4.72695">
        <ele>426.9</ele>
      </trkpt>
      <trkpt lat="46.42781" lon="4.72682">
        <ele>427.4</ele>
      </trkpt>
      <trkpt lat="46.42777" lon="4.72671">
        <ele>427.6</ele>
      </trkpt>
      <trkpt lat="46.42773" lon="4.72657">
        <ele>428.4</ele>
      </trkpt>
      <trkpt lat="46.42769" lon="4.72644">
        <ele>429.2</ele>
      </trkpt>
      <trkpt lat="46.42765" lon="4.72633">
        <ele>429.5</ele>
      </trkpt>
      <trkpt lat="46.42763" lon="4.72619">
        <ele>430.5</ele>
      </trkpt>
      <trkpt lat="46.42762" lon="4.72608">
        <ele>431.2</ele>
      </trkpt>
      <trkpt lat="46.42762" lon="4.72598">
        <ele>431.8</ele>
      </trkpt>
      <trkpt lat="46.42761" lon="4.72585">
        <ele>432.5</ele>
      </trkpt>
      <trkpt lat="46.4276" lon="4.72571">
        <ele>433.5</ele>
      </trkpt>
      <trkpt lat="46.42758" lon="4.72555">
        <ele>434.8</ele>
      </trkpt>
      <trkpt lat="46.42758" lon="4.72542">
        <ele>434.9</ele>
      </trkpt>
      <trkpt lat="46.42757" lon="4.72531">
        <ele>434.9</ele>
      </trkpt>
      <trkpt lat="46.42754" lon="4.72517">
        <ele>434.9</ele>
      </trkpt>
      <trkpt lat="46.42752" lon="4.72512">
        <ele>434.8</ele>
      </trkpt>
      <trkpt lat="46.4275" lon="4.72506">
        <ele>434.8</ele>
      </trkpt>
      <trkpt lat="46.42748" lon="4.72498">
        <ele>435.2</ele>
      </trkpt>
      <trkpt lat="46.42749" lon="4.7249">
        <ele>436.1</ele>
      </trkpt>
      <trkpt lat="46.42751" lon="4.72477">
        <ele>437.6</ele>
      </trkpt>
      <trkpt lat="46.42752" lon="4.72466">
        <ele>439.2</ele>
      </trkpt>
      <trkpt lat="46.42754" lon="4.72453">
        <ele>441.3</ele>
      </trkpt>
      <trkpt lat="46.42755" lon="4.72439">
        <ele>443.5</ele>
      </trkpt>
      <trkpt lat="46.42756" lon="4.72421">
        <ele>446.1</ele>
      </trkpt>
      <trkpt lat="46.42757" lon="4.72406">
        <ele>448.9</ele>
      </trkpt>
      <trkpt lat="46.42758" lon="4.72393">
        <ele>451.3</ele>
      </trkpt>
      <trkpt lat="46.42759" lon="4.72378">
        <ele>454</ele>
      </trkpt>
      <trkpt lat="46.42761" lon="4.72367">
        <ele>456.3</ele>
      </trkpt>
      <trkpt lat="46.42763" lon="4.72352">
        <ele>458.5</ele>
      </trkpt>
      <trkpt lat="46.42765" lon="4.72333">
        <ele>460.8</ele>
      </trkpt>
      <trkpt lat="46.42767" lon="4.72308">
        <ele>464.5</ele>
      </trkpt>
      <trkpt lat="46.42769" lon="4.72285">
        <ele>467.4</ele>
      </trkpt>
      <trkpt lat="46.42773" lon="4.72235">
        <ele>472.5</ele>
      </trkpt>
      <trkpt lat="46.42778" lon="4.7218">
        <ele>478.2</ele>
      </trkpt>
      <trkpt lat="46.42782" lon="4.72154">
        <ele>481.4</ele>
      </trkpt>
      <trkpt lat="46.42783" lon="4.72148">
        <ele>482</ele>
      </trkpt>
      <trkpt lat="46.42784" lon="4.72135">
        <ele>483.4</ele>
      </trkpt>
      <trkpt lat="46.42785" lon="4.72122">
        <ele>484.4</ele>
      </trkpt>
      <trkpt lat="46.42784" lon="4.72112">
        <ele>485</ele>
      </trkpt>
      <trkpt lat="46.42782" lon="4.72103">
        <ele>485.2</ele>
      </trkpt>
      <trkpt lat="46.42782" lon="4.72098">
        <ele>485.8</ele>
      </trkpt>
      <trkpt lat="46.42784" lon="4.72087">
        <ele>487.3</ele>
      </trkpt>
      <trkpt lat="46.42786" lon="4.72066">
        <ele>490.6</ele>
      </trkpt>
      <trkpt lat="46.42787" lon="4.72046">
        <ele>493.1</ele>
      </trkpt>
      <trkpt lat="46.42791" lon="4.72028">
        <ele>495.2</ele>
      </trkpt>
      <trkpt lat="46.42794" lon="4.72016">
        <ele>496.6</ele>
      </trkpt>
      <trkpt lat="46.42799" lon="4.72005">
        <ele>498.3</ele>
      </trkpt>
      <trkpt lat="46.42804" lon="4.71996">
        <ele>499.5</ele>
      </trkpt>
      <trkpt lat="46.42806" lon="4.71994">
        <ele>499.8</ele>
      </trkpt>
      <trkpt lat="46.42809" lon="4.71988">
        <ele>500.3</ele>
      </trkpt>
      <trkpt lat="46.42813" lon="4.71981">
        <ele>500.8</ele>
      </trkpt>
      <trkpt lat="46.42814" lon="4.71973">
        <ele>500.8</ele>
      </trkpt>
      <trkpt lat="46.42815" lon="4.71961">
        <ele>501.7</ele>
      </trkpt>
      <trkpt lat="46.42815" lon="4.7196">
        <ele>501.8</ele>
      </trkpt>
      <trkpt lat="46.42816" lon="4.71954">
        <ele>502.2</ele>
      </trkpt>
      <trkpt lat="46.42818" lon="4.71945">
        <ele>503.2</ele>
      </trkpt>
      <trkpt lat="46.4282" lon="4.71935">
        <ele>504.6</ele>
      </trkpt>
      <trkpt lat="46.42821" lon="4.71922">
        <ele>506.1</ele>
      </trkpt>
      <trkpt lat="46.42823" lon="4.71911">
        <ele>507.6</ele>
      </trkpt>
      <trkpt lat="46.42826" lon="4.71901">
        <ele>508.9</ele>
      </trkpt>
      <trkpt lat="46.42831" lon="4.71889">
        <ele>510.1</ele>
      </trkpt>
      <trkpt lat="46.42835" lon="4.71874">
        <ele>512.3</ele>
      </trkpt>
      <trkpt lat="46.42837" lon="4.71868">
        <ele>513.2</ele>
      </trkpt>
      <trkpt lat="46.42839" lon="4.71863">
        <ele>514</ele>
      </trkpt>
      <trkpt lat="46.4284" lon="4.71859">
        <ele>514.5</ele>
      </trkpt>
      <trkpt lat="46.42842" lon="4.71851">
        <ele>515.1</ele>
      </trkpt>
      <trkpt lat="46.42844" lon="4.71838">
        <ele>516.3</ele>
      </trkpt>
      <trkpt lat="46.42846" lon="4.71827">
        <ele>517.2</ele>
      </trkpt>
      <trkpt lat="46.42849" lon="4.71812">
        <ele>518.3</ele>
      </trkpt>
      <trkpt lat="46.42852" lon="4.71797">
        <ele>519.6</ele>
      </trkpt>
      <trkpt lat="46.42855" lon="4.71782">
        <ele>521.2</ele>
      </trkpt>
      <trkpt lat="46.42857" lon="4.71767">
        <ele>522.6</ele>
      </trkpt>
      <trkpt lat="46.42859" lon="4.71748">
        <ele>524.4</ele>
      </trkpt>
      <trkpt lat="46.4286" lon="4.71737">
        <ele>525.1</ele>
      </trkpt>
      <trkpt lat="46.42865" lon="4.71715">
        <ele>526.2</ele>
      </trkpt>
      <trkpt lat="46.42871" lon="4.71698">
        <ele>526.7</ele>
      </trkpt>
      <trkpt lat="46.42878" lon="4.71683">
        <ele>526.8</ele>
      </trkpt>
      <trkpt lat="46.42886" lon="4.71669">
        <ele>526.4</ele>
      </trkpt>
      <trkpt lat="46.42892" lon="4.71659">
        <ele>525.7</ele>
      </trkpt>
      <trkpt lat="46.429" lon="4.71645">
        <ele>524.9</ele>
      </trkpt>
      <trkpt lat="46.42903" lon="4.71636">
        <ele>524.5</ele>
      </trkpt>
      <trkpt lat="46.42906" lon="4.71628">
        <ele>524.2</ele>
      </trkpt>
      <trkpt lat="46.42908" lon="4.71615">
        <ele>523.9</ele>
      </trkpt>
      <trkpt lat="46.42907" lon="4.71602">
        <ele>524</ele>
      </trkpt>
      <trkpt lat="46.42904" lon="4.71597">
        <ele>524.1</ele>
      </trkpt>
      <trkpt lat="46.42899" lon="4.71594">
        <ele>524.5</ele>
      </trkpt>
      <trkpt lat="46.42894" lon="4.71588">
        <ele>524.8</ele>
      </trkpt>
      <trkpt lat="46.42889" lon="4.71584">
        <ele>525</ele>
      </trkpt>
      <trkpt lat="46.42887" lon="4.71581">
        <ele>525.1</ele>
      </trkpt>
      <trkpt lat="46.42884" lon="4.71577">
        <ele>525.3</ele>
      </trkpt>
      <trkpt lat="46.42878" lon="4.71572">
        <ele>525.8</ele>
      </trkpt>
      <trkpt lat="46.42873" lon="4.71566">
        <ele>526.1</ele>
      </trkpt>
      <trkpt lat="46.42868" lon="4.71558">
        <ele>526.4</ele>
      </trkpt>
      <trkpt lat="46.42865" lon="4.71552">
        <ele>526.5</ele>
      </trkpt>
      <trkpt lat="46.42864" lon="4.71544">
        <ele>526.2</ele>
      </trkpt>
      <trkpt lat="46.42863" lon="4.71539">
        <ele>526.2</ele>
      </trkpt>
      <trkpt lat="46.42862" lon="4.71533">
        <ele>526</ele>
      </trkpt>
      <trkpt lat="46.42861" lon="4.71526">
        <ele>525.8</ele>
      </trkpt>
      <trkpt lat="46.42861" lon="4.71518">
        <ele>525.3</ele>
      </trkpt>
      <trkpt lat="46.42861" lon="4.71509">
        <ele>524.6</ele>
      </trkpt>
      <trkpt lat="46.42862" lon="4.71489">
        <ele>523.1</ele>
      </trkpt>
      <trkpt lat="46.42864" lon="4.71457">
        <ele>520.5</ele>
      </trkpt>
      <trkpt lat="46.42865" lon="4.71446">
        <ele>519.6</ele>
      </trkpt>
      <trkpt lat="46.42864" lon="4.71433">
        <ele>518.7</ele>
      </trkpt>
      <trkpt lat="46.42864" lon="4.71428">
        <ele>518.4</ele>
      </trkpt>
      <trkpt lat="46.42863" lon="4.71421">
        <ele>518</ele>
      </trkpt>
      <trkpt lat="46.42862" lon="4.71409">
        <ele>517.4</ele>
      </trkpt>
      <trkpt lat="46.4286" lon="4.71396">
        <ele>516.8</ele>
      </trkpt>
      <trkpt lat="46.42858" lon="4.71385">
        <ele>516.3</ele>
      </trkpt>
      <trkpt lat="46.42856" lon="4.71372">
        <ele>515.7</ele>
      </trkpt>
      <trkpt lat="46.42854" lon="4.7136">
        <ele>515.3</ele>
      </trkpt>
      <trkpt lat="46.42852" lon="4.71351">
        <ele>515.2</ele>
      </trkpt>
      <trkpt lat="46.42851" lon="4.7134">
        <ele>514.8</ele>
      </trkpt>
      <trkpt lat="46.4285" lon="4.71329">
        <ele>514.5</ele>
      </trkpt>
      <trkpt lat="46.42848" lon="4.71316">
        <ele>514.3</ele>
      </trkpt>
      <trkpt lat="46.42847" lon="4.71306">
        <ele>514</ele>
      </trkpt>
      <trkpt lat="46.42847" lon="4.71293">
        <ele>513.5</ele>
      </trkpt>
      <trkpt lat="46.42846" lon="4.71282">
        <ele>512.8</ele>
      </trkpt>
      <trkpt lat="46.42846" lon="4.71269">
        <ele>512.7</ele>
      </trkpt>
      <trkpt lat="46.42846" lon="4.71265">
        <ele>512.8</ele>
      </trkpt>
      <trkpt lat="46.42846" lon="4.71256">
        <ele>512.9</ele>
      </trkpt>
      <trkpt lat="46.42847" lon="4.71243">
        <ele>513.2</ele>
      </trkpt>
      <trkpt lat="46.42849" lon="4.71236">
        <ele>513.3</ele>
      </trkpt>
      <trkpt lat="46.42853" lon="4.7123">
        <ele>513.1</ele>
      </trkpt>
      <trkpt lat="46.42857" lon="4.71224">
        <ele>512.6</ele>
      </trkpt>
      <trkpt lat="46.42861" lon="4.71219">
        <ele>512.4</ele>
      </trkpt>
      <trkpt lat="46.42866" lon="4.71213">
        <ele>511.9</ele>
      </trkpt>
      <trkpt lat="46.42869" lon="4.71205">
        <ele>512</ele>
      </trkpt>
      <trkpt lat="46.42876" lon="4.71183">
        <ele>511.9</ele>
      </trkpt>
      <trkpt lat="46.4288" lon="4.71172">
        <ele>511.7</ele>
      </trkpt>
      <trkpt lat="46.42882" lon="4.71155">
        <ele>511.8</ele>
      </trkpt>
      <trkpt lat="46.42887" lon="4.71133">
        <ele>511.7</ele>
      </trkpt>
      <trkpt lat="46.42889" lon="4.71117">
        <ele>510.9</ele>
      </trkpt>
      <trkpt lat="46.4289" lon="4.71107">
        <ele>510.6</ele>
      </trkpt>
      <trkpt lat="46.4289" lon="4.711">
        <ele>510.3</ele>
      </trkpt>
      <trkpt lat="46.42889" lon="4.71091">
        <ele>510.2</ele>
      </trkpt>
      <trkpt lat="46.42888" lon="4.71084">
        <ele>510.3</ele>
      </trkpt>
      <trkpt lat="46.42886" lon="4.71077">
        <ele>510.3</ele>
      </trkpt>
      <trkpt lat="46.42884" lon="4.7107">
        <ele>510.4</ele>
      </trkpt>
      <trkpt lat="46.42881" lon="4.71062">
        <ele>510.6</ele>
      </trkpt>
      <trkpt lat="46.42875" lon="4.71049">
        <ele>510.4</ele>
      </trkpt>
      <trkpt lat="46.42857" lon="4.71023">
        <ele>510</ele>
      </trkpt>
      <trkpt lat="46.42838" lon="4.70998">
        <ele>509.7</ele>
      </trkpt>
      <trkpt lat="46.42821" lon="4.70978">
        <ele>509.4</ele>
      </trkpt>
      <trkpt lat="46.42797" lon="4.70951">
        <ele>508.7</ele>
      </trkpt>
      <trkpt lat="46.42773" lon="4.70923">
        <ele>507.9</ele>
      </trkpt>
      <trkpt lat="46.42764" lon="4.70913">
        <ele>507.6</ele>
      </trkpt>
      <trkpt lat="46.42747" lon="4.70893">
        <ele>508.9</ele>
      </trkpt>
      <trkpt lat="46.42737" lon="4.70882">
        <ele>509.6</ele>
      </trkpt>
      <trkpt lat="46.42731" lon="4.70874">
        <ele>509.5</ele>
      </trkpt>
      <trkpt lat="46.42726" lon="4.70863">
        <ele>508.7</ele>
      </trkpt>
      <trkpt lat="46.4272" lon="4.70847">
        <ele>508.9</ele>
      </trkpt>
      <trkpt lat="46.4272" lon="4.70834">
        <ele>508.3</ele>
      </trkpt>
      <trkpt lat="46.42723" lon="4.70798">
        <ele>506.6</ele>
      </trkpt>
      <trkpt lat="46.42724" lon="4.70784">
        <ele>506</ele>
      </trkpt>
      <trkpt lat="46.42727" lon="4.70773">
        <ele>505.6</ele>
      </trkpt>
      <trkpt lat="46.42731" lon="4.70759">
        <ele>505.5</ele>
      </trkpt>
      <trkpt lat="46.4274" lon="4.70737">
        <ele>505.2</ele>
      </trkpt>
      <trkpt lat="46.42745" lon="4.70726">
        <ele>505.3</ele>
      </trkpt>
      <trkpt lat="46.42751" lon="4.70712">
        <ele>505.2</ele>
      </trkpt>
      <trkpt lat="46.42757" lon="4.70701">
        <ele>504.7</ele>
      </trkpt>
      <trkpt lat="46.42763" lon="4.70691">
        <ele>504.4</ele>
      </trkpt>
      <trkpt lat="46.4277" lon="4.7068">
        <ele>504.5</ele>
      </trkpt>
      <trkpt lat="46.42783" lon="4.70664">
        <ele>504.4</ele>
      </trkpt>
      <trkpt lat="46.42786" lon="4.70659">
        <ele>504.1</ele>
      </trkpt>
      <trkpt lat="46.42788" lon="4.70652">
        <ele>504.1</ele>
      </trkpt>
      <trkpt lat="46.42789" lon="4.70642">
        <ele>504</ele>
      </trkpt>
      <trkpt lat="46.42791" lon="4.70634">
        <ele>504.1</ele>
      </trkpt>
      <trkpt lat="46.42793" lon="4.70626">
        <ele>504.3</ele>
      </trkpt>
      <trkpt lat="46.42795" lon="4.70619">
        <ele>504.5</ele>
      </trkpt>
      <trkpt lat="46.42799" lon="4.70612">
        <ele>504.4</ele>
      </trkpt>
      <trkpt lat="46.42803" lon="4.70604">
        <ele>504.5</ele>
      </trkpt>
      <trkpt lat="46.4281" lon="4.70598">
        <ele>503.9</ele>
      </trkpt>
      <trkpt lat="46.42816" lon="4.70592">
        <ele>503.6</ele>
      </trkpt>
      <trkpt lat="46.42824" lon="4.70586">
        <ele>503.2</ele>
      </trkpt>
      <trkpt lat="46.42833" lon="4.70579">
        <ele>503.2</ele>
      </trkpt>
      <trkpt lat="46.42869" lon="4.70554">
        <ele>502.8</ele>
      </trkpt>
      <trkpt lat="46.42892" lon="4.70538">
        <ele>501.3</ele>
      </trkpt>
      <trkpt lat="46.42906" lon="4.70523">
        <ele>500.7</ele>
      </trkpt>
      <trkpt lat="46.42924" lon="4.70502">
        <ele>500.4</ele>
      </trkpt>
      <trkpt lat="46.42944" lon="4.70472">
        <ele>499</ele>
      </trkpt>
      <trkpt lat="46.42947" lon="4.70467">
        <ele>498.8</ele>
      </trkpt>
      <trkpt lat="46.42949" lon="4.70462">
        <ele>498.7</ele>
      </trkpt>
      <trkpt lat="46.4295" lon="4.70456">
        <ele>498.9</ele>
      </trkpt>
      <trkpt lat="46.42951" lon="4.70451">
        <ele>499.3</ele>
      </trkpt>
      <trkpt lat="46.42951" lon="4.70444">
        <ele>499.8</ele>
      </trkpt>
      <trkpt lat="46.42951" lon="4.70438">
        <ele>499.6</ele>
      </trkpt>
      <trkpt lat="46.42951" lon="4.70432">
        <ele>499.6</ele>
      </trkpt>
      <trkpt lat="46.4295" lon="4.70425">
        <ele>499.7</ele>
      </trkpt>
      <trkpt lat="46.42948" lon="4.70418">
        <ele>499.9</ele>
      </trkpt>
      <trkpt lat="46.42947" lon="4.70411">
        <ele>499.6</ele>
      </trkpt>
      <trkpt lat="46.42944" lon="4.70403">
        <ele>499.6</ele>
      </trkpt>
      <trkpt lat="46.42941" lon="4.70396">
        <ele>499.6</ele>
      </trkpt>
      <trkpt lat="46.42937" lon="4.70387">
        <ele>499.7</ele>
      </trkpt>
      <trkpt lat="46.42932" lon="4.7038">
        <ele>499.7</ele>
      </trkpt>
      <trkpt lat="46.42926" lon="4.70371">
        <ele>499.6</ele>
      </trkpt>
      <trkpt lat="46.4292" lon="4.70363">
        <ele>499.5</ele>
      </trkpt>
      <trkpt lat="46.42913" lon="4.70355">
        <ele>499.5</ele>
      </trkpt>
      <trkpt lat="46.42893" lon="4.70336">
        <ele>499.7</ele>
      </trkpt>
      <trkpt lat="46.42877" lon="4.70321">
        <ele>499.4</ele>
      </trkpt>
      <trkpt lat="46.42852" lon="4.70298">
        <ele>499</ele>
      </trkpt>
      <trkpt lat="46.42829" lon="4.70274">
        <ele>498.2</ele>
      </trkpt>
      <trkpt lat="46.42805" lon="4.70257">
        <ele>498.5</ele>
      </trkpt>
      <trkpt lat="46.42781" lon="4.70236">
        <ele>497.7</ele>
      </trkpt>
      <trkpt lat="46.42759" lon="4.70217">
        <ele>497.4</ele>
      </trkpt>
      <trkpt lat="46.42742" lon="4.70199">
        <ele>497.2</ele>
      </trkpt>
      <trkpt lat="46.42726" lon="4.70177">
        <ele>496</ele>
      </trkpt>
      <trkpt lat="46.4271" lon="4.70152">
        <ele>494.9</ele>
      </trkpt>
      <trkpt lat="46.42694" lon="4.70123">
        <ele>493.9</ele>
      </trkpt>
      <trkpt lat="46.42692" lon="4.7012">
        <ele>493.8</ele>
      </trkpt>
      <trkpt lat="46.42679" lon="4.70095">
        <ele>493.9</ele>
      </trkpt>
      <trkpt lat="46.42678" lon="4.70092">
        <ele>493.7</ele>
      </trkpt>
      <trkpt lat="46.4267" lon="4.70079">
        <ele>494.1</ele>
      </trkpt>
      <trkpt lat="46.42665" lon="4.7007">
        <ele>494.3</ele>
      </trkpt>
      <trkpt lat="46.42651" lon="4.70041">
        <ele>493.9</ele>
      </trkpt>
      <trkpt lat="46.42644" lon="4.7003">
        <ele>493.7</ele>
      </trkpt>
      <trkpt lat="46.42637" lon="4.70023">
        <ele>494</ele>
      </trkpt>
      <trkpt lat="46.4263" lon="4.70018">
        <ele>494.5</ele>
      </trkpt>
      <trkpt lat="46.42621" lon="4.70009">
        <ele>494.8</ele>
      </trkpt>
      <trkpt lat="46.42604" lon="4.7">
        <ele>495.5</ele>
      </trkpt>
      <trkpt lat="46.42593" lon="4.69992">
        <ele>496</ele>
      </trkpt>
      <trkpt lat="46.42584" lon="4.69985">
        <ele>496.5</ele>
      </trkpt>
      <trkpt lat="46.42568" lon="4.69979">
        <ele>496.4</ele>
      </trkpt>
      <trkpt lat="46.42542" lon="4.69971">
        <ele>496.4</ele>
      </trkpt>
      <trkpt lat="46.42528" lon="4.69967">
        <ele>496.4</ele>
      </trkpt>
      <trkpt lat="46.42502" lon="4.69961">
        <ele>495.8</ele>
      </trkpt>
      <trkpt lat="46.42485" lon="4.69959">
        <ele>495.3</ele>
      </trkpt>
      <trkpt lat="46.42466" lon="4.69958">
        <ele>495</ele>
      </trkpt>
      <trkpt lat="46.4245" lon="4.69958">
        <ele>495.3</ele>
      </trkpt>
      <trkpt lat="46.42438" lon="4.69959">
        <ele>495.8</ele>
      </trkpt>
      <trkpt lat="46.42425" lon="4.6996">
        <ele>496.5</ele>
      </trkpt>
      <trkpt lat="46.42414" lon="4.69962">
        <ele>497.1</ele>
      </trkpt>
      <trkpt lat="46.42403" lon="4.69965">
        <ele>497.7</ele>
      </trkpt>
      <trkpt lat="46.42386" lon="4.69972">
        <ele>498.9</ele>
      </trkpt>
      <trkpt lat="46.42362" lon="4.69984">
        <ele>500.6</ele>
      </trkpt>
      <trkpt lat="46.42343" lon="4.6999">
        <ele>501.5</ele>
      </trkpt>
      <trkpt lat="46.42322" lon="4.69996">
        <ele>502.7</ele>
      </trkpt>
      <trkpt lat="46.42308" lon="4.69998">
        <ele>503.5</ele>
      </trkpt>
      <trkpt lat="46.4229" lon="4.69998">
        <ele>504.8</ele>
      </trkpt>
      <trkpt lat="46.42273" lon="4.69997">
        <ele>505.9</ele>
      </trkpt>
      <trkpt lat="46.42256" lon="4.69995">
        <ele>507.3</ele>
      </trkpt>
      <trkpt lat="46.42243" lon="4.69992">
        <ele>507.8</ele>
      </trkpt>
      <trkpt lat="46.4223" lon="4.69992">
        <ele>508.3</ele>
      </trkpt>
      <trkpt lat="46.42219" lon="4.69994">
        <ele>508.8</ele>
      </trkpt>
      <trkpt lat="46.42209" lon="4.69998">
        <ele>509.1</ele>
      </trkpt>
      <trkpt lat="46.422" lon="4.70003">
        <ele>509.6</ele>
      </trkpt>
      <trkpt lat="46.42191" lon="4.70009">
        <ele>510</ele>
      </trkpt>
      <trkpt lat="46.42179" lon="4.70021">
        <ele>510.4</ele>
      </trkpt>
      <trkpt lat="46.42167" lon="4.70034">
        <ele>510.4</ele>
      </trkpt>
      <trkpt lat="46.4215" lon="4.70052">
        <ele>509.9</ele>
      </trkpt>
      <trkpt lat="46.42133" lon="4.70069">
        <ele>509.4</ele>
      </trkpt>
      <trkpt lat="46.42104" lon="4.70101">
        <ele>508.4</ele>
      </trkpt>
      <trkpt lat="46.42089" lon="4.70115">
        <ele>508.3</ele>
      </trkpt>
      <trkpt lat="46.42079" lon="4.70118">
        <ele>508.4</ele>
      </trkpt>
      <trkpt lat="46.42056" lon="4.70122">
        <ele>509</ele>
      </trkpt>
      <trkpt lat="46.41993" lon="4.70133">
        <ele>510.1</ele>
      </trkpt>
      <trkpt lat="46.41989" lon="4.70128">
        <ele>510.2</ele>
      </trkpt>
      <trkpt lat="46.41976" lon="4.70121">
        <ele>510.6</ele>
      </trkpt>
      <trkpt lat="46.41957" lon="4.70117">
        <ele>511.8</ele>
      </trkpt>
      <trkpt lat="46.41928" lon="4.70113">
        <ele>512.9</ele>
      </trkpt>
      <trkpt lat="46.4191" lon="4.70113">
        <ele>512.9</ele>
      </trkpt>
      <trkpt lat="46.41892" lon="4.70117">
        <ele>512.4</ele>
      </trkpt>
      <trkpt lat="46.41877" lon="4.70122">
        <ele>512.4</ele>
      </trkpt>
      <trkpt lat="46.41855" lon="4.70135">
        <ele>512.6</ele>
      </trkpt>
      <trkpt lat="46.41841" lon="4.70149">
        <ele>512</ele>
      </trkpt>
      <trkpt lat="46.41824" lon="4.70159">
        <ele>512.2</ele>
      </trkpt>
      <trkpt lat="46.41817" lon="4.70157">
        <ele>512.9</ele>
      </trkpt>
      <trkpt lat="46.4181" lon="4.7015">
        <ele>514</ele>
      </trkpt>
      <trkpt lat="46.41804" lon="4.70143">
        <ele>514.9</ele>
      </trkpt>
      <trkpt lat="46.41797" lon="4.70136">
        <ele>516.1</ele>
      </trkpt>
      <trkpt lat="46.4178" lon="4.70119">
        <ele>518.5</ele>
      </trkpt>
      <trkpt lat="46.41767" lon="4.70109">
        <ele>520.4</ele>
      </trkpt>
      <trkpt lat="46.41758" lon="4.70101">
        <ele>522</ele>
      </trkpt>
      <trkpt lat="46.41751" lon="4.7009">
        <ele>523.4</ele>
      </trkpt>
      <trkpt lat="46.41745" lon="4.7008">
        <ele>525.1</ele>
      </trkpt>
      <trkpt lat="46.41735" lon="4.70075">
        <ele>527</ele>
      </trkpt>
      <trkpt lat="46.41725" lon="4.70064">
        <ele>529</ele>
      </trkpt>
      <trkpt lat="46.41713" lon="4.70049">
        <ele>532.6</ele>
      </trkpt>
      <trkpt lat="46.41657" lon="4.70007">
        <ele>549.4</ele>
      </trkpt>
      <trkpt lat="46.41637" lon="4.70014">
        <ele>550.9</ele>
      </trkpt>
      <trkpt lat="46.4163" lon="4.70008">
        <ele>550.7</ele>
      </trkpt>
      <trkpt lat="46.41621" lon="4.70002">
        <ele>550</ele>
      </trkpt>
      <trkpt lat="46.41612" lon="4.69995">
        <ele>549.1</ele>
      </trkpt>
      <trkpt lat="46.41604" lon="4.69991">
        <ele>547.9</ele>
      </trkpt>
      <trkpt lat="46.41595" lon="4.69984">
        <ele>546.8</ele>
      </trkpt>
      <trkpt lat="46.41587" lon="4.69981">
        <ele>545.8</ele>
      </trkpt>
      <trkpt lat="46.41578" lon="4.69977">
        <ele>544.4</ele>
      </trkpt>
      <trkpt lat="46.41565" lon="4.69972">
        <ele>542</ele>
      </trkpt>
      <trkpt lat="46.41553" lon="4.69967">
        <ele>539.7</ele>
      </trkpt>
      <trkpt lat="46.41541" lon="4.69958">
        <ele>537.2</ele>
      </trkpt>
      <trkpt lat="46.41532" lon="4.69952">
        <ele>535.4</ele>
      </trkpt>
      <trkpt lat="46.4153" lon="4.69951">
        <ele>535.1</ele>
      </trkpt>
      <trkpt lat="46.41516" lon="4.69942">
        <ele>532.3</ele>
      </trkpt>
      <trkpt lat="46.4151" lon="4.69941">
        <ele>531.1</ele>
      </trkpt>
      <trkpt lat="46.41498" lon="4.69941">
        <ele>528.6</ele>
      </trkpt>
      <trkpt lat="46.41485" lon="4.69934">
        <ele>526.2</ele>
      </trkpt>
      <trkpt lat="46.41459" lon="4.69918">
        <ele>521.2</ele>
      </trkpt>
      <trkpt lat="46.41424" lon="4.6992">
        <ele>517.9</ele>
      </trkpt>
      <trkpt lat="46.41418" lon="4.6992">
        <ele>517.5</ele>
      </trkpt>
      <trkpt lat="46.41403" lon="4.6992">
        <ele>516.9</ele>
      </trkpt>
      <trkpt lat="46.41391" lon="4.6992">
        <ele>516.5</ele>
      </trkpt>
      <trkpt lat="46.41388" lon="4.69921">
        <ele>516.5</ele>
      </trkpt>
      <trkpt lat="46.41379" lon="4.6992">
        <ele>516.7</ele>
      </trkpt>
      <trkpt lat="46.41368" lon="4.69918">
        <ele>516.9</ele>
      </trkpt>
      <trkpt lat="46.41347" lon="4.69911">
        <ele>516.3</ele>
      </trkpt>
      <trkpt lat="46.41302" lon="4.69886">
        <ele>513.6</ele>
      </trkpt>
      <trkpt lat="46.41257" lon="4.69861">
        <ele>511.2</ele>
      </trkpt>
      <trkpt lat="46.4124" lon="4.69846">
        <ele>509.9</ele>
      </trkpt>
      <trkpt lat="46.4122" lon="4.69832">
        <ele>508.8</ele>
      </trkpt>
      <trkpt lat="46.41208" lon="4.69825">
        <ele>507.8</ele>
      </trkpt>
      <trkpt lat="46.41189" lon="4.69814">
        <ele>506.6</ele>
      </trkpt>
      <trkpt lat="46.41179" lon="4.69808">
        <ele>505.9</ele>
      </trkpt>
      <trkpt lat="46.41173" lon="4.69805">
        <ele>505.5</ele>
      </trkpt>
      <trkpt lat="46.41151" lon="4.6979">
        <ele>503.9</ele>
      </trkpt>
      <trkpt lat="46.4115" lon="4.69789">
        <ele>503.8</ele>
      </trkpt>
      <trkpt lat="46.41144" lon="4.69785">
        <ele>503.4</ele>
      </trkpt>
      <trkpt lat="46.41128" lon="4.69774">
        <ele>502.2</ele>
      </trkpt>
      <trkpt lat="46.41126" lon="4.69773">
        <ele>502.1</ele>
      </trkpt>
      <trkpt lat="46.41099" lon="4.69761">
        <ele>500.8</ele>
      </trkpt>
      <trkpt lat="46.41082" lon="4.69752">
        <ele>500.9</ele>
      </trkpt>
      <trkpt lat="46.41067" lon="4.69738">
        <ele>500.6</ele>
      </trkpt>
      <trkpt lat="46.41061" lon="4.69736">
        <ele>500.6</ele>
      </trkpt>
      <trkpt lat="46.41049" lon="4.69732">
        <ele>500.7</ele>
      </trkpt>
      <trkpt lat="46.41047" lon="4.69731">
        <ele>500.8</ele>
      </trkpt>
      <trkpt lat="46.41021" lon="4.69717">
        <ele>501.5</ele>
      </trkpt>
      <trkpt lat="46.41008" lon="4.6971">
        <ele>502</ele>
      </trkpt>
      <trkpt lat="46.40994" lon="4.69701">
        <ele>502.8</ele>
      </trkpt>
      <trkpt lat="46.40986" lon="4.69692">
        <ele>503.7</ele>
      </trkpt>
      <trkpt lat="46.4098" lon="4.69682">
        <ele>504.4</ele>
      </trkpt>
      <trkpt lat="46.40976" lon="4.69669">
        <ele>505</ele>
      </trkpt>
      <trkpt lat="46.40973" lon="4.69649">
        <ele>505.6</ele>
      </trkpt>
      <trkpt lat="46.40972" lon="4.69629">
        <ele>505.7</ele>
      </trkpt>
      <trkpt lat="46.40971" lon="4.69617">
        <ele>505.3</ele>
      </trkpt>
      <trkpt lat="46.4097" lon="4.69611">
        <ele>505.2</ele>
      </trkpt>
      <trkpt lat="46.40967" lon="4.69589">
        <ele>504.7</ele>
      </trkpt>
      <trkpt lat="46.40961" lon="4.69568">
        <ele>503.7</ele>
      </trkpt>
      <trkpt lat="46.4095" lon="4.69544">
        <ele>502</ele>
      </trkpt>
      <trkpt lat="46.40938" lon="4.69526">
        <ele>500.1</ele>
      </trkpt>
      <trkpt lat="46.40927" lon="4.6951">
        <ele>497.8</ele>
      </trkpt>
      <trkpt lat="46.40919" lon="4.695">
        <ele>495.9</ele>
      </trkpt>
      <trkpt lat="46.40917" lon="4.69498">
        <ele>495.7</ele>
      </trkpt>
      <trkpt lat="46.40909" lon="4.6949">
        <ele>494.5</ele>
      </trkpt>
      <trkpt lat="46.40901" lon="4.69482">
        <ele>493.4</ele>
      </trkpt>
      <trkpt lat="46.40892" lon="4.69473">
        <ele>492.1</ele>
      </trkpt>
      <trkpt lat="46.40883" lon="4.69467">
        <ele>491.3</ele>
      </trkpt>
      <trkpt lat="46.40879" lon="4.69464">
        <ele>491</ele>
      </trkpt>
      <trkpt lat="46.40889" lon="4.69457">
        <ele>488.8</ele>
      </trkpt>
      <trkpt lat="46.40895" lon="4.69453">
        <ele>487.7</ele>
      </trkpt>
      <trkpt lat="46.40907" lon="4.69448">
        <ele>486.6</ele>
      </trkpt>
      <trkpt lat="46.4092" lon="4.69439">
        <ele>485</ele>
      </trkpt>
      <trkpt lat="46.40929" lon="4.69434">
        <ele>484.1</ele>
      </trkpt>
      <trkpt lat="46.40943" lon="4.69428">
        <ele>483</ele>
      </trkpt>
      <trkpt lat="46.40953" lon="4.69423">
        <ele>481.9</ele>
      </trkpt>
      <trkpt lat="46.40964" lon="4.69417">
        <ele>480.5</ele>
      </trkpt>
      <trkpt lat="46.40972" lon="4.69413">
        <ele>479.4</ele>
      </trkpt>
      <trkpt lat="46.40981" lon="4.69411">
        <ele>478.4</ele>
      </trkpt>
      <trkpt lat="46.4099" lon="4.6941">
        <ele>477.6</ele>
      </trkpt>
      <trkpt lat="46.41" lon="4.69411">
        <ele>476.9</ele>
      </trkpt>
      <trkpt lat="46.41016" lon="4.6941">
        <ele>476</ele>
      </trkpt>
      <trkpt lat="46.41032" lon="4.69409">
        <ele>475.2</ele>
      </trkpt>
      <trkpt lat="46.41051" lon="4.69405">
        <ele>473.7</ele>
      </trkpt>
      <trkpt lat="46.41072" lon="4.69401">
        <ele>471.8</ele>
      </trkpt>
      <trkpt lat="46.41091" lon="4.69397">
        <ele>469.6</ele>
      </trkpt>
      <trkpt lat="46.41109" lon="4.69393">
        <ele>466.8</ele>
      </trkpt>
      <trkpt lat="46.41128" lon="4.69387">
        <ele>464.4</ele>
      </trkpt>
      <trkpt lat="46.41154" lon="4.69378">
        <ele>461.3</ele>
      </trkpt>
      <trkpt lat="46.41187" lon="4.69364">
        <ele>458.2</ele>
      </trkpt>
      <trkpt lat="46.41208" lon="4.69358">
        <ele>457.1</ele>
      </trkpt>
      <trkpt lat="46.41217" lon="4.69353">
        <ele>456.1</ele>
      </trkpt>
      <trkpt lat="46.41229" lon="4.6934">
        <ele>454.8</ele>
      </trkpt>
      <trkpt lat="46.41249" lon="4.69306">
        <ele>452.9</ele>
      </trkpt>
      <trkpt lat="46.41257" lon="4.69291">
        <ele>451.7</ele>
      </trkpt>
      <trkpt lat="46.41258" lon="4.69278">
        <ele>450.6</ele>
      </trkpt>
      <trkpt lat="46.41257" lon="4.69267">
        <ele>450</ele>
      </trkpt>
      <trkpt lat="46.41255" lon="4.6926">
        <ele>449.6</ele>
      </trkpt>
      <trkpt lat="46.41252" lon="4.69252">
        <ele>449.2</ele>
      </trkpt>
      <trkpt lat="46.41248" lon="4.69243">
        <ele>448.3</ele>
      </trkpt>
      <trkpt lat="46.41244" lon="4.69235">
        <ele>447.5</ele>
      </trkpt>
      <trkpt lat="46.41238" lon="4.69227">
        <ele>446.5</ele>
      </trkpt>
      <trkpt lat="46.41234" lon="4.69222">
        <ele>445.8</ele>
      </trkpt>
      <trkpt lat="46.41231" lon="4.69217">
        <ele>445.1</ele>
      </trkpt>
      <trkpt lat="46.41228" lon="4.6921">
        <ele>444.2</ele>
      </trkpt>
      <trkpt lat="46.41224" lon="4.69203">
        <ele>443.1</ele>
      </trkpt>
      <trkpt lat="46.41219" lon="4.69196">
        <ele>441.9</ele>
      </trkpt>
      <trkpt lat="46.41214" lon="4.6919">
        <ele>441</ele>
      </trkpt>
      <trkpt lat="46.4121" lon="4.69186">
        <ele>440.4</ele>
      </trkpt>
      <trkpt lat="46.41206" lon="4.69182">
        <ele>439.7</ele>
      </trkpt>
      <trkpt lat="46.41202" lon="4.69178">
        <ele>438.9</ele>
      </trkpt>
      <trkpt lat="46.41197" lon="4.69173">
        <ele>437.9</ele>
      </trkpt>
      <trkpt lat="46.41193" lon="4.69169">
        <ele>437.2</ele>
      </trkpt>
      <trkpt lat="46.4119" lon="4.69164">
        <ele>436.5</ele>
      </trkpt>
      <trkpt lat="46.41185" lon="4.69158">
        <ele>435.6</ele>
      </trkpt>
      <trkpt lat="46.4118" lon="4.6915">
        <ele>434.7</ele>
      </trkpt>
      <trkpt lat="46.41182" lon="4.69146">
        <ele>434.2</ele>
      </trkpt>
      <trkpt lat="46.41184" lon="4.69141">
        <ele>433.6</ele>
      </trkpt>
      <trkpt lat="46.41188" lon="4.69134">
        <ele>432.5</ele>
      </trkpt>
      <trkpt lat="46.41193" lon="4.69126">
        <ele>431.2</ele>
      </trkpt>
      <trkpt lat="46.41196" lon="4.69117">
        <ele>430.1</ele>
      </trkpt>
      <trkpt lat="46.41202" lon="4.69106">
        <ele>429.6</ele>
      </trkpt>
      <trkpt lat="46.41206" lon="4.69096">
        <ele>428.6</ele>
      </trkpt>
      <trkpt lat="46.41208" lon="4.69076">
        <ele>426.3</ele>
      </trkpt>
      <trkpt lat="46.41215" lon="4.69031">
        <ele>423.3</ele>
      </trkpt>
      <trkpt lat="46.4122" lon="4.69007">
        <ele>420.9</ele>
      </trkpt>
      <trkpt lat="46.41222" lon="4.68998">
        <ele>419.8</ele>
      </trkpt>
      <trkpt lat="46.41231" lon="4.68973">
        <ele>417.9</ele>
      </trkpt>
      <trkpt lat="46.41238" lon="4.6894">
        <ele>414.2</ele>
      </trkpt>
      <trkpt lat="46.41245" lon="4.68915">
        <ele>412.1</ele>
      </trkpt>
      <trkpt lat="46.41252" lon="4.68891">
        <ele>410.6</ele>
      </trkpt>
      <trkpt lat="46.4126" lon="4.68872">
        <ele>410.4</ele>
      </trkpt>
      <trkpt lat="46.41266" lon="4.68852">
        <ele>409.3</ele>
      </trkpt>
      <trkpt lat="46.41272" lon="4.68835">
        <ele>408.4</ele>
      </trkpt>
      <trkpt lat="46.4128" lon="4.6882">
        <ele>406.8</ele>
      </trkpt>
      <trkpt lat="46.41291" lon="4.68801">
        <ele>404.3</ele>
      </trkpt>
      <trkpt lat="46.41302" lon="4.68784">
        <ele>401.3</ele>
      </trkpt>
      <trkpt lat="46.41312" lon="4.68774">
        <ele>398.7</ele>
      </trkpt>
      <trkpt lat="46.41323" lon="4.68768">
        <ele>396.5</ele>
      </trkpt>
      <trkpt lat="46.41332" lon="4.68765">
        <ele>395.5</ele>
      </trkpt>
      <trkpt lat="46.4134" lon="4.68765">
        <ele>393.8</ele>
      </trkpt>
      <trkpt lat="46.41347" lon="4.68766">
        <ele>392.6</ele>
      </trkpt>
      <trkpt lat="46.41355" lon="4.68766">
        <ele>391</ele>
      </trkpt>
      <trkpt lat="46.41363" lon="4.68769">
        <ele>389.4</ele>
      </trkpt>
      <trkpt lat="46.41377" lon="4.68767">
        <ele>384.3</ele>
      </trkpt>
      <trkpt lat="46.41382" lon="4.68743">
        <ele>377.7</ele>
      </trkpt>
      <trkpt lat="46.41391" lon="4.68704">
        <ele>368.9</ele>
      </trkpt>
      <trkpt lat="46.41399" lon="4.68686">
        <ele>367.1</ele>
      </trkpt>
      <trkpt lat="46.41402" lon="4.68683">
        <ele>367.2</ele>
      </trkpt>
      <trkpt lat="46.41409" lon="4.68674">
        <ele>366.9</ele>
      </trkpt>
      <trkpt lat="46.41421" lon="4.68656">
        <ele>366.5</ele>
      </trkpt>
      <trkpt lat="46.4143" lon="4.68638">
        <ele>365.9</ele>
      </trkpt>
      <trkpt lat="46.41441" lon="4.68623">
        <ele>365.7</ele>
      </trkpt>
      <trkpt lat="46.41442" lon="4.6862">
        <ele>365.6</ele>
      </trkpt>
      <trkpt lat="46.41452" lon="4.68607">
        <ele>365.8</ele>
      </trkpt>
      <trkpt lat="46.41464" lon="4.68587">
        <ele>365.9</ele>
      </trkpt>
      <trkpt lat="46.41483" lon="4.68559">
        <ele>366.1</ele>
      </trkpt>
      <trkpt lat="46.41489" lon="4.68545">
        <ele>365.8</ele>
      </trkpt>
      <trkpt lat="46.41496" lon="4.68532">
        <ele>365.6</ele>
      </trkpt>
      <trkpt lat="46.415" lon="4.68523">
        <ele>365.5</ele>
      </trkpt>
      <trkpt lat="46.41505" lon="4.68516">
        <ele>365.7</ele>
      </trkpt>
      <trkpt lat="46.4151" lon="4.68508">
        <ele>365.8</ele>
      </trkpt>
      <trkpt lat="46.41516" lon="4.685">
        <ele>365.9</ele>
      </trkpt>
      <trkpt lat="46.41522" lon="4.68493">
        <ele>365.7</ele>
      </trkpt>
      <trkpt lat="46.41527" lon="4.68484">
        <ele>365.5</ele>
      </trkpt>
      <trkpt lat="46.41532" lon="4.68476">
        <ele>365.2</ele>
      </trkpt>
      <trkpt lat="46.41537" lon="4.68469">
        <ele>364.7</ele>
      </trkpt>
      <trkpt lat="46.41542" lon="4.68463">
        <ele>364.2</ele>
      </trkpt>
      <trkpt lat="46.41547" lon="4.68456">
        <ele>363.7</ele>
      </trkpt>
      <trkpt lat="46.41553" lon="4.68449">
        <ele>363.4</ele>
      </trkpt>
      <trkpt lat="46.41556" lon="4.68445">
        <ele>363.1</ele>
      </trkpt>
      <trkpt lat="46.41564" lon="4.68433">
        <ele>361.9</ele>
      </trkpt>
      <trkpt lat="46.41569" lon="4.68427">
        <ele>361.4</ele>
      </trkpt>
      <trkpt lat="46.41576" lon="4.68421">
        <ele>361</ele>
      </trkpt>
      <trkpt lat="46.41582" lon="4.68416">
        <ele>360.6</ele>
      </trkpt>
      <trkpt lat="46.41586" lon="4.68411">
        <ele>360.4</ele>
      </trkpt>
      <trkpt lat="46.41591" lon="4.68405">
        <ele>360.1</ele>
      </trkpt>
      <trkpt lat="46.41595" lon="4.68399">
        <ele>359.4</ele>
      </trkpt>
      <trkpt lat="46.416" lon="4.68391">
        <ele>358.6</ele>
      </trkpt>
      <trkpt lat="46.41605" lon="4.68384">
        <ele>357.7</ele>
      </trkpt>
      <trkpt lat="46.41609" lon="4.68379">
        <ele>357.1</ele>
      </trkpt>
      <trkpt lat="46.41613" lon="4.68373">
        <ele>356.3</ele>
      </trkpt>
      <trkpt lat="46.41617" lon="4.68368">
        <ele>355.8</ele>
      </trkpt>
      <trkpt lat="46.41621" lon="4.68362">
        <ele>355.2</ele>
      </trkpt>
      <trkpt lat="46.41625" lon="4.68355">
        <ele>354.5</ele>
      </trkpt>
      <trkpt lat="46.41629" lon="4.68348">
        <ele>353.9</ele>
      </trkpt>
      <trkpt lat="46.41633" lon="4.68343">
        <ele>353.6</ele>
      </trkpt>
      <trkpt lat="46.41637" lon="4.68339">
        <ele>353.5</ele>
      </trkpt>
      <trkpt lat="46.41641" lon="4.68333">
        <ele>353.2</ele>
      </trkpt>
      <trkpt lat="46.41646" lon="4.68328">
        <ele>352.9</ele>
      </trkpt>
      <trkpt lat="46.4165" lon="4.68321">
        <ele>352.4</ele>
      </trkpt>
      <trkpt lat="46.41654" lon="4.68316">
        <ele>352.1</ele>
      </trkpt>
      <trkpt lat="46.41659" lon="4.6831">
        <ele>351.8</ele>
      </trkpt>
      <trkpt lat="46.41664" lon="4.68305">
        <ele>351.6</ele>
      </trkpt>
      <trkpt lat="46.41669" lon="4.683">
        <ele>351.3</ele>
      </trkpt>
      <trkpt lat="46.41674" lon="4.68295">
        <ele>350.9</ele>
      </trkpt>
      <trkpt lat="46.41678" lon="4.6829">
        <ele>350.4</ele>
      </trkpt>
      <trkpt lat="46.41682" lon="4.68285">
        <ele>349.7</ele>
      </trkpt>
      <trkpt lat="46.41695" lon="4.68278">
        <ele>349.1</ele>
      </trkpt>
      <trkpt lat="46.417" lon="4.68276">
        <ele>349.3</ele>
      </trkpt>
      <trkpt lat="46.41706" lon="4.68272">
        <ele>349.2</ele>
      </trkpt>
      <trkpt lat="46.41712" lon="4.68266">
        <ele>349</ele>
      </trkpt>
      <trkpt lat="46.41724" lon="4.68255">
        <ele>348.1</ele>
      </trkpt>
      <trkpt lat="46.41728" lon="4.6825">
        <ele>347.8</ele>
      </trkpt>
      <trkpt lat="46.41737" lon="4.6824">
        <ele>347.7</ele>
      </trkpt>
      <trkpt lat="46.41742" lon="4.68234">
        <ele>347.5</ele>
      </trkpt>
      <trkpt lat="46.41743" lon="4.68232">
        <ele>347.4</ele>
      </trkpt>
      <trkpt lat="46.41747" lon="4.68228">
        <ele>347.3</ele>
      </trkpt>
      <trkpt lat="46.41751" lon="4.68222">
        <ele>347.1</ele>
      </trkpt>
      <trkpt lat="46.41755" lon="4.68217">
        <ele>346.8</ele>
      </trkpt>
      <trkpt lat="46.41759" lon="4.68211">
        <ele>346.5</ele>
      </trkpt>
      <trkpt lat="46.41769" lon="4.68198">
        <ele>346.1</ele>
      </trkpt>
      <trkpt lat="46.41776" lon="4.6819">
        <ele>346</ele>
      </trkpt>
      <trkpt lat="46.41781" lon="4.68181">
        <ele>345.3</ele>
      </trkpt>
      <trkpt lat="46.41784" lon="4.68172">
        <ele>344.4</ele>
      </trkpt>
      <trkpt lat="46.41786" lon="4.68164">
        <ele>343.6</ele>
      </trkpt>
      <trkpt lat="46.41789" lon="4.68155">
        <ele>343.1</ele>
      </trkpt>
      <trkpt lat="46.41791" lon="4.68144">
        <ele>342.4</ele>
      </trkpt>
      <trkpt lat="46.41794" lon="4.68132">
        <ele>342</ele>
      </trkpt>
      <trkpt lat="46.41798" lon="4.6812">
        <ele>342</ele>
      </trkpt>
      <trkpt lat="46.41802" lon="4.6811">
        <ele>342.2</ele>
      </trkpt>
      <trkpt lat="46.41806" lon="4.68097">
        <ele>342.5</ele>
      </trkpt>
      <trkpt lat="46.41812" lon="4.68083">
        <ele>342.2</ele>
      </trkpt>
      <trkpt lat="46.41815" lon="4.68073">
        <ele>341.2</ele>
      </trkpt>
      <trkpt lat="46.41817" lon="4.68068">
        <ele>340.7</ele>
      </trkpt>
      <trkpt lat="46.41819" lon="4.68062">
        <ele>340.2</ele>
      </trkpt>
      <trkpt lat="46.41821" lon="4.68056">
        <ele>339.6</ele>
      </trkpt>
      <trkpt lat="46.41823" lon="4.68048">
        <ele>338.8</ele>
      </trkpt>
      <trkpt lat="46.41825" lon="4.68038">
        <ele>338.1</ele>
      </trkpt>
      <trkpt lat="46.41826" lon="4.6803">
        <ele>337.3</ele>
      </trkpt>
      <trkpt lat="46.41827" lon="4.6802">
        <ele>336.8</ele>
      </trkpt>
      <trkpt lat="46.41829" lon="4.67997">
        <ele>336.1</ele>
      </trkpt>
      <trkpt lat="46.4183" lon="4.67986">
        <ele>336</ele>
      </trkpt>
      <trkpt lat="46.41831" lon="4.67973">
        <ele>335.7</ele>
      </trkpt>
      <trkpt lat="46.41833" lon="4.67957">
        <ele>335.5</ele>
      </trkpt>
      <trkpt lat="46.41837" lon="4.67941">
        <ele>335.4</ele>
      </trkpt>
      <trkpt lat="46.41841" lon="4.67922">
        <ele>335.1</ele>
      </trkpt>
      <trkpt lat="46.41846" lon="4.679">
        <ele>334.5</ele>
      </trkpt>
      <trkpt lat="46.41853" lon="4.67877">
        <ele>333.5</ele>
      </trkpt>
      <trkpt lat="46.41854" lon="4.67873">
        <ele>333.3</ele>
      </trkpt>
      <trkpt lat="46.41858" lon="4.67856">
        <ele>332.3</ele>
      </trkpt>
      <trkpt lat="46.41865" lon="4.6784">
        <ele>331.2</ele>
      </trkpt>
      <trkpt lat="46.41872" lon="4.67824">
        <ele>330.4</ele>
      </trkpt>
      <trkpt lat="46.41885" lon="4.67795">
        <ele>328.5</ele>
      </trkpt>
      <trkpt lat="46.41896" lon="4.6777">
        <ele>326.7</ele>
      </trkpt>
      <trkpt lat="46.41905" lon="4.67756">
        <ele>325.4</ele>
      </trkpt>
      <trkpt lat="46.41908" lon="4.67754">
        <ele>325.2</ele>
      </trkpt>
      <trkpt lat="46.41914" lon="4.67746">
        <ele>324.5</ele>
      </trkpt>
      <trkpt lat="46.41926" lon="4.67733">
        <ele>323.3</ele>
      </trkpt>
      <trkpt lat="46.41938" lon="4.67718">
        <ele>321.5</ele>
      </trkpt>
      <trkpt lat="46.41952" lon="4.677">
        <ele>319</ele>
      </trkpt>
      <trkpt lat="46.41953" lon="4.67698">
        <ele>318.8</ele>
      </trkpt>
      <trkpt lat="46.41963" lon="4.67682">
        <ele>316.6</ele>
      </trkpt>
      <trkpt lat="46.41973" lon="4.67663">
        <ele>314.5</ele>
      </trkpt>
      <trkpt lat="46.41977" lon="4.67655">
        <ele>313.3</ele>
      </trkpt>
      <trkpt lat="46.42006" lon="4.67593">
        <ele>306.7</ele>
      </trkpt>
      <trkpt lat="46.42035" lon="4.67536">
        <ele>299.3</ele>
      </trkpt>
      <trkpt lat="46.42043" lon="4.67519">
        <ele>297.2</ele>
      </trkpt>
      <trkpt lat="46.42048" lon="4.67508">
        <ele>295.2</ele>
      </trkpt>
      <trkpt lat="46.42068" lon="4.67468">
        <ele>290.3</ele>
      </trkpt>
      <trkpt lat="46.42084" lon="4.67439">
        <ele>284.8</ele>
      </trkpt>
      <trkpt lat="46.42088" lon="4.67431">
        <ele>284.3</ele>
      </trkpt>
      <trkpt lat="46.42093" lon="4.67423">
        <ele>283.6</ele>
      </trkpt>
      <trkpt lat="46.42094" lon="4.67419">
        <ele>283.3</ele>
      </trkpt>
      <trkpt lat="46.42105" lon="4.67399">
        <ele>281.8</ele>
      </trkpt>
      <trkpt lat="46.42117" lon="4.67378">
        <ele>280.2</ele>
      </trkpt>
      <trkpt lat="46.42122" lon="4.67368">
        <ele>279.5</ele>
      </trkpt>
      <trkpt lat="46.42125" lon="4.67358">
        <ele>278.9</ele>
      </trkpt>
      <trkpt lat="46.4213" lon="4.67344">
        <ele>278.4</ele>
      </trkpt>
      <trkpt lat="46.42132" lon="4.67335">
        <ele>278.3</ele>
      </trkpt>
      <trkpt lat="46.42133" lon="4.67331">
        <ele>278.2</ele>
      </trkpt>
      <trkpt lat="46.42135" lon="4.67323">
        <ele>278.1</ele>
      </trkpt>
      <trkpt lat="46.42136" lon="4.67316">
        <ele>278.1</ele>
      </trkpt>
      <trkpt lat="46.42141" lon="4.67308">
        <ele>277.9</ele>
      </trkpt>
      <trkpt lat="46.42148" lon="4.67298">
        <ele>277.7</ele>
      </trkpt>
      <trkpt lat="46.42157" lon="4.67289">
        <ele>277.2</ele>
      </trkpt>
      <trkpt lat="46.42168" lon="4.67277">
        <ele>276</ele>
      </trkpt>
      <trkpt lat="46.42178" lon="4.67267">
        <ele>276.3</ele>
      </trkpt>
      <trkpt lat="46.42187" lon="4.67256">
        <ele>275.9</ele>
      </trkpt>
      <trkpt lat="46.42198" lon="4.67241">
        <ele>274.7</ele>
      </trkpt>
      <trkpt lat="46.42208" lon="4.67228">
        <ele>274</ele>
      </trkpt>
      <trkpt lat="46.42217" lon="4.67215">
        <ele>273.4</ele>
      </trkpt>
      <trkpt lat="46.42226" lon="4.67201">
        <ele>272.7</ele>
      </trkpt>
      <trkpt lat="46.42237" lon="4.67182">
        <ele>272.2</ele>
      </trkpt>
      <trkpt lat="46.42245" lon="4.67168">
        <ele>271.6</ele>
      </trkpt>
      <trkpt lat="46.42248" lon="4.67164">
        <ele>271</ele>
      </trkpt>
      <trkpt lat="46.42252" lon="4.67159">
        <ele>270.3</ele>
      </trkpt>
      <trkpt lat="46.4226" lon="4.67149">
        <ele>269.4</ele>
      </trkpt>
      <trkpt lat="46.42268" lon="4.67139">
        <ele>269</ele>
      </trkpt>
      <trkpt lat="46.42273" lon="4.67132">
        <ele>268.6</ele>
      </trkpt>
      <trkpt lat="46.42277" lon="4.67128">
        <ele>268.2</ele>
      </trkpt>
      <trkpt lat="46.4228" lon="4.67123">
        <ele>267.7</ele>
      </trkpt>
      <trkpt lat="46.42288" lon="4.67115">
        <ele>266.8</ele>
      </trkpt>
      <trkpt lat="46.42298" lon="4.67101">
        <ele>265.9</ele>
      </trkpt>
      <trkpt lat="46.42308" lon="4.67087">
        <ele>265.1</ele>
      </trkpt>
      <trkpt lat="46.42315" lon="4.67076">
        <ele>264.5</ele>
      </trkpt>
      <trkpt lat="46.4232" lon="4.67066">
        <ele>263.8</ele>
      </trkpt>
      <trkpt lat="46.42324" lon="4.67058">
        <ele>263.2</ele>
      </trkpt>
      <trkpt lat="46.42328" lon="4.67049">
        <ele>262.6</ele>
      </trkpt>
      <trkpt lat="46.42332" lon="4.67037">
        <ele>261.7</ele>
      </trkpt>
      <trkpt lat="46.42338" lon="4.67021">
        <ele>261.2</ele>
      </trkpt>
      <trkpt lat="46.42344" lon="4.67006">
        <ele>261.1</ele>
      </trkpt>
      <trkpt lat="46.42349" lon="4.66992">
        <ele>261</ele>
      </trkpt>
      <trkpt lat="46.4235" lon="4.66992">
        <ele>261</ele>
      </trkpt>
      <trkpt lat="46.42356" lon="4.66979">
        <ele>260.1</ele>
      </trkpt>
      <trkpt lat="46.42364" lon="4.66964">
        <ele>259.3</ele>
      </trkpt>
      <trkpt lat="46.42374" lon="4.66948">
        <ele>259.6</ele>
      </trkpt>
      <trkpt lat="46.42387" lon="4.66934">
        <ele>258.9</ele>
      </trkpt>
      <trkpt lat="46.42394" lon="4.66922">
        <ele>257.8</ele>
      </trkpt>
      <trkpt lat="46.42415" lon="4.66934">
        <ele>259</ele>
      </trkpt>
      <trkpt lat="46.42437" lon="4.6695">
        <ele>258.5</ele>
      </trkpt>
      <trkpt lat="46.42464" lon="4.66969">
        <ele>257.6</ele>
      </trkpt>
      <trkpt lat="46.42466" lon="4.66971">
        <ele>257.4</ele>
      </trkpt>
      <trkpt lat="46.42486" lon="4.66985">
        <ele>257</ele>
      </trkpt>
      <trkpt lat="46.42496" lon="4.66993">
        <ele>256.5</ele>
      </trkpt>
      <trkpt lat="46.42513" lon="4.67005">
        <ele>255.6</ele>
      </trkpt>
      <trkpt lat="46.42525" lon="4.67014">
        <ele>255.1</ele>
      </trkpt>
      <trkpt lat="46.42541" lon="4.67023">
        <ele>254.4</ele>
      </trkpt>
      <trkpt lat="46.42548" lon="4.67028">
        <ele>253.6</ele>
      </trkpt>
      <trkpt lat="46.4255" lon="4.67015">
        <ele>254.9</ele>
      </trkpt>
      <trkpt lat="46.42552" lon="4.66997">
        <ele>256.3</ele>
      </trkpt>
      <trkpt lat="46.42553" lon="4.6699">
        <ele>255.2</ele>
      </trkpt>
      <trkpt lat="46.42554" lon="4.66983">
        <ele>254</ele>
      </trkpt>
      <trkpt lat="46.42554" lon="4.66978">
        <ele>253.2</ele>
      </trkpt>
      <trkpt lat="46.42554" lon="4.66977">
        <ele>253</ele>
      </trkpt>
      <trkpt lat="46.42556" lon="4.66957">
        <ele>251.4</ele>
      </trkpt>
      <trkpt lat="46.42556" lon="4.66955">
        <ele>251.4</ele>
      </trkpt>
      <trkpt lat="46.42559" lon="4.6693">
        <ele>251</ele>
      </trkpt>
      <trkpt lat="46.42561" lon="4.66917">
        <ele>251</ele>
      </trkpt>
      <trkpt lat="46.42562" lon="4.66909">
        <ele>250.7</ele>
      </trkpt>
      <trkpt lat="46.42565" lon="4.669">
        <ele>250.4</ele>
      </trkpt>
      <trkpt lat="46.42568" lon="4.66889">
        <ele>250</ele>
      </trkpt>
      <trkpt lat="46.42574" lon="4.66874">
        <ele>249.8</ele>
      </trkpt>
      <trkpt lat="46.42584" lon="4.66855">
        <ele>249.8</ele>
      </trkpt>
      <trkpt lat="46.42595" lon="4.66838">
        <ele>249.1</ele>
      </trkpt>
      <trkpt lat="46.42604" lon="4.66826">
        <ele>248.7</ele>
      </trkpt>
      <trkpt lat="46.42614" lon="4.66812">
        <ele>248.1</ele>
      </trkpt>
      <trkpt lat="46.42623" lon="4.66798">
        <ele>247.8</ele>
      </trkpt>
      <trkpt lat="46.42627" lon="4.66794">
        <ele>247.8</ele>
      </trkpt>
      <trkpt lat="46.42629" lon="4.6679">
        <ele>247.8</ele>
      </trkpt>
      <trkpt lat="46.42629" lon="4.66789">
        <ele>247.8</ele>
      </trkpt>
      <trkpt lat="46.42629" lon="4.66786">
        <ele>247.8</ele>
      </trkpt>
      <trkpt lat="46.42629" lon="4.66782">
        <ele>247.9</ele>
      </trkpt>
      <trkpt lat="46.42629" lon="4.66775">
        <ele>248</ele>
      </trkpt>
      <trkpt lat="46.42627" lon="4.66759">
        <ele>248</ele>
      </trkpt>
      <trkpt lat="46.42628" lon="4.66747">
        <ele>247.5</ele>
      </trkpt>
      <trkpt lat="46.4263" lon="4.66733">
        <ele>246</ele>
      </trkpt>
      <trkpt lat="46.42631" lon="4.66729">
        <ele>245.7</ele>
      </trkpt>
      <trkpt lat="46.42625" lon="4.66725">
        <ele>245.3</ele>
      </trkpt>
      <trkpt lat="46.42612" lon="4.66712">
        <ele>245.7</ele>
      </trkpt>
      <trkpt lat="46.42596" lon="4.66705">
        <ele>246.9</ele>
      </trkpt>
      <trkpt lat="46.42573" lon="4.66698">
        <ele>246.5</ele>
      </trkpt>
      <trkpt lat="46.42549" lon="4.66692">
        <ele>246.3</ele>
      </trkpt>
      <trkpt lat="46.42545" lon="4.66691">
        <ele>246.5</ele>
      </trkpt>
      <trkpt lat="46.42538" lon="4.66689">
        <ele>246.7</ele>
      </trkpt>
      <trkpt lat="46.42515" lon="4.66684">
        <ele>247.3</ele>
      </trkpt>
      <trkpt lat="46.42509" lon="4.66683">
        <ele>247.4</ele>
      </trkpt>
      <trkpt lat="46.42494" lon="4.6668">
        <ele>247.6</ele>
      </trkpt>
      <trkpt lat="46.42472" lon="4.66674">
        <ele>248</ele>
      </trkpt>
      <trkpt lat="46.42437" lon="4.66664">
        <ele>248</ele>
      </trkpt>
      <trkpt lat="46.42419" lon="4.66657">
        <ele>248</ele>
      </trkpt>
      <trkpt lat="46.42399" lon="4.66647">
        <ele>248.2</ele>
      </trkpt>
      <trkpt lat="46.42366" lon="4.66629">
        <ele>248.5</ele>
      </trkpt>
      <trkpt lat="46.4237" lon="4.66624">
        <ele>248.3</ele>
      </trkpt>
      <trkpt lat="46.42385" lon="4.66563">
        <ele>247.9</ele>
      </trkpt>
      <trkpt lat="46.42387" lon="4.66561">
        <ele>248</ele>
      </trkpt>
      <trkpt lat="46.42419" lon="4.66577">
        <ele>248</ele>
      </trkpt>
      <trkpt lat="46.42444" lon="4.6659">
        <ele>247.8</ele>
      </trkpt>
      <trkpt lat="46.42499" lon="4.66618">
        <ele>247.8</ele>
      </trkpt>
      <trkpt lat="46.42511" lon="4.66624">
        <ele>247.1</ele>
      </trkpt>
      <trkpt lat="46.42555" lon="4.66646">
        <ele>247</ele>
      </trkpt>
      <trkpt lat="46.42598" lon="4.66671">
        <ele>246</ele>
      </trkpt>
      <trkpt lat="46.42629" lon="4.6669">
        <ele>244.8</ele>
      </trkpt>
      <trkpt lat="46.42641" lon="4.66696">
        <ele>244.3</ele>
      </trkpt>
      <trkpt lat="46.42642" lon="4.6669">
        <ele>244.2</ele>
      </trkpt>
      <trkpt lat="46.42642" lon="4.66687">
        <ele>244.1</ele>
      </trkpt>
      <trkpt lat="46.42642" lon="4.66684">
        <ele>243.9</ele>
      </trkpt>
      <trkpt lat="46.42641" lon="4.6668">
        <ele>243.7</ele>
      </trkpt>
      <trkpt lat="46.42639" lon="4.66674">
        <ele>243.3</ele>
      </trkpt>
      <trkpt lat="46.42635" lon="4.66668">
        <ele>243.3</ele>
      </trkpt>
      <trkpt lat="46.42625" lon="4.66663">
        <ele>244.2</ele>
      </trkpt>
      <trkpt lat="46.42623" lon="4.66662">
        <ele>244.3</ele>
      </trkpt>
      <trkpt lat="46.42591" lon="4.66648">
        <ele>245.5</ele>
      </trkpt>
      <trkpt lat="46.42574" lon="4.6664">
        <ele>245.8</ele>
      </trkpt>
      <trkpt lat="46.42569" lon="4.66635">
        <ele>245.9</ele>
      </trkpt>
      <trkpt lat="46.42567" lon="4.66631">
        <ele>245.8</ele>
      </trkpt>
      <trkpt lat="46.42565" lon="4.66624">
        <ele>245.6</ele>
      </trkpt>
      <trkpt lat="46.42574" lon="4.66626">
        <ele>245.4</ele>
      </trkpt>
      <trkpt lat="46.4258" lon="4.66627">
        <ele>245.1</ele>
      </trkpt>
      <trkpt lat="46.42589" lon="4.66623">
        <ele>245.1</ele>
      </trkpt>
      <trkpt lat="46.42601" lon="4.66616">
        <ele>245.5</ele>
      </trkpt>
      <trkpt lat="46.42607" lon="4.66613">
        <ele>245.8</ele>
      </trkpt>
      <trkpt lat="46.42612" lon="4.66611">
        <ele>246</ele>
      </trkpt>
      <trkpt lat="46.42616" lon="4.6661">
        <ele>245.8</ele>
      </trkpt>
      <trkpt lat="46.42621" lon="4.66609">
        <ele>245.6</ele>
      </trkpt>
      <trkpt lat="46.42628" lon="4.66608">
        <ele>245.4</ele>
      </trkpt>
      <trkpt lat="46.42638" lon="4.6661">
        <ele>245</ele>
      </trkpt>
      <trkpt lat="46.42651" lon="4.66614">
        <ele>245.1</ele>
      </trkpt>
      <trkpt lat="46.42666" lon="4.6662">
        <ele>245</ele>
      </trkpt>
      <trkpt lat="46.42684" lon="4.6663">
        <ele>244.8</ele>
      </trkpt>
      <trkpt lat="46.42689" lon="4.66634">
        <ele>244.8</ele>
      </trkpt>
      <trkpt lat="46.4272" lon="4.66654">
        <ele>244.6</ele>
      </trkpt>
      <trkpt lat="46.42742" lon="4.66668">
        <ele>244.3</ele>
      </trkpt>
      <trkpt lat="46.4276" lon="4.66677">
        <ele>244.4</ele>
      </trkpt>
      <trkpt lat="46.42765" lon="4.66679">
        <ele>244.4</ele>
      </trkpt>
      <trkpt lat="46.42783" lon="4.66687">
        <ele>244.6</ele>
      </trkpt>
      <trkpt lat="46.42819" lon="4.66702">
        <ele>244.4</ele>
      </trkpt>
      <trkpt lat="46.42856" lon="4.66719">
        <ele>244.2</ele>
      </trkpt>
      <trkpt lat="46.42876" lon="4.66729">
        <ele>243.8</ele>
      </trkpt>
      <trkpt lat="46.4291" lon="4.66744">
        <ele>243.2</ele>
      </trkpt>
      <trkpt lat="46.42936" lon="4.66756">
        <ele>243.3</ele>
      </trkpt>
      <trkpt lat="46.42938" lon="4.66757">
        <ele>243.3</ele>
      </trkpt>
      <trkpt lat="46.42951" lon="4.66763">
        <ele>243.2</ele>
      </trkpt>
      <trkpt lat="46.42961" lon="4.66766">
        <ele>243</ele>
      </trkpt>
      <trkpt lat="46.42975" lon="4.66769">
        <ele>242.5</ele>
      </trkpt>
      <trkpt lat="46.42984" lon="4.66771">
        <ele>242</ele>
      </trkpt>
      <trkpt lat="46.42994" lon="4.66773">
        <ele>241.4</ele>
      </trkpt>
      <trkpt lat="46.43001" lon="4.66774">
        <ele>241</ele>
      </trkpt>
      <trkpt lat="46.43011" lon="4.66774">
        <ele>240.6</ele>
      </trkpt>
      <trkpt lat="46.43016" lon="4.66773">
        <ele>240.4</ele>
      </trkpt>
      <trkpt lat="46.43023" lon="4.66772">
        <ele>240.2</ele>
      </trkpt>
      <trkpt lat="46.43036" lon="4.66766">
        <ele>239.9</ele>
      </trkpt>
      <trkpt lat="46.43051" lon="4.6676">
        <ele>239.5</ele>
      </trkpt>
      <trkpt lat="46.43055" lon="4.66759">
        <ele>239.3</ele>
      </trkpt>
      <trkpt lat="46.43056" lon="4.66758">
        <ele>239.3</ele>
      </trkpt>
      <trkpt lat="46.43066" lon="4.66756">
        <ele>239.1</ele>
      </trkpt>
      <trkpt lat="46.4308" lon="4.66753">
        <ele>239</ele>
      </trkpt>
      <trkpt lat="46.43087" lon="4.66752">
        <ele>238.9</ele>
      </trkpt>
      <trkpt lat="46.43112" lon="4.66751">
        <ele>238</ele>
      </trkpt>
      <trkpt lat="46.43126" lon="4.6675">
        <ele>238</ele>
      </trkpt>
      <trkpt lat="46.43156" lon="4.66748">
        <ele>237.9</ele>
      </trkpt>
      <trkpt lat="46.43199" lon="4.66744">
        <ele>237.1</ele>
      </trkpt>
      <trkpt lat="46.43228" lon="4.66742">
        <ele>237.6</ele>
      </trkpt>
      <trkpt lat="46.43235" lon="4.66742">
        <ele>237.4</ele>
      </trkpt>
      <trkpt lat="46.4324" lon="4.66742">
        <ele>237.3</ele>
      </trkpt>
      <trkpt lat="46.43241" lon="4.6671">
        <ele>237</ele>
      </trkpt>
      <trkpt lat="46.43241" lon="4.66665">
        <ele>236.7</ele>
      </trkpt>
      <trkpt lat="46.43241" lon="4.66651">
        <ele>236.7</ele>
      </trkpt>
      <trkpt lat="46.4324" lon="4.66627">
        <ele>236.4</ele>
      </trkpt>
      <trkpt lat="46.43237" lon="4.66584">
        <ele>236</ele>
      </trkpt>
      <trkpt lat="46.43235" lon="4.66558">
        <ele>236.4</ele>
      </trkpt>
      <trkpt lat="46.43233" lon="4.66542">
        <ele>236.2</ele>
      </trkpt>
      <trkpt lat="46.43231" lon="4.66505">
        <ele>236</ele>
      </trkpt>
      <trkpt lat="46.4323" lon="4.66499">
        <ele>236</ele>
      </trkpt>
      <trkpt lat="46.43226" lon="4.6646">
        <ele>236.3</ele>
      </trkpt>
      <trkpt lat="46.43224" lon="4.66446">
        <ele>236.8</ele>
      </trkpt>
      <trkpt lat="46.43222" lon="4.66437">
        <ele>236</ele>
      </trkpt>
      <trkpt lat="46.43223" lon="4.66404">
        <ele>234.8</ele>
      </trkpt>
      <trkpt lat="46.43222" lon="4.66391">
        <ele>236.7</ele>
      </trkpt>
      <trkpt lat="46.43228" lon="4.66392">
        <ele>236.5</ele>
      </trkpt>
      <trkpt lat="46.43237" lon="4.66395">
        <ele>236.1</ele>
      </trkpt>
      <trkpt lat="46.43252" lon="4.66399">
        <ele>235.6</ele>
      </trkpt>
      <trkpt lat="46.43269" lon="4.66403">
        <ele>235.4</ele>
      </trkpt>
      <trkpt lat="46.43288" lon="4.66406">
        <ele>235.5</ele>
      </trkpt>
      <trkpt lat="46.43298" lon="4.66407">
        <ele>235.7</ele>
      </trkpt>
      <trkpt lat="46.43298" lon="4.66401">
        <ele>235.9</ele>
      </trkpt>
      <trkpt lat="46.43299" lon="4.66396">
        <ele>236.1</ele>
      </trkpt>
      <trkpt lat="46.43302" lon="4.66377">
        <ele>236.1</ele>
      </trkpt>
      <trkpt lat="46.43311" lon="4.66343">
        <ele>235.8</ele>
      </trkpt>
      <trkpt lat="46.43313" lon="4.66336">
        <ele>235.7</ele>
      </trkpt>
      <trkpt lat="46.43317" lon="4.66318">
        <ele>235.6</ele>
      </trkpt>
      <trkpt lat="46.43325" lon="4.66286">
        <ele>235.3</ele>
      </trkpt>
      <trkpt lat="46.43334" lon="4.6625">
        <ele>236</ele>
      </trkpt>
      <trkpt lat="46.43337" lon="4.66234">
        <ele>236</ele>
      </trkpt>
      <trkpt lat="46.4338" lon="4.66248">
        <ele>236</ele>
      </trkpt>
      <trkpt lat="46.43416" lon="4.66264">
        <ele>236</ele>
      </trkpt>
      <trkpt lat="46.43428" lon="4.66269">
        <ele>235.7</ele>
      </trkpt>
      <trkpt lat="46.43442" lon="4.66274">
        <ele>235.3</ele>
      </trkpt>
      <trkpt lat="46.43472" lon="4.66285">
        <ele>236.5</ele>
      </trkpt>
      <trkpt lat="46.43497" lon="4.66297">
        <ele>236.2</ele>
      </trkpt>
      <trkpt lat="46.43512" lon="4.66307">
        <ele>235.9</ele>
      </trkpt>
      <trkpt lat="46.43516" lon="4.66313">
        <ele>235.8</ele>
      </trkpt>
      <trkpt lat="46.43519" lon="4.66319">
        <ele>235.5</ele>
      </trkpt>
      <trkpt lat="46.43522" lon="4.66331">
        <ele>235.1</ele>
      </trkpt>
      <trkpt lat="46.43523" lon="4.66342">
        <ele>235</ele>
      </trkpt>
      <trkpt lat="46.43521" lon="4.66353">
        <ele>235</ele>
      </trkpt>
      <trkpt lat="46.43516" lon="4.66367">
        <ele>235</ele>
      </trkpt>
      <trkpt lat="46.43512" lon="4.66375">
        <ele>235</ele>
      </trkpt>
      <trkpt lat="46.43502" lon="4.66386">
        <ele>235</ele>
      </trkpt>
      <trkpt lat="46.43499" lon="4.66387">
        <ele>235</ele>
      </trkpt>
      <trkpt lat="46.43496" lon="4.66388">
        <ele>235</ele>
      </trkpt>
      <trkpt lat="46.43492" lon="4.66389">
        <ele>235</ele>
      </trkpt>
      <trkpt lat="46.43482" lon="4.66392">
        <ele>234.9</ele>
      </trkpt>
      <trkpt lat="46.4346" lon="4.66397">
        <ele>235.1</ele>
      </trkpt>
      <trkpt lat="46.43486" lon="4.66433">
        <ele>234.6</ele>
      </trkpt>
      <trkpt lat="46.43483" lon="4.66436">
        <ele>234.9</ele>
      </trkpt>
      <trkpt lat="46.43483" lon="4.66467">
        <ele>235.3</ele>
      </trkpt>
      <trkpt lat="46.4347" lon="4.66505">
        <ele>235.4</ele>
      </trkpt>
      <trkpt lat="46.43457" lon="4.66538">
        <ele>234.4</ele>
      </trkpt>
      <trkpt lat="46.43443" lon="4.66578">
        <ele>235</ele>
      </trkpt>
      <trkpt lat="46.43484" lon="4.66585">
        <ele>235</ele>
      </trkpt>
      <trkpt lat="46.43502" lon="4.66588">
        <ele>234.9</ele>
      </trkpt>
      <trkpt lat="46.43514" lon="4.66593">
        <ele>234.4</ele>
      </trkpt>
      <trkpt lat="46.43524" lon="4.66597">
        <ele>234.1</ele>
      </trkpt>
      <trkpt lat="46.43536" lon="4.66604">
        <ele>234.6</ele>
      </trkpt>
      <trkpt lat="46.43552" lon="4.66608">
        <ele>235</ele>
      </trkpt>
      <trkpt lat="46.43567" lon="4.66611">
        <ele>234.6</ele>
      </trkpt>
      <trkpt lat="46.43583" lon="4.66612">
        <ele>234</ele>
      </trkpt>
      <trkpt lat="46.43588" lon="4.66611">
        <ele>234.1</ele>
      </trkpt>
      <trkpt lat="46.43599" lon="4.66611">
        <ele>234.6</ele>
      </trkpt>
      <trkpt lat="46.43612" lon="4.66612">
        <ele>235</ele>
      </trkpt>
      <trkpt lat="46.43625" lon="4.66615">
        <ele>234.9</ele>
      </trkpt>
      <trkpt lat="46.43637" lon="4.66621">
        <ele>235</ele>
      </trkpt>
      <trkpt lat="46.43646" lon="4.66626">
        <ele>234.7</ele>
      </trkpt>
      <trkpt lat="46.43669" lon="4.66641">
        <ele>234.1</ele>
      </trkpt>
      <trkpt lat="46.43688" lon="4.66657">
        <ele>234.6</ele>
      </trkpt>
      <trkpt lat="46.43716" lon="4.66682">
        <ele>234.8</ele>
      </trkpt>
      <trkpt lat="46.43733" lon="4.66701">
        <ele>234.4</ele>
      </trkpt>
      <trkpt lat="46.43745" lon="4.66715">
        <ele>234.1</ele>
      </trkpt>
      <trkpt lat="46.43752" lon="4.66723">
        <ele>233.9</ele>
      </trkpt>
      <trkpt lat="46.43757" lon="4.66728">
        <ele>233.8</ele>
      </trkpt>
      <trkpt lat="46.4376" lon="4.66731">
        <ele>233.8</ele>
      </trkpt>
      <trkpt lat="46.43772" lon="4.66741">
        <ele>234.2</ele>
      </trkpt>
      <trkpt lat="46.43787" lon="4.66752">
        <ele>234.4</ele>
      </trkpt>
      <trkpt lat="46.43809" lon="4.66764">
        <ele>233.9</ele>
      </trkpt>
      <trkpt lat="46.43843" lon="4.6678">
        <ele>233.8</ele>
      </trkpt>
      <trkpt lat="46.43877" lon="4.66796">
        <ele>234.3</ele>
      </trkpt>
      <trkpt lat="46.43907" lon="4.6681">
        <ele>233.9</ele>
      </trkpt>
      <trkpt lat="46.43912" lon="4.66814">
        <ele>233.8</ele>
      </trkpt>
      <trkpt lat="46.43916" lon="4.6682">
        <ele>234</ele>
      </trkpt>
      <trkpt lat="46.4392" lon="4.66827">
        <ele>234.5</ele>
      </trkpt>
      <trkpt lat="46.43923" lon="4.66839">
        <ele>235.2</ele>
      </trkpt>
      <trkpt lat="46.43926" lon="4.66847">
        <ele>235.3</ele>
      </trkpt>
      <trkpt lat="46.43933" lon="4.66857">
        <ele>235.4</ele>
      </trkpt>
      <trkpt lat="46.43942" lon="4.66869">
        <ele>235.3</ele>
      </trkpt>
      <trkpt lat="46.43956" lon="4.66882">
        <ele>235.1</ele>
      </trkpt>
      <trkpt lat="46.43965" lon="4.66889">
        <ele>234.5</ele>
      </trkpt>
      <trkpt lat="46.43975" lon="4.66894">
        <ele>234.2</ele>
      </trkpt>
      <trkpt lat="46.43986" lon="4.66899">
        <ele>234.4</ele>
      </trkpt>
      <trkpt lat="46.43991" lon="4.66901">
        <ele>234.4</ele>
      </trkpt>
      <trkpt lat="46.43995" lon="4.66904">
        <ele>234.5</ele>
      </trkpt>
      <trkpt lat="46.43996" lon="4.66906">
        <ele>234.6</ele>
      </trkpt>
      <trkpt lat="46.43999" lon="4.66909">
        <ele>234.7</ele>
      </trkpt>
      <trkpt lat="46.44012" lon="4.66936">
        <ele>235.4</ele>
      </trkpt>
      <trkpt lat="46.44042" lon="4.67003">
        <ele>236.5</ele>
      </trkpt>
      <trkpt lat="46.44062" lon="4.67042">
        <ele>236.4</ele>
      </trkpt>
      <trkpt lat="46.44101" lon="4.6711">
        <ele>237.4</ele>
      </trkpt>
      <trkpt lat="46.44112" lon="4.67131">
        <ele>237.7</ele>
      </trkpt>
      <trkpt lat="46.44118" lon="4.67145">
        <ele>238.1</ele>
      </trkpt>
      <trkpt lat="46.44121" lon="4.67155">
        <ele>238.9</ele>
      </trkpt>
      <trkpt lat="46.44124" lon="4.67173">
        <ele>241.5</ele>
      </trkpt>
      <trkpt lat="46.44126" lon="4.67194">
        <ele>246.4</ele>
      </trkpt>
      <trkpt lat="46.44128" lon="4.6721">
        <ele>243</ele>
      </trkpt>
      <trkpt lat="46.44131" lon="4.67216">
        <ele>241.6</ele>
      </trkpt>
      <trkpt lat="46.44141" lon="4.67219">
        <ele>240.7</ele>
      </trkpt>
      <trkpt lat="46.442" lon="4.67207">
        <ele>240.4</ele>
      </trkpt>
      <trkpt lat="46.4423" lon="4.67197">
        <ele>239.8</ele>
      </trkpt>
      <trkpt lat="46.4427" lon="4.67187">
        <ele>240.3</ele>
      </trkpt>
      <trkpt lat="46.44311" lon="4.67174">
        <ele>241.2</ele>
      </trkpt>
      <trkpt lat="46.44319" lon="4.67173">
        <ele>241.1</ele>
      </trkpt>
      <trkpt lat="46.44324" lon="4.67174">
        <ele>241.1</ele>
      </trkpt>
      <trkpt lat="46.44342" lon="4.67158">
        <ele>242.7</ele>
      </trkpt>
      <trkpt lat="46.44387" lon="4.67149">
        <ele>244</ele>
      </trkpt>
      <trkpt lat="46.44507" lon="4.67125">
        <ele>246.8</ele>
      </trkpt>
      <trkpt lat="46.44558" lon="4.6714">
        <ele>245.1</ele>
      </trkpt>
      <trkpt lat="46.44594" lon="4.67154">
        <ele>245.4</ele>
      </trkpt>
      <trkpt lat="46.44752" lon="4.67235">
        <ele>245.6</ele>
      </trkpt>
      <trkpt lat="46.44801" lon="4.67261">
        <ele>246.5</ele>
      </trkpt>
      <trkpt lat="46.44843" lon="4.67274">
        <ele>243.9</ele>
      </trkpt>
      <trkpt lat="46.449" lon="4.67275">
        <ele>242.7</ele>
      </trkpt>
      <trkpt lat="46.4492" lon="4.67279">
        <ele>242.3</ele>
      </trkpt>
      <trkpt lat="46.44934" lon="4.67284">
        <ele>243.3</ele>
      </trkpt>
      <trkpt lat="46.44953" lon="4.67293">
        <ele>243.5</ele>
      </trkpt>
      <trkpt lat="46.44974" lon="4.67308">
        <ele>242.7</ele>
      </trkpt>
      <trkpt lat="46.44986" lon="4.6732">
        <ele>244.8</ele>
      </trkpt>
      <trkpt lat="46.44994" lon="4.67329">
        <ele>244.2</ele>
      </trkpt>
      <trkpt lat="46.45002" lon="4.67335">
        <ele>243.3</ele>
      </trkpt>
      <trkpt lat="46.45012" lon="4.67344">
        <ele>243.9</ele>
      </trkpt>
      <trkpt lat="46.45016" lon="4.67348">
        <ele>243.9</ele>
      </trkpt>
      <trkpt lat="46.45052" lon="4.67365">
        <ele>242.8</ele>
      </trkpt>
      <trkpt lat="46.45081" lon="4.67376">
        <ele>242.6</ele>
      </trkpt>
      <trkpt lat="46.45085" lon="4.67377">
        <ele>242.5</ele>
      </trkpt>
      <trkpt lat="46.45169" lon="4.67408">
        <ele>241.5</ele>
      </trkpt>
      <trkpt lat="46.45218" lon="4.67423">
        <ele>240.5</ele>
      </trkpt>
      <trkpt lat="46.45284" lon="4.67448">
        <ele>239.2</ele>
      </trkpt>
      <trkpt lat="46.4532" lon="4.67458">
        <ele>238.7</ele>
      </trkpt>
      <trkpt lat="46.45324" lon="4.67459">
        <ele>238.7</ele>
      </trkpt>
      <trkpt lat="46.45368" lon="4.67465">
        <ele>237.7</ele>
      </trkpt>
      <trkpt lat="46.45493" lon="4.67468">
        <ele>235.8</ele>
      </trkpt>
      <trkpt lat="46.45505" lon="4.67469">
        <ele>235.8</ele>
      </trkpt>
      <trkpt lat="46.45505" lon="4.67477">
        <ele>235.8</ele>
      </trkpt>
      <trkpt lat="46.45506" lon="4.67491">
        <ele>235.3</ele>
      </trkpt>
      <trkpt lat="46.45512" lon="4.67523">
        <ele>235.4</ele>
      </trkpt>
      <trkpt lat="46.45514" lon="4.67538">
        <ele>236.1</ele>
      </trkpt>
      <trkpt lat="46.45515" lon="4.67554">
        <ele>236.9</ele>
      </trkpt>
      <trkpt lat="46.45518" lon="4.6756">
        <ele>237.3</ele>
      </trkpt>
      <trkpt lat="46.45524" lon="4.67578">
        <ele>238.6</ele>
      </trkpt>
      <trkpt lat="46.45526" lon="4.67593">
        <ele>239.7</ele>
      </trkpt>
      <trkpt lat="46.45525" lon="4.67608">
        <ele>240.8</ele>
      </trkpt>
      <trkpt lat="46.45524" lon="4.67615">
        <ele>241.1</ele>
      </trkpt>
      <trkpt lat="46.45522" lon="4.67632">
        <ele>241.8</ele>
      </trkpt>
      <trkpt lat="46.45521" lon="4.67647">
        <ele>242.6</ele>
      </trkpt>
      <trkpt lat="46.45523" lon="4.67655">
        <ele>243.1</ele>
      </trkpt>
      <trkpt lat="46.45525" lon="4.67663">
        <ele>243.8</ele>
      </trkpt>
      <trkpt lat="46.45529" lon="4.67683">
        <ele>244.6</ele>
      </trkpt>
      <trkpt lat="46.45532" lon="4.677">
        <ele>245.4</ele>
      </trkpt>
      <trkpt lat="46.45534" lon="4.67714">
        <ele>246.4</ele>
      </trkpt>
      <trkpt lat="46.45535" lon="4.67727">
        <ele>247.2</ele>
      </trkpt>
      <trkpt lat="46.45535" lon="4.67738">
        <ele>247.7</ele>
      </trkpt>
      <trkpt lat="46.45534" lon="4.67745">
        <ele>248</ele>
      </trkpt>
      <trkpt lat="46.45531" lon="4.67755">
        <ele>248.4</ele>
      </trkpt>
      <trkpt lat="46.45528" lon="4.67762">
        <ele>248.9</ele>
      </trkpt>
      <trkpt lat="46.45523" lon="4.6777">
        <ele>249.4</ele>
      </trkpt>
      <trkpt lat="46.45511" lon="4.67789">
        <ele>250.4</ele>
      </trkpt>
      <trkpt lat="46.45485" lon="4.6783">
        <ele>252.3</ele>
      </trkpt>
      <trkpt lat="46.45442" lon="4.67917">
        <ele>256</ele>
      </trkpt>
      <trkpt lat="46.45381" lon="4.68028">
        <ele>259.3</ele>
      </trkpt>
      <trkpt lat="46.45353" lon="4.68091">
        <ele>261.5</ele>
      </trkpt>
      <trkpt lat="46.45339" lon="4.68126">
        <ele>262.6</ele>
      </trkpt>
      <trkpt lat="46.45326" lon="4.68171">
        <ele>264.6</ele>
      </trkpt>
      <trkpt lat="46.45318" lon="4.68192">
        <ele>266.4</ele>
      </trkpt>
      <trkpt lat="46.45298" lon="4.68229">
        <ele>267.7</ele>
      </trkpt>
      <trkpt lat="46.45255" lon="4.68281">
        <ele>271.1</ele>
      </trkpt>
      <trkpt lat="46.45217" lon="4.68332">
        <ele>272.9</ele>
      </trkpt>
      <trkpt lat="46.45196" lon="4.68368">
        <ele>274.2</ele>
      </trkpt>
      <trkpt lat="46.45184" lon="4.68383">
        <ele>274.8</ele>
      </trkpt>
      <trkpt lat="46.45176" lon="4.6839">
        <ele>275</ele>
      </trkpt>
      <trkpt lat="46.45158" lon="4.68404">
        <ele>275</ele>
      </trkpt>
      <trkpt lat="46.45137" lon="4.6842">
        <ele>275.1</ele>
      </trkpt>
      <trkpt lat="46.45118" lon="4.68437">
        <ele>275.2</ele>
      </trkpt>
      <trkpt lat="46.45101" lon="4.68446">
        <ele>275.3</ele>
      </trkpt>
      <trkpt lat="46.45093" lon="4.68449">
        <ele>275.5</ele>
      </trkpt>
      <trkpt lat="46.45083" lon="4.68453">
        <ele>275.7</ele>
      </trkpt>
      <trkpt lat="46.45067" lon="4.68458">
        <ele>276.1</ele>
      </trkpt>
      <trkpt lat="46.45058" lon="4.68462">
        <ele>276.3</ele>
      </trkpt>
      <trkpt lat="46.45048" lon="4.68469">
        <ele>276.4</ele>
      </trkpt>
      <trkpt lat="46.45029" lon="4.68483">
        <ele>276.6</ele>
      </trkpt>
      <trkpt lat="46.44992" lon="4.6851">
        <ele>277.5</ele>
      </trkpt>
      <trkpt lat="46.44981" lon="4.68521">
        <ele>277.8</ele>
      </trkpt>
      <trkpt lat="46.44973" lon="4.68533">
        <ele>278</ele>
      </trkpt>
      <trkpt lat="46.44946" lon="4.68587">
        <ele>277.8</ele>
      </trkpt>
      <trkpt lat="46.44926" lon="4.68632">
        <ele>276</ele>
      </trkpt>
      <trkpt lat="46.4492" lon="4.68645">
        <ele>275.7</ele>
      </trkpt>
      <trkpt lat="46.44909" lon="4.6866">
        <ele>275.5</ele>
      </trkpt>
      <trkpt lat="46.44899" lon="4.68675">
        <ele>275.3</ele>
      </trkpt>
      <trkpt lat="46.44897" lon="4.68685">
        <ele>275.1</ele>
      </trkpt>
      <trkpt lat="46.44895" lon="4.68697">
        <ele>274.8</ele>
      </trkpt>
      <trkpt lat="46.44894" lon="4.6871">
        <ele>274.9</ele>
      </trkpt>
      <trkpt lat="46.44892" lon="4.68724">
        <ele>275.1</ele>
      </trkpt>
      <trkpt lat="46.44888" lon="4.68737">
        <ele>275.6</ele>
      </trkpt>
      <trkpt lat="46.44898" lon="4.68751">
        <ele>275.7</ele>
      </trkpt>
      <trkpt lat="46.44902" lon="4.68757">
        <ele>275.8</ele>
      </trkpt>
      <trkpt lat="46.44925" lon="4.688">
        <ele>276.6</ele>
      </trkpt>
      <trkpt lat="46.44936" lon="4.6882">
        <ele>276.8</ele>
      </trkpt>
      <trkpt lat="46.44926" lon="4.68827">
        <ele>277.4</ele>
      </trkpt>
      <trkpt lat="46.44916" lon="4.68835">
        <ele>278.1</ele>
      </trkpt>
      <trkpt lat="46.44919" lon="4.68852">
        <ele>278.6</ele>
      </trkpt>
      <trkpt lat="46.4492" lon="4.68898">
        <ele>280.2</ele>
      </trkpt>
      <trkpt lat="46.44927" lon="4.6895">
        <ele>282.9</ele>
      </trkpt>
      <trkpt lat="46.44925" lon="4.68995">
        <ele>284.8</ele>
      </trkpt>
      <trkpt lat="46.44934" lon="4.69058">
        <ele>288.1</ele>
      </trkpt>
      <trkpt lat="46.44933" lon="4.69127">
        <ele>290.6</ele>
      </trkpt>
      <trkpt lat="46.44934" lon="4.69175">
        <ele>292.7</ele>
      </trkpt>
      <trkpt lat="46.44947" lon="4.69251">
        <ele>296</ele>
      </trkpt>
      <trkpt lat="46.44952" lon="4.69281">
        <ele>296.9</ele>
      </trkpt>
      <trkpt lat="46.44952" lon="4.69305">
        <ele>298</ele>
      </trkpt>
      <trkpt lat="46.44968" lon="4.69401">
        <ele>302.6</ele>
      </trkpt>
      <trkpt lat="46.44956" lon="4.69467">
        <ele>306.4</ele>
      </trkpt>
      <trkpt lat="46.44943" lon="4.69493">
        <ele>307.8</ele>
      </trkpt>
      <trkpt lat="46.44942" lon="4.69587">
        <ele>313.3</ele>
      </trkpt>
      <trkpt lat="46.44959" lon="4.69665">
        <ele>318.3</ele>
      </trkpt>
      <trkpt lat="46.44961" lon="4.69693">
        <ele>320.3</ele>
      </trkpt>
      <trkpt lat="46.44967" lon="4.69727">
        <ele>322.4</ele>
      </trkpt>
      <trkpt lat="46.44984" lon="4.69834">
        <ele>331.7</ele>
      </trkpt>
      <trkpt lat="46.44995" lon="4.69854">
        <ele>333.4</ele>
      </trkpt>
      <trkpt lat="46.45003" lon="4.69864">
        <ele>334.2</ele>
      </trkpt>
      <trkpt lat="46.45017" lon="4.69881">
        <ele>335.5</ele>
      </trkpt>
      <trkpt lat="46.45026" lon="4.69893">
        <ele>336.7</ele>
      </trkpt>
      <trkpt lat="46.45038" lon="4.69908">
        <ele>338.4</ele>
      </trkpt>
      <trkpt lat="46.45048" lon="4.6992">
        <ele>339.9</ele>
      </trkpt>
      <trkpt lat="46.45056" lon="4.69926">
        <ele>340.6</ele>
      </trkpt>
      <trkpt lat="46.45069" lon="4.69932">
        <ele>340.8</ele>
      </trkpt>
      <trkpt lat="46.45086" lon="4.69937">
        <ele>340.6</ele>
      </trkpt>
      <trkpt lat="46.45104" lon="4.69941">
        <ele>340.6</ele>
      </trkpt>
      <trkpt lat="46.45109" lon="4.69939">
        <ele>340.1</ele>
      </trkpt>
      <trkpt lat="46.45115" lon="4.6994">
        <ele>340</ele>
      </trkpt>
      <trkpt lat="46.4512" lon="4.69939">
        <ele>339.8</ele>
      </trkpt>
      <trkpt lat="46.4513" lon="4.69939">
        <ele>339.4</ele>
      </trkpt>
      <trkpt lat="46.45134" lon="4.6994">
        <ele>339.3</ele>
      </trkpt>
      <trkpt lat="46.45172" lon="4.69945">
        <ele>338.1</ele>
      </trkpt>
      <trkpt lat="46.45228" lon="4.6995">
        <ele>337.5</ele>
      </trkpt>
      <trkpt lat="46.45235" lon="4.69951">
        <ele>337.3</ele>
      </trkpt>
      <trkpt lat="46.45239" lon="4.6995">
        <ele>337.1</ele>
      </trkpt>
      <trkpt lat="46.45235" lon="4.69963">
        <ele>337.8</ele>
      </trkpt>
      <trkpt lat="46.45218" lon="4.7">
        <ele>343.2</ele>
      </trkpt>
      <trkpt lat="46.45191" lon="4.70057">
        <ele>351.5</ele>
      </trkpt>
      <trkpt lat="46.45168" lon="4.7011">
        <ele>359.7</ele>
      </trkpt>
      <trkpt lat="46.45151" lon="4.70143">
        <ele>364.5</ele>
      </trkpt>
      <trkpt lat="46.45138" lon="4.70186">
        <ele>369</ele>
      </trkpt>
      <trkpt lat="46.4513" lon="4.70211">
        <ele>371.9</ele>
      </trkpt>
      <trkpt lat="46.45126" lon="4.70225">
        <ele>374</ele>
      </trkpt>
      <trkpt lat="46.45123" lon="4.70252">
        <ele>376.8</ele>
      </trkpt>
      <trkpt lat="46.45122" lon="4.70265">
        <ele>378.3</ele>
      </trkpt>
      <trkpt lat="46.45123" lon="4.70286">
        <ele>380.2</ele>
      </trkpt>
      <trkpt lat="46.45125" lon="4.70307">
        <ele>381.8</ele>
      </trkpt>
      <trkpt lat="46.45126" lon="4.70333">
        <ele>383.1</ele>
      </trkpt>
      <trkpt lat="46.45131" lon="4.70383">
        <ele>384.9</ele>
      </trkpt>
      <trkpt lat="46.45132" lon="4.70396">
        <ele>385.1</ele>
      </trkpt>
      <trkpt lat="46.45131" lon="4.7041">
        <ele>385.8</ele>
      </trkpt>
      <trkpt lat="46.45132" lon="4.70422">
        <ele>386</ele>
      </trkpt>
      <trkpt lat="46.45131" lon="4.70438">
        <ele>386.3</ele>
      </trkpt>
      <trkpt lat="46.45129" lon="4.70454">
        <ele>387.6</ele>
      </trkpt>
      <trkpt lat="46.45114" lon="4.70525">
        <ele>394.2</ele>
      </trkpt>
      <trkpt lat="46.451" lon="4.70566">
        <ele>398.3</ele>
      </trkpt>
      <trkpt lat="46.45085" lon="4.70609">
        <ele>399.9</ele>
      </trkpt>
      <trkpt lat="46.45068" lon="4.70652">
        <ele>403.1</ele>
      </trkpt>
      <trkpt lat="46.45047" lon="4.7069">
        <ele>405.4</ele>
      </trkpt>
      <trkpt lat="46.45033" lon="4.70714">
        <ele>406.1</ele>
      </trkpt>
      <trkpt lat="46.4502" lon="4.70734">
        <ele>407.1</ele>
      </trkpt>
      <trkpt lat="46.45004" lon="4.70752">
        <ele>408.8</ele>
      </trkpt>
      <trkpt lat="46.44979" lon="4.70774">
        <ele>411.5</ele>
      </trkpt>
      <trkpt lat="46.44956" lon="4.70792">
        <ele>413.7</ele>
      </trkpt>
      <trkpt lat="46.44948" lon="4.70799">
        <ele>414.5</ele>
      </trkpt>
      <trkpt lat="46.44934" lon="4.70814">
        <ele>415.7</ele>
      </trkpt>
      <trkpt lat="46.44919" lon="4.70834">
        <ele>416.9</ele>
      </trkpt>
      <trkpt lat="46.44912" lon="4.70847">
        <ele>417.7</ele>
      </trkpt>
      <trkpt lat="46.4491" lon="4.70855">
        <ele>418.2</ele>
      </trkpt>
      <trkpt lat="46.44909" lon="4.70867">
        <ele>419</ele>
      </trkpt>
      <trkpt lat="46.44907" lon="4.70877">
        <ele>419.8</ele>
      </trkpt>
      <trkpt lat="46.44904" lon="4.7089">
        <ele>421</ele>
      </trkpt>
      <trkpt lat="46.44898" lon="4.70905">
        <ele>422.9</ele>
      </trkpt>
      <trkpt lat="46.44895" lon="4.70912">
        <ele>423.9</ele>
      </trkpt>
      <trkpt lat="46.44894" lon="4.70918">
        <ele>424.6</ele>
      </trkpt>
      <trkpt lat="46.44893" lon="4.70925">
        <ele>425.5</ele>
      </trkpt>
      <trkpt lat="46.44893" lon="4.70933">
        <ele>426.4</ele>
      </trkpt>
      <trkpt lat="46.44893" lon="4.70946">
        <ele>427.7</ele>
      </trkpt>
      <trkpt lat="46.44897" lon="4.70949">
        <ele>427.6</ele>
      </trkpt>
      <trkpt lat="46.44901" lon="4.70953">
        <ele>427.6</ele>
      </trkpt>
      <trkpt lat="46.44913" lon="4.70968">
        <ele>428</ele>
      </trkpt>
      <trkpt lat="46.44935" lon="4.71001">
        <ele>431.5</ele>
      </trkpt>
      <trkpt lat="46.44964" lon="4.71043">
        <ele>435.6</ele>
      </trkpt>
      <trkpt lat="46.44983" lon="4.71067">
        <ele>438.3</ele>
      </trkpt>
      <trkpt lat="46.44995" lon="4.71084">
        <ele>439.2</ele>
      </trkpt>
      <trkpt lat="46.45007" lon="4.71096">
        <ele>440.3</ele>
      </trkpt>
      <trkpt lat="46.45031" lon="4.71114">
        <ele>442.1</ele>
      </trkpt>
      <trkpt lat="46.45039" lon="4.71121">
        <ele>442.3</ele>
      </trkpt>
      <trkpt lat="46.45046" lon="4.71128">
        <ele>442.5</ele>
      </trkpt>
      <trkpt lat="46.45055" lon="4.71138">
        <ele>443</ele>
      </trkpt>
      <trkpt lat="46.45066" lon="4.71159">
        <ele>444.1</ele>
      </trkpt>
      <trkpt lat="46.45075" lon="4.71175">
        <ele>444.7</ele>
      </trkpt>
      <trkpt lat="46.45085" lon="4.7119">
        <ele>444.8</ele>
      </trkpt>
      <trkpt lat="46.45097" lon="4.71209">
        <ele>445.5</ele>
      </trkpt>
      <trkpt lat="46.45106" lon="4.71223">
        <ele>446.3</ele>
      </trkpt>
      <trkpt lat="46.45113" lon="4.71245">
        <ele>447.6</ele>
      </trkpt>
      <trkpt lat="46.45124" lon="4.71282">
        <ele>449.9</ele>
      </trkpt>
      <trkpt lat="46.45132" lon="4.71312">
        <ele>451.7</ele>
      </trkpt>
      <trkpt lat="46.4514" lon="4.71337">
        <ele>453.4</ele>
      </trkpt>
      <trkpt lat="46.45148" lon="4.71356">
        <ele>454.6</ele>
      </trkpt>
      <trkpt lat="46.45154" lon="4.7137">
        <ele>454.9</ele>
      </trkpt>
      <trkpt lat="46.45164" lon="4.71386">
        <ele>455</ele>
      </trkpt>
      <trkpt lat="46.45178" lon="4.71405">
        <ele>456.3</ele>
      </trkpt>
      <trkpt lat="46.45192" lon="4.71423">
        <ele>457.1</ele>
      </trkpt>
      <trkpt lat="46.45207" lon="4.71438">
        <ele>458.4</ele>
      </trkpt>
      <trkpt lat="46.45229" lon="4.71452">
        <ele>459</ele>
      </trkpt>
      <trkpt lat="46.45277" lon="4.71478">
        <ele>461.8</ele>
      </trkpt>
      <trkpt lat="46.4532" lon="4.71498">
        <ele>466.3</ele>
      </trkpt>
      <trkpt lat="46.45336" lon="4.71506">
        <ele>469.2</ele>
      </trkpt>
      <trkpt lat="46.45354" lon="4.71517">
        <ele>472.4</ele>
      </trkpt>
      <trkpt lat="46.45372" lon="4.71531">
        <ele>475.6</ele>
      </trkpt>
      <trkpt lat="46.4538" lon="4.71541">
        <ele>477.6</ele>
      </trkpt>
      <trkpt lat="46.45385" lon="4.7155">
        <ele>479.1</ele>
      </trkpt>
      <trkpt lat="46.45389" lon="4.71564">
        <ele>480.6</ele>
      </trkpt>
      <trkpt lat="46.45393" lon="4.71574">
        <ele>481.4</ele>
      </trkpt>
      <trkpt lat="46.45399" lon="4.71588">
        <ele>481.5</ele>
      </trkpt>
      <trkpt lat="46.45413" lon="4.7161">
        <ele>480.2</ele>
      </trkpt>
      <trkpt lat="46.45447" lon="4.71659">
        <ele>478.1</ele>
      </trkpt>
      <trkpt lat="46.45462" lon="4.71681">
        <ele>476.6</ele>
      </trkpt>
      <trkpt lat="46.45479" lon="4.71706">
        <ele>474.7</ele>
      </trkpt>
      <trkpt lat="46.45506" lon="4.71745">
        <ele>470.6</ele>
      </trkpt>
      <trkpt lat="46.45549" lon="4.7181">
        <ele>460.6</ele>
      </trkpt>
      <trkpt lat="46.45557" lon="4.71824">
        <ele>458.5</ele>
      </trkpt>
      <trkpt lat="46.45565" lon="4.71806">
        <ele>459.3</ele>
      </trkpt>
      <trkpt lat="46.45575" lon="4.71789">
        <ele>460.4</ele>
      </trkpt>
      <trkpt lat="46.45584" lon="4.71777">
        <ele>461.1</ele>
      </trkpt>
      <trkpt lat="46.45593" lon="4.71767">
        <ele>462</ele>
      </trkpt>
      <trkpt lat="46.45604" lon="4.7176">
        <ele>462.3</ele>
      </trkpt>
      <trkpt lat="46.45618" lon="4.71753">
        <ele>463.1</ele>
      </trkpt>
      <trkpt lat="46.4563" lon="4.7175">
        <ele>464.4</ele>
      </trkpt>
      <trkpt lat="46.45641" lon="4.71748">
        <ele>465.3</ele>
      </trkpt>
      <trkpt lat="46.45648" lon="4.71747">
        <ele>465.4</ele>
      </trkpt>
      <trkpt lat="46.45655" lon="4.71744">
        <ele>465.7</ele>
      </trkpt>
      <trkpt lat="46.4566" lon="4.71742">
        <ele>466.1</ele>
      </trkpt>
      <trkpt lat="46.45665" lon="4.71739">
        <ele>466.6</ele>
      </trkpt>
      <trkpt lat="46.45675" lon="4.71738">
        <ele>467.1</ele>
      </trkpt>
      <trkpt lat="46.45679" lon="4.71738">
        <ele>467.2</ele>
      </trkpt>
      <trkpt lat="46.45683" lon="4.7173">
        <ele>468.2</ele>
      </trkpt>
      <trkpt lat="46.45687" lon="4.71717">
        <ele>469.1</ele>
      </trkpt>
      <trkpt lat="46.4569" lon="4.71706">
        <ele>469.2</ele>
      </trkpt>
      <trkpt lat="46.45692" lon="4.71701">
        <ele>469.1</ele>
      </trkpt>
      <trkpt lat="46.45695" lon="4.717">
        <ele>469.1</ele>
      </trkpt>
      <trkpt lat="46.45698" lon="4.71701">
        <ele>469.4</ele>
      </trkpt>
      <trkpt lat="46.45708" lon="4.71708">
        <ele>470.2</ele>
      </trkpt>
      <trkpt lat="46.45728" lon="4.71723">
        <ele>471.6</ele>
      </trkpt>
      <trkpt lat="46.45747" lon="4.71737">
        <ele>472.7</ele>
      </trkpt>
      <trkpt lat="46.45758" lon="4.71747">
        <ele>472.2</ele>
      </trkpt>
      <trkpt lat="46.45768" lon="4.71744">
        <ele>472.4</ele>
      </trkpt>
      <trkpt lat="46.45773" lon="4.71736">
        <ele>473</ele>
      </trkpt>
      <trkpt lat="46.45779" lon="4.71731">
        <ele>473.4</ele>
      </trkpt>
      <trkpt lat="46.4579" lon="4.71721">
        <ele>473.8</ele>
      </trkpt>
      <trkpt lat="46.45799" lon="4.71718">
        <ele>473.4</ele>
      </trkpt>
      <trkpt lat="46.45803" lon="4.71715">
        <ele>473</ele>
      </trkpt>
      <trkpt lat="46.45808" lon="4.71713">
        <ele>472.4</ele>
      </trkpt>
      <trkpt lat="46.45814" lon="4.71713">
        <ele>471.9</ele>
      </trkpt>
      <trkpt lat="46.45824" lon="4.71716">
        <ele>471.5</ele>
      </trkpt>
      <trkpt lat="46.45834" lon="4.71718">
        <ele>471.2</ele>
      </trkpt>
      <trkpt lat="46.45842" lon="4.71722">
        <ele>471.6</ele>
      </trkpt>
      <trkpt lat="46.45848" lon="4.71726">
        <ele>471.6</ele>
      </trkpt>
      <trkpt lat="46.45854" lon="4.7173">
        <ele>471.5</ele>
      </trkpt>
      <trkpt lat="46.45861" lon="4.71731">
        <ele>471.3</ele>
      </trkpt>
      <trkpt lat="46.45869" lon="4.71732">
        <ele>471.4</ele>
      </trkpt>
      <trkpt lat="46.45875" lon="4.71733">
        <ele>471.6</ele>
      </trkpt>
      <trkpt lat="46.4588" lon="4.71732">
        <ele>471.6</ele>
      </trkpt>
      <trkpt lat="46.45887" lon="4.7173">
        <ele>471.6</ele>
      </trkpt>
      <trkpt lat="46.45896" lon="4.7173">
        <ele>471.5</ele>
      </trkpt>
      <trkpt lat="46.45904" lon="4.7173">
        <ele>471.3</ele>
      </trkpt>
      <trkpt lat="46.45909" lon="4.71732">
        <ele>471.4</ele>
      </trkpt>
      <trkpt lat="46.45918" lon="4.71734">
        <ele>471.6</ele>
      </trkpt>
      <trkpt lat="46.45926" lon="4.71737">
        <ele>471.6</ele>
      </trkpt>
      <trkpt lat="46.45933" lon="4.71739">
        <ele>471.6</ele>
      </trkpt>
      <trkpt lat="46.4594" lon="4.71741">
        <ele>471.6</ele>
      </trkpt>
      <trkpt lat="46.45946" lon="4.7174">
        <ele>471.2</ele>
      </trkpt>
      <trkpt lat="46.45952" lon="4.71739">
        <ele>470.8</ele>
      </trkpt>
      <trkpt lat="46.45956" lon="4.7174">
        <ele>470.8</ele>
      </trkpt>
      <trkpt lat="46.45965" lon="4.71739">
        <ele>470.3</ele>
      </trkpt>
      <trkpt lat="46.45975" lon="4.71741">
        <ele>470.3</ele>
      </trkpt>
      <trkpt lat="46.45983" lon="4.71743">
        <ele>470.8</ele>
      </trkpt>
      <trkpt lat="46.45994" lon="4.71742">
        <ele>470.8</ele>
      </trkpt>
      <trkpt lat="46.46008" lon="4.71742">
        <ele>470.9</ele>
      </trkpt>
      <trkpt lat="46.46021" lon="4.71742">
        <ele>471</ele>
      </trkpt>
      <trkpt lat="46.46033" lon="4.71741">
        <ele>471.2</ele>
      </trkpt>
      <trkpt lat="46.4604" lon="4.7174">
        <ele>471.2</ele>
      </trkpt>
      <trkpt lat="46.46044" lon="4.7174">
        <ele>471.3</ele>
      </trkpt>
      <trkpt lat="46.4605" lon="4.7174">
        <ele>471.5</ele>
      </trkpt>
      <trkpt lat="46.46057" lon="4.71742">
        <ele>471.7</ele>
      </trkpt>
      <trkpt lat="46.46062" lon="4.71745">
        <ele>471.8</ele>
      </trkpt>
      <trkpt lat="46.46067" lon="4.71747">
        <ele>472.1</ele>
      </trkpt>
      <trkpt lat="46.46075" lon="4.71746">
        <ele>472</ele>
      </trkpt>
      <trkpt lat="46.4608" lon="4.71743">
        <ele>471.4</ele>
      </trkpt>
      <trkpt lat="46.46086" lon="4.7174">
        <ele>470.7</ele>
      </trkpt>
      <trkpt lat="46.46089" lon="4.71739">
        <ele>470.4</ele>
      </trkpt>
      <trkpt lat="46.46092" lon="4.71743">
        <ele>471.4</ele>
      </trkpt>
      <trkpt lat="46.46094" lon="4.71752">
        <ele>472.8</ele>
      </trkpt>
      <trkpt lat="46.46095" lon="4.71762">
        <ele>471.9</ele>
      </trkpt>
      <trkpt lat="46.46095" lon="4.71773">
        <ele>470.8</ele>
      </trkpt>
      <trkpt lat="46.46096" lon="4.71784">
        <ele>470.1</ele>
      </trkpt>
      <trkpt lat="46.46099" lon="4.71791">
        <ele>469.8</ele>
      </trkpt>
      <trkpt lat="46.46105" lon="4.71798">
        <ele>469.5</ele>
      </trkpt>
      <trkpt lat="46.46118" lon="4.7181">
        <ele>468.9</ele>
      </trkpt>
      <trkpt lat="46.4613" lon="4.71826">
        <ele>468.8</ele>
      </trkpt>
      <trkpt lat="46.46139" lon="4.71843">
        <ele>469</ele>
      </trkpt>
      <trkpt lat="46.46144" lon="4.71854">
        <ele>469</ele>
      </trkpt>
      <trkpt lat="46.4615" lon="4.71863">
        <ele>469.1</ele>
      </trkpt>
      <trkpt lat="46.46152" lon="4.71872">
        <ele>469.6</ele>
      </trkpt>
      <trkpt lat="46.46153" lon="4.71877">
        <ele>469.9</ele>
      </trkpt>
      <trkpt lat="46.46152" lon="4.71883">
        <ele>470.1</ele>
      </trkpt>
      <trkpt lat="46.46149" lon="4.71887">
        <ele>470.3</ele>
      </trkpt>
      <trkpt lat="46.46147" lon="4.71893">
        <ele>470.7</ele>
      </trkpt>
      <trkpt lat="46.46147" lon="4.71902">
        <ele>471.3</ele>
      </trkpt>
      <trkpt lat="46.46147" lon="4.71909">
        <ele>472</ele>
      </trkpt>
      <trkpt lat="46.46149" lon="4.71918">
        <ele>472.7</ele>
      </trkpt>
      <trkpt lat="46.46151" lon="4.71924">
        <ele>473.2</ele>
      </trkpt>
      <trkpt lat="46.46154" lon="4.71937">
        <ele>474.2</ele>
      </trkpt>
      <trkpt lat="46.46157" lon="4.71945">
        <ele>475</ele>
      </trkpt>
      <trkpt lat="46.4616" lon="4.71957">
        <ele>476</ele>
      </trkpt>
      <trkpt lat="46.46162" lon="4.71969">
        <ele>477</ele>
      </trkpt>
      <trkpt lat="46.46164" lon="4.71987">
        <ele>478</ele>
      </trkpt>
      <trkpt lat="46.46166" lon="4.71999">
        <ele>478.8</ele>
      </trkpt>
      <trkpt lat="46.46167" lon="4.7201">
        <ele>479</ele>
      </trkpt>
      <trkpt lat="46.46171" lon="4.72024">
        <ele>479.4</ele>
      </trkpt>
      <trkpt lat="46.46175" lon="4.72035">
        <ele>479.8</ele>
      </trkpt>
      <trkpt lat="46.4618" lon="4.72045">
        <ele>480.1</ele>
      </trkpt>
      <trkpt lat="46.46183" lon="4.72055">
        <ele>480.4</ele>
      </trkpt>
      <trkpt lat="46.46187" lon="4.72066">
        <ele>480.4</ele>
      </trkpt>
      <trkpt lat="46.4619" lon="4.72077">
        <ele>480.4</ele>
      </trkpt>
      <trkpt lat="46.46196" lon="4.72095">
        <ele>479.9</ele>
      </trkpt>
      <trkpt lat="46.46206" lon="4.72123">
        <ele>479</ele>
      </trkpt>
      <trkpt lat="46.46214" lon="4.72143">
        <ele>479.3</ele>
      </trkpt>
      <trkpt lat="46.46222" lon="4.72163">
        <ele>479.1</ele>
      </trkpt>
      <trkpt lat="46.4623" lon="4.72184">
        <ele>478.1</ele>
      </trkpt>
      <trkpt lat="46.46236" lon="4.72201">
        <ele>477.1</ele>
      </trkpt>
      <trkpt lat="46.4624" lon="4.72219">
        <ele>475.6</ele>
      </trkpt>
      <trkpt lat="46.46245" lon="4.72238">
        <ele>474.1</ele>
      </trkpt>
      <trkpt lat="46.46251" lon="4.72268">
        <ele>471.7</ele>
      </trkpt>
      <trkpt lat="46.46257" lon="4.72301">
        <ele>469.8</ele>
      </trkpt>
      <trkpt lat="46.46259" lon="4.72318">
        <ele>469.7</ele>
      </trkpt>
      <trkpt lat="46.4626" lon="4.72327">
        <ele>469.8</ele>
      </trkpt>
      <trkpt lat="46.4626" lon="4.72333">
        <ele>469.8</ele>
      </trkpt>
      <trkpt lat="46.4626" lon="4.72341">
        <ele>470</ele>
      </trkpt>
      <trkpt lat="46.4626" lon="4.7235">
        <ele>470.1</ele>
      </trkpt>
      <trkpt lat="46.46258" lon="4.7236">
        <ele>470.1</ele>
      </trkpt>
      <trkpt lat="46.46255" lon="4.72377">
        <ele>470.2</ele>
      </trkpt>
      <trkpt lat="46.46252" lon="4.72392">
        <ele>470.4</ele>
      </trkpt>
      <trkpt lat="46.46248" lon="4.72401">
        <ele>470.7</ele>
      </trkpt>
      <trkpt lat="46.46244" lon="4.72409">
        <ele>470.8</ele>
      </trkpt>
      <trkpt lat="46.46238" lon="4.72419">
        <ele>470.9</ele>
      </trkpt>
      <trkpt lat="46.46232" lon="4.72428">
        <ele>470.8</ele>
      </trkpt>
      <trkpt lat="46.46228" lon="4.72435">
        <ele>470.8</ele>
      </trkpt>
      <trkpt lat="46.46226" lon="4.7244">
        <ele>471</ele>
      </trkpt>
      <trkpt lat="46.46223" lon="4.72457">
        <ele>471.5</ele>
      </trkpt>
      <trkpt lat="46.46221" lon="4.72468">
        <ele>471.8</ele>
      </trkpt>
      <trkpt lat="46.4622" lon="4.72479">
        <ele>471.9</ele>
      </trkpt>
      <trkpt lat="46.46219" lon="4.72494">
        <ele>471.9</ele>
      </trkpt>
      <trkpt lat="46.4622" lon="4.72503">
        <ele>471.9</ele>
      </trkpt>
      <trkpt lat="46.4622" lon="4.72516">
        <ele>471.9</ele>
      </trkpt>
      <trkpt lat="46.46221" lon="4.72528">
        <ele>471.9</ele>
      </trkpt>
      <trkpt lat="46.46223" lon="4.72539">
        <ele>471.6</ele>
      </trkpt>
      <trkpt lat="46.46228" lon="4.72557">
        <ele>470.9</ele>
      </trkpt>
      <trkpt lat="46.46234" lon="4.7258">
        <ele>470.5</ele>
      </trkpt>
      <trkpt lat="46.4624" lon="4.72599">
        <ele>469.5</ele>
      </trkpt>
      <trkpt lat="46.46248" lon="4.72617">
        <ele>468.7</ele>
      </trkpt>
      <trkpt lat="46.46252" lon="4.7263">
        <ele>468.3</ele>
      </trkpt>
      <trkpt lat="46.46254" lon="4.72638">
        <ele>467.9</ele>
      </trkpt>
      <trkpt lat="46.46255" lon="4.72643">
        <ele>467.5</ele>
      </trkpt>
      <trkpt lat="46.46255" lon="4.7265">
        <ele>467</ele>
      </trkpt>
      <trkpt lat="46.46255" lon="4.72659">
        <ele>466.4</ele>
      </trkpt>
      <trkpt lat="46.46253" lon="4.72677">
        <ele>465.1</ele>
      </trkpt>
      <trkpt lat="46.4625" lon="4.72698">
        <ele>463.8</ele>
      </trkpt>
      <trkpt lat="46.46244" lon="4.72722">
        <ele>462.2</ele>
      </trkpt>
      <trkpt lat="46.46238" lon="4.72745">
        <ele>460.8</ele>
      </trkpt>
      <trkpt lat="46.46233" lon="4.72764">
        <ele>459.4</ele>
      </trkpt>
      <trkpt lat="46.46228" lon="4.72778">
        <ele>458.6</ele>
      </trkpt>
      <trkpt lat="46.46219" lon="4.72801">
        <ele>456.5</ele>
      </trkpt>
      <trkpt lat="46.4621" lon="4.72822">
        <ele>455.4</ele>
      </trkpt>
      <trkpt lat="46.46205" lon="4.72837">
        <ele>454.9</ele>
      </trkpt>
      <trkpt lat="46.46202" lon="4.72853">
        <ele>454.8</ele>
      </trkpt>
      <trkpt lat="46.46198" lon="4.72863">
        <ele>454.8</ele>
      </trkpt>
      <trkpt lat="46.46197" lon="4.72868">
        <ele>454.7</ele>
      </trkpt>
      <trkpt lat="46.46194" lon="4.72873">
        <ele>454.6</ele>
      </trkpt>
      <trkpt lat="46.46191" lon="4.72876">
        <ele>454.4</ele>
      </trkpt>
      <trkpt lat="46.4619" lon="4.72886">
        <ele>454.1</ele>
      </trkpt>
      <trkpt lat="46.46189" lon="4.72892">
        <ele>454</ele>
      </trkpt>
      <trkpt lat="46.46187" lon="4.72904">
        <ele>454</ele>
      </trkpt>
      <trkpt lat="46.46185" lon="4.72914">
        <ele>454</ele>
      </trkpt>
      <trkpt lat="46.46184" lon="4.72923">
        <ele>454.1</ele>
      </trkpt>
      <trkpt lat="46.46183" lon="4.72933">
        <ele>454.2</ele>
      </trkpt>
      <trkpt lat="46.46183" lon="4.72941">
        <ele>454.4</ele>
      </trkpt>
      <trkpt lat="46.46184" lon="4.7295">
        <ele>454.5</ele>
      </trkpt>
      <trkpt lat="46.46184" lon="4.7296">
        <ele>454.7</ele>
      </trkpt>
      <trkpt lat="46.46184" lon="4.72969">
        <ele>454.9</ele>
      </trkpt>
      <trkpt lat="46.46182" lon="4.72983">
        <ele>455</ele>
      </trkpt>
      <trkpt lat="46.46177" lon="4.73005">
        <ele>454.9</ele>
      </trkpt>
      <trkpt lat="46.46176" lon="4.73014">
        <ele>454.8</ele>
      </trkpt>
      <trkpt lat="46.46172" lon="4.73028">
        <ele>454.8</ele>
      </trkpt>
      <trkpt lat="46.46168" lon="4.7304">
        <ele>454.5</ele>
      </trkpt>
      <trkpt lat="46.46165" lon="4.73048">
        <ele>454.3</ele>
      </trkpt>
      <trkpt lat="46.4616" lon="4.73058">
        <ele>453.9</ele>
      </trkpt>
      <trkpt lat="46.46155" lon="4.73068">
        <ele>453.3</ele>
      </trkpt>
      <trkpt lat="46.4615" lon="4.73079">
        <ele>452.8</ele>
      </trkpt>
      <trkpt lat="46.46147" lon="4.73092">
        <ele>452.4</ele>
      </trkpt>
      <trkpt lat="46.46141" lon="4.73109">
        <ele>452</ele>
      </trkpt>
      <trkpt lat="46.46133" lon="4.73126">
        <ele>451.8</ele>
      </trkpt>
      <trkpt lat="46.46136" lon="4.73129">
        <ele>451.9</ele>
      </trkpt>
      <trkpt lat="46.46136" lon="4.7314">
        <ele>451.9</ele>
      </trkpt>
      <trkpt lat="46.46136" lon="4.73141">
        <ele>451.9</ele>
      </trkpt>
      <trkpt lat="46.46136" lon="4.73146">
        <ele>451.9</ele>
      </trkpt>
      <trkpt lat="46.46136" lon="4.73153">
        <ele>451.9</ele>
      </trkpt>
      <trkpt lat="46.46138" lon="4.73162">
        <ele>452</ele>
      </trkpt>
      <trkpt lat="46.4614" lon="4.73168">
        <ele>451.9</ele>
      </trkpt>
      <trkpt lat="46.46143" lon="4.73178">
        <ele>451.7</ele>
      </trkpt>
      <trkpt lat="46.46153" lon="4.73199">
        <ele>451.1</ele>
      </trkpt>
      <trkpt lat="46.46166" lon="4.73222">
        <ele>451</ele>
      </trkpt>
      <trkpt lat="46.46181" lon="4.73252">
        <ele>451.2</ele>
      </trkpt>
      <trkpt lat="46.46191" lon="4.73272">
        <ele>452.5</ele>
      </trkpt>
      <trkpt lat="46.46203" lon="4.73289">
        <ele>453.2</ele>
      </trkpt>
      <trkpt lat="46.46219" lon="4.73309">
        <ele>453.6</ele>
      </trkpt>
      <trkpt lat="46.46235" lon="4.73331">
        <ele>454.9</ele>
      </trkpt>
      <trkpt lat="46.46243" lon="4.73345">
        <ele>455.2</ele>
      </trkpt>
      <trkpt lat="46.46248" lon="4.73353">
        <ele>455.5</ele>
      </trkpt>
      <trkpt lat="46.46252" lon="4.73362">
        <ele>456</ele>
      </trkpt>
      <trkpt lat="46.46267" lon="4.73372">
        <ele>456.5</ele>
      </trkpt>
      <trkpt lat="46.46276" lon="4.73384">
        <ele>457.5</ele>
      </trkpt>
      <trkpt lat="46.46289" lon="4.73399">
        <ele>458.1</ele>
      </trkpt>
      <trkpt lat="46.46306" lon="4.73414">
        <ele>457.8</ele>
      </trkpt>
      <trkpt lat="46.46323" lon="4.73428">
        <ele>457.4</ele>
      </trkpt>
      <trkpt lat="46.46359" lon="4.73459">
        <ele>458.2</ele>
      </trkpt>
      <trkpt lat="46.46376" lon="4.73473">
        <ele>456.9</ele>
      </trkpt>
      <trkpt lat="46.46391" lon="4.73485">
        <ele>455.7</ele>
      </trkpt>
      <trkpt lat="46.46405" lon="4.73499">
        <ele>455.1</ele>
      </trkpt>
      <trkpt lat="46.46419" lon="4.73513">
        <ele>454.1</ele>
      </trkpt>
      <trkpt lat="46.46431" lon="4.73526">
        <ele>452.9</ele>
      </trkpt>
      <trkpt lat="46.46444" lon="4.73541">
        <ele>451.5</ele>
      </trkpt>
      <trkpt lat="46.46455" lon="4.73555">
        <ele>450.5</ele>
      </trkpt>
      <trkpt lat="46.46465" lon="4.73573">
        <ele>449.5</ele>
      </trkpt>
      <trkpt lat="46.46471" lon="4.73585">
        <ele>449.2</ele>
      </trkpt>
      <trkpt lat="46.46473" lon="4.73591">
        <ele>448.8</ele>
      </trkpt>
      <trkpt lat="46.46476" lon="4.73605">
        <ele>448.4</ele>
      </trkpt>
      <trkpt lat="46.46476" lon="4.73616">
        <ele>447.8</ele>
      </trkpt>
      <trkpt lat="46.46475" lon="4.73625">
        <ele>446.7</ele>
      </trkpt>
      <trkpt lat="46.46472" lon="4.73636">
        <ele>445.6</ele>
      </trkpt>
      <trkpt lat="46.46468" lon="4.73647">
        <ele>444.9</ele>
      </trkpt>
      <trkpt lat="46.46465" lon="4.73659">
        <ele>444.4</ele>
      </trkpt>
      <trkpt lat="46.46465" lon="4.73667">
        <ele>443.7</ele>
      </trkpt>
      <trkpt lat="46.46464" lon="4.73677">
        <ele>443.8</ele>
      </trkpt>
      <trkpt lat="46.46463" lon="4.73685">
        <ele>443.7</ele>
      </trkpt>
      <trkpt lat="46.46464" lon="4.73695">
        <ele>443.5</ele>
      </trkpt>
      <trkpt lat="46.46466" lon="4.73704">
        <ele>443.8</ele>
      </trkpt>
      <trkpt lat="46.4648" lon="4.73728">
        <ele>442.7</ele>
      </trkpt>
      <trkpt lat="46.46491" lon="4.7374">
        <ele>441.2</ele>
      </trkpt>
      <trkpt lat="46.46505" lon="4.73753">
        <ele>439.1</ele>
      </trkpt>
      <trkpt lat="46.46516" lon="4.73764">
        <ele>437.6</ele>
      </trkpt>
      <trkpt lat="46.46527" lon="4.73775">
        <ele>436</ele>
      </trkpt>
      <trkpt lat="46.46537" lon="4.73787">
        <ele>434.5</ele>
      </trkpt>
      <trkpt lat="46.46547" lon="4.73802">
        <ele>433.4</ele>
      </trkpt>
      <trkpt lat="46.46559" lon="4.73814">
        <ele>432.5</ele>
      </trkpt>
      <trkpt lat="46.46572" lon="4.73824">
        <ele>432</ele>
      </trkpt>
      <trkpt lat="46.46614" lon="4.73855">
        <ele>430</ele>
      </trkpt>
      <trkpt lat="46.4667" lon="4.73897">
        <ele>428.3</ele>
      </trkpt>
      <trkpt lat="46.46722" lon="4.73915">
        <ele>425.9</ele>
      </trkpt>
      <trkpt lat="46.46734" lon="4.7393">
        <ele>425.7</ele>
      </trkpt>
      <trkpt lat="46.46755" lon="4.73953">
        <ele>423.8</ele>
      </trkpt>
      <trkpt lat="46.46771" lon="4.74007">
        <ele>423.1</ele>
      </trkpt>
      <trkpt lat="46.46793" lon="4.74057">
        <ele>423</ele>
      </trkpt>
      <trkpt lat="46.46815" lon="4.74069">
        <ele>424.5</ele>
      </trkpt>
      <trkpt lat="46.46833" lon="4.74072">
        <ele>426.8</ele>
      </trkpt>
      <trkpt lat="46.46852" lon="4.74079">
        <ele>429.4</ele>
      </trkpt>
      <trkpt lat="46.46869" lon="4.74088">
        <ele>431.5</ele>
      </trkpt>
      <trkpt lat="46.4688" lon="4.74093">
        <ele>432.2</ele>
      </trkpt>
      <trkpt lat="46.46888" lon="4.74099">
        <ele>433.2</ele>
      </trkpt>
      <trkpt lat="46.46897" lon="4.74115">
        <ele>435.2</ele>
      </trkpt>
      <trkpt lat="46.46905" lon="4.74139">
        <ele>437.3</ele>
      </trkpt>
      <trkpt lat="46.46916" lon="4.74167">
        <ele>439.2</ele>
      </trkpt>
      <trkpt lat="46.47054" lon="4.74559">
        <ele>451.5</ele>
      </trkpt>
      <trkpt lat="46.47134" lon="4.74681">
        <ele>462.8</ele>
      </trkpt>
      <trkpt lat="46.47197" lon="4.74718">
        <ele>467.5</ele>
      </trkpt>
      <trkpt lat="46.47175" lon="4.74773">
        <ele>473.6</ele>
      </trkpt>
      <trkpt lat="46.47169" lon="4.74795">
        <ele>476</ele>
      </trkpt>
      <trkpt lat="46.47169" lon="4.74804">
        <ele>476.9</ele>
      </trkpt>
      <trkpt lat="46.4717" lon="4.74811">
        <ele>477.8</ele>
      </trkpt>
      <trkpt lat="46.47171" lon="4.74816">
        <ele>478.5</ele>
      </trkpt>
      <trkpt lat="46.47179" lon="4.74828">
        <ele>479.9</ele>
      </trkpt>
      <trkpt lat="46.47186" lon="4.74842">
        <ele>481</ele>
      </trkpt>
      <trkpt lat="46.4719" lon="4.74855">
        <ele>481.8</ele>
      </trkpt>
      <trkpt lat="46.47196" lon="4.74874">
        <ele>482.9</ele>
      </trkpt>
      <trkpt lat="46.47201" lon="4.74893">
        <ele>484.3</ele>
      </trkpt>
      <trkpt lat="46.47203" lon="4.74906">
        <ele>485.3</ele>
      </trkpt>
      <trkpt lat="46.47204" lon="4.74918">
        <ele>486</ele>
      </trkpt>
      <trkpt lat="46.47203" lon="4.74931">
        <ele>486.2</ele>
      </trkpt>
      <trkpt lat="46.47203" lon="4.74934">
        <ele>486.2</ele>
      </trkpt>
      <trkpt lat="46.4722" lon="4.7494">
        <ele>486.8</ele>
      </trkpt>
      <trkpt lat="46.47237" lon="4.74936">
        <ele>487.5</ele>
      </trkpt>
      <trkpt lat="46.47248" lon="4.74932">
        <ele>488</ele>
      </trkpt>
      <trkpt lat="46.4727" lon="4.74914">
        <ele>488.3</ele>
      </trkpt>
      <trkpt lat="46.47281" lon="4.74909">
        <ele>488.6</ele>
      </trkpt>
      <trkpt lat="46.47295" lon="4.74918">
        <ele>489.6</ele>
      </trkpt>
      <trkpt lat="46.47357" lon="4.74958">
        <ele>492.9</ele>
      </trkpt>
      <trkpt lat="46.47365" lon="4.74964">
        <ele>493.2</ele>
      </trkpt>
      <trkpt lat="46.47376" lon="4.74971">
        <ele>493.4</ele>
      </trkpt>
      <trkpt lat="46.47388" lon="4.74986">
        <ele>493.5</ele>
      </trkpt>
      <trkpt lat="46.47404" lon="4.74998">
        <ele>493.4</ele>
      </trkpt>
      <trkpt lat="46.47418" lon="4.75011">
        <ele>493.4</ele>
      </trkpt>
      <trkpt lat="46.47426" lon="4.75015">
        <ele>493.5</ele>
      </trkpt>
      <trkpt lat="46.47445" lon="4.75028">
        <ele>494</ele>
      </trkpt>
      <trkpt lat="46.47466" lon="4.75047">
        <ele>493.8</ele>
      </trkpt>
      <trkpt lat="46.4748" lon="4.75057">
        <ele>493.7</ele>
      </trkpt>
      <trkpt lat="46.47509" lon="4.75083">
        <ele>492.7</ele>
      </trkpt>
      <trkpt lat="46.47526" lon="4.75098">
        <ele>492</ele>
      </trkpt>
      <trkpt lat="46.47548" lon="4.75111">
        <ele>491.3</ele>
      </trkpt>
      <trkpt lat="46.4756" lon="4.75117">
        <ele>491.4</ele>
      </trkpt>
      <trkpt lat="46.47577" lon="4.75123">
        <ele>492.2</ele>
      </trkpt>
      <trkpt lat="46.47585" lon="4.75126">
        <ele>492.7</ele>
      </trkpt>
      <trkpt lat="46.47609" lon="4.75133">
        <ele>495.3</ele>
      </trkpt>
      <trkpt lat="46.47628" lon="4.75138">
        <ele>496.5</ele>
      </trkpt>
      <trkpt lat="46.47646" lon="4.75144">
        <ele>497.9</ele>
      </trkpt>
      <trkpt lat="46.47657" lon="4.75147">
        <ele>498.9</ele>
      </trkpt>
      <trkpt lat="46.47667" lon="4.75151">
        <ele>499.9</ele>
      </trkpt>
      <trkpt lat="46.47684" lon="4.75156">
        <ele>500.2</ele>
      </trkpt>
      <trkpt lat="46.47705" lon="4.75162">
        <ele>500.4</ele>
      </trkpt>
      <trkpt lat="46.4773" lon="4.75167">
        <ele>499.8</ele>
      </trkpt>
      <trkpt lat="46.47757" lon="4.75173">
        <ele>498.7</ele>
      </trkpt>
      <trkpt lat="46.47773" lon="4.75176">
        <ele>497.2</ele>
      </trkpt>
      <trkpt lat="46.47808" lon="4.75185">
        <ele>492.6</ele>
      </trkpt>
      <trkpt lat="46.47838" lon="4.75188">
        <ele>489</ele>
      </trkpt>
      <trkpt lat="46.47844" lon="4.75187">
        <ele>488.5</ele>
      </trkpt>
      <trkpt lat="46.47858" lon="4.75186">
        <ele>487.6</ele>
      </trkpt>
      <trkpt lat="46.47864" lon="4.75185">
        <ele>487.3</ele>
      </trkpt>
      <trkpt lat="46.4786" lon="4.75175">
        <ele>486.6</ele>
      </trkpt>
      <trkpt lat="46.47909" lon="4.75158">
        <ele>489</ele>
      </trkpt>
      <trkpt lat="46.47942" lon="4.75165">
        <ele>492.5</ele>
      </trkpt>
      <trkpt lat="46.47998" lon="4.75185">
        <ele>496</ele>
      </trkpt>
      <trkpt lat="46.48088" lon="4.7521">
        <ele>502.5</ele>
      </trkpt>
      <trkpt lat="46.4814" lon="4.75218">
        <ele>507.8</ele>
      </trkpt>
      <trkpt lat="46.48158" lon="4.75204">
        <ele>512.2</ele>
      </trkpt>
      <trkpt lat="46.48182" lon="4.75177">
        <ele>514.2</ele>
      </trkpt>
      <trkpt lat="46.482" lon="4.75168">
        <ele>514.3</ele>
      </trkpt>
      <trkpt lat="46.48219" lon="4.75165">
        <ele>514.6</ele>
      </trkpt>
      <trkpt lat="46.48248" lon="4.7518">
        <ele>515.5</ele>
      </trkpt>
      <trkpt lat="46.48259" lon="4.75201">
        <ele>517.2</ele>
      </trkpt>
      <trkpt lat="46.48278" lon="4.75233">
        <ele>517</ele>
      </trkpt>
      <trkpt lat="46.48289" lon="4.75247">
        <ele>516.6</ele>
      </trkpt>
      <trkpt lat="46.48298" lon="4.75259">
        <ele>516.1</ele>
      </trkpt>
      <trkpt lat="46.4833" lon="4.75291">
        <ele>514.6</ele>
      </trkpt>
      <trkpt lat="46.48349" lon="4.75312">
        <ele>514.8</ele>
      </trkpt>
      <trkpt lat="46.48374" lon="4.75329">
        <ele>515.3</ele>
      </trkpt>
      <trkpt lat="46.48599" lon="4.75486">
        <ele>519.5</ele>
      </trkpt>
      <trkpt lat="46.48608" lon="4.75493">
        <ele>519.7</ele>
      </trkpt>
      <trkpt lat="46.4864" lon="4.75508">
        <ele>519.6</ele>
      </trkpt>
      <trkpt lat="46.4869" lon="4.75509">
        <ele>520.5</ele>
      </trkpt>
      <trkpt lat="46.48711" lon="4.75514">
        <ele>521.9</ele>
      </trkpt>
      <trkpt lat="46.48785" lon="4.75549">
        <ele>530.4</ele>
      </trkpt>
      <trkpt lat="46.48868" lon="4.75584">
        <ele>537.5</ele>
      </trkpt>
      <trkpt lat="46.4889" lon="4.75592">
        <ele>539</ele>
      </trkpt>
      <trkpt lat="46.48899" lon="4.75596">
        <ele>539.5</ele>
      </trkpt>
      <trkpt lat="46.4891" lon="4.756">
        <ele>540.2</ele>
      </trkpt>
      <trkpt lat="46.48925" lon="4.756">
        <ele>540.4</ele>
      </trkpt>
      <trkpt lat="46.48929" lon="4.75601">
        <ele>540.4</ele>
      </trkpt>
      <trkpt lat="46.48937" lon="4.75606">
        <ele>541.1</ele>
      </trkpt>
      <trkpt lat="46.48952" lon="4.75621">
        <ele>541.8</ele>
      </trkpt>
      <trkpt lat="46.4896" lon="4.75631">
        <ele>542.2</ele>
      </trkpt>
      <trkpt lat="46.4897" lon="4.75638">
        <ele>542.9</ele>
      </trkpt>
      <trkpt lat="46.48984" lon="4.75651">
        <ele>542.5</ele>
      </trkpt>
      <trkpt lat="46.49005" lon="4.75681">
        <ele>542.6</ele>
      </trkpt>
      <trkpt lat="46.49021" lon="4.75699">
        <ele>542.3</ele>
      </trkpt>
      <trkpt lat="46.49027" lon="4.75703">
        <ele>541.7</ele>
      </trkpt>
      <trkpt lat="46.49038" lon="4.75713">
        <ele>541.1</ele>
      </trkpt>
      <trkpt lat="46.4905" lon="4.75723">
        <ele>542</ele>
      </trkpt>
      <trkpt lat="46.49058" lon="4.75729">
        <ele>541.6</ele>
      </trkpt>
      <trkpt lat="46.49066" lon="4.75731">
        <ele>542.1</ele>
      </trkpt>
      <trkpt lat="46.49076" lon="4.75728">
        <ele>543.3</ele>
      </trkpt>
      <trkpt lat="46.49093" lon="4.75726">
        <ele>544.2</ele>
      </trkpt>
      <trkpt lat="46.49116" lon="4.75728">
        <ele>545.1</ele>
      </trkpt>
      <trkpt lat="46.49128" lon="4.75727">
        <ele>545.5</ele>
      </trkpt>
      <trkpt lat="46.49143" lon="4.75725">
        <ele>546.1</ele>
      </trkpt>
      <trkpt lat="46.49156" lon="4.75726">
        <ele>546.5</ele>
      </trkpt>
      <trkpt lat="46.49168" lon="4.75729">
        <ele>546.8</ele>
      </trkpt>
      <trkpt lat="46.49182" lon="4.75729">
        <ele>547.3</ele>
      </trkpt>
      <trkpt lat="46.49201" lon="4.7573">
        <ele>548</ele>
      </trkpt>
      <trkpt lat="46.4921" lon="4.75732">
        <ele>548.2</ele>
      </trkpt>
      <trkpt lat="46.49216" lon="4.75732">
        <ele>548.4</ele>
      </trkpt>
      <trkpt lat="46.4922" lon="4.75733">
        <ele>548.5</ele>
      </trkpt>
      <trkpt lat="46.49223" lon="4.7573">
        <ele>548.7</ele>
      </trkpt>
      <trkpt lat="46.49229" lon="4.75708">
        <ele>549.9</ele>
      </trkpt>
      <trkpt lat="46.49241" lon="4.75677">
        <ele>553.1</ele>
      </trkpt>
      <trkpt lat="46.49252" lon="4.75656">
        <ele>556.6</ele>
      </trkpt>
      <trkpt lat="46.49263" lon="4.7566">
        <ele>556.9</ele>
      </trkpt>
      <trkpt lat="46.49282" lon="4.75668">
        <ele>557.1</ele>
      </trkpt>
      <trkpt lat="46.49291" lon="4.75671">
        <ele>557.4</ele>
      </trkpt>
      <trkpt lat="46.493" lon="4.75674">
        <ele>557.6</ele>
      </trkpt>
      <trkpt lat="46.49318" lon="4.75674">
        <ele>558</ele>
      </trkpt>
      <trkpt lat="46.49329" lon="4.75673">
        <ele>558.2</ele>
      </trkpt>
      <trkpt lat="46.49339" lon="4.7567">
        <ele>557.9</ele>
      </trkpt>
      <trkpt lat="46.49359" lon="4.75666">
        <ele>556.3</ele>
      </trkpt>
      <trkpt lat="46.49366" lon="4.75664">
        <ele>555.4</ele>
      </trkpt>
      <trkpt lat="46.49375" lon="4.75661">
        <ele>553.9</ele>
      </trkpt>
      <trkpt lat="46.49385" lon="4.75655">
        <ele>552.2</ele>
      </trkpt>
      <trkpt lat="46.49392" lon="4.75646">
        <ele>551.1</ele>
      </trkpt>
      <trkpt lat="46.49402" lon="4.75635">
        <ele>549.2</ele>
      </trkpt>
      <trkpt lat="46.49397" lon="4.75662">
        <ele>549.7</ele>
      </trkpt>
      <trkpt lat="46.49391" lon="4.75687">
        <ele>549.3</ele>
      </trkpt>
      <trkpt lat="46.49386" lon="4.75708">
        <ele>548.4</ele>
      </trkpt>
      <trkpt lat="46.49382" lon="4.75737">
        <ele>546</ele>
      </trkpt>
      <trkpt lat="46.49379" lon="4.75761">
        <ele>543.8</ele>
      </trkpt>
      <trkpt lat="46.49376" lon="4.75782">
        <ele>542.1</ele>
      </trkpt>
      <trkpt lat="46.4937" lon="4.75811">
        <ele>539.5</ele>
      </trkpt>
      <trkpt lat="46.49365" lon="4.75834">
        <ele>537.8</ele>
      </trkpt>
      <trkpt lat="46.49359" lon="4.75863">
        <ele>535.8</ele>
      </trkpt>
      <trkpt lat="46.49356" lon="4.75874">
        <ele>534.7</ele>
      </trkpt>
      <trkpt lat="46.49352" lon="4.7588">
        <ele>534.1</ele>
      </trkpt>
      <trkpt lat="46.49352" lon="4.75889">
        <ele>533.3</ele>
      </trkpt>
      <trkpt lat="46.49349" lon="4.75896">
        <ele>532.9</ele>
      </trkpt>
      <trkpt lat="46.49372" lon="4.75906">
        <ele>532.2</ele>
      </trkpt>
      <trkpt lat="46.49389" lon="4.75912">
        <ele>532.3</ele>
      </trkpt>
      <trkpt lat="46.49415" lon="4.75918">
        <ele>532.9</ele>
      </trkpt>
      <trkpt lat="46.49431" lon="4.75921">
        <ele>533.4</ele>
      </trkpt>
      <trkpt lat="46.49446" lon="4.75921">
        <ele>534</ele>
      </trkpt>
      <trkpt lat="46.49472" lon="4.7592">
        <ele>534.9</ele>
      </trkpt>
      <trkpt lat="46.49497" lon="4.75913">
        <ele>535</ele>
      </trkpt>
      <trkpt lat="46.495" lon="4.75913">
        <ele>535</ele>
      </trkpt>
      <trkpt lat="46.49514" lon="4.7591">
        <ele>535</ele>
      </trkpt>
      <trkpt lat="46.49525" lon="4.75907">
        <ele>535</ele>
      </trkpt>
      <trkpt lat="46.49537" lon="4.75901">
        <ele>534.9</ele>
      </trkpt>
      <trkpt lat="46.49593" lon="4.75849">
        <ele>533.4</ele>
      </trkpt>
      <trkpt lat="46.49636" lon="4.75822">
        <ele>532.2</ele>
      </trkpt>
      <trkpt lat="46.49662" lon="4.75808">
        <ele>531.1</ele>
      </trkpt>
      <trkpt lat="46.49688" lon="4.75805">
        <ele>531</ele>
      </trkpt>
      <trkpt lat="46.49785" lon="4.75806">
        <ele>523.9</ele>
      </trkpt>
      <trkpt lat="46.49799" lon="4.7581">
        <ele>521.8</ele>
      </trkpt>
      <trkpt lat="46.49817" lon="4.75825">
        <ele>518.7</ele>
      </trkpt>
      <trkpt lat="46.49828" lon="4.75833">
        <ele>516.8</ele>
      </trkpt>
      <trkpt lat="46.49839" lon="4.75837">
        <ele>514.6</ele>
      </trkpt>
      <trkpt lat="46.49868" lon="4.75841">
        <ele>509.4</ele>
      </trkpt>
      <trkpt lat="46.499" lon="4.75841">
        <ele>504.8</ele>
      </trkpt>
      <trkpt lat="46.49929" lon="4.75835">
        <ele>500.2</ele>
      </trkpt>
      <trkpt lat="46.49957" lon="4.75834">
        <ele>494.2</ele>
      </trkpt>
      <trkpt lat="46.49999" lon="4.75846">
        <ele>485.2</ele>
      </trkpt>
      <trkpt lat="46.5001" lon="4.75849">
        <ele>483.5</ele>
      </trkpt>
      <trkpt lat="46.50018" lon="4.75852">
        <ele>482.2</ele>
      </trkpt>
      <trkpt lat="46.5004" lon="4.75869">
        <ele>479.2</ele>
      </trkpt>
      <trkpt lat="46.50049" lon="4.75873">
        <ele>477.9</ele>
      </trkpt>
      <trkpt lat="46.50054" lon="4.75875">
        <ele>477.1</ele>
      </trkpt>
      <trkpt lat="46.50062" lon="4.75875">
        <ele>476.1</ele>
      </trkpt>
      <trkpt lat="46.50077" lon="4.75874">
        <ele>474</ele>
      </trkpt>
      <trkpt lat="46.5009" lon="4.75872">
        <ele>472.8</ele>
      </trkpt>
      <trkpt lat="46.50097" lon="4.75869">
        <ele>472.5</ele>
      </trkpt>
      <trkpt lat="46.50104" lon="4.75863">
        <ele>472.4</ele>
      </trkpt>
      <trkpt lat="46.50125" lon="4.75837">
        <ele>471.7</ele>
      </trkpt>
      <trkpt lat="46.50146" lon="4.75813">
        <ele>468.9</ele>
      </trkpt>
      <trkpt lat="46.5017" lon="4.75783">
        <ele>463.4</ele>
      </trkpt>
      <trkpt lat="46.50189" lon="4.75759">
        <ele>458</ele>
      </trkpt>
      <trkpt lat="46.50199" lon="4.75746">
        <ele>455.4</ele>
      </trkpt>
      <trkpt lat="46.50207" lon="4.75734">
        <ele>453.1</ele>
      </trkpt>
      <trkpt lat="46.50219" lon="4.75721">
        <ele>451.4</ele>
      </trkpt>
      <trkpt lat="46.50225" lon="4.7571">
        <ele>448.7</ele>
      </trkpt>
      <trkpt lat="46.50235" lon="4.75692">
        <ele>444.1</ele>
      </trkpt>
      <trkpt lat="46.5027" lon="4.75684">
        <ele>445</ele>
      </trkpt>
      <trkpt lat="46.50308" lon="4.75657">
        <ele>442.4</ele>
      </trkpt>
      <trkpt lat="46.50328" lon="4.75637">
        <ele>439.5</ele>
      </trkpt>
      <trkpt lat="46.50344" lon="4.75624">
        <ele>437</ele>
      </trkpt>
      <trkpt lat="46.50352" lon="4.75618">
        <ele>435.5</ele>
      </trkpt>
      <trkpt lat="46.50357" lon="4.7561">
        <ele>433.6</ele>
      </trkpt>
      <trkpt lat="46.5037" lon="4.75607">
        <ele>432.6</ele>
      </trkpt>
      <trkpt lat="46.50383" lon="4.75597">
        <ele>429.6</ele>
      </trkpt>
      <trkpt lat="46.5039" lon="4.75577">
        <ele>424.8</ele>
      </trkpt>
      <trkpt lat="46.50402" lon="4.75558">
        <ele>420.6</ele>
      </trkpt>
      <trkpt lat="46.50427" lon="4.75526">
        <ele>413.2</ele>
      </trkpt>
      <trkpt lat="46.50486" lon="4.75478">
        <ele>399.6</ele>
      </trkpt>
      <trkpt lat="46.50528" lon="4.75461">
        <ele>392.7</ele>
      </trkpt>
      <trkpt lat="46.50573" lon="4.7544">
        <ele>384.3</ele>
      </trkpt>
      <trkpt lat="46.50576" lon="4.75438">
        <ele>383.5</ele>
      </trkpt>
      <trkpt lat="46.50611" lon="4.75417">
        <ele>374</ele>
      </trkpt>
      <trkpt lat="46.50668" lon="4.75401">
        <ele>364.1</ele>
      </trkpt>
      <trkpt lat="46.50748" lon="4.7536">
        <ele>350.2</ele>
      </trkpt>
      <trkpt lat="46.50812" lon="4.75341">
        <ele>341.2</ele>
      </trkpt>
      <trkpt lat="46.50854" lon="4.75362">
        <ele>335.3</ele>
      </trkpt>
      <trkpt lat="46.50987" lon="4.75484">
        <ele>309.7</ele>
      </trkpt>
      <trkpt lat="46.51008" lon="4.7549">
        <ele>307.4</ele>
      </trkpt>
      <trkpt lat="46.51038" lon="4.75499">
        <ele>305.3</ele>
      </trkpt>
      <trkpt lat="46.51065" lon="4.75506">
        <ele>303.7</ele>
      </trkpt>
      <trkpt lat="46.51094" lon="4.75515">
        <ele>302.6</ele>
      </trkpt>
      <trkpt lat="46.51098" lon="4.75497">
        <ele>302.4</ele>
      </trkpt>
      <trkpt lat="46.51101" lon="4.75485">
        <ele>301.8</ele>
      </trkpt>
      <trkpt lat="46.51106" lon="4.75473">
        <ele>301.2</ele>
      </trkpt>
      <trkpt lat="46.51117" lon="4.75477">
        <ele>301.2</ele>
      </trkpt>
      <trkpt lat="46.51135" lon="4.75486">
        <ele>301.5</ele>
      </trkpt>
      <trkpt lat="46.51153" lon="4.75495">
        <ele>301.8</ele>
      </trkpt>
      <trkpt lat="46.51169" lon="4.75503">
        <ele>301.9</ele>
      </trkpt>
      <trkpt lat="46.51186" lon="4.75511">
        <ele>301.3</ele>
      </trkpt>
      <trkpt lat="46.51203" lon="4.75514">
        <ele>300.6</ele>
      </trkpt>
      <trkpt lat="46.51225" lon="4.75521">
        <ele>299.7</ele>
      </trkpt>
      <trkpt lat="46.51243" lon="4.75524">
        <ele>299.2</ele>
      </trkpt>
      <trkpt lat="46.51253" lon="4.75526">
        <ele>298.9</ele>
      </trkpt>
      <trkpt lat="46.51263" lon="4.75527">
        <ele>298.5</ele>
      </trkpt>
      <trkpt lat="46.51275" lon="4.75526">
        <ele>298</ele>
      </trkpt>
      <trkpt lat="46.51287" lon="4.75523">
        <ele>296.5</ele>
      </trkpt>
      <trkpt lat="46.51293" lon="4.75525">
        <ele>295.7</ele>
      </trkpt>
      <trkpt lat="46.51307" lon="4.75531">
        <ele>293.9</ele>
      </trkpt>
      <trkpt lat="46.51324" lon="4.75542">
        <ele>292.7</ele>
      </trkpt>
      <trkpt lat="46.51346" lon="4.75555">
        <ele>291.6</ele>
      </trkpt>
      <trkpt lat="46.51367" lon="4.7557">
        <ele>290.9</ele>
      </trkpt>
      <trkpt lat="46.51375" lon="4.75576">
        <ele>290.9</ele>
      </trkpt>
      <trkpt lat="46.51385" lon="4.75557">
        <ele>290.2</ele>
      </trkpt>
      <trkpt lat="46.51393" lon="4.75541">
        <ele>289.4</ele>
      </trkpt>
      <trkpt lat="46.51405" lon="4.75522">
        <ele>288</ele>
      </trkpt>
      <trkpt lat="46.51414" lon="4.75504">
        <ele>286.4</ele>
      </trkpt>
      <trkpt lat="46.51424" lon="4.75481">
        <ele>285.4</ele>
      </trkpt>
      <trkpt lat="46.51433" lon="4.75462">
        <ele>284.1</ele>
      </trkpt>
      <trkpt lat="46.51438" lon="4.75448">
        <ele>283.1</ele>
      </trkpt>
      <trkpt lat="46.51447" lon="4.7543">
        <ele>281.5</ele>
      </trkpt>
      <trkpt lat="46.51456" lon="4.75414">
        <ele>280.6</ele>
      </trkpt>
      <trkpt lat="46.51464" lon="4.75402">
        <ele>280</ele>
      </trkpt>
      <trkpt lat="46.51473" lon="4.75393">
        <ele>279.5</ele>
      </trkpt>
      <trkpt lat="46.51481" lon="4.75387">
        <ele>279.2</ele>
      </trkpt>
      <trkpt lat="46.5149" lon="4.75378">
        <ele>278.9</ele>
      </trkpt>
      <trkpt lat="46.51507" lon="4.75361">
        <ele>278.2</ele>
      </trkpt>
      <trkpt lat="46.51522" lon="4.75342">
        <ele>276.9</ele>
      </trkpt>
      <trkpt lat="46.51533" lon="4.75326">
        <ele>275.7</ele>
      </trkpt>
      <trkpt lat="46.5154" lon="4.75317">
        <ele>275.2</ele>
      </trkpt>
      <trkpt lat="46.51552" lon="4.75299">
        <ele>274.4</ele>
      </trkpt>
      <trkpt lat="46.51568" lon="4.75273">
        <ele>272.6</ele>
      </trkpt>
      <trkpt lat="46.51579" lon="4.75255">
        <ele>271.4</ele>
      </trkpt>
      <trkpt lat="46.51589" lon="4.75239">
        <ele>270.3</ele>
      </trkpt>
      <trkpt lat="46.51597" lon="4.75219">
        <ele>269.2</ele>
      </trkpt>
      <trkpt lat="46.51608" lon="4.75193">
        <ele>267.7</ele>
      </trkpt>
      <trkpt lat="46.51616" lon="4.75173">
        <ele>265.8</ele>
      </trkpt>
      <trkpt lat="46.51621" lon="4.75164">
        <ele>265.1</ele>
      </trkpt>
      <trkpt lat="46.51629" lon="4.75153">
        <ele>264.4</ele>
      </trkpt>
      <trkpt lat="46.51637" lon="4.75144">
        <ele>263.6</ele>
      </trkpt>
      <trkpt lat="46.51647" lon="4.75136">
        <ele>262.7</ele>
      </trkpt>
      <trkpt lat="46.5166" lon="4.75131">
        <ele>262.2</ele>
      </trkpt>
      <trkpt lat="46.5167" lon="4.75128">
        <ele>261.8</ele>
      </trkpt>
      <trkpt lat="46.51677" lon="4.75128">
        <ele>261.8</ele>
      </trkpt>
      <trkpt lat="46.51683" lon="4.75126">
        <ele>261.6</ele>
      </trkpt>
      <trkpt lat="46.5169" lon="4.75122">
        <ele>261.2</ele>
      </trkpt>
      <trkpt lat="46.51697" lon="4.75118">
        <ele>260.7</ele>
      </trkpt>
      <trkpt lat="46.51704" lon="4.7511">
        <ele>260.2</ele>
      </trkpt>
      <trkpt lat="46.5171" lon="4.75102">
        <ele>259.7</ele>
      </trkpt>
      <trkpt lat="46.51716" lon="4.75092">
        <ele>258.9</ele>
      </trkpt>
      <trkpt lat="46.51718" lon="4.75087">
        <ele>258.4</ele>
      </trkpt>
      <trkpt lat="46.51719" lon="4.75083">
        <ele>257.9</ele>
      </trkpt>
      <trkpt lat="46.51722" lon="4.75072">
        <ele>257.2</ele>
      </trkpt>
      <trkpt lat="46.51727" lon="4.75065">
        <ele>256.8</ele>
      </trkpt>
      <trkpt lat="46.51731" lon="4.75057">
        <ele>256.4</ele>
      </trkpt>
      <trkpt lat="46.51739" lon="4.75046">
        <ele>255.9</ele>
      </trkpt>
      <trkpt lat="46.51739" lon="4.75035">
        <ele>255.1</ele>
      </trkpt>
      <trkpt lat="46.51739" lon="4.75018">
        <ele>253.9</ele>
      </trkpt>
      <trkpt lat="46.51739" lon="4.75001">
        <ele>252.7</ele>
      </trkpt>
      <trkpt lat="46.51739" lon="4.74977">
        <ele>250.9</ele>
      </trkpt>
      <trkpt lat="46.51739" lon="4.74949">
        <ele>247.6</ele>
      </trkpt>
      <trkpt lat="46.5174" lon="4.74932">
        <ele>246.1</ele>
      </trkpt>
      <trkpt lat="46.51741" lon="4.74922">
        <ele>245.4</ele>
      </trkpt>
      <trkpt lat="46.51739" lon="4.74919">
        <ele>245.2</ele>
      </trkpt>
      <trkpt lat="46.51737" lon="4.74916">
        <ele>244.9</ele>
      </trkpt>
      <trkpt lat="46.51732" lon="4.74913">
        <ele>244.7</ele>
      </trkpt>
      <trkpt lat="46.51728" lon="4.7491">
        <ele>244.4</ele>
      </trkpt>
      <trkpt lat="46.51724" lon="4.74906">
        <ele>244.2</ele>
      </trkpt>
      <trkpt lat="46.51722" lon="4.74901">
        <ele>243.8</ele>
      </trkpt>
      <trkpt lat="46.51721" lon="4.74896">
        <ele>243.5</ele>
      </trkpt>
      <trkpt lat="46.51721" lon="4.74887">
        <ele>242.9</ele>
      </trkpt>
      <trkpt lat="46.51723" lon="4.74874">
        <ele>242.5</ele>
      </trkpt>
      <trkpt lat="46.51726" lon="4.74861">
        <ele>242</ele>
      </trkpt>
      <trkpt lat="46.51728" lon="4.74851">
        <ele>242</ele>
      </trkpt>
      <trkpt lat="46.51731" lon="4.74832">
        <ele>242</ele>
      </trkpt>
      <trkpt lat="46.51734" lon="4.74817">
        <ele>242</ele>
      </trkpt>
      <trkpt lat="46.51735" lon="4.74811">
        <ele>242</ele>
      </trkpt>
      <trkpt lat="46.51738" lon="4.74806">
        <ele>242</ele>
      </trkpt>
      <trkpt lat="46.51741" lon="4.74803">
        <ele>242.1</ele>
      </trkpt>
      <trkpt lat="46.51746" lon="4.74802">
        <ele>242.1</ele>
      </trkpt>
      <trkpt lat="46.51755" lon="4.74801">
        <ele>242.1</ele>
      </trkpt>
      <trkpt lat="46.5178" lon="4.74803">
        <ele>242</ele>
      </trkpt>
      <trkpt lat="46.51788" lon="4.74803">
        <ele>242</ele>
      </trkpt>
      <trkpt lat="46.51794" lon="4.74802">
        <ele>242</ele>
      </trkpt>
      <trkpt lat="46.51799" lon="4.74799">
        <ele>242</ele>
      </trkpt>
      <trkpt lat="46.51804" lon="4.74795">
        <ele>242</ele>
      </trkpt>
      <trkpt lat="46.51815" lon="4.74781">
        <ele>242</ele>
      </trkpt>
      <trkpt lat="46.5185" lon="4.74727">
        <ele>244.2</ele>
      </trkpt>
      <trkpt lat="46.51859" lon="4.74716">
        <ele>244.5</ele>
      </trkpt>
      <trkpt lat="46.51849" lon="4.74716">
        <ele>244.9</ele>
      </trkpt>
      <trkpt lat="46.51859" lon="4.74709">
        <ele>245.1</ele>
      </trkpt>
      <trkpt lat="46.51864" lon="4.74702">
        <ele>245.5</ele>
      </trkpt>
      <trkpt lat="46.51868" lon="4.74696">
        <ele>246.1</ele>
      </trkpt>
      <trkpt lat="46.51872" lon="4.74687">
        <ele>246.8</ele>
      </trkpt>
      <trkpt lat="46.51878" lon="4.74668">
        <ele>248.2</ele>
      </trkpt>
      <trkpt lat="46.51883" lon="4.74621">
        <ele>249.4</ele>
      </trkpt>
      <trkpt lat="46.51885" lon="4.74591">
        <ele>250.1</ele>
      </trkpt>
      <trkpt lat="46.51887" lon="4.74563">
        <ele>250.7</ele>
      </trkpt>
      <trkpt lat="46.51889" lon="4.74542">
        <ele>251.6</ele>
      </trkpt>
      <trkpt lat="46.51891" lon="4.7453">
        <ele>252.4</ele>
      </trkpt>
      <trkpt lat="46.51893" lon="4.74517">
        <ele>253</ele>
      </trkpt>
      <trkpt lat="46.51896" lon="4.74504">
        <ele>253.4</ele>
      </trkpt>
      <trkpt lat="46.51899" lon="4.74494">
        <ele>253.8</ele>
      </trkpt>
      <trkpt lat="46.51908" lon="4.74468">
        <ele>254.4</ele>
      </trkpt>
      <trkpt lat="46.51917" lon="4.74441">
        <ele>255</ele>
      </trkpt>
      <trkpt lat="46.51923" lon="4.74418">
        <ele>255.5</ele>
      </trkpt>
      <trkpt lat="46.51925" lon="4.74412">
        <ele>255.6</ele>
      </trkpt>
      <trkpt lat="46.5193" lon="4.74398">
        <ele>255.9</ele>
      </trkpt>
      <trkpt lat="46.51935" lon="4.7438">
        <ele>256.4</ele>
      </trkpt>
      <trkpt lat="46.5194" lon="4.74367">
        <ele>256.8</ele>
      </trkpt>
      <trkpt lat="46.5195" lon="4.74347">
        <ele>257.4</ele>
      </trkpt>
      <trkpt lat="46.51959" lon="4.74332">
        <ele>258.1</ele>
      </trkpt>
      <trkpt lat="46.5197" lon="4.74317">
        <ele>258.9</ele>
      </trkpt>
      <trkpt lat="46.51986" lon="4.74301">
        <ele>259.9</ele>
      </trkpt>
      <trkpt lat="46.52001" lon="4.74288">
        <ele>260.4</ele>
      </trkpt>
      <trkpt lat="46.52014" lon="4.74275">
        <ele>260.5</ele>
      </trkpt>
      <trkpt lat="46.52017" lon="4.74272">
        <ele>260.6</ele>
      </trkpt>
      <trkpt lat="46.52025" lon="4.74267">
        <ele>260.9</ele>
      </trkpt>
      <trkpt lat="46.52031" lon="4.74262">
        <ele>261</ele>
      </trkpt>
      <trkpt lat="46.5204" lon="4.74256">
        <ele>261</ele>
      </trkpt>
      <trkpt lat="46.52047" lon="4.74253">
        <ele>261</ele>
      </trkpt>
      <trkpt lat="46.52054" lon="4.7425">
        <ele>261</ele>
      </trkpt>
      <trkpt lat="46.52068" lon="4.74247">
        <ele>260.9</ele>
      </trkpt>
      <trkpt lat="46.52094" lon="4.74241">
        <ele>260.8</ele>
      </trkpt>
      <trkpt lat="46.5211" lon="4.74238">
        <ele>261</ele>
      </trkpt>
      <trkpt lat="46.52125" lon="4.74234">
        <ele>261.5</ele>
      </trkpt>
      <trkpt lat="46.52149" lon="4.74227">
        <ele>262.3</ele>
      </trkpt>
      <trkpt lat="46.52176" lon="4.74221">
        <ele>263.6</ele>
      </trkpt>
      <trkpt lat="46.52216" lon="4.74211">
        <ele>265.7</ele>
      </trkpt>
      <trkpt lat="46.52232" lon="4.74206">
        <ele>266.7</ele>
      </trkpt>
      <trkpt lat="46.52239" lon="4.74203">
        <ele>267.2</ele>
      </trkpt>
      <trkpt lat="46.52245" lon="4.74199">
        <ele>267.6</ele>
      </trkpt>
      <trkpt lat="46.52249" lon="4.74193">
        <ele>268</ele>
      </trkpt>
      <trkpt lat="46.52254" lon="4.74188">
        <ele>268.2</ele>
      </trkpt>
      <trkpt lat="46.52258" lon="4.74178">
        <ele>268.4</ele>
      </trkpt>
      <trkpt lat="46.52267" lon="4.74158">
        <ele>268.2</ele>
      </trkpt>
      <trkpt lat="46.52274" lon="4.7414">
        <ele>267.9</ele>
      </trkpt>
      <trkpt lat="46.52283" lon="4.74124">
        <ele>267.2</ele>
      </trkpt>
      <trkpt lat="46.52288" lon="4.74117">
        <ele>266.8</ele>
      </trkpt>
      <trkpt lat="46.52294" lon="4.74113">
        <ele>266.5</ele>
      </trkpt>
      <trkpt lat="46.52299" lon="4.74112">
        <ele>266.3</ele>
      </trkpt>
      <trkpt lat="46.52304" lon="4.74112">
        <ele>266.1</ele>
      </trkpt>
      <trkpt lat="46.52308" lon="4.74112">
        <ele>265.9</ele>
      </trkpt>
      <trkpt lat="46.52311" lon="4.74114">
        <ele>265.8</ele>
      </trkpt>
      <trkpt lat="46.52314" lon="4.74115">
        <ele>265.6</ele>
      </trkpt>
      <trkpt lat="46.5232" lon="4.74118">
        <ele>265.4</ele>
      </trkpt>
      <trkpt lat="46.52326" lon="4.74123">
        <ele>265</ele>
      </trkpt>
      <trkpt lat="46.52335" lon="4.74131">
        <ele>264.2</ele>
      </trkpt>
      <trkpt lat="46.52347" lon="4.74146">
        <ele>262.9</ele>
      </trkpt>
      <trkpt lat="46.52357" lon="4.74157">
        <ele>261.8</ele>
      </trkpt>
      <trkpt lat="46.52369" lon="4.74167">
        <ele>260.5</ele>
      </trkpt>
      <trkpt lat="46.52378" lon="4.74175">
        <ele>259.8</ele>
      </trkpt>
      <trkpt lat="46.52388" lon="4.74181">
        <ele>259.1</ele>
      </trkpt>
      <trkpt lat="46.52394" lon="4.74184">
        <ele>258.5</ele>
      </trkpt>
      <trkpt lat="46.52401" lon="4.74185">
        <ele>257.9</ele>
      </trkpt>
      <trkpt lat="46.52409" lon="4.74185">
        <ele>257.1</ele>
      </trkpt>
      <trkpt lat="46.52416" lon="4.74184">
        <ele>256.5</ele>
      </trkpt>
      <trkpt lat="46.52437" lon="4.74174">
        <ele>254.8</ele>
      </trkpt>
      <trkpt lat="46.52453" lon="4.74166">
        <ele>253.5</ele>
      </trkpt>
      <trkpt lat="46.52462" lon="4.7416">
        <ele>253</ele>
      </trkpt>
      <trkpt lat="46.52468" lon="4.74157">
        <ele>252.7</ele>
      </trkpt>
      <trkpt lat="46.52472" lon="4.74155">
        <ele>252.5</ele>
      </trkpt>
      <trkpt lat="46.52473" lon="4.7412">
        <ele>253.6</ele>
      </trkpt>
      <trkpt lat="46.52474" lon="4.74115">
        <ele>253.7</ele>
      </trkpt>
      <trkpt lat="46.52476" lon="4.74112">
        <ele>253.5</ele>
      </trkpt>
      <trkpt lat="46.52483" lon="4.74109">
        <ele>252.9</ele>
      </trkpt>
      <trkpt lat="46.5249" lon="4.74107">
        <ele>252.2</ele>
      </trkpt>
      <trkpt lat="46.525" lon="4.74106">
        <ele>251.2</ele>
      </trkpt>
      <trkpt lat="46.52509" lon="4.74106">
        <ele>250.5</ele>
      </trkpt>
      <trkpt lat="46.52511" lon="4.74099">
        <ele>250.5</ele>
      </trkpt>
      <trkpt lat="46.52513" lon="4.74091">
        <ele>250.4</ele>
      </trkpt>
      <trkpt lat="46.52519" lon="4.74087">
        <ele>249.9</ele>
      </trkpt>
      <trkpt lat="46.52529" lon="4.74081">
        <ele>248.9</ele>
      </trkpt>
      <trkpt lat="46.52537" lon="4.74078">
        <ele>248</ele>
      </trkpt>
      <trkpt lat="46.52554" lon="4.74071">
        <ele>246.6</ele>
      </trkpt>
      <trkpt lat="46.52566" lon="4.74071">
        <ele>245.6</ele>
      </trkpt>
      <trkpt lat="46.52582" lon="4.74071">
        <ele>244.1</ele>
      </trkpt>
      <trkpt lat="46.52592" lon="4.74073">
        <ele>243.7</ele>
      </trkpt>
      <trkpt lat="46.52598" lon="4.74076">
        <ele>243.5</ele>
      </trkpt>
      <trkpt lat="46.526" lon="4.7407">
        <ele>243.4</ele>
      </trkpt>
      <trkpt lat="46.52616" lon="4.74079">
        <ele>242.8</ele>
      </trkpt>
      <trkpt lat="46.52642" lon="4.74091">
        <ele>241.9</ele>
      </trkpt>
      <trkpt lat="46.5265" lon="4.74094">
        <ele>241.8</ele>
      </trkpt>
      <trkpt lat="46.52656" lon="4.74096">
        <ele>241.7</ele>
      </trkpt>
      <trkpt lat="46.52663" lon="4.74096">
        <ele>241.5</ele>
      </trkpt>
      <trkpt lat="46.52687" lon="4.74094">
        <ele>241.4</ele>
      </trkpt>
      <trkpt lat="46.527" lon="4.74092">
        <ele>241.6</ele>
      </trkpt>
      <trkpt lat="46.52717" lon="4.7409">
        <ele>242.2</ele>
      </trkpt>
      <trkpt lat="46.52735" lon="4.74088">
        <ele>242.8</ele>
      </trkpt>
      <trkpt lat="46.52752" lon="4.74087">
        <ele>243.3</ele>
      </trkpt>
      <trkpt lat="46.52763" lon="4.74087">
        <ele>243.4</ele>
      </trkpt>
      <trkpt lat="46.52776" lon="4.74088">
        <ele>243.7</ele>
      </trkpt>
      <trkpt lat="46.52795" lon="4.74093">
        <ele>244.3</ele>
      </trkpt>
      <trkpt lat="46.52813" lon="4.74096">
        <ele>244.9</ele>
      </trkpt>
      <trkpt lat="46.52829" lon="4.74099">
        <ele>245.2</ele>
      </trkpt>
      <trkpt lat="46.52842" lon="4.741">
        <ele>245.8</ele>
      </trkpt>
      <trkpt lat="46.52855" lon="4.74098">
        <ele>246.3</ele>
      </trkpt>
      <trkpt lat="46.52881" lon="4.74095">
        <ele>247</ele>
      </trkpt>
      <trkpt lat="46.52891" lon="4.74093">
        <ele>247.1</ele>
      </trkpt>
      <trkpt lat="46.52913" lon="4.74088">
        <ele>247.4</ele>
      </trkpt>
      <trkpt lat="46.52936" lon="4.74086">
        <ele>247.3</ele>
      </trkpt>
      <trkpt lat="46.52954" lon="4.74085">
        <ele>247.6</ele>
      </trkpt>
      <trkpt lat="46.52967" lon="4.74086">
        <ele>248.1</ele>
      </trkpt>
      <trkpt lat="46.52979" lon="4.74088">
        <ele>248.3</ele>
      </trkpt>
      <trkpt lat="46.52993" lon="4.74094">
        <ele>248.4</ele>
      </trkpt>
      <trkpt lat="46.5301" lon="4.74103">
        <ele>248.8</ele>
      </trkpt>
      <trkpt lat="46.53016" lon="4.74106">
        <ele>248.9</ele>
      </trkpt>
      <trkpt lat="46.53025" lon="4.74109">
        <ele>248.9</ele>
      </trkpt>
      <trkpt lat="46.53025" lon="4.74117">
        <ele>249.7</ele>
      </trkpt>
      <trkpt lat="46.53028" lon="4.74127">
        <ele>250.7</ele>
      </trkpt>
      <trkpt lat="46.53037" lon="4.74152">
        <ele>251.7</ele>
      </trkpt>
      <trkpt lat="46.53047" lon="4.7418">
        <ele>251.1</ele>
      </trkpt>
      <trkpt lat="46.53052" lon="4.74198">
        <ele>250.7</ele>
      </trkpt>
      <trkpt lat="46.53058" lon="4.74214">
        <ele>251.2</ele>
      </trkpt>
      <trkpt lat="46.53061" lon="4.74228">
        <ele>251.6</ele>
      </trkpt>
      <trkpt lat="46.53073" lon="4.74257">
        <ele>251.1</ele>
      </trkpt>
      <trkpt lat="46.53079" lon="4.74272">
        <ele>250.5</ele>
      </trkpt>
      <trkpt lat="46.53086" lon="4.74294">
        <ele>250.3</ele>
      </trkpt>
      <trkpt lat="46.5309" lon="4.74307">
        <ele>250.2</ele>
      </trkpt>
      <trkpt lat="46.53096" lon="4.74325">
        <ele>248.9</ele>
      </trkpt>
      <trkpt lat="46.53104" lon="4.7435">
        <ele>247.7</ele>
      </trkpt>
      <trkpt lat="46.53116" lon="4.74383">
        <ele>245.5</ele>
      </trkpt>
      <trkpt lat="46.53122" lon="4.74406">
        <ele>244.4</ele>
      </trkpt>
      <trkpt lat="46.53125" lon="4.74419">
        <ele>244.1</ele>
      </trkpt>
      <trkpt lat="46.53127" lon="4.74433">
        <ele>244.1</ele>
      </trkpt>
      <trkpt lat="46.53128" lon="4.74445">
        <ele>244.2</ele>
      </trkpt>
      <trkpt lat="46.53129" lon="4.74456">
        <ele>244.4</ele>
      </trkpt>
      <trkpt lat="46.53133" lon="4.74477">
        <ele>244.6</ele>
      </trkpt>
      <trkpt lat="46.53139" lon="4.74496">
        <ele>244.8</ele>
      </trkpt>
      <trkpt lat="46.53145" lon="4.74515">
        <ele>244.4</ele>
      </trkpt>
      <trkpt lat="46.53154" lon="4.74535">
        <ele>244.1</ele>
      </trkpt>
      <trkpt lat="46.5316" lon="4.74544">
        <ele>244.1</ele>
      </trkpt>
      <trkpt lat="46.53167" lon="4.74555">
        <ele>244</ele>
      </trkpt>
      <trkpt lat="46.53176" lon="4.74569">
        <ele>244</ele>
      </trkpt>
      <trkpt lat="46.53185" lon="4.74583">
        <ele>244.3</ele>
      </trkpt>
      <trkpt lat="46.53197" lon="4.74607">
        <ele>245.6</ele>
      </trkpt>
      <trkpt lat="46.53205" lon="4.74623">
        <ele>246.5</ele>
      </trkpt>
      <trkpt lat="46.5321" lon="4.74632">
        <ele>246.9</ele>
      </trkpt>
      <trkpt lat="46.53217" lon="4.74639">
        <ele>247.1</ele>
      </trkpt>
      <trkpt lat="46.5324" lon="4.74653">
        <ele>248.2</ele>
      </trkpt>
      <trkpt lat="46.53249" lon="4.74658">
        <ele>248.4</ele>
      </trkpt>
      <trkpt lat="46.53259" lon="4.74668">
        <ele>248.5</ele>
      </trkpt>
      <trkpt lat="46.53269" lon="4.74681">
        <ele>249.1</ele>
      </trkpt>
      <trkpt lat="46.53274" lon="4.74691">
        <ele>249.8</ele>
      </trkpt>
      <trkpt lat="46.53277" lon="4.74698">
        <ele>250.3</ele>
      </trkpt>
      <trkpt lat="46.53279" lon="4.74706">
        <ele>250.8</ele>
      </trkpt>
      <trkpt lat="46.5328" lon="4.74715">
        <ele>251.4</ele>
      </trkpt>
      <trkpt lat="46.5328" lon="4.74729">
        <ele>252.2</ele>
      </trkpt>
      <trkpt lat="46.53278" lon="4.74742">
        <ele>252.7</ele>
      </trkpt>
      <trkpt lat="46.53278" lon="4.74752">
        <ele>253.1</ele>
      </trkpt>
      <trkpt lat="46.53279" lon="4.74762">
        <ele>253.9</ele>
      </trkpt>
      <trkpt lat="46.53281" lon="4.74776">
        <ele>254.8</ele>
      </trkpt>
      <trkpt lat="46.53282" lon="4.74788">
        <ele>255.7</ele>
      </trkpt>
      <trkpt lat="46.53283" lon="4.74807">
        <ele>256.8</ele>
      </trkpt>
      <trkpt lat="46.53283" lon="4.7482">
        <ele>256.9</ele>
      </trkpt>
      <trkpt lat="46.53282" lon="4.74833">
        <ele>257</ele>
      </trkpt>
      <trkpt lat="46.53281" lon="4.74845">
        <ele>257</ele>
      </trkpt>
      <trkpt lat="46.53281" lon="4.74851">
        <ele>257</ele>
      </trkpt>
      <trkpt lat="46.53284" lon="4.74855">
        <ele>257</ele>
      </trkpt>
      <trkpt lat="46.5329" lon="4.74863">
        <ele>256.9</ele>
      </trkpt>
      <trkpt lat="46.53306" lon="4.74879">
        <ele>256.4</ele>
      </trkpt>
      <trkpt lat="46.53327" lon="4.74897">
        <ele>255.7</ele>
      </trkpt>
      <trkpt lat="46.53336" lon="4.74905">
        <ele>255.5</ele>
      </trkpt>
      <trkpt lat="46.53343" lon="4.74913">
        <ele>255.5</ele>
      </trkpt>
      <trkpt lat="46.53351" lon="4.74928">
        <ele>255.2</ele>
      </trkpt>
      <trkpt lat="46.53356" lon="4.74936">
        <ele>255.1</ele>
      </trkpt>
      <trkpt lat="46.53361" lon="4.74944">
        <ele>255</ele>
      </trkpt>
      <trkpt lat="46.53368" lon="4.74952">
        <ele>255</ele>
      </trkpt>
      <trkpt lat="46.53373" lon="4.74962">
        <ele>254.8</ele>
      </trkpt>
      <trkpt lat="46.53378" lon="4.74972">
        <ele>254.6</ele>
      </trkpt>
      <trkpt lat="46.53383" lon="4.74987">
        <ele>253.8</ele>
      </trkpt>
      <trkpt lat="46.5339" lon="4.75016">
        <ele>252.4</ele>
      </trkpt>
      <trkpt lat="46.53396" lon="4.75043">
        <ele>251.7</ele>
      </trkpt>
      <trkpt lat="46.53404" lon="4.75078">
        <ele>250.3</ele>
      </trkpt>
      <trkpt lat="46.5341" lon="4.75098">
        <ele>249.3</ele>
      </trkpt>
      <trkpt lat="46.53414" lon="4.7511">
        <ele>249</ele>
      </trkpt>
      <trkpt lat="46.53419" lon="4.75122">
        <ele>248.3</ele>
      </trkpt>
      <trkpt lat="46.5343" lon="4.7515">
        <ele>246.9</ele>
      </trkpt>
      <trkpt lat="46.53444" lon="4.75182">
        <ele>244.9</ele>
      </trkpt>
      <trkpt lat="46.53453" lon="4.75203">
        <ele>243.6</ele>
      </trkpt>
      <trkpt lat="46.53465" lon="4.75225">
        <ele>242.2</ele>
      </trkpt>
      <trkpt lat="46.53467" lon="4.75234">
        <ele>241.7</ele>
      </trkpt>
      <trkpt lat="46.53469" lon="4.75251">
        <ele>241</ele>
      </trkpt>
      <trkpt lat="46.53479" lon="4.75245">
        <ele>241.2</ele>
      </trkpt>
      <trkpt lat="46.53482" lon="4.75245">
        <ele>241.2</ele>
      </trkpt>
      <trkpt lat="46.53494" lon="4.75243">
        <ele>241.5</ele>
      </trkpt>
      <trkpt lat="46.53516" lon="4.75241">
        <ele>242.4</ele>
      </trkpt>
      <trkpt lat="46.53686" lon="4.7523">
        <ele>242.4</ele>
      </trkpt>
      <trkpt lat="46.53754" lon="4.75225">
        <ele>245</ele>
      </trkpt>
      <trkpt lat="46.53837" lon="4.75217">
        <ele>247.3</ele>
      </trkpt>
      <trkpt lat="46.53848" lon="4.75216">
        <ele>247.4</ele>
      </trkpt>
      <trkpt lat="46.53871" lon="4.75212">
        <ele>247.7</ele>
      </trkpt>
      <trkpt lat="46.53905" lon="4.75206">
        <ele>248.1</ele>
      </trkpt>
      <trkpt lat="46.53918" lon="4.75204">
        <ele>248.3</ele>
      </trkpt>
      <trkpt lat="46.53945" lon="4.75199">
        <ele>247.7</ele>
      </trkpt>
      <trkpt lat="46.53984" lon="4.75192">
        <ele>246.9</ele>
      </trkpt>
      <trkpt lat="46.5401" lon="4.75188">
        <ele>246.6</ele>
      </trkpt>
      <trkpt lat="46.54086" lon="4.75175">
        <ele>247.4</ele>
      </trkpt>
      <trkpt lat="46.5413" lon="4.75167">
        <ele>248.6</ele>
      </trkpt>
      <trkpt lat="46.54154" lon="4.75164">
        <ele>249.7</ele>
      </trkpt>
      <trkpt lat="46.54166" lon="4.75161">
        <ele>250.2</ele>
      </trkpt>
      <trkpt lat="46.54225" lon="4.75151">
        <ele>250.6</ele>
      </trkpt>
      <trkpt lat="46.54228" lon="4.7515">
        <ele>250.6</ele>
      </trkpt>
      <trkpt lat="46.54262" lon="4.75144">
        <ele>250.7</ele>
      </trkpt>
      <trkpt lat="46.54317" lon="4.75135">
        <ele>250.1</ele>
      </trkpt>
      <trkpt lat="46.54392" lon="4.75122">
        <ele>250.6</ele>
      </trkpt>
      <trkpt lat="46.54399" lon="4.75123">
        <ele>250.6</ele>
      </trkpt>
      <trkpt lat="46.54402" lon="4.75123">
        <ele>250.6</ele>
      </trkpt>
      <trkpt lat="46.54406" lon="4.75124">
        <ele>250.5</ele>
      </trkpt>
      <trkpt lat="46.54489" lon="4.7516">
        <ele>250.6</ele>
      </trkpt>
      <trkpt lat="46.54499" lon="4.75164">
        <ele>250.9</ele>
      </trkpt>
      <trkpt lat="46.54556" lon="4.75194">
        <ele>251</ele>
      </trkpt>
      <trkpt lat="46.54632" lon="4.75229">
        <ele>251.2</ele>
      </trkpt>
      <trkpt lat="46.54724" lon="4.75272">
        <ele>251.8</ele>
      </trkpt>
      <trkpt lat="46.5473" lon="4.75275">
        <ele>251.9</ele>
      </trkpt>
      <trkpt lat="46.54756" lon="4.75288">
        <ele>251.8</ele>
      </trkpt>
      <trkpt lat="46.54771" lon="4.75296">
        <ele>251.2</ele>
      </trkpt>
      <trkpt lat="46.54815" lon="4.75316">
        <ele>251</ele>
      </trkpt>
      <trkpt lat="46.54893" lon="4.75355">
        <ele>250</ele>
      </trkpt>
      <trkpt lat="46.54895" lon="4.75356">
        <ele>250</ele>
      </trkpt>
      <trkpt lat="46.5491" lon="4.75365">
        <ele>250.1</ele>
      </trkpt>
      <trkpt lat="46.54913" lon="4.75361">
        <ele>250</ele>
      </trkpt>
      <trkpt lat="46.54931" lon="4.75372">
        <ele>249.9</ele>
      </trkpt>
      <trkpt lat="46.55063" lon="4.75436">
        <ele>250.7</ele>
      </trkpt>
      <trkpt lat="46.55098" lon="4.75453">
        <ele>251.1</ele>
      </trkpt>
      <trkpt lat="46.55166" lon="4.75485">
        <ele>251.5</ele>
      </trkpt>
      <trkpt lat="46.55178" lon="4.7549">
        <ele>251.4</ele>
      </trkpt>
      <trkpt lat="46.55215" lon="4.75508">
        <ele>251.3</ele>
      </trkpt>
      <trkpt lat="46.55281" lon="4.75542">
        <ele>251</ele>
      </trkpt>
      <trkpt lat="46.55351" lon="4.75574">
        <ele>251</ele>
      </trkpt>
      <trkpt lat="46.5538" lon="4.75588">
        <ele>251.6</ele>
      </trkpt>
      <trkpt lat="46.55411" lon="4.75604">
        <ele>251.8</ele>
      </trkpt>
      <trkpt lat="46.55461" lon="4.75626">
        <ele>252</ele>
      </trkpt>
      <trkpt lat="46.55501" lon="4.75646">
        <ele>251.7</ele>
      </trkpt>
      <trkpt lat="46.55513" lon="4.75654">
        <ele>251.2</ele>
      </trkpt>
      <trkpt lat="46.55521" lon="4.75656">
        <ele>251.1</ele>
      </trkpt>
      <trkpt lat="46.55538" lon="4.75659">
        <ele>251</ele>
      </trkpt>
      <trkpt lat="46.55542" lon="4.7566">
        <ele>251</ele>
      </trkpt>
      <trkpt lat="46.55547" lon="4.7566">
        <ele>251</ele>
      </trkpt>
      <trkpt lat="46.55576" lon="4.75672">
        <ele>251</ele>
      </trkpt>
      <trkpt lat="46.55455" lon="4.762">
        <ele>227.8</ele>
      </trkpt>
      <trkpt lat="46.55482" lon="4.76212">
        <ele>227.4</ele>
      </trkpt>
      <trkpt lat="46.55453" lon="4.76348">
        <ele>222.6</ele>
      </trkpt>
      <trkpt lat="46.5542" lon="4.7649">
        <ele>218</ele>
      </trkpt>
      <trkpt lat="46.55387" lon="4.76629">
        <ele>214.9</ele>
      </trkpt>
      <trkpt lat="46.55356" lon="4.76763">
        <ele>213</ele>
      </trkpt>
      <trkpt lat="46.55329" lon="4.76877">
        <ele>212</ele>
      </trkpt>
      <trkpt lat="46.55303" lon="4.76998">
        <ele>210.2</ele>
      </trkpt>
      <trkpt lat="46.55299" lon="4.77016">
        <ele>210.2</ele>
      </trkpt>
      <trkpt lat="46.55298" lon="4.77039">
        <ele>210.3</ele>
      </trkpt>
      <trkpt lat="46.55289" lon="4.7704">
        <ele>210.6</ele>
      </trkpt>
      <trkpt lat="46.55286" lon="4.77041">
        <ele>210.7</ele>
      </trkpt>
      <trkpt lat="46.55283" lon="4.77044">
        <ele>210.8</ele>
      </trkpt>
      <trkpt lat="46.55281" lon="4.77049">
        <ele>210.9</ele>
      </trkpt>
      <trkpt lat="46.55281" lon="4.77053">
        <ele>210.9</ele>
      </trkpt>
      <trkpt lat="46.5528" lon="4.77057">
        <ele>210.9</ele>
      </trkpt>
      <trkpt lat="46.55281" lon="4.77065">
        <ele>210.9</ele>
      </trkpt>
      <trkpt lat="46.55281" lon="4.77069">
        <ele>210.9</ele>
      </trkpt>
      <trkpt lat="46.55281" lon="4.77082">
        <ele>210.9</ele>
      </trkpt>
      <trkpt lat="46.55279" lon="4.77094">
        <ele>210.6</ele>
      </trkpt>
      <trkpt lat="46.55278" lon="4.77106">
        <ele>210.2</ele>
      </trkpt>
      <trkpt lat="46.55274" lon="4.77118">
        <ele>210.1</ele>
      </trkpt>
      <trkpt lat="46.55264" lon="4.77148">
        <ele>210</ele>
      </trkpt>
      <trkpt lat="46.55245" lon="4.77212">
        <ele>210</ele>
      </trkpt>
      <trkpt lat="46.55235" lon="4.77246">
        <ele>210</ele>
      </trkpt>
      <trkpt lat="46.55219" lon="4.773">
        <ele>210</ele>
      </trkpt>
      <trkpt lat="46.55201" lon="4.77361">
        <ele>210</ele>
      </trkpt>
      <trkpt lat="46.552" lon="4.77366">
        <ele>210.2</ele>
      </trkpt>
      <trkpt lat="46.5519" lon="4.77398">
        <ele>211.3</ele>
      </trkpt>
      <trkpt lat="46.55183" lon="4.77424">
        <ele>212.3</ele>
      </trkpt>
      <trkpt lat="46.55177" lon="4.77444">
        <ele>213</ele>
      </trkpt>
      <trkpt lat="46.55165" lon="4.77483">
        <ele>213.8</ele>
      </trkpt>
      <trkpt lat="46.55155" lon="4.77517">
        <ele>215.6</ele>
      </trkpt>
      <trkpt lat="46.55149" lon="4.77536">
        <ele>216.3</ele>
      </trkpt>
      <trkpt lat="46.55143" lon="4.77558">
        <ele>217.2</ele>
      </trkpt>
      <trkpt lat="46.55139" lon="4.77573">
        <ele>218.3</ele>
      </trkpt>
      <trkpt lat="46.55128" lon="4.77607">
        <ele>219.8</ele>
      </trkpt>
      <trkpt lat="46.55115" lon="4.77649">
        <ele>221.4</ele>
      </trkpt>
      <trkpt lat="46.55104" lon="4.77683">
        <ele>223.4</ele>
      </trkpt>
      <trkpt lat="46.55092" lon="4.77723">
        <ele>226</ele>
      </trkpt>
      <trkpt lat="46.55078" lon="4.77766">
        <ele>229.3</ele>
      </trkpt>
      <trkpt lat="46.55069" lon="4.77796">
        <ele>231.2</ele>
      </trkpt>
      <trkpt lat="46.55062" lon="4.77823">
        <ele>231.8</ele>
      </trkpt>
      <trkpt lat="46.55056" lon="4.77841">
        <ele>232</ele>
      </trkpt>
      <trkpt lat="46.55051" lon="4.77866">
        <ele>232.2</ele>
      </trkpt>
      <trkpt lat="46.55047" lon="4.77888">
        <ele>232.3</ele>
      </trkpt>
      <trkpt lat="46.55043" lon="4.77912">
        <ele>232.5</ele>
      </trkpt>
      <trkpt lat="46.55037" lon="4.77943">
        <ele>232.7</ele>
      </trkpt>
      <trkpt lat="46.55033" lon="4.7796">
        <ele>232.2</ele>
      </trkpt>
      <trkpt lat="46.55029" lon="4.77973">
        <ele>231.9</ele>
      </trkpt>
      <trkpt lat="46.55025" lon="4.77985">
        <ele>231.7</ele>
      </trkpt>
      <trkpt lat="46.55021" lon="4.77996">
        <ele>231.5</ele>
      </trkpt>
      <trkpt lat="46.55015" lon="4.78008">
        <ele>231.2</ele>
      </trkpt>
      <trkpt lat="46.55006" lon="4.7803">
        <ele>230.8</ele>
      </trkpt>
      <trkpt lat="46.55003" lon="4.78042">
        <ele>230.9</ele>
      </trkpt>
      <trkpt lat="46.55001" lon="4.78057">
        <ele>230.9</ele>
      </trkpt>
      <trkpt lat="46.55" lon="4.78075">
        <ele>231</ele>
      </trkpt>
      <trkpt lat="46.55" lon="4.78086">
        <ele>230.9</ele>
      </trkpt>
      <trkpt lat="46.55002" lon="4.78107">
        <ele>230.1</ele>
      </trkpt>
      <trkpt lat="46.55004" lon="4.78129">
        <ele>230.4</ele>
      </trkpt>
      <trkpt lat="46.55007" lon="4.78156">
        <ele>230.7</ele>
      </trkpt>
      <trkpt lat="46.5501" lon="4.78184">
        <ele>231.5</ele>
      </trkpt>
      <trkpt lat="46.55013" lon="4.78212">
        <ele>232.6</ele>
      </trkpt>
      <trkpt lat="46.55014" lon="4.78226">
        <ele>233.1</ele>
      </trkpt>
      <trkpt lat="46.55013" lon="4.78235">
        <ele>233.4</ele>
      </trkpt>
      <trkpt lat="46.55008" lon="4.78257">
        <ele>234.4</ele>
      </trkpt>
      <trkpt lat="46.55" lon="4.78289">
        <ele>237.1</ele>
      </trkpt>
      <trkpt lat="46.54993" lon="4.78319">
        <ele>239.6</ele>
      </trkpt>
      <trkpt lat="46.54984" lon="4.78353">
        <ele>242.3</ele>
      </trkpt>
      <trkpt lat="46.54976" lon="4.78381">
        <ele>245.1</ele>
      </trkpt>
      <trkpt lat="46.54971" lon="4.78396">
        <ele>246.8</ele>
      </trkpt>
      <trkpt lat="46.54969" lon="4.78415">
        <ele>248.8</ele>
      </trkpt>
      <trkpt lat="46.54966" lon="4.78438">
        <ele>251.2</ele>
      </trkpt>
      <trkpt lat="46.54964" lon="4.78457">
        <ele>252.9</ele>
      </trkpt>
      <trkpt lat="46.54961" lon="4.78475">
        <ele>254.3</ele>
      </trkpt>
      <trkpt lat="46.54956" lon="4.78498">
        <ele>255.7</ele>
      </trkpt>
      <trkpt lat="46.54949" lon="4.78519">
        <ele>256.9</ele>
      </trkpt>
      <trkpt lat="46.54944" lon="4.78536">
        <ele>257.8</ele>
      </trkpt>
      <trkpt lat="46.54943" lon="4.78547">
        <ele>259.1</ele>
      </trkpt>
      <trkpt lat="46.54943" lon="4.78556">
        <ele>260.1</ele>
      </trkpt>
      <trkpt lat="46.54948" lon="4.7858">
        <ele>262.7</ele>
      </trkpt>
      <trkpt lat="46.54954" lon="4.78606">
        <ele>265.5</ele>
      </trkpt>
      <trkpt lat="46.54957" lon="4.7863">
        <ele>267.7</ele>
      </trkpt>
      <trkpt lat="46.54959" lon="4.7865">
        <ele>269</ele>
      </trkpt>
      <trkpt lat="46.54959" lon="4.78665">
        <ele>269.9</ele>
      </trkpt>
      <trkpt lat="46.54957" lon="4.78674">
        <ele>270.4</ele>
      </trkpt>
      <trkpt lat="46.54956" lon="4.78684">
        <ele>270.8</ele>
      </trkpt>
      <trkpt lat="46.54953" lon="4.78701">
        <ele>271.6</ele>
      </trkpt>
      <trkpt lat="46.54953" lon="4.78711">
        <ele>271.8</ele>
      </trkpt>
      <trkpt lat="46.54954" lon="4.78717">
        <ele>271.8</ele>
      </trkpt>
      <trkpt lat="46.54945" lon="4.78718">
        <ele>272.8</ele>
      </trkpt>
      <trkpt lat="46.54934" lon="4.78713">
        <ele>274</ele>
      </trkpt>
      <trkpt lat="46.54911" lon="4.78704">
        <ele>276.4</ele>
      </trkpt>
      <trkpt lat="46.54902" lon="4.78701">
        <ele>277</ele>
      </trkpt>
      <trkpt lat="46.54892" lon="4.787">
        <ele>277.8</ele>
      </trkpt>
      <trkpt lat="46.54885" lon="4.78701">
        <ele>278.4</ele>
      </trkpt>
      <trkpt lat="46.54878" lon="4.78705">
        <ele>279.2</ele>
      </trkpt>
      <trkpt lat="46.54865" lon="4.7872">
        <ele>279.9</ele>
      </trkpt>
      <trkpt lat="46.54855" lon="4.78739">
        <ele>280.6</ele>
      </trkpt>
      <trkpt lat="46.54838" lon="4.78772">
        <ele>282.5</ele>
      </trkpt>
      <trkpt lat="46.54818" lon="4.78806">
        <ele>282.6</ele>
      </trkpt>
      <trkpt lat="46.54805" lon="4.7883">
        <ele>284</ele>
      </trkpt>
      <trkpt lat="46.54787" lon="4.78872">
        <ele>284.5</ele>
      </trkpt>
      <trkpt lat="46.54775" lon="4.78895">
        <ele>285.4</ele>
      </trkpt>
      <trkpt lat="46.54763" lon="4.78918">
        <ele>286.6</ele>
      </trkpt>
      <trkpt lat="46.54746" lon="4.78948">
        <ele>288.6</ele>
      </trkpt>
      <trkpt lat="46.54726" lon="4.78985">
        <ele>291.2</ele>
      </trkpt>
      <trkpt lat="46.54717" lon="4.79">
        <ele>291.9</ele>
      </trkpt>
      <trkpt lat="46.5471" lon="4.79016">
        <ele>293.5</ele>
      </trkpt>
      <trkpt lat="46.54704" lon="4.79032">
        <ele>294.7</ele>
      </trkpt>
      <trkpt lat="46.54695" lon="4.79052">
        <ele>295.9</ele>
      </trkpt>
      <trkpt lat="46.54688" lon="4.79081">
        <ele>297.3</ele>
      </trkpt>
      <trkpt lat="46.54681" lon="4.79109">
        <ele>299.3</ele>
      </trkpt>
      <trkpt lat="46.54675" lon="4.79134">
        <ele>300.8</ele>
      </trkpt>
      <trkpt lat="46.54671" lon="4.7916">
        <ele>301.9</ele>
      </trkpt>
      <trkpt lat="46.54664" lon="4.79188">
        <ele>303.6</ele>
      </trkpt>
      <trkpt lat="46.5466" lon="4.79214">
        <ele>304.2</ele>
      </trkpt>
      <trkpt lat="46.54654" lon="4.79236">
        <ele>305.8</ele>
      </trkpt>
      <trkpt lat="46.54645" lon="4.79262">
        <ele>307.7</ele>
      </trkpt>
      <trkpt lat="46.54636" lon="4.79288">
        <ele>308.9</ele>
      </trkpt>
      <trkpt lat="46.54628" lon="4.79311">
        <ele>309.4</ele>
      </trkpt>
      <trkpt lat="46.54621" lon="4.79332">
        <ele>309.1</ele>
      </trkpt>
      <trkpt lat="46.54612" lon="4.79362">
        <ele>307.9</ele>
      </trkpt>
      <trkpt lat="46.54604" lon="4.79384">
        <ele>309.4</ele>
      </trkpt>
      <trkpt lat="46.54599" lon="4.7941">
        <ele>309.6</ele>
      </trkpt>
      <trkpt lat="46.54594" lon="4.79433">
        <ele>309.7</ele>
      </trkpt>
      <trkpt lat="46.54588" lon="4.79465">
        <ele>310.1</ele>
      </trkpt>
      <trkpt lat="46.5458" lon="4.795">
        <ele>310.7</ele>
      </trkpt>
      <trkpt lat="46.54576" lon="4.79528">
        <ele>312.1</ele>
      </trkpt>
      <trkpt lat="46.54572" lon="4.79548">
        <ele>313.5</ele>
      </trkpt>
      <trkpt lat="46.54567" lon="4.79576">
        <ele>315.2</ele>
      </trkpt>
      <trkpt lat="46.54564" lon="4.79609">
        <ele>316.9</ele>
      </trkpt>
      <trkpt lat="46.54564" lon="4.79629">
        <ele>318</ele>
      </trkpt>
      <trkpt lat="46.54563" lon="4.7964">
        <ele>318.6</ele>
      </trkpt>
      <trkpt lat="46.54558" lon="4.79661">
        <ele>319</ele>
      </trkpt>
      <trkpt lat="46.54551" lon="4.79673">
        <ele>320.1</ele>
      </trkpt>
      <trkpt lat="46.54547" lon="4.79683">
        <ele>321.3</ele>
      </trkpt>
      <trkpt lat="46.54534" lon="4.79703">
        <ele>323.5</ele>
      </trkpt>
      <trkpt lat="46.54522" lon="4.79718">
        <ele>325.2</ele>
      </trkpt>
      <trkpt lat="46.54515" lon="4.79727">
        <ele>326.3</ele>
      </trkpt>
      <trkpt lat="46.54506" lon="4.79744">
        <ele>327.7</ele>
      </trkpt>
      <trkpt lat="46.54508" lon="4.79749">
        <ele>327.9</ele>
      </trkpt>
      <trkpt lat="46.54512" lon="4.79756">
        <ele>328.6</ele>
      </trkpt>
      <trkpt lat="46.5452" lon="4.79762">
        <ele>329.5</ele>
      </trkpt>
      <trkpt lat="46.5453" lon="4.79772">
        <ele>331.4</ele>
      </trkpt>
      <trkpt lat="46.54539" lon="4.79774">
        <ele>333</ele>
      </trkpt>
      <trkpt lat="46.54547" lon="4.79775">
        <ele>334.2</ele>
      </trkpt>
      <trkpt lat="46.54553" lon="4.79774">
        <ele>334.9</ele>
      </trkpt>
      <trkpt lat="46.54572" lon="4.79772">
        <ele>338.7</ele>
      </trkpt>
      <trkpt lat="46.54585" lon="4.79769">
        <ele>341.3</ele>
      </trkpt>
      <trkpt lat="46.54603" lon="4.79763">
        <ele>345.4</ele>
      </trkpt>
      <trkpt lat="46.54626" lon="4.79754">
        <ele>350.7</ele>
      </trkpt>
      <trkpt lat="46.54639" lon="4.79747">
        <ele>353.4</ele>
      </trkpt>
      <trkpt lat="46.54651" lon="4.79733">
        <ele>355.1</ele>
      </trkpt>
      <trkpt lat="46.54664" lon="4.79716">
        <ele>356.1</ele>
      </trkpt>
      <trkpt lat="46.54668" lon="4.79711">
        <ele>356.8</ele>
      </trkpt>
      <trkpt lat="46.54676" lon="4.7971">
        <ele>359.6</ele>
      </trkpt>
      <trkpt lat="46.54671" lon="4.79719">
        <ele>358.9</ele>
      </trkpt>
      <trkpt lat="46.54664" lon="4.79731">
        <ele>359.2</ele>
      </trkpt>
      <trkpt lat="46.54652" lon="4.79754">
        <ele>360</ele>
      </trkpt>
      <trkpt lat="46.54641" lon="4.79771">
        <ele>358.5</ele>
      </trkpt>
      <trkpt lat="46.54627" lon="4.7979">
        <ele>357.9</ele>
      </trkpt>
      <trkpt lat="46.54621" lon="4.79798">
        <ele>357.4</ele>
      </trkpt>
      <trkpt lat="46.54602" lon="4.7982">
        <ele>356.7</ele>
      </trkpt>
      <trkpt lat="46.54583" lon="4.7984">
        <ele>356.2</ele>
      </trkpt>
      <trkpt lat="46.5457" lon="4.79855">
        <ele>356.9</ele>
      </trkpt>
      <trkpt lat="46.54563" lon="4.79861">
        <ele>356.9</ele>
      </trkpt>
      <trkpt lat="46.5455" lon="4.79869">
        <ele>357.2</ele>
      </trkpt>
      <trkpt lat="46.54532" lon="4.7988">
        <ele>359.1</ele>
      </trkpt>
      <trkpt lat="46.54516" lon="4.79888">
        <ele>361.5</ele>
      </trkpt>
      <trkpt lat="46.54502" lon="4.79896">
        <ele>363.1</ele>
      </trkpt>
      <trkpt lat="46.54491" lon="4.79907">
        <ele>363</ele>
      </trkpt>
      <trkpt lat="46.54464" lon="4.79938">
        <ele>362.5</ele>
      </trkpt>
      <trkpt lat="46.54454" lon="4.7995">
        <ele>362.6</ele>
      </trkpt>
      <trkpt lat="46.54436" lon="4.79972">
        <ele>362.4</ele>
      </trkpt>
      <trkpt lat="46.5443" lon="4.7998">
        <ele>362.5</ele>
      </trkpt>
      <trkpt lat="46.54488" lon="4.80022">
        <ele>366</ele>
      </trkpt>
      <trkpt lat="46.54524" lon="4.80042">
        <ele>366.7</ele>
      </trkpt>
      <trkpt lat="46.54554" lon="4.80054">
        <ele>365</ele>
      </trkpt>
      <trkpt lat="46.54589" lon="4.80073">
        <ele>360.1</ele>
      </trkpt>
      <trkpt lat="46.54638" lon="4.8011">
        <ele>351.2</ele>
      </trkpt>
      <trkpt lat="46.54657" lon="4.80127">
        <ele>347.4</ele>
      </trkpt>
      <trkpt lat="46.54671" lon="4.80139">
        <ele>344.9</ele>
      </trkpt>
      <trkpt lat="46.54685" lon="4.80142">
        <ele>341.1</ele>
      </trkpt>
      <trkpt lat="46.54699" lon="4.80129">
        <ele>336.5</ele>
      </trkpt>
      <trkpt lat="46.54708" lon="4.80109">
        <ele>333.6</ele>
      </trkpt>
      <trkpt lat="46.54714" lon="4.8005">
        <ele>331.4</ele>
      </trkpt>
      <trkpt lat="46.54732" lon="4.80024">
        <ele>326.1</ele>
      </trkpt>
      <trkpt lat="46.54777" lon="4.79986">
        <ele>313.7</ele>
      </trkpt>
      <trkpt lat="46.54786" lon="4.79979">
        <ele>312</ele>
      </trkpt>
      <trkpt lat="46.54841" lon="4.79941">
        <ele>304.9</ele>
      </trkpt>
      <trkpt lat="46.54905" lon="4.79851">
        <ele>300.4</ele>
      </trkpt>
      <trkpt lat="46.54948" lon="4.79828">
        <ele>292.3</ele>
      </trkpt>
      <trkpt lat="46.54965" lon="4.79836">
        <ele>289.6</ele>
      </trkpt>
      <trkpt lat="46.54971" lon="4.79834">
        <ele>288.5</ele>
      </trkpt>
      <trkpt lat="46.54974" lon="4.79832">
        <ele>288.2</ele>
      </trkpt>
      <trkpt lat="46.54986" lon="4.79821">
        <ele>288.2</ele>
      </trkpt>
      <trkpt lat="46.54993" lon="4.79828">
        <ele>289.4</ele>
      </trkpt>
      <trkpt lat="46.55001" lon="4.7983">
        <ele>290.4</ele>
      </trkpt>
      <trkpt lat="46.55008" lon="4.79829">
        <ele>292.3</ele>
      </trkpt>
      <trkpt lat="46.55014" lon="4.79825">
        <ele>292.8</ele>
      </trkpt>
      <trkpt lat="46.5502" lon="4.79819">
        <ele>292.8</ele>
      </trkpt>
      <trkpt lat="46.55028" lon="4.79806">
        <ele>291.2</ele>
      </trkpt>
      <trkpt lat="46.55033" lon="4.79798">
        <ele>291.4</ele>
      </trkpt>
      <trkpt lat="46.55035" lon="4.79796">
        <ele>291.3</ele>
      </trkpt>
      <trkpt lat="46.55044" lon="4.79781">
        <ele>290.5</ele>
      </trkpt>
      <trkpt lat="46.55053" lon="4.79766">
        <ele>290.3</ele>
      </trkpt>
      <trkpt lat="46.55059" lon="4.79756">
        <ele>290</ele>
      </trkpt>
      <trkpt lat="46.55066" lon="4.79745">
        <ele>289.3</ele>
      </trkpt>
      <trkpt lat="46.55071" lon="4.79742">
        <ele>290</ele>
      </trkpt>
      <trkpt lat="46.55136" lon="4.79679">
        <ele>293.3</ele>
      </trkpt>
      <trkpt lat="46.55175" lon="4.79656">
        <ele>296.5</ele>
      </trkpt>
      <trkpt lat="46.55211" lon="4.79642">
        <ele>298.1</ele>
      </trkpt>
      <trkpt lat="46.55276" lon="4.79639">
        <ele>305.8</ele>
      </trkpt>
      <trkpt lat="46.55375" lon="4.79647">
        <ele>305.8</ele>
      </trkpt>
      <trkpt lat="46.55453" lon="4.79657">
        <ele>301.9</ele>
      </trkpt>
      <trkpt lat="46.55497" lon="4.79671">
        <ele>300.7</ele>
      </trkpt>
      <trkpt lat="46.55522" lon="4.79682">
        <ele>300</ele>
      </trkpt>
      <trkpt lat="46.55539" lon="4.79687">
        <ele>299.4</ele>
      </trkpt>
      <trkpt lat="46.55555" lon="4.79692">
        <ele>298.8</ele>
      </trkpt>
      <trkpt lat="46.55577" lon="4.79699">
        <ele>297.9</ele>
      </trkpt>
      <trkpt lat="46.55587" lon="4.797">
        <ele>297.3</ele>
      </trkpt>
      <trkpt lat="46.55601" lon="4.79701">
        <ele>296.5</ele>
      </trkpt>
      <trkpt lat="46.55607" lon="4.79701">
        <ele>296</ele>
      </trkpt>
      <trkpt lat="46.55614" lon="4.797">
        <ele>295.4</ele>
      </trkpt>
      <trkpt lat="46.55624" lon="4.797">
        <ele>294.6</ele>
      </trkpt>
      <trkpt lat="46.55639" lon="4.79703">
        <ele>293.6</ele>
      </trkpt>
      <trkpt lat="46.55648" lon="4.79704">
        <ele>293.3</ele>
      </trkpt>
      <trkpt lat="46.55659" lon="4.79704">
        <ele>293</ele>
      </trkpt>
      <trkpt lat="46.55675" lon="4.79705">
        <ele>292.1</ele>
      </trkpt>
      <trkpt lat="46.55687" lon="4.79706">
        <ele>291.4</ele>
      </trkpt>
      <trkpt lat="46.55701" lon="4.79707">
        <ele>290.4</ele>
      </trkpt>
      <trkpt lat="46.55711" lon="4.79706">
        <ele>289.6</ele>
      </trkpt>
      <trkpt lat="46.55721" lon="4.79704">
        <ele>288.8</ele>
      </trkpt>
      <trkpt lat="46.55734" lon="4.79698">
        <ele>287.8</ele>
      </trkpt>
      <trkpt lat="46.5574" lon="4.79694">
        <ele>287.4</ele>
      </trkpt>
      <trkpt lat="46.55737" lon="4.79703">
        <ele>287.9</ele>
      </trkpt>
      <trkpt lat="46.55729" lon="4.79716">
        <ele>289.1</ele>
      </trkpt>
      <trkpt lat="46.55724" lon="4.79729">
        <ele>290.1</ele>
      </trkpt>
      <trkpt lat="46.55714" lon="4.7975">
        <ele>291.6</ele>
      </trkpt>
      <trkpt lat="46.55701" lon="4.79779">
        <ele>294.6</ele>
      </trkpt>
      <trkpt lat="46.55673" lon="4.7987">
        <ele>302.5</ele>
      </trkpt>
      <trkpt lat="46.55652" lon="4.79942">
        <ele>309.5</ele>
      </trkpt>
      <trkpt lat="46.55639" lon="4.80034">
        <ele>316</ele>
      </trkpt>
      <trkpt lat="46.55632" lon="4.80075">
        <ele>318.3</ele>
      </trkpt>
      <trkpt lat="46.55574" lon="4.80191">
        <ele>332.1</ele>
      </trkpt>
      <trkpt lat="46.55561" lon="4.80268">
        <ele>338.9</ele>
      </trkpt>
      <trkpt lat="46.55558" lon="4.80306">
        <ele>341.4</ele>
      </trkpt>
      <trkpt lat="46.55535" lon="4.80344">
        <ele>343.1</ele>
      </trkpt>
      <trkpt lat="46.55506" lon="4.80383">
        <ele>346.7</ele>
      </trkpt>
      <trkpt lat="46.5551" lon="4.80387">
        <ele>347.2</ele>
      </trkpt>
      <trkpt lat="46.55539" lon="4.80393">
        <ele>350.2</ele>
      </trkpt>
      <trkpt lat="46.55552" lon="4.80396">
        <ele>352.5</ele>
      </trkpt>
      <trkpt lat="46.5556" lon="4.80398">
        <ele>354.3</ele>
      </trkpt>
      <trkpt lat="46.55573" lon="4.80396">
        <ele>356.3</ele>
      </trkpt>
      <trkpt lat="46.55597" lon="4.80391">
        <ele>358.9</ele>
      </trkpt>
      <trkpt lat="46.55615" lon="4.80388">
        <ele>361.4</ele>
      </trkpt>
      <trkpt lat="46.5563" lon="4.8039">
        <ele>363.8</ele>
      </trkpt>
      <trkpt lat="46.55632" lon="4.8039">
        <ele>364.3</ele>
      </trkpt>
      <trkpt lat="46.55646" lon="4.80396">
        <ele>366.4</ele>
      </trkpt>
      <trkpt lat="46.55656" lon="4.80403">
        <ele>367.6</ele>
      </trkpt>
      <trkpt lat="46.55671" lon="4.80416">
        <ele>368.8</ele>
      </trkpt>
      <trkpt lat="46.55677" lon="4.80421">
        <ele>369</ele>
      </trkpt>
      <trkpt lat="46.55684" lon="4.80429">
        <ele>369.4</ele>
      </trkpt>
      <trkpt lat="46.55701" lon="4.80446">
        <ele>369.3</ele>
      </trkpt>
      <trkpt lat="46.55728" lon="4.80473">
        <ele>367.4</ele>
      </trkpt>
      <trkpt lat="46.55752" lon="4.80498">
        <ele>366.6</ele>
      </trkpt>
      <trkpt lat="46.55764" lon="4.8051">
        <ele>366.1</ele>
      </trkpt>
      <trkpt lat="46.55784" lon="4.80537">
        <ele>366</ele>
      </trkpt>
      <trkpt lat="46.55792" lon="4.80544">
        <ele>365.6</ele>
      </trkpt>
      <trkpt lat="46.55795" lon="4.80546">
        <ele>365.4</ele>
      </trkpt>
      <trkpt lat="46.55804" lon="4.8055">
        <ele>364.8</ele>
      </trkpt>
      <trkpt lat="46.55828" lon="4.80569">
        <ele>364</ele>
      </trkpt>
      <trkpt lat="46.55844" lon="4.80589">
        <ele>363.3</ele>
      </trkpt>
      <trkpt lat="46.55865" lon="4.80612">
        <ele>361.2</ele>
      </trkpt>
      <trkpt lat="46.55874" lon="4.80617">
        <ele>359.7</ele>
      </trkpt>
      <trkpt lat="46.55888" lon="4.80626">
        <ele>356.7</ele>
      </trkpt>
      <trkpt lat="46.559" lon="4.80647">
        <ele>353.5</ele>
      </trkpt>
      <trkpt lat="46.55912" lon="4.80672">
        <ele>350.7</ele>
      </trkpt>
      <trkpt lat="46.55929" lon="4.80682">
        <ele>347.3</ele>
      </trkpt>
      <trkpt lat="46.55949" lon="4.80682">
        <ele>344.5</ele>
      </trkpt>
      <trkpt lat="46.5596" lon="4.80678">
        <ele>344.1</ele>
      </trkpt>
      <trkpt lat="46.55973" lon="4.80674">
        <ele>343.8</ele>
      </trkpt>
      <trkpt lat="46.55985" lon="4.80697">
        <ele>347.5</ele>
      </trkpt>
      <trkpt lat="46.56003" lon="4.80708">
        <ele>351.7</ele>
      </trkpt>
      <trkpt lat="46.56026" lon="4.80718">
        <ele>358.3</ele>
      </trkpt>
      <trkpt lat="46.56052" lon="4.80721">
        <ele>365.1</ele>
      </trkpt>
      <trkpt lat="46.56159" lon="4.80753">
        <ele>385.6</ele>
      </trkpt>
      <trkpt lat="46.56199" lon="4.80765">
        <ele>388.2</ele>
      </trkpt>
      <trkpt lat="46.56217" lon="4.80771">
        <ele>388.7</ele>
      </trkpt>
      <trkpt lat="46.56275" lon="4.80792">
        <ele>388.1</ele>
      </trkpt>
      <trkpt lat="46.56352" lon="4.80848">
        <ele>387.3</ele>
      </trkpt>
      <trkpt lat="46.5636" lon="4.80857">
        <ele>386.9</ele>
      </trkpt>
      <trkpt lat="46.56426" lon="4.80938">
        <ele>386.9</ele>
      </trkpt>
      <trkpt lat="46.56441" lon="4.80949">
        <ele>386.2</ele>
      </trkpt>
      <trkpt lat="46.56464" lon="4.80973">
        <ele>385.5</ele>
      </trkpt>
      <trkpt lat="46.56486" lon="4.80996">
        <ele>384.5</ele>
      </trkpt>
      <trkpt lat="46.56503" lon="4.81016">
        <ele>382.9</ele>
      </trkpt>
      <trkpt lat="46.56518" lon="4.81027">
        <ele>380.4</ele>
      </trkpt>
      <trkpt lat="46.5654" lon="4.81048">
        <ele>375.8</ele>
      </trkpt>
      <trkpt lat="46.56574" lon="4.81075">
        <ele>372.4</ele>
      </trkpt>
      <trkpt lat="46.56595" lon="4.81076">
        <ele>368.8</ele>
      </trkpt>
      <trkpt lat="46.56607" lon="4.81109">
        <ele>369.5</ele>
      </trkpt>
      <trkpt lat="46.5661" lon="4.81113">
        <ele>369.3</ele>
      </trkpt>
      <trkpt lat="46.56615" lon="4.8112">
        <ele>369.6</ele>
      </trkpt>
      <trkpt lat="46.56623" lon="4.81125">
        <ele>369.8</ele>
      </trkpt>
      <trkpt lat="46.56633" lon="4.81134">
        <ele>370.5</ele>
      </trkpt>
      <trkpt lat="46.5664" lon="4.81134">
        <ele>370.5</ele>
      </trkpt>
      <trkpt lat="46.56648" lon="4.81139">
        <ele>371.3</ele>
      </trkpt>
      <trkpt lat="46.5667" lon="4.8114">
        <ele>372.1</ele>
      </trkpt>
      <trkpt lat="46.56672" lon="4.8114">
        <ele>372.1</ele>
      </trkpt>
      <trkpt lat="46.56684" lon="4.81144">
        <ele>372.6</ele>
      </trkpt>
      <trkpt lat="46.56733" lon="4.81158">
        <ele>372.3</ele>
      </trkpt>
      <trkpt lat="46.56733" lon="4.81158">
        <ele>372.3</ele>
      </trkpt>
      <trkpt lat="46.56733" lon="4.81158">
        <ele>372.3</ele>
      </trkpt>
      <trkpt lat="46.56736" lon="4.81132">
        <ele>370.8</ele>
      </trkpt>
      <trkpt lat="46.56686" lon="4.81092">
        <ele>365.3</ele>
      </trkpt>
      <trkpt lat="46.56662" lon="4.81074">
        <ele>362.9</ele>
      </trkpt>
      <trkpt lat="46.56656" lon="4.8107">
        <ele>362.5</ele>
      </trkpt>
      <trkpt lat="46.56653" lon="4.81068">
        <ele>362.1</ele>
      </trkpt>
      <trkpt lat="46.56639" lon="4.81047">
        <ele>358.4</ele>
      </trkpt>
      <trkpt lat="46.56628" lon="4.81037">
        <ele>358.9</ele>
      </trkpt>
      <trkpt lat="46.56618" lon="4.81014">
        <ele>356.9</ele>
      </trkpt>
      <trkpt lat="46.56612" lon="4.8099">
        <ele>353.7</ele>
      </trkpt>
      <trkpt lat="46.5659" lon="4.80926">
        <ele>348.9</ele>
      </trkpt>
      <trkpt lat="46.56586" lon="4.80909">
        <ele>346.3</ele>
      </trkpt>
      <trkpt lat="46.56555" lon="4.80811">
        <ele>341.9</ele>
      </trkpt>
      <trkpt lat="46.56531" lon="4.80675">
        <ele>336.9</ele>
      </trkpt>
      <trkpt lat="46.56542" lon="4.80671">
        <ele>337.9</ele>
      </trkpt>
      <trkpt lat="46.56553" lon="4.80639">
        <ele>333.8</ele>
      </trkpt>
      <trkpt lat="46.56578" lon="4.80589">
        <ele>332.4</ele>
      </trkpt>
      <trkpt lat="46.56625" lon="4.80549">
        <ele>344.4</ele>
      </trkpt>
      <trkpt lat="46.56644" lon="4.80531">
        <ele>348</ele>
      </trkpt>
      <trkpt lat="46.56654" lon="4.80503">
        <ele>347.7</ele>
      </trkpt>
      <trkpt lat="46.56679" lon="4.80455">
        <ele>352</ele>
      </trkpt>
      <trkpt lat="46.56711" lon="4.80418">
        <ele>353.9</ele>
      </trkpt>
      <trkpt lat="46.56749" lon="4.80422">
        <ele>356.5</ele>
      </trkpt>
      <trkpt lat="46.56874" lon="4.8049">
        <ele>364.9</ele>
      </trkpt>
      <trkpt lat="46.56902" lon="4.80505">
        <ele>366.8</ele>
      </trkpt>
      <trkpt lat="46.56927" lon="4.8052">
        <ele>367.7</ele>
      </trkpt>
      <trkpt lat="46.56931" lon="4.80523">
        <ele>367.8</ele>
      </trkpt>
      <trkpt lat="46.56952" lon="4.80539">
        <ele>368.3</ele>
      </trkpt>
      <trkpt lat="46.56979" lon="4.80567">
        <ele>368.1</ele>
      </trkpt>
      <trkpt lat="46.5699" lon="4.80581">
        <ele>367.7</ele>
      </trkpt>
      <trkpt lat="46.5699" lon="4.80533">
        <ele>367.3</ele>
      </trkpt>
      <trkpt lat="46.56993" lon="4.80507">
        <ele>367.1</ele>
      </trkpt>
      <trkpt lat="46.56999" lon="4.80488">
        <ele>366.6</ele>
      </trkpt>
      <trkpt lat="46.57014" lon="4.80475">
        <ele>366.1</ele>
      </trkpt>
      <trkpt lat="46.57029" lon="4.80473">
        <ele>366</ele>
      </trkpt>
      <trkpt lat="46.57048" lon="4.80469">
        <ele>365</ele>
      </trkpt>
      <trkpt lat="46.5707" lon="4.80472">
        <ele>364.5</ele>
      </trkpt>
      <trkpt lat="46.57115" lon="4.80483">
        <ele>362.7</ele>
      </trkpt>
      <trkpt lat="46.5713" lon="4.80481">
        <ele>361.6</ele>
      </trkpt>
      <trkpt lat="46.57143" lon="4.80471">
        <ele>360.7</ele>
      </trkpt>
      <trkpt lat="46.57157" lon="4.80447">
        <ele>358.8</ele>
      </trkpt>
      <trkpt lat="46.5717" lon="4.80417">
        <ele>354.7</ele>
      </trkpt>
      <trkpt lat="46.57179" lon="4.80405">
        <ele>352.6</ele>
      </trkpt>
      <trkpt lat="46.57199" lon="4.80387">
        <ele>349.7</ele>
      </trkpt>
      <trkpt lat="46.57209" lon="4.80392">
        <ele>349.1</ele>
      </trkpt>
      <trkpt lat="46.57227" lon="4.80395">
        <ele>347.7</ele>
      </trkpt>
      <trkpt lat="46.57236" lon="4.80393">
        <ele>346.6</ele>
      </trkpt>
      <trkpt lat="46.57243" lon="4.80392">
        <ele>345.9</ele>
      </trkpt>
      <trkpt lat="46.5726" lon="4.8039">
        <ele>344.3</ele>
      </trkpt>
      <trkpt lat="46.57271" lon="4.8039">
        <ele>343.5</ele>
      </trkpt>
      <trkpt lat="46.57291" lon="4.80392">
        <ele>341.6</ele>
      </trkpt>
      <trkpt lat="46.57396" lon="4.80401">
        <ele>328.2</ele>
      </trkpt>
      <trkpt lat="46.57449" lon="4.80412">
        <ele>318.8</ele>
      </trkpt>
      <trkpt lat="46.57497" lon="4.80434">
        <ele>307.7</ele>
      </trkpt>
      <trkpt lat="46.57522" lon="4.80461">
        <ele>303.4</ele>
      </trkpt>
      <trkpt lat="46.57578" lon="4.80569">
        <ele>295.1</ele>
      </trkpt>
      <trkpt lat="46.57601" lon="4.80602">
        <ele>288.6</ele>
      </trkpt>
      <trkpt lat="46.57612" lon="4.80615">
        <ele>285.6</ele>
      </trkpt>
      <trkpt lat="46.57624" lon="4.80618">
        <ele>283.2</ele>
      </trkpt>
      <trkpt lat="46.57633" lon="4.80615">
        <ele>281.3</ele>
      </trkpt>
      <trkpt lat="46.57642" lon="4.80609">
        <ele>279.6</ele>
      </trkpt>
      <trkpt lat="46.57653" lon="4.80594">
        <ele>278.4</ele>
      </trkpt>
      <trkpt lat="46.57669" lon="4.80565">
        <ele>276.3</ele>
      </trkpt>
      <trkpt lat="46.57686" lon="4.80539">
        <ele>275.4</ele>
      </trkpt>
      <trkpt lat="46.57694" lon="4.80531">
        <ele>275.1</ele>
      </trkpt>
      <trkpt lat="46.57701" lon="4.80529">
        <ele>276.9</ele>
      </trkpt>
      <trkpt lat="46.57706" lon="4.80527">
        <ele>278.2</ele>
      </trkpt>
      <trkpt lat="46.57705" lon="4.80502">
        <ele>276.4</ele>
      </trkpt>
      <trkpt lat="46.57713" lon="4.80484">
        <ele>275.9</ele>
      </trkpt>
      <trkpt lat="46.57727" lon="4.80458">
        <ele>274.3</ele>
      </trkpt>
      <trkpt lat="46.57737" lon="4.80436">
        <ele>273.5</ele>
      </trkpt>
      <trkpt lat="46.57743" lon="4.80423">
        <ele>272.2</ele>
      </trkpt>
      <trkpt lat="46.57752" lon="4.80411">
        <ele>270.7</ele>
      </trkpt>
      <trkpt lat="46.57763" lon="4.804">
        <ele>270.6</ele>
      </trkpt>
      <trkpt lat="46.57767" lon="4.80394">
        <ele>270.1</ele>
      </trkpt>
      <trkpt lat="46.5777" lon="4.80388">
        <ele>269.4</ele>
      </trkpt>
      <trkpt lat="46.57775" lon="4.80371">
        <ele>267.4</ele>
      </trkpt>
      <trkpt lat="46.57784" lon="4.80345">
        <ele>265.8</ele>
      </trkpt>
      <trkpt lat="46.57794" lon="4.80317">
        <ele>264.6</ele>
      </trkpt>
      <trkpt lat="46.57802" lon="4.80294">
        <ele>263.6</ele>
      </trkpt>
      <trkpt lat="46.57811" lon="4.80273">
        <ele>263.2</ele>
      </trkpt>
      <trkpt lat="46.5782" lon="4.80253">
        <ele>263.1</ele>
      </trkpt>
      <trkpt lat="46.5783" lon="4.80235">
        <ele>262.5</ele>
      </trkpt>
      <trkpt lat="46.57839" lon="4.80224">
        <ele>262.1</ele>
      </trkpt>
      <trkpt lat="46.57859" lon="4.80196">
        <ele>261.1</ele>
      </trkpt>
      <trkpt lat="46.57872" lon="4.80182">
        <ele>260.2</ele>
      </trkpt>
      <trkpt lat="46.57879" lon="4.80173">
        <ele>259.6</ele>
      </trkpt>
      <trkpt lat="46.57886" lon="4.80159">
        <ele>258.8</ele>
      </trkpt>
      <trkpt lat="46.579" lon="4.80132">
        <ele>257.9</ele>
      </trkpt>
      <trkpt lat="46.57927" lon="4.80072">
        <ele>256.6</ele>
      </trkpt>
      <trkpt lat="46.57935" lon="4.80077">
        <ele>256.8</ele>
      </trkpt>
      <trkpt lat="46.57956" lon="4.80086">
        <ele>257.5</ele>
      </trkpt>
      <trkpt lat="46.57986" lon="4.80093">
        <ele>259.3</ele>
      </trkpt>
      <trkpt lat="46.58006" lon="4.80095">
        <ele>260.8</ele>
      </trkpt>
      <trkpt lat="46.58014" lon="4.80093">
        <ele>261.4</ele>
      </trkpt>
      <trkpt lat="46.58021" lon="4.8009">
        <ele>261.8</ele>
      </trkpt>
      <trkpt lat="46.58029" lon="4.80084">
        <ele>262.2</ele>
      </trkpt>
      <trkpt lat="46.58033" lon="4.80081">
        <ele>262.5</ele>
      </trkpt>
      <trkpt lat="46.58041" lon="4.80073">
        <ele>263.2</ele>
      </trkpt>
      <trkpt lat="46.58061" lon="4.80056">
        <ele>264.7</ele>
      </trkpt>
      <trkpt lat="46.58067" lon="4.8005">
        <ele>265.2</ele>
      </trkpt>
      <trkpt lat="46.58076" lon="4.80047">
        <ele>266.1</ele>
      </trkpt>
      <trkpt lat="46.58089" lon="4.80043">
        <ele>267.2</ele>
      </trkpt>
      <trkpt lat="46.58115" lon="4.80035">
        <ele>269.1</ele>
      </trkpt>
      <trkpt lat="46.58132" lon="4.80029">
        <ele>269.7</ele>
      </trkpt>
      <trkpt lat="46.58145" lon="4.80027">
        <ele>270.4</ele>
      </trkpt>
      <trkpt lat="46.58172" lon="4.80027">
        <ele>271.9</ele>
      </trkpt>
      <trkpt lat="46.58199" lon="4.80027">
        <ele>271.8</ele>
      </trkpt>
      <trkpt lat="46.58216" lon="4.80026">
        <ele>271.2</ele>
      </trkpt>
      <trkpt lat="46.58224" lon="4.80024">
        <ele>270.8</ele>
      </trkpt>
      <trkpt lat="46.58223" lon="4.80045">
        <ele>272.2</ele>
      </trkpt>
      <trkpt lat="46.58226" lon="4.80055">
        <ele>273</ele>
      </trkpt>
      <trkpt lat="46.58227" lon="4.8006">
        <ele>273.6</ele>
      </trkpt>
      <trkpt lat="46.58232" lon="4.80075">
        <ele>275.8</ele>
      </trkpt>
      <trkpt lat="46.58237" lon="4.80091">
        <ele>277.9</ele>
      </trkpt>
      <trkpt lat="46.5824" lon="4.80102">
        <ele>279.2</ele>
      </trkpt>
      <trkpt lat="46.5824" lon="4.80107">
        <ele>279.9</ele>
      </trkpt>
      <trkpt lat="46.58239" lon="4.80115">
        <ele>280.8</ele>
      </trkpt>
      <trkpt lat="46.58238" lon="4.80121">
        <ele>281.5</ele>
      </trkpt>
      <trkpt lat="46.58237" lon="4.80126">
        <ele>282.1</ele>
      </trkpt>
      <trkpt lat="46.58238" lon="4.80135">
        <ele>283</ele>
      </trkpt>
      <trkpt lat="46.58241" lon="4.80142">
        <ele>283.7</ele>
      </trkpt>
      <trkpt lat="46.58249" lon="4.80156">
        <ele>284.8</ele>
      </trkpt>
      <trkpt lat="46.58254" lon="4.80168">
        <ele>286</ele>
      </trkpt>
      <trkpt lat="46.58257" lon="4.80182">
        <ele>287.5</ele>
      </trkpt>
      <trkpt lat="46.58258" lon="4.8019">
        <ele>288.3</ele>
      </trkpt>
      <trkpt lat="46.58257" lon="4.80197">
        <ele>288.9</ele>
      </trkpt>
      <trkpt lat="46.58256" lon="4.802">
        <ele>289.2</ele>
      </trkpt>
      <trkpt lat="46.58253" lon="4.80203">
        <ele>289.4</ele>
      </trkpt>
      <trkpt lat="46.58249" lon="4.80205">
        <ele>289.8</ele>
      </trkpt>
      <trkpt lat="46.58244" lon="4.80204">
        <ele>290.1</ele>
      </trkpt>
      <trkpt lat="46.58208" lon="4.80195">
        <ele>292.5</ele>
      </trkpt>
      <trkpt lat="46.58201" lon="4.80196">
        <ele>293.4</ele>
      </trkpt>
      <trkpt lat="46.58191" lon="4.802">
        <ele>294.1</ele>
      </trkpt>
      <trkpt lat="46.58183" lon="4.80206">
        <ele>294.2</ele>
      </trkpt>
      <trkpt lat="46.58176" lon="4.80217">
        <ele>294.7</ele>
      </trkpt>
      <trkpt lat="46.5817" lon="4.8023">
        <ele>295</ele>
      </trkpt>
      <trkpt lat="46.58166" lon="4.80242">
        <ele>294.9</ele>
      </trkpt>
      <trkpt lat="46.58163" lon="4.80259">
        <ele>294.6</ele>
      </trkpt>
      <trkpt lat="46.58158" lon="4.80305">
        <ele>294.7</ele>
      </trkpt>
      <trkpt lat="46.58153" lon="4.80348">
        <ele>295.5</ele>
      </trkpt>
      <trkpt lat="46.58155" lon="4.80372">
        <ele>296.3</ele>
      </trkpt>
      <trkpt lat="46.58154" lon="4.80395">
        <ele>297.1</ele>
      </trkpt>
      <trkpt lat="46.58152" lon="4.80408">
        <ele>297.7</ele>
      </trkpt>
      <trkpt lat="46.58149" lon="4.80422">
        <ele>298.7</ele>
      </trkpt>
      <trkpt lat="46.58142" lon="4.80442">
        <ele>300.4</ele>
      </trkpt>
      <trkpt lat="46.58136" lon="4.80458">
        <ele>301.3</ele>
      </trkpt>
      <trkpt lat="46.58131" lon="4.80475">
        <ele>302.3</ele>
      </trkpt>
      <trkpt lat="46.58128" lon="4.80493">
        <ele>303.7</ele>
      </trkpt>
      <trkpt lat="46.58125" lon="4.80518">
        <ele>305.4</ele>
      </trkpt>
      <trkpt lat="46.58127" lon="4.80542">
        <ele>306.9</ele>
      </trkpt>
      <trkpt lat="46.58132" lon="4.80569">
        <ele>308.3</ele>
      </trkpt>
      <trkpt lat="46.58135" lon="4.80594">
        <ele>310.2</ele>
      </trkpt>
      <trkpt lat="46.58136" lon="4.80628">
        <ele>313.4</ele>
      </trkpt>
      <trkpt lat="46.58135" lon="4.80647">
        <ele>315.6</ele>
      </trkpt>
      <trkpt lat="46.58132" lon="4.80677">
        <ele>319.4</ele>
      </trkpt>
      <trkpt lat="46.5812" lon="4.80754">
        <ele>326.9</ele>
      </trkpt>
      <trkpt lat="46.58101" lon="4.80848">
        <ele>333.6</ele>
      </trkpt>
      <trkpt lat="46.58096" lon="4.80872">
        <ele>336.2</ele>
      </trkpt>
      <trkpt lat="46.58139" lon="4.80891">
        <ele>333.3</ele>
      </trkpt>
      <trkpt lat="46.58172" lon="4.80906">
        <ele>329.5</ele>
      </trkpt>
      <trkpt lat="46.58194" lon="4.80924">
        <ele>326.3</ele>
      </trkpt>
      <trkpt lat="46.58213" lon="4.8094">
        <ele>324.2</ele>
      </trkpt>
      <trkpt lat="46.58229" lon="4.80955">
        <ele>322.8</ele>
      </trkpt>
      <trkpt lat="46.58253" lon="4.8098">
        <ele>322.5</ele>
      </trkpt>
      <trkpt lat="46.58268" lon="4.8099">
        <ele>322.6</ele>
      </trkpt>
      <trkpt lat="46.58278" lon="4.80992">
        <ele>322.4</ele>
      </trkpt>
      <trkpt lat="46.58294" lon="4.80994">
        <ele>322.5</ele>
      </trkpt>
      <trkpt lat="46.5833" lon="4.80997">
        <ele>320.1</ele>
      </trkpt>
      <trkpt lat="46.58363" lon="4.80999">
        <ele>316.5</ele>
      </trkpt>
      <trkpt lat="46.5839" lon="4.81003">
        <ele>310.7</ele>
      </trkpt>
      <trkpt lat="46.58402" lon="4.81007">
        <ele>307</ele>
      </trkpt>
      <trkpt lat="46.58421" lon="4.81018">
        <ele>301.5</ele>
      </trkpt>
      <trkpt lat="46.58434" lon="4.81035">
        <ele>299</ele>
      </trkpt>
      <trkpt lat="46.58443" lon="4.81055">
        <ele>297.3</ele>
      </trkpt>
      <trkpt lat="46.58452" lon="4.81072">
        <ele>299.3</ele>
      </trkpt>
      <trkpt lat="46.58476" lon="4.81054">
        <ele>300.7</ele>
      </trkpt>
      <trkpt lat="46.58497" lon="4.81035">
        <ele>303.3</ele>
      </trkpt>
      <trkpt lat="46.58522" lon="4.81008">
        <ele>303.6</ele>
      </trkpt>
      <trkpt lat="46.58536" lon="4.80991">
        <ele>302.6</ele>
      </trkpt>
      <trkpt lat="46.5855" lon="4.80979">
        <ele>301.7</ele>
      </trkpt>
      <trkpt lat="46.58563" lon="4.80972">
        <ele>301.2</ele>
      </trkpt>
      <trkpt lat="46.58577" lon="4.80969">
        <ele>301.4</ele>
      </trkpt>
      <trkpt lat="46.58593" lon="4.80968">
        <ele>301.8</ele>
      </trkpt>
      <trkpt lat="46.5862" lon="4.80966">
        <ele>302.2</ele>
      </trkpt>
      <trkpt lat="46.5864" lon="4.80963">
        <ele>301.7</ele>
      </trkpt>
      <trkpt lat="46.58655" lon="4.8096">
        <ele>301.2</ele>
      </trkpt>
      <trkpt lat="46.58664" lon="4.8096">
        <ele>301.1</ele>
      </trkpt>
      <trkpt lat="46.58674" lon="4.80961">
        <ele>300.9</ele>
      </trkpt>
      <trkpt lat="46.5868" lon="4.80961">
        <ele>300.7</ele>
      </trkpt>
      <trkpt lat="46.5869" lon="4.80965">
        <ele>300.6</ele>
      </trkpt>
      <trkpt lat="46.587" lon="4.80972">
        <ele>300.3</ele>
      </trkpt>
      <trkpt lat="46.5871" lon="4.8098">
        <ele>300</ele>
      </trkpt>
      <trkpt lat="46.58721" lon="4.80992">
        <ele>300.3</ele>
      </trkpt>
      <trkpt lat="46.58728" lon="4.81005">
        <ele>300.7</ele>
      </trkpt>
      <trkpt lat="46.58742" lon="4.81038">
        <ele>301.4</ele>
      </trkpt>
      <trkpt lat="46.58748" lon="4.81049">
        <ele>301.1</ele>
      </trkpt>
      <trkpt lat="46.58752" lon="4.81053">
        <ele>300.8</ele>
      </trkpt>
      <trkpt lat="46.58758" lon="4.81057">
        <ele>300.6</ele>
      </trkpt>
      <trkpt lat="46.58774" lon="4.81066">
        <ele>299.7</ele>
      </trkpt>
      <trkpt lat="46.58787" lon="4.81073">
        <ele>299.7</ele>
      </trkpt>
      <trkpt lat="46.58796" lon="4.81075">
        <ele>299.9</ele>
      </trkpt>
      <trkpt lat="46.58791" lon="4.81119">
        <ele>303.5</ele>
      </trkpt>
      <trkpt lat="46.58784" lon="4.81185">
        <ele>307.9</ele>
      </trkpt>
      <trkpt lat="46.58777" lon="4.81254">
        <ele>314.3</ele>
      </trkpt>
      <trkpt lat="46.58774" lon="4.81279">
        <ele>316.6</ele>
      </trkpt>
      <trkpt lat="46.58771" lon="4.81322">
        <ele>319.5</ele>
      </trkpt>
      <trkpt lat="46.58768" lon="4.81345">
        <ele>320.3</ele>
      </trkpt>
      <trkpt lat="46.58768" lon="4.81356">
        <ele>321</ele>
      </trkpt>
      <trkpt lat="46.58769" lon="4.81366">
        <ele>321.5</ele>
      </trkpt>
      <trkpt lat="46.58769" lon="4.81376">
        <ele>321.7</ele>
      </trkpt>
      <trkpt lat="46.58771" lon="4.81382">
        <ele>321.9</ele>
      </trkpt>
      <trkpt lat="46.58775" lon="4.81394">
        <ele>322.1</ele>
      </trkpt>
      <trkpt lat="46.58796" lon="4.81442">
        <ele>324.7</ele>
      </trkpt>
      <trkpt lat="46.58812" lon="4.8148">
        <ele>325.3</ele>
      </trkpt>
      <trkpt lat="46.58824" lon="4.81501">
        <ele>325.9</ele>
      </trkpt>
      <trkpt lat="46.58835" lon="4.81524">
        <ele>325.6</ele>
      </trkpt>
      <trkpt lat="46.5884" lon="4.81537">
        <ele>326.9</ele>
      </trkpt>
      <trkpt lat="46.58845" lon="4.81575">
        <ele>330.1</ele>
      </trkpt>
      <trkpt lat="46.58848" lon="4.81619">
        <ele>335.3</ele>
      </trkpt>
      <trkpt lat="46.58848" lon="4.81631">
        <ele>336.2</ele>
      </trkpt>
      <trkpt lat="46.58849" lon="4.81671">
        <ele>340.5</ele>
      </trkpt>
      <trkpt lat="46.58849" lon="4.81741">
        <ele>346.9</ele>
      </trkpt>
      <trkpt lat="46.5885" lon="4.81784">
        <ele>349.9</ele>
      </trkpt>
      <trkpt lat="46.58854" lon="4.81794">
        <ele>351.5</ele>
      </trkpt>
      <trkpt lat="46.58867" lon="4.81815">
        <ele>356.3</ele>
      </trkpt>
      <trkpt lat="46.58875" lon="4.81827">
        <ele>359.2</ele>
      </trkpt>
      <trkpt lat="46.58882" lon="4.81837">
        <ele>361.2</ele>
      </trkpt>
      <trkpt lat="46.58891" lon="4.81848">
        <ele>363.4</ele>
      </trkpt>
      <trkpt lat="46.58923" lon="4.81876">
        <ele>369.7</ele>
      </trkpt>
      <trkpt lat="46.58961" lon="4.81897">
        <ele>375.8</ele>
      </trkpt>
      <trkpt lat="46.58969" lon="4.81901">
        <ele>377</ele>
      </trkpt>
      <trkpt lat="46.59024" lon="4.8193">
        <ele>381.4</ele>
      </trkpt>
      <trkpt lat="46.59047" lon="4.81946">
        <ele>381.7</ele>
      </trkpt>
      <trkpt lat="46.59074" lon="4.81966">
        <ele>382.2</ele>
      </trkpt>
      <trkpt lat="46.59111" lon="4.82007">
        <ele>382</ele>
      </trkpt>
      <trkpt lat="46.59112" lon="4.82009">
        <ele>382</ele>
      </trkpt>
      <trkpt lat="46.59134" lon="4.82046">
        <ele>380.7</ele>
      </trkpt>
      <trkpt lat="46.59153" lon="4.82099">
        <ele>378.4</ele>
      </trkpt>
      <trkpt lat="46.59157" lon="4.82108">
        <ele>377.6</ele>
      </trkpt>
      <trkpt lat="46.5916" lon="4.82129">
        <ele>376.6</ele>
      </trkpt>
      <trkpt lat="46.59162" lon="4.8216">
        <ele>376.2</ele>
      </trkpt>
      <trkpt lat="46.59159" lon="4.82202">
        <ele>377.8</ele>
      </trkpt>
      <trkpt lat="46.59161" lon="4.8225">
        <ele>379.3</ele>
      </trkpt>
      <trkpt lat="46.59179" lon="4.82326">
        <ele>376.3</ele>
      </trkpt>
      <trkpt lat="46.59197" lon="4.82377">
        <ele>373.2</ele>
      </trkpt>
      <trkpt lat="46.59208" lon="4.82406">
        <ele>373.4</ele>
      </trkpt>
      <trkpt lat="46.59223" lon="4.82437">
        <ele>373.4</ele>
      </trkpt>
      <trkpt lat="46.59244" lon="4.82462">
        <ele>373</ele>
      </trkpt>
      <trkpt lat="46.59267" lon="4.82481">
        <ele>374.7</ele>
      </trkpt>
      <trkpt lat="46.59284" lon="4.82495">
        <ele>377</ele>
      </trkpt>
      <trkpt lat="46.59327" lon="4.82517">
        <ele>380.9</ele>
      </trkpt>
      <trkpt lat="46.59367" lon="4.82539">
        <ele>384.5</ele>
      </trkpt>
      <trkpt lat="46.59394" lon="4.82552">
        <ele>386.1</ele>
      </trkpt>
      <trkpt lat="46.59413" lon="4.82564">
        <ele>388.1</ele>
      </trkpt>
      <trkpt lat="46.59432" lon="4.82578">
        <ele>389.4</ele>
      </trkpt>
      <trkpt lat="46.5945" lon="4.82586">
        <ele>389.5</ele>
      </trkpt>
      <trkpt lat="46.59465" lon="4.82591">
        <ele>390</ele>
      </trkpt>
      <trkpt lat="46.59487" lon="4.82594">
        <ele>390.2</ele>
      </trkpt>
      <trkpt lat="46.595" lon="4.82594">
        <ele>390.3</ele>
      </trkpt>
      <trkpt lat="46.59512" lon="4.82593">
        <ele>390.1</ele>
      </trkpt>
      <trkpt lat="46.59535" lon="4.8259">
        <ele>389.5</ele>
      </trkpt>
      <trkpt lat="46.5956" lon="4.82589">
        <ele>389.1</ele>
      </trkpt>
      <trkpt lat="46.59594" lon="4.82593">
        <ele>388.1</ele>
      </trkpt>
      <trkpt lat="46.59623" lon="4.82594">
        <ele>385.8</ele>
      </trkpt>
      <trkpt lat="46.59664" lon="4.82602">
        <ele>383.2</ele>
      </trkpt>
      <trkpt lat="46.59697" lon="4.82608">
        <ele>381.5</ele>
      </trkpt>
      <trkpt lat="46.59711" lon="4.82611">
        <ele>380.8</ele>
      </trkpt>
      <trkpt lat="46.5972" lon="4.82614">
        <ele>380.6</ele>
      </trkpt>
      <trkpt lat="46.59737" lon="4.82622">
        <ele>380.5</ele>
      </trkpt>
      <trkpt lat="46.59772" lon="4.8264">
        <ele>379.7</ele>
      </trkpt>
      <trkpt lat="46.59803" lon="4.82654">
        <ele>379</ele>
      </trkpt>
      <trkpt lat="46.59821" lon="4.82664">
        <ele>377.9</ele>
      </trkpt>
      <trkpt lat="46.59847" lon="4.82681">
        <ele>376.6</ele>
      </trkpt>
      <trkpt lat="46.5988" lon="4.82704">
        <ele>374.8</ele>
      </trkpt>
      <trkpt lat="46.59917" lon="4.82728">
        <ele>372.4</ele>
      </trkpt>
      <trkpt lat="46.59949" lon="4.82747">
        <ele>371.3</ele>
      </trkpt>
      <trkpt lat="46.59965" lon="4.82758">
        <ele>370.3</ele>
      </trkpt>
      <trkpt lat="46.59982" lon="4.82773">
        <ele>369.9</ele>
      </trkpt>
      <trkpt lat="46.60006" lon="4.82794">
        <ele>368.8</ele>
      </trkpt>
      <trkpt lat="46.60029" lon="4.82813">
        <ele>367.1</ele>
      </trkpt>
      <trkpt lat="46.60048" lon="4.82827">
        <ele>366</ele>
      </trkpt>
      <trkpt lat="46.60068" lon="4.82838">
        <ele>365.1</ele>
      </trkpt>
      <trkpt lat="46.60089" lon="4.82848">
        <ele>364.1</ele>
      </trkpt>
      <trkpt lat="46.60109" lon="4.82857">
        <ele>363.7</ele>
      </trkpt>
      <trkpt lat="46.6013" lon="4.82868">
        <ele>363.6</ele>
      </trkpt>
      <trkpt lat="46.60148" lon="4.82874">
        <ele>363.6</ele>
      </trkpt>
      <trkpt lat="46.60159" lon="4.82876">
        <ele>363.3</ele>
      </trkpt>
      <trkpt lat="46.60167" lon="4.82876">
        <ele>362.6</ele>
      </trkpt>
      <trkpt lat="46.6018" lon="4.82874">
        <ele>361.1</ele>
      </trkpt>
      <trkpt lat="46.60194" lon="4.82874">
        <ele>360</ele>
      </trkpt>
      <trkpt lat="46.60205" lon="4.82876">
        <ele>358.9</ele>
      </trkpt>
      <trkpt lat="46.60212" lon="4.82878">
        <ele>358.4</ele>
      </trkpt>
      <trkpt lat="46.60217" lon="4.8288">
        <ele>357.9</ele>
      </trkpt>
      <trkpt lat="46.60232" lon="4.82889">
        <ele>356.9</ele>
      </trkpt>
      <trkpt lat="46.6025" lon="4.82906">
        <ele>356.2</ele>
      </trkpt>
      <trkpt lat="46.60266" lon="4.82926">
        <ele>354.5</ele>
      </trkpt>
      <trkpt lat="46.60275" lon="4.82939">
        <ele>352.6</ele>
      </trkpt>
      <trkpt lat="46.60284" lon="4.8295">
        <ele>350.9</ele>
      </trkpt>
      <trkpt lat="46.60289" lon="4.82961">
        <ele>350</ele>
      </trkpt>
      <trkpt lat="46.60292" lon="4.8297">
        <ele>349.5</ele>
      </trkpt>
      <trkpt lat="46.60296" lon="4.82974">
        <ele>348.7</ele>
      </trkpt>
      <trkpt lat="46.60302" lon="4.82957">
        <ele>347.6</ele>
      </trkpt>
      <trkpt lat="46.60309" lon="4.82937">
        <ele>346.9</ele>
      </trkpt>
      <trkpt lat="46.6032" lon="4.82913">
        <ele>346.4</ele>
      </trkpt>
      <trkpt lat="46.60333" lon="4.82885">
        <ele>345.1</ele>
      </trkpt>
      <trkpt lat="46.60341" lon="4.82862">
        <ele>344.4</ele>
      </trkpt>
      <trkpt lat="46.60349" lon="4.82832">
        <ele>342.9</ele>
      </trkpt>
      <trkpt lat="46.60357" lon="4.82796">
        <ele>342.1</ele>
      </trkpt>
      <trkpt lat="46.60362" lon="4.8277">
        <ele>342</ele>
      </trkpt>
      <trkpt lat="46.60363" lon="4.8276">
        <ele>342</ele>
      </trkpt>
      <trkpt lat="46.60374" lon="4.82751">
        <ele>342.4</ele>
      </trkpt>
      <trkpt lat="46.60382" lon="4.82748">
        <ele>342.9</ele>
      </trkpt>
      <trkpt lat="46.60392" lon="4.82747">
        <ele>343.7</ele>
      </trkpt>
      <trkpt lat="46.60407" lon="4.82749">
        <ele>345.1</ele>
      </trkpt>
      <trkpt lat="46.60418" lon="4.82752">
        <ele>345.9</ele>
      </trkpt>
      <trkpt lat="46.6042" lon="4.82753">
        <ele>346</ele>
      </trkpt>
      <trkpt lat="46.60434" lon="4.82754">
        <ele>347.3</ele>
      </trkpt>
      <trkpt lat="46.60447" lon="4.82754">
        <ele>348.5</ele>
      </trkpt>
      <trkpt lat="46.60455" lon="4.82754">
        <ele>348.8</ele>
      </trkpt>
      <trkpt lat="46.60459" lon="4.82753">
        <ele>349.2</ele>
      </trkpt>
      <trkpt lat="46.60463" lon="4.82747">
        <ele>350.1</ele>
      </trkpt>
      <trkpt lat="46.60471" lon="4.82733">
        <ele>352.5</ele>
      </trkpt>
      <trkpt lat="46.6048" lon="4.82719">
        <ele>354.1</ele>
      </trkpt>
      <trkpt lat="46.60489" lon="4.82708">
        <ele>355.4</ele>
      </trkpt>
      <trkpt lat="46.60498" lon="4.82691">
        <ele>357.4</ele>
      </trkpt>
      <trkpt lat="46.60508" lon="4.82674">
        <ele>358.1</ele>
      </trkpt>
      <trkpt lat="46.60519" lon="4.82665">
        <ele>358.5</ele>
      </trkpt>
      <trkpt lat="46.60533" lon="4.82657">
        <ele>358.8</ele>
      </trkpt>
      <trkpt lat="46.60548" lon="4.82653">
        <ele>359.3</ele>
      </trkpt>
      <trkpt lat="46.60561" lon="4.82651">
        <ele>359.9</ele>
      </trkpt>
      <trkpt lat="46.60575" lon="4.82649">
        <ele>360.6</ele>
      </trkpt>
      <trkpt lat="46.60583" lon="4.8265">
        <ele>360.8</ele>
      </trkpt>
      <trkpt lat="46.60595" lon="4.82656">
        <ele>361</ele>
      </trkpt>
      <trkpt lat="46.60617" lon="4.82671">
        <ele>360.7</ele>
      </trkpt>
      <trkpt lat="46.60639" lon="4.82681">
        <ele>360.9</ele>
      </trkpt>
      <trkpt lat="46.60647" lon="4.82685">
        <ele>361</ele>
      </trkpt>
      <trkpt lat="46.60658" lon="4.8269">
        <ele>361</ele>
      </trkpt>
      <trkpt lat="46.60679" lon="4.82696">
        <ele>361.3</ele>
      </trkpt>
      <trkpt lat="46.60699" lon="4.82701">
        <ele>361.6</ele>
      </trkpt>
      <trkpt lat="46.60722" lon="4.82705">
        <ele>362</ele>
      </trkpt>
      <trkpt lat="46.60737" lon="4.82707">
        <ele>361.5</ele>
      </trkpt>
      <trkpt lat="46.6075" lon="4.82712">
        <ele>361</ele>
      </trkpt>
      <trkpt lat="46.60766" lon="4.8272">
        <ele>361</ele>
      </trkpt>
      <trkpt lat="46.60791" lon="4.82736">
        <ele>360.5</ele>
      </trkpt>
      <trkpt lat="46.60827" lon="4.82763">
        <ele>360.1</ele>
      </trkpt>
      <trkpt lat="46.60859" lon="4.82788">
        <ele>360</ele>
      </trkpt>
      <trkpt lat="46.60879" lon="4.82804">
        <ele>359.4</ele>
      </trkpt>
      <trkpt lat="46.60891" lon="4.82814">
        <ele>359</ele>
      </trkpt>
      <trkpt lat="46.60902" lon="4.82838">
        <ele>358.4</ele>
      </trkpt>
      <trkpt lat="46.60918" lon="4.82876">
        <ele>356.9</ele>
      </trkpt>
      <trkpt lat="46.60935" lon="4.82914">
        <ele>355.1</ele>
      </trkpt>
      <trkpt lat="46.60948" lon="4.82936">
        <ele>354.3</ele>
      </trkpt>
      <trkpt lat="46.60956" lon="4.82944">
        <ele>354</ele>
      </trkpt>
      <trkpt lat="46.60962" lon="4.82947">
        <ele>353.9</ele>
      </trkpt>
      <trkpt lat="46.60968" lon="4.82947">
        <ele>353.9</ele>
      </trkpt>
      <trkpt lat="46.60975" lon="4.82946">
        <ele>353.8</ele>
      </trkpt>
      <trkpt lat="46.60996" lon="4.8295">
        <ele>353.1</ele>
      </trkpt>
      <trkpt lat="46.61025" lon="4.82951">
        <ele>352.3</ele>
      </trkpt>
      <trkpt lat="46.61042" lon="4.82958">
        <ele>352</ele>
      </trkpt>
      <trkpt lat="46.61057" lon="4.82967">
        <ele>351.7</ele>
      </trkpt>
      <trkpt lat="46.61073" lon="4.82975">
        <ele>351.5</ele>
      </trkpt>
      <trkpt lat="46.61109" lon="4.8299">
        <ele>351.7</ele>
      </trkpt>
      <trkpt lat="46.61136" lon="4.83">
        <ele>352</ele>
      </trkpt>
      <trkpt lat="46.61148" lon="4.83004">
        <ele>351.7</ele>
      </trkpt>
      <trkpt lat="46.61158" lon="4.83011">
        <ele>351.6</ele>
      </trkpt>
      <trkpt lat="46.61191" lon="4.83042">
        <ele>351.6</ele>
      </trkpt>
      <trkpt lat="46.6121" lon="4.83055">
        <ele>352</ele>
      </trkpt>
      <trkpt lat="46.61229" lon="4.83063">
        <ele>352</ele>
      </trkpt>
      <trkpt lat="46.61267" lon="4.8307">
        <ele>351.7</ele>
      </trkpt>
      <trkpt lat="46.61317" lon="4.83078">
        <ele>351.4</ele>
      </trkpt>
      <trkpt lat="46.61328" lon="4.83082">
        <ele>351.1</ele>
      </trkpt>
      <trkpt lat="46.61343" lon="4.8309">
        <ele>351.2</ele>
      </trkpt>
      <trkpt lat="46.61385" lon="4.83125">
        <ele>352.5</ele>
      </trkpt>
      <trkpt lat="46.61402" lon="4.83139">
        <ele>353</ele>
      </trkpt>
      <trkpt lat="46.61424" lon="4.83156">
        <ele>353.6</ele>
      </trkpt>
      <trkpt lat="46.61439" lon="4.83166">
        <ele>354</ele>
      </trkpt>
      <trkpt lat="46.61453" lon="4.83174">
        <ele>353.8</ele>
      </trkpt>
      <trkpt lat="46.6147" lon="4.8318">
        <ele>353.5</ele>
      </trkpt>
      <trkpt lat="46.61516" lon="4.83195">
        <ele>353.4</ele>
      </trkpt>
      <trkpt lat="46.61575" lon="4.83208">
        <ele>351.5</ele>
      </trkpt>
      <trkpt lat="46.61626" lon="4.83237">
        <ele>350</ele>
      </trkpt>
      <trkpt lat="46.6167" lon="4.83263">
        <ele>349.5</ele>
      </trkpt>
      <trkpt lat="46.61702" lon="4.83222">
        <ele>347.3</ele>
      </trkpt>
      <trkpt lat="46.61746" lon="4.83123">
        <ele>343.6</ele>
      </trkpt>
      <trkpt lat="46.61748" lon="4.83099">
        <ele>341.9</ele>
      </trkpt>
      <trkpt lat="46.61756" lon="4.83068">
        <ele>339.9</ele>
      </trkpt>
      <trkpt lat="46.61768" lon="4.83039">
        <ele>338.8</ele>
      </trkpt>
      <trkpt lat="46.61786" lon="4.83014">
        <ele>338.6</ele>
      </trkpt>
      <trkpt lat="46.61808" lon="4.82993">
        <ele>338.5</ele>
      </trkpt>
      <trkpt lat="46.61835" lon="4.82973">
        <ele>338</ele>
      </trkpt>
      <trkpt lat="46.61855" lon="4.82965">
        <ele>337.7</ele>
      </trkpt>
      <trkpt lat="46.61878" lon="4.82958">
        <ele>337.2</ele>
      </trkpt>
      <trkpt lat="46.61898" lon="4.82957">
        <ele>336.8</ele>
      </trkpt>
      <trkpt lat="46.61916" lon="4.82953">
        <ele>336.3</ele>
      </trkpt>
      <trkpt lat="46.61935" lon="4.82938">
        <ele>334.5</ele>
      </trkpt>
      <trkpt lat="46.61965" lon="4.82903">
        <ele>331.2</ele>
      </trkpt>
      <trkpt lat="46.61972" lon="4.8289">
        <ele>330.1</ele>
      </trkpt>
      <trkpt lat="46.61991" lon="4.82853">
        <ele>327.6</ele>
      </trkpt>
      <trkpt lat="46.61999" lon="4.82835">
        <ele>326.2</ele>
      </trkpt>
      <trkpt lat="46.62009" lon="4.82818">
        <ele>324.6</ele>
      </trkpt>
      <trkpt lat="46.62026" lon="4.8279">
        <ele>321.6</ele>
      </trkpt>
      <trkpt lat="46.62029" lon="4.82784">
        <ele>321.2</ele>
      </trkpt>
      <trkpt lat="46.62031" lon="4.82778">
        <ele>320.8</ele>
      </trkpt>
      <trkpt lat="46.62032" lon="4.82772">
        <ele>320.5</ele>
      </trkpt>
      <trkpt lat="46.62048" lon="4.82789">
        <ele>319.9</ele>
      </trkpt>
      <trkpt lat="46.62052" lon="4.82792">
        <ele>319.8</ele>
      </trkpt>
      <trkpt lat="46.62057" lon="4.82793">
        <ele>319.4</ele>
      </trkpt>
      <trkpt lat="46.62066" lon="4.82793">
        <ele>318.6</ele>
      </trkpt>
      <trkpt lat="46.62074" lon="4.82791">
        <ele>317.8</ele>
      </trkpt>
      <trkpt lat="46.62083" lon="4.82788">
        <ele>316.8</ele>
      </trkpt>
      <trkpt lat="46.62099" lon="4.82786">
        <ele>314.9</ele>
      </trkpt>
      <trkpt lat="46.6213" lon="4.82782">
        <ele>311.4</ele>
      </trkpt>
      <trkpt lat="46.62139" lon="4.82776">
        <ele>309.8</ele>
      </trkpt>
      <trkpt lat="46.6215" lon="4.82763">
        <ele>307.2</ele>
      </trkpt>
      <trkpt lat="46.62171" lon="4.82748">
        <ele>304.4</ele>
      </trkpt>
      <trkpt lat="46.62188" lon="4.82738">
        <ele>301.8</ele>
      </trkpt>
      <trkpt lat="46.62202" lon="4.82726">
        <ele>299.3</ele>
      </trkpt>
      <trkpt lat="46.62217" lon="4.82705">
        <ele>295.7</ele>
      </trkpt>
      <trkpt lat="46.62235" lon="4.82691">
        <ele>293.5</ele>
      </trkpt>
      <trkpt lat="46.62252" lon="4.82681">
        <ele>292.1</ele>
      </trkpt>
      <trkpt lat="46.62282" lon="4.82662">
        <ele>290.5</ele>
      </trkpt>
      <trkpt lat="46.62305" lon="4.82657">
        <ele>290.7</ele>
      </trkpt>
      <trkpt lat="46.62327" lon="4.82655">
        <ele>290.7</ele>
      </trkpt>
      <trkpt lat="46.62349" lon="4.82656">
        <ele>291.2</ele>
      </trkpt>
      <trkpt lat="46.62353" lon="4.82656">
        <ele>291.3</ele>
      </trkpt>
      <trkpt lat="46.62417" lon="4.82712">
        <ele>296.8</ele>
      </trkpt>
      <trkpt lat="46.62477" lon="4.82768">
        <ele>296.3</ele>
      </trkpt>
      <trkpt lat="46.6249" lon="4.8278">
        <ele>295.7</ele>
      </trkpt>
      <trkpt lat="46.62607" lon="4.82893">
        <ele>284.8</ele>
      </trkpt>
      <trkpt lat="46.62745" lon="4.83027">
        <ele>275.3</ele>
      </trkpt>
      <trkpt lat="46.62872" lon="4.83155">
        <ele>263.9</ele>
      </trkpt>
      <trkpt lat="46.62937" lon="4.83224">
        <ele>248.7</ele>
      </trkpt>
      <trkpt lat="46.63039" lon="4.83333">
        <ele>270.1</ele>
      </trkpt>
      <trkpt lat="46.63041" lon="4.83398">
        <ele>280</ele>
      </trkpt>
      <trkpt lat="46.63122" lon="4.8344">
        <ele>273.2</ele>
      </trkpt>
      <trkpt lat="46.63134" lon="4.83442">
        <ele>271.6</ele>
      </trkpt>
      <trkpt lat="46.63144" lon="4.8345">
        <ele>270.8</ele>
      </trkpt>
      <trkpt lat="46.63167" lon="4.83476">
        <ele>270.3</ele>
      </trkpt>
      <trkpt lat="46.63198" lon="4.83498">
        <ele>268.4</ele>
      </trkpt>
      <trkpt lat="46.63211" lon="4.83504">
        <ele>266.9</ele>
      </trkpt>
      <trkpt lat="46.63221" lon="4.83506">
        <ele>265.7</ele>
      </trkpt>
      <trkpt lat="46.63251" lon="4.83505">
        <ele>262.3</ele>
      </trkpt>
      <trkpt lat="46.6326" lon="4.83507">
        <ele>261.5</ele>
      </trkpt>
      <trkpt lat="46.63264" lon="4.83509">
        <ele>261.2</ele>
      </trkpt>
      <trkpt lat="46.63271" lon="4.83517">
        <ele>260.9</ele>
      </trkpt>
      <trkpt lat="46.63279" lon="4.83519">
        <ele>260.3</ele>
      </trkpt>
      <trkpt lat="46.63293" lon="4.83532">
        <ele>260.8</ele>
      </trkpt>
      <trkpt lat="46.63305" lon="4.8354">
        <ele>260.9</ele>
      </trkpt>
      <trkpt lat="46.63318" lon="4.83547">
        <ele>260.9</ele>
      </trkpt>
      <trkpt lat="46.63352" lon="4.8355">
        <ele>259.3</ele>
      </trkpt>
      <trkpt lat="46.63375" lon="4.83549">
        <ele>257.8</ele>
      </trkpt>
      <trkpt lat="46.63376" lon="4.83549">
        <ele>257.8</ele>
      </trkpt>
      <trkpt lat="46.63381" lon="4.83549">
        <ele>257.5</ele>
      </trkpt>
      <trkpt lat="46.63399" lon="4.83549">
        <ele>256.3</ele>
      </trkpt>
      <trkpt lat="46.63424" lon="4.83556">
        <ele>255.2</ele>
      </trkpt>
      <trkpt lat="46.63447" lon="4.83569">
        <ele>254.2</ele>
      </trkpt>
      <trkpt lat="46.63478" lon="4.83595">
        <ele>254</ele>
      </trkpt>
      <trkpt lat="46.63488" lon="4.83601">
        <ele>253.5</ele>
      </trkpt>
      <trkpt lat="46.63498" lon="4.83599">
        <ele>251.9</ele>
      </trkpt>
      <trkpt lat="46.63505" lon="4.83591">
        <ele>250.5</ele>
      </trkpt>
      <trkpt lat="46.63509" lon="4.83584">
        <ele>249.5</ele>
      </trkpt>
      <trkpt lat="46.63516" lon="4.83606">
        <ele>251.3</ele>
      </trkpt>
      <trkpt lat="46.63525" lon="4.83631">
        <ele>252.7</ele>
      </trkpt>
      <trkpt lat="46.63536" lon="4.83669">
        <ele>255.3</ele>
      </trkpt>
      <trkpt lat="46.63537" lon="4.83675">
        <ele>255.6</ele>
      </trkpt>
      <trkpt lat="46.63538" lon="4.83679">
        <ele>255.8</ele>
      </trkpt>
      <trkpt lat="46.63535" lon="4.83724">
        <ele>258.6</ele>
      </trkpt>
      <trkpt lat="46.63532" lon="4.83732">
        <ele>259.4</ele>
      </trkpt>
      <trkpt lat="46.6353" lon="4.83737">
        <ele>260</ele>
      </trkpt>
      <trkpt lat="46.63522" lon="4.83755">
        <ele>261.6</ele>
      </trkpt>
      <trkpt lat="46.63517" lon="4.83781">
        <ele>262.9</ele>
      </trkpt>
      <trkpt lat="46.63514" lon="4.83805">
        <ele>264.5</ele>
      </trkpt>
      <trkpt lat="46.63503" lon="4.8382">
        <ele>266.2</ele>
      </trkpt>
      <trkpt lat="46.63493" lon="4.83832">
        <ele>267.7</ele>
      </trkpt>
      <trkpt lat="46.63481" lon="4.83848">
        <ele>269.6</ele>
      </trkpt>
      <trkpt lat="46.63473" lon="4.83855">
        <ele>270.7</ele>
      </trkpt>
      <trkpt lat="46.63461" lon="4.83863">
        <ele>271.8</ele>
      </trkpt>
      <trkpt lat="46.63452" lon="4.83869">
        <ele>272.5</ele>
      </trkpt>
      <trkpt lat="46.6345" lon="4.83877">
        <ele>272.7</ele>
      </trkpt>
      <trkpt lat="46.63453" lon="4.83875">
        <ele>272.5</ele>
      </trkpt>
      <trkpt lat="46.63537" lon="4.83882">
        <ele>265.8</ele>
      </trkpt>
      <trkpt lat="46.63581" lon="4.83888">
        <ele>261.2</ele>
      </trkpt>
      <trkpt lat="46.63586" lon="4.83895">
        <ele>260.8</ele>
      </trkpt>
      <trkpt lat="46.63588" lon="4.839">
        <ele>260.5</ele>
      </trkpt>
      <trkpt lat="46.63591" lon="4.83905">
        <ele>260.3</ele>
      </trkpt>
      <trkpt lat="46.63594" lon="4.83913">
        <ele>260.2</ele>
      </trkpt>
      <trkpt lat="46.63595" lon="4.83923">
        <ele>260.4</ele>
      </trkpt>
      <trkpt lat="46.63596" lon="4.8394">
        <ele>260.9</ele>
      </trkpt>
      <trkpt lat="46.63596" lon="4.83941">
        <ele>261</ele>
      </trkpt>
      <trkpt lat="46.63593" lon="4.83949">
        <ele>261.3</ele>
      </trkpt>
      <trkpt lat="46.63592" lon="4.83951">
        <ele>261.3</ele>
      </trkpt>
      <trkpt lat="46.63591" lon="4.83956">
        <ele>261.3</ele>
      </trkpt>
      <trkpt lat="46.63591" lon="4.83957">
        <ele>261.3</ele>
      </trkpt>
      <trkpt lat="46.6359" lon="4.83962">
        <ele>261.4</ele>
      </trkpt>
      <trkpt lat="46.63589" lon="4.83967">
        <ele>261.4</ele>
      </trkpt>
      <trkpt lat="46.63584" lon="4.84004">
        <ele>260.8</ele>
      </trkpt>
      <trkpt lat="46.63583" lon="4.84029">
        <ele>260</ele>
      </trkpt>
      <trkpt lat="46.63582" lon="4.84032">
        <ele>259.9</ele>
      </trkpt>
      <trkpt lat="46.63582" lon="4.84036">
        <ele>259.8</ele>
      </trkpt>
      <trkpt lat="46.63577" lon="4.84063">
        <ele>259.2</ele>
      </trkpt>
      <trkpt lat="46.63571" lon="4.84091">
        <ele>259.5</ele>
      </trkpt>
      <trkpt lat="46.63568" lon="4.84115">
        <ele>260</ele>
      </trkpt>
      <trkpt lat="46.63564" lon="4.84163">
        <ele>260.9</ele>
      </trkpt>
      <trkpt lat="46.63563" lon="4.84201">
        <ele>262.5</ele>
      </trkpt>
      <trkpt lat="46.63555" lon="4.84235">
        <ele>264.1</ele>
      </trkpt>
      <trkpt lat="46.63549" lon="4.8427">
        <ele>265.8</ele>
      </trkpt>
      <trkpt lat="46.6354" lon="4.84308">
        <ele>268.2</ele>
      </trkpt>
      <trkpt lat="46.63536" lon="4.84333">
        <ele>269.1</ele>
      </trkpt>
      <trkpt lat="46.63535" lon="4.8434">
        <ele>269.4</ele>
      </trkpt>
      <trkpt lat="46.63532" lon="4.8436">
        <ele>270.5</ele>
      </trkpt>
      <trkpt lat="46.6353" lon="4.84368">
        <ele>270.8</ele>
      </trkpt>
      <trkpt lat="46.6352" lon="4.84408">
        <ele>272.8</ele>
      </trkpt>
      <trkpt lat="46.63517" lon="4.84425">
        <ele>273.6</ele>
      </trkpt>
      <trkpt lat="46.63516" lon="4.84436">
        <ele>273.8</ele>
      </trkpt>
      <trkpt lat="46.63513" lon="4.84462">
        <ele>273.8</ele>
      </trkpt>
      <trkpt lat="46.63509" lon="4.84483">
        <ele>274.2</ele>
      </trkpt>
      <trkpt lat="46.63507" lon="4.84504">
        <ele>274.4</ele>
      </trkpt>
      <trkpt lat="46.63508" lon="4.84551">
        <ele>273.9</ele>
      </trkpt>
      <trkpt lat="46.63508" lon="4.84563">
        <ele>273.9</ele>
      </trkpt>
      <trkpt lat="46.6351" lon="4.84592">
        <ele>273.7</ele>
      </trkpt>
      <trkpt lat="46.63516" lon="4.84629">
        <ele>272.5</ele>
      </trkpt>
      <trkpt lat="46.63518" lon="4.84651">
        <ele>271.6</ele>
      </trkpt>
      <trkpt lat="46.63516" lon="4.84685">
        <ele>270</ele>
      </trkpt>
      <trkpt lat="46.63509" lon="4.84712">
        <ele>269.2</ele>
      </trkpt>
      <trkpt lat="46.63496" lon="4.84743">
        <ele>269.1</ele>
      </trkpt>
      <trkpt lat="46.63491" lon="4.84758">
        <ele>268.8</ele>
      </trkpt>
      <trkpt lat="46.63486" lon="4.84769">
        <ele>268.6</ele>
      </trkpt>
      <trkpt lat="46.63483" lon="4.84779">
        <ele>268.4</ele>
      </trkpt>
      <trkpt lat="46.63475" lon="4.84798">
        <ele>268.2</ele>
      </trkpt>
      <trkpt lat="46.63471" lon="4.84811">
        <ele>267.8</ele>
      </trkpt>
      <trkpt lat="46.63468" lon="4.84816">
        <ele>267.5</ele>
      </trkpt>
      <trkpt lat="46.63467" lon="4.8482">
        <ele>267.3</ele>
      </trkpt>
      <trkpt lat="46.6346" lon="4.84848">
        <ele>265.8</ele>
      </trkpt>
      <trkpt lat="46.63457" lon="4.8486">
        <ele>265.2</ele>
      </trkpt>
      <trkpt lat="46.63455" lon="4.84872">
        <ele>264.9</ele>
      </trkpt>
      <trkpt lat="46.63453" lon="4.84899">
        <ele>264.1</ele>
      </trkpt>
      <trkpt lat="46.63452" lon="4.84926">
        <ele>264.1</ele>
      </trkpt>
      <trkpt lat="46.63438" lon="4.84953">
        <ele>265.9</ele>
      </trkpt>
      <trkpt lat="46.63431" lon="4.84972">
        <ele>267.5</ele>
      </trkpt>
      <trkpt lat="46.63424" lon="4.84992">
        <ele>269.7</ele>
      </trkpt>
      <trkpt lat="46.63418" lon="4.85015">
        <ele>272.5</ele>
      </trkpt>
      <trkpt lat="46.6341" lon="4.85039">
        <ele>275.4</ele>
      </trkpt>
      <trkpt lat="46.63405" lon="4.8506">
        <ele>277.7</ele>
      </trkpt>
      <trkpt lat="46.63402" lon="4.85074">
        <ele>278.9</ele>
      </trkpt>
      <trkpt lat="46.63399" lon="4.85081">
        <ele>279.5</ele>
      </trkpt>
      <trkpt lat="46.63399" lon="4.85086">
        <ele>279.7</ele>
      </trkpt>
      <trkpt lat="46.63401" lon="4.85094">
        <ele>279.9</ele>
      </trkpt>
      <trkpt lat="46.63402" lon="4.85101">
        <ele>280.1</ele>
      </trkpt>
      <trkpt lat="46.63404" lon="4.85109">
        <ele>280.5</ele>
      </trkpt>
      <trkpt lat="46.63406" lon="4.85113">
        <ele>280.5</ele>
      </trkpt>
      <trkpt lat="46.6341" lon="4.85114">
        <ele>280.6</ele>
      </trkpt>
      <trkpt lat="46.63421" lon="4.85114">
        <ele>280.8</ele>
      </trkpt>
      <trkpt lat="46.63437" lon="4.85116">
        <ele>280.4</ele>
      </trkpt>
      <trkpt lat="46.63458" lon="4.85125">
        <ele>280</ele>
      </trkpt>
      <trkpt lat="46.6348" lon="4.85141">
        <ele>279.7</ele>
      </trkpt>
      <trkpt lat="46.63485" lon="4.85142">
        <ele>279.5</ele>
      </trkpt>
      <trkpt lat="46.63497" lon="4.85135">
        <ele>279</ele>
      </trkpt>
      <trkpt lat="46.63525" lon="4.85137">
        <ele>278.9</ele>
      </trkpt>
      <trkpt lat="46.63528" lon="4.85141">
        <ele>279</ele>
      </trkpt>
      <trkpt lat="46.63527" lon="4.85145">
        <ele>279</ele>
      </trkpt>
      <trkpt lat="46.63528" lon="4.85158">
        <ele>279</ele>
      </trkpt>
      <trkpt lat="46.63532" lon="4.85162">
        <ele>279</ele>
      </trkpt>
      <trkpt lat="46.63542" lon="4.85165">
        <ele>279</ele>
      </trkpt>
      <trkpt lat="46.6356" lon="4.85164">
        <ele>278.9</ele>
      </trkpt>
      <trkpt lat="46.63597" lon="4.85185">
        <ele>279.4</ele>
      </trkpt>
      <trkpt lat="46.63616" lon="4.85191">
        <ele>279.3</ele>
      </trkpt>
      <trkpt lat="46.63629" lon="4.85201">
        <ele>279.2</ele>
      </trkpt>
      <trkpt lat="46.63651" lon="4.85214">
        <ele>279.5</ele>
      </trkpt>
      <trkpt lat="46.63655" lon="4.85225">
        <ele>280.5</ele>
      </trkpt>
      <trkpt lat="46.63661" lon="4.85224">
        <ele>280.3</ele>
      </trkpt>
      <trkpt lat="46.63689" lon="4.85241">
        <ele>283.2</ele>
      </trkpt>
      <trkpt lat="46.63706" lon="4.85244">
        <ele>284.4</ele>
      </trkpt>
      <trkpt lat="46.63758" lon="4.85246">
        <ele>287.2</ele>
      </trkpt>
      <trkpt lat="46.63783" lon="4.85251">
        <ele>287.8</ele>
      </trkpt>
      <trkpt lat="46.63786" lon="4.85252">
        <ele>287.8</ele>
      </trkpt>
      <trkpt lat="46.63792" lon="4.85257">
        <ele>288.2</ele>
      </trkpt>
      <trkpt lat="46.63815" lon="4.85278">
        <ele>290</ele>
      </trkpt>
      <trkpt lat="46.6382" lon="4.85284">
        <ele>290.1</ele>
      </trkpt>
      <trkpt lat="46.63833" lon="4.85303">
        <ele>291.6</ele>
      </trkpt>
      <trkpt lat="46.63835" lon="4.85306">
        <ele>292</ele>
      </trkpt>
      <trkpt lat="46.63856" lon="4.85327">
        <ele>293.4</ele>
      </trkpt>
      <trkpt lat="46.63859" lon="4.85332">
        <ele>293.8</ele>
      </trkpt>
      <trkpt lat="46.63862" lon="4.85338">
        <ele>294.1</ele>
      </trkpt>
      <trkpt lat="46.63863" lon="4.8535">
        <ele>294.6</ele>
      </trkpt>
      <trkpt lat="46.6386" lon="4.85368">
        <ele>295.2</ele>
      </trkpt>
      <trkpt lat="46.63858" lon="4.85372">
        <ele>295.2</ele>
      </trkpt>
      <trkpt lat="46.63856" lon="4.85379">
        <ele>295.3</ele>
      </trkpt>
      <trkpt lat="46.63855" lon="4.85385">
        <ele>295.5</ele>
      </trkpt>
      <trkpt lat="46.63854" lon="4.85398">
        <ele>295.1</ele>
      </trkpt>
      <trkpt lat="46.63856" lon="4.85411">
        <ele>294.6</ele>
      </trkpt>
      <trkpt lat="46.63835" lon="4.85399">
        <ele>293.4</ele>
      </trkpt>
      <trkpt lat="46.63824" lon="4.85396">
        <ele>292.5</ele>
      </trkpt>
      <trkpt lat="46.63812" lon="4.85403">
        <ele>290.7</ele>
      </trkpt>
      <trkpt lat="46.63799" lon="4.85409">
        <ele>288.7</ele>
      </trkpt>
      <trkpt lat="46.63787" lon="4.85423">
        <ele>285.9</ele>
      </trkpt>
      <trkpt lat="46.63771" lon="4.8545">
        <ele>281.2</ele>
      </trkpt>
      <trkpt lat="46.63765" lon="4.8545">
        <ele>280.1</ele>
      </trkpt>
      <trkpt lat="46.63759" lon="4.85455">
        <ele>278.5</ele>
      </trkpt>
      <trkpt lat="46.63759" lon="4.85461">
        <ele>277.7</ele>
      </trkpt>
      <trkpt lat="46.6376" lon="4.8547">
        <ele>277.1</ele>
      </trkpt>
      <trkpt lat="46.63758" lon="4.85478">
        <ele>275.6</ele>
      </trkpt>
      <trkpt lat="46.63747" lon="4.85497">
        <ele>271.1</ele>
      </trkpt>
      <trkpt lat="46.6373" lon="4.85512">
        <ele>266.5</ele>
      </trkpt>
      <trkpt lat="46.63721" lon="4.85521">
        <ele>263.8</ele>
      </trkpt>
      <trkpt lat="46.63706" lon="4.85529">
        <ele>260.5</ele>
      </trkpt>
      <trkpt lat="46.63691" lon="4.85536">
        <ele>257.7</ele>
      </trkpt>
      <trkpt lat="46.63668" lon="4.85548">
        <ele>253.3</ele>
      </trkpt>
      <trkpt lat="46.63656" lon="4.85558">
        <ele>250.9</ele>
      </trkpt>
      <trkpt lat="46.63647" lon="4.85563">
        <ele>249.6</ele>
      </trkpt>
      <trkpt lat="46.6363" lon="4.8557">
        <ele>247.1</ele>
      </trkpt>
      <trkpt lat="46.63594" lon="4.85583">
        <ele>242.8</ele>
      </trkpt>
      <trkpt lat="46.63582" lon="4.85592">
        <ele>241.3</ele>
      </trkpt>
      <trkpt lat="46.63582" lon="4.85597">
        <ele>240.9</ele>
      </trkpt>
      <trkpt lat="46.63577" lon="4.85607">
        <ele>240</ele>
      </trkpt>
      <trkpt lat="46.63532" lon="4.85683">
        <ele>234</ele>
      </trkpt>
      <trkpt lat="46.63504" lon="4.85725">
        <ele>231.1</ele>
      </trkpt>
      <trkpt lat="46.63489" lon="4.8575">
        <ele>229.2</ele>
      </trkpt>
      <trkpt lat="46.63485" lon="4.85765">
        <ele>228.9</ele>
      </trkpt>
      <trkpt lat="46.63476" lon="4.85752">
        <ele>228.3</ele>
      </trkpt>
      <trkpt lat="46.63456" lon="4.85728">
        <ele>228.5</ele>
      </trkpt>
      <trkpt lat="46.63442" lon="4.85713">
        <ele>228.1</ele>
      </trkpt>
      <trkpt lat="46.63429" lon="4.85702">
        <ele>227.6</ele>
      </trkpt>
      <trkpt lat="46.63411" lon="4.85686">
        <ele>227.4</ele>
      </trkpt>
      <trkpt lat="46.6336" lon="4.85641">
        <ele>227.8</ele>
      </trkpt>
      <trkpt lat="46.63338" lon="4.85619">
        <ele>227.7</ele>
      </trkpt>
      <trkpt lat="46.63312" lon="4.85597">
        <ele>227.7</ele>
      </trkpt>
      <trkpt lat="46.63294" lon="4.85583">
        <ele>228</ele>
      </trkpt>
      <trkpt lat="46.63235" lon="4.8553">
        <ele>229.5</ele>
      </trkpt>
      <trkpt lat="46.63218" lon="4.85516">
        <ele>230</ele>
      </trkpt>
      <trkpt lat="46.63212" lon="4.8551">
        <ele>230.5</ele>
      </trkpt>
      <trkpt lat="46.63196" lon="4.85498">
        <ele>231.1</ele>
      </trkpt>
      <trkpt lat="46.63181" lon="4.85487">
        <ele>231.7</ele>
      </trkpt>
      <trkpt lat="46.63184" lon="4.85494">
        <ele>231.4</ele>
      </trkpt>
      <trkpt lat="46.63187" lon="4.85503">
        <ele>231</ele>
      </trkpt>
      <trkpt lat="46.6319" lon="4.85512">
        <ele>231</ele>
      </trkpt>
      <trkpt lat="46.63192" lon="4.85522">
        <ele>231</ele>
      </trkpt>
      <trkpt lat="46.63199" lon="4.85564">
        <ele>230.8</ele>
      </trkpt>
      <trkpt lat="46.63203" lon="4.85575">
        <ele>230.7</ele>
      </trkpt>
      <trkpt lat="46.63215" lon="4.85616">
        <ele>230.5</ele>
      </trkpt>
      <trkpt lat="46.63203" lon="4.85575">
        <ele>230.7</ele>
      </trkpt>
      <trkpt lat="46.63186" lon="4.85567">
        <ele>231.1</ele>
      </trkpt>
      <trkpt lat="46.63181" lon="4.85562">
        <ele>231.1</ele>
      </trkpt>
      <trkpt lat="46.63171" lon="4.8557">
        <ele>231.4</ele>
      </trkpt>
      <trkpt lat="46.63167" lon="4.85577">
        <ele>231.7</ele>
      </trkpt>
      <trkpt lat="46.63163" lon="4.85584">
        <ele>232.4</ele>
      </trkpt>
      <trkpt lat="46.63161" lon="4.85587">
        <ele>232.9</ele>
      </trkpt>
      <trkpt lat="46.63159" lon="4.85588">
        <ele>233.3</ele>
      </trkpt>
      <trkpt lat="46.63154" lon="4.85589">
        <ele>233.8</ele>
      </trkpt>
      <trkpt lat="46.63147" lon="4.85586">
        <ele>234.4</ele>
      </trkpt>
      <trkpt lat="46.63135" lon="4.85581">
        <ele>235.3</ele>
      </trkpt>
      <trkpt lat="46.63119" lon="4.85569">
        <ele>236</ele>
      </trkpt>
      <trkpt lat="46.63111" lon="4.85562">
        <ele>236.5</ele>
      </trkpt>
      <trkpt lat="46.63093" lon="4.85554">
        <ele>237.8</ele>
      </trkpt>
      <trkpt lat="46.63084" lon="4.8555">
        <ele>238.4</ele>
      </trkpt>
      <trkpt lat="46.63078" lon="4.8555">
        <ele>238.9</ele>
      </trkpt>
      <trkpt lat="46.63076" lon="4.8555">
        <ele>239.2</ele>
      </trkpt>
      <trkpt lat="46.63075" lon="4.85551">
        <ele>239.4</ele>
      </trkpt>
      <trkpt lat="46.63075" lon="4.85554">
        <ele>239.7</ele>
      </trkpt>
      <trkpt lat="46.63078" lon="4.85557">
        <ele>239.7</ele>
      </trkpt>
      <trkpt lat="46.63091" lon="4.85569">
        <ele>239.5</ele>
      </trkpt>
      <trkpt lat="46.63102" lon="4.85584">
        <ele>239.5</ele>
      </trkpt>
      <trkpt lat="46.63107" lon="4.85594">
        <ele>240.1</ele>
      </trkpt>
      <trkpt lat="46.63108" lon="4.85601">
        <ele>241</ele>
      </trkpt>
      <trkpt lat="46.63107" lon="4.85606">
        <ele>241.8</ele>
      </trkpt>
      <trkpt lat="46.63105" lon="4.85607">
        <ele>242.4</ele>
      </trkpt>
      <trkpt lat="46.63101" lon="4.85608">
        <ele>243</ele>
      </trkpt>
      <trkpt lat="46.63083" lon="4.85607">
        <ele>245.5</ele>
      </trkpt>
      <trkpt lat="46.63066" lon="4.85604">
        <ele>247.4</ele>
      </trkpt>
      <trkpt lat="46.63053" lon="4.85597">
        <ele>248.3</ele>
      </trkpt>
      <trkpt lat="46.63033" lon="4.85586">
        <ele>248.8</ele>
      </trkpt>
      <trkpt lat="46.63014" lon="4.85576">
        <ele>250.1</ele>
      </trkpt>
      <trkpt lat="46.63004" lon="4.85568">
        <ele>250.4</ele>
      </trkpt>
      <trkpt lat="46.6299" lon="4.8556">
        <ele>250.7</ele>
      </trkpt>
      <trkpt lat="46.62978" lon="4.85557">
        <ele>251.7</ele>
      </trkpt>
      <trkpt lat="46.62969" lon="4.8556">
        <ele>253.1</ele>
      </trkpt>
      <trkpt lat="46.62963" lon="4.85567">
        <ele>255</ele>
      </trkpt>
      <trkpt lat="46.62957" lon="4.8558">
        <ele>257.8</ele>
      </trkpt>
      <trkpt lat="46.62956" lon="4.85594">
        <ele>259.9</ele>
      </trkpt>
      <trkpt lat="46.62961" lon="4.85612">
        <ele>261.6</ele>
      </trkpt>
      <trkpt lat="46.62966" lon="4.85628">
        <ele>263.2</ele>
      </trkpt>
      <trkpt lat="46.62968" lon="4.85639">
        <ele>264.4</ele>
      </trkpt>
      <trkpt lat="46.62963" lon="4.85643">
        <ele>265.3</ele>
      </trkpt>
      <trkpt lat="46.62956" lon="4.85644">
        <ele>266.2</ele>
      </trkpt>
      <trkpt lat="46.62956" lon="4.85658">
        <ele>267.4</ele>
      </trkpt>
      <trkpt lat="46.62948" lon="4.85661">
        <ele>268.3</ele>
      </trkpt>
      <trkpt lat="46.62947" lon="4.85678">
        <ele>269.6</ele>
      </trkpt>
      <trkpt lat="46.62945" lon="4.85689">
        <ele>270.6</ele>
      </trkpt>
      <trkpt lat="46.62937" lon="4.85692">
        <ele>271.3</ele>
      </trkpt>
      <trkpt lat="46.6293" lon="4.85694">
        <ele>272</ele>
      </trkpt>
      <trkpt lat="46.62925" lon="4.85709">
        <ele>272.6</ele>
      </trkpt>
      <trkpt lat="46.62913" lon="4.85704">
        <ele>273</ele>
      </trkpt>
      <trkpt lat="46.62892" lon="4.85697">
        <ele>275</ele>
      </trkpt>
      <trkpt lat="46.62862" lon="4.85688">
        <ele>277.5</ele>
      </trkpt>
      <trkpt lat="46.62808" lon="4.85665">
        <ele>280.7</ele>
      </trkpt>
      <trkpt lat="46.62745" lon="4.85626">
        <ele>284.2</ele>
      </trkpt>
      <trkpt lat="46.62695" lon="4.85589">
        <ele>289.6</ele>
      </trkpt>
      <trkpt lat="46.62684" lon="4.85579">
        <ele>290.2</ele>
      </trkpt>
      <trkpt lat="46.62675" lon="4.85571">
        <ele>290.9</ele>
      </trkpt>
      <trkpt lat="46.62628" lon="4.85535">
        <ele>298</ele>
      </trkpt>
      <trkpt lat="46.62606" lon="4.85513">
        <ele>302.4</ele>
      </trkpt>
      <trkpt lat="46.62585" lon="4.85491">
        <ele>306.4</ele>
      </trkpt>
      <trkpt lat="46.62565" lon="4.85474">
        <ele>308.3</ele>
      </trkpt>
      <trkpt lat="46.62562" lon="4.8547">
        <ele>309</ele>
      </trkpt>
      <trkpt lat="46.62544" lon="4.85454">
        <ele>310.6</ele>
      </trkpt>
      <trkpt lat="46.62525" lon="4.85435">
        <ele>313.4</ele>
      </trkpt>
      <trkpt lat="46.62512" lon="4.85429">
        <ele>314.6</ele>
      </trkpt>
      <trkpt lat="46.62505" lon="4.85425">
        <ele>315.3</ele>
      </trkpt>
      <trkpt lat="46.62496" lon="4.85424">
        <ele>316.1</ele>
      </trkpt>
      <trkpt lat="46.6249" lon="4.85423">
        <ele>316.8</ele>
      </trkpt>
      <trkpt lat="46.62483" lon="4.85419">
        <ele>318.2</ele>
      </trkpt>
      <trkpt lat="46.6247" lon="4.85407">
        <ele>321.6</ele>
      </trkpt>
      <trkpt lat="46.62453" lon="4.85399">
        <ele>324.4</ele>
      </trkpt>
      <trkpt lat="46.62405" lon="4.85369">
        <ele>326.6</ele>
      </trkpt>
      <trkpt lat="46.62383" lon="4.85351">
        <ele>331</ele>
      </trkpt>
      <trkpt lat="46.62379" lon="4.85341">
        <ele>332.8</ele>
      </trkpt>
      <trkpt lat="46.62377" lon="4.85338">
        <ele>333.6</ele>
      </trkpt>
      <trkpt lat="46.62373" lon="4.85322">
        <ele>335.6</ele>
      </trkpt>
      <trkpt lat="46.62372" lon="4.85319">
        <ele>336</ele>
      </trkpt>
      <trkpt lat="46.62368" lon="4.85307">
        <ele>337.4</ele>
      </trkpt>
      <trkpt lat="46.62364" lon="4.853">
        <ele>337.8</ele>
      </trkpt>
      <trkpt lat="46.62359" lon="4.8529">
        <ele>338</ele>
      </trkpt>
      <trkpt lat="46.62352" lon="4.85283">
        <ele>338.3</ele>
      </trkpt>
      <trkpt lat="46.62344" lon="4.85283">
        <ele>338.5</ele>
      </trkpt>
      <trkpt lat="46.62335" lon="4.85286">
        <ele>338.7</ele>
      </trkpt>
      <trkpt lat="46.62325" lon="4.85287">
        <ele>338.1</ele>
      </trkpt>
      <trkpt lat="46.6232" lon="4.85286">
        <ele>337.8</ele>
      </trkpt>
      <trkpt lat="46.6231" lon="4.85282">
        <ele>337.7</ele>
      </trkpt>
      <trkpt lat="46.62299" lon="4.85274">
        <ele>338.1</ele>
      </trkpt>
      <trkpt lat="46.62279" lon="4.85259">
        <ele>339.7</ele>
      </trkpt>
      <trkpt lat="46.62255" lon="4.85248">
        <ele>341.1</ele>
      </trkpt>
      <trkpt lat="46.62222" lon="4.85243">
        <ele>341</ele>
      </trkpt>
      <trkpt lat="46.62163" lon="4.85222">
        <ele>346.9</ele>
      </trkpt>
      <trkpt lat="46.62135" lon="4.85216">
        <ele>346.7</ele>
      </trkpt>
      <trkpt lat="46.62107" lon="4.8521">
        <ele>347.9</ele>
      </trkpt>
      <trkpt lat="46.62094" lon="4.85209">
        <ele>348.8</ele>
      </trkpt>
      <trkpt lat="46.62076" lon="4.85212">
        <ele>349.5</ele>
      </trkpt>
      <trkpt lat="46.62032" lon="4.85223">
        <ele>350.4</ele>
      </trkpt>
      <trkpt lat="46.62015" lon="4.85226">
        <ele>351.1</ele>
      </trkpt>
      <trkpt lat="46.6201" lon="4.85227">
        <ele>351.3</ele>
      </trkpt>
      <trkpt lat="46.62004" lon="4.85228">
        <ele>351.5</ele>
      </trkpt>
      <trkpt lat="46.61996" lon="4.85227">
        <ele>353.4</ele>
      </trkpt>
      <trkpt lat="46.61983" lon="4.85225">
        <ele>356.9</ele>
      </trkpt>
      <trkpt lat="46.61948" lon="4.8522">
        <ele>363.5</ele>
      </trkpt>
      <trkpt lat="46.61907" lon="4.85208">
        <ele>365.9</ele>
      </trkpt>
      <trkpt lat="46.61879" lon="4.85195">
        <ele>367.7</ele>
      </trkpt>
      <trkpt lat="46.61863" lon="4.85184">
        <ele>368.8</ele>
      </trkpt>
      <trkpt lat="46.61852" lon="4.8517">
        <ele>369.3</ele>
      </trkpt>
      <trkpt lat="46.61843" lon="4.85163">
        <ele>369.5</ele>
      </trkpt>
      <trkpt lat="46.61828" lon="4.85157">
        <ele>369.9</ele>
      </trkpt>
      <trkpt lat="46.61792" lon="4.85142">
        <ele>370.6</ele>
      </trkpt>
      <trkpt lat="46.61744" lon="4.85123">
        <ele>371.1</ele>
      </trkpt>
      <trkpt lat="46.61735" lon="4.85122">
        <ele>371.3</ele>
      </trkpt>
      <trkpt lat="46.61726" lon="4.8512">
        <ele>371.5</ele>
      </trkpt>
      <trkpt lat="46.61723" lon="4.8512">
        <ele>371.6</ele>
      </trkpt>
      <trkpt lat="46.61701" lon="4.85119">
        <ele>372.9</ele>
      </trkpt>
      <trkpt lat="46.61675" lon="4.85122">
        <ele>374.1</ele>
      </trkpt>
      <trkpt lat="46.61651" lon="4.85127">
        <ele>374.8</ele>
      </trkpt>
      <trkpt lat="46.61631" lon="4.85129">
        <ele>374.8</ele>
      </trkpt>
      <trkpt lat="46.61624" lon="4.85128">
        <ele>374.7</ele>
      </trkpt>
      <trkpt lat="46.61618" lon="4.85127">
        <ele>374.6</ele>
      </trkpt>
      <trkpt lat="46.61602" lon="4.85123">
        <ele>374.3</ele>
      </trkpt>
      <trkpt lat="46.61591" lon="4.8512">
        <ele>374.3</ele>
      </trkpt>
      <trkpt lat="46.61587" lon="4.85118">
        <ele>374.3</ele>
      </trkpt>
      <trkpt lat="46.61552" lon="4.8509">
        <ele>374.7</ele>
      </trkpt>
      <trkpt lat="46.61526" lon="4.85072">
        <ele>375</ele>
      </trkpt>
      <trkpt lat="46.61499" lon="4.85054">
        <ele>376</ele>
      </trkpt>
      <trkpt lat="46.61481" lon="4.8504">
        <ele>376.5</ele>
      </trkpt>
      <trkpt lat="46.61449" lon="4.85019">
        <ele>378.5</ele>
      </trkpt>
      <trkpt lat="46.61424" lon="4.85008">
        <ele>380.2</ele>
      </trkpt>
      <trkpt lat="46.61405" lon="4.84987">
        <ele>382.1</ele>
      </trkpt>
      <trkpt lat="46.61399" lon="4.84983">
        <ele>382.6</ele>
      </trkpt>
      <trkpt lat="46.61371" lon="4.84965">
        <ele>384.5</ele>
      </trkpt>
      <trkpt lat="46.6137" lon="4.84965">
        <ele>384.6</ele>
      </trkpt>
      <trkpt lat="46.61345" lon="4.84953">
        <ele>384.8</ele>
      </trkpt>
      <trkpt lat="46.61331" lon="4.84949">
        <ele>384.7</ele>
      </trkpt>
      <trkpt lat="46.61329" lon="4.84948">
        <ele>384.6</ele>
      </trkpt>
      <trkpt lat="46.61315" lon="4.84949">
        <ele>383.6</ele>
      </trkpt>
      <trkpt lat="46.61306" lon="4.84955">
        <ele>383</ele>
      </trkpt>
      <trkpt lat="46.61289" lon="4.84978">
        <ele>382.2</ele>
      </trkpt>
      <trkpt lat="46.61281" lon="4.84987">
        <ele>381.6</ele>
      </trkpt>
      <trkpt lat="46.61266" lon="4.84992">
        <ele>380.9</ele>
      </trkpt>
      <trkpt lat="46.61244" lon="4.84986">
        <ele>380.3</ele>
      </trkpt>
      <trkpt lat="46.61224" lon="4.8498">
        <ele>379.8</ele>
      </trkpt>
      <trkpt lat="46.61218" lon="4.84979">
        <ele>379.8</ele>
      </trkpt>
      <trkpt lat="46.61197" lon="4.84967">
        <ele>380</ele>
      </trkpt>
      <trkpt lat="46.61174" lon="4.84942">
        <ele>379.2</ele>
      </trkpt>
      <trkpt lat="46.61161" lon="4.84929">
        <ele>378.3</ele>
      </trkpt>
      <trkpt lat="46.61151" lon="4.84915">
        <ele>377.3</ele>
      </trkpt>
      <trkpt lat="46.61148" lon="4.84909">
        <ele>376.6</ele>
      </trkpt>
      <trkpt lat="46.6114" lon="4.84902">
        <ele>376</ele>
      </trkpt>
      <trkpt lat="46.61097" lon="4.84868">
        <ele>376</ele>
      </trkpt>
      <trkpt lat="46.61053" lon="4.84827">
        <ele>381.6</ele>
      </trkpt>
      <trkpt lat="46.61044" lon="4.84821">
        <ele>383.2</ele>
      </trkpt>
      <trkpt lat="46.61037" lon="4.84815">
        <ele>384.4</ele>
      </trkpt>
      <trkpt lat="46.61022" lon="4.84802">
        <ele>386.8</ele>
      </trkpt>
      <trkpt lat="46.60977" lon="4.84753">
        <ele>394.3</ele>
      </trkpt>
      <trkpt lat="46.60925" lon="4.84697">
        <ele>401.5</ele>
      </trkpt>
      <trkpt lat="46.60922" lon="4.84694">
        <ele>401.8</ele>
      </trkpt>
      <trkpt lat="46.60919" lon="4.84689">
        <ele>402.3</ele>
      </trkpt>
      <trkpt lat="46.60916" lon="4.8468">
        <ele>403</ele>
      </trkpt>
      <trkpt lat="46.60916" lon="4.84675">
        <ele>403.4</ele>
      </trkpt>
      <trkpt lat="46.60872" lon="4.84673">
        <ele>402.9</ele>
      </trkpt>
      <trkpt lat="46.60845" lon="4.84664">
        <ele>402.7</ele>
      </trkpt>
      <trkpt lat="46.60837" lon="4.84635">
        <ele>405.5</ele>
      </trkpt>
      <trkpt lat="46.60823" lon="4.84596">
        <ele>409.3</ele>
      </trkpt>
      <trkpt lat="46.60798" lon="4.84566">
        <ele>412.1</ele>
      </trkpt>
      <trkpt lat="46.60763" lon="4.84524">
        <ele>416.4</ele>
      </trkpt>
      <trkpt lat="46.60725" lon="4.84452">
        <ele>423.3</ele>
      </trkpt>
      <trkpt lat="46.60691" lon="4.84342">
        <ele>435.9</ele>
      </trkpt>
      <trkpt lat="46.60681" lon="4.84326">
        <ele>437.2</ele>
      </trkpt>
      <trkpt lat="46.60654" lon="4.84294">
        <ele>439.5</ele>
      </trkpt>
      <trkpt lat="46.60595" lon="4.84252">
        <ele>442.1</ele>
      </trkpt>
      <trkpt lat="46.60599" lon="4.84189">
        <ele>450.1</ele>
      </trkpt>
      <trkpt lat="46.60517" lon="4.8409">
        <ele>454.9</ele>
      </trkpt>
      <trkpt lat="46.60508" lon="4.84069">
        <ele>455</ele>
      </trkpt>
      <trkpt lat="46.605" lon="4.84046">
        <ele>455</ele>
      </trkpt>
      <trkpt lat="46.60494" lon="4.84009">
        <ele>455.5</ele>
      </trkpt>
      <trkpt lat="46.60492" lon="4.83964">
        <ele>453.8</ele>
      </trkpt>
      <trkpt lat="46.60493" lon="4.83985">
        <ele>455.1</ele>
      </trkpt>
      <trkpt lat="46.60492" lon="4.83964">
        <ele>453.8</ele>
      </trkpt>
      <trkpt lat="46.60482" lon="4.83955">
        <ele>454.2</ele>
      </trkpt>
      <trkpt lat="46.6048" lon="4.83954">
        <ele>454.4</ele>
      </trkpt>
      <trkpt lat="46.6048" lon="4.83954">
        <ele>454.5</ele>
      </trkpt>
      <trkpt lat="46.60404" lon="4.83919">
        <ele>459.1</ele>
      </trkpt>
      <trkpt lat="46.60325" lon="4.83879">
        <ele>460.5</ele>
      </trkpt>
      <trkpt lat="46.6025" lon="4.83837">
        <ele>462</ele>
      </trkpt>
      <trkpt lat="46.6023" lon="4.83824">
        <ele>462.3</ele>
      </trkpt>
      <trkpt lat="46.60195" lon="4.83802">
        <ele>462.7</ele>
      </trkpt>
      <trkpt lat="46.60195" lon="4.83801">
        <ele>462.7</ele>
      </trkpt>
      <trkpt lat="46.60117" lon="4.83742">
        <ele>463.2</ele>
      </trkpt>
      <trkpt lat="46.60097" lon="4.83731">
        <ele>464.2</ele>
      </trkpt>
      <trkpt lat="46.60069" lon="4.83716">
        <ele>464.9</ele>
      </trkpt>
      <trkpt lat="46.60037" lon="4.83692">
        <ele>465</ele>
      </trkpt>
      <trkpt lat="46.60002" lon="4.83677">
        <ele>466.5</ele>
      </trkpt>
      <trkpt lat="46.59984" lon="4.83673">
        <ele>467.5</ele>
      </trkpt>
      <trkpt lat="46.59952" lon="4.83668">
        <ele>468</ele>
      </trkpt>
      <trkpt lat="46.59919" lon="4.83667">
        <ele>467.1</ele>
      </trkpt>
      <trkpt lat="46.59883" lon="4.83666">
        <ele>465.8</ele>
      </trkpt>
      <trkpt lat="46.59856" lon="4.8366">
        <ele>464.8</ele>
      </trkpt>
      <trkpt lat="46.59814" lon="4.83644">
        <ele>462.7</ele>
      </trkpt>
      <trkpt lat="46.59735" lon="4.83593">
        <ele>462.9</ele>
      </trkpt>
      <trkpt lat="46.5975" lon="4.83755">
        <ele>461.4</ele>
      </trkpt>
      <trkpt lat="46.59791" lon="4.83955">
        <ele>435.2</ele>
      </trkpt>
      <trkpt lat="46.59811" lon="4.84068">
        <ele>419</ele>
      </trkpt>
      <trkpt lat="46.59817" lon="4.84098">
        <ele>414.7</ele>
      </trkpt>
      <trkpt lat="46.59826" lon="4.84138">
        <ele>408.7</ele>
      </trkpt>
      <trkpt lat="46.59833" lon="4.84164">
        <ele>404.6</ele>
      </trkpt>
      <trkpt lat="46.59837" lon="4.84172">
        <ele>403.5</ele>
      </trkpt>
      <trkpt lat="46.59844" lon="4.84207">
        <ele>397.5</ele>
      </trkpt>
      <trkpt lat="46.59851" lon="4.84226">
        <ele>395</ele>
      </trkpt>
      <trkpt lat="46.59866" lon="4.84259">
        <ele>391.8</ele>
      </trkpt>
      <trkpt lat="46.59882" lon="4.84288">
        <ele>388.6</ele>
      </trkpt>
      <trkpt lat="46.5989" lon="4.84312">
        <ele>385.8</ele>
      </trkpt>
      <trkpt lat="46.59896" lon="4.8433">
        <ele>382.4</ele>
      </trkpt>
      <trkpt lat="46.59904" lon="4.84348">
        <ele>379.5</ele>
      </trkpt>
      <trkpt lat="46.59916" lon="4.84376">
        <ele>374.8</ele>
      </trkpt>
      <trkpt lat="46.5992" lon="4.84392">
        <ele>371.6</ele>
      </trkpt>
      <trkpt lat="46.59922" lon="4.84414">
        <ele>368.6</ele>
      </trkpt>
      <trkpt lat="46.59924" lon="4.84432">
        <ele>366.5</ele>
      </trkpt>
      <trkpt lat="46.59923" lon="4.84443">
        <ele>365.2</ele>
      </trkpt>
      <trkpt lat="46.59919" lon="4.84452">
        <ele>363.9</ele>
      </trkpt>
      <trkpt lat="46.59908" lon="4.8447">
        <ele>360.4</ele>
      </trkpt>
      <trkpt lat="46.599" lon="4.84485">
        <ele>357.3</ele>
      </trkpt>
      <trkpt lat="46.59891" lon="4.84505">
        <ele>353.6</ele>
      </trkpt>
      <trkpt lat="46.59887" lon="4.84518">
        <ele>351.9</ele>
      </trkpt>
      <trkpt lat="46.59887" lon="4.84535">
        <ele>350</ele>
      </trkpt>
      <trkpt lat="46.59887" lon="4.84552">
        <ele>348.3</ele>
      </trkpt>
      <trkpt lat="46.59884" lon="4.84564">
        <ele>347</ele>
      </trkpt>
      <trkpt lat="46.59872" lon="4.84608">
        <ele>342.5</ele>
      </trkpt>
      <trkpt lat="46.59855" lon="4.84662">
        <ele>337.3</ele>
      </trkpt>
      <trkpt lat="46.59843" lon="4.84706">
        <ele>333.9</ele>
      </trkpt>
      <trkpt lat="46.59827" lon="4.84786">
        <ele>332.4</ele>
      </trkpt>
      <trkpt lat="46.59815" lon="4.84814">
        <ele>332.2</ele>
      </trkpt>
      <trkpt lat="46.59806" lon="4.84824">
        <ele>332.4</ele>
      </trkpt>
      <trkpt lat="46.59786" lon="4.8483">
        <ele>332.1</ele>
      </trkpt>
      <trkpt lat="46.59764" lon="4.84839">
        <ele>331.7</ele>
      </trkpt>
      <trkpt lat="46.59756" lon="4.84846">
        <ele>332.2</ele>
      </trkpt>
      <trkpt lat="46.59749" lon="4.84863">
        <ele>334.1</ele>
      </trkpt>
      <trkpt lat="46.59732" lon="4.84902">
        <ele>337.1</ele>
      </trkpt>
      <trkpt lat="46.59711" lon="4.84935">
        <ele>338.5</ele>
      </trkpt>
      <trkpt lat="46.59699" lon="4.84947">
        <ele>338.4</ele>
      </trkpt>
      <trkpt lat="46.59687" lon="4.84953">
        <ele>337.6</ele>
      </trkpt>
      <trkpt lat="46.59667" lon="4.84961">
        <ele>335.6</ele>
      </trkpt>
      <trkpt lat="46.59646" lon="4.84969">
        <ele>334.5</ele>
      </trkpt>
      <trkpt lat="46.59646" lon="4.84969">
        <ele>334.5</ele>
      </trkpt>
      <trkpt lat="46.59641" lon="4.84971">
        <ele>334.1</ele>
      </trkpt>
      <trkpt lat="46.59632" lon="4.84984">
        <ele>333.6</ele>
      </trkpt>
      <trkpt lat="46.59619" lon="4.85008">
        <ele>332.2</ele>
      </trkpt>
      <trkpt lat="46.59604" lon="4.85043">
        <ele>329.2</ele>
      </trkpt>
      <trkpt lat="46.59595" lon="4.85065">
        <ele>326.8</ele>
      </trkpt>
      <trkpt lat="46.59592" lon="4.85081">
        <ele>325.3</ele>
      </trkpt>
      <trkpt lat="46.59587" lon="4.85109">
        <ele>322.8</ele>
      </trkpt>
      <trkpt lat="46.59581" lon="4.85141">
        <ele>319.4</ele>
      </trkpt>
      <trkpt lat="46.59576" lon="4.85164">
        <ele>317.1</ele>
      </trkpt>
      <trkpt lat="46.59568" lon="4.85203">
        <ele>312.8</ele>
      </trkpt>
      <trkpt lat="46.59551" lon="4.85268">
        <ele>307.2</ele>
      </trkpt>
      <trkpt lat="46.59538" lon="4.85318">
        <ele>302.8</ele>
      </trkpt>
      <trkpt lat="46.59535" lon="4.85329">
        <ele>302</ele>
      </trkpt>
      <trkpt lat="46.59535" lon="4.85335">
        <ele>301.6</ele>
      </trkpt>
      <trkpt lat="46.59536" lon="4.85351">
        <ele>300.4</ele>
      </trkpt>
      <trkpt lat="46.59538" lon="4.85372">
        <ele>298.6</ele>
      </trkpt>
      <trkpt lat="46.59537" lon="4.85384">
        <ele>297.5</ele>
      </trkpt>
      <trkpt lat="46.59535" lon="4.85391">
        <ele>296.8</ele>
      </trkpt>
      <trkpt lat="46.59526" lon="4.85407">
        <ele>295.6</ele>
      </trkpt>
      <trkpt lat="46.59517" lon="4.85424">
        <ele>294.2</ele>
      </trkpt>
      <trkpt lat="46.59517" lon="4.85425">
        <ele>294.1</ele>
      </trkpt>
      <trkpt lat="46.59514" lon="4.85434">
        <ele>293.6</ele>
      </trkpt>
      <trkpt lat="46.59512" lon="4.85448">
        <ele>292.8</ele>
      </trkpt>
      <trkpt lat="46.59509" lon="4.85503">
        <ele>288.8</ele>
      </trkpt>
      <trkpt lat="46.59509" lon="4.85584">
        <ele>282.9</ele>
      </trkpt>
      <trkpt lat="46.59506" lon="4.85638">
        <ele>278.3</ele>
      </trkpt>
      <trkpt lat="46.59506" lon="4.8566">
        <ele>276.7</ele>
      </trkpt>
      <trkpt lat="46.59509" lon="4.85678">
        <ele>275.2</ele>
      </trkpt>
      <trkpt lat="46.59512" lon="4.85689">
        <ele>274.4</ele>
      </trkpt>
      <trkpt lat="46.59521" lon="4.85709">
        <ele>273.5</ele>
      </trkpt>
      <trkpt lat="46.59523" lon="4.85713">
        <ele>273.4</ele>
      </trkpt>
      <trkpt lat="46.59526" lon="4.85717">
        <ele>273.3</ele>
      </trkpt>
      <trkpt lat="46.59536" lon="4.85729">
        <ele>273.1</ele>
      </trkpt>
      <trkpt lat="46.59554" lon="4.85741">
        <ele>273.3</ele>
      </trkpt>
      <trkpt lat="46.59585" lon="4.85759">
        <ele>272.6</ele>
      </trkpt>
      <trkpt lat="46.5961" lon="4.85775">
        <ele>271.2</ele>
      </trkpt>
      <trkpt lat="46.59616" lon="4.85785">
        <ele>270.6</ele>
      </trkpt>
      <trkpt lat="46.59624" lon="4.85814">
        <ele>268.8</ele>
      </trkpt>
      <trkpt lat="46.59641" lon="4.85879">
        <ele>265.2</ele>
      </trkpt>
      <trkpt lat="46.59655" lon="4.85926">
        <ele>261.5</ele>
      </trkpt>
      <trkpt lat="46.59665" lon="4.85962">
        <ele>260.1</ele>
      </trkpt>
      <trkpt lat="46.59671" lon="4.85992">
        <ele>258.9</ele>
      </trkpt>
      <trkpt lat="46.59678" lon="4.86032">
        <ele>258.1</ele>
      </trkpt>
      <trkpt lat="46.59686" lon="4.86067">
        <ele>257.2</ele>
      </trkpt>
      <trkpt lat="46.59695" lon="4.86095">
        <ele>257</ele>
      </trkpt>
      <trkpt lat="46.59705" lon="4.86119">
        <ele>256.6</ele>
      </trkpt>
      <trkpt lat="46.5971" lon="4.86134">
        <ele>256.4</ele>
      </trkpt>
      <trkpt lat="46.59712" lon="4.8615">
        <ele>256.2</ele>
      </trkpt>
      <trkpt lat="46.59713" lon="4.86171">
        <ele>256</ele>
      </trkpt>
      <trkpt lat="46.59714" lon="4.86199">
        <ele>256</ele>
      </trkpt>
      <trkpt lat="46.59714" lon="4.86212">
        <ele>256</ele>
      </trkpt>
      <trkpt lat="46.59715" lon="4.86221">
        <ele>256</ele>
      </trkpt>
      <trkpt lat="46.59719" lon="4.86234">
        <ele>255.9</ele>
      </trkpt>
      <trkpt lat="46.59722" lon="4.86248">
        <ele>256</ele>
      </trkpt>
      <trkpt lat="46.59727" lon="4.86248">
        <ele>256</ele>
      </trkpt>
      <trkpt lat="46.59751" lon="4.86251">
        <ele>256</ele>
      </trkpt>
      <trkpt lat="46.59748" lon="4.86259">
        <ele>256</ele>
      </trkpt>
      <trkpt lat="46.59743" lon="4.86265">
        <ele>255.9</ele>
      </trkpt>
      <trkpt lat="46.59726" lon="4.8628">
        <ele>255.1</ele>
      </trkpt>
      <trkpt lat="46.59712" lon="4.86292">
        <ele>254.5</ele>
      </trkpt>
      <trkpt lat="46.59697" lon="4.86301">
        <ele>254.2</ele>
      </trkpt>
      <trkpt lat="46.59686" lon="4.86305">
        <ele>253.7</ele>
      </trkpt>
      <trkpt lat="46.59676" lon="4.86311">
        <ele>253.1</ele>
      </trkpt>
      <trkpt lat="46.59669" lon="4.86319">
        <ele>252.6</ele>
      </trkpt>
      <trkpt lat="46.59659" lon="4.86331">
        <ele>251.5</ele>
      </trkpt>
      <trkpt lat="46.59647" lon="4.86347">
        <ele>250.4</ele>
      </trkpt>
      <trkpt lat="46.59631" lon="4.86367">
        <ele>249.3</ele>
      </trkpt>
      <trkpt lat="46.59618" lon="4.86387">
        <ele>248.3</ele>
      </trkpt>
      <trkpt lat="46.59609" lon="4.86397">
        <ele>247.5</ele>
      </trkpt>
      <trkpt lat="46.59599" lon="4.86407">
        <ele>246.4</ele>
      </trkpt>
      <trkpt lat="46.59585" lon="4.86419">
        <ele>245.1</ele>
      </trkpt>
      <trkpt lat="46.59577" lon="4.86428">
        <ele>244.4</ele>
      </trkpt>
      <trkpt lat="46.59561" lon="4.86454">
        <ele>242.5</ele>
      </trkpt>
      <trkpt lat="46.59544" lon="4.86493">
        <ele>240.5</ele>
      </trkpt>
      <trkpt lat="46.59534" lon="4.86518">
        <ele>238.1</ele>
      </trkpt>
      <trkpt lat="46.59527" lon="4.86528">
        <ele>237</ele>
      </trkpt>
      <trkpt lat="46.59523" lon="4.86533">
        <ele>236.8</ele>
      </trkpt>
      <trkpt lat="46.59504" lon="4.86548">
        <ele>235.5</ele>
      </trkpt>
      <trkpt lat="46.59476" lon="4.86572">
        <ele>233.2</ele>
      </trkpt>
      <trkpt lat="46.59455" lon="4.86593">
        <ele>231.5</ele>
      </trkpt>
      <trkpt lat="46.59448" lon="4.86603">
        <ele>230.7</ele>
      </trkpt>
      <trkpt lat="46.59443" lon="4.86614">
        <ele>229.9</ele>
      </trkpt>
      <trkpt lat="46.59438" lon="4.86626">
        <ele>229.7</ele>
      </trkpt>
      <trkpt lat="46.59431" lon="4.86657">
        <ele>228.7</ele>
      </trkpt>
      <trkpt lat="46.59422" lon="4.86698">
        <ele>227.5</ele>
      </trkpt>
      <trkpt lat="46.59412" lon="4.86736">
        <ele>226.7</ele>
      </trkpt>
      <trkpt lat="46.59402" lon="4.86768">
        <ele>225.9</ele>
      </trkpt>
      <trkpt lat="46.59397" lon="4.86787">
        <ele>225.2</ele>
      </trkpt>
      <trkpt lat="46.59395" lon="4.86804">
        <ele>224.5</ele>
      </trkpt>
      <trkpt lat="46.59395" lon="4.8681">
        <ele>224.3</ele>
      </trkpt>
      <trkpt lat="46.59392" lon="4.86858">
        <ele>222.4</ele>
      </trkpt>
      <trkpt lat="46.59391" lon="4.86876">
        <ele>221.6</ele>
      </trkpt>
      <trkpt lat="46.59387" lon="4.86902">
        <ele>221</ele>
      </trkpt>
      <trkpt lat="46.59379" lon="4.86945">
        <ele>220</ele>
      </trkpt>
      <trkpt lat="46.59372" lon="4.86984">
        <ele>219.6</ele>
      </trkpt>
      <trkpt lat="46.59367" lon="4.87003">
        <ele>219</ele>
      </trkpt>
      <trkpt lat="46.59362" lon="4.87017">
        <ele>219</ele>
      </trkpt>
      <trkpt lat="46.59355" lon="4.87035">
        <ele>218.8</ele>
      </trkpt>
      <trkpt lat="46.59344" lon="4.87055">
        <ele>218.6</ele>
      </trkpt>
      <trkpt lat="46.59335" lon="4.87074">
        <ele>218.9</ele>
      </trkpt>
      <trkpt lat="46.59332" lon="4.87082">
        <ele>219.1</ele>
      </trkpt>
      <trkpt lat="46.5933" lon="4.87088">
        <ele>219.2</ele>
      </trkpt>
      <trkpt lat="46.59329" lon="4.87113">
        <ele>219.3</ele>
      </trkpt>
      <trkpt lat="46.59326" lon="4.87159">
        <ele>219.3</ele>
      </trkpt>
      <trkpt lat="46.59324" lon="4.87182">
        <ele>218.8</ele>
      </trkpt>
      <trkpt lat="46.59317" lon="4.87211">
        <ele>218</ele>
      </trkpt>
      <trkpt lat="46.59306" lon="4.87252">
        <ele>216.9</ele>
      </trkpt>
      <trkpt lat="46.59296" lon="4.87287">
        <ele>216.3</ele>
      </trkpt>
      <trkpt lat="46.5928" lon="4.87339">
        <ele>215.7</ele>
      </trkpt>
      <trkpt lat="46.59266" lon="4.87384">
        <ele>214.9</ele>
      </trkpt>
      <trkpt lat="46.59258" lon="4.87415">
        <ele>214.5</ele>
      </trkpt>
      <trkpt lat="46.59248" lon="4.8747">
        <ele>213.2</ele>
      </trkpt>
      <trkpt lat="46.59242" lon="4.87512">
        <ele>212.5</ele>
      </trkpt>
      <trkpt lat="46.59241" lon="4.87535">
        <ele>212.1</ele>
      </trkpt>
      <trkpt lat="46.59241" lon="4.87564">
        <ele>211.3</ele>
      </trkpt>
      <trkpt lat="46.59242" lon="4.87582">
        <ele>211.3</ele>
      </trkpt>
      <trkpt lat="46.59245" lon="4.87597">
        <ele>210.7</ele>
      </trkpt>
      <trkpt lat="46.59256" lon="4.87626">
        <ele>209.9</ele>
      </trkpt>
      <trkpt lat="46.59259" lon="4.87635">
        <ele>209.7</ele>
      </trkpt>
      <trkpt lat="46.59275" lon="4.87693">
        <ele>208.1</ele>
      </trkpt>
      <trkpt lat="46.59289" lon="4.87738">
        <ele>207.3</ele>
      </trkpt>
      <trkpt lat="46.59299" lon="4.87778">
        <ele>206.2</ele>
      </trkpt>
      <trkpt lat="46.59302" lon="4.87793">
        <ele>206.1</ele>
      </trkpt>
      <trkpt lat="46.59296" lon="4.87841">
        <ele>205.6</ele>
      </trkpt>
      <trkpt lat="46.59288" lon="4.87899">
        <ele>205.3</ele>
      </trkpt>
      <trkpt lat="46.59287" lon="4.87903">
        <ele>205.2</ele>
      </trkpt>
      <trkpt lat="46.59281" lon="4.87923">
        <ele>204.9</ele>
      </trkpt>
      <trkpt lat="46.59273" lon="4.87938">
        <ele>205</ele>
      </trkpt>
      <trkpt lat="46.5924" lon="4.87983">
        <ele>204.8</ele>
      </trkpt>
      <trkpt lat="46.59211" lon="4.88021">
        <ele>204.3</ele>
      </trkpt>
      <trkpt lat="46.59198" lon="4.88041">
        <ele>204</ele>
      </trkpt>
      <trkpt lat="46.5919" lon="4.88053">
        <ele>204</ele>
      </trkpt>
      <trkpt lat="46.59173" lon="4.88089">
        <ele>203.2</ele>
      </trkpt>
      <trkpt lat="46.59161" lon="4.88121">
        <ele>203</ele>
      </trkpt>
      <trkpt lat="46.59151" lon="4.88159">
        <ele>203</ele>
      </trkpt>
      <trkpt lat="46.59148" lon="4.88167">
        <ele>203</ele>
      </trkpt>
      <trkpt lat="46.59151" lon="4.88179">
        <ele>203</ele>
      </trkpt>
      <trkpt lat="46.59153" lon="4.88194">
        <ele>203</ele>
      </trkpt>
      <trkpt lat="46.59153" lon="4.88207">
        <ele>203</ele>
      </trkpt>
      <trkpt lat="46.59155" lon="4.88219">
        <ele>203</ele>
      </trkpt>
      <trkpt lat="46.59158" lon="4.8823">
        <ele>202.5</ele>
      </trkpt>
      <trkpt lat="46.59166" lon="4.88252">
        <ele>201</ele>
      </trkpt>
      <trkpt lat="46.59167" lon="4.88256">
        <ele>201</ele>
      </trkpt>
      <trkpt lat="46.59173" lon="4.88275">
        <ele>201</ele>
      </trkpt>
      <trkpt lat="46.59183" lon="4.88318">
        <ele>198.3</ele>
      </trkpt>
      <trkpt lat="46.59187" lon="4.88338">
        <ele>196.3</ele>
      </trkpt>
      <trkpt lat="46.5919" lon="4.88361">
        <ele>195.2</ele>
      </trkpt>
      <trkpt lat="46.59192" lon="4.88367">
        <ele>195.1</ele>
      </trkpt>
      <trkpt lat="46.59192" lon="4.88373">
        <ele>195</ele>
      </trkpt>
      <trkpt lat="46.59191" lon="4.88378">
        <ele>195.1</ele>
      </trkpt>
      <trkpt lat="46.59186" lon="4.88383">
        <ele>195.1</ele>
      </trkpt>
      <trkpt lat="46.59195" lon="4.88392">
        <ele>194.9</ele>
      </trkpt>
      <trkpt lat="46.59209" lon="4.88404">
        <ele>194.5</ele>
      </trkpt>
      <trkpt lat="46.59221" lon="4.88415">
        <ele>194.1</ele>
      </trkpt>
      <trkpt lat="46.59216" lon="4.88424">
        <ele>194</ele>
      </trkpt>
      <trkpt lat="46.59213" lon="4.88443">
        <ele>194</ele>
      </trkpt>
      <trkpt lat="46.59211" lon="4.88449">
        <ele>194</ele>
      </trkpt>
      <trkpt lat="46.5921" lon="4.88455">
        <ele>194</ele>
      </trkpt>
      <trkpt lat="46.5921" lon="4.88457">
        <ele>194</ele>
      </trkpt>
      <trkpt lat="46.59208" lon="4.8846">
        <ele>194</ele>
      </trkpt>
      <trkpt lat="46.59206" lon="4.88466">
        <ele>194</ele>
      </trkpt>
      <trkpt lat="46.59218" lon="4.88491">
        <ele>193.4</ele>
      </trkpt>
      <trkpt lat="46.59232" lon="4.88508">
        <ele>193.2</ele>
      </trkpt>
      <trkpt lat="46.59243" lon="4.88518">
        <ele>193.2</ele>
      </trkpt>
      <trkpt lat="46.59266" lon="4.88538">
        <ele>193.1</ele>
      </trkpt>
      <trkpt lat="46.5927" lon="4.88541">
        <ele>193.1</ele>
      </trkpt>
      <trkpt lat="46.59291" lon="4.88562">
        <ele>193</ele>
      </trkpt>
      <trkpt lat="46.59303" lon="4.88573">
        <ele>193</ele>
      </trkpt>
      <trkpt lat="46.59305" lon="4.88578">
        <ele>193</ele>
      </trkpt>
      <trkpt lat="46.59303" lon="4.88585">
        <ele>193</ele>
      </trkpt>
      <trkpt lat="46.59288" lon="4.88632">
        <ele>193</ele>
      </trkpt>
      <trkpt lat="46.59268" lon="4.88696">
        <ele>193.4</ele>
      </trkpt>
      <trkpt lat="46.59259" lon="4.8873">
        <ele>195.1</ele>
      </trkpt>
      <trkpt lat="46.59253" lon="4.88748">
        <ele>195.9</ele>
      </trkpt>
      <trkpt lat="46.59261" lon="4.88753">
        <ele>196.2</ele>
      </trkpt>
      <trkpt lat="46.59277" lon="4.88771">
        <ele>197.5</ele>
      </trkpt>
      <trkpt lat="46.59281" lon="4.88779">
        <ele>197.9</ele>
      </trkpt>
      <trkpt lat="46.59289" lon="4.88782">
        <ele>197.9</ele>
      </trkpt>
      <trkpt lat="46.59304" lon="4.88799">
        <ele>199.3</ele>
      </trkpt>
      <trkpt lat="46.59335" lon="4.88837">
        <ele>200.1</ele>
      </trkpt>
      <trkpt lat="46.59347" lon="4.88852">
        <ele>200</ele>
      </trkpt>
      <trkpt lat="46.59374" lon="4.88882">
        <ele>198.1</ele>
      </trkpt>
      <trkpt lat="46.59393" lon="4.88902">
        <ele>196.3</ele>
      </trkpt>
      <trkpt lat="46.59405" lon="4.88911">
        <ele>194.9</ele>
      </trkpt>
      <trkpt lat="46.59457" lon="4.88951">
        <ele>192.6</ele>
      </trkpt>
      <trkpt lat="46.59491" lon="4.88982">
        <ele>192.1</ele>
      </trkpt>
      <trkpt lat="46.59516" lon="4.89009">
        <ele>191.6</ele>
      </trkpt>
      <trkpt lat="46.59542" lon="4.89034">
        <ele>191.4</ele>
      </trkpt>
      <trkpt lat="46.59586" lon="4.89072">
        <ele>191.1</ele>
      </trkpt>
      <trkpt lat="46.59624" lon="4.89102">
        <ele>190.6</ele>
      </trkpt>
      <trkpt lat="46.59652" lon="4.89127">
        <ele>190.4</ele>
      </trkpt>
      <trkpt lat="46.59661" lon="4.89138">
        <ele>190.3</ele>
      </trkpt>
      <trkpt lat="46.59662" lon="4.89144">
        <ele>191</ele>
      </trkpt>
      <trkpt lat="46.59659" lon="4.89152">
        <ele>192.3</ele>
      </trkpt>
      <trkpt lat="46.59645" lon="4.89178">
        <ele>196.2</ele>
      </trkpt>
      <trkpt lat="46.59608" lon="4.89262">
        <ele>205.8</ele>
      </trkpt>
      <trkpt lat="46.596" lon="4.89279">
        <ele>207.1</ele>
      </trkpt>
      <trkpt lat="46.59597" lon="4.89289">
        <ele>207.6</ele>
      </trkpt>
      <trkpt lat="46.59599" lon="4.89291">
        <ele>207.7</ele>
      </trkpt>
      <trkpt lat="46.5961" lon="4.89307">
        <ele>208.3</ele>
      </trkpt>
      <trkpt lat="46.59619" lon="4.89321">
        <ele>211.3</ele>
      </trkpt>
      <trkpt lat="46.59626" lon="4.8933">
        <ele>212.6</ele>
      </trkpt>
      <trkpt lat="46.5963" lon="4.89335">
        <ele>212.9</ele>
      </trkpt>
      <trkpt lat="46.59634" lon="4.89341">
        <ele>212.6</ele>
      </trkpt>
      <trkpt lat="46.59638" lon="4.89346">
        <ele>212.2</ele>
      </trkpt>
      <trkpt lat="46.59642" lon="4.89353">
        <ele>211.4</ele>
      </trkpt>
      <trkpt lat="46.59654" lon="4.89371">
        <ele>209.5</ele>
      </trkpt>
      <trkpt lat="46.59667" lon="4.89391">
        <ele>207.2</ele>
      </trkpt>
      <trkpt lat="46.59675" lon="4.89382">
        <ele>207.5</ele>
      </trkpt>
      <trkpt lat="46.59691" lon="4.89367">
        <ele>206.7</ele>
      </trkpt>
      <trkpt lat="46.59711" lon="4.89359">
        <ele>203.8</ele>
      </trkpt>
      <trkpt lat="46.59731" lon="4.89357">
        <ele>201.4</ele>
      </trkpt>
      <trkpt lat="46.59747" lon="4.89357">
        <ele>199.4</ele>
      </trkpt>
      <trkpt lat="46.59762" lon="4.89362">
        <ele>197.9</ele>
      </trkpt>
      <trkpt lat="46.59788" lon="4.89379">
        <ele>195.5</ele>
      </trkpt>
      <trkpt lat="46.59832" lon="4.89423">
        <ele>192.5</ele>
      </trkpt>
      <trkpt lat="46.5984" lon="4.89429">
        <ele>192.1</ele>
      </trkpt>
      <trkpt lat="46.59846" lon="4.89429">
        <ele>191.1</ele>
      </trkpt>
      <trkpt lat="46.59858" lon="4.89445">
        <ele>190.8</ele>
      </trkpt>
      <trkpt lat="46.59892" lon="4.89493">
        <ele>190.5</ele>
      </trkpt>
      <trkpt lat="46.59904" lon="4.89518">
        <ele>191.8</ele>
      </trkpt>
      <trkpt lat="46.59912" lon="4.89548">
        <ele>193</ele>
      </trkpt>
      <trkpt lat="46.59913" lon="4.8956">
        <ele>193.6</ele>
      </trkpt>
      <trkpt lat="46.59916" lon="4.8957">
        <ele>193.7</ele>
      </trkpt>
      <trkpt lat="46.59919" lon="4.89586">
        <ele>193.6</ele>
      </trkpt>
      <trkpt lat="46.59925" lon="4.89597">
        <ele>192.8</ele>
      </trkpt>
      <trkpt lat="46.59929" lon="4.89606">
        <ele>192.2</ele>
      </trkpt>
      <trkpt lat="46.59932" lon="4.89616">
        <ele>191.7</ele>
      </trkpt>
      <trkpt lat="46.59934" lon="4.89625">
        <ele>191.2</ele>
      </trkpt>
      <trkpt lat="46.59937" lon="4.89636">
        <ele>190.5</ele>
      </trkpt>
      <trkpt lat="46.59939" lon="4.89647">
        <ele>190.1</ele>
      </trkpt>
      <trkpt lat="46.59942" lon="4.8966">
        <ele>189.7</ele>
      </trkpt>
      <trkpt lat="46.59944" lon="4.89672">
        <ele>189.2</ele>
      </trkpt>
      <trkpt lat="46.59944" lon="4.8969">
        <ele>189</ele>
      </trkpt>
      <trkpt lat="46.59944" lon="4.89708">
        <ele>189.1</ele>
      </trkpt>
      <trkpt lat="46.59944" lon="4.89728">
        <ele>189.3</ele>
      </trkpt>
      <trkpt lat="46.59943" lon="4.89765">
        <ele>190.1</ele>
      </trkpt>
      <trkpt lat="46.59943" lon="4.89795">
        <ele>191.7</ele>
      </trkpt>
      <trkpt lat="46.59944" lon="4.89821">
        <ele>192.6</ele>
      </trkpt>
      <trkpt lat="46.59945" lon="4.89851">
        <ele>194.5</ele>
      </trkpt>
      <trkpt lat="46.59949" lon="4.89875">
        <ele>198.7</ele>
      </trkpt>
      <trkpt lat="46.5995" lon="4.89879">
        <ele>199.7</ele>
      </trkpt>
      <trkpt lat="46.59956" lon="4.89896">
        <ele>201.5</ele>
      </trkpt>
      <trkpt lat="46.59958" lon="4.899">
        <ele>201.4</ele>
      </trkpt>
      <trkpt lat="46.5996" lon="4.89904">
        <ele>201.4</ele>
      </trkpt>
      <trkpt lat="46.59965" lon="4.89919">
        <ele>200.7</ele>
      </trkpt>
      <trkpt lat="46.59971" lon="4.89935">
        <ele>201.7</ele>
      </trkpt>
      <trkpt lat="46.59978" lon="4.89958">
        <ele>204.4</ele>
      </trkpt>
      <trkpt lat="46.59996" lon="4.90004">
        <ele>206.6</ele>
      </trkpt>
      <trkpt lat="46.60004" lon="4.90028">
        <ele>207.6</ele>
      </trkpt>
      <trkpt lat="46.60004" lon="4.90037">
        <ele>207.6</ele>
      </trkpt>
      <trkpt lat="46.60003" lon="4.90051">
        <ele>207.8</ele>
      </trkpt>
      <trkpt lat="46.60006" lon="4.90051">
        <ele>207.7</ele>
      </trkpt>
      <trkpt lat="46.60009" lon="4.90054">
        <ele>207.6</ele>
      </trkpt>
      <trkpt lat="46.60016" lon="4.90069">
        <ele>207.9</ele>
      </trkpt>
      <trkpt lat="46.60025" lon="4.90096">
        <ele>208.1</ele>
      </trkpt>
      <trkpt lat="46.60056" lon="4.90161">
        <ele>208.8</ele>
      </trkpt>
      <trkpt lat="46.60073" lon="4.902">
        <ele>209.1</ele>
      </trkpt>
      <trkpt lat="46.60075" lon="4.90211">
        <ele>209.6</ele>
      </trkpt>
      <trkpt lat="46.6008" lon="4.90224">
        <ele>210.2</ele>
      </trkpt>
      <trkpt lat="46.60085" lon="4.90239">
        <ele>210.5</ele>
      </trkpt>
      <trkpt lat="46.60087" lon="4.9025">
        <ele>210.8</ele>
      </trkpt>
      <trkpt lat="46.60087" lon="4.90266">
        <ele>211.4</ele>
      </trkpt>
      <trkpt lat="46.6008" lon="4.90318">
        <ele>213.6</ele>
      </trkpt>
      <trkpt lat="46.60077" lon="4.9034">
        <ele>214.2</ele>
      </trkpt>
      <trkpt lat="46.60069" lon="4.90379">
        <ele>214.5</ele>
      </trkpt>
      <trkpt lat="46.60063" lon="4.90393">
        <ele>214.9</ele>
      </trkpt>
      <trkpt lat="46.6005" lon="4.90415">
        <ele>215.9</ele>
      </trkpt>
      <trkpt lat="46.60043" lon="4.90425">
        <ele>215.8</ele>
      </trkpt>
      <trkpt lat="46.60036" lon="4.90428">
        <ele>215.9</ele>
      </trkpt>
      <trkpt lat="46.60037" lon="4.90433">
        <ele>215.8</ele>
      </trkpt>
      <trkpt lat="46.60037" lon="4.90439">
        <ele>215.7</ele>
      </trkpt>
      <trkpt lat="46.60033" lon="4.90483">
        <ele>215.5</ele>
      </trkpt>
      <trkpt lat="46.60027" lon="4.90522">
        <ele>214.2</ele>
      </trkpt>
      <trkpt lat="46.60027" lon="4.90532">
        <ele>213.9</ele>
      </trkpt>
      <trkpt lat="46.60028" lon="4.90537">
        <ele>213.7</ele>
      </trkpt>
      <trkpt lat="46.60028" lon="4.90541">
        <ele>213.5</ele>
      </trkpt>
      <trkpt lat="46.60029" lon="4.90545">
        <ele>213.4</ele>
      </trkpt>
      <trkpt lat="46.60025" lon="4.90551">
        <ele>213.2</ele>
      </trkpt>
      <trkpt lat="46.60017" lon="4.90579">
        <ele>212.2</ele>
      </trkpt>
      <trkpt lat="46.60002" lon="4.90644">
        <ele>208.9</ele>
      </trkpt>
      <trkpt lat="46.59997" lon="4.90654">
        <ele>208.5</ele>
      </trkpt>
      <trkpt lat="46.5999" lon="4.90654">
        <ele>208.6</ele>
      </trkpt>
      <trkpt lat="46.5997" lon="4.90661">
        <ele>208.4</ele>
      </trkpt>
      <trkpt lat="46.59938" lon="4.90669">
        <ele>207.2</ele>
      </trkpt>
      <trkpt lat="46.59904" lon="4.90674">
        <ele>207.4</ele>
      </trkpt>
      <trkpt lat="46.59877" lon="4.90675">
        <ele>206.9</ele>
      </trkpt>
      <trkpt lat="46.59859" lon="4.90673">
        <ele>206.7</ele>
      </trkpt>
      <trkpt lat="46.59829" lon="4.90669">
        <ele>206.2</ele>
      </trkpt>
      <trkpt lat="46.5982" lon="4.90667">
        <ele>206.5</ele>
      </trkpt>
      <trkpt lat="46.5981" lon="4.90746">
        <ele>202.4</ele>
      </trkpt>
      <trkpt lat="46.59802" lon="4.90811">
        <ele>199.9</ele>
      </trkpt>
      <trkpt lat="46.59798" lon="4.90853">
        <ele>199.1</ele>
      </trkpt>
      <trkpt lat="46.59794" lon="4.9091">
        <ele>197.7</ele>
      </trkpt>
      <trkpt lat="46.59791" lon="4.90979">
        <ele>196.9</ele>
      </trkpt>
      <trkpt lat="46.59789" lon="4.91002">
        <ele>196.4</ele>
      </trkpt>
      <trkpt lat="46.59787" lon="4.91022">
        <ele>196.1</ele>
      </trkpt>
      <trkpt lat="46.5978" lon="4.91047">
        <ele>196</ele>
      </trkpt>
      <trkpt lat="46.59771" lon="4.91075">
        <ele>195.7</ele>
      </trkpt>
      <trkpt lat="46.59754" lon="4.91126">
        <ele>196.5</ele>
      </trkpt>
      <trkpt lat="46.59745" lon="4.91156">
        <ele>196.1</ele>
      </trkpt>
      <trkpt lat="46.59744" lon="4.91159">
        <ele>196</ele>
      </trkpt>
      <trkpt lat="46.59743" lon="4.91165">
        <ele>195.8</ele>
      </trkpt>
      <trkpt lat="46.59742" lon="4.91182">
        <ele>194.6</ele>
      </trkpt>
      <trkpt lat="46.5974" lon="4.91202">
        <ele>194.5</ele>
      </trkpt>
      <trkpt lat="46.5974" lon="4.91208">
        <ele>195.2</ele>
      </trkpt>
      <trkpt lat="46.59738" lon="4.91213">
        <ele>195.7</ele>
      </trkpt>
      <trkpt lat="46.59734" lon="4.91215">
        <ele>195.8</ele>
      </trkpt>
      <trkpt lat="46.59727" lon="4.91217">
        <ele>195.9</ele>
      </trkpt>
      <trkpt lat="46.59719" lon="4.91215">
        <ele>195.7</ele>
      </trkpt>
      <trkpt lat="46.59696" lon="4.91212">
        <ele>195.4</ele>
      </trkpt>
      <trkpt lat="46.5968" lon="4.91216">
        <ele>195.1</ele>
      </trkpt>
      <trkpt lat="46.59639" lon="4.91236">
        <ele>194</ele>
      </trkpt>
      <trkpt lat="46.5961" lon="4.9125">
        <ele>189.9</ele>
      </trkpt>
      <trkpt lat="46.5959" lon="4.91265">
        <ele>188.6</ele>
      </trkpt>
      <trkpt lat="46.59574" lon="4.91285">
        <ele>187.1</ele>
      </trkpt>
      <trkpt lat="46.59563" lon="4.91305">
        <ele>185.5</ele>
      </trkpt>
      <trkpt lat="46.59553" lon="4.91327">
        <ele>184.9</ele>
      </trkpt>
      <trkpt lat="46.59535" lon="4.91382">
        <ele>183.4</ele>
      </trkpt>
      <trkpt lat="46.59522" lon="4.91433">
        <ele>181.9</ele>
      </trkpt>
      <trkpt lat="46.59513" lon="4.91473">
        <ele>181.4</ele>
      </trkpt>
      <trkpt lat="46.59511" lon="4.91495">
        <ele>180.9</ele>
      </trkpt>
      <trkpt lat="46.59511" lon="4.915">
        <ele>180.8</ele>
      </trkpt>
      <trkpt lat="46.59511" lon="4.91516">
        <ele>180.1</ele>
      </trkpt>
      <trkpt lat="46.59513" lon="4.91522">
        <ele>180</ele>
      </trkpt>
      <trkpt lat="46.59519" lon="4.91553">
        <ele>177.1</ele>
      </trkpt>
      <trkpt lat="46.59519" lon="4.91565">
        <ele>176.5</ele>
      </trkpt>
      <trkpt lat="46.59518" lon="4.91577">
        <ele>176.1</ele>
      </trkpt>
      <trkpt lat="46.59514" lon="4.91591">
        <ele>175.9</ele>
      </trkpt>
      <trkpt lat="46.59505" lon="4.91614">
        <ele>175.7</ele>
      </trkpt>
      <trkpt lat="46.59487" lon="4.91653">
        <ele>174.7</ele>
      </trkpt>
      <trkpt lat="46.59474" lon="4.91692">
        <ele>174.9</ele>
      </trkpt>
      <trkpt lat="46.59471" lon="4.91705">
        <ele>175</ele>
      </trkpt>
      <trkpt lat="46.59467" lon="4.91723">
        <ele>175</ele>
      </trkpt>
      <trkpt lat="46.59464" lon="4.91745">
        <ele>174.2</ele>
      </trkpt>
      <trkpt lat="46.59462" lon="4.91769">
        <ele>174</ele>
      </trkpt>
      <trkpt lat="46.59461" lon="4.91789">
        <ele>174</ele>
      </trkpt>
      <trkpt lat="46.59459" lon="4.91805">
        <ele>174</ele>
      </trkpt>
      <trkpt lat="46.59454" lon="4.91826">
        <ele>174</ele>
      </trkpt>
      <trkpt lat="46.59445" lon="4.91859">
        <ele>174</ele>
      </trkpt>
      <trkpt lat="46.59431" lon="4.919">
        <ele>173.2</ele>
      </trkpt>
      <trkpt lat="46.59415" lon="4.91954">
        <ele>173</ele>
      </trkpt>
      <trkpt lat="46.59393" lon="4.9202">
        <ele>173</ele>
      </trkpt>
      <trkpt lat="46.59381" lon="4.92062">
        <ele>173.2</ele>
      </trkpt>
      <trkpt lat="46.59366" lon="4.92116">
        <ele>174</ele>
      </trkpt>
      <trkpt lat="46.59357" lon="4.92146">
        <ele>174</ele>
      </trkpt>
      <trkpt lat="46.59348" lon="4.92167">
        <ele>174</ele>
      </trkpt>
      <trkpt lat="46.59328" lon="4.92206">
        <ele>174</ele>
      </trkpt>
      <trkpt lat="46.59299" lon="4.92261">
        <ele>174</ele>
      </trkpt>
      <trkpt lat="46.59264" lon="4.92321">
        <ele>174</ele>
      </trkpt>
      <trkpt lat="46.59252" lon="4.92306">
        <ele>174.1</ele>
      </trkpt>
      <trkpt lat="46.59224" lon="4.92274">
        <ele>174</ele>
      </trkpt>
      <trkpt lat="46.59186" lon="4.92229">
        <ele>173.7</ele>
      </trkpt>
      <trkpt lat="46.59152" lon="4.92187">
        <ele>173.6</ele>
      </trkpt>
      <trkpt lat="46.5913" lon="4.92157">
        <ele>173.8</ele>
      </trkpt>
      <trkpt lat="46.59096" lon="4.92116">
        <ele>173.5</ele>
      </trkpt>
      <trkpt lat="46.59069" lon="4.92081">
        <ele>173.5</ele>
      </trkpt>
      <trkpt lat="46.59054" lon="4.92062">
        <ele>173.7</ele>
      </trkpt>
      <trkpt lat="46.5903" lon="4.92023">
        <ele>173.2</ele>
      </trkpt>
      <trkpt lat="46.59004" lon="4.91975">
        <ele>173.1</ele>
      </trkpt>
      <trkpt lat="46.58987" lon="4.91942">
        <ele>173.6</ele>
      </trkpt>
      <trkpt lat="46.58971" lon="4.91911">
        <ele>174</ele>
      </trkpt>
      <trkpt lat="46.58953" lon="4.91884">
        <ele>173.4</ele>
      </trkpt>
      <trkpt lat="46.5893" lon="4.91856">
        <ele>173.6</ele>
      </trkpt>
      <trkpt lat="46.5889" lon="4.91817">
        <ele>173.6</ele>
      </trkpt>
      <trkpt lat="46.58849" lon="4.91776">
        <ele>173.6</ele>
      </trkpt>
      <trkpt lat="46.58804" lon="4.9173">
        <ele>173.7</ele>
      </trkpt>
      <trkpt lat="46.58783" lon="4.9171">
        <ele>173.6</ele>
      </trkpt>
      <trkpt lat="46.58776" lon="4.91702">
        <ele>173.7</ele>
      </trkpt>
      <trkpt lat="46.58741" lon="4.91663">
        <ele>173.7</ele>
      </trkpt>
      <trkpt lat="46.58719" lon="4.91641">
        <ele>173.8</ele>
      </trkpt>
      <trkpt lat="46.58692" lon="4.91611">
        <ele>173</ele>
      </trkpt>
      <trkpt lat="46.58657" lon="4.91577">
        <ele>173.2</ele>
      </trkpt>
      <trkpt lat="46.58623" lon="4.9155">
        <ele>173.4</ele>
      </trkpt>
      <trkpt lat="46.58597" lon="4.91532">
        <ele>173.4</ele>
      </trkpt>
      <trkpt lat="46.58559" lon="4.91509">
        <ele>173.7</ele>
      </trkpt>
      <trkpt lat="46.58538" lon="4.91495">
        <ele>173.5</ele>
      </trkpt>
      <trkpt lat="46.58523" lon="4.91481">
        <ele>173.6</ele>
      </trkpt>
      <trkpt lat="46.58516" lon="4.91473">
        <ele>173.6</ele>
      </trkpt>
      <trkpt lat="46.58509" lon="4.91473">
        <ele>173.3</ele>
      </trkpt>
      <trkpt lat="46.5849" lon="4.91461">
        <ele>173.4</ele>
      </trkpt>
      <trkpt lat="46.58434" lon="4.91425">
        <ele>173.4</ele>
      </trkpt>
      <trkpt lat="46.58408" lon="4.91407">
        <ele>173.2</ele>
      </trkpt>
      <trkpt lat="46.58373" lon="4.9138">
        <ele>173.2</ele>
      </trkpt>
      <trkpt lat="46.58349" lon="4.91363">
        <ele>173.5</ele>
      </trkpt>
      <trkpt lat="46.58314" lon="4.9134">
        <ele>173.2</ele>
      </trkpt>
      <trkpt lat="46.58288" lon="4.91323">
        <ele>173.4</ele>
      </trkpt>
      <trkpt lat="46.58258" lon="4.91306">
        <ele>173.3</ele>
      </trkpt>
      <trkpt lat="46.58224" lon="4.91288">
        <ele>173.6</ele>
      </trkpt>
      <trkpt lat="46.58159" lon="4.91251">
        <ele>173.7</ele>
      </trkpt>
      <trkpt lat="46.58117" lon="4.91229">
        <ele>173.8</ele>
      </trkpt>
      <trkpt lat="46.58103" lon="4.91223">
        <ele>173.7</ele>
      </trkpt>
      <trkpt lat="46.58078" lon="4.91215">
        <ele>173.3</ele>
      </trkpt>
      <trkpt lat="46.58052" lon="4.91207">
        <ele>173.5</ele>
      </trkpt>
      <trkpt lat="46.58014" lon="4.91199">
        <ele>173.8</ele>
      </trkpt>
      <trkpt lat="46.57983" lon="4.91197">
        <ele>173.9</ele>
      </trkpt>
      <trkpt lat="46.57949" lon="4.91198">
        <ele>173.9</ele>
      </trkpt>
      <trkpt lat="46.57922" lon="4.912">
        <ele>173.8</ele>
      </trkpt>
      <trkpt lat="46.57901" lon="4.91201">
        <ele>173.8</ele>
      </trkpt>
      <trkpt lat="46.57856" lon="4.91195">
        <ele>173.2</ele>
      </trkpt>
      <trkpt lat="46.57836" lon="4.91194">
        <ele>173.9</ele>
      </trkpt>
      <trkpt lat="46.57804" lon="4.9119">
        <ele>173</ele>
      </trkpt>
      <trkpt lat="46.57756" lon="4.91189">
        <ele>173</ele>
      </trkpt>
      <trkpt lat="46.57728" lon="4.91188">
        <ele>173</ele>
      </trkpt>
      <trkpt lat="46.57702" lon="4.91187">
        <ele>173</ele>
      </trkpt>
      <trkpt lat="46.57666" lon="4.91184">
        <ele>173</ele>
      </trkpt>
      <trkpt lat="46.57645" lon="4.91182">
        <ele>173</ele>
      </trkpt>
      <trkpt lat="46.57624" lon="4.91182">
        <ele>173.2</ele>
      </trkpt>
      <trkpt lat="46.57593" lon="4.91187">
        <ele>173.7</ele>
      </trkpt>
      <trkpt lat="46.57558" lon="4.91196">
        <ele>173.9</ele>
      </trkpt>
      <trkpt lat="46.57539" lon="4.91203">
        <ele>173.7</ele>
      </trkpt>
      <trkpt lat="46.57517" lon="4.91207">
        <ele>173.6</ele>
      </trkpt>
      <trkpt lat="46.57477" lon="4.91214">
        <ele>173.3</ele>
      </trkpt>
      <trkpt lat="46.57447" lon="4.91219">
        <ele>173.1</ele>
      </trkpt>
      <trkpt lat="46.574" lon="4.91228">
        <ele>173.8</ele>
      </trkpt>
      <trkpt lat="46.57368" lon="4.91233">
        <ele>173.6</ele>
      </trkpt>
      <trkpt lat="46.57352" lon="4.91235">
        <ele>173.5</ele>
      </trkpt>
      <trkpt lat="46.57322" lon="4.9124">
        <ele>173.4</ele>
      </trkpt>
      <trkpt lat="46.57292" lon="4.91244">
        <ele>173.2</ele>
      </trkpt>
      <trkpt lat="46.5728" lon="4.91244">
        <ele>173.2</ele>
      </trkpt>
      <trkpt lat="46.57258" lon="4.9124">
        <ele>173.3</ele>
      </trkpt>
      <trkpt lat="46.57237" lon="4.91237">
        <ele>173.5</ele>
      </trkpt>
      <trkpt lat="46.57216" lon="4.91236">
        <ele>173.5</ele>
      </trkpt>
      <trkpt lat="46.57189" lon="4.91235">
        <ele>173.4</ele>
      </trkpt>
      <trkpt lat="46.57166" lon="4.91233">
        <ele>173</ele>
      </trkpt>
      <trkpt lat="46.57114" lon="4.9122">
        <ele>173.1</ele>
      </trkpt>
      <trkpt lat="46.57057" lon="4.91205">
        <ele>173.6</ele>
      </trkpt>
    </trkseg>
  </trk>
</gpx>